<?xml version="1.0" encoding="UTF-8"?>
<gpx creator="Garmin Connect" version="1.1"
  xsi:schemaLocation="http://www.topografix.com/GPX/1/1 http://www.topografix.com/GPX/11.xsd"
  xmlns:ns3="http://www.garmin.com/xmlschemas/TrackPointExtension/v1"
  xmlns="http://www.topografix.com/GPX/1/1"
  xmlns:xsi="http://www.w3.org/2001/XMLSchema-instance" xmlns:ns2="http://www.garmin.com/xmlschemas/GpxExtensions/v3">
  <metadata>
    <link href="connect.garmin.com">
      <text>Garmin Connect</text>
    </link>
    <time>2021-06-27T14:16:39.000Z</time>
  </metadata>
  <trk>
    <name>Fresno County Hiking</name>
    <type>hiking</type>
    <trkseg>
      <trkpt lat="36.8165740929543972015380859375" lon="-118.4070569090545177459716796875">
        <ele>3214.800048828125</ele>
        <time>2021-06-27T14:16:39.000Z</time>
        <extensions>
          <ns3:TrackPointExtension>
            <ns3:atemp>24.0</ns3:atemp>
            <ns3:hr>85</ns3:hr>
          </ns3:TrackPointExtension>
        </extensions>
      </trkpt>
      <trkpt lat="36.816596053540706634521484375" lon="-118.4070079587399959564208984375">
        <ele>3215.60009765625</ele>
        <time>2021-06-27T14:16:51.000Z</time>
        <extensions>
          <ns3:TrackPointExtension>
            <ns3:atemp>24.0</ns3:atemp>
            <ns3:hr>84</ns3:hr>
          </ns3:TrackPointExtension>
        </extensions>
      </trkpt>
      <trkpt lat="36.81660233996808528900146484375" lon="-118.4069968946278095245361328125">
        <ele>3215.800048828125</ele>
        <time>2021-06-27T14:16:52.000Z</time>
        <extensions>
          <ns3:TrackPointExtension>
            <ns3:atemp>24.0</ns3:atemp>
            <ns3:hr>86</ns3:hr>
          </ns3:TrackPointExtension>
        </extensions>
      </trkpt>
      <trkpt lat="36.81663603521883487701416015625" lon="-118.40698222629725933074951171875">
        <ele>3216.199951171875</ele>
        <time>2021-06-27T14:16:55.000Z</time>
        <extensions>
          <ns3:TrackPointExtension>
            <ns3:atemp>24.0</ns3:atemp>
            <ns3:hr>83</ns3:hr>
          </ns3:TrackPointExtension>
        </extensions>
      </trkpt>
      <trkpt lat="36.8166518770158290863037109375" lon="-118.40695624239742755889892578125">
        <ele>3216.199951171875</ele>
        <time>2021-06-27T14:16:58.000Z</time>
        <extensions>
          <ns3:TrackPointExtension>
            <ns3:atemp>24.0</ns3:atemp>
            <ns3:hr>82</ns3:hr>
          </ns3:TrackPointExtension>
        </extensions>
      </trkpt>
      <trkpt lat="36.8166656233370304107666015625" lon="-118.406923301517963409423828125">
        <ele>3215.60009765625</ele>
        <time>2021-06-27T14:17:01.000Z</time>
        <extensions>
          <ns3:TrackPointExtension>
            <ns3:atemp>24.0</ns3:atemp>
            <ns3:hr>79</ns3:hr>
          </ns3:TrackPointExtension>
        </extensions>
      </trkpt>
      <trkpt lat="36.81667308323085308074951171875" lon="-118.40691232122480869293212890625">
        <ele>3215.60009765625</ele>
        <time>2021-06-27T14:17:02.000Z</time>
        <extensions>
          <ns3:TrackPointExtension>
            <ns3:atemp>24.0</ns3:atemp>
            <ns3:hr>78</ns3:hr>
          </ns3:TrackPointExtension>
        </extensions>
      </trkpt>
      <trkpt lat="36.81666637770831584930419921875" lon="-118.4068902768194675445556640625">
        <ele>3215.39990234375</ele>
        <time>2021-06-27T14:17:05.000Z</time>
        <extensions>
          <ns3:TrackPointExtension>
            <ns3:atemp>24.0</ns3:atemp>
            <ns3:hr>78</ns3:hr>
          </ns3:TrackPointExtension>
        </extensions>
      </trkpt>
      <trkpt lat="36.816657073795795440673828125" lon="-118.4068772010505199432373046875">
        <ele>3214.60009765625</ele>
        <time>2021-06-27T14:17:08.000Z</time>
        <extensions>
          <ns3:TrackPointExtension>
            <ns3:atemp>24.0</ns3:atemp>
            <ns3:hr>78</ns3:hr>
          </ns3:TrackPointExtension>
        </extensions>
      </trkpt>
      <trkpt lat="36.81666319258511066436767578125" lon="-118.40682548470795154571533203125">
        <ele>3214</ele>
        <time>2021-06-27T14:17:12.000Z</time>
        <extensions>
          <ns3:TrackPointExtension>
            <ns3:atemp>24.0</ns3:atemp>
            <ns3:hr>81</ns3:hr>
          </ns3:TrackPointExtension>
        </extensions>
      </trkpt>
      <trkpt lat="36.81667090393602848052978515625" lon="-118.40681366622447967529296875">
        <ele>3214</ele>
        <time>2021-06-27T14:17:13.000Z</time>
        <extensions>
          <ns3:TrackPointExtension>
            <ns3:atemp>24.0</ns3:atemp>
            <ns3:hr>82</ns3:hr>
          </ns3:TrackPointExtension>
        </extensions>
      </trkpt>
      <trkpt lat="36.81670594029128551483154296875" lon="-118.40679363347589969635009765625">
        <ele>3214</ele>
        <time>2021-06-27T14:17:17.000Z</time>
        <extensions>
          <ns3:TrackPointExtension>
            <ns3:atemp>24.0</ns3:atemp>
            <ns3:hr>83</ns3:hr>
          </ns3:TrackPointExtension>
        </extensions>
      </trkpt>
      <trkpt lat="36.816722787916660308837890625" lon="-118.40677636675536632537841796875">
        <ele>3214</ele>
        <time>2021-06-27T14:17:19.000Z</time>
        <extensions>
          <ns3:TrackPointExtension>
            <ns3:atemp>24.0</ns3:atemp>
            <ns3:hr>80</ns3:hr>
          </ns3:TrackPointExtension>
        </extensions>
      </trkpt>
      <trkpt lat="36.81673360057175159454345703125" lon="-118.40677217580378055572509765625">
        <ele>3214</ele>
        <time>2021-06-27T14:17:20.000Z</time>
        <extensions>
          <ns3:TrackPointExtension>
            <ns3:atemp>24.0</ns3:atemp>
            <ns3:hr>80</ns3:hr>
          </ns3:TrackPointExtension>
        </extensions>
      </trkpt>
      <trkpt lat="36.81674818508327007293701171875" lon="-118.40676714666187763214111328125">
        <ele>3214</ele>
        <time>2021-06-27T14:17:21.000Z</time>
        <extensions>
          <ns3:TrackPointExtension>
            <ns3:atemp>24.0</ns3:atemp>
            <ns3:hr>83</ns3:hr>
          </ns3:TrackPointExtension>
        </extensions>
      </trkpt>
      <trkpt lat="36.81680090725421905517578125" lon="-118.40669430792331695556640625">
        <ele>3214.60009765625</ele>
        <time>2021-06-27T14:17:30.000Z</time>
        <extensions>
          <ns3:TrackPointExtension>
            <ns3:atemp>24.0</ns3:atemp>
            <ns3:hr>86</ns3:hr>
          </ns3:TrackPointExtension>
        </extensions>
      </trkpt>
      <trkpt lat="36.81681054644286632537841796875" lon="-118.40668232180178165435791015625">
        <ele>3214.60009765625</ele>
        <time>2021-06-27T14:17:31.000Z</time>
        <extensions>
          <ns3:TrackPointExtension>
            <ns3:atemp>24.0</ns3:atemp>
            <ns3:hr>86</ns3:hr>
          </ns3:TrackPointExtension>
        </extensions>
      </trkpt>
      <trkpt lat="36.81685815565288066864013671875" lon="-118.40664342977106571197509765625">
        <ele>3213.800048828125</ele>
        <time>2021-06-27T14:17:36.000Z</time>
        <extensions>
          <ns3:TrackPointExtension>
            <ns3:atemp>24.0</ns3:atemp>
            <ns3:hr>87</ns3:hr>
          </ns3:TrackPointExtension>
        </extensions>
      </trkpt>
      <trkpt lat="36.816893778741359710693359375" lon="-118.406628258526325225830078125">
        <ele>3214.199951171875</ele>
        <time>2021-06-27T14:17:39.000Z</time>
        <extensions>
          <ns3:TrackPointExtension>
            <ns3:atemp>24.0</ns3:atemp>
            <ns3:hr>86</ns3:hr>
          </ns3:TrackPointExtension>
        </extensions>
      </trkpt>
      <trkpt lat="36.8169687129557132720947265625" lon="-118.40660705231130123138427734375">
        <ele>3215.199951171875</ele>
        <time>2021-06-27T14:17:45.000Z</time>
        <extensions>
          <ns3:TrackPointExtension>
            <ns3:atemp>24.0</ns3:atemp>
            <ns3:hr>83</ns3:hr>
          </ns3:TrackPointExtension>
        </extensions>
      </trkpt>
      <trkpt lat="36.8169848062098026275634765625" lon="-118.4066059626638889312744140625">
        <ele>3215.199951171875</ele>
        <time>2021-06-27T14:17:47.000Z</time>
        <extensions>
          <ns3:TrackPointExtension>
            <ns3:atemp>24.0</ns3:atemp>
            <ns3:hr>84</ns3:hr>
          </ns3:TrackPointExtension>
        </extensions>
      </trkpt>
      <trkpt lat="36.8170096166431903839111328125" lon="-118.40659967623651027679443359375">
        <ele>3215.60009765625</ele>
        <time>2021-06-27T14:17:49.000Z</time>
        <extensions>
          <ns3:TrackPointExtension>
            <ns3:atemp>24.0</ns3:atemp>
            <ns3:hr>87</ns3:hr>
          </ns3:TrackPointExtension>
        </extensions>
      </trkpt>
      <trkpt lat="36.81702462024986743927001953125" lon="-118.40659548528492450714111328125">
        <ele>3215.60009765625</ele>
        <time>2021-06-27T14:17:50.000Z</time>
        <extensions>
          <ns3:TrackPointExtension>
            <ns3:atemp>24.0</ns3:atemp>
            <ns3:hr>88</ns3:hr>
          </ns3:TrackPointExtension>
        </extensions>
      </trkpt>
      <trkpt lat="36.81708614341914653778076171875" lon="-118.40656061656773090362548828125">
        <ele>3216.39990234375</ele>
        <time>2021-06-27T14:17:56.000Z</time>
        <extensions>
          <ns3:TrackPointExtension>
            <ns3:atemp>23.0</ns3:atemp>
            <ns3:hr>89</ns3:hr>
          </ns3:TrackPointExtension>
        </extensions>
      </trkpt>
      <trkpt lat="36.8170967884361743927001953125" lon="-118.40655357576906681060791015625">
        <ele>3216.39990234375</ele>
        <time>2021-06-27T14:17:57.000Z</time>
        <extensions>
          <ns3:TrackPointExtension>
            <ns3:atemp>23.0</ns3:atemp>
            <ns3:hr>90</ns3:hr>
          </ns3:TrackPointExtension>
        </extensions>
      </trkpt>
      <trkpt lat="36.81711346842348575592041015625" lon="-118.40653999708592891693115234375">
        <ele>3216.800048828125</ele>
        <time>2021-06-27T14:17:59.000Z</time>
        <extensions>
          <ns3:TrackPointExtension>
            <ns3:atemp>23.0</ns3:atemp>
            <ns3:hr>90</ns3:hr>
          </ns3:TrackPointExtension>
        </extensions>
      </trkpt>
      <trkpt lat="36.81714649312198162078857421875" lon="-118.40646908618509769439697265625">
        <ele>3217.39990234375</ele>
        <time>2021-06-27T14:18:05.000Z</time>
        <extensions>
          <ns3:TrackPointExtension>
            <ns3:atemp>23.0</ns3:atemp>
            <ns3:hr>93</ns3:hr>
          </ns3:TrackPointExtension>
        </extensions>
      </trkpt>
      <trkpt lat="36.81715629994869232177734375" lon="-118.40644092299044132232666015625">
        <ele>3217.60009765625</ele>
        <time>2021-06-27T14:18:07.000Z</time>
        <extensions>
          <ns3:TrackPointExtension>
            <ns3:atemp>23.0</ns3:atemp>
            <ns3:hr>93</ns3:hr>
          </ns3:TrackPointExtension>
        </extensions>
      </trkpt>
      <trkpt lat="36.81715755723416805267333984375" lon="-118.4064269252121448516845703125">
        <ele>3217.800048828125</ele>
        <time>2021-06-27T14:18:08.000Z</time>
        <extensions>
          <ns3:TrackPointExtension>
            <ns3:atemp>23.0</ns3:atemp>
            <ns3:hr>93</ns3:hr>
          </ns3:TrackPointExtension>
        </extensions>
      </trkpt>
      <trkpt lat="36.8171668611466884613037109375" lon="-118.40640571899712085723876953125">
        <ele>3218</ele>
        <time>2021-06-27T14:18:09.000Z</time>
        <extensions>
          <ns3:TrackPointExtension>
            <ns3:atemp>23.0</ns3:atemp>
            <ns3:hr>88</ns3:hr>
          </ns3:TrackPointExtension>
        </extensions>
      </trkpt>
      <trkpt lat="36.81718270294368267059326171875" lon="-118.4063679166138172149658203125">
        <ele>3218</ele>
        <time>2021-06-27T14:18:11.000Z</time>
        <extensions>
          <ns3:TrackPointExtension>
            <ns3:atemp>23.0</ns3:atemp>
            <ns3:hr>94</ns3:hr>
          </ns3:TrackPointExtension>
        </extensions>
      </trkpt>
      <trkpt lat="36.8171886540949344635009765625" lon="-118.40635525994002819061279296875">
        <ele>3218</ele>
        <time>2021-06-27T14:18:12.000Z</time>
        <extensions>
          <ns3:TrackPointExtension>
            <ns3:atemp>23.0</ns3:atemp>
            <ns3:hr>94</ns3:hr>
          </ns3:TrackPointExtension>
        </extensions>
      </trkpt>
      <trkpt lat="36.81720751337707042694091796875" lon="-118.40634201653301715850830078125">
        <ele>3218.39990234375</ele>
        <time>2021-06-27T14:18:14.000Z</time>
        <extensions>
          <ns3:TrackPointExtension>
            <ns3:atemp>23.0</ns3:atemp>
            <ns3:hr>95</ns3:hr>
          </ns3:TrackPointExtension>
        </extensions>
      </trkpt>
      <trkpt lat="36.8172064237296581268310546875" lon="-118.40633313171565532684326171875">
        <ele>3218.60009765625</ele>
        <time>2021-06-27T14:18:15.000Z</time>
        <extensions>
          <ns3:TrackPointExtension>
            <ns3:atemp>23.0</ns3:atemp>
            <ns3:hr>95</ns3:hr>
          </ns3:TrackPointExtension>
        </extensions>
      </trkpt>
      <trkpt lat="36.8172020651400089263916015625" lon="-118.4062881208956241607666015625">
        <ele>3219.199951171875</ele>
        <time>2021-06-27T14:18:18.000Z</time>
        <extensions>
          <ns3:TrackPointExtension>
            <ns3:atemp>23.0</ns3:atemp>
            <ns3:hr>95</ns3:hr>
          </ns3:TrackPointExtension>
        </extensions>
      </trkpt>
      <trkpt lat="36.81720784865319728851318359375" lon="-118.4062743745744228363037109375">
        <ele>3218.60009765625</ele>
        <time>2021-06-27T14:18:19.000Z</time>
        <extensions>
          <ns3:TrackPointExtension>
            <ns3:atemp>23.0</ns3:atemp>
            <ns3:hr>95</ns3:hr>
          </ns3:TrackPointExtension>
        </extensions>
      </trkpt>
      <trkpt lat="36.81721505708992481231689453125" lon="-118.40625836513936519622802734375">
        <ele>3218.60009765625</ele>
        <time>2021-06-27T14:18:20.000Z</time>
        <extensions>
          <ns3:TrackPointExtension>
            <ns3:atemp>23.0</ns3:atemp>
            <ns3:hr>95</ns3:hr>
          </ns3:TrackPointExtension>
        </extensions>
      </trkpt>
      <trkpt lat="36.81722578592598438262939453125" lon="-118.4062309563159942626953125">
        <ele>3218.800048828125</ele>
        <time>2021-06-27T14:18:22.000Z</time>
        <extensions>
          <ns3:TrackPointExtension>
            <ns3:atemp>23.0</ns3:atemp>
            <ns3:hr>96</ns3:hr>
          </ns3:TrackPointExtension>
        </extensions>
      </trkpt>
      <trkpt lat="36.8172347545623779296875" lon="-118.4062086604535579681396484375">
        <ele>3218.800048828125</ele>
        <time>2021-06-27T14:18:24.000Z</time>
        <extensions>
          <ns3:TrackPointExtension>
            <ns3:atemp>23.0</ns3:atemp>
            <ns3:hr>97</ns3:hr>
          </ns3:TrackPointExtension>
        </extensions>
      </trkpt>
      <trkpt lat="36.8172429688274860382080078125" lon="-118.406174965202808380126953125">
        <ele>3217.39990234375</ele>
        <time>2021-06-27T14:18:28.000Z</time>
        <extensions>
          <ns3:TrackPointExtension>
            <ns3:atemp>23.0</ns3:atemp>
            <ns3:hr>96</ns3:hr>
          </ns3:TrackPointExtension>
        </extensions>
      </trkpt>
      <trkpt lat="36.817255876958370208740234375" lon="-118.4061690978705883026123046875">
        <ele>3218.60009765625</ele>
        <time>2021-06-27T14:18:29.000Z</time>
        <extensions>
          <ns3:TrackPointExtension>
            <ns3:atemp>23.0</ns3:atemp>
            <ns3:hr>97</ns3:hr>
          </ns3:TrackPointExtension>
        </extensions>
      </trkpt>
      <trkpt lat="36.81728638708591461181640625" lon="-118.4061513282358646392822265625">
        <ele>3218.60009765625</ele>
        <time>2021-06-27T14:18:31.000Z</time>
        <extensions>
          <ns3:TrackPointExtension>
            <ns3:atemp>23.0</ns3:atemp>
            <ns3:hr>98</ns3:hr>
          </ns3:TrackPointExtension>
        </extensions>
      </trkpt>
      <trkpt lat="36.8172969482839107513427734375" lon="-118.4061312116682529449462890625">
        <ele>3218.60009765625</ele>
        <time>2021-06-27T14:18:32.000Z</time>
        <extensions>
          <ns3:TrackPointExtension>
            <ns3:atemp>23.0</ns3:atemp>
            <ns3:hr>99</ns3:hr>
          </ns3:TrackPointExtension>
        </extensions>
      </trkpt>
      <trkpt lat="36.81731865741312503814697265625" lon="-118.40604244731366634368896484375">
        <ele>3219.800048828125</ele>
        <time>2021-06-27T14:18:40.000Z</time>
        <extensions>
          <ns3:TrackPointExtension>
            <ns3:atemp>23.0</ns3:atemp>
            <ns3:hr>97</ns3:hr>
          </ns3:TrackPointExtension>
        </extensions>
      </trkpt>
      <trkpt lat="36.8173277936875820159912109375" lon="-118.4060369990766048431396484375">
        <ele>3219.800048828125</ele>
        <time>2021-06-27T14:18:41.000Z</time>
        <extensions>
          <ns3:TrackPointExtension>
            <ns3:atemp>23.0</ns3:atemp>
            <ns3:hr>97</ns3:hr>
          </ns3:TrackPointExtension>
        </extensions>
      </trkpt>
      <trkpt lat="36.81734011508524417877197265625" lon="-118.406034149229526519775390625">
        <ele>3220.199951171875</ele>
        <time>2021-06-27T14:18:43.000Z</time>
        <extensions>
          <ns3:TrackPointExtension>
            <ns3:atemp>23.0</ns3:atemp>
            <ns3:hr>95</ns3:hr>
          </ns3:TrackPointExtension>
        </extensions>
      </trkpt>
      <trkpt lat="36.817353777587413787841796875" lon="-118.40603523887693881988525390625">
        <ele>3218.800048828125</ele>
        <time>2021-06-27T14:18:44.000Z</time>
        <extensions>
          <ns3:TrackPointExtension>
            <ns3:atemp>23.0</ns3:atemp>
            <ns3:hr>98</ns3:hr>
          </ns3:TrackPointExtension>
        </extensions>
      </trkpt>
      <trkpt lat="36.81738202460110187530517578125" lon="-118.40602233074605464935302734375">
        <ele>3219</ele>
        <time>2021-06-27T14:18:47.000Z</time>
        <extensions>
          <ns3:TrackPointExtension>
            <ns3:atemp>23.0</ns3:atemp>
            <ns3:hr>98</ns3:hr>
          </ns3:TrackPointExtension>
        </extensions>
      </trkpt>
      <trkpt lat="36.817403398454189300537109375" lon="-118.405993245542049407958984375">
        <ele>3220.199951171875</ele>
        <time>2021-06-27T14:18:51.000Z</time>
        <extensions>
          <ns3:TrackPointExtension>
            <ns3:atemp>23.0</ns3:atemp>
            <ns3:hr>101</ns3:hr>
          </ns3:TrackPointExtension>
        </extensions>
      </trkpt>
      <trkpt lat="36.81741219945251941680908203125" lon="-118.40595946647226810455322265625">
        <ele>3220.800048828125</ele>
        <time>2021-06-27T14:18:55.000Z</time>
        <extensions>
          <ns3:TrackPointExtension>
            <ns3:atemp>23.0</ns3:atemp>
            <ns3:hr>100</ns3:hr>
          </ns3:TrackPointExtension>
        </extensions>
      </trkpt>
      <trkpt lat="36.8174226768314838409423828125" lon="-118.40594270266592502593994140625">
        <ele>3220.800048828125</ele>
        <time>2021-06-27T14:18:57.000Z</time>
        <extensions>
          <ns3:TrackPointExtension>
            <ns3:atemp>23.0</ns3:atemp>
            <ns3:hr>100</ns3:hr>
          </ns3:TrackPointExtension>
        </extensions>
      </trkpt>
      <trkpt lat="36.817435584962368011474609375" lon="-118.40591554529964923858642578125">
        <ele>3221.39990234375</ele>
        <time>2021-06-27T14:19:00.000Z</time>
        <extensions>
          <ns3:TrackPointExtension>
            <ns3:atemp>23.0</ns3:atemp>
            <ns3:hr>100</ns3:hr>
          </ns3:TrackPointExtension>
        </extensions>
      </trkpt>
      <trkpt lat="36.81744103319942951202392578125" lon="-118.40584983117878437042236328125">
        <ele>3221.800048828125</ele>
        <time>2021-06-27T14:19:06.000Z</time>
        <extensions>
          <ns3:TrackPointExtension>
            <ns3:atemp>23.0</ns3:atemp>
            <ns3:hr>97</ns3:hr>
          </ns3:TrackPointExtension>
        </extensions>
      </trkpt>
      <trkpt lat="36.81744103319942951202392578125" lon="-118.4058411978185176849365234375">
        <ele>3222</ele>
        <time>2021-06-27T14:19:07.000Z</time>
        <extensions>
          <ns3:TrackPointExtension>
            <ns3:atemp>23.0</ns3:atemp>
            <ns3:hr>97</ns3:hr>
          </ns3:TrackPointExtension>
        </extensions>
      </trkpt>
      <trkpt lat="36.81744539178907871246337890625" lon="-118.4057952649891376495361328125">
        <ele>3223</ele>
        <time>2021-06-27T14:19:12.000Z</time>
        <extensions>
          <ns3:TrackPointExtension>
            <ns3:atemp>23.0</ns3:atemp>
            <ns3:hr>97</ns3:hr>
          </ns3:TrackPointExtension>
        </extensions>
      </trkpt>
      <trkpt lat="36.81746450252830982208251953125" lon="-118.40578696690499782562255859375">
        <ele>3223.199951171875</ele>
        <time>2021-06-27T14:19:14.000Z</time>
        <extensions>
          <ns3:TrackPointExtension>
            <ns3:atemp>23.0</ns3:atemp>
            <ns3:hr>97</ns3:hr>
          </ns3:TrackPointExtension>
        </extensions>
      </trkpt>
      <trkpt lat="36.8174506723880767822265625" lon="-118.40576634742319583892822265625">
        <ele>3223.60009765625</ele>
        <time>2021-06-27T14:19:17.000Z</time>
        <extensions>
          <ns3:TrackPointExtension>
            <ns3:atemp>23.0</ns3:atemp>
            <ns3:hr>94</ns3:hr>
          </ns3:TrackPointExtension>
        </extensions>
      </trkpt>
      <trkpt lat="36.81745134294033050537109375" lon="-118.40575494803488254547119140625">
        <ele>3223.800048828125</ele>
        <time>2021-06-27T14:19:18.000Z</time>
        <extensions>
          <ns3:TrackPointExtension>
            <ns3:atemp>23.0</ns3:atemp>
            <ns3:hr>98</ns3:hr>
          </ns3:TrackPointExtension>
        </extensions>
      </trkpt>
      <trkpt lat="36.817462742328643798828125" lon="-118.405726365745067596435546875">
        <ele>3224.39990234375</ele>
        <time>2021-06-27T14:19:21.000Z</time>
        <extensions>
          <ns3:TrackPointExtension>
            <ns3:atemp>23.0</ns3:atemp>
            <ns3:hr>100</ns3:hr>
          </ns3:TrackPointExtension>
        </extensions>
      </trkpt>
      <trkpt lat="36.8174649216234683990478515625" lon="-118.405722677707672119140625">
        <ele>3224.60009765625</ele>
        <time>2021-06-27T14:19:22.000Z</time>
        <extensions>
          <ns3:TrackPointExtension>
            <ns3:atemp>23.0</ns3:atemp>
            <ns3:hr>102</ns3:hr>
          </ns3:TrackPointExtension>
        </extensions>
      </trkpt>
      <trkpt lat="36.81746316142380237579345703125" lon="-118.40571639128029346466064453125">
        <ele>3225</ele>
        <time>2021-06-27T14:19:24.000Z</time>
        <extensions>
          <ns3:TrackPointExtension>
            <ns3:atemp>23.0</ns3:atemp>
            <ns3:hr>103</ns3:hr>
          </ns3:TrackPointExtension>
        </extensions>
      </trkpt>
      <trkpt lat="36.81746332906186580657958984375" lon="-118.405685462057590484619140625">
        <ele>3225.800048828125</ele>
        <time>2021-06-27T14:19:27.000Z</time>
        <extensions>
          <ns3:TrackPointExtension>
            <ns3:atemp>23.0</ns3:atemp>
            <ns3:hr>105</ns3:hr>
          </ns3:TrackPointExtension>
        </extensions>
      </trkpt>
      <trkpt lat="36.8174667656421661376953125" lon="-118.4056752361357212066650390625">
        <ele>3226</ele>
        <time>2021-06-27T14:19:28.000Z</time>
        <extensions>
          <ns3:TrackPointExtension>
            <ns3:atemp>23.0</ns3:atemp>
            <ns3:hr>106</ns3:hr>
          </ns3:TrackPointExtension>
        </extensions>
      </trkpt>
      <trkpt lat="36.81747321970760822296142578125" lon="-118.405623100697994232177734375">
        <ele>3226.39990234375</ele>
        <time>2021-06-27T14:19:33.000Z</time>
        <extensions>
          <ns3:TrackPointExtension>
            <ns3:atemp>23.0</ns3:atemp>
            <ns3:hr>109</ns3:hr>
          </ns3:TrackPointExtension>
        </extensions>
      </trkpt>
      <trkpt lat="36.81747288443148136138916015625" lon="-118.40559585951268672943115234375">
        <ele>3226.60009765625</ele>
        <time>2021-06-27T14:19:35.000Z</time>
        <extensions>
          <ns3:TrackPointExtension>
            <ns3:atemp>23.0</ns3:atemp>
            <ns3:hr>110</ns3:hr>
          </ns3:TrackPointExtension>
        </extensions>
      </trkpt>
      <trkpt lat="36.8174712918698787689208984375" lon="-118.4055847115814685821533203125">
        <ele>3227.199951171875</ele>
        <time>2021-06-27T14:19:36.000Z</time>
        <extensions>
          <ns3:TrackPointExtension>
            <ns3:atemp>23.0</ns3:atemp>
            <ns3:hr>110</ns3:hr>
          </ns3:TrackPointExtension>
        </extensions>
      </trkpt>
      <trkpt lat="36.8174847029149532318115234375" lon="-118.40555042959749698638916015625">
        <ele>3227.800048828125</ele>
        <time>2021-06-27T14:19:41.000Z</time>
        <extensions>
          <ns3:TrackPointExtension>
            <ns3:atemp>23.0</ns3:atemp>
            <ns3:hr>111</ns3:hr>
          </ns3:TrackPointExtension>
        </extensions>
      </trkpt>
      <trkpt lat="36.81747950613498687744140625" lon="-118.40553752146661281585693359375">
        <ele>3228.39990234375</ele>
        <time>2021-06-27T14:19:42.000Z</time>
        <extensions>
          <ns3:TrackPointExtension>
            <ns3:atemp>23.0</ns3:atemp>
            <ns3:hr>110</ns3:hr>
          </ns3:TrackPointExtension>
        </extensions>
      </trkpt>
      <trkpt lat="36.81747875176370143890380859375" lon="-118.40546174906194210052490234375">
        <ele>3229.39990234375</ele>
        <time>2021-06-27T14:19:49.000Z</time>
        <extensions>
          <ns3:TrackPointExtension>
            <ns3:atemp>23.0</ns3:atemp>
            <ns3:hr>111</ns3:hr>
          </ns3:TrackPointExtension>
        </extensions>
      </trkpt>
      <trkpt lat="36.817464418709278106689453125" lon="-118.40540357865393161773681640625">
        <ele>3229.800048828125</ele>
        <time>2021-06-27T14:19:54.000Z</time>
        <extensions>
          <ns3:TrackPointExtension>
            <ns3:atemp>23.0</ns3:atemp>
            <ns3:hr>110</ns3:hr>
          </ns3:TrackPointExtension>
        </extensions>
      </trkpt>
      <trkpt lat="36.81745938956737518310546875" lon="-118.405368626117706298828125">
        <ele>3230.60009765625</ele>
        <time>2021-06-27T14:19:59.000Z</time>
        <extensions>
          <ns3:TrackPointExtension>
            <ns3:atemp>23.0</ns3:atemp>
            <ns3:hr>109</ns3:hr>
          </ns3:TrackPointExtension>
        </extensions>
      </trkpt>
      <trkpt lat="36.81745511479675769805908203125" lon="-118.40536661446094512939453125">
        <ele>3230.800048828125</ele>
        <time>2021-06-27T14:20:00.000Z</time>
        <extensions>
          <ns3:TrackPointExtension>
            <ns3:atemp>23.0</ns3:atemp>
            <ns3:hr>108</ns3:hr>
          </ns3:TrackPointExtension>
        </extensions>
      </trkpt>
      <trkpt lat="36.817443631589412689208984375" lon="-118.40535228140652179718017578125">
        <ele>3231</ele>
        <time>2021-06-27T14:20:03.000Z</time>
        <extensions>
          <ns3:TrackPointExtension>
            <ns3:atemp>23.0</ns3:atemp>
            <ns3:hr>112</ns3:hr>
          </ns3:TrackPointExtension>
        </extensions>
      </trkpt>
      <trkpt lat="36.81743147782981395721435546875" lon="-118.40534758754074573516845703125">
        <ele>3231.39990234375</ele>
        <time>2021-06-27T14:20:05.000Z</time>
        <extensions>
          <ns3:TrackPointExtension>
            <ns3:atemp>23.0</ns3:atemp>
            <ns3:hr>110</ns3:hr>
          </ns3:TrackPointExtension>
        </extensions>
      </trkpt>
      <trkpt lat="36.817430891096591949462890625" lon="-118.40533317066729068756103515625">
        <ele>3231.60009765625</ele>
        <time>2021-06-27T14:20:07.000Z</time>
        <extensions>
          <ns3:TrackPointExtension>
            <ns3:atemp>23.0</ns3:atemp>
            <ns3:hr>109</ns3:hr>
          </ns3:TrackPointExtension>
        </extensions>
      </trkpt>
      <trkpt lat="36.81742862798273563385009765625" lon="-118.40532897971570491790771484375">
        <ele>3231.800048828125</ele>
        <time>2021-06-27T14:20:08.000Z</time>
        <extensions>
          <ns3:TrackPointExtension>
            <ns3:atemp>23.0</ns3:atemp>
            <ns3:hr>109</ns3:hr>
          </ns3:TrackPointExtension>
        </extensions>
      </trkpt>
      <trkpt lat="36.81741722859442234039306640625" lon="-118.40530014596879482269287109375">
        <ele>3232.60009765625</ele>
        <time>2021-06-27T14:20:12.000Z</time>
        <extensions>
          <ns3:TrackPointExtension>
            <ns3:atemp>23.0</ns3:atemp>
            <ns3:hr>109</ns3:hr>
          </ns3:TrackPointExtension>
        </extensions>
      </trkpt>
      <trkpt lat="36.81741488166153430938720703125" lon="-118.4052930213510990142822265625">
        <ele>3232.800048828125</ele>
        <time>2021-06-27T14:20:13.000Z</time>
        <extensions>
          <ns3:TrackPointExtension>
            <ns3:atemp>23.0</ns3:atemp>
            <ns3:hr>109</ns3:hr>
          </ns3:TrackPointExtension>
        </extensions>
      </trkpt>
      <trkpt lat="36.8174028955399990081787109375" lon="-118.40525396168231964111328125">
        <ele>3233</ele>
        <time>2021-06-27T14:20:17.000Z</time>
        <extensions>
          <ns3:TrackPointExtension>
            <ns3:atemp>23.0</ns3:atemp>
            <ns3:hr>111</ns3:hr>
          </ns3:TrackPointExtension>
        </extensions>
      </trkpt>
      <trkpt lat="36.81739945895969867706298828125" lon="-118.4052403829991817474365234375">
        <ele>3233.39990234375</ele>
        <time>2021-06-27T14:20:20.000Z</time>
        <extensions>
          <ns3:TrackPointExtension>
            <ns3:atemp>23.0</ns3:atemp>
            <ns3:hr>112</ns3:hr>
          </ns3:TrackPointExtension>
        </extensions>
      </trkpt>
      <trkpt lat="36.81740247644484043121337890625" lon="-118.40523644350469112396240234375">
        <ele>3233.60009765625</ele>
        <time>2021-06-27T14:20:21.000Z</time>
        <extensions>
          <ns3:TrackPointExtension>
            <ns3:atemp>23.0</ns3:atemp>
            <ns3:hr>112</ns3:hr>
          </ns3:TrackPointExtension>
        </extensions>
      </trkpt>
      <trkpt lat="36.81740733794867992401123046875" lon="-118.40522973798215389251708984375">
        <ele>3234</ele>
        <time>2021-06-27T14:20:22.000Z</time>
        <extensions>
          <ns3:TrackPointExtension>
            <ns3:atemp>23.0</ns3:atemp>
            <ns3:hr>113</ns3:hr>
          </ns3:TrackPointExtension>
        </extensions>
      </trkpt>
      <trkpt lat="36.8174008838832378387451171875" lon="-118.405203334987163543701171875">
        <ele>3234.39990234375</ele>
        <time>2021-06-27T14:20:25.000Z</time>
        <extensions>
          <ns3:TrackPointExtension>
            <ns3:atemp>23.0</ns3:atemp>
            <ns3:hr>113</ns3:hr>
          </ns3:TrackPointExtension>
        </extensions>
      </trkpt>
      <trkpt lat="36.81740038096904754638671875" lon="-118.40519185177981853485107421875">
        <ele>3234.60009765625</ele>
        <time>2021-06-27T14:20:27.000Z</time>
        <extensions>
          <ns3:TrackPointExtension>
            <ns3:atemp>23.0</ns3:atemp>
            <ns3:hr>113</ns3:hr>
          </ns3:TrackPointExtension>
        </extensions>
      </trkpt>
      <trkpt lat="36.8173971958458423614501953125" lon="-118.405185230076313018798828125">
        <ele>3235</ele>
        <time>2021-06-27T14:20:29.000Z</time>
        <extensions>
          <ns3:TrackPointExtension>
            <ns3:atemp>23.0</ns3:atemp>
            <ns3:hr>110</ns3:hr>
          </ns3:TrackPointExtension>
        </extensions>
      </trkpt>
      <trkpt lat="36.817397363483905792236328125" lon="-118.4051736630499362945556640625">
        <ele>3235.39990234375</ele>
        <time>2021-06-27T14:20:31.000Z</time>
        <extensions>
          <ns3:TrackPointExtension>
            <ns3:atemp>23.0</ns3:atemp>
            <ns3:hr>107</ns3:hr>
          </ns3:TrackPointExtension>
        </extensions>
      </trkpt>
      <trkpt lat="36.81740851141512393951416015625" lon="-118.4051607549190521240234375">
        <ele>3235.39990234375</ele>
        <time>2021-06-27T14:20:33.000Z</time>
        <extensions>
          <ns3:TrackPointExtension>
            <ns3:atemp>23.0</ns3:atemp>
            <ns3:hr>105</ns3:hr>
          </ns3:TrackPointExtension>
        </extensions>
      </trkpt>
      <trkpt lat="36.817412115633487701416015625" lon="-118.4051498584449291229248046875">
        <ele>3235.800048828125</ele>
        <time>2021-06-27T14:20:35.000Z</time>
        <extensions>
          <ns3:TrackPointExtension>
            <ns3:atemp>23.0</ns3:atemp>
            <ns3:hr>103</ns3:hr>
          </ns3:TrackPointExtension>
        </extensions>
      </trkpt>
      <trkpt lat="36.81741287000477313995361328125" lon="-118.4051351062953472137451171875">
        <ele>3236</ele>
        <time>2021-06-27T14:20:37.000Z</time>
        <extensions>
          <ns3:TrackPointExtension>
            <ns3:atemp>23.0</ns3:atemp>
            <ns3:hr>100</ns3:hr>
          </ns3:TrackPointExtension>
        </extensions>
      </trkpt>
      <trkpt lat="36.81741253472864627838134765625" lon="-118.40512764640152454376220703125">
        <ele>3236</ele>
        <time>2021-06-27T14:20:38.000Z</time>
        <extensions>
          <ns3:TrackPointExtension>
            <ns3:atemp>23.0</ns3:atemp>
            <ns3:hr>102</ns3:hr>
          </ns3:TrackPointExtension>
        </extensions>
      </trkpt>
      <trkpt lat="36.81741110980510711669921875" lon="-118.40510082431137561798095703125">
        <ele>3237</ele>
        <time>2021-06-27T14:20:42.000Z</time>
        <extensions>
          <ns3:TrackPointExtension>
            <ns3:atemp>23.0</ns3:atemp>
            <ns3:hr>101</ns3:hr>
          </ns3:TrackPointExtension>
        </extensions>
      </trkpt>
      <trkpt lat="36.8174116127192974090576171875" lon="-118.405086658895015716552734375">
        <ele>3237.199951171875</ele>
        <time>2021-06-27T14:20:44.000Z</time>
        <extensions>
          <ns3:TrackPointExtension>
            <ns3:atemp>23.0</ns3:atemp>
            <ns3:hr>99</ns3:hr>
          </ns3:TrackPointExtension>
        </extensions>
      </trkpt>
      <trkpt lat="36.81743281893432140350341796875" lon="-118.4050714038312435150146484375">
        <ele>3238.39990234375</ele>
        <time>2021-06-27T14:20:48.000Z</time>
        <extensions>
          <ns3:TrackPointExtension>
            <ns3:atemp>23.0</ns3:atemp>
            <ns3:hr>98</ns3:hr>
          </ns3:TrackPointExtension>
        </extensions>
      </trkpt>
      <trkpt lat="36.81745260022580623626708984375" lon="-118.40507961809635162353515625">
        <ele>3238.39990234375</ele>
        <time>2021-06-27T14:20:50.000Z</time>
        <extensions>
          <ns3:TrackPointExtension>
            <ns3:atemp>23.0</ns3:atemp>
            <ns3:hr>99</ns3:hr>
          </ns3:TrackPointExtension>
        </extensions>
      </trkpt>
      <trkpt lat="36.8174950964748859405517578125" lon="-118.4050657041370868682861328125">
        <ele>3239.39990234375</ele>
        <time>2021-06-27T14:20:56.000Z</time>
        <extensions>
          <ns3:TrackPointExtension>
            <ns3:atemp>23.0</ns3:atemp>
            <ns3:hr>99</ns3:hr>
          </ns3:TrackPointExtension>
        </extensions>
      </trkpt>
      <trkpt lat="36.81751982308924198150634765625" lon="-118.40505304746329784393310546875">
        <ele>3239.800048828125</ele>
        <time>2021-06-27T14:21:00.000Z</time>
        <extensions>
          <ns3:TrackPointExtension>
            <ns3:atemp>23.0</ns3:atemp>
            <ns3:hr>103</ns3:hr>
          </ns3:TrackPointExtension>
        </extensions>
      </trkpt>
      <trkpt lat="36.81752217002213001251220703125" lon="-118.4050469286739826202392578125">
        <ele>3240.199951171875</ele>
        <time>2021-06-27T14:21:01.000Z</time>
        <extensions>
          <ns3:TrackPointExtension>
            <ns3:atemp>23.0</ns3:atemp>
            <ns3:hr>98</ns3:hr>
          </ns3:TrackPointExtension>
        </extensions>
      </trkpt>
      <trkpt lat="36.8175351619720458984375" lon="-118.40503267943859100341796875">
        <ele>3240.39990234375</ele>
        <time>2021-06-27T14:21:04.000Z</time>
        <extensions>
          <ns3:TrackPointExtension>
            <ns3:atemp>23.0</ns3:atemp>
            <ns3:hr>96</ns3:hr>
          </ns3:TrackPointExtension>
        </extensions>
      </trkpt>
      <trkpt lat="36.81754262186586856842041015625" lon="-118.4050214476883411407470703125">
        <ele>3240.60009765625</ele>
        <time>2021-06-27T14:21:05.000Z</time>
        <extensions>
          <ns3:TrackPointExtension>
            <ns3:atemp>23.0</ns3:atemp>
            <ns3:hr>98</ns3:hr>
          </ns3:TrackPointExtension>
        </extensions>
      </trkpt>
      <trkpt lat="36.81754790246486663818359375" lon="-118.40499202720820903778076171875">
        <ele>3240.800048828125</ele>
        <time>2021-06-27T14:21:08.000Z</time>
        <extensions>
          <ns3:TrackPointExtension>
            <ns3:atemp>23.0</ns3:atemp>
            <ns3:hr>101</ns3:hr>
          </ns3:TrackPointExtension>
        </extensions>
      </trkpt>
      <trkpt lat="36.817532815039157867431640625" lon="-118.4049771912395954132080078125">
        <ele>3241.60009765625</ele>
        <time>2021-06-27T14:21:10.000Z</time>
        <extensions>
          <ns3:TrackPointExtension>
            <ns3:atemp>23.0</ns3:atemp>
            <ns3:hr>102</ns3:hr>
          </ns3:TrackPointExtension>
        </extensions>
      </trkpt>
      <trkpt lat="36.81753591634333133697509765625" lon="-118.40496302582323551177978515625">
        <ele>3242.39990234375</ele>
        <time>2021-06-27T14:21:13.000Z</time>
        <extensions>
          <ns3:TrackPointExtension>
            <ns3:atemp>23.0</ns3:atemp>
            <ns3:hr>102</ns3:hr>
          </ns3:TrackPointExtension>
        </extensions>
      </trkpt>
      <trkpt lat="36.81753071956336498260498046875" lon="-118.4049386344850063323974609375">
        <ele>3242.60009765625</ele>
        <time>2021-06-27T14:21:16.000Z</time>
        <extensions>
          <ns3:TrackPointExtension>
            <ns3:atemp>22.0</ns3:atemp>
            <ns3:hr>101</ns3:hr>
          </ns3:TrackPointExtension>
        </extensions>
      </trkpt>
      <trkpt lat="36.81753239594399929046630859375" lon="-118.4049193561077117919921875">
        <ele>3243.199951171875</ele>
        <time>2021-06-27T14:21:20.000Z</time>
        <extensions>
          <ns3:TrackPointExtension>
            <ns3:atemp>22.0</ns3:atemp>
            <ns3:hr>98</ns3:hr>
          </ns3:TrackPointExtension>
        </extensions>
      </trkpt>
      <trkpt lat="36.81755100376904010772705078125" lon="-118.40492547489702701568603515625">
        <ele>3243.800048828125</ele>
        <time>2021-06-27T14:21:22.000Z</time>
        <extensions>
          <ns3:TrackPointExtension>
            <ns3:atemp>22.0</ns3:atemp>
            <ns3:hr>97</ns3:hr>
          </ns3:TrackPointExtension>
        </extensions>
      </trkpt>
      <trkpt lat="36.81758838705718517303466796875" lon="-118.40488851070404052734375">
        <ele>3244.800048828125</ele>
        <time>2021-06-27T14:21:31.000Z</time>
        <extensions>
          <ns3:TrackPointExtension>
            <ns3:atemp>22.0</ns3:atemp>
            <ns3:hr>97</ns3:hr>
          </ns3:TrackPointExtension>
        </extensions>
      </trkpt>
      <trkpt lat="36.81759157218039035797119140625" lon="-118.40488088317215442657470703125">
        <ele>3245</ele>
        <time>2021-06-27T14:21:32.000Z</time>
        <extensions>
          <ns3:TrackPointExtension>
            <ns3:atemp>22.0</ns3:atemp>
            <ns3:hr>97</ns3:hr>
          </ns3:TrackPointExtension>
        </extensions>
      </trkpt>
      <trkpt lat="36.81758679449558258056640625" lon="-118.40486847795546054840087890625">
        <ele>3246</ele>
        <time>2021-06-27T14:21:36.000Z</time>
        <extensions>
          <ns3:TrackPointExtension>
            <ns3:atemp>22.0</ns3:atemp>
            <ns3:hr>98</ns3:hr>
          </ns3:TrackPointExtension>
        </extensions>
      </trkpt>
      <trkpt lat="36.81762224994599819183349609375" lon="-118.40485288761556148529052734375">
        <ele>3246.60009765625</ele>
        <time>2021-06-27T14:21:42.000Z</time>
        <extensions>
          <ns3:TrackPointExtension>
            <ns3:atemp>22.0</ns3:atemp>
            <ns3:hr>98</ns3:hr>
          </ns3:TrackPointExtension>
        </extensions>
      </trkpt>
      <trkpt lat="36.8176275305449962615966796875" lon="-118.40484718792140483856201171875">
        <ele>3247</ele>
        <time>2021-06-27T14:21:44.000Z</time>
        <extensions>
          <ns3:TrackPointExtension>
            <ns3:atemp>22.0</ns3:atemp>
            <ns3:hr>99</ns3:hr>
          </ns3:TrackPointExtension>
        </extensions>
      </trkpt>
      <trkpt lat="36.81765996851027011871337890625" lon="-118.4048249758780002593994140625">
        <ele>3247.60009765625</ele>
        <time>2021-06-27T14:21:50.000Z</time>
        <extensions>
          <ns3:TrackPointExtension>
            <ns3:atemp>22.0</ns3:atemp>
            <ns3:hr>101</ns3:hr>
          </ns3:TrackPointExtension>
        </extensions>
      </trkpt>
      <trkpt lat="36.81766231544315814971923828125" lon="-118.4048196114599704742431640625">
        <ele>3247.800048828125</ele>
        <time>2021-06-27T14:21:51.000Z</time>
        <extensions>
          <ns3:TrackPointExtension>
            <ns3:atemp>22.0</ns3:atemp>
            <ns3:hr>97</ns3:hr>
          </ns3:TrackPointExtension>
        </extensions>
      </trkpt>
      <trkpt lat="36.8176667578518390655517578125" lon="-118.40481466613709926605224609375">
        <ele>3248.199951171875</ele>
        <time>2021-06-27T14:21:52.000Z</time>
        <extensions>
          <ns3:TrackPointExtension>
            <ns3:atemp>22.0</ns3:atemp>
            <ns3:hr>101</ns3:hr>
          </ns3:TrackPointExtension>
        </extensions>
      </trkpt>
      <trkpt lat="36.8176811747252941131591796875" lon="-118.40479153208434581756591796875">
        <ele>3249</ele>
        <time>2021-06-27T14:21:59.000Z</time>
        <extensions>
          <ns3:TrackPointExtension>
            <ns3:atemp>22.0</ns3:atemp>
            <ns3:hr>101</ns3:hr>
          </ns3:TrackPointExtension>
        </extensions>
      </trkpt>
      <trkpt lat="36.81767857633531093597412109375" lon="-118.4047907777130603790283203125">
        <ele>3249.39990234375</ele>
        <time>2021-06-27T14:22:01.000Z</time>
        <extensions>
          <ns3:TrackPointExtension>
            <ns3:atemp>22.0</ns3:atemp>
            <ns3:hr>100</ns3:hr>
          </ns3:TrackPointExtension>
        </extensions>
      </trkpt>
      <trkpt lat="36.81766927242279052734375" lon="-118.4047562442719936370849609375">
        <ele>3250</ele>
        <time>2021-06-27T14:22:07.000Z</time>
        <extensions>
          <ns3:TrackPointExtension>
            <ns3:atemp>22.0</ns3:atemp>
            <ns3:hr>97</ns3:hr>
          </ns3:TrackPointExtension>
        </extensions>
      </trkpt>
      <trkpt lat="36.8176687695086002349853515625" lon="-118.4047314338386058807373046875">
        <ele>3250.60009765625</ele>
        <time>2021-06-27T14:22:10.000Z</time>
        <extensions>
          <ns3:TrackPointExtension>
            <ns3:atemp>22.0</ns3:atemp>
            <ns3:hr>96</ns3:hr>
          </ns3:TrackPointExtension>
        </extensions>
      </trkpt>
      <trkpt lat="36.81767891161143779754638671875" lon="-118.404719196259975433349609375">
        <ele>3251.60009765625</ele>
        <time>2021-06-27T14:22:14.000Z</time>
        <extensions>
          <ns3:TrackPointExtension>
            <ns3:atemp>22.0</ns3:atemp>
            <ns3:hr>95</ns3:hr>
          </ns3:TrackPointExtension>
        </extensions>
      </trkpt>
      <trkpt lat="36.817683018743991851806640625" lon="-118.4047163464128971099853515625">
        <ele>3251.60009765625</ele>
        <time>2021-06-27T14:22:15.000Z</time>
        <extensions>
          <ns3:TrackPointExtension>
            <ns3:atemp>22.0</ns3:atemp>
            <ns3:hr>94</ns3:hr>
          </ns3:TrackPointExtension>
        </extensions>
      </trkpt>
      <trkpt lat="36.8177133612334728240966796875" lon="-118.4047277458012104034423828125">
        <ele>3252.60009765625</ele>
        <time>2021-06-27T14:22:25.000Z</time>
        <extensions>
          <ns3:TrackPointExtension>
            <ns3:atemp>22.0</ns3:atemp>
            <ns3:hr>94</ns3:hr>
          </ns3:TrackPointExtension>
        </extensions>
      </trkpt>
      <trkpt lat="36.817720569670200347900390625" lon="-118.404694385826587677001953125">
        <ele>3253.60009765625</ele>
        <time>2021-06-27T14:22:30.000Z</time>
        <extensions>
          <ns3:TrackPointExtension>
            <ns3:atemp>22.0</ns3:atemp>
            <ns3:hr>95</ns3:hr>
          </ns3:TrackPointExtension>
        </extensions>
      </trkpt>
      <trkpt lat="36.81772635318338871002197265625" lon="-118.40467368252575397491455078125">
        <ele>3254</ele>
        <time>2021-06-27T14:22:34.000Z</time>
        <extensions>
          <ns3:TrackPointExtension>
            <ns3:atemp>22.0</ns3:atemp>
            <ns3:hr>96</ns3:hr>
          </ns3:TrackPointExtension>
        </extensions>
      </trkpt>
      <trkpt lat="36.8177408538758754730224609375" lon="-118.40466496534645557403564453125">
        <ele>3254.39990234375</ele>
        <time>2021-06-27T14:22:36.000Z</time>
        <extensions>
          <ns3:TrackPointExtension>
            <ns3:atemp>22.0</ns3:atemp>
            <ns3:hr>99</ns3:hr>
          </ns3:TrackPointExtension>
        </extensions>
      </trkpt>
      <trkpt lat="36.817741692066192626953125" lon="-118.4046479500830173492431640625">
        <ele>3255</ele>
        <time>2021-06-27T14:22:38.000Z</time>
        <extensions>
          <ns3:TrackPointExtension>
            <ns3:atemp>22.0</ns3:atemp>
            <ns3:hr>101</ns3:hr>
          </ns3:TrackPointExtension>
        </extensions>
      </trkpt>
      <trkpt lat="36.81774772703647613525390625" lon="-118.40463194064795970916748046875">
        <ele>3255.199951171875</ele>
        <time>2021-06-27T14:22:40.000Z</time>
        <extensions>
          <ns3:TrackPointExtension>
            <ns3:atemp>22.0</ns3:atemp>
            <ns3:hr>104</ns3:hr>
          </ns3:TrackPointExtension>
        </extensions>
      </trkpt>
      <trkpt lat="36.817754767835140228271484375" lon="-118.40462372638285160064697265625">
        <ele>3255.39990234375</ele>
        <time>2021-06-27T14:22:41.000Z</time>
        <extensions>
          <ns3:TrackPointExtension>
            <ns3:atemp>22.0</ns3:atemp>
            <ns3:hr>103</ns3:hr>
          </ns3:TrackPointExtension>
        </extensions>
      </trkpt>
      <trkpt lat="36.81776055134832859039306640625" lon="-118.40461484156548976898193359375">
        <ele>3255.800048828125</ele>
        <time>2021-06-27T14:22:43.000Z</time>
        <extensions>
          <ns3:TrackPointExtension>
            <ns3:atemp>22.0</ns3:atemp>
            <ns3:hr>107</ns3:hr>
          </ns3:TrackPointExtension>
        </extensions>
      </trkpt>
      <trkpt lat="36.817763149738311767578125" lon="-118.40460964478552341461181640625">
        <ele>3256</ele>
        <time>2021-06-27T14:22:44.000Z</time>
        <extensions>
          <ns3:TrackPointExtension>
            <ns3:atemp>22.0</ns3:atemp>
            <ns3:hr>109</ns3:hr>
          </ns3:TrackPointExtension>
        </extensions>
      </trkpt>
      <trkpt lat="36.81777362711727619171142578125" lon="-118.40455583296716213226318359375">
        <ele>3257</ele>
        <time>2021-06-27T14:22:50.000Z</time>
        <extensions>
          <ns3:TrackPointExtension>
            <ns3:atemp>22.0</ns3:atemp>
            <ns3:hr>106</ns3:hr>
          </ns3:TrackPointExtension>
        </extensions>
      </trkpt>
      <trkpt lat="36.817778237164020538330078125" lon="-118.40455851517617702484130859375">
        <ele>3257.199951171875</ele>
        <time>2021-06-27T14:22:51.000Z</time>
        <extensions>
          <ns3:TrackPointExtension>
            <ns3:atemp>22.0</ns3:atemp>
            <ns3:hr>107</ns3:hr>
          </ns3:TrackPointExtension>
        </extensions>
      </trkpt>
      <trkpt lat="36.81778930127620697021484375" lon="-118.40451325289905071258544921875">
        <ele>3258.199951171875</ele>
        <time>2021-06-27T14:22:58.000Z</time>
        <extensions>
          <ns3:TrackPointExtension>
            <ns3:atemp>22.0</ns3:atemp>
            <ns3:hr>105</ns3:hr>
          </ns3:TrackPointExtension>
        </extensions>
      </trkpt>
      <trkpt lat="36.8177857808768749237060546875" lon="-118.40449623763561248779296875">
        <ele>3259.199951171875</ele>
        <time>2021-06-27T14:23:03.000Z</time>
        <extensions>
          <ns3:TrackPointExtension>
            <ns3:atemp>22.0</ns3:atemp>
            <ns3:hr>109</ns3:hr>
          </ns3:TrackPointExtension>
        </extensions>
      </trkpt>
      <trkpt lat="36.81777211837470531463623046875" lon="-118.40447989292442798614501953125">
        <ele>3259.60009765625</ele>
        <time>2021-06-27T14:23:05.000Z</time>
        <extensions>
          <ns3:TrackPointExtension>
            <ns3:atemp>22.0</ns3:atemp>
            <ns3:hr>106</ns3:hr>
          </ns3:TrackPointExtension>
        </extensions>
      </trkpt>
      <trkpt lat="36.8177710287272930145263671875" lon="-118.404456339776515960693359375">
        <ele>3259.800048828125</ele>
        <time>2021-06-27T14:23:08.000Z</time>
        <extensions>
          <ns3:TrackPointExtension>
            <ns3:atemp>22.0</ns3:atemp>
            <ns3:hr>104</ns3:hr>
          </ns3:TrackPointExtension>
        </extensions>
      </trkpt>
      <trkpt lat="36.81777362711727619171142578125" lon="-118.40444552712142467498779296875">
        <ele>3260.39990234375</ele>
        <time>2021-06-27T14:23:10.000Z</time>
        <extensions>
          <ns3:TrackPointExtension>
            <ns3:atemp>22.0</ns3:atemp>
            <ns3:hr>104</ns3:hr>
          </ns3:TrackPointExtension>
        </extensions>
      </trkpt>
      <trkpt lat="36.817779242992401123046875" lon="-118.4044273383915424346923828125">
        <ele>3261</ele>
        <time>2021-06-27T14:23:17.000Z</time>
        <extensions>
          <ns3:TrackPointExtension>
            <ns3:atemp>22.0</ns3:atemp>
            <ns3:hr>105</ns3:hr>
          </ns3:TrackPointExtension>
        </extensions>
      </trkpt>
      <trkpt lat="36.8177807517349720001220703125" lon="-118.40442180633544921875">
        <ele>3261.39990234375</ele>
        <time>2021-06-27T14:23:19.000Z</time>
        <extensions>
          <ns3:TrackPointExtension>
            <ns3:atemp>22.0</ns3:atemp>
            <ns3:hr>104</ns3:hr>
          </ns3:TrackPointExtension>
        </extensions>
      </trkpt>
      <trkpt lat="36.81780162267386913299560546875" lon="-118.40439875610172748565673828125">
        <ele>3262</ele>
        <time>2021-06-27T14:23:25.000Z</time>
        <extensions>
          <ns3:TrackPointExtension>
            <ns3:atemp>22.0</ns3:atemp>
            <ns3:hr>106</ns3:hr>
          </ns3:TrackPointExtension>
        </extensions>
      </trkpt>
      <trkpt lat="36.8178092502057552337646484375" lon="-118.4043871052563190460205078125">
        <ele>3262.60009765625</ele>
        <time>2021-06-27T14:23:28.000Z</time>
        <extensions>
          <ns3:TrackPointExtension>
            <ns3:atemp>22.0</ns3:atemp>
            <ns3:hr>106</ns3:hr>
          </ns3:TrackPointExtension>
        </extensions>
      </trkpt>
      <trkpt lat="36.8178276903927326202392578125" lon="-118.40438249520957469940185546875">
        <ele>3263.800048828125</ele>
        <time>2021-06-27T14:23:33.000Z</time>
        <extensions>
          <ns3:TrackPointExtension>
            <ns3:atemp>22.0</ns3:atemp>
            <ns3:hr>106</ns3:hr>
          </ns3:TrackPointExtension>
        </extensions>
      </trkpt>
      <trkpt lat="36.817842610180377960205078125" lon="-118.40437210164964199066162109375">
        <ele>3264.60009765625</ele>
        <time>2021-06-27T14:23:36.000Z</time>
        <extensions>
          <ns3:TrackPointExtension>
            <ns3:atemp>22.0</ns3:atemp>
            <ns3:hr>103</ns3:hr>
          </ns3:TrackPointExtension>
        </extensions>
      </trkpt>
      <trkpt lat="36.81784135289490222930908203125" lon="-118.40436212718486785888671875">
        <ele>3265</ele>
        <time>2021-06-27T14:23:38.000Z</time>
        <extensions>
          <ns3:TrackPointExtension>
            <ns3:atemp>22.0</ns3:atemp>
            <ns3:hr>104</ns3:hr>
          </ns3:TrackPointExtension>
        </extensions>
      </trkpt>
      <trkpt lat="36.81783623993396759033203125" lon="-118.40434544719755649566650390625">
        <ele>3265.199951171875</ele>
        <time>2021-06-27T14:23:40.000Z</time>
        <extensions>
          <ns3:TrackPointExtension>
            <ns3:atemp>22.0</ns3:atemp>
            <ns3:hr>107</ns3:hr>
          </ns3:TrackPointExtension>
        </extensions>
      </trkpt>
      <trkpt lat="36.8178397603332996368408203125" lon="-118.40433354489505290985107421875">
        <ele>3265.60009765625</ele>
        <time>2021-06-27T14:23:42.000Z</time>
        <extensions>
          <ns3:TrackPointExtension>
            <ns3:atemp>22.0</ns3:atemp>
            <ns3:hr>104</ns3:hr>
          </ns3:TrackPointExtension>
        </extensions>
      </trkpt>
      <trkpt lat="36.8178395926952362060546875" lon="-118.40433035977184772491455078125">
        <ele>3265.800048828125</ele>
        <time>2021-06-27T14:23:43.000Z</time>
        <extensions>
          <ns3:TrackPointExtension>
            <ns3:atemp>22.0</ns3:atemp>
            <ns3:hr>105</ns3:hr>
          </ns3:TrackPointExtension>
        </extensions>
      </trkpt>
      <trkpt lat="36.81784696877002716064453125" lon="-118.40432164259254932403564453125">
        <ele>3266.199951171875</ele>
        <time>2021-06-27T14:23:46.000Z</time>
        <extensions>
          <ns3:TrackPointExtension>
            <ns3:atemp>22.0</ns3:atemp>
            <ns3:hr>107</ns3:hr>
          </ns3:TrackPointExtension>
        </extensions>
      </trkpt>
      <trkpt lat="36.81786130182445049285888671875" lon="-118.4043140150606632232666015625">
        <ele>3266.60009765625</ele>
        <time>2021-06-27T14:23:50.000Z</time>
        <extensions>
          <ns3:TrackPointExtension>
            <ns3:atemp>22.0</ns3:atemp>
            <ns3:hr>104</ns3:hr>
          </ns3:TrackPointExtension>
        </extensions>
      </trkpt>
      <trkpt lat="36.8178628943860530853271484375" lon="-118.40428777970373630523681640625">
        <ele>3267.199951171875</ele>
        <time>2021-06-27T14:23:55.000Z</time>
        <extensions>
          <ns3:TrackPointExtension>
            <ns3:atemp>22.0</ns3:atemp>
            <ns3:hr>108</ns3:hr>
          </ns3:TrackPointExtension>
        </extensions>
      </trkpt>
      <trkpt lat="36.81785903871059417724609375" lon="-118.40428174473345279693603515625">
        <ele>3267.199951171875</ele>
        <time>2021-06-27T14:23:56.000Z</time>
        <extensions>
          <ns3:TrackPointExtension>
            <ns3:atemp>22.0</ns3:atemp>
            <ns3:hr>105</ns3:hr>
          </ns3:TrackPointExtension>
        </extensions>
      </trkpt>
      <trkpt lat="36.8178454600274562835693359375" lon="-118.4042744524776935577392578125">
        <ele>3267.39990234375</ele>
        <time>2021-06-27T14:23:58.000Z</time>
        <extensions>
          <ns3:TrackPointExtension>
            <ns3:atemp>22.0</ns3:atemp>
            <ns3:hr>106</ns3:hr>
          </ns3:TrackPointExtension>
        </extensions>
      </trkpt>
      <trkpt lat="36.81784302927553653717041015625" lon="-118.40426598675549030303955078125">
        <ele>3267.39990234375</ele>
        <time>2021-06-27T14:23:59.000Z</time>
        <extensions>
          <ns3:TrackPointExtension>
            <ns3:atemp>22.0</ns3:atemp>
            <ns3:hr>107</ns3:hr>
          </ns3:TrackPointExtension>
        </extensions>
      </trkpt>
      <trkpt lat="36.81783196516335010528564453125" lon="-118.404217623174190521240234375">
        <ele>3267.800048828125</ele>
        <time>2021-06-27T14:24:04.000Z</time>
        <extensions>
          <ns3:TrackPointExtension>
            <ns3:atemp>22.0</ns3:atemp>
            <ns3:hr>110</ns3:hr>
          </ns3:TrackPointExtension>
        </extensions>
      </trkpt>
      <trkpt lat="36.8178141117095947265625" lon="-118.404172360897064208984375">
        <ele>3268.199951171875</ele>
        <time>2021-06-27T14:24:09.000Z</time>
        <extensions>
          <ns3:TrackPointExtension>
            <ns3:atemp>22.0</ns3:atemp>
            <ns3:hr>112</ns3:hr>
          </ns3:TrackPointExtension>
        </extensions>
      </trkpt>
      <trkpt lat="36.81781620718538761138916015625" lon="-118.4041656553745269775390625">
        <ele>3268.199951171875</ele>
        <time>2021-06-27T14:24:10.000Z</time>
        <extensions>
          <ns3:TrackPointExtension>
            <ns3:atemp>22.0</ns3:atemp>
            <ns3:hr>116</ns3:hr>
          </ns3:TrackPointExtension>
        </extensions>
      </trkpt>
      <trkpt lat="36.81782056577503681182861328125" lon="-118.4041701816022396087646484375">
        <ele>3268.60009765625</ele>
        <time>2021-06-27T14:24:11.000Z</time>
        <extensions>
          <ns3:TrackPointExtension>
            <ns3:atemp>22.0</ns3:atemp>
            <ns3:hr>112</ns3:hr>
          </ns3:TrackPointExtension>
        </extensions>
      </trkpt>
      <trkpt lat="36.8178293667733669281005859375" lon="-118.4041701816022396087646484375">
        <ele>3269</ele>
        <time>2021-06-27T14:24:16.000Z</time>
        <extensions>
          <ns3:TrackPointExtension>
            <ns3:atemp>22.0</ns3:atemp>
            <ns3:hr>111</ns3:hr>
          </ns3:TrackPointExtension>
        </extensions>
      </trkpt>
      <trkpt lat="36.81783892214298248291015625" lon="-118.4041487239301204681396484375">
        <ele>3269.800048828125</ele>
        <time>2021-06-27T14:24:20.000Z</time>
        <extensions>
          <ns3:TrackPointExtension>
            <ns3:atemp>22.0</ns3:atemp>
            <ns3:hr>106</ns3:hr>
          </ns3:TrackPointExtension>
        </extensions>
      </trkpt>
      <trkpt lat="36.8178414367139339447021484375" lon="-118.40411444194614887237548828125">
        <ele>3270.39990234375</ele>
        <time>2021-06-27T14:24:25.000Z</time>
        <extensions>
          <ns3:TrackPointExtension>
            <ns3:atemp>22.0</ns3:atemp>
            <ns3:hr>110</ns3:hr>
          </ns3:TrackPointExtension>
        </extensions>
      </trkpt>
      <trkpt lat="36.81783967651426792144775390625" lon="-118.40411025099456310272216796875">
        <ele>3270.60009765625</ele>
        <time>2021-06-27T14:24:26.000Z</time>
        <extensions>
          <ns3:TrackPointExtension>
            <ns3:atemp>22.0</ns3:atemp>
            <ns3:hr>110</ns3:hr>
          </ns3:TrackPointExtension>
        </extensions>
      </trkpt>
      <trkpt lat="36.81783883832395076751708984375" lon="-118.4040997736155986785888671875">
        <ele>3270.60009765625</ele>
        <time>2021-06-27T14:24:29.000Z</time>
        <extensions>
          <ns3:TrackPointExtension>
            <ns3:atemp>22.0</ns3:atemp>
            <ns3:hr>107</ns3:hr>
          </ns3:TrackPointExtension>
        </extensions>
      </trkpt>
      <trkpt lat="36.81783783249557018280029296875" lon="-118.404090888798236846923828125">
        <ele>3271</ele>
        <time>2021-06-27T14:24:30.000Z</time>
        <extensions>
          <ns3:TrackPointExtension>
            <ns3:atemp>22.0</ns3:atemp>
            <ns3:hr>105</ns3:hr>
          </ns3:TrackPointExtension>
        </extensions>
      </trkpt>
      <trkpt lat="36.8178414367139339447021484375" lon="-118.40407135896384716033935546875">
        <ele>3271.39990234375</ele>
        <time>2021-06-27T14:24:35.000Z</time>
        <extensions>
          <ns3:TrackPointExtension>
            <ns3:atemp>22.0</ns3:atemp>
            <ns3:hr>104</ns3:hr>
          </ns3:TrackPointExtension>
        </extensions>
      </trkpt>
      <trkpt lat="36.8178481422364711761474609375" lon="-118.40406230650842189788818359375">
        <ele>3272.199951171875</ele>
        <time>2021-06-27T14:24:40.000Z</time>
        <extensions>
          <ns3:TrackPointExtension>
            <ns3:atemp>22.0</ns3:atemp>
            <ns3:hr>104</ns3:hr>
          </ns3:TrackPointExtension>
        </extensions>
      </trkpt>
      <trkpt lat="36.81784965097904205322265625" lon="-118.40406364761292934417724609375">
        <ele>3272.60009765625</ele>
        <time>2021-06-27T14:24:44.000Z</time>
        <extensions>
          <ns3:TrackPointExtension>
            <ns3:atemp>22.0</ns3:atemp>
            <ns3:hr>104</ns3:hr>
          </ns3:TrackPointExtension>
        </extensions>
      </trkpt>
      <trkpt lat="36.81784965097904205322265625" lon="-118.40406364761292934417724609375">
        <ele>3272.800048828125</ele>
        <time>2021-06-27T14:24:48.000Z</time>
        <extensions>
          <ns3:TrackPointExtension>
            <ns3:atemp>22.0</ns3:atemp>
            <ns3:hr>107</ns3:hr>
          </ns3:TrackPointExtension>
        </extensions>
      </trkpt>
      <trkpt lat="36.81784965097904205322265625" lon="-118.40406364761292934417724609375">
        <ele>3272.800048828125</ele>
        <time>2021-06-27T14:24:49.000Z</time>
        <extensions>
          <ns3:TrackPointExtension>
            <ns3:atemp>22.0</ns3:atemp>
            <ns3:hr>102</ns3:hr>
          </ns3:TrackPointExtension>
        </extensions>
      </trkpt>
      <trkpt lat="36.81784965097904205322265625" lon="-118.40406364761292934417724609375">
        <ele>3273.60009765625</ele>
        <time>2021-06-27T14:24:54.000Z</time>
        <extensions>
          <ns3:TrackPointExtension>
            <ns3:atemp>22.0</ns3:atemp>
            <ns3:hr>101</ns3:hr>
          </ns3:TrackPointExtension>
        </extensions>
      </trkpt>
      <trkpt lat="36.81786046363413333892822265625" lon="-118.40406171977519989013671875">
        <ele>3275</ele>
        <time>2021-06-27T14:25:00.000Z</time>
        <extensions>
          <ns3:TrackPointExtension>
            <ns3:atemp>22.0</ns3:atemp>
            <ns3:hr>102</ns3:hr>
          </ns3:TrackPointExtension>
        </extensions>
      </trkpt>
      <trkpt lat="36.8178860284388065338134765625" lon="-118.40404973365366458892822265625">
        <ele>3276</ele>
        <time>2021-06-27T14:25:10.000Z</time>
        <extensions>
          <ns3:TrackPointExtension>
            <ns3:atemp>22.0</ns3:atemp>
            <ns3:hr>102</ns3:hr>
          </ns3:TrackPointExtension>
        </extensions>
      </trkpt>
      <trkpt lat="36.817897595465183258056640625" lon="-118.40402224101126194000244140625">
        <ele>3277.199951171875</ele>
        <time>2021-06-27T14:25:19.000Z</time>
        <extensions>
          <ns3:TrackPointExtension>
            <ns3:atemp>22.0</ns3:atemp>
            <ns3:hr>100</ns3:hr>
          </ns3:TrackPointExtension>
        </extensions>
      </trkpt>
      <trkpt lat="36.81791209615767002105712890625" lon="-118.40398217551410198211669921875">
        <ele>3278.199951171875</ele>
        <time>2021-06-27T14:25:29.000Z</time>
        <extensions>
          <ns3:TrackPointExtension>
            <ns3:atemp>22.0</ns3:atemp>
            <ns3:hr>104</ns3:hr>
          </ns3:TrackPointExtension>
        </extensions>
      </trkpt>
      <trkpt lat="36.817913353443145751953125" lon="-118.40397144667804241180419921875">
        <ele>3278.199951171875</ele>
        <time>2021-06-27T14:25:31.000Z</time>
        <extensions>
          <ns3:TrackPointExtension>
            <ns3:atemp>22.0</ns3:atemp>
            <ns3:hr>107</ns3:hr>
          </ns3:TrackPointExtension>
        </extensions>
      </trkpt>
      <trkpt lat="36.81791343726217746734619140625" lon="-118.403960131108760833740234375">
        <ele>3279.199951171875</ele>
        <time>2021-06-27T14:25:33.000Z</time>
        <extensions>
          <ns3:TrackPointExtension>
            <ns3:atemp>22.0</ns3:atemp>
            <ns3:hr>109</ns3:hr>
          </ns3:TrackPointExtension>
        </extensions>
      </trkpt>
      <trkpt lat="36.817915029823780059814453125" lon="-118.40394915081560611724853515625">
        <ele>3280.199951171875</ele>
        <time>2021-06-27T14:25:38.000Z</time>
        <extensions>
          <ns3:TrackPointExtension>
            <ns3:atemp>22.0</ns3:atemp>
            <ns3:hr>114</ns3:hr>
          </ns3:TrackPointExtension>
        </extensions>
      </trkpt>
      <trkpt lat="36.817915029823780059814453125" lon="-118.403948731720447540283203125">
        <ele>3280.39990234375</ele>
        <time>2021-06-27T14:25:39.000Z</time>
        <extensions>
          <ns3:TrackPointExtension>
            <ns3:atemp>22.0</ns3:atemp>
            <ns3:hr>111</ns3:hr>
          </ns3:TrackPointExtension>
        </extensions>
      </trkpt>
      <trkpt lat="36.8179165385663509368896484375" lon="-118.4039162099361419677734375">
        <ele>3281.39990234375</ele>
        <time>2021-06-27T14:25:46.000Z</time>
        <extensions>
          <ns3:TrackPointExtension>
            <ns3:atemp>22.0</ns3:atemp>
            <ns3:hr>111</ns3:hr>
          </ns3:TrackPointExtension>
        </extensions>
      </trkpt>
      <trkpt lat="36.81792299263179302215576171875" lon="-118.40390087105333805084228515625">
        <ele>3282.60009765625</ele>
        <time>2021-06-27T14:25:52.000Z</time>
        <extensions>
          <ns3:TrackPointExtension>
            <ns3:atemp>22.0</ns3:atemp>
            <ns3:hr>110</ns3:hr>
          </ns3:TrackPointExtension>
        </extensions>
      </trkpt>
      <trkpt lat="36.81792316026985645294189453125" lon="-118.4038545191287994384765625">
        <ele>3283.60009765625</ele>
        <time>2021-06-27T14:26:02.000Z</time>
        <extensions>
          <ns3:TrackPointExtension>
            <ns3:atemp>22.0</ns3:atemp>
            <ns3:hr>109</ns3:hr>
          </ns3:TrackPointExtension>
        </extensions>
      </trkpt>
      <trkpt lat="36.81792550720274448394775390625" lon="-118.4038171358406543731689453125">
        <ele>3284.800048828125</ele>
        <time>2021-06-27T14:26:07.000Z</time>
        <extensions>
          <ns3:TrackPointExtension>
            <ns3:atemp>22.0</ns3:atemp>
            <ns3:hr>110</ns3:hr>
          </ns3:TrackPointExtension>
        </extensions>
      </trkpt>
      <trkpt lat="36.817925758659839630126953125" lon="-118.4037547744810581207275390625">
        <ele>3286</ele>
        <time>2021-06-27T14:26:18.000Z</time>
        <extensions>
          <ns3:TrackPointExtension>
            <ns3:atemp>22.0</ns3:atemp>
            <ns3:hr>109</ns3:hr>
          </ns3:TrackPointExtension>
        </extensions>
      </trkpt>
      <trkpt lat="36.81793950498104095458984375" lon="-118.40374999679625034332275390625">
        <ele>3287.199951171875</ele>
        <time>2021-06-27T14:26:23.000Z</time>
        <extensions>
          <ns3:TrackPointExtension>
            <ns3:atemp>22.0</ns3:atemp>
            <ns3:hr>108</ns3:hr>
          </ns3:TrackPointExtension>
        </extensions>
      </trkpt>
      <trkpt lat="36.817946545779705047607421875" lon="-118.40371144004166126251220703125">
        <ele>3288.199951171875</ele>
        <time>2021-06-27T14:26:31.000Z</time>
        <extensions>
          <ns3:TrackPointExtension>
            <ns3:atemp>22.0</ns3:atemp>
            <ns3:hr>109</ns3:hr>
          </ns3:TrackPointExtension>
        </extensions>
      </trkpt>
      <trkpt lat="36.81795350275933742523193359375" lon="-118.40367405675351619720458984375">
        <ele>3289.39990234375</ele>
        <time>2021-06-27T14:26:39.000Z</time>
        <extensions>
          <ns3:TrackPointExtension>
            <ns3:atemp>22.0</ns3:atemp>
            <ns3:hr>108</ns3:hr>
          </ns3:TrackPointExtension>
        </extensions>
      </trkpt>
      <trkpt lat="36.81798032484948635101318359375" lon="-118.403653688728809356689453125">
        <ele>3290</ele>
        <time>2021-06-27T14:26:50.000Z</time>
        <extensions>
          <ns3:TrackPointExtension>
            <ns3:atemp>22.0</ns3:atemp>
            <ns3:hr>109</ns3:hr>
          </ns3:TrackPointExtension>
        </extensions>
      </trkpt>
      <trkpt lat="36.8179882876574993133544921875" lon="-118.40363684110343456268310546875">
        <ele>3290</ele>
        <time>2021-06-27T14:26:53.000Z</time>
        <extensions>
          <ns3:TrackPointExtension>
            <ns3:atemp>22.0</ns3:atemp>
            <ns3:hr>106</ns3:hr>
          </ns3:TrackPointExtension>
        </extensions>
      </trkpt>
      <trkpt lat="36.81799985468387603759765625" lon="-118.40359778143465518951416015625">
        <ele>3290</ele>
        <time>2021-06-27T14:26:59.000Z</time>
        <extensions>
          <ns3:TrackPointExtension>
            <ns3:atemp>21.0</ns3:atemp>
            <ns3:hr>103</ns3:hr>
          </ns3:TrackPointExtension>
        </extensions>
      </trkpt>
      <trkpt lat="36.81800144724547863006591796875" lon="-118.4035864658653736114501953125">
        <ele>3290</ele>
        <time>2021-06-27T14:27:01.000Z</time>
        <extensions>
          <ns3:TrackPointExtension>
            <ns3:atemp>21.0</ns3:atemp>
            <ns3:hr>106</ns3:hr>
          </ns3:TrackPointExtension>
        </extensions>
      </trkpt>
      <trkpt lat="36.8180032074451446533203125" lon="-118.40358437038958072662353515625">
        <ele>3290</ele>
        <time>2021-06-27T14:27:03.000Z</time>
        <extensions>
          <ns3:TrackPointExtension>
            <ns3:atemp>21.0</ns3:atemp>
            <ns3:hr>109</ns3:hr>
          </ns3:TrackPointExtension>
        </extensions>
      </trkpt>
      <trkpt lat="36.81800396181643009185791015625" lon="-118.4035827778279781341552734375">
        <ele>3290</ele>
        <time>2021-06-27T14:27:08.000Z</time>
        <extensions>
          <ns3:TrackPointExtension>
            <ns3:atemp>21.0</ns3:atemp>
            <ns3:hr>113</ns3:hr>
          </ns3:TrackPointExtension>
        </extensions>
      </trkpt>
      <trkpt lat="36.81800396181643009185791015625" lon="-118.40357682667672634124755859375">
        <ele>3290.199951171875</ele>
        <time>2021-06-27T14:27:13.000Z</time>
        <extensions>
          <ns3:TrackPointExtension>
            <ns3:atemp>21.0</ns3:atemp>
            <ns3:hr>109</ns3:hr>
          </ns3:TrackPointExtension>
        </extensions>
      </trkpt>
      <trkpt lat="36.81800396181643009185791015625" lon="-118.40357649140059947967529296875">
        <ele>3290.39990234375</ele>
        <time>2021-06-27T14:27:14.000Z</time>
        <extensions>
          <ns3:TrackPointExtension>
            <ns3:atemp>21.0</ns3:atemp>
            <ns3:hr>114</ns3:hr>
          </ns3:TrackPointExtension>
        </extensions>
      </trkpt>
      <trkpt lat="36.81800396181643009185791015625" lon="-118.40357582084834575653076171875">
        <ele>3290.39990234375</ele>
        <time>2021-06-27T14:27:17.000Z</time>
        <extensions>
          <ns3:TrackPointExtension>
            <ns3:atemp>21.0</ns3:atemp>
            <ns3:hr>115</ns3:hr>
          </ns3:TrackPointExtension>
        </extensions>
      </trkpt>
      <trkpt lat="36.818004213273525238037109375" lon="-118.4035733900964260101318359375">
        <ele>3290.60009765625</ele>
        <time>2021-06-27T14:27:22.000Z</time>
        <extensions>
          <ns3:TrackPointExtension>
            <ns3:atemp>21.0</ns3:atemp>
            <ns3:hr>112</ns3:hr>
          </ns3:TrackPointExtension>
        </extensions>
      </trkpt>
      <trkpt lat="36.8180087395012378692626953125" lon="-118.4035663492977619171142578125">
        <ele>3291.199951171875</ele>
        <time>2021-06-27T14:27:32.000Z</time>
        <extensions>
          <ns3:TrackPointExtension>
            <ns3:atemp>21.0</ns3:atemp>
            <ns3:hr>109</ns3:hr>
          </ns3:TrackPointExtension>
        </extensions>
      </trkpt>
      <trkpt lat="36.8180085718631744384765625" lon="-118.40356349945068359375">
        <ele>3291.800048828125</ele>
        <time>2021-06-27T14:27:35.000Z</time>
        <extensions>
          <ns3:TrackPointExtension>
            <ns3:atemp>21.0</ns3:atemp>
            <ns3:hr>108</ns3:hr>
          </ns3:TrackPointExtension>
        </extensions>
      </trkpt>
      <trkpt lat="36.81800412945449352264404296875" lon="-118.403538353741168975830078125">
        <ele>3292</ele>
        <time>2021-06-27T14:27:41.000Z</time>
        <extensions>
          <ns3:TrackPointExtension>
            <ns3:atemp>21.0</ns3:atemp>
            <ns3:hr>105</ns3:hr>
          </ns3:TrackPointExtension>
        </extensions>
      </trkpt>
      <trkpt lat="36.81800412945449352264404296875" lon="-118.40350239537656307220458984375">
        <ele>3292.800048828125</ele>
        <time>2021-06-27T14:27:46.000Z</time>
        <extensions>
          <ns3:TrackPointExtension>
            <ns3:atemp>21.0</ns3:atemp>
            <ns3:hr>104</ns3:hr>
          </ns3:TrackPointExtension>
        </extensions>
      </trkpt>
      <trkpt lat="36.81799055077135562896728515625" lon="-118.40344271622598171234130859375">
        <ele>3293.800048828125</ele>
        <time>2021-06-27T14:27:55.000Z</time>
        <extensions>
          <ns3:TrackPointExtension>
            <ns3:atemp>21.0</ns3:atemp>
            <ns3:hr>104</ns3:hr>
          </ns3:TrackPointExtension>
        </extensions>
      </trkpt>
      <trkpt lat="36.8179728649556636810302734375" lon="-118.40338437817990779876708984375">
        <ele>3294.60009765625</ele>
        <time>2021-06-27T14:28:02.000Z</time>
        <extensions>
          <ns3:TrackPointExtension>
            <ns3:atemp>21.0</ns3:atemp>
            <ns3:hr>109</ns3:hr>
          </ns3:TrackPointExtension>
        </extensions>
      </trkpt>
      <trkpt lat="36.8179648183286190032958984375" lon="-118.403374068439006805419921875">
        <ele>3295.39990234375</ele>
        <time>2021-06-27T14:28:04.000Z</time>
        <extensions>
          <ns3:TrackPointExtension>
            <ns3:atemp>21.0</ns3:atemp>
            <ns3:hr>107</ns3:hr>
          </ns3:TrackPointExtension>
        </extensions>
      </trkpt>
      <trkpt lat="36.81795970536768436431884765625" lon="-118.40336191467940807342529296875">
        <ele>3296.199951171875</ele>
        <time>2021-06-27T14:28:07.000Z</time>
        <extensions>
          <ns3:TrackPointExtension>
            <ns3:atemp>21.0</ns3:atemp>
            <ns3:hr>110</ns3:hr>
          </ns3:TrackPointExtension>
        </extensions>
      </trkpt>
      <trkpt lat="36.81794461794197559356689453125" lon="-118.40334380976855754852294921875">
        <ele>3296.199951171875</ele>
        <time>2021-06-27T14:28:11.000Z</time>
        <extensions>
          <ns3:TrackPointExtension>
            <ns3:atemp>21.0</ns3:atemp>
            <ns3:hr>113</ns3:hr>
          </ns3:TrackPointExtension>
        </extensions>
      </trkpt>
      <trkpt lat="36.81793606840074062347412109375" lon="-118.4033350087702274322509765625">
        <ele>3296.39990234375</ele>
        <time>2021-06-27T14:28:13.000Z</time>
        <extensions>
          <ns3:TrackPointExtension>
            <ns3:atemp>21.0</ns3:atemp>
            <ns3:hr>114</ns3:hr>
          </ns3:TrackPointExtension>
        </extensions>
      </trkpt>
      <trkpt lat="36.8179316259920597076416015625" lon="-118.4033004753291606903076171875">
        <ele>3297.60009765625</ele>
        <time>2021-06-27T14:28:20.000Z</time>
        <extensions>
          <ns3:TrackPointExtension>
            <ns3:atemp>21.0</ns3:atemp>
            <ns3:hr>114</ns3:hr>
          </ns3:TrackPointExtension>
        </extensions>
      </trkpt>
      <trkpt lat="36.817927099764347076416015625" lon="-118.40324574150145053863525390625">
        <ele>3298.60009765625</ele>
        <time>2021-06-27T14:28:28.000Z</time>
        <extensions>
          <ns3:TrackPointExtension>
            <ns3:atemp>21.0</ns3:atemp>
            <ns3:hr>113</ns3:hr>
          </ns3:TrackPointExtension>
        </extensions>
      </trkpt>
      <trkpt lat="36.81791058741509914398193359375" lon="-118.403198719024658203125">
        <ele>3300</ele>
        <time>2021-06-27T14:28:34.000Z</time>
        <extensions>
          <ns3:TrackPointExtension>
            <ns3:atemp>21.0</ns3:atemp>
            <ns3:hr>111</ns3:hr>
          </ns3:TrackPointExtension>
        </extensions>
      </trkpt>
      <trkpt lat="36.81790891103446483612060546875" lon="-118.4031623415648937225341796875">
        <ele>3300.800048828125</ele>
        <time>2021-06-27T14:28:40.000Z</time>
        <extensions>
          <ns3:TrackPointExtension>
            <ns3:atemp>21.0</ns3:atemp>
            <ns3:hr>114</ns3:hr>
          </ns3:TrackPointExtension>
        </extensions>
      </trkpt>
      <trkpt lat="36.81790891103446483612060546875" lon="-118.40315655805170536041259765625">
        <ele>3301</ele>
        <time>2021-06-27T14:28:42.000Z</time>
        <extensions>
          <ns3:TrackPointExtension>
            <ns3:atemp>21.0</ns3:atemp>
            <ns3:hr>115</ns3:hr>
          </ns3:TrackPointExtension>
        </extensions>
      </trkpt>
      <trkpt lat="36.81790891103446483612060546875" lon="-118.40314582921564579010009765625">
        <ele>3301.39990234375</ele>
        <time>2021-06-27T14:28:45.000Z</time>
        <extensions>
          <ns3:TrackPointExtension>
            <ns3:atemp>21.0</ns3:atemp>
            <ns3:hr>119</ns3:hr>
          </ns3:TrackPointExtension>
        </extensions>
      </trkpt>
      <trkpt lat="36.81790891103446483612060546875" lon="-118.4031432308256626129150390625">
        <ele>3301.39990234375</ele>
        <time>2021-06-27T14:28:46.000Z</time>
        <extensions>
          <ns3:TrackPointExtension>
            <ns3:atemp>21.0</ns3:atemp>
            <ns3:hr>121</ns3:hr>
          </ns3:TrackPointExtension>
        </extensions>
      </trkpt>
      <trkpt lat="36.817911006510257720947265625" lon="-118.40313769876956939697265625">
        <ele>3302.39990234375</ele>
        <time>2021-06-27T14:28:49.000Z</time>
        <extensions>
          <ns3:TrackPointExtension>
            <ns3:atemp>21.0</ns3:atemp>
            <ns3:hr>124</ns3:hr>
          </ns3:TrackPointExtension>
        </extensions>
      </trkpt>
      <trkpt lat="36.817926429212093353271484375" lon="-118.4031214378774166107177734375">
        <ele>3303.39990234375</ele>
        <time>2021-06-27T14:28:54.000Z</time>
        <extensions>
          <ns3:TrackPointExtension>
            <ns3:atemp>21.0</ns3:atemp>
            <ns3:hr>125</ns3:hr>
          </ns3:TrackPointExtension>
        </extensions>
      </trkpt>
      <trkpt lat="36.817939840257167816162109375" lon="-118.40309905819594860076904296875">
        <ele>3304.199951171875</ele>
        <time>2021-06-27T14:28:59.000Z</time>
        <extensions>
          <ns3:TrackPointExtension>
            <ns3:atemp>21.0</ns3:atemp>
            <ns3:hr>122</ns3:hr>
          </ns3:TrackPointExtension>
        </extensions>
      </trkpt>
      <trkpt lat="36.8179428577423095703125" lon="-118.40308732353150844573974609375">
        <ele>3304.39990234375</ele>
        <time>2021-06-27T14:29:01.000Z</time>
        <extensions>
          <ns3:TrackPointExtension>
            <ns3:atemp>21.0</ns3:atemp>
            <ns3:hr>121</ns3:hr>
          </ns3:TrackPointExtension>
        </extensions>
      </trkpt>
      <trkpt lat="36.81794428266584873199462890625" lon="-118.4030605852603912353515625">
        <ele>3305</ele>
        <time>2021-06-27T14:29:07.000Z</time>
        <extensions>
          <ns3:TrackPointExtension>
            <ns3:atemp>21.0</ns3:atemp>
            <ns3:hr>118</ns3:hr>
          </ns3:TrackPointExtension>
        </extensions>
      </trkpt>
      <trkpt lat="36.8179443664848804473876953125" lon="-118.40304558165371417999267578125">
        <ele>3305.60009765625</ele>
        <time>2021-06-27T14:29:10.000Z</time>
        <extensions>
          <ns3:TrackPointExtension>
            <ns3:atemp>21.0</ns3:atemp>
            <ns3:hr>117</ns3:hr>
          </ns3:TrackPointExtension>
        </extensions>
      </trkpt>
      <trkpt lat="36.8179441988468170166015625" lon="-118.4030208550393581390380859375">
        <ele>3306.800048828125</ele>
        <time>2021-06-27T14:29:15.000Z</time>
        <extensions>
          <ns3:TrackPointExtension>
            <ns3:atemp>21.0</ns3:atemp>
            <ns3:hr>116</ns3:hr>
          </ns3:TrackPointExtension>
        </extensions>
      </trkpt>
      <trkpt lat="36.8179440312087535858154296875" lon="-118.4029749222099781036376953125">
        <ele>3308.199951171875</ele>
        <time>2021-06-27T14:29:24.000Z</time>
        <extensions>
          <ns3:TrackPointExtension>
            <ns3:atemp>21.0</ns3:atemp>
            <ns3:hr>120</ns3:hr>
          </ns3:TrackPointExtension>
        </extensions>
      </trkpt>
      <trkpt lat="36.8179440312087535858154296875" lon="-118.4029708988964557647705078125">
        <ele>3308.39990234375</ele>
        <time>2021-06-27T14:29:25.000Z</time>
        <extensions>
          <ns3:TrackPointExtension>
            <ns3:atemp>21.0</ns3:atemp>
            <ns3:hr>120</ns3:hr>
          </ns3:TrackPointExtension>
        </extensions>
      </trkpt>
      <trkpt lat="36.81794746778905391693115234375" lon="-118.40294726192951202392578125">
        <ele>3309.39990234375</ele>
        <time>2021-06-27T14:29:32.000Z</time>
        <extensions>
          <ns3:TrackPointExtension>
            <ns3:atemp>21.0</ns3:atemp>
            <ns3:hr>123</ns3:hr>
          </ns3:TrackPointExtension>
        </extensions>
      </trkpt>
      <trkpt lat="36.81794294156134128570556640625" lon="-118.40288263745605945587158203125">
        <ele>3310</ele>
        <time>2021-06-27T14:29:47.000Z</time>
        <extensions>
          <ns3:TrackPointExtension>
            <ns3:atemp>21.0</ns3:atemp>
            <ns3:hr>118</ns3:hr>
          </ns3:TrackPointExtension>
        </extensions>
      </trkpt>
      <trkpt lat="36.8178883753716945648193359375" lon="-118.40279529802501201629638671875">
        <ele>3310</ele>
        <time>2021-06-27T14:29:52.000Z</time>
        <extensions>
          <ns3:TrackPointExtension>
            <ns3:atemp>21.0</ns3:atemp>
            <ns3:hr>120</ns3:hr>
          </ns3:TrackPointExtension>
        </extensions>
      </trkpt>
      <trkpt lat="36.81785727851092815399169921875" lon="-118.402761518955230712890625">
        <ele>3310.199951171875</ele>
        <time>2021-06-27T14:29:55.000Z</time>
        <extensions>
          <ns3:TrackPointExtension>
            <ns3:atemp>21.0</ns3:atemp>
            <ns3:hr>119</ns3:hr>
          </ns3:TrackPointExtension>
        </extensions>
      </trkpt>
      <trkpt lat="36.81784235872328281402587890625" lon="-118.4027449227869510650634765625">
        <ele>3310.60009765625</ele>
        <time>2021-06-27T14:29:56.000Z</time>
        <extensions>
          <ns3:TrackPointExtension>
            <ns3:atemp>21.0</ns3:atemp>
            <ns3:hr>119</ns3:hr>
          </ns3:TrackPointExtension>
        </extensions>
      </trkpt>
      <trkpt lat="36.81783246807754039764404296875" lon="-118.4027395583689212799072265625">
        <ele>3310.60009765625</ele>
        <time>2021-06-27T14:29:57.000Z</time>
        <extensions>
          <ns3:TrackPointExtension>
            <ns3:atemp>21.0</ns3:atemp>
            <ns3:hr>119</ns3:hr>
          </ns3:TrackPointExtension>
        </extensions>
      </trkpt>
      <trkpt lat="36.817827858030796051025390625" lon="-118.402733020484447479248046875">
        <ele>3310.60009765625</ele>
        <time>2021-06-27T14:29:58.000Z</time>
        <extensions>
          <ns3:TrackPointExtension>
            <ns3:atemp>21.0</ns3:atemp>
            <ns3:hr>119</ns3:hr>
          </ns3:TrackPointExtension>
        </extensions>
      </trkpt>
      <trkpt lat="36.81779508478939533233642578125" lon="-118.40269454754889011383056640625">
        <ele>3310.60009765625</ele>
        <time>2021-06-27T14:30:03.000Z</time>
        <extensions>
          <ns3:TrackPointExtension>
            <ns3:atemp>21.0</ns3:atemp>
            <ns3:hr>116</ns3:hr>
          </ns3:TrackPointExtension>
        </extensions>
      </trkpt>
      <trkpt lat="36.81778217665851116180419921875" lon="-118.40268733911216259002685546875">
        <ele>3310.800048828125</ele>
        <time>2021-06-27T14:30:07.000Z</time>
        <extensions>
          <ns3:TrackPointExtension>
            <ns3:atemp>21.0</ns3:atemp>
            <ns3:hr>113</ns3:hr>
          </ns3:TrackPointExtension>
        </extensions>
      </trkpt>
      <trkpt lat="36.8177800811827182769775390625" lon="-118.40268884785473346710205078125">
        <ele>3310.800048828125</ele>
        <time>2021-06-27T14:30:08.000Z</time>
        <extensions>
          <ns3:TrackPointExtension>
            <ns3:atemp>21.0</ns3:atemp>
            <ns3:hr>113</ns3:hr>
          </ns3:TrackPointExtension>
        </extensions>
      </trkpt>
      <trkpt lat="36.81777899153530597686767578125" lon="-118.40264894999563694000244140625">
        <ele>3312</ele>
        <time>2021-06-27T14:30:15.000Z</time>
        <extensions>
          <ns3:TrackPointExtension>
            <ns3:atemp>21.0</ns3:atemp>
            <ns3:hr>111</ns3:hr>
          </ns3:TrackPointExtension>
        </extensions>
      </trkpt>
      <trkpt lat="36.817775554955005645751953125" lon="-118.40264241211116313934326171875">
        <ele>3312</ele>
        <time>2021-06-27T14:30:16.000Z</time>
        <extensions>
          <ns3:TrackPointExtension>
            <ns3:atemp>21.0</ns3:atemp>
            <ns3:hr>110</ns3:hr>
          </ns3:TrackPointExtension>
        </extensions>
      </trkpt>
      <trkpt lat="36.817763485014438629150390625" lon="-118.40260871686041355133056640625">
        <ele>3312.60009765625</ele>
        <time>2021-06-27T14:30:22.000Z</time>
        <extensions>
          <ns3:TrackPointExtension>
            <ns3:atemp>21.0</ns3:atemp>
            <ns3:hr>107</ns3:hr>
          </ns3:TrackPointExtension>
        </extensions>
      </trkpt>
      <trkpt lat="36.8177596293389797210693359375" lon="-118.40259295888245105743408203125">
        <ele>3312.800048828125</ele>
        <time>2021-06-27T14:30:24.000Z</time>
        <extensions>
          <ns3:TrackPointExtension>
            <ns3:atemp>21.0</ns3:atemp>
            <ns3:hr>109</ns3:hr>
          </ns3:TrackPointExtension>
        </extensions>
      </trkpt>
      <trkpt lat="36.81775686331093311309814453125" lon="-118.4025806374847888946533203125">
        <ele>3313</ele>
        <time>2021-06-27T14:30:26.000Z</time>
        <extensions>
          <ns3:TrackPointExtension>
            <ns3:atemp>21.0</ns3:atemp>
            <ns3:hr>112</ns3:hr>
          </ns3:TrackPointExtension>
        </extensions>
      </trkpt>
      <trkpt lat="36.817755438387393951416015625" lon="-118.402560018002986907958984375">
        <ele>3313.39990234375</ele>
        <time>2021-06-27T14:30:30.000Z</time>
        <extensions>
          <ns3:TrackPointExtension>
            <ns3:atemp>21.0</ns3:atemp>
            <ns3:hr>116</ns3:hr>
          </ns3:TrackPointExtension>
        </extensions>
      </trkpt>
      <trkpt lat="36.81775736622512340545654296875" lon="-118.40254937298595905303955078125">
        <ele>3313.60009765625</ele>
        <time>2021-06-27T14:30:33.000Z</time>
        <extensions>
          <ns3:TrackPointExtension>
            <ns3:atemp>21.0</ns3:atemp>
            <ns3:hr>113</ns3:hr>
          </ns3:TrackPointExtension>
        </extensions>
      </trkpt>
      <trkpt lat="36.817756108939647674560546875" lon="-118.40253948234021663665771484375">
        <ele>3313.60009765625</ele>
        <time>2021-06-27T14:30:36.000Z</time>
        <extensions>
          <ns3:TrackPointExtension>
            <ns3:atemp>21.0</ns3:atemp>
            <ns3:hr>113</ns3:hr>
          </ns3:TrackPointExtension>
        </extensions>
      </trkpt>
      <trkpt lat="36.8177204020321369171142578125" lon="-118.4025008417665958404541015625">
        <ele>3313.39990234375</ele>
        <time>2021-06-27T14:30:44.000Z</time>
        <extensions>
          <ns3:TrackPointExtension>
            <ns3:atemp>21.0</ns3:atemp>
            <ns3:hr>111</ns3:hr>
          </ns3:TrackPointExtension>
        </extensions>
      </trkpt>
      <trkpt lat="36.8176813423633575439453125" lon="-118.40246672742068767547607421875">
        <ele>3313.39990234375</ele>
        <time>2021-06-27T14:30:51.000Z</time>
        <extensions>
          <ns3:TrackPointExtension>
            <ns3:atemp>21.0</ns3:atemp>
            <ns3:hr>109</ns3:hr>
          </ns3:TrackPointExtension>
        </extensions>
      </trkpt>
      <trkpt lat="36.81767262518405914306640625" lon="-118.4024431742727756500244140625">
        <ele>3313.800048828125</ele>
        <time>2021-06-27T14:30:58.000Z</time>
        <extensions>
          <ns3:TrackPointExtension>
            <ns3:atemp>21.0</ns3:atemp>
            <ns3:hr>110</ns3:hr>
          </ns3:TrackPointExtension>
        </extensions>
      </trkpt>
      <trkpt lat="36.81765376590192317962646484375" lon="-118.40242967940866947174072265625">
        <ele>3314</ele>
        <time>2021-06-27T14:31:01.000Z</time>
        <extensions>
          <ns3:TrackPointExtension>
            <ns3:atemp>21.0</ns3:atemp>
            <ns3:hr>109</ns3:hr>
          </ns3:TrackPointExtension>
        </extensions>
      </trkpt>
      <trkpt lat="36.817632727324962615966796875" lon="-118.4024056233465671539306640625">
        <ele>3314.39990234375</ele>
        <time>2021-06-27T14:31:05.000Z</time>
        <extensions>
          <ns3:TrackPointExtension>
            <ns3:atemp>21.0</ns3:atemp>
            <ns3:hr>109</ns3:hr>
          </ns3:TrackPointExtension>
        </extensions>
      </trkpt>
      <trkpt lat="36.817632727324962615966796875" lon="-118.4024056233465671539306640625">
        <ele>3315.199951171875</ele>
        <time>2021-06-27T14:31:09.000Z</time>
        <extensions>
          <ns3:TrackPointExtension>
            <ns3:atemp>21.0</ns3:atemp>
            <ns3:hr>111</ns3:hr>
          </ns3:TrackPointExtension>
        </extensions>
      </trkpt>
      <trkpt lat="36.817632727324962615966796875" lon="-118.4024056233465671539306640625">
        <ele>3315.60009765625</ele>
        <time>2021-06-27T14:31:11.000Z</time>
        <extensions>
          <ns3:TrackPointExtension>
            <ns3:atemp>21.0</ns3:atemp>
            <ns3:hr>108</ns3:hr>
          </ns3:TrackPointExtension>
        </extensions>
      </trkpt>
      <trkpt lat="36.81763331405818462371826171875" lon="-118.40239967219531536102294921875">
        <ele>3316.60009765625</ele>
        <time>2021-06-27T14:31:20.000Z</time>
        <extensions>
          <ns3:TrackPointExtension>
            <ns3:atemp>21.0</ns3:atemp>
            <ns3:hr>108</ns3:hr>
          </ns3:TrackPointExtension>
        </extensions>
      </trkpt>
      <trkpt lat="36.8176411092281341552734375" lon="-118.4023754484951496124267578125">
        <ele>3318</ele>
        <time>2021-06-27T14:31:29.000Z</time>
        <extensions>
          <ns3:TrackPointExtension>
            <ns3:atemp>21.0</ns3:atemp>
            <ns3:hr>106</ns3:hr>
          </ns3:TrackPointExtension>
        </extensions>
      </trkpt>
      <trkpt lat="36.8176560290157794952392578125" lon="-118.402366228401660919189453125">
        <ele>3319</ele>
        <time>2021-06-27T14:31:35.000Z</time>
        <extensions>
          <ns3:TrackPointExtension>
            <ns3:atemp>21.0</ns3:atemp>
            <ns3:hr>105</ns3:hr>
          </ns3:TrackPointExtension>
        </extensions>
      </trkpt>
      <trkpt lat="36.81766717694699764251708984375" lon="-118.40233664028346538543701171875">
        <ele>3320.199951171875</ele>
        <time>2021-06-27T14:31:42.000Z</time>
        <extensions>
          <ns3:TrackPointExtension>
            <ns3:atemp>21.0</ns3:atemp>
            <ns3:hr>106</ns3:hr>
          </ns3:TrackPointExtension>
        </extensions>
      </trkpt>
      <trkpt lat="36.8176680989563465118408203125" lon="-118.40230244211852550506591796875">
        <ele>3321.199951171875</ele>
        <time>2021-06-27T14:31:51.000Z</time>
        <extensions>
          <ns3:TrackPointExtension>
            <ns3:atemp>21.0</ns3:atemp>
            <ns3:hr>106</ns3:hr>
          </ns3:TrackPointExtension>
        </extensions>
      </trkpt>
      <trkpt lat="36.8176680989563465118408203125" lon="-118.40227092616260051727294921875">
        <ele>3321.39990234375</ele>
        <time>2021-06-27T14:31:54.000Z</time>
        <extensions>
          <ns3:TrackPointExtension>
            <ns3:atemp>21.0</ns3:atemp>
            <ns3:hr>109</ns3:hr>
          </ns3:TrackPointExtension>
        </extensions>
      </trkpt>
      <trkpt lat="36.81766323745250701904296875" lon="-118.40222708880901336669921875">
        <ele>3322.199951171875</ele>
        <time>2021-06-27T14:32:03.000Z</time>
        <extensions>
          <ns3:TrackPointExtension>
            <ns3:atemp>21.0</ns3:atemp>
            <ns3:hr>112</ns3:hr>
          </ns3:TrackPointExtension>
        </extensions>
      </trkpt>
      <trkpt lat="36.8176536820828914642333984375" lon="-118.40220722369849681854248046875">
        <ele>3323.39990234375</ele>
        <time>2021-06-27T14:32:08.000Z</time>
        <extensions>
          <ns3:TrackPointExtension>
            <ns3:atemp>21.0</ns3:atemp>
            <ns3:hr>112</ns3:hr>
          </ns3:TrackPointExtension>
        </extensions>
      </trkpt>
      <trkpt lat="36.81765259243547916412353515625" lon="-118.4021903760731220245361328125">
        <ele>3323.800048828125</ele>
        <time>2021-06-27T14:32:11.000Z</time>
        <extensions>
          <ns3:TrackPointExtension>
            <ns3:atemp>21.0</ns3:atemp>
            <ns3:hr>116</ns3:hr>
          </ns3:TrackPointExtension>
        </extensions>
      </trkpt>
      <trkpt lat="36.81765242479741573333740234375" lon="-118.40218090452253818511962890625">
        <ele>3324.199951171875</ele>
        <time>2021-06-27T14:32:13.000Z</time>
        <extensions>
          <ns3:TrackPointExtension>
            <ns3:atemp>21.0</ns3:atemp>
            <ns3:hr>119</ns3:hr>
          </ns3:TrackPointExtension>
        </extensions>
      </trkpt>
      <trkpt lat="36.8176523409783840179443359375" lon="-118.40217671357095241546630859375">
        <ele>3324.60009765625</ele>
        <time>2021-06-27T14:32:14.000Z</time>
        <extensions>
          <ns3:TrackPointExtension>
            <ns3:atemp>21.0</ns3:atemp>
            <ns3:hr>118</ns3:hr>
          </ns3:TrackPointExtension>
        </extensions>
      </trkpt>
      <trkpt lat="36.81765225715935230255126953125" lon="-118.40217210352420806884765625">
        <ele>3324.800048828125</ele>
        <time>2021-06-27T14:32:15.000Z</time>
        <extensions>
          <ns3:TrackPointExtension>
            <ns3:atemp>21.0</ns3:atemp>
            <ns3:hr>121</ns3:hr>
          </ns3:TrackPointExtension>
        </extensions>
      </trkpt>
      <trkpt lat="36.81765175424516201019287109375" lon="-118.40212943963706493377685546875">
        <ele>3325.800048828125</ele>
        <time>2021-06-27T14:32:24.000Z</time>
        <extensions>
          <ns3:TrackPointExtension>
            <ns3:atemp>21.0</ns3:atemp>
            <ns3:hr>126</ns3:hr>
          </ns3:TrackPointExtension>
        </extensions>
      </trkpt>
      <trkpt lat="36.8176516704261302947998046875" lon="-118.40212793089449405670166015625">
        <ele>3326</ele>
        <time>2021-06-27T14:32:25.000Z</time>
        <extensions>
          <ns3:TrackPointExtension>
            <ns3:atemp>21.0</ns3:atemp>
            <ns3:hr>123</ns3:hr>
          </ns3:TrackPointExtension>
        </extensions>
      </trkpt>
      <trkpt lat="36.81765158660709857940673828125" lon="-118.40210932306945323944091796875">
        <ele>3327</ele>
        <time>2021-06-27T14:32:31.000Z</time>
        <extensions>
          <ns3:TrackPointExtension>
            <ns3:atemp>21.0</ns3:atemp>
            <ns3:hr>124</ns3:hr>
          </ns3:TrackPointExtension>
        </extensions>
      </trkpt>
      <trkpt lat="36.81765024550259113311767578125" lon="-118.402059115469455718994140625">
        <ele>3327.199951171875</ele>
        <time>2021-06-27T14:32:40.000Z</time>
        <extensions>
          <ns3:TrackPointExtension>
            <ns3:atemp>21.0</ns3:atemp>
            <ns3:hr>127</ns3:hr>
          </ns3:TrackPointExtension>
        </extensions>
      </trkpt>
      <trkpt lat="36.817650161683559417724609375" lon="-118.4020525775849819183349609375">
        <ele>3327.39990234375</ele>
        <time>2021-06-27T14:32:42.000Z</time>
        <extensions>
          <ns3:TrackPointExtension>
            <ns3:atemp>21.0</ns3:atemp>
            <ns3:hr>124</ns3:hr>
          </ns3:TrackPointExtension>
        </extensions>
      </trkpt>
      <trkpt lat="36.81764370761811733245849609375" lon="-118.40203405357897281646728515625">
        <ele>3327.60009765625</ele>
        <time>2021-06-27T14:32:48.000Z</time>
        <extensions>
          <ns3:TrackPointExtension>
            <ns3:atemp>21.0</ns3:atemp>
            <ns3:hr>121</ns3:hr>
          </ns3:TrackPointExtension>
        </extensions>
      </trkpt>
      <trkpt lat="36.81763985194265842437744140625" lon="-118.40203137136995792388916015625">
        <ele>3328.199951171875</ele>
        <time>2021-06-27T14:32:52.000Z</time>
        <extensions>
          <ns3:TrackPointExtension>
            <ns3:atemp>21.0</ns3:atemp>
            <ns3:hr>119</ns3:hr>
          </ns3:TrackPointExtension>
        </extensions>
      </trkpt>
      <trkpt lat="36.81763666681945323944091796875" lon="-118.40202801860868930816650390625">
        <ele>3329</ele>
        <time>2021-06-27T14:33:00.000Z</time>
        <extensions>
          <ns3:TrackPointExtension>
            <ns3:atemp>21.0</ns3:atemp>
            <ns3:hr>116</ns3:hr>
          </ns3:TrackPointExtension>
        </extensions>
      </trkpt>
      <trkpt lat="36.8176362477242946624755859375" lon="-118.4020274318754673004150390625">
        <ele>3329.199951171875</ele>
        <time>2021-06-27T14:33:01.000Z</time>
        <extensions>
          <ns3:TrackPointExtension>
            <ns3:atemp>21.0</ns3:atemp>
            <ns3:hr>116</ns3:hr>
          </ns3:TrackPointExtension>
        </extensions>
      </trkpt>
      <trkpt lat="36.81762711144983768463134765625" lon="-118.4020089916884899139404296875">
        <ele>3330.39990234375</ele>
        <time>2021-06-27T14:33:08.000Z</time>
        <extensions>
          <ns3:TrackPointExtension>
            <ns3:atemp>21.0</ns3:atemp>
            <ns3:hr>114</ns3:hr>
          </ns3:TrackPointExtension>
        </extensions>
      </trkpt>
      <trkpt lat="36.817626692354679107666015625" lon="-118.40200220234692096710205078125">
        <ele>3330.800048828125</ele>
        <time>2021-06-27T14:33:10.000Z</time>
        <extensions>
          <ns3:TrackPointExtension>
            <ns3:atemp>21.0</ns3:atemp>
            <ns3:hr>111</ns3:hr>
          </ns3:TrackPointExtension>
        </extensions>
      </trkpt>
      <trkpt lat="36.81762635707855224609375" lon="-118.4019731171429157257080078125">
        <ele>3331.199951171875</ele>
        <time>2021-06-27T14:33:17.000Z</time>
        <extensions>
          <ns3:TrackPointExtension>
            <ns3:atemp>21.0</ns3:atemp>
            <ns3:hr>114</ns3:hr>
          </ns3:TrackPointExtension>
        </extensions>
      </trkpt>
      <trkpt lat="36.81762635707855224609375" lon="-118.40196364559233188629150390625">
        <ele>3331.800048828125</ele>
        <time>2021-06-27T14:33:19.000Z</time>
        <extensions>
          <ns3:TrackPointExtension>
            <ns3:atemp>21.0</ns3:atemp>
            <ns3:hr>114</ns3:hr>
          </ns3:TrackPointExtension>
        </extensions>
      </trkpt>
      <trkpt lat="36.81763398461043834686279296875" lon="-118.4019429422914981842041015625">
        <ele>3332.800048828125</ele>
        <time>2021-06-27T14:33:25.000Z</time>
        <extensions>
          <ns3:TrackPointExtension>
            <ns3:atemp>21.0</ns3:atemp>
            <ns3:hr>112</ns3:hr>
          </ns3:TrackPointExtension>
        </extensions>
      </trkpt>
      <trkpt lat="36.81763633154332637786865234375" lon="-118.401918970048427581787109375">
        <ele>3333.39990234375</ele>
        <time>2021-06-27T14:33:31.000Z</time>
        <extensions>
          <ns3:TrackPointExtension>
            <ns3:atemp>21.0</ns3:atemp>
            <ns3:hr>115</ns3:hr>
          </ns3:TrackPointExtension>
        </extensions>
      </trkpt>
      <trkpt lat="36.81763649918138980865478515625" lon="-118.4019090794026851654052734375">
        <ele>3334</ele>
        <time>2021-06-27T14:33:33.000Z</time>
        <extensions>
          <ns3:TrackPointExtension>
            <ns3:atemp>21.0</ns3:atemp>
            <ns3:hr>118</ns3:hr>
          </ns3:TrackPointExtension>
        </extensions>
      </trkpt>
      <trkpt lat="36.81763666681945323944091796875" lon="-118.40189541690051555633544921875">
        <ele>3334.60009765625</ele>
        <time>2021-06-27T14:33:36.000Z</time>
        <extensions>
          <ns3:TrackPointExtension>
            <ns3:atemp>21.0</ns3:atemp>
            <ns3:hr>121</ns3:hr>
          </ns3:TrackPointExtension>
        </extensions>
      </trkpt>
      <trkpt lat="36.81763431988656520843505859375" lon="-118.40188502334058284759521484375">
        <ele>3334.800048828125</ele>
        <time>2021-06-27T14:33:40.000Z</time>
        <extensions>
          <ns3:TrackPointExtension>
            <ns3:atemp>21.0</ns3:atemp>
            <ns3:hr>124</ns3:hr>
          </ns3:TrackPointExtension>
        </extensions>
      </trkpt>
      <trkpt lat="36.8176330626010894775390625" lon="-118.401882760226726531982421875">
        <ele>3334.800048828125</ele>
        <time>2021-06-27T14:33:41.000Z</time>
        <extensions>
          <ns3:TrackPointExtension>
            <ns3:atemp>21.0</ns3:atemp>
            <ns3:hr>121</ns3:hr>
          </ns3:TrackPointExtension>
        </extensions>
      </trkpt>
      <trkpt lat="36.817632056772708892822265625" lon="-118.4018792398273944854736328125">
        <ele>3335</ele>
        <time>2021-06-27T14:33:42.000Z</time>
        <extensions>
          <ns3:TrackPointExtension>
            <ns3:atemp>21.0</ns3:atemp>
            <ns3:hr>124</ns3:hr>
          </ns3:TrackPointExtension>
        </extensions>
      </trkpt>
      <trkpt lat="36.8176312185823917388916015625" lon="-118.40187462978065013885498046875">
        <ele>3335.199951171875</ele>
        <time>2021-06-27T14:33:43.000Z</time>
        <extensions>
          <ns3:TrackPointExtension>
            <ns3:atemp>21.0</ns3:atemp>
            <ns3:hr>125</ns3:hr>
          </ns3:TrackPointExtension>
        </extensions>
      </trkpt>
      <trkpt lat="36.81762459687888622283935546875" lon="-118.4018544293940067291259765625">
        <ele>3335.60009765625</ele>
        <time>2021-06-27T14:33:47.000Z</time>
        <extensions>
          <ns3:TrackPointExtension>
            <ns3:atemp>21.0</ns3:atemp>
            <ns3:hr>128</ns3:hr>
          </ns3:TrackPointExtension>
        </extensions>
      </trkpt>
      <trkpt lat="36.81761973537504673004150390625" lon="-118.40183557011187076568603515625">
        <ele>3336.199951171875</ele>
        <time>2021-06-27T14:33:51.000Z</time>
        <extensions>
          <ns3:TrackPointExtension>
            <ns3:atemp>21.0</ns3:atemp>
            <ns3:hr>128</ns3:hr>
          </ns3:TrackPointExtension>
        </extensions>
      </trkpt>
      <trkpt lat="36.8176188133656978607177734375" lon="-118.40183121152222156524658203125">
        <ele>3336.39990234375</ele>
        <time>2021-06-27T14:33:52.000Z</time>
        <extensions>
          <ns3:TrackPointExtension>
            <ns3:atemp>21.0</ns3:atemp>
            <ns3:hr>123</ns3:hr>
          </ns3:TrackPointExtension>
        </extensions>
      </trkpt>
      <trkpt lat="36.81761370040476322174072265625" lon="-118.401795588433742523193359375">
        <ele>3337.199951171875</ele>
        <time>2021-06-27T14:34:00.000Z</time>
        <extensions>
          <ns3:TrackPointExtension>
            <ns3:atemp>21.0</ns3:atemp>
            <ns3:hr>126</ns3:hr>
          </ns3:TrackPointExtension>
        </extensions>
      </trkpt>
      <trkpt lat="36.81761252693831920623779296875" lon="-118.4017840214073657989501953125">
        <ele>3337.60009765625</ele>
        <time>2021-06-27T14:34:03.000Z</time>
        <extensions>
          <ns3:TrackPointExtension>
            <ns3:atemp>21.0</ns3:atemp>
            <ns3:hr>121</ns3:hr>
          </ns3:TrackPointExtension>
        </extensions>
      </trkpt>
      <trkpt lat="36.81761093437671661376953125" lon="-118.40177035890519618988037109375">
        <ele>3338</ele>
        <time>2021-06-27T14:34:07.000Z</time>
        <extensions>
          <ns3:TrackPointExtension>
            <ns3:atemp>21.0</ns3:atemp>
            <ns3:hr>122</ns3:hr>
          </ns3:TrackPointExtension>
        </extensions>
      </trkpt>
      <trkpt lat="36.8176097609102725982666015625" lon="-118.40176013298332691192626953125">
        <ele>3338.60009765625</ele>
        <time>2021-06-27T14:34:10.000Z</time>
        <extensions>
          <ns3:TrackPointExtension>
            <ns3:atemp>21.0</ns3:atemp>
            <ns3:hr>121</ns3:hr>
          </ns3:TrackPointExtension>
        </extensions>
      </trkpt>
      <trkpt lat="36.81760649196803569793701171875" lon="-118.401737250387668609619140625">
        <ele>3339.60009765625</ele>
        <time>2021-06-27T14:34:19.000Z</time>
        <extensions>
          <ns3:TrackPointExtension>
            <ns3:atemp>22.0</ns3:atemp>
            <ns3:hr>120</ns3:hr>
          </ns3:TrackPointExtension>
        </extensions>
      </trkpt>
      <trkpt lat="36.81760598905384540557861328125" lon="-118.4017330594360828399658203125">
        <ele>3341</ele>
        <time>2021-06-27T14:34:26.000Z</time>
        <extensions>
          <ns3:TrackPointExtension>
            <ns3:atemp>22.0</ns3:atemp>
            <ns3:hr>120</ns3:hr>
          </ns3:TrackPointExtension>
        </extensions>
      </trkpt>
      <trkpt lat="36.81760598905384540557861328125" lon="-118.401731885969638824462890625">
        <ele>3342</ele>
        <time>2021-06-27T14:34:33.000Z</time>
        <extensions>
          <ns3:TrackPointExtension>
            <ns3:atemp>22.0</ns3:atemp>
            <ns3:hr>118</ns3:hr>
          </ns3:TrackPointExtension>
        </extensions>
      </trkpt>
      <trkpt lat="36.81760598905384540557861328125" lon="-118.4017302095890045166015625">
        <ele>3343.39990234375</ele>
        <time>2021-06-27T14:34:41.000Z</time>
        <extensions>
          <ns3:TrackPointExtension>
            <ns3:atemp>22.0</ns3:atemp>
            <ns3:hr>121</ns3:hr>
          </ns3:TrackPointExtension>
        </extensions>
      </trkpt>
      <trkpt lat="36.81760598905384540557861328125" lon="-118.40172777883708477020263671875">
        <ele>3344.39990234375</ele>
        <time>2021-06-27T14:34:50.000Z</time>
        <extensions>
          <ns3:TrackPointExtension>
            <ns3:atemp>22.0</ns3:atemp>
            <ns3:hr>119</ns3:hr>
          </ns3:TrackPointExtension>
        </extensions>
      </trkpt>
      <trkpt lat="36.8176054023206233978271484375" lon="-118.401723168790340423583984375">
        <ele>3345.60009765625</ele>
        <time>2021-06-27T14:35:04.000Z</time>
        <extensions>
          <ns3:TrackPointExtension>
            <ns3:atemp>22.0</ns3:atemp>
            <ns3:hr>116</ns3:hr>
          </ns3:TrackPointExtension>
        </extensions>
      </trkpt>
      <trkpt lat="36.817604564130306243896484375" lon="-118.40172015130519866943359375">
        <ele>3346.60009765625</ele>
        <time>2021-06-27T14:35:12.000Z</time>
        <extensions>
          <ns3:TrackPointExtension>
            <ns3:atemp>22.0</ns3:atemp>
            <ns3:hr>114</ns3:hr>
          </ns3:TrackPointExtension>
        </extensions>
      </trkpt>
      <trkpt lat="36.81760422885417938232421875" lon="-118.4017194807529449462890625">
        <ele>3346.60009765625</ele>
        <time>2021-06-27T14:35:14.000Z</time>
        <extensions>
          <ns3:TrackPointExtension>
            <ns3:atemp>22.0</ns3:atemp>
            <ns3:hr>111</ns3:hr>
          </ns3:TrackPointExtension>
        </extensions>
      </trkpt>
      <trkpt lat="36.81760364212095737457275390625" lon="-118.40171788819134235382080078125">
        <ele>3346.800048828125</ele>
        <time>2021-06-27T14:35:18.000Z</time>
        <extensions>
          <ns3:TrackPointExtension>
            <ns3:atemp>22.0</ns3:atemp>
            <ns3:hr>114</ns3:hr>
          </ns3:TrackPointExtension>
        </extensions>
      </trkpt>
      <trkpt lat="36.81760288774967193603515625" lon="-118.401715792715549468994140625">
        <ele>3347.60009765625</ele>
        <time>2021-06-27T14:35:23.000Z</time>
        <extensions>
          <ns3:TrackPointExtension>
            <ns3:atemp>22.0</ns3:atemp>
            <ns3:hr>116</ns3:hr>
          </ns3:TrackPointExtension>
        </extensions>
      </trkpt>
      <trkpt lat="36.81760246865451335906982421875" lon="-118.401714451611042022705078125">
        <ele>3348.199951171875</ele>
        <time>2021-06-27T14:35:26.000Z</time>
        <extensions>
          <ns3:TrackPointExtension>
            <ns3:atemp>22.0</ns3:atemp>
            <ns3:hr>113</ns3:hr>
          </ns3:TrackPointExtension>
        </extensions>
      </trkpt>
      <trkpt lat="36.8176020495593547821044921875" lon="-118.40171302668750286102294921875">
        <ele>3348.800048828125</ele>
        <time>2021-06-27T14:35:29.000Z</time>
        <extensions>
          <ns3:TrackPointExtension>
            <ns3:atemp>22.0</ns3:atemp>
            <ns3:hr>113</ns3:hr>
          </ns3:TrackPointExtension>
        </extensions>
      </trkpt>
      <trkpt lat="36.8176007084548473358154296875" lon="-118.4017079137265682220458984375">
        <ele>3349.800048828125</ele>
        <time>2021-06-27T14:35:39.000Z</time>
        <extensions>
          <ns3:TrackPointExtension>
            <ns3:atemp>22.0</ns3:atemp>
            <ns3:hr>111</ns3:hr>
          </ns3:TrackPointExtension>
        </extensions>
      </trkpt>
      <trkpt lat="36.81760012172162532806396484375" lon="-118.401705063879489898681640625">
        <ele>3350.800048828125</ele>
        <time>2021-06-27T14:35:44.000Z</time>
        <extensions>
          <ns3:TrackPointExtension>
            <ns3:atemp>22.0</ns3:atemp>
            <ns3:hr>113</ns3:hr>
          </ns3:TrackPointExtension>
        </extensions>
      </trkpt>
      <trkpt lat="36.8175963498651981353759765625" lon="-118.40166005305945873260498046875">
        <ele>3351.60009765625</ele>
        <time>2021-06-27T14:35:51.000Z</time>
        <extensions>
          <ns3:TrackPointExtension>
            <ns3:atemp>22.0</ns3:atemp>
            <ns3:hr>116</ns3:hr>
          </ns3:TrackPointExtension>
        </extensions>
      </trkpt>
      <trkpt lat="36.8175832740962505340576171875" lon="-118.40148319490253925323486328125">
        <ele>3351.800048828125</ele>
        <time>2021-06-27T14:35:55.000Z</time>
        <extensions>
          <ns3:TrackPointExtension>
            <ns3:atemp>22.0</ns3:atemp>
            <ns3:hr>116</ns3:hr>
          </ns3:TrackPointExtension>
        </extensions>
      </trkpt>
      <trkpt lat="36.81758151389658451080322265625" lon="-118.40144120156764984130859375">
        <ele>3351.800048828125</ele>
        <time>2021-06-27T14:35:56.000Z</time>
        <extensions>
          <ns3:TrackPointExtension>
            <ns3:atemp>22.0</ns3:atemp>
            <ns3:hr>115</ns3:hr>
          </ns3:TrackPointExtension>
        </extensions>
      </trkpt>
      <trkpt lat="36.81758251972496509552001953125" lon="-118.401320166885852813720703125">
        <ele>3352.800048828125</ele>
        <time>2021-06-27T14:35:59.000Z</time>
        <extensions>
          <ns3:TrackPointExtension>
            <ns3:atemp>22.0</ns3:atemp>
            <ns3:hr>113</ns3:hr>
          </ns3:TrackPointExtension>
        </extensions>
      </trkpt>
      <trkpt lat="36.81759526021778583526611328125" lon="-118.40126744471490383148193359375">
        <ele>3353.60009765625</ele>
        <time>2021-06-27T14:36:03.000Z</time>
        <extensions>
          <ns3:TrackPointExtension>
            <ns3:atemp>22.0</ns3:atemp>
            <ns3:hr>112</ns3:hr>
          </ns3:TrackPointExtension>
        </extensions>
      </trkpt>
      <trkpt lat="36.81759752333164215087890625" lon="-118.4012717194855213165283203125">
        <ele>3354</ele>
        <time>2021-06-27T14:36:04.000Z</time>
        <extensions>
          <ns3:TrackPointExtension>
            <ns3:atemp>22.0</ns3:atemp>
            <ns3:hr>112</ns3:hr>
          </ns3:TrackPointExtension>
        </extensions>
      </trkpt>
      <trkpt lat="36.81761571206152439117431640625" lon="-118.4012831188738346099853515625">
        <ele>3354.60009765625</ele>
        <time>2021-06-27T14:36:12.000Z</time>
        <extensions>
          <ns3:TrackPointExtension>
            <ns3:atemp>22.0</ns3:atemp>
            <ns3:hr>114</ns3:hr>
          </ns3:TrackPointExtension>
        </extensions>
      </trkpt>
      <trkpt lat="36.81759425438940525054931640625" lon="-118.40127297677099704742431640625">
        <ele>3354.60009765625</ele>
        <time>2021-06-27T14:36:19.000Z</time>
        <extensions>
          <ns3:TrackPointExtension>
            <ns3:atemp>22.0</ns3:atemp>
            <ns3:hr>114</ns3:hr>
          </ns3:TrackPointExtension>
        </extensions>
      </trkpt>
      <trkpt lat="36.8175963498651981353759765625" lon="-118.40126677416265010833740234375">
        <ele>3354.60009765625</ele>
        <time>2021-06-27T14:36:20.000Z</time>
        <extensions>
          <ns3:TrackPointExtension>
            <ns3:atemp>22.0</ns3:atemp>
            <ns3:hr>114</ns3:hr>
          </ns3:TrackPointExtension>
        </extensions>
      </trkpt>
      <trkpt lat="36.81760800071060657501220703125" lon="-118.401241712272167205810546875">
        <ele>3354.60009765625</ele>
        <time>2021-06-27T14:36:26.000Z</time>
        <extensions>
          <ns3:TrackPointExtension>
            <ns3:atemp>22.0</ns3:atemp>
            <ns3:hr>110</ns3:hr>
          </ns3:TrackPointExtension>
        </extensions>
      </trkpt>
      <trkpt lat="36.81761118583381175994873046875" lon="-118.40121011249721050262451171875">
        <ele>3354.800048828125</ele>
        <time>2021-06-27T14:36:29.000Z</time>
        <extensions>
          <ns3:TrackPointExtension>
            <ns3:atemp>22.0</ns3:atemp>
            <ns3:hr>111</ns3:hr>
          </ns3:TrackPointExtension>
        </extensions>
      </trkpt>
      <trkpt lat="36.81761152110993862152099609375" lon="-118.4012117050588130950927734375">
        <ele>3355</ele>
        <time>2021-06-27T14:36:30.000Z</time>
        <extensions>
          <ns3:TrackPointExtension>
            <ns3:atemp>22.0</ns3:atemp>
            <ns3:hr>111</ns3:hr>
          </ns3:TrackPointExtension>
        </extensions>
      </trkpt>
      <trkpt lat="36.81761152110993862152099609375" lon="-118.4012117050588130950927734375">
        <ele>3355</ele>
        <time>2021-06-27T14:36:42.000Z</time>
        <extensions>
          <ns3:TrackPointExtension>
            <ns3:atemp>22.0</ns3:atemp>
            <ns3:hr>110</ns3:hr>
          </ns3:TrackPointExtension>
        </extensions>
      </trkpt>
      <trkpt lat="36.81763867847621440887451171875" lon="-118.4011349268257617950439453125">
        <ele>3355.199951171875</ele>
        <time>2021-06-27T14:37:09.000Z</time>
        <extensions>
          <ns3:TrackPointExtension>
            <ns3:atemp>22.0</ns3:atemp>
            <ns3:hr>107</ns3:hr>
          </ns3:TrackPointExtension>
        </extensions>
      </trkpt>
      <trkpt lat="36.81763867847621440887451171875" lon="-118.40111799538135528564453125">
        <ele>3355.60009765625</ele>
        <time>2021-06-27T14:37:17.000Z</time>
        <extensions>
          <ns3:TrackPointExtension>
            <ns3:atemp>22.0</ns3:atemp>
            <ns3:hr>104</ns3:hr>
          </ns3:TrackPointExtension>
        </extensions>
      </trkpt>
      <trkpt lat="36.81762635707855224609375" lon="-118.40111799538135528564453125">
        <ele>3356</ele>
        <time>2021-06-27T14:37:26.000Z</time>
        <extensions>
          <ns3:TrackPointExtension>
            <ns3:atemp>22.0</ns3:atemp>
            <ns3:hr>107</ns3:hr>
          </ns3:TrackPointExtension>
        </extensions>
      </trkpt>
      <trkpt lat="36.81761722080409526824951171875" lon="-118.4011248685419559478759765625">
        <ele>3356</ele>
        <time>2021-06-27T14:37:28.000Z</time>
        <extensions>
          <ns3:TrackPointExtension>
            <ns3:atemp>22.0</ns3:atemp>
            <ns3:hr>104</ns3:hr>
          </ns3:TrackPointExtension>
        </extensions>
      </trkpt>
      <trkpt lat="36.817608587443828582763671875" lon="-118.401132412254810333251953125">
        <ele>3355.800048828125</ele>
        <time>2021-06-27T14:37:33.000Z</time>
        <extensions>
          <ns3:TrackPointExtension>
            <ns3:atemp>22.0</ns3:atemp>
            <ns3:hr>101</ns3:hr>
          </ns3:TrackPointExtension>
        </extensions>
      </trkpt>
      <trkpt lat="36.8176084198057651519775390625" lon="-118.401147164404392242431640625">
        <ele>3355.60009765625</ele>
        <time>2021-06-27T14:37:39.000Z</time>
        <extensions>
          <ns3:TrackPointExtension>
            <ns3:atemp>22.0</ns3:atemp>
            <ns3:hr>104</ns3:hr>
          </ns3:TrackPointExtension>
        </extensions>
      </trkpt>
      <trkpt lat="36.8176084198057651519775390625" lon="-118.4011476673185825347900390625">
        <ele>3355.39990234375</ele>
        <time>2021-06-27T14:37:41.000Z</time>
        <extensions>
          <ns3:TrackPointExtension>
            <ns3:atemp>22.0</ns3:atemp>
            <ns3:hr>107</ns3:hr>
          </ns3:TrackPointExtension>
        </extensions>
      </trkpt>
      <trkpt lat="36.81760959327220916748046875" lon="-118.40115345083177089691162109375">
        <ele>3355.39990234375</ele>
        <time>2021-06-27T14:37:50.000Z</time>
        <extensions>
          <ns3:TrackPointExtension>
            <ns3:atemp>22.0</ns3:atemp>
            <ns3:hr>104</ns3:hr>
          </ns3:TrackPointExtension>
        </extensions>
      </trkpt>
      <trkpt lat="36.81761093437671661376953125" lon="-118.4011570550501346588134765625">
        <ele>3355.39990234375</ele>
        <time>2021-06-27T14:37:53.000Z</time>
        <extensions>
          <ns3:TrackPointExtension>
            <ns3:atemp>22.0</ns3:atemp>
            <ns3:hr>101</ns3:hr>
          </ns3:TrackPointExtension>
        </extensions>
      </trkpt>
      <trkpt lat="36.8176144547760486602783203125" lon="-118.4011570550501346588134765625">
        <ele>3355</ele>
        <time>2021-06-27T14:38:12.000Z</time>
        <extensions>
          <ns3:TrackPointExtension>
            <ns3:atemp>22.0</ns3:atemp>
            <ns3:hr>96</ns3:hr>
          </ns3:TrackPointExtension>
        </extensions>
      </trkpt>
      <trkpt lat="36.8176151253283023834228515625" lon="-118.40115294791758060455322265625">
        <ele>3354.800048828125</ele>
        <time>2021-06-27T14:38:19.000Z</time>
        <extensions>
          <ns3:TrackPointExtension>
            <ns3:atemp>22.0</ns3:atemp>
            <ns3:hr>99</ns3:hr>
          </ns3:TrackPointExtension>
        </extensions>
      </trkpt>
      <trkpt lat="36.817617975175380706787109375" lon="-118.40114842168986797332763671875">
        <ele>3355.39990234375</ele>
        <time>2021-06-27T14:38:29.000Z</time>
        <extensions>
          <ns3:TrackPointExtension>
            <ns3:atemp>22.0</ns3:atemp>
            <ns3:hr>102</ns3:hr>
          </ns3:TrackPointExtension>
        </extensions>
      </trkpt>
      <trkpt lat="36.81763197295367717742919921875" lon="-118.40114490129053592681884765625">
        <ele>3355.199951171875</ele>
        <time>2021-06-27T14:38:46.000Z</time>
        <extensions>
          <ns3:TrackPointExtension>
            <ns3:atemp>22.0</ns3:atemp>
            <ns3:hr>97</ns3:hr>
          </ns3:TrackPointExtension>
        </extensions>
      </trkpt>
      <trkpt lat="36.81767237372696399688720703125" lon="-118.4010906703770160675048828125">
        <ele>3355.800048828125</ele>
        <time>2021-06-27T14:38:52.000Z</time>
        <extensions>
          <ns3:TrackPointExtension>
            <ns3:atemp>22.0</ns3:atemp>
            <ns3:hr>99</ns3:hr>
          </ns3:TrackPointExtension>
        </extensions>
      </trkpt>
      <trkpt lat="36.81768930517137050628662109375" lon="-118.40105764567852020263671875">
        <ele>3356</ele>
        <time>2021-06-27T14:38:55.000Z</time>
        <extensions>
          <ns3:TrackPointExtension>
            <ns3:atemp>22.0</ns3:atemp>
            <ns3:hr>98</ns3:hr>
          </ns3:TrackPointExtension>
        </extensions>
      </trkpt>
      <trkpt lat="36.81770481169223785400390625" lon="-118.4010222740471363067626953125">
        <ele>3356.60009765625</ele>
        <time>2021-06-27T14:38:59.000Z</time>
        <extensions>
          <ns3:TrackPointExtension>
            <ns3:atemp>22.0</ns3:atemp>
            <ns3:hr>95</ns3:hr>
          </ns3:TrackPointExtension>
        </extensions>
      </trkpt>
      <trkpt lat="36.8177143670618534088134765625" lon="-118.40100467205047607421875">
        <ele>3357.199951171875</ele>
        <time>2021-06-27T14:39:01.000Z</time>
        <extensions>
          <ns3:TrackPointExtension>
            <ns3:atemp>22.0</ns3:atemp>
            <ns3:hr>94</ns3:hr>
          </ns3:TrackPointExtension>
        </extensions>
      </trkpt>
      <trkpt lat="36.8177193962037563323974609375" lon="-118.40099603869020938873291015625">
        <ele>3357.199951171875</ele>
        <time>2021-06-27T14:39:02.000Z</time>
        <extensions>
          <ns3:TrackPointExtension>
            <ns3:atemp>22.0</ns3:atemp>
            <ns3:hr>98</ns3:hr>
          </ns3:TrackPointExtension>
        </extensions>
      </trkpt>
      <trkpt lat="36.8177247606217861175537109375" lon="-118.40098698623478412628173828125">
        <ele>3357.199951171875</ele>
        <time>2021-06-27T14:39:03.000Z</time>
        <extensions>
          <ns3:TrackPointExtension>
            <ns3:atemp>22.0</ns3:atemp>
            <ns3:hr>98</ns3:hr>
          </ns3:TrackPointExtension>
        </extensions>
      </trkpt>
      <trkpt lat="36.8177485652267932891845703125" lon="-118.4009443223476409912109375">
        <ele>3357.60009765625</ele>
        <time>2021-06-27T14:39:09.000Z</time>
        <extensions>
          <ns3:TrackPointExtension>
            <ns3:atemp>22.0</ns3:atemp>
            <ns3:hr>101</ns3:hr>
          </ns3:TrackPointExtension>
        </extensions>
      </trkpt>
      <trkpt lat="36.81778217665851116180419921875" lon="-118.40091808699071407318115234375">
        <ele>3358.199951171875</ele>
        <time>2021-06-27T14:39:15.000Z</time>
        <extensions>
          <ns3:TrackPointExtension>
            <ns3:atemp>22.0</ns3:atemp>
            <ns3:hr>101</ns3:hr>
          </ns3:TrackPointExtension>
        </extensions>
      </trkpt>
      <trkpt lat="36.81778904981911182403564453125" lon="-118.40090970508754253387451171875">
        <ele>3358.39990234375</ele>
        <time>2021-06-27T14:39:16.000Z</time>
        <extensions>
          <ns3:TrackPointExtension>
            <ns3:atemp>22.0</ns3:atemp>
            <ns3:hr>101</ns3:hr>
          </ns3:TrackPointExtension>
        </extensions>
      </trkpt>
      <trkpt lat="36.81784235872328281402587890625" lon="-118.40086695738136768341064453125">
        <ele>3358.60009765625</ele>
        <time>2021-06-27T14:39:24.000Z</time>
        <extensions>
          <ns3:TrackPointExtension>
            <ns3:atemp>22.0</ns3:atemp>
            <ns3:hr>103</ns3:hr>
          </ns3:TrackPointExtension>
        </extensions>
      </trkpt>
      <trkpt lat="36.81785509921610355377197265625" lon="-118.4008504450321197509765625">
        <ele>3358.60009765625</ele>
        <time>2021-06-27T14:39:26.000Z</time>
        <extensions>
          <ns3:TrackPointExtension>
            <ns3:atemp>22.0</ns3:atemp>
            <ns3:hr>102</ns3:hr>
          </ns3:TrackPointExtension>
        </extensions>
      </trkpt>
      <trkpt lat="36.81788292713463306427001953125" lon="-118.40082320384681224822998046875">
        <ele>3358.800048828125</ele>
        <time>2021-06-27T14:39:30.000Z</time>
        <extensions>
          <ns3:TrackPointExtension>
            <ns3:atemp>22.0</ns3:atemp>
            <ns3:hr>103</ns3:hr>
          </ns3:TrackPointExtension>
        </extensions>
      </trkpt>
      <trkpt lat="36.81790187023580074310302734375" lon="-118.4008147381246089935302734375">
        <ele>3359</ele>
        <time>2021-06-27T14:39:32.000Z</time>
        <extensions>
          <ns3:TrackPointExtension>
            <ns3:atemp>22.0</ns3:atemp>
            <ns3:hr>102</ns3:hr>
          </ns3:TrackPointExtension>
        </extensions>
      </trkpt>
      <trkpt lat="36.8179272674024105072021484375" lon="-118.400798477232456207275390625">
        <ele>3358.800048828125</ele>
        <time>2021-06-27T14:39:35.000Z</time>
        <extensions>
          <ns3:TrackPointExtension>
            <ns3:atemp>22.0</ns3:atemp>
            <ns3:hr>105</ns3:hr>
          </ns3:TrackPointExtension>
        </extensions>
      </trkpt>
      <trkpt lat="36.8179423548281192779541015625" lon="-118.40078548528254032135009765625">
        <ele>3358.800048828125</ele>
        <time>2021-06-27T14:39:37.000Z</time>
        <extensions>
          <ns3:TrackPointExtension>
            <ns3:atemp>22.0</ns3:atemp>
            <ns3:hr>105</ns3:hr>
          </ns3:TrackPointExtension>
        </extensions>
      </trkpt>
      <trkpt lat="36.8179638125002384185791015625" lon="-118.40076419524848461151123046875">
        <ele>3358.60009765625</ele>
        <time>2021-06-27T14:39:40.000Z</time>
        <extensions>
          <ns3:TrackPointExtension>
            <ns3:atemp>21.0</ns3:atemp>
            <ns3:hr>104</ns3:hr>
          </ns3:TrackPointExtension>
        </extensions>
      </trkpt>
      <trkpt lat="36.81797244586050510406494140625" lon="-118.4007580764591693878173828125">
        <ele>3358.39990234375</ele>
        <time>2021-06-27T14:39:41.000Z</time>
        <extensions>
          <ns3:TrackPointExtension>
            <ns3:atemp>22.0</ns3:atemp>
            <ns3:hr>103</ns3:hr>
          </ns3:TrackPointExtension>
        </extensions>
      </trkpt>
      <trkpt lat="36.81800614111125469207763671875" lon="-118.400698564946651458740234375">
        <ele>3357.60009765625</ele>
        <time>2021-06-27T14:39:46.000Z</time>
        <extensions>
          <ns3:TrackPointExtension>
            <ns3:atemp>21.0</ns3:atemp>
            <ns3:hr>100</ns3:hr>
          </ns3:TrackPointExtension>
        </extensions>
      </trkpt>
      <trkpt lat="36.818012930452823638916015625" lon="-118.4006761014461517333984375">
        <ele>3357.39990234375</ele>
        <time>2021-06-27T14:39:48.000Z</time>
        <extensions>
          <ns3:TrackPointExtension>
            <ns3:atemp>21.0</ns3:atemp>
            <ns3:hr>100</ns3:hr>
          </ns3:TrackPointExtension>
        </extensions>
      </trkpt>
      <trkpt lat="36.81801192462444305419921875" lon="-118.40067207813262939453125">
        <ele>3357.39990234375</ele>
        <time>2021-06-27T14:39:50.000Z</time>
        <extensions>
          <ns3:TrackPointExtension>
            <ns3:atemp>21.0</ns3:atemp>
            <ns3:hr>102</ns3:hr>
          </ns3:TrackPointExtension>
        </extensions>
      </trkpt>
      <trkpt lat="36.81801402010023593902587890625" lon="-118.4006665460765361785888671875">
        <ele>3357.199951171875</ele>
        <time>2021-06-27T14:39:51.000Z</time>
        <extensions>
          <ns3:TrackPointExtension>
            <ns3:atemp>21.0</ns3:atemp>
            <ns3:hr>103</ns3:hr>
          </ns3:TrackPointExtension>
        </extensions>
      </trkpt>
      <trkpt lat="36.818013601005077362060546875" lon="-118.40065891854465007781982421875">
        <ele>3357.199951171875</ele>
        <time>2021-06-27T14:39:53.000Z</time>
        <extensions>
          <ns3:TrackPointExtension>
            <ns3:atemp>21.0</ns3:atemp>
            <ns3:hr>106</ns3:hr>
          </ns3:TrackPointExtension>
        </extensions>
      </trkpt>
      <trkpt lat="36.81802039034664630889892578125" lon="-118.40065724216401576995849609375">
        <ele>3357.39990234375</ele>
        <time>2021-06-27T14:39:55.000Z</time>
        <extensions>
          <ns3:TrackPointExtension>
            <ns3:atemp>21.0</ns3:atemp>
            <ns3:hr>108</ns3:hr>
          </ns3:TrackPointExtension>
        </extensions>
      </trkpt>
      <trkpt lat="36.818036399781703948974609375" lon="-118.40064181946218013763427734375">
        <ele>3357.60009765625</ele>
        <time>2021-06-27T14:39:59.000Z</time>
        <extensions>
          <ns3:TrackPointExtension>
            <ns3:atemp>21.0</ns3:atemp>
            <ns3:hr>111</ns3:hr>
          </ns3:TrackPointExtension>
        </extensions>
      </trkpt>
      <trkpt lat="36.81804017163813114166259765625" lon="-118.40063461102545261383056640625">
        <ele>3357.199951171875</ele>
        <time>2021-06-27T14:40:08.000Z</time>
        <extensions>
          <ns3:TrackPointExtension>
            <ns3:atemp>21.0</ns3:atemp>
            <ns3:hr>110</ns3:hr>
          </ns3:TrackPointExtension>
        </extensions>
      </trkpt>
      <trkpt lat="36.81803363375365734100341796875" lon="-118.40063461102545261383056640625">
        <ele>3357.199951171875</ele>
        <time>2021-06-27T14:40:28.000Z</time>
        <extensions>
          <ns3:TrackPointExtension>
            <ns3:atemp>21.0</ns3:atemp>
            <ns3:hr>107</ns3:hr>
          </ns3:TrackPointExtension>
        </extensions>
      </trkpt>
      <trkpt lat="36.81803262792527675628662109375" lon="-118.4006340242922306060791015625">
        <ele>3357.199951171875</ele>
        <time>2021-06-27T14:40:31.000Z</time>
        <extensions>
          <ns3:TrackPointExtension>
            <ns3:atemp>21.0</ns3:atemp>
            <ns3:hr>104</ns3:hr>
          </ns3:TrackPointExtension>
        </extensions>
      </trkpt>
      <trkpt lat="36.8180322088301181793212890625" lon="-118.4006340242922306060791015625">
        <ele>3357.199951171875</ele>
        <time>2021-06-27T14:40:32.000Z</time>
        <extensions>
          <ns3:TrackPointExtension>
            <ns3:atemp>21.0</ns3:atemp>
            <ns3:hr>101</ns3:hr>
          </ns3:TrackPointExtension>
        </extensions>
      </trkpt>
      <trkpt lat="36.8180358968675136566162109375" lon="-118.40062916278839111328125">
        <ele>3357.199951171875</ele>
        <time>2021-06-27T14:40:36.000Z</time>
        <extensions>
          <ns3:TrackPointExtension>
            <ns3:atemp>21.0</ns3:atemp>
            <ns3:hr>97</ns3:hr>
          </ns3:TrackPointExtension>
        </extensions>
      </trkpt>
      <trkpt lat="36.81805961765348911285400390625" lon="-118.40061415918171405792236328125">
        <ele>3357.199951171875</ele>
        <time>2021-06-27T14:40:38.000Z</time>
        <extensions>
          <ns3:TrackPointExtension>
            <ns3:atemp>21.0</ns3:atemp>
            <ns3:hr>94</ns3:hr>
          </ns3:TrackPointExtension>
        </extensions>
      </trkpt>
      <trkpt lat="36.81808945722877979278564453125" lon="-118.40059471316635608673095703125">
        <ele>3357.199951171875</ele>
        <time>2021-06-27T14:40:40.000Z</time>
        <extensions>
          <ns3:TrackPointExtension>
            <ns3:atemp>21.0</ns3:atemp>
            <ns3:hr>90</ns3:hr>
          </ns3:TrackPointExtension>
        </extensions>
      </trkpt>
      <trkpt lat="36.81814494542777538299560546875" lon="-118.40055313892662525177001953125">
        <ele>3357.199951171875</ele>
        <time>2021-06-27T14:40:44.000Z</time>
        <extensions>
          <ns3:TrackPointExtension>
            <ns3:atemp>21.0</ns3:atemp>
            <ns3:hr>87</ns3:hr>
          </ns3:TrackPointExtension>
        </extensions>
      </trkpt>
      <trkpt lat="36.81816749274730682373046875" lon="-118.40053721331059932708740234375">
        <ele>3357.199951171875</ele>
        <time>2021-06-27T14:40:46.000Z</time>
        <extensions>
          <ns3:TrackPointExtension>
            <ns3:atemp>21.0</ns3:atemp>
            <ns3:hr>84</ns3:hr>
          </ns3:TrackPointExtension>
        </extensions>
      </trkpt>
      <trkpt lat="36.81820680387318134307861328125" lon="-118.4005151689052581787109375">
        <ele>3357.39990234375</ele>
        <time>2021-06-27T14:40:50.000Z</time>
        <extensions>
          <ns3:TrackPointExtension>
            <ns3:atemp>21.0</ns3:atemp>
            <ns3:hr>86</ns3:hr>
          </ns3:TrackPointExtension>
        </extensions>
      </trkpt>
      <trkpt lat="36.8182151019573211669921875" lon="-118.400510810315608978271484375">
        <ele>3357.39990234375</ele>
        <time>2021-06-27T14:40:51.000Z</time>
        <extensions>
          <ns3:TrackPointExtension>
            <ns3:atemp>21.0</ns3:atemp>
            <ns3:hr>87</ns3:hr>
          </ns3:TrackPointExtension>
        </extensions>
      </trkpt>
      <trkpt lat="36.818263716995716094970703125" lon="-118.4004861675202846527099609375">
        <ele>3357.60009765625</ele>
        <time>2021-06-27T14:40:56.000Z</time>
        <extensions>
          <ns3:TrackPointExtension>
            <ns3:atemp>21.0</ns3:atemp>
            <ns3:hr>83</ns3:hr>
          </ns3:TrackPointExtension>
        </extensions>
      </trkpt>
      <trkpt lat="36.81829414330422878265380859375" lon="-118.400476612150669097900390625">
        <ele>3357.60009765625</ele>
        <time>2021-06-27T14:40:59.000Z</time>
        <extensions>
          <ns3:TrackPointExtension>
            <ns3:atemp>21.0</ns3:atemp>
            <ns3:hr>80</ns3:hr>
          </ns3:TrackPointExtension>
        </extensions>
      </trkpt>
      <trkpt lat="36.818320713937282562255859375" lon="-118.40045758523046970367431640625">
        <ele>3357.60009765625</ele>
        <time>2021-06-27T14:41:02.000Z</time>
        <extensions>
          <ns3:TrackPointExtension>
            <ns3:atemp>21.0</ns3:atemp>
            <ns3:hr>81</ns3:hr>
          </ns3:TrackPointExtension>
        </extensions>
      </trkpt>
      <trkpt lat="36.81834854185581207275390625" lon="-118.40042908675968647003173828125">
        <ele>3358</ele>
        <time>2021-06-27T14:41:06.000Z</time>
        <extensions>
          <ns3:TrackPointExtension>
            <ns3:atemp>21.0</ns3:atemp>
            <ns3:hr>85</ns3:hr>
          </ns3:TrackPointExtension>
        </extensions>
      </trkpt>
      <trkpt lat="36.818356253206729888916015625" lon="-118.40042673982679843902587890625">
        <ele>3358</ele>
        <time>2021-06-27T14:41:07.000Z</time>
        <extensions>
          <ns3:TrackPointExtension>
            <ns3:atemp>21.0</ns3:atemp>
            <ns3:hr>85</ns3:hr>
          </ns3:TrackPointExtension>
        </extensions>
      </trkpt>
      <trkpt lat="36.81839288212358951568603515625" lon="-118.4004073776304721832275390625">
        <ele>3358.199951171875</ele>
        <time>2021-06-27T14:41:11.000Z</time>
        <extensions>
          <ns3:TrackPointExtension>
            <ns3:atemp>21.0</ns3:atemp>
            <ns3:hr>86</ns3:hr>
          </ns3:TrackPointExtension>
        </extensions>
      </trkpt>
      <trkpt lat="36.81841299869120121002197265625" lon="-118.40039874427020549774169921875">
        <ele>3358.39990234375</ele>
        <time>2021-06-27T14:41:13.000Z</time>
        <extensions>
          <ns3:TrackPointExtension>
            <ns3:atemp>21.0</ns3:atemp>
            <ns3:hr>84</ns3:hr>
          </ns3:TrackPointExtension>
        </extensions>
      </trkpt>
      <trkpt lat="36.81844686158001422882080078125" lon="-118.4003768675029277801513671875">
        <ele>3359</ele>
        <time>2021-06-27T14:41:17.000Z</time>
        <extensions>
          <ns3:TrackPointExtension>
            <ns3:atemp>21.0</ns3:atemp>
            <ns3:hr>88</ns3:hr>
          </ns3:TrackPointExtension>
        </extensions>
      </trkpt>
      <trkpt lat="36.818455159664154052734375" lon="-118.4003703296184539794921875">
        <ele>3359.199951171875</ele>
        <time>2021-06-27T14:41:18.000Z</time>
        <extensions>
          <ns3:TrackPointExtension>
            <ns3:atemp>21.0</ns3:atemp>
            <ns3:hr>85</ns3:hr>
          </ns3:TrackPointExtension>
        </extensions>
      </trkpt>
      <trkpt lat="36.81846312247216701507568359375" lon="-118.40036219917237758636474609375">
        <ele>3359.39990234375</ele>
        <time>2021-06-27T14:41:19.000Z</time>
        <extensions>
          <ns3:TrackPointExtension>
            <ns3:atemp>21.0</ns3:atemp>
            <ns3:hr>89</ns3:hr>
          </ns3:TrackPointExtension>
        </extensions>
      </trkpt>
      <trkpt lat="36.81848022155463695526123046875" lon="-118.40035180561244487762451171875">
        <ele>3359.60009765625</ele>
        <time>2021-06-27T14:41:21.000Z</time>
        <extensions>
          <ns3:TrackPointExtension>
            <ns3:atemp>21.0</ns3:atemp>
            <ns3:hr>89</ns3:hr>
          </ns3:TrackPointExtension>
        </extensions>
      </trkpt>
      <trkpt lat="36.818537302315235137939453125" lon="-118.40031676925718784332275390625">
        <ele>3360.199951171875</ele>
        <time>2021-06-27T14:41:28.000Z</time>
        <extensions>
          <ns3:TrackPointExtension>
            <ns3:atemp>21.0</ns3:atemp>
            <ns3:hr>92</ns3:hr>
          </ns3:TrackPointExtension>
        </extensions>
      </trkpt>
      <trkpt lat="36.8185503780841827392578125" lon="-118.400306962430477142333984375">
        <ele>3360.39990234375</ele>
        <time>2021-06-27T14:41:30.000Z</time>
        <extensions>
          <ns3:TrackPointExtension>
            <ns3:atemp>21.0</ns3:atemp>
            <ns3:hr>93</ns3:hr>
          </ns3:TrackPointExtension>
        </extensions>
      </trkpt>
      <trkpt lat="36.8185569159686565399169921875" lon="-118.400298915803432464599609375">
        <ele>3360.60009765625</ele>
        <time>2021-06-27T14:41:31.000Z</time>
        <extensions>
          <ns3:TrackPointExtension>
            <ns3:atemp>21.0</ns3:atemp>
            <ns3:hr>93</ns3:hr>
          </ns3:TrackPointExtension>
        </extensions>
      </trkpt>
      <trkpt lat="36.81859798729419708251953125" lon="-118.4002353809773921966552734375">
        <ele>3361.800048828125</ele>
        <time>2021-06-27T14:41:39.000Z</time>
        <extensions>
          <ns3:TrackPointExtension>
            <ns3:atemp>21.0</ns3:atemp>
            <ns3:hr>88</ns3:hr>
          </ns3:TrackPointExtension>
        </extensions>
      </trkpt>
      <trkpt lat="36.81860276497900485992431640625" lon="-118.40022657997906208038330078125">
        <ele>3361.800048828125</ele>
        <time>2021-06-27T14:41:40.000Z</time>
        <extensions>
          <ns3:TrackPointExtension>
            <ns3:atemp>21.0</ns3:atemp>
            <ns3:hr>94</ns3:hr>
          </ns3:TrackPointExtension>
        </extensions>
      </trkpt>
      <trkpt lat="36.81862170808017253875732421875" lon="-118.4001710079610347747802734375">
        <ele>3362.800048828125</ele>
        <time>2021-06-27T14:41:46.000Z</time>
        <extensions>
          <ns3:TrackPointExtension>
            <ns3:atemp>21.0</ns3:atemp>
            <ns3:hr>95</ns3:hr>
          </ns3:TrackPointExtension>
        </extensions>
      </trkpt>
      <trkpt lat="36.818633191287517547607421875" lon="-118.4001488797366619110107421875">
        <ele>3363.199951171875</ele>
        <time>2021-06-27T14:41:49.000Z</time>
        <extensions>
          <ns3:TrackPointExtension>
            <ns3:atemp>21.0</ns3:atemp>
            <ns3:hr>98</ns3:hr>
          </ns3:TrackPointExtension>
        </extensions>
      </trkpt>
      <trkpt lat="36.8186460994184017181396484375" lon="-118.40012817643582820892333984375">
        <ele>3363.39990234375</ele>
        <time>2021-06-27T14:41:52.000Z</time>
        <extensions>
          <ns3:TrackPointExtension>
            <ns3:atemp>21.0</ns3:atemp>
            <ns3:hr>101</ns3:hr>
          </ns3:TrackPointExtension>
        </extensions>
      </trkpt>
      <trkpt lat="36.81865305639803409576416015625" lon="-118.40009548701345920562744140625">
        <ele>3364</ele>
        <time>2021-06-27T14:41:56.000Z</time>
        <extensions>
          <ns3:TrackPointExtension>
            <ns3:atemp>21.0</ns3:atemp>
            <ns3:hr>101</ns3:hr>
          </ns3:TrackPointExtension>
        </extensions>
      </trkpt>
      <trkpt lat="36.81865523569285869598388671875" lon="-118.40009012259542942047119140625">
        <ele>3364</ele>
        <time>2021-06-27T14:41:57.000Z</time>
        <extensions>
          <ns3:TrackPointExtension>
            <ns3:atemp>21.0</ns3:atemp>
            <ns3:hr>102</ns3:hr>
          </ns3:TrackPointExtension>
        </extensions>
      </trkpt>
      <trkpt lat="36.8186668865382671356201171875" lon="-118.40007193386554718017578125">
        <ele>3364.800048828125</ele>
        <time>2021-06-27T14:42:00.000Z</time>
        <extensions>
          <ns3:TrackPointExtension>
            <ns3:atemp>21.0</ns3:atemp>
            <ns3:hr>102</ns3:hr>
          </ns3:TrackPointExtension>
        </extensions>
      </trkpt>
      <trkpt lat="36.81867803446948528289794921875" lon="-118.40005491860210895538330078125">
        <ele>3365</ele>
        <time>2021-06-27T14:42:02.000Z</time>
        <extensions>
          <ns3:TrackPointExtension>
            <ns3:atemp>21.0</ns3:atemp>
            <ns3:hr>103</ns3:hr>
          </ns3:TrackPointExtension>
        </extensions>
      </trkpt>
      <trkpt lat="36.8186937086284160614013671875" lon="-118.40003295801579952239990234375">
        <ele>3365</ele>
        <time>2021-06-27T14:42:05.000Z</time>
        <extensions>
          <ns3:TrackPointExtension>
            <ns3:atemp>21.0</ns3:atemp>
            <ns3:hr>106</ns3:hr>
          </ns3:TrackPointExtension>
        </extensions>
      </trkpt>
      <trkpt lat="36.8187165074050426483154296875" lon="-118.4000082314014434814453125">
        <ele>3365.800048828125</ele>
        <time>2021-06-27T14:42:10.000Z</time>
        <extensions>
          <ns3:TrackPointExtension>
            <ns3:atemp>21.0</ns3:atemp>
            <ns3:hr>103</ns3:hr>
          </ns3:TrackPointExtension>
        </extensions>
      </trkpt>
      <trkpt lat="36.81872262619435787200927734375" lon="-118.40000160969793796539306640625">
        <ele>3366</ele>
        <time>2021-06-27T14:42:11.000Z</time>
        <extensions>
          <ns3:TrackPointExtension>
            <ns3:atemp>21.0</ns3:atemp>
            <ns3:hr>106</ns3:hr>
          </ns3:TrackPointExtension>
        </extensions>
      </trkpt>
      <trkpt lat="36.81872799061238765716552734375" lon="-118.399993479251861572265625">
        <ele>3366</ele>
        <time>2021-06-27T14:42:12.000Z</time>
        <extensions>
          <ns3:TrackPointExtension>
            <ns3:atemp>21.0</ns3:atemp>
            <ns3:hr>106</ns3:hr>
          </ns3:TrackPointExtension>
        </extensions>
      </trkpt>
      <trkpt lat="36.81872983463108539581298828125" lon="-118.39998685754835605621337890625">
        <ele>3366.199951171875</ele>
        <time>2021-06-27T14:42:13.000Z</time>
        <extensions>
          <ns3:TrackPointExtension>
            <ns3:atemp>21.0</ns3:atemp>
            <ns3:hr>106</ns3:hr>
          </ns3:TrackPointExtension>
        </extensions>
      </trkpt>
      <trkpt lat="36.818750537931919097900390625" lon="-118.399971686303615570068359375">
        <ele>3367</ele>
        <time>2021-06-27T14:42:18.000Z</time>
        <extensions>
          <ns3:TrackPointExtension>
            <ns3:atemp>21.0</ns3:atemp>
            <ns3:hr>109</ns3:hr>
          </ns3:TrackPointExtension>
        </extensions>
      </trkpt>
      <trkpt lat="36.818764619529247283935546875" lon="-118.39996724389493465423583984375">
        <ele>3367.800048828125</ele>
        <time>2021-06-27T14:42:21.000Z</time>
        <extensions>
          <ns3:TrackPointExtension>
            <ns3:atemp>21.0</ns3:atemp>
            <ns3:hr>111</ns3:hr>
          </ns3:TrackPointExtension>
        </extensions>
      </trkpt>
      <trkpt lat="36.81878180243074893951416015625" lon="-118.39995785616338253021240234375">
        <ele>3368.199951171875</ele>
        <time>2021-06-27T14:42:24.000Z</time>
        <extensions>
          <ns3:TrackPointExtension>
            <ns3:atemp>21.0</ns3:atemp>
            <ns3:hr>112</ns3:hr>
          </ns3:TrackPointExtension>
        </extensions>
      </trkpt>
      <trkpt lat="36.81881784461438655853271484375" lon="-118.39995483867824077606201171875">
        <ele>3368.60009765625</ele>
        <time>2021-06-27T14:42:30.000Z</time>
        <extensions>
          <ns3:TrackPointExtension>
            <ns3:atemp>21.0</ns3:atemp>
            <ns3:hr>112</ns3:hr>
          </ns3:TrackPointExtension>
        </extensions>
      </trkpt>
      <trkpt lat="36.81882555596530437469482421875" lon="-118.39995433576405048370361328125">
        <ele>3369.39990234375</ele>
        <time>2021-06-27T14:42:32.000Z</time>
        <extensions>
          <ns3:TrackPointExtension>
            <ns3:atemp>21.0</ns3:atemp>
            <ns3:hr>112</ns3:hr>
          </ns3:TrackPointExtension>
        </extensions>
      </trkpt>
      <trkpt lat="36.81886595673859119415283203125" lon="-118.3999349735677242279052734375">
        <ele>3370.39990234375</ele>
        <time>2021-06-27T14:42:39.000Z</time>
        <extensions>
          <ns3:TrackPointExtension>
            <ns3:atemp>21.0</ns3:atemp>
            <ns3:hr>113</ns3:hr>
          </ns3:TrackPointExtension>
        </extensions>
      </trkpt>
      <trkpt lat="36.81887014769017696380615234375" lon="-118.399932794272899627685546875">
        <ele>3370.60009765625</ele>
        <time>2021-06-27T14:42:40.000Z</time>
        <extensions>
          <ns3:TrackPointExtension>
            <ns3:atemp>21.0</ns3:atemp>
            <ns3:hr>113</ns3:hr>
          </ns3:TrackPointExtension>
        </extensions>
      </trkpt>
      <trkpt lat="36.81890183128416538238525390625" lon="-118.3999170362949371337890625">
        <ele>3371.800048828125</ele>
        <time>2021-06-27T14:42:47.000Z</time>
        <extensions>
          <ns3:TrackPointExtension>
            <ns3:atemp>21.0</ns3:atemp>
            <ns3:hr>111</ns3:hr>
          </ns3:TrackPointExtension>
        </extensions>
      </trkpt>
      <trkpt lat="36.81890568695962429046630859375" lon="-118.399907648563385009765625">
        <ele>3372</ele>
        <time>2021-06-27T14:42:49.000Z</time>
        <extensions>
          <ns3:TrackPointExtension>
            <ns3:atemp>21.0</ns3:atemp>
            <ns3:hr>111</ns3:hr>
          </ns3:TrackPointExtension>
        </extensions>
      </trkpt>
      <trkpt lat="36.81890350766479969024658203125" lon="-118.3998732827603816986083984375">
        <ele>3372.800048828125</ele>
        <time>2021-06-27T14:42:56.000Z</time>
        <extensions>
          <ns3:TrackPointExtension>
            <ns3:atemp>21.0</ns3:atemp>
            <ns3:hr>113</ns3:hr>
          </ns3:TrackPointExtension>
        </extensions>
      </trkpt>
      <trkpt lat="36.818902753293514251708984375" lon="-118.39987504296004772186279296875">
        <ele>3373</ele>
        <time>2021-06-27T14:42:57.000Z</time>
        <extensions>
          <ns3:TrackPointExtension>
            <ns3:atemp>21.0</ns3:atemp>
            <ns3:hr>113</ns3:hr>
          </ns3:TrackPointExtension>
        </extensions>
      </trkpt>
      <trkpt lat="36.81892747990787029266357421875" lon="-118.39983833022415637969970703125">
        <ele>3374</ele>
        <time>2021-06-27T14:43:03.000Z</time>
        <extensions>
          <ns3:TrackPointExtension>
            <ns3:atemp>21.0</ns3:atemp>
            <ns3:hr>113</ns3:hr>
          </ns3:TrackPointExtension>
        </extensions>
      </trkpt>
      <trkpt lat="36.81895748712122440338134765625" lon="-118.39981066994369029998779296875">
        <ele>3374.800048828125</ele>
        <time>2021-06-27T14:43:08.000Z</time>
        <extensions>
          <ns3:TrackPointExtension>
            <ns3:atemp>21.0</ns3:atemp>
            <ns3:hr>117</ns3:hr>
          </ns3:TrackPointExtension>
        </extensions>
      </trkpt>
      <trkpt lat="36.81897190399467945098876953125" lon="-118.39979994110763072967529296875">
        <ele>3375</ele>
        <time>2021-06-27T14:43:10.000Z</time>
        <extensions>
          <ns3:TrackPointExtension>
            <ns3:atemp>21.0</ns3:atemp>
            <ns3:hr>115</ns3:hr>
          </ns3:TrackPointExtension>
        </extensions>
      </trkpt>
      <trkpt lat="36.8189803697168827056884765625" lon="-118.3997938223183155059814453125">
        <ele>3375.199951171875</ele>
        <time>2021-06-27T14:43:11.000Z</time>
        <extensions>
          <ns3:TrackPointExtension>
            <ns3:atemp>21.0</ns3:atemp>
            <ns3:hr>116</ns3:hr>
          </ns3:TrackPointExtension>
        </extensions>
      </trkpt>
      <trkpt lat="36.81899855844676494598388671875" lon="-118.39977278374135494232177734375">
        <ele>3376.199951171875</ele>
        <time>2021-06-27T14:43:16.000Z</time>
        <extensions>
          <ns3:TrackPointExtension>
            <ns3:atemp>21.0</ns3:atemp>
            <ns3:hr>117</ns3:hr>
          </ns3:TrackPointExtension>
        </extensions>
      </trkpt>
      <trkpt lat="36.819008029997348785400390625" lon="-118.39976591058075428009033203125">
        <ele>3376.39990234375</ele>
        <time>2021-06-27T14:43:18.000Z</time>
        <extensions>
          <ns3:TrackPointExtension>
            <ns3:atemp>21.0</ns3:atemp>
            <ns3:hr>116</ns3:hr>
          </ns3:TrackPointExtension>
        </extensions>
      </trkpt>
      <trkpt lat="36.81902579963207244873046875" lon="-118.39975300244987010955810546875">
        <ele>3377.39990234375</ele>
        <time>2021-06-27T14:43:23.000Z</time>
        <extensions>
          <ns3:TrackPointExtension>
            <ns3:atemp>21.0</ns3:atemp>
            <ns3:hr>117</ns3:hr>
          </ns3:TrackPointExtension>
        </extensions>
      </trkpt>
      <trkpt lat="36.81904499419033527374267578125" lon="-118.39974470436573028564453125">
        <ele>3378</ele>
        <time>2021-06-27T14:43:27.000Z</time>
        <extensions>
          <ns3:TrackPointExtension>
            <ns3:atemp>21.0</ns3:atemp>
            <ns3:hr>119</ns3:hr>
          </ns3:TrackPointExtension>
        </extensions>
      </trkpt>
      <trkpt lat="36.8190554715692996978759765625" lon="-118.39974068105220794677734375">
        <ele>3378.800048828125</ele>
        <time>2021-06-27T14:43:29.000Z</time>
        <extensions>
          <ns3:TrackPointExtension>
            <ns3:atemp>21.0</ns3:atemp>
            <ns3:hr>120</ns3:hr>
          </ns3:TrackPointExtension>
        </extensions>
      </trkpt>
      <trkpt lat="36.81910065002739429473876953125" lon="-118.39972416870296001434326171875">
        <ele>3379.60009765625</ele>
        <time>2021-06-27T14:43:39.000Z</time>
        <extensions>
          <ns3:TrackPointExtension>
            <ns3:atemp>21.0</ns3:atemp>
            <ns3:hr>118</ns3:hr>
          </ns3:TrackPointExtension>
        </extensions>
      </trkpt>
      <trkpt lat="36.81910065002739429473876953125" lon="-118.3997197262942790985107421875">
        <ele>3379.800048828125</ele>
        <time>2021-06-27T14:43:40.000Z</time>
        <extensions>
          <ns3:TrackPointExtension>
            <ns3:atemp>21.0</ns3:atemp>
            <ns3:hr>120</ns3:hr>
          </ns3:TrackPointExtension>
        </extensions>
      </trkpt>
      <trkpt lat="36.81912378408014774322509765625" lon="-118.39969374239444732666015625">
        <ele>3380.800048828125</ele>
        <time>2021-06-27T14:43:46.000Z</time>
        <extensions>
          <ns3:TrackPointExtension>
            <ns3:atemp>21.0</ns3:atemp>
            <ns3:hr>119</ns3:hr>
          </ns3:TrackPointExtension>
        </extensions>
      </trkpt>
      <trkpt lat="36.8191315792500972747802734375" lon="-118.3996697701513767242431640625">
        <ele>3381.60009765625</ele>
        <time>2021-06-27T14:43:49.000Z</time>
        <extensions>
          <ns3:TrackPointExtension>
            <ns3:atemp>21.0</ns3:atemp>
            <ns3:hr>116</ns3:hr>
          </ns3:TrackPointExtension>
        </extensions>
      </trkpt>
      <trkpt lat="36.81913845241069793701171875" lon="-118.3996506594121456146240234375">
        <ele>3382.39990234375</ele>
        <time>2021-06-27T14:43:53.000Z</time>
        <extensions>
          <ns3:TrackPointExtension>
            <ns3:atemp>21.0</ns3:atemp>
            <ns3:hr>113</ns3:hr>
          </ns3:TrackPointExtension>
        </extensions>
      </trkpt>
      <trkpt lat="36.81914088316261768341064453125" lon="-118.399623334407806396484375">
        <ele>3382.800048828125</ele>
        <time>2021-06-27T14:43:57.000Z</time>
        <extensions>
          <ns3:TrackPointExtension>
            <ns3:atemp>21.0</ns3:atemp>
            <ns3:hr>112</ns3:hr>
          </ns3:TrackPointExtension>
        </extensions>
      </trkpt>
      <trkpt lat="36.81914524175226688385009765625" lon="-118.39959944598376750946044921875">
        <ele>3383.60009765625</ele>
        <time>2021-06-27T14:44:02.000Z</time>
        <extensions>
          <ns3:TrackPointExtension>
            <ns3:atemp>21.0</ns3:atemp>
            <ns3:hr>112</ns3:hr>
          </ns3:TrackPointExtension>
        </extensions>
      </trkpt>
      <trkpt lat="36.8191560544073581695556640625" lon="-118.39959307573735713958740234375">
        <ele>3384.199951171875</ele>
        <time>2021-06-27T14:44:06.000Z</time>
        <extensions>
          <ns3:TrackPointExtension>
            <ns3:atemp>21.0</ns3:atemp>
            <ns3:hr>112</ns3:hr>
          </ns3:TrackPointExtension>
        </extensions>
      </trkpt>
      <trkpt lat="36.81916837580502033233642578125" lon="-118.39957614429295063018798828125">
        <ele>3384.800048828125</ele>
        <time>2021-06-27T14:44:09.000Z</time>
        <extensions>
          <ns3:TrackPointExtension>
            <ns3:atemp>21.0</ns3:atemp>
            <ns3:hr>114</ns3:hr>
          </ns3:TrackPointExtension>
        </extensions>
      </trkpt>
      <trkpt lat="36.8191791884601116180419921875" lon="-118.39954948984086513519287109375">
        <ele>3386</ele>
        <time>2021-06-27T14:44:16.000Z</time>
        <extensions>
          <ns3:TrackPointExtension>
            <ns3:atemp>21.0</ns3:atemp>
            <ns3:hr>115</ns3:hr>
          </ns3:TrackPointExtension>
        </extensions>
      </trkpt>
      <trkpt lat="36.8191818706691265106201171875" lon="-118.39954555034637451171875">
        <ele>3386</ele>
        <time>2021-06-27T14:44:17.000Z</time>
        <extensions>
          <ns3:TrackPointExtension>
            <ns3:atemp>21.0</ns3:atemp>
            <ns3:hr>115</ns3:hr>
          </ns3:TrackPointExtension>
        </extensions>
      </trkpt>
      <trkpt lat="36.81919922120869159698486328125" lon="-118.3995396830141544342041015625">
        <ele>3387</ele>
        <time>2021-06-27T14:44:23.000Z</time>
        <extensions>
          <ns3:TrackPointExtension>
            <ns3:atemp>21.0</ns3:atemp>
            <ns3:hr>117</ns3:hr>
          </ns3:TrackPointExtension>
        </extensions>
      </trkpt>
      <trkpt lat="36.819215230643749237060546875" lon="-118.3995316363871097564697265625">
        <ele>3388</ele>
        <time>2021-06-27T14:44:28.000Z</time>
        <extensions>
          <ns3:TrackPointExtension>
            <ns3:atemp>21.0</ns3:atemp>
            <ns3:hr>118</ns3:hr>
          </ns3:TrackPointExtension>
        </extensions>
      </trkpt>
      <trkpt lat="36.81921757757663726806640625" lon="-118.3995309658348560333251953125">
        <ele>3388</ele>
        <time>2021-06-27T14:44:29.000Z</time>
        <extensions>
          <ns3:TrackPointExtension>
            <ns3:atemp>21.0</ns3:atemp>
            <ns3:hr>118</ns3:hr>
          </ns3:TrackPointExtension>
        </extensions>
      </trkpt>
      <trkpt lat="36.8192388676106929779052734375" lon="-118.3995131962001323699951171875">
        <ele>3389.199951171875</ele>
        <time>2021-06-27T14:44:37.000Z</time>
        <extensions>
          <ns3:TrackPointExtension>
            <ns3:atemp>21.0</ns3:atemp>
            <ns3:hr>119</ns3:hr>
          </ns3:TrackPointExtension>
        </extensions>
      </trkpt>
      <trkpt lat="36.81925403885543346405029296875" lon="-118.39950204826891422271728515625">
        <ele>3389.800048828125</ele>
        <time>2021-06-27T14:44:43.000Z</time>
        <extensions>
          <ns3:TrackPointExtension>
            <ns3:atemp>21.0</ns3:atemp>
            <ns3:hr>119</ns3:hr>
          </ns3:TrackPointExtension>
        </extensions>
      </trkpt>
      <trkpt lat="36.8192665278911590576171875" lon="-118.39949215762317180633544921875">
        <ele>3390.39990234375</ele>
        <time>2021-06-27T14:44:46.000Z</time>
        <extensions>
          <ns3:TrackPointExtension>
            <ns3:atemp>21.0</ns3:atemp>
            <ns3:hr>119</ns3:hr>
          </ns3:TrackPointExtension>
        </extensions>
      </trkpt>
      <trkpt lat="36.81928337551653385162353515625" lon="-118.39946382679045200347900390625">
        <ele>3391.39990234375</ele>
        <time>2021-06-27T14:44:53.000Z</time>
        <extensions>
          <ns3:TrackPointExtension>
            <ns3:atemp>21.0</ns3:atemp>
            <ns3:hr>120</ns3:hr>
          </ns3:TrackPointExtension>
        </extensions>
      </trkpt>
      <trkpt lat="36.81931556202471256256103515625" lon="-118.3994340710341930389404296875">
        <ele>3392.39990234375</ele>
        <time>2021-06-27T14:45:01.000Z</time>
        <extensions>
          <ns3:TrackPointExtension>
            <ns3:atemp>21.0</ns3:atemp>
            <ns3:hr>119</ns3:hr>
          </ns3:TrackPointExtension>
        </extensions>
      </trkpt>
      <trkpt lat="36.81932092644274234771728515625" lon="-118.3994114398956298828125">
        <ele>3392.60009765625</ele>
        <time>2021-06-27T14:45:05.000Z</time>
        <extensions>
          <ns3:TrackPointExtension>
            <ns3:atemp>21.0</ns3:atemp>
            <ns3:hr>119</ns3:hr>
          </ns3:TrackPointExtension>
        </extensions>
      </trkpt>
      <trkpt lat="36.81932763196527957916259765625" lon="-118.3993981964886188507080078125">
        <ele>3393</ele>
        <time>2021-06-27T14:45:08.000Z</time>
        <extensions>
          <ns3:TrackPointExtension>
            <ns3:atemp>21.0</ns3:atemp>
            <ns3:hr>119</ns3:hr>
          </ns3:TrackPointExtension>
        </extensions>
      </trkpt>
      <trkpt lat="36.81934020482003688812255859375" lon="-118.39938134886324405670166015625">
        <ele>3393.800048828125</ele>
        <time>2021-06-27T14:45:12.000Z</time>
        <extensions>
          <ns3:TrackPointExtension>
            <ns3:atemp>21.0</ns3:atemp>
            <ns3:hr>120</ns3:hr>
          </ns3:TrackPointExtension>
        </extensions>
      </trkpt>
      <trkpt lat="36.81934322230517864227294921875" lon="-118.3993690274655818939208984375">
        <ele>3394</ele>
        <time>2021-06-27T14:45:14.000Z</time>
        <extensions>
          <ns3:TrackPointExtension>
            <ns3:atemp>21.0</ns3:atemp>
            <ns3:hr>117</ns3:hr>
          </ns3:TrackPointExtension>
        </extensions>
      </trkpt>
      <trkpt lat="36.8193471617996692657470703125" lon="-118.3993618190288543701171875">
        <ele>3394.39990234375</ele>
        <time>2021-06-27T14:45:17.000Z</time>
        <extensions>
          <ns3:TrackPointExtension>
            <ns3:atemp>21.0</ns3:atemp>
            <ns3:hr>119</ns3:hr>
          </ns3:TrackPointExtension>
        </extensions>
      </trkpt>
      <trkpt lat="36.81937440298497676849365234375" lon="-118.39936827309429645538330078125">
        <ele>3394.800048828125</ele>
        <time>2021-06-27T14:45:23.000Z</time>
        <extensions>
          <ns3:TrackPointExtension>
            <ns3:atemp>21.0</ns3:atemp>
            <ns3:hr>118</ns3:hr>
          </ns3:TrackPointExtension>
        </extensions>
      </trkpt>
      <trkpt lat="36.819388233125209808349609375" lon="-118.3993841148912906646728515625">
        <ele>3395.39990234375</ele>
        <time>2021-06-27T14:45:26.000Z</time>
        <extensions>
          <ns3:TrackPointExtension>
            <ns3:atemp>21.0</ns3:atemp>
            <ns3:hr>116</ns3:hr>
          </ns3:TrackPointExtension>
        </extensions>
      </trkpt>
      <trkpt lat="36.81942637078464031219482421875" lon="-118.39938235469162464141845703125">
        <ele>3396</ele>
        <time>2021-06-27T14:45:33.000Z</time>
        <extensions>
          <ns3:TrackPointExtension>
            <ns3:atemp>21.0</ns3:atemp>
            <ns3:hr>114</ns3:hr>
          </ns3:TrackPointExtension>
        </extensions>
      </trkpt>
      <trkpt lat="36.8194370158016681671142578125" lon="-118.39939090423285961151123046875">
        <ele>3396.39990234375</ele>
        <time>2021-06-27T14:45:35.000Z</time>
        <extensions>
          <ns3:TrackPointExtension>
            <ns3:atemp>21.0</ns3:atemp>
            <ns3:hr>114</ns3:hr>
          </ns3:TrackPointExtension>
        </extensions>
      </trkpt>
      <trkpt lat="36.8194504268467426300048828125" lon="-118.39939157478511333465576171875">
        <ele>3396.800048828125</ele>
        <time>2021-06-27T14:45:42.000Z</time>
        <extensions>
          <ns3:TrackPointExtension>
            <ns3:atemp>21.0</ns3:atemp>
            <ns3:hr>114</ns3:hr>
          </ns3:TrackPointExtension>
        </extensions>
      </trkpt>
      <trkpt lat="36.81946744211018085479736328125" lon="-118.39937665499746799468994140625">
        <ele>3397.199951171875</ele>
        <time>2021-06-27T14:45:46.000Z</time>
        <extensions>
          <ns3:TrackPointExtension>
            <ns3:atemp>21.0</ns3:atemp>
            <ns3:hr>115</ns3:hr>
          </ns3:TrackPointExtension>
        </extensions>
      </trkpt>
      <trkpt lat="36.819482110440731048583984375" lon="-118.39936592616140842437744140625">
        <ele>3398</ele>
        <time>2021-06-27T14:45:50.000Z</time>
        <extensions>
          <ns3:TrackPointExtension>
            <ns3:atemp>21.0</ns3:atemp>
            <ns3:hr>115</ns3:hr>
          </ns3:TrackPointExtension>
        </extensions>
      </trkpt>
      <trkpt lat="36.81948672048747539520263671875" lon="-118.39936676435172557830810546875">
        <ele>3398.199951171875</ele>
        <time>2021-06-27T14:45:51.000Z</time>
        <extensions>
          <ns3:TrackPointExtension>
            <ns3:atemp>21.0</ns3:atemp>
            <ns3:hr>115</ns3:hr>
          </ns3:TrackPointExtension>
        </extensions>
      </trkpt>
      <trkpt lat="36.81951555423438549041748046875" lon="-118.39936919510364532470703125">
        <ele>3399.39990234375</ele>
        <time>2021-06-27T14:45:58.000Z</time>
        <extensions>
          <ns3:TrackPointExtension>
            <ns3:atemp>21.0</ns3:atemp>
            <ns3:hr>113</ns3:hr>
          </ns3:TrackPointExtension>
        </extensions>
      </trkpt>
      <trkpt lat="36.81952762417495250701904296875" lon="-118.39937095530331134796142578125">
        <ele>3399.60009765625</ele>
        <time>2021-06-27T14:46:00.000Z</time>
        <extensions>
          <ns3:TrackPointExtension>
            <ns3:atemp>21.0</ns3:atemp>
            <ns3:hr>114</ns3:hr>
          </ns3:TrackPointExtension>
        </extensions>
      </trkpt>
      <trkpt lat="36.81955545209348201751708984375" lon="-118.39936290867626667022705078125">
        <ele>3400.60009765625</ele>
        <time>2021-06-27T14:46:06.000Z</time>
        <extensions>
          <ns3:TrackPointExtension>
            <ns3:atemp>21.0</ns3:atemp>
            <ns3:hr>115</ns3:hr>
          </ns3:TrackPointExtension>
        </extensions>
      </trkpt>
      <trkpt lat="36.81957087479531764984130859375" lon="-118.3993645012378692626953125">
        <ele>3400.800048828125</ele>
        <time>2021-06-27T14:46:09.000Z</time>
        <extensions>
          <ns3:TrackPointExtension>
            <ns3:atemp>21.0</ns3:atemp>
            <ns3:hr>113</ns3:hr>
          </ns3:TrackPointExtension>
        </extensions>
      </trkpt>
      <trkpt lat="36.81958260945975780487060546875" lon="-118.39934145100414752960205078125">
        <ele>3401.60009765625</ele>
        <time>2021-06-27T14:46:14.000Z</time>
        <extensions>
          <ns3:TrackPointExtension>
            <ns3:atemp>21.0</ns3:atemp>
            <ns3:hr>114</ns3:hr>
          </ns3:TrackPointExtension>
        </extensions>
      </trkpt>
      <trkpt lat="36.81957975961267948150634765625" lon="-118.39932519011199474334716796875">
        <ele>3401.60009765625</ele>
        <time>2021-06-27T14:46:16.000Z</time>
        <extensions>
          <ns3:TrackPointExtension>
            <ns3:atemp>21.0</ns3:atemp>
            <ns3:hr>116</ns3:hr>
          </ns3:TrackPointExtension>
        </extensions>
      </trkpt>
      <trkpt lat="36.8195624090731143951416015625" lon="-118.39931689202785491943359375">
        <ele>3402.199951171875</ele>
        <time>2021-06-27T14:46:23.000Z</time>
        <extensions>
          <ns3:TrackPointExtension>
            <ns3:atemp>21.0</ns3:atemp>
            <ns3:hr>114</ns3:hr>
          </ns3:TrackPointExtension>
        </extensions>
      </trkpt>
      <trkpt lat="36.8195624090731143951416015625" lon="-118.39931689202785491943359375">
        <ele>3402</ele>
        <time>2021-06-27T14:46:30.000Z</time>
        <extensions>
          <ns3:TrackPointExtension>
            <ns3:atemp>21.0</ns3:atemp>
            <ns3:hr>111</ns3:hr>
          </ns3:TrackPointExtension>
        </extensions>
      </trkpt>
      <trkpt lat="36.81956299580633640289306640625" lon="-118.39931689202785491943359375">
        <ele>3402.60009765625</ele>
        <time>2021-06-27T14:46:34.000Z</time>
        <extensions>
          <ns3:TrackPointExtension>
            <ns3:atemp>21.0</ns3:atemp>
            <ns3:hr>113</ns3:hr>
          </ns3:TrackPointExtension>
        </extensions>
      </trkpt>
      <trkpt lat="36.8195687793195247650146484375" lon="-118.3993167243897914886474609375">
        <ele>3403.800048828125</ele>
        <time>2021-06-27T14:46:40.000Z</time>
        <extensions>
          <ns3:TrackPointExtension>
            <ns3:atemp>21.0</ns3:atemp>
            <ns3:hr>112</ns3:hr>
          </ns3:TrackPointExtension>
        </extensions>
      </trkpt>
      <trkpt lat="36.81957305409014225006103515625" lon="-118.399307839572429656982421875">
        <ele>3404.800048828125</ele>
        <time>2021-06-27T14:46:46.000Z</time>
        <extensions>
          <ns3:TrackPointExtension>
            <ns3:atemp>21.0</ns3:atemp>
            <ns3:hr>111</ns3:hr>
          </ns3:TrackPointExtension>
        </extensions>
      </trkpt>
      <trkpt lat="36.819606162607669830322265625" lon="-118.399290405213832855224609375">
        <ele>3406</ele>
        <time>2021-06-27T14:47:00.000Z</time>
        <extensions>
          <ns3:TrackPointExtension>
            <ns3:atemp>21.0</ns3:atemp>
            <ns3:hr>111</ns3:hr>
          </ns3:TrackPointExtension>
        </extensions>
      </trkpt>
      <trkpt lat="36.8196368403732776641845703125" lon="-118.39928847737610340118408203125">
        <ele>3406.800048828125</ele>
        <time>2021-06-27T14:47:07.000Z</time>
        <extensions>
          <ns3:TrackPointExtension>
            <ns3:atemp>21.0</ns3:atemp>
            <ns3:hr>108</ns3:hr>
          </ns3:TrackPointExtension>
        </extensions>
      </trkpt>
      <trkpt lat="36.8196432106196880340576171875" lon="-118.39928847737610340118408203125">
        <ele>3407</ele>
        <time>2021-06-27T14:47:08.000Z</time>
        <extensions>
          <ns3:TrackPointExtension>
            <ns3:atemp>21.0</ns3:atemp>
            <ns3:hr>107</ns3:hr>
          </ns3:TrackPointExtension>
        </extensions>
      </trkpt>
      <trkpt lat="36.81966944597661495208740234375" lon="-118.39928847737610340118408203125">
        <ele>3408.199951171875</ele>
        <time>2021-06-27T14:47:15.000Z</time>
        <extensions>
          <ns3:TrackPointExtension>
            <ns3:atemp>21.0</ns3:atemp>
            <ns3:hr>108</ns3:hr>
          </ns3:TrackPointExtension>
        </extensions>
      </trkpt>
      <trkpt lat="36.8196809291839599609375" lon="-118.39928847737610340118408203125">
        <ele>3408.60009765625</ele>
        <time>2021-06-27T14:47:18.000Z</time>
        <extensions>
          <ns3:TrackPointExtension>
            <ns3:atemp>21.0</ns3:atemp>
            <ns3:hr>111</ns3:hr>
          </ns3:TrackPointExtension>
        </extensions>
      </trkpt>
      <trkpt lat="36.81968688033521175384521484375" lon="-118.39928311295807361602783203125">
        <ele>3409</ele>
        <time>2021-06-27T14:47:20.000Z</time>
        <extensions>
          <ns3:TrackPointExtension>
            <ns3:atemp>21.0</ns3:atemp>
            <ns3:hr>116</ns3:hr>
          </ns3:TrackPointExtension>
        </extensions>
      </trkpt>
      <trkpt lat="36.81968755088746547698974609375" lon="-118.39927556924521923065185546875">
        <ele>3409</ele>
        <time>2021-06-27T14:47:22.000Z</time>
        <extensions>
          <ns3:TrackPointExtension>
            <ns3:atemp>21.0</ns3:atemp>
            <ns3:hr>119</ns3:hr>
          </ns3:TrackPointExtension>
        </extensions>
      </trkpt>
      <trkpt lat="36.81968855671584606170654296875" lon="-118.3992654271423816680908203125">
        <ele>3409.39990234375</ele>
        <time>2021-06-27T14:47:24.000Z</time>
        <extensions>
          <ns3:TrackPointExtension>
            <ns3:atemp>21.0</ns3:atemp>
            <ns3:hr>122</ns3:hr>
          </ns3:TrackPointExtension>
        </extensions>
      </trkpt>
      <trkpt lat="36.81968939490616321563720703125" lon="-118.39925209991633892059326171875">
        <ele>3410</ele>
        <time>2021-06-27T14:47:27.000Z</time>
        <extensions>
          <ns3:TrackPointExtension>
            <ns3:atemp>21.0</ns3:atemp>
            <ns3:hr>125</ns3:hr>
          </ns3:TrackPointExtension>
        </extensions>
      </trkpt>
      <trkpt lat="36.81969610042870044708251953125" lon="-118.399226032197475433349609375">
        <ele>3410.800048828125</ele>
        <time>2021-06-27T14:47:34.000Z</time>
        <extensions>
          <ns3:TrackPointExtension>
            <ns3:atemp>21.0</ns3:atemp>
            <ns3:hr>126</ns3:hr>
          </ns3:TrackPointExtension>
        </extensions>
      </trkpt>
      <trkpt lat="36.819702722132205963134765625" lon="-118.3992131240665912628173828125">
        <ele>3411.39990234375</ele>
        <time>2021-06-27T14:47:39.000Z</time>
        <extensions>
          <ns3:TrackPointExtension>
            <ns3:atemp>21.0</ns3:atemp>
            <ns3:hr>123</ns3:hr>
          </ns3:TrackPointExtension>
        </extensions>
      </trkpt>
      <trkpt lat="36.819703392684459686279296875" lon="-118.39919460006058216094970703125">
        <ele>3411.800048828125</ele>
        <time>2021-06-27T14:47:42.000Z</time>
        <extensions>
          <ns3:TrackPointExtension>
            <ns3:atemp>21.0</ns3:atemp>
            <ns3:hr>122</ns3:hr>
          </ns3:TrackPointExtension>
        </extensions>
      </trkpt>
      <trkpt lat="36.81970699690282344818115234375" lon="-118.39913642965257167816162109375">
        <ele>3413</ele>
        <time>2021-06-27T14:47:52.000Z</time>
        <extensions>
          <ns3:TrackPointExtension>
            <ns3:atemp>21.0</ns3:atemp>
            <ns3:hr>122</ns3:hr>
          </ns3:TrackPointExtension>
        </extensions>
      </trkpt>
      <trkpt lat="36.819715462625026702880859375" lon="-118.39909368194639682769775390625">
        <ele>3414.39990234375</ele>
        <time>2021-06-27T14:48:03.000Z</time>
        <extensions>
          <ns3:TrackPointExtension>
            <ns3:atemp>21.0</ns3:atemp>
            <ns3:hr>119</ns3:hr>
          </ns3:TrackPointExtension>
        </extensions>
      </trkpt>
      <trkpt lat="36.819723509252071380615234375" lon="-118.3990622498095035552978515625">
        <ele>3415.199951171875</ele>
        <time>2021-06-27T14:48:10.000Z</time>
        <extensions>
          <ns3:TrackPointExtension>
            <ns3:atemp>21.0</ns3:atemp>
            <ns3:hr>115</ns3:hr>
          </ns3:TrackPointExtension>
        </extensions>
      </trkpt>
      <trkpt lat="36.8197283707559108734130859375" lon="-118.3990364335477352142333984375">
        <ele>3415.60009765625</ele>
        <time>2021-06-27T14:48:15.000Z</time>
        <extensions>
          <ns3:TrackPointExtension>
            <ns3:atemp>21.0</ns3:atemp>
            <ns3:hr>116</ns3:hr>
          </ns3:TrackPointExtension>
        </extensions>
      </trkpt>
      <trkpt lat="36.81973482482135295867919921875" lon="-118.39901656843721866607666015625">
        <ele>3416.60009765625</ele>
        <time>2021-06-27T14:48:19.000Z</time>
        <extensions>
          <ns3:TrackPointExtension>
            <ns3:atemp>21.0</ns3:atemp>
            <ns3:hr>118</ns3:hr>
          </ns3:TrackPointExtension>
        </extensions>
      </trkpt>
      <trkpt lat="36.81974136270582675933837890625" lon="-118.39901220984756946563720703125">
        <ele>3416.800048828125</ele>
        <time>2021-06-27T14:48:22.000Z</time>
        <extensions>
          <ns3:TrackPointExtension>
            <ns3:atemp>21.0</ns3:atemp>
            <ns3:hr>121</ns3:hr>
          </ns3:TrackPointExtension>
        </extensions>
      </trkpt>
      <trkpt lat="36.81975779123604297637939453125" lon="-118.39900835417211055755615234375">
        <ele>3417.60009765625</ele>
        <time>2021-06-27T14:48:27.000Z</time>
        <extensions>
          <ns3:TrackPointExtension>
            <ns3:atemp>21.0</ns3:atemp>
            <ns3:hr>118</ns3:hr>
          </ns3:TrackPointExtension>
        </extensions>
      </trkpt>
      <trkpt lat="36.8197699449956417083740234375" lon="-118.399004749953746795654296875">
        <ele>3418</ele>
        <time>2021-06-27T14:48:30.000Z</time>
        <extensions>
          <ns3:TrackPointExtension>
            <ns3:atemp>21.0</ns3:atemp>
            <ns3:hr>119</ns3:hr>
          </ns3:TrackPointExtension>
        </extensions>
      </trkpt>
      <trkpt lat="36.81978486478328704833984375" lon="-118.39898966252803802490234375">
        <ele>3419</ele>
        <time>2021-06-27T14:48:35.000Z</time>
        <extensions>
          <ns3:TrackPointExtension>
            <ns3:atemp>21.0</ns3:atemp>
            <ns3:hr>120</ns3:hr>
          </ns3:TrackPointExtension>
        </extensions>
      </trkpt>
      <trkpt lat="36.8197971023619174957275390625" lon="-118.3989807777106761932373046875">
        <ele>3420</ele>
        <time>2021-06-27T14:48:41.000Z</time>
        <extensions>
          <ns3:TrackPointExtension>
            <ns3:atemp>21.0</ns3:atemp>
            <ns3:hr>123</ns3:hr>
          </ns3:TrackPointExtension>
        </extensions>
      </trkpt>
      <trkpt lat="36.81981302797794342041015625" lon="-118.39895186014473438262939453125">
        <ele>3420.800048828125</ele>
        <time>2021-06-27T14:48:48.000Z</time>
        <extensions>
          <ns3:TrackPointExtension>
            <ns3:atemp>21.0</ns3:atemp>
            <ns3:hr>126</ns3:hr>
          </ns3:TrackPointExtension>
        </extensions>
      </trkpt>
      <trkpt lat="36.8198148719966411590576171875" lon="-118.39894666336476802825927734375">
        <ele>3421</ele>
        <time>2021-06-27T14:48:49.000Z</time>
        <extensions>
          <ns3:TrackPointExtension>
            <ns3:atemp>21.0</ns3:atemp>
            <ns3:hr>126</ns3:hr>
          </ns3:TrackPointExtension>
        </extensions>
      </trkpt>
      <trkpt lat="36.819826774299144744873046875" lon="-118.39891514740884304046630859375">
        <ele>3422</ele>
        <time>2021-06-27T14:48:55.000Z</time>
        <extensions>
          <ns3:TrackPointExtension>
            <ns3:atemp>21.0</ns3:atemp>
            <ns3:hr>127</ns3:hr>
          </ns3:TrackPointExtension>
        </extensions>
      </trkpt>
      <trkpt lat="36.819830797612667083740234375" lon="-118.398886732757091522216796875">
        <ele>3423</ele>
        <time>2021-06-27T14:49:00.000Z</time>
        <extensions>
          <ns3:TrackPointExtension>
            <ns3:atemp>21.0</ns3:atemp>
            <ns3:hr>125</ns3:hr>
          </ns3:TrackPointExtension>
        </extensions>
      </trkpt>
      <trkpt lat="36.81983993388712406158447265625" lon="-118.3988476730883121490478515625">
        <ele>3424.39990234375</ele>
        <time>2021-06-27T14:49:09.000Z</time>
        <extensions>
          <ns3:TrackPointExtension>
            <ns3:atemp>21.0</ns3:atemp>
            <ns3:hr>125</ns3:hr>
          </ns3:TrackPointExtension>
        </extensions>
      </trkpt>
      <trkpt lat="36.81985284201800823211669921875" lon="-118.39883082546293735504150390625">
        <ele>3424.800048828125</ele>
        <time>2021-06-27T14:49:14.000Z</time>
        <extensions>
          <ns3:TrackPointExtension>
            <ns3:atemp>21.0</ns3:atemp>
            <ns3:hr>128</ns3:hr>
          </ns3:TrackPointExtension>
        </extensions>
      </trkpt>
      <trkpt lat="36.81986239738762378692626953125" lon="-118.39881204999983310699462890625">
        <ele>3425.39990234375</ele>
        <time>2021-06-27T14:49:19.000Z</time>
        <extensions>
          <ns3:TrackPointExtension>
            <ns3:atemp>21.0</ns3:atemp>
            <ns3:hr>128</ns3:hr>
          </ns3:TrackPointExtension>
        </extensions>
      </trkpt>
      <trkpt lat="36.81986507959663867950439453125" lon="-118.39880500920116901397705078125">
        <ele>3425.60009765625</ele>
        <time>2021-06-27T14:49:21.000Z</time>
        <extensions>
          <ns3:TrackPointExtension>
            <ns3:atemp>21.0</ns3:atemp>
            <ns3:hr>124</ns3:hr>
          </ns3:TrackPointExtension>
        </extensions>
      </trkpt>
      <trkpt lat="36.8198698572814464569091796875" lon="-118.3987963758409023284912109375">
        <ele>3426</ele>
        <time>2021-06-27T14:49:24.000Z</time>
        <extensions>
          <ns3:TrackPointExtension>
            <ns3:atemp>21.0</ns3:atemp>
            <ns3:hr>121</ns3:hr>
          </ns3:TrackPointExtension>
        </extensions>
      </trkpt>
      <trkpt lat="36.8198795802891254425048828125" lon="-118.398784808814525604248046875">
        <ele>3426.60009765625</ele>
        <time>2021-06-27T14:49:29.000Z</time>
        <extensions>
          <ns3:TrackPointExtension>
            <ns3:atemp>21.0</ns3:atemp>
            <ns3:hr>122</ns3:hr>
          </ns3:TrackPointExtension>
        </extensions>
      </trkpt>
      <trkpt lat="36.8198888003826141357421875" lon="-118.39877265505492687225341796875">
        <ele>3427.199951171875</ele>
        <time>2021-06-27T14:49:35.000Z</time>
        <extensions>
          <ns3:TrackPointExtension>
            <ns3:atemp>21.0</ns3:atemp>
            <ns3:hr>119</ns3:hr>
          </ns3:TrackPointExtension>
        </extensions>
      </trkpt>
      <trkpt lat="36.8198899738490581512451171875" lon="-118.3987712301313877105712890625">
        <ele>3427.60009765625</ele>
        <time>2021-06-27T14:49:36.000Z</time>
        <extensions>
          <ns3:TrackPointExtension>
            <ns3:atemp>21.0</ns3:atemp>
            <ns3:hr>119</ns3:hr>
          </ns3:TrackPointExtension>
        </extensions>
      </trkpt>
      <trkpt lat="36.81989349424839019775390625" lon="-118.39876703917980194091796875">
        <ele>3427.60009765625</ele>
        <time>2021-06-27T14:49:40.000Z</time>
        <extensions>
          <ns3:TrackPointExtension>
            <ns3:atemp>21.0</ns3:atemp>
            <ns3:hr>122</ns3:hr>
          </ns3:TrackPointExtension>
        </extensions>
      </trkpt>
      <trkpt lat="36.81989483535289764404296875" lon="-118.39876561425626277923583984375">
        <ele>3427.800048828125</ele>
        <time>2021-06-27T14:49:47.000Z</time>
        <extensions>
          <ns3:TrackPointExtension>
            <ns3:atemp>22.0</ns3:atemp>
            <ns3:hr>123</ns3:hr>
          </ns3:TrackPointExtension>
        </extensions>
      </trkpt>
      <trkpt lat="36.81989617645740509033203125" lon="-118.39876427315175533294677734375">
        <ele>3428</ele>
        <time>2021-06-27T14:49:57.000Z</time>
        <extensions>
          <ns3:TrackPointExtension>
            <ns3:atemp>22.0</ns3:atemp>
            <ns3:hr>120</ns3:hr>
          </ns3:TrackPointExtension>
        </extensions>
      </trkpt>
      <trkpt lat="36.81989810429513454437255859375" lon="-118.39876234531402587890625">
        <ele>3427.60009765625</ele>
        <time>2021-06-27T14:50:11.000Z</time>
        <extensions>
          <ns3:TrackPointExtension>
            <ns3:atemp>22.0</ns3:atemp>
            <ns3:hr>117</ns3:hr>
          </ns3:TrackPointExtension>
        </extensions>
      </trkpt>
      <trkpt lat="36.81989877484738826751708984375" lon="-118.39876167476177215576171875">
        <ele>3427.60009765625</ele>
        <time>2021-06-27T14:50:16.000Z</time>
        <extensions>
          <ns3:TrackPointExtension>
            <ns3:atemp>22.0</ns3:atemp>
            <ns3:hr>120</ns3:hr>
          </ns3:TrackPointExtension>
        </extensions>
      </trkpt>
      <trkpt lat="36.8198996968567371368408203125" lon="-118.3987608365714550018310546875">
        <ele>3427.199951171875</ele>
        <time>2021-06-27T14:50:23.000Z</time>
        <extensions>
          <ns3:TrackPointExtension>
            <ns3:atemp>22.0</ns3:atemp>
            <ns3:hr>117</ns3:hr>
          </ns3:TrackPointExtension>
        </extensions>
      </trkpt>
      <trkpt lat="36.81990019977092742919921875" lon="-118.39876033365726470947265625">
        <ele>3427.800048828125</ele>
        <time>2021-06-27T14:50:27.000Z</time>
        <extensions>
          <ns3:TrackPointExtension>
            <ns3:atemp>22.0</ns3:atemp>
            <ns3:hr>113</ns3:hr>
          </ns3:TrackPointExtension>
        </extensions>
      </trkpt>
      <trkpt lat="36.8199003674089908599853515625" lon="-118.39876024983823299407958984375">
        <ele>3427.800048828125</ele>
        <time>2021-06-27T14:50:28.000Z</time>
        <extensions>
          <ns3:TrackPointExtension>
            <ns3:atemp>22.0</ns3:atemp>
            <ns3:hr>116</ns3:hr>
          </ns3:TrackPointExtension>
        </extensions>
      </trkpt>
      <trkpt lat="36.81990145705640316009521484375" lon="-118.398759327828884124755859375">
        <ele>3427.60009765625</ele>
        <time>2021-06-27T14:50:37.000Z</time>
        <extensions>
          <ns3:TrackPointExtension>
            <ns3:atemp>22.0</ns3:atemp>
            <ns3:hr>119</ns3:hr>
          </ns3:TrackPointExtension>
        </extensions>
      </trkpt>
      <trkpt lat="36.819901876151561737060546875" lon="-118.39875890873372554779052734375">
        <ele>3427.60009765625</ele>
        <time>2021-06-27T14:50:41.000Z</time>
        <extensions>
          <ns3:TrackPointExtension>
            <ns3:atemp>22.0</ns3:atemp>
            <ns3:hr>115</ns3:hr>
          </ns3:TrackPointExtension>
        </extensions>
      </trkpt>
      <trkpt lat="36.81990212760865688323974609375" lon="-118.39875874109566211700439453125">
        <ele>3427.60009765625</ele>
        <time>2021-06-27T14:50:43.000Z</time>
        <extensions>
          <ns3:TrackPointExtension>
            <ns3:atemp>22.0</ns3:atemp>
            <ns3:hr>112</ns3:hr>
          </ns3:TrackPointExtension>
        </extensions>
      </trkpt>
      <trkpt lat="36.819903217256069183349609375" lon="-118.39875773526728153228759765625">
        <ele>3427.60009765625</ele>
        <time>2021-06-27T14:50:53.000Z</time>
        <extensions>
          <ns3:TrackPointExtension>
            <ns3:atemp>22.0</ns3:atemp>
            <ns3:hr>109</ns3:hr>
          </ns3:TrackPointExtension>
        </extensions>
      </trkpt>
      <trkpt lat="36.819903887808322906494140625" lon="-118.39875706471502780914306640625">
        <ele>3427.60009765625</ele>
        <time>2021-06-27T14:50:59.000Z</time>
        <extensions>
          <ns3:TrackPointExtension>
            <ns3:atemp>22.0</ns3:atemp>
            <ns3:hr>105</ns3:hr>
          </ns3:TrackPointExtension>
        </extensions>
      </trkpt>
      <trkpt lat="36.81990413926541805267333984375" lon="-118.39875689707696437835693359375">
        <ele>3427.60009765625</ele>
        <time>2021-06-27T14:51:01.000Z</time>
        <extensions>
          <ns3:TrackPointExtension>
            <ns3:atemp>22.0</ns3:atemp>
            <ns3:hr>100</ns3:hr>
          </ns3:TrackPointExtension>
        </extensions>
      </trkpt>
      <trkpt lat="36.8199048936367034912109375" lon="-118.3987561427056789398193359375">
        <ele>3427.60009765625</ele>
        <time>2021-06-27T14:51:08.000Z</time>
        <extensions>
          <ns3:TrackPointExtension>
            <ns3:atemp>22.0</ns3:atemp>
            <ns3:hr>97</ns3:hr>
          </ns3:TrackPointExtension>
        </extensions>
      </trkpt>
      <trkpt lat="36.81990598328411579132080078125" lon="-118.39875522069633007049560546875">
        <ele>3427.60009765625</ele>
        <time>2021-06-27T14:51:17.000Z</time>
        <extensions>
          <ns3:TrackPointExtension>
            <ns3:atemp>22.0</ns3:atemp>
            <ns3:hr>100</ns3:hr>
          </ns3:TrackPointExtension>
        </extensions>
      </trkpt>
      <trkpt lat="36.8199064023792743682861328125" lon="-118.39875488542020320892333984375">
        <ele>3427.60009765625</ele>
        <time>2021-06-27T14:51:21.000Z</time>
        <extensions>
          <ns3:TrackPointExtension>
            <ns3:atemp>22.0</ns3:atemp>
            <ns3:hr>104</ns3:hr>
          </ns3:TrackPointExtension>
        </extensions>
      </trkpt>
      <trkpt lat="36.819906570017337799072265625" lon="-118.39875471778213977813720703125">
        <ele>3427.60009765625</ele>
        <time>2021-06-27T14:51:22.000Z</time>
        <extensions>
          <ns3:TrackPointExtension>
            <ns3:atemp>22.0</ns3:atemp>
            <ns3:hr>101</ns3:hr>
          </ns3:TrackPointExtension>
        </extensions>
      </trkpt>
      <trkpt lat="36.81990665383636951446533203125" lon="-118.398754633963108062744140625">
        <ele>3427.60009765625</ele>
        <time>2021-06-27T14:51:23.000Z</time>
        <extensions>
          <ns3:TrackPointExtension>
            <ns3:atemp>22.0</ns3:atemp>
            <ns3:hr>104</ns3:hr>
          </ns3:TrackPointExtension>
        </extensions>
      </trkpt>
      <trkpt lat="36.819907240569591522216796875" lon="-118.39875421486794948577880859375">
        <ele>3427.60009765625</ele>
        <time>2021-06-27T14:51:27.000Z</time>
        <extensions>
          <ns3:TrackPointExtension>
            <ns3:atemp>22.0</ns3:atemp>
            <ns3:hr>107</ns3:hr>
          </ns3:TrackPointExtension>
        </extensions>
      </trkpt>
      <trkpt lat="36.8199080787599086761474609375" lon="-118.39875362813472747802734375">
        <ele>3427.60009765625</ele>
        <time>2021-06-27T14:51:32.000Z</time>
        <extensions>
          <ns3:TrackPointExtension>
            <ns3:atemp>22.0</ns3:atemp>
            <ns3:hr>104</ns3:hr>
          </ns3:TrackPointExtension>
        </extensions>
      </trkpt>
      <trkpt lat="36.81990967132151126861572265625" lon="-118.39875220321118831634521484375">
        <ele>3432.800048828125</ele>
        <time>2021-06-27T14:51:40.000Z</time>
        <extensions>
          <ns3:TrackPointExtension>
            <ns3:atemp>22.0</ns3:atemp>
            <ns3:hr>105</ns3:hr>
          </ns3:TrackPointExtension>
        </extensions>
      </trkpt>
      <trkpt lat="36.8199107609689235687255859375" lon="-118.39875119738280773162841796875">
        <ele>3433</ele>
        <time>2021-06-27T14:51:45.000Z</time>
        <extensions>
          <ns3:TrackPointExtension>
            <ns3:atemp>22.0</ns3:atemp>
            <ns3:hr>108</ns3:hr>
          </ns3:TrackPointExtension>
        </extensions>
      </trkpt>
      <trkpt lat="36.8199129402637481689453125" lon="-118.39874901808798313140869140625">
        <ele>3433.800048828125</ele>
        <time>2021-06-27T14:51:54.000Z</time>
        <extensions>
          <ns3:TrackPointExtension>
            <ns3:atemp>22.0</ns3:atemp>
            <ns3:hr>107</ns3:hr>
          </ns3:TrackPointExtension>
        </extensions>
      </trkpt>
      <trkpt lat="36.8199137784540653228759765625" lon="-118.3987480960786342620849609375">
        <ele>3434.60009765625</ele>
        <time>2021-06-27T14:51:57.000Z</time>
        <extensions>
          <ns3:TrackPointExtension>
            <ns3:atemp>22.0</ns3:atemp>
            <ns3:hr>110</ns3:hr>
          </ns3:TrackPointExtension>
        </extensions>
      </trkpt>
      <trkpt lat="36.819914281368255615234375" lon="-118.39874750934541225433349609375">
        <ele>3434.800048828125</ele>
        <time>2021-06-27T14:51:59.000Z</time>
        <extensions>
          <ns3:TrackPointExtension>
            <ns3:atemp>22.0</ns3:atemp>
            <ns3:hr>111</ns3:hr>
          </ns3:TrackPointExtension>
        </extensions>
      </trkpt>
      <trkpt lat="36.81991620920598506927490234375" lon="-118.39874499477446079254150390625">
        <ele>3435.39990234375</ele>
        <time>2021-06-27T14:52:06.000Z</time>
        <extensions>
          <ns3:TrackPointExtension>
            <ns3:atemp>22.0</ns3:atemp>
            <ns3:hr>114</ns3:hr>
          </ns3:TrackPointExtension>
        </extensions>
      </trkpt>
      <trkpt lat="36.81991671212017536163330078125" lon="-118.39874424040317535400390625">
        <ele>3436.199951171875</ele>
        <time>2021-06-27T14:52:08.000Z</time>
        <extensions>
          <ns3:TrackPointExtension>
            <ns3:atemp>22.0</ns3:atemp>
            <ns3:hr>115</ns3:hr>
          </ns3:TrackPointExtension>
        </extensions>
      </trkpt>
      <trkpt lat="36.8199169635772705078125" lon="-118.39874382130801677703857421875">
        <ele>3436.39990234375</ele>
        <time>2021-06-27T14:52:09.000Z</time>
        <extensions>
          <ns3:TrackPointExtension>
            <ns3:atemp>22.0</ns3:atemp>
            <ns3:hr>118</ns3:hr>
          </ns3:TrackPointExtension>
        </extensions>
      </trkpt>
      <trkpt lat="36.8199191428720951080322265625" lon="-118.39874030090868473052978515625">
        <ele>3437.199951171875</ele>
        <time>2021-06-27T14:52:17.000Z</time>
        <extensions>
          <ns3:TrackPointExtension>
            <ns3:atemp>22.0</ns3:atemp>
            <ns3:hr>118</ns3:hr>
          </ns3:TrackPointExtension>
        </extensions>
      </trkpt>
      <trkpt lat="36.81992140598595142364501953125" lon="-118.3987363614141941070556640625">
        <ele>3438.60009765625</ele>
        <time>2021-06-27T14:52:25.000Z</time>
        <extensions>
          <ns3:TrackPointExtension>
            <ns3:atemp>22.0</ns3:atemp>
            <ns3:hr>119</ns3:hr>
          </ns3:TrackPointExtension>
        </extensions>
      </trkpt>
      <trkpt lat="36.81992291472852230072021484375" lon="-118.3987336792051792144775390625">
        <ele>3439.199951171875</ele>
        <time>2021-06-27T14:52:30.000Z</time>
        <extensions>
          <ns3:TrackPointExtension>
            <ns3:atemp>22.0</ns3:atemp>
            <ns3:hr>122</ns3:hr>
          </ns3:TrackPointExtension>
        </extensions>
      </trkpt>
      <trkpt lat="36.8199238367378711700439453125" lon="-118.3987320028245449066162109375">
        <ele>3439.60009765625</ele>
        <time>2021-06-27T14:52:33.000Z</time>
        <extensions>
          <ns3:TrackPointExtension>
            <ns3:atemp>22.0</ns3:atemp>
            <ns3:hr>125</ns3:hr>
          </ns3:TrackPointExtension>
        </extensions>
      </trkpt>
      <trkpt lat="36.81992442347109317779541015625" lon="-118.39873082935810089111328125">
        <ele>3440</ele>
        <time>2021-06-27T14:52:35.000Z</time>
        <extensions>
          <ns3:TrackPointExtension>
            <ns3:atemp>22.0</ns3:atemp>
            <ns3:hr>126</ns3:hr>
          </ns3:TrackPointExtension>
        </extensions>
      </trkpt>
      <trkpt lat="36.819926686584949493408203125" lon="-118.3987266384065151214599609375">
        <ele>3441.199951171875</ele>
        <time>2021-06-27T14:52:42.000Z</time>
        <extensions>
          <ns3:TrackPointExtension>
            <ns3:atemp>22.0</ns3:atemp>
            <ns3:hr>128</ns3:hr>
          </ns3:TrackPointExtension>
        </extensions>
      </trkpt>
      <trkpt lat="36.81992836296558380126953125" lon="-118.3987236209213733673095703125">
        <ele>3441.800048828125</ele>
        <time>2021-06-27T14:52:47.000Z</time>
        <extensions>
          <ns3:TrackPointExtension>
            <ns3:atemp>22.0</ns3:atemp>
            <ns3:hr>125</ns3:hr>
          </ns3:TrackPointExtension>
        </extensions>
      </trkpt>
      <trkpt lat="36.81992945261299610137939453125" lon="-118.39872169308364391326904296875">
        <ele>3442</ele>
        <time>2021-06-27T14:52:50.000Z</time>
        <extensions>
          <ns3:TrackPointExtension>
            <ns3:atemp>22.0</ns3:atemp>
            <ns3:hr>122</ns3:hr>
          </ns3:TrackPointExtension>
        </extensions>
      </trkpt>
      <trkpt lat="36.8199298717081546783447265625" lon="-118.39872102253139019012451171875">
        <ele>3442.39990234375</ele>
        <time>2021-06-27T14:52:51.000Z</time>
        <extensions>
          <ns3:TrackPointExtension>
            <ns3:atemp>22.0</ns3:atemp>
            <ns3:hr>122</ns3:hr>
          </ns3:TrackPointExtension>
        </extensions>
      </trkpt>
      <trkpt lat="36.81993179954588413238525390625" lon="-118.39871783740818500518798828125">
        <ele>3443.60009765625</ele>
        <time>2021-06-27T14:52:56.000Z</time>
        <extensions>
          <ns3:TrackPointExtension>
            <ns3:atemp>22.0</ns3:atemp>
            <ns3:hr>121</ns3:hr>
          </ns3:TrackPointExtension>
        </extensions>
      </trkpt>
      <trkpt lat="36.81993515230715274810791015625" lon="-118.3987125568091869354248046875">
        <ele>3444.39990234375</ele>
        <time>2021-06-27T14:53:04.000Z</time>
        <extensions>
          <ns3:TrackPointExtension>
            <ns3:atemp>22.0</ns3:atemp>
            <ns3:hr>118</ns3:hr>
          </ns3:TrackPointExtension>
        </extensions>
      </trkpt>
      <trkpt lat="36.8199355714023113250732421875" lon="-118.3987118862569332122802734375">
        <ele>3444.800048828125</ele>
        <time>2021-06-27T14:53:05.000Z</time>
        <extensions>
          <ns3:TrackPointExtension>
            <ns3:atemp>22.0</ns3:atemp>
            <ns3:hr>119</ns3:hr>
          </ns3:TrackPointExtension>
        </extensions>
      </trkpt>
      <trkpt lat="36.819938756525516510009765625" lon="-118.3987071923911571502685546875">
        <ele>3446</ele>
        <time>2021-06-27T14:53:12.000Z</time>
        <extensions>
          <ns3:TrackPointExtension>
            <ns3:atemp>22.0</ns3:atemp>
            <ns3:hr>117</ns3:hr>
          </ns3:TrackPointExtension>
        </extensions>
      </trkpt>
      <trkpt lat="36.819942109286785125732421875" lon="-118.39870224706828594207763671875">
        <ele>3446.800048828125</ele>
        <time>2021-06-27T14:53:19.000Z</time>
        <extensions>
          <ns3:TrackPointExtension>
            <ns3:atemp>22.0</ns3:atemp>
            <ns3:hr>121</ns3:hr>
          </ns3:TrackPointExtension>
        </extensions>
      </trkpt>
      <trkpt lat="36.81994353421032428741455078125" lon="-118.39870006777346134185791015625">
        <ele>3447.199951171875</ele>
        <time>2021-06-27T14:53:22.000Z</time>
        <extensions>
          <ns3:TrackPointExtension>
            <ns3:atemp>22.0</ns3:atemp>
            <ns3:hr>122</ns3:hr>
          </ns3:TrackPointExtension>
        </extensions>
      </trkpt>
      <trkpt lat="36.81994604878127574920654296875" lon="-118.398696295917034149169921875">
        <ele>3448.199951171875</ele>
        <time>2021-06-27T14:53:27.000Z</time>
        <extensions>
          <ns3:TrackPointExtension>
            <ns3:atemp>22.0</ns3:atemp>
            <ns3:hr>125</ns3:hr>
          </ns3:TrackPointExtension>
        </extensions>
      </trkpt>
      <trkpt lat="36.81994655169546604156494140625" lon="-118.3986954577267169952392578125">
        <ele>3448.199951171875</ele>
        <time>2021-06-27T14:53:28.000Z</time>
        <extensions>
          <ns3:TrackPointExtension>
            <ns3:atemp>22.0</ns3:atemp>
            <ns3:hr>122</ns3:hr>
          </ns3:TrackPointExtension>
        </extensions>
      </trkpt>
      <trkpt lat="36.819950155913829803466796875" lon="-118.39868984185159206390380859375">
        <ele>3448.800048828125</ele>
        <time>2021-06-27T14:53:35.000Z</time>
        <extensions>
          <ns3:TrackPointExtension>
            <ns3:atemp>22.0</ns3:atemp>
            <ns3:hr>119</ns3:hr>
          </ns3:TrackPointExtension>
        </extensions>
      </trkpt>
      <trkpt lat="36.81995325721800327301025390625" lon="-118.398684896528720855712890625">
        <ele>3448.39990234375</ele>
        <time>2021-06-27T14:53:41.000Z</time>
        <extensions>
          <ns3:TrackPointExtension>
            <ns3:atemp>22.0</ns3:atemp>
            <ns3:hr>116</ns3:hr>
          </ns3:TrackPointExtension>
        </extensions>
      </trkpt>
      <trkpt lat="36.81995694525539875030517578125" lon="-118.3986790291965007781982421875">
        <ele>3448.60009765625</ele>
        <time>2021-06-27T14:53:48.000Z</time>
        <extensions>
          <ns3:TrackPointExtension>
            <ns3:atemp>22.0</ns3:atemp>
            <ns3:hr>119</ns3:hr>
          </ns3:TrackPointExtension>
        </extensions>
      </trkpt>
      <trkpt lat="36.81995845399796962738037109375" lon="-118.39867651462554931640625">
        <ele>3449</ele>
        <time>2021-06-27T14:53:51.000Z</time>
        <extensions>
          <ns3:TrackPointExtension>
            <ns3:atemp>22.0</ns3:atemp>
            <ns3:hr>122</ns3:hr>
          </ns3:TrackPointExtension>
        </extensions>
      </trkpt>
      <trkpt lat="36.8199590407311916351318359375" lon="-118.3986756764352321624755859375">
        <ele>3449.199951171875</ele>
        <time>2021-06-27T14:53:52.000Z</time>
        <extensions>
          <ns3:TrackPointExtension>
            <ns3:atemp>22.0</ns3:atemp>
            <ns3:hr>122</ns3:hr>
          </ns3:TrackPointExtension>
        </extensions>
      </trkpt>
      <trkpt lat="36.81996264494955539703369140625" lon="-118.3986698091030120849609375">
        <ele>3450.39990234375</ele>
        <time>2021-06-27T14:53:59.000Z</time>
        <extensions>
          <ns3:TrackPointExtension>
            <ns3:atemp>22.0</ns3:atemp>
            <ns3:hr>122</ns3:hr>
          </ns3:TrackPointExtension>
        </extensions>
      </trkpt>
      <trkpt lat="36.8199674226343631744384765625" lon="-118.39866234920918941497802734375">
        <ele>3451.60009765625</ele>
        <time>2021-06-27T14:54:08.000Z</time>
        <extensions>
          <ns3:TrackPointExtension>
            <ns3:atemp>22.0</ns3:atemp>
            <ns3:hr>122</ns3:hr>
          </ns3:TrackPointExtension>
        </extensions>
      </trkpt>
      <trkpt lat="36.81997186504304409027099609375" lon="-118.39865564368665218353271484375">
        <ele>3452.800048828125</ele>
        <time>2021-06-27T14:54:16.000Z</time>
        <extensions>
          <ns3:TrackPointExtension>
            <ns3:atemp>22.0</ns3:atemp>
            <ns3:hr>123</ns3:hr>
          </ns3:TrackPointExtension>
        </extensions>
      </trkpt>
      <trkpt lat="36.81997538544237613677978515625" lon="-118.39865036308765411376953125">
        <ele>3453.800048828125</ele>
        <time>2021-06-27T14:54:22.000Z</time>
        <extensions>
          <ns3:TrackPointExtension>
            <ns3:atemp>22.0</ns3:atemp>
            <ns3:hr>122</ns3:hr>
          </ns3:TrackPointExtension>
        </extensions>
      </trkpt>
      <trkpt lat="36.81997940875589847564697265625" lon="-118.39864390902221202850341796875">
        <ele>3455</ele>
        <time>2021-06-27T14:54:29.000Z</time>
        <extensions>
          <ns3:TrackPointExtension>
            <ns3:atemp>22.0</ns3:atemp>
            <ns3:hr>121</ns3:hr>
          </ns3:TrackPointExtension>
        </extensions>
      </trkpt>
      <trkpt lat="36.81998427025973796844482421875" lon="-118.398636281490325927734375">
        <ele>3455.800048828125</ele>
        <time>2021-06-27T14:54:37.000Z</time>
        <extensions>
          <ns3:TrackPointExtension>
            <ns3:atemp>22.0</ns3:atemp>
            <ns3:hr>118</ns3:hr>
          </ns3:TrackPointExtension>
        </extensions>
      </trkpt>
      <trkpt lat="36.8199855275452136993408203125" lon="-118.39863435365259647369384765625">
        <ele>3456</ele>
        <time>2021-06-27T14:54:39.000Z</time>
        <extensions>
          <ns3:TrackPointExtension>
            <ns3:atemp>22.0</ns3:atemp>
            <ns3:hr>121</ns3:hr>
          </ns3:TrackPointExtension>
        </extensions>
      </trkpt>
      <trkpt lat="36.81999064050614833831787109375" lon="-118.3986267261207103729248046875">
        <ele>3457</ele>
        <time>2021-06-27T14:54:47.000Z</time>
        <extensions>
          <ns3:TrackPointExtension>
            <ns3:atemp>22.0</ns3:atemp>
            <ns3:hr>118</ns3:hr>
          </ns3:TrackPointExtension>
        </extensions>
      </trkpt>
      <trkpt lat="36.81999466381967067718505859375" lon="-118.39862085878849029541015625">
        <ele>3456.800048828125</ele>
        <time>2021-06-27T14:54:53.000Z</time>
        <extensions>
          <ns3:TrackPointExtension>
            <ns3:atemp>22.0</ns3:atemp>
            <ns3:hr>115</ns3:hr>
          </ns3:TrackPointExtension>
        </extensions>
      </trkpt>
      <trkpt lat="36.8199972622096538543701171875" lon="-118.39861691929399967193603515625">
        <ele>3457.199951171875</ele>
        <time>2021-06-27T14:54:57.000Z</time>
        <extensions>
          <ns3:TrackPointExtension>
            <ns3:atemp>22.0</ns3:atemp>
            <ns3:hr>115</ns3:hr>
          </ns3:TrackPointExtension>
        </extensions>
      </trkpt>
      <trkpt lat="36.8199999444186687469482421875" lon="-118.3986129797995090484619140625">
        <ele>3457.800048828125</ele>
        <time>2021-06-27T14:55:01.000Z</time>
        <extensions>
          <ns3:TrackPointExtension>
            <ns3:atemp>22.0</ns3:atemp>
            <ns3:hr>112</ns3:hr>
          </ns3:TrackPointExtension>
        </extensions>
      </trkpt>
      <trkpt lat="36.82000187225639820098876953125" lon="-118.39861004613339900970458984375">
        <ele>3458.199951171875</ele>
        <time>2021-06-27T14:55:04.000Z</time>
        <extensions>
          <ns3:TrackPointExtension>
            <ns3:atemp>22.0</ns3:atemp>
            <ns3:hr>111</ns3:hr>
          </ns3:TrackPointExtension>
        </extensions>
      </trkpt>
      <trkpt lat="36.82000321336090564727783203125" lon="-118.3986081182956695556640625">
        <ele>3458.39990234375</ele>
        <time>2021-06-27T14:55:06.000Z</time>
        <extensions>
          <ns3:TrackPointExtension>
            <ns3:atemp>22.0</ns3:atemp>
            <ns3:hr>111</ns3:hr>
          </ns3:TrackPointExtension>
        </extensions>
      </trkpt>
      <trkpt lat="36.82000773958861827850341796875" lon="-118.3986012451350688934326171875">
        <ele>3459.199951171875</ele>
        <time>2021-06-27T14:55:13.000Z</time>
        <extensions>
          <ns3:TrackPointExtension>
            <ns3:atemp>22.0</ns3:atemp>
            <ns3:hr>112</ns3:hr>
          </ns3:TrackPointExtension>
        </extensions>
      </trkpt>
      <trkpt lat="36.82000908069312572479248046875" lon="-118.39859931729733943939208984375">
        <ele>3459.39990234375</ele>
        <time>2021-06-27T14:55:15.000Z</time>
        <extensions>
          <ns3:TrackPointExtension>
            <ns3:atemp>22.0</ns3:atemp>
            <ns3:hr>115</ns3:hr>
          </ns3:TrackPointExtension>
        </extensions>
      </trkpt>
      <trkpt lat="36.8200110085308551788330078125" lon="-118.398596383631229400634765625">
        <ele>3459.60009765625</ele>
        <time>2021-06-27T14:55:18.000Z</time>
        <extensions>
          <ns3:TrackPointExtension>
            <ns3:atemp>21.0</ns3:atemp>
            <ns3:hr>118</ns3:hr>
          </ns3:TrackPointExtension>
        </extensions>
      </trkpt>
      <trkpt lat="36.8200130201876163482666015625" lon="-118.39859344996511936187744140625">
        <ele>3460.39990234375</ele>
        <time>2021-06-27T14:55:21.000Z</time>
        <extensions>
          <ns3:TrackPointExtension>
            <ns3:atemp>22.0</ns3:atemp>
            <ns3:hr>121</ns3:hr>
          </ns3:TrackPointExtension>
        </extensions>
      </trkpt>
      <trkpt lat="36.820017881691455841064453125" lon="-118.39858657680451869964599609375">
        <ele>3461.60009765625</ele>
        <time>2021-06-27T14:55:28.000Z</time>
        <extensions>
          <ns3:TrackPointExtension>
            <ns3:atemp>21.0</ns3:atemp>
            <ns3:hr>122</ns3:hr>
          </ns3:TrackPointExtension>
        </extensions>
      </trkpt>
      <trkpt lat="36.8200229108333587646484375" lon="-118.3985794521868228912353515625">
        <ele>3462.800048828125</ele>
        <time>2021-06-27T14:55:35.000Z</time>
        <extensions>
          <ns3:TrackPointExtension>
            <ns3:atemp>21.0</ns3:atemp>
            <ns3:hr>125</ns3:hr>
          </ns3:TrackPointExtension>
        </extensions>
      </trkpt>
      <trkpt lat="36.8200274370610713958740234375" lon="-118.39857316575944423675537109375">
        <ele>3463.199951171875</ele>
        <time>2021-06-27T14:55:41.000Z</time>
        <extensions>
          <ns3:TrackPointExtension>
            <ns3:atemp>21.0</ns3:atemp>
            <ns3:hr>122</ns3:hr>
          </ns3:TrackPointExtension>
        </extensions>
      </trkpt>
      <trkpt lat="36.8200304545462131500244140625" lon="-118.398568890988826751708984375">
        <ele>3464</ele>
        <time>2021-06-27T14:55:45.000Z</time>
        <extensions>
          <ns3:TrackPointExtension>
            <ns3:atemp>21.0</ns3:atemp>
            <ns3:hr>119</ns3:hr>
          </ns3:TrackPointExtension>
        </extensions>
      </trkpt>
      <trkpt lat="36.820035986602306365966796875" lon="-118.39856143109500408172607421875">
        <ele>3465.199951171875</ele>
        <time>2021-06-27T14:55:52.000Z</time>
        <extensions>
          <ns3:TrackPointExtension>
            <ns3:atemp>21.0</ns3:atemp>
            <ns3:hr>120</ns3:hr>
          </ns3:TrackPointExtension>
        </extensions>
      </trkpt>
      <trkpt lat="36.8200458772480487823486328125" lon="-118.3985482715070247650146484375">
        <ele>3466.39990234375</ele>
        <time>2021-06-27T14:56:04.000Z</time>
        <extensions>
          <ns3:TrackPointExtension>
            <ns3:atemp>21.0</ns3:atemp>
            <ns3:hr>119</ns3:hr>
          </ns3:TrackPointExtension>
        </extensions>
      </trkpt>
      <trkpt lat="36.820046715438365936279296875" lon="-118.39854718185961246490478515625">
        <ele>3466.39990234375</ele>
        <time>2021-06-27T14:56:05.000Z</time>
        <extensions>
          <ns3:TrackPointExtension>
            <ns3:atemp>21.0</ns3:atemp>
            <ns3:hr>116</ns3:hr>
          </ns3:TrackPointExtension>
        </extensions>
      </trkpt>
      <trkpt lat="36.82005350477993488311767578125" lon="-118.39853829704225063323974609375">
        <ele>3467.39990234375</ele>
        <time>2021-06-27T14:56:13.000Z</time>
        <extensions>
          <ns3:TrackPointExtension>
            <ns3:atemp>21.0</ns3:atemp>
            <ns3:hr>117</ns3:hr>
          </ns3:TrackPointExtension>
        </extensions>
      </trkpt>
      <trkpt lat="36.8200577795505523681640625" lon="-118.398532681167125701904296875">
        <ele>3468.199951171875</ele>
        <time>2021-06-27T14:56:18.000Z</time>
        <extensions>
          <ns3:TrackPointExtension>
            <ns3:atemp>21.0</ns3:atemp>
            <ns3:hr>120</ns3:hr>
          </ns3:TrackPointExtension>
        </extensions>
      </trkpt>
      <trkpt lat="36.82006037794053554534912109375" lon="-118.39852924458682537078857421875">
        <ele>3468.39990234375</ele>
        <time>2021-06-27T14:56:21.000Z</time>
        <extensions>
          <ns3:TrackPointExtension>
            <ns3:atemp>21.0</ns3:atemp>
            <ns3:hr>122</ns3:hr>
          </ns3:TrackPointExtension>
        </extensions>
      </trkpt>
      <trkpt lat="36.82006381452083587646484375" lon="-118.39852471835911273956298828125">
        <ele>3468.800048828125</ele>
        <time>2021-06-27T14:56:25.000Z</time>
        <extensions>
          <ns3:TrackPointExtension>
            <ns3:atemp>21.0</ns3:atemp>
            <ns3:hr>125</ns3:hr>
          </ns3:TrackPointExtension>
        </extensions>
      </trkpt>
      <trkpt lat="36.82006725110113620758056640625" lon="-118.3985201083123683929443359375">
        <ele>3469.60009765625</ele>
        <time>2021-06-27T14:56:29.000Z</time>
        <extensions>
          <ns3:TrackPointExtension>
            <ns3:atemp>21.0</ns3:atemp>
            <ns3:hr>124</ns3:hr>
          </ns3:TrackPointExtension>
        </extensions>
      </trkpt>
      <trkpt lat="36.82007253170013427734375" lon="-118.3985130675137042999267578125">
        <ele>3470.39990234375</ele>
        <time>2021-06-27T14:56:35.000Z</time>
        <extensions>
          <ns3:TrackPointExtension>
            <ns3:atemp>21.0</ns3:atemp>
            <ns3:hr>127</ns3:hr>
          </ns3:TrackPointExtension>
        </extensions>
      </trkpt>
      <trkpt lat="36.8200743757188320159912109375" lon="-118.3985107205808162689208984375">
        <ele>3470.800048828125</ele>
        <time>2021-06-27T14:56:37.000Z</time>
        <extensions>
          <ns3:TrackPointExtension>
            <ns3:atemp>21.0</ns3:atemp>
            <ns3:hr>128</ns3:hr>
          </ns3:TrackPointExtension>
        </extensions>
      </trkpt>
      <trkpt lat="36.82008150033652782440185546875" lon="-118.39850108139216899871826171875">
        <ele>3471.800048828125</ele>
        <time>2021-06-27T14:56:45.000Z</time>
        <extensions>
          <ns3:TrackPointExtension>
            <ns3:atemp>21.0</ns3:atemp>
            <ns3:hr>127</ns3:hr>
          </ns3:TrackPointExtension>
        </extensions>
      </trkpt>
      <trkpt lat="36.82009055279195308685302734375" lon="-118.3984889276325702667236328125">
        <ele>3472</ele>
        <time>2021-06-27T14:56:55.000Z</time>
        <extensions>
          <ns3:TrackPointExtension>
            <ns3:atemp>21.0</ns3:atemp>
            <ns3:hr>124</ns3:hr>
          </ns3:TrackPointExtension>
        </extensions>
      </trkpt>
      <trkpt lat="36.82009692303836345672607421875" lon="-118.398480378091335296630859375">
        <ele>3472.800048828125</ele>
        <time>2021-06-27T14:57:02.000Z</time>
        <extensions>
          <ns3:TrackPointExtension>
            <ns3:atemp>21.0</ns3:atemp>
            <ns3:hr>124</ns3:hr>
          </ns3:TrackPointExtension>
        </extensions>
      </trkpt>
      <trkpt lat="36.8201005272567272186279296875" lon="-118.39847543276846408843994140625">
        <ele>3473.800048828125</ele>
        <time>2021-06-27T14:57:06.000Z</time>
        <extensions>
          <ns3:TrackPointExtension>
            <ns3:atemp>22.0</ns3:atemp>
            <ns3:hr>121</ns3:hr>
          </ns3:TrackPointExtension>
        </extensions>
      </trkpt>
      <trkpt lat="36.820102371275424957275390625" lon="-118.398473002016544342041015625">
        <ele>3473.800048828125</ele>
        <time>2021-06-27T14:57:08.000Z</time>
        <extensions>
          <ns3:TrackPointExtension>
            <ns3:atemp>22.0</ns3:atemp>
            <ns3:hr>119</ns3:hr>
          </ns3:TrackPointExtension>
        </extensions>
      </trkpt>
      <trkpt lat="36.820107735693454742431640625" lon="-118.398465625941753387451171875">
        <ele>3475</ele>
        <time>2021-06-27T14:57:14.000Z</time>
        <extensions>
          <ns3:TrackPointExtension>
            <ns3:atemp>22.0</ns3:atemp>
            <ns3:hr>117</ns3:hr>
          </ns3:TrackPointExtension>
        </extensions>
      </trkpt>
      <trkpt lat="36.8201122619211673736572265625" lon="-118.3984594233334064483642578125">
        <ele>3476</ele>
        <time>2021-06-27T14:57:19.000Z</time>
        <extensions>
          <ns3:TrackPointExtension>
            <ns3:atemp>22.0</ns3:atemp>
            <ns3:hr>118</ns3:hr>
          </ns3:TrackPointExtension>
        </extensions>
      </trkpt>
      <trkpt lat="36.8201169557869434356689453125" lon="-118.39845330454409122467041015625">
        <ele>3477.199951171875</ele>
        <time>2021-06-27T14:57:24.000Z</time>
        <extensions>
          <ns3:TrackPointExtension>
            <ns3:atemp>21.0</ns3:atemp>
            <ns3:hr>120</ns3:hr>
          </ns3:TrackPointExtension>
        </extensions>
      </trkpt>
      <trkpt lat="36.8201266787946224212646484375" lon="-118.3984409831464290618896484375">
        <ele>3478.60009765625</ele>
        <time>2021-06-27T14:57:34.000Z</time>
        <extensions>
          <ns3:TrackPointExtension>
            <ns3:atemp>21.0</ns3:atemp>
            <ns3:hr>118</ns3:hr>
          </ns3:TrackPointExtension>
        </extensions>
      </trkpt>
      <trkpt lat="36.82012961246073246002197265625" lon="-118.39843737892806529998779296875">
        <ele>3479.39990234375</ele>
        <time>2021-06-27T14:57:37.000Z</time>
        <extensions>
          <ns3:TrackPointExtension>
            <ns3:atemp>21.0</ns3:atemp>
            <ns3:hr>123</ns3:hr>
          </ns3:TrackPointExtension>
        </extensions>
      </trkpt>
      <trkpt lat="36.8201327137649059295654296875" lon="-118.39843369089066982269287109375">
        <ele>3479.800048828125</ele>
        <time>2021-06-27T14:57:40.000Z</time>
        <extensions>
          <ns3:TrackPointExtension>
            <ns3:atemp>21.0</ns3:atemp>
            <ns3:hr>125</ns3:hr>
          </ns3:TrackPointExtension>
        </extensions>
      </trkpt>
      <trkpt lat="36.8201491422951221466064453125" lon="-118.398413993418216705322265625">
        <ele>3480.199951171875</ele>
        <time>2021-06-27T14:57:56.000Z</time>
        <extensions>
          <ns3:TrackPointExtension>
            <ns3:atemp>21.0</ns3:atemp>
            <ns3:hr>122</ns3:hr>
          </ns3:TrackPointExtension>
        </extensions>
      </trkpt>
      <trkpt lat="36.82017252780497074127197265625" lon="-118.39838591404259204864501953125">
        <ele>3478.800048828125</ele>
        <time>2021-06-27T14:58:19.000Z</time>
        <extensions>
          <ns3:TrackPointExtension>
            <ns3:atemp>22.0</ns3:atemp>
            <ns3:hr>119</ns3:hr>
          </ns3:TrackPointExtension>
        </extensions>
      </trkpt>
      <trkpt lat="36.820177473127841949462890625" lon="-118.3983799628913402557373046875">
        <ele>3478.800048828125</ele>
        <time>2021-06-27T14:58:24.000Z</time>
        <extensions>
          <ns3:TrackPointExtension>
            <ns3:atemp>22.0</ns3:atemp>
            <ns3:hr>116</ns3:hr>
          </ns3:TrackPointExtension>
        </extensions>
      </trkpt>
      <trkpt lat="36.82018141262233257293701171875" lon="-118.39837518520653247833251953125">
        <ele>3478.60009765625</ele>
        <time>2021-06-27T14:58:28.000Z</time>
        <extensions>
          <ns3:TrackPointExtension>
            <ns3:atemp>22.0</ns3:atemp>
            <ns3:hr>115</ns3:hr>
          </ns3:TrackPointExtension>
        </extensions>
      </trkpt>
      <trkpt lat="36.8201833404600620269775390625" lon="-118.3983729220926761627197265625">
        <ele>3478.60009765625</ele>
        <time>2021-06-27T14:58:30.000Z</time>
        <extensions>
          <ns3:TrackPointExtension>
            <ns3:atemp>22.0</ns3:atemp>
            <ns3:hr>111</ns3:hr>
          </ns3:TrackPointExtension>
        </extensions>
      </trkpt>
      <trkpt lat="36.82018929161131381988525390625" lon="-118.39836596511304378509521484375">
        <ele>3478.60009765625</ele>
        <time>2021-06-27T14:58:36.000Z</time>
        <extensions>
          <ns3:TrackPointExtension>
            <ns3:atemp>22.0</ns3:atemp>
            <ns3:hr>108</ns3:hr>
          </ns3:TrackPointExtension>
        </extensions>
      </trkpt>
      <trkpt lat="36.82019121944904327392578125" lon="-118.398363701999187469482421875">
        <ele>3478.60009765625</ele>
        <time>2021-06-27T14:58:38.000Z</time>
        <extensions>
          <ns3:TrackPointExtension>
            <ns3:atemp>22.0</ns3:atemp>
            <ns3:hr>105</ns3:hr>
          </ns3:TrackPointExtension>
        </extensions>
      </trkpt>
      <trkpt lat="36.82019314728677272796630859375" lon="-118.39836143888533115386962890625">
        <ele>3478.39990234375</ele>
        <time>2021-06-27T14:58:40.000Z</time>
        <extensions>
          <ns3:TrackPointExtension>
            <ns3:atemp>22.0</ns3:atemp>
            <ns3:hr>101</ns3:hr>
          </ns3:TrackPointExtension>
        </extensions>
      </trkpt>
      <trkpt lat="36.82020186446607112884521484375" lon="-118.39835121296346187591552734375">
        <ele>3478.39990234375</ele>
        <time>2021-06-27T14:58:49.000Z</time>
        <extensions>
          <ns3:TrackPointExtension>
            <ns3:atemp>22.0</ns3:atemp>
            <ns3:hr>100</ns3:hr>
          </ns3:TrackPointExtension>
        </extensions>
      </trkpt>
      <trkpt lat="36.8202094919979572296142578125" lon="-118.39834232814610004425048828125">
        <ele>3477.60009765625</ele>
        <time>2021-06-27T14:58:57.000Z</time>
        <extensions>
          <ns3:TrackPointExtension>
            <ns3:atemp>22.0</ns3:atemp>
            <ns3:hr>96</ns3:hr>
          </ns3:TrackPointExtension>
        </extensions>
      </trkpt>
      <trkpt lat="36.8202141858637332916259765625" lon="-118.3983367122709751129150390625">
        <ele>3477.800048828125</ele>
        <time>2021-06-27T14:59:02.000Z</time>
        <extensions>
          <ns3:TrackPointExtension>
            <ns3:atemp>22.0</ns3:atemp>
            <ns3:hr>99</ns3:hr>
          </ns3:TrackPointExtension>
        </extensions>
      </trkpt>
      <trkpt lat="36.82022986002266407012939453125" lon="-118.39831776916980743408203125">
        <ele>3478.800048828125</ele>
        <time>2021-06-27T14:59:19.000Z</time>
        <extensions>
          <ns3:TrackPointExtension>
            <ns3:atemp>22.0</ns3:atemp>
            <ns3:hr>102</ns3:hr>
          </ns3:TrackPointExtension>
        </extensions>
      </trkpt>
      <trkpt lat="36.82023346424102783203125" lon="-118.398313410580158233642578125">
        <ele>3478.800048828125</ele>
        <time>2021-06-27T14:59:23.000Z</time>
        <extensions>
          <ns3:TrackPointExtension>
            <ns3:atemp>22.0</ns3:atemp>
            <ns3:hr>105</ns3:hr>
          </ns3:TrackPointExtension>
        </extensions>
      </trkpt>
      <trkpt lat="36.82024243287742137908935546875" lon="-118.3983025141060352325439453125">
        <ele>3478.39990234375</ele>
        <time>2021-06-27T14:59:33.000Z</time>
        <extensions>
          <ns3:TrackPointExtension>
            <ns3:atemp>22.0</ns3:atemp>
            <ns3:hr>102</ns3:hr>
          </ns3:TrackPointExtension>
        </extensions>
      </trkpt>
      <trkpt lat="36.82024511508643627166748046875" lon="-118.398299328982830047607421875">
        <ele>3478.60009765625</ele>
        <time>2021-06-27T14:59:36.000Z</time>
        <extensions>
          <ns3:TrackPointExtension>
            <ns3:atemp>22.0</ns3:atemp>
            <ns3:hr>99</ns3:hr>
          </ns3:TrackPointExtension>
        </extensions>
      </trkpt>
      <trkpt lat="36.82024947367608547210693359375" lon="-118.39829388074576854705810546875">
        <ele>3478.60009765625</ele>
        <time>2021-06-27T14:59:41.000Z</time>
        <extensions>
          <ns3:TrackPointExtension>
            <ns3:atemp>22.0</ns3:atemp>
            <ns3:hr>96</ns3:hr>
          </ns3:TrackPointExtension>
        </extensions>
      </trkpt>
      <trkpt lat="36.82026506401598453521728515625" lon="-118.398274518549442291259765625">
        <ele>3478.800048828125</ele>
        <time>2021-06-27T14:59:59.000Z</time>
        <extensions>
          <ns3:TrackPointExtension>
            <ns3:atemp>22.0</ns3:atemp>
            <ns3:hr>92</ns3:hr>
          </ns3:TrackPointExtension>
        </extensions>
      </trkpt>
      <trkpt lat="36.82026674039661884307861328125" lon="-118.39827242307364940643310546875">
        <ele>3479</ele>
        <time>2021-06-27T15:00:01.000Z</time>
        <extensions>
          <ns3:TrackPointExtension>
            <ns3:atemp>22.0</ns3:atemp>
            <ns3:hr>95</ns3:hr>
          </ns3:TrackPointExtension>
        </extensions>
      </trkpt>
      <trkpt lat="36.820269338786602020263671875" lon="-118.39826923795044422149658203125">
        <ele>3479</ele>
        <time>2021-06-27T15:00:04.000Z</time>
        <extensions>
          <ns3:TrackPointExtension>
            <ns3:atemp>22.0</ns3:atemp>
            <ns3:hr>98</ns3:hr>
          </ns3:TrackPointExtension>
        </extensions>
      </trkpt>
      <trkpt lat="36.8202825821936130523681640625" lon="-118.3982528932392597198486328125">
        <ele>3479</ele>
        <time>2021-06-27T15:00:20.000Z</time>
        <extensions>
          <ns3:TrackPointExtension>
            <ns3:atemp>22.0</ns3:atemp>
            <ns3:hr>95</ns3:hr>
          </ns3:TrackPointExtension>
        </extensions>
      </trkpt>
      <trkpt lat="36.8202857673168182373046875" lon="-118.3982488699257373809814453125">
        <ele>3479.800048828125</ele>
        <time>2021-06-27T15:00:24.000Z</time>
        <extensions>
          <ns3:TrackPointExtension>
            <ns3:atemp>22.0</ns3:atemp>
            <ns3:hr>94</ns3:hr>
          </ns3:TrackPointExtension>
        </extensions>
      </trkpt>
      <trkpt lat="36.820287443697452545166015625" lon="-118.3982468582689762115478515625">
        <ele>3480</ele>
        <time>2021-06-27T15:00:26.000Z</time>
        <extensions>
          <ns3:TrackPointExtension>
            <ns3:atemp>22.0</ns3:atemp>
            <ns3:hr>95</ns3:hr>
          </ns3:TrackPointExtension>
        </extensions>
      </trkpt>
      <trkpt lat="36.820291467010974884033203125" lon="-118.39824191294610500335693359375">
        <ele>3480.800048828125</ele>
        <time>2021-06-27T15:00:31.000Z</time>
        <extensions>
          <ns3:TrackPointExtension>
            <ns3:atemp>22.0</ns3:atemp>
            <ns3:hr>97</ns3:hr>
          </ns3:TrackPointExtension>
        </extensions>
      </trkpt>
      <trkpt lat="36.82029222138226032257080078125" lon="-118.39824090711772441864013671875">
        <ele>3481</ele>
        <time>2021-06-27T15:00:32.000Z</time>
        <extensions>
          <ns3:TrackPointExtension>
            <ns3:atemp>22.0</ns3:atemp>
            <ns3:hr>100</ns3:hr>
          </ns3:TrackPointExtension>
        </extensions>
      </trkpt>
      <trkpt lat="36.820295490324497222900390625" lon="-118.398236967623233795166015625">
        <ele>3482</ele>
        <time>2021-06-27T15:00:36.000Z</time>
        <extensions>
          <ns3:TrackPointExtension>
            <ns3:atemp>21.0</ns3:atemp>
            <ns3:hr>101</ns3:hr>
          </ns3:TrackPointExtension>
        </extensions>
      </trkpt>
      <trkpt lat="36.8202980048954486846923828125" lon="-118.39823403395712375640869140625">
        <ele>3483</ele>
        <time>2021-06-27T15:00:39.000Z</time>
        <extensions>
          <ns3:TrackPointExtension>
            <ns3:atemp>21.0</ns3:atemp>
            <ns3:hr>100</ns3:hr>
          </ns3:TrackPointExtension>
        </extensions>
      </trkpt>
      <trkpt lat="36.82030227966606616973876953125" lon="-118.39822917245328426361083984375">
        <ele>3483.39990234375</ele>
        <time>2021-06-27T15:00:44.000Z</time>
        <extensions>
          <ns3:TrackPointExtension>
            <ns3:atemp>21.0</ns3:atemp>
            <ns3:hr>103</ns3:hr>
          </ns3:TrackPointExtension>
        </extensions>
      </trkpt>
      <trkpt lat="36.820310913026332855224609375" lon="-118.3982190303504467010498046875">
        <ele>3484</ele>
        <time>2021-06-27T15:00:54.000Z</time>
        <extensions>
          <ns3:TrackPointExtension>
            <ns3:atemp>21.0</ns3:atemp>
            <ns3:hr>105</ns3:hr>
          </ns3:TrackPointExtension>
        </extensions>
      </trkpt>
      <trkpt lat="36.82031451724469661712646484375" lon="-118.39821492321789264678955078125">
        <ele>3484.199951171875</ele>
        <time>2021-06-27T15:00:58.000Z</time>
        <extensions>
          <ns3:TrackPointExtension>
            <ns3:atemp>21.0</ns3:atemp>
            <ns3:hr>108</ns3:hr>
          </ns3:TrackPointExtension>
        </extensions>
      </trkpt>
      <trkpt lat="36.820316277444362640380859375" lon="-118.39821291156113147735595703125">
        <ele>3484.39990234375</ele>
        <time>2021-06-27T15:01:00.000Z</time>
        <extensions>
          <ns3:TrackPointExtension>
            <ns3:atemp>21.0</ns3:atemp>
            <ns3:hr>111</ns3:hr>
          </ns3:TrackPointExtension>
        </extensions>
      </trkpt>
      <trkpt lat="36.820318959653377532958984375" lon="-118.39820989407598972320556640625">
        <ele>3485</ele>
        <time>2021-06-27T15:01:03.000Z</time>
        <extensions>
          <ns3:TrackPointExtension>
            <ns3:atemp>21.0</ns3:atemp>
            <ns3:hr>111</ns3:hr>
          </ns3:TrackPointExtension>
        </extensions>
      </trkpt>
      <trkpt lat="36.8203244917094707489013671875" lon="-118.39820377528667449951171875">
        <ele>3485.60009765625</ele>
        <time>2021-06-27T15:01:09.000Z</time>
        <extensions>
          <ns3:TrackPointExtension>
            <ns3:atemp>21.0</ns3:atemp>
            <ns3:hr>114</ns3:hr>
          </ns3:TrackPointExtension>
        </extensions>
      </trkpt>
      <trkpt lat="36.8203291855752468109130859375" lon="-118.398198746144771575927734375">
        <ele>3486.39990234375</ele>
        <time>2021-06-27T15:01:14.000Z</time>
        <extensions>
          <ns3:TrackPointExtension>
            <ns3:atemp>21.0</ns3:atemp>
            <ns3:hr>111</ns3:hr>
          </ns3:TrackPointExtension>
        </extensions>
      </trkpt>
      <trkpt lat="36.8203358910977840423583984375" lon="-118.39819162152707576751708984375">
        <ele>3487.199951171875</ele>
        <time>2021-06-27T15:01:21.000Z</time>
        <extensions>
          <ns3:TrackPointExtension>
            <ns3:atemp>21.0</ns3:atemp>
            <ns3:hr>108</ns3:hr>
          </ns3:TrackPointExtension>
        </extensions>
      </trkpt>
      <trkpt lat="36.82033882476389408111572265625" lon="-118.3981885202229022979736328125">
        <ele>3487.60009765625</ele>
        <time>2021-06-27T15:01:24.000Z</time>
        <extensions>
          <ns3:TrackPointExtension>
            <ns3:atemp>21.0</ns3:atemp>
            <ns3:hr>109</ns3:hr>
          </ns3:TrackPointExtension>
        </extensions>
      </trkpt>
      <trkpt lat="36.82034184224903583526611328125" lon="-118.398185335099697113037109375">
        <ele>3488</ele>
        <time>2021-06-27T15:01:27.000Z</time>
        <extensions>
          <ns3:TrackPointExtension>
            <ns3:atemp>21.0</ns3:atemp>
            <ns3:hr>114</ns3:hr>
          </ns3:TrackPointExtension>
        </extensions>
      </trkpt>
      <trkpt lat="36.82034485973417758941650390625" lon="-118.39818223379552364349365234375">
        <ele>3488.39990234375</ele>
        <time>2021-06-27T15:01:30.000Z</time>
        <extensions>
          <ns3:TrackPointExtension>
            <ns3:atemp>21.0</ns3:atemp>
            <ns3:hr>118</ns3:hr>
          </ns3:TrackPointExtension>
        </extensions>
      </trkpt>
      <trkpt lat="36.82034687139093875885009765625" lon="-118.3981801383197307586669921875">
        <ele>3488.60009765625</ele>
        <time>2021-06-27T15:01:32.000Z</time>
        <extensions>
          <ns3:TrackPointExtension>
            <ns3:atemp>21.0</ns3:atemp>
            <ns3:hr>114</ns3:hr>
          </ns3:TrackPointExtension>
        </extensions>
      </trkpt>
      <trkpt lat="36.8203479610383510589599609375" lon="-118.39817904867231845855712890625">
        <ele>3488.800048828125</ele>
        <time>2021-06-27T15:01:33.000Z</time>
        <extensions>
          <ns3:TrackPointExtension>
            <ns3:atemp>21.0</ns3:atemp>
            <ns3:hr>114</ns3:hr>
          </ns3:TrackPointExtension>
        </extensions>
      </trkpt>
      <trkpt lat="36.8203560076653957366943359375" lon="-118.3981704153120517730712890625">
        <ele>3490</ele>
        <time>2021-06-27T15:01:41.000Z</time>
        <extensions>
          <ns3:TrackPointExtension>
            <ns3:atemp>21.0</ns3:atemp>
            <ns3:hr>117</ns3:hr>
          </ns3:TrackPointExtension>
        </extensions>
      </trkpt>
      <trkpt lat="36.8203580193221569061279296875" lon="-118.39816815219819545745849609375">
        <ele>3490.39990234375</ele>
        <time>2021-06-27T15:01:43.000Z</time>
        <extensions>
          <ns3:TrackPointExtension>
            <ns3:atemp>21.0</ns3:atemp>
            <ns3:hr>120</ns3:hr>
          </ns3:TrackPointExtension>
        </extensions>
      </trkpt>
      <trkpt lat="36.82036112062633037567138671875" lon="-118.39816488325595855712890625">
        <ele>3490.800048828125</ele>
        <time>2021-06-27T15:01:46.000Z</time>
        <extensions>
          <ns3:TrackPointExtension>
            <ns3:atemp>21.0</ns3:atemp>
            <ns3:hr>123</ns3:hr>
          </ns3:TrackPointExtension>
        </extensions>
      </trkpt>
      <trkpt lat="36.82036313228309154510498046875" lon="-118.39816262014210224151611328125">
        <ele>3491</ele>
        <time>2021-06-27T15:01:48.000Z</time>
        <extensions>
          <ns3:TrackPointExtension>
            <ns3:atemp>21.0</ns3:atemp>
            <ns3:hr>124</ns3:hr>
          </ns3:TrackPointExtension>
        </extensions>
      </trkpt>
      <trkpt lat="36.820371262729167938232421875" lon="-118.39815356768667697906494140625">
        <ele>3492.60009765625</ele>
        <time>2021-06-27T15:01:56.000Z</time>
        <extensions>
          <ns3:TrackPointExtension>
            <ns3:atemp>21.0</ns3:atemp>
            <ns3:hr>124</ns3:hr>
          </ns3:TrackPointExtension>
        </extensions>
      </trkpt>
      <trkpt lat="36.82037629187107086181640625" lon="-118.39814786799252033233642578125">
        <ele>3493.39990234375</ele>
        <time>2021-06-27T15:02:01.000Z</time>
        <extensions>
          <ns3:TrackPointExtension>
            <ns3:atemp>21.0</ns3:atemp>
            <ns3:hr>121</ns3:hr>
          </ns3:TrackPointExtension>
        </extensions>
      </trkpt>
      <trkpt lat="36.82037939317524433135986328125" lon="-118.398144431412220001220703125">
        <ele>3493.60009765625</ele>
        <time>2021-06-27T15:02:04.000Z</time>
        <extensions>
          <ns3:TrackPointExtension>
            <ns3:atemp>21.0</ns3:atemp>
            <ns3:hr>118</ns3:hr>
          </ns3:TrackPointExtension>
        </extensions>
      </trkpt>
      <trkpt lat="36.82038140483200550079345703125" lon="-118.39814216829836368560791015625">
        <ele>3493.800048828125</ele>
        <time>2021-06-27T15:02:06.000Z</time>
        <extensions>
          <ns3:TrackPointExtension>
            <ns3:atemp>21.0</ns3:atemp>
            <ns3:hr>116</ns3:hr>
          </ns3:TrackPointExtension>
        </extensions>
      </trkpt>
      <trkpt lat="36.82038442231714725494384765625" lon="-118.39813864789903163909912109375">
        <ele>3494</ele>
        <time>2021-06-27T15:02:09.000Z</time>
        <extensions>
          <ns3:TrackPointExtension>
            <ns3:atemp>21.0</ns3:atemp>
            <ns3:hr>113</ns3:hr>
          </ns3:TrackPointExtension>
        </extensions>
      </trkpt>
      <trkpt lat="36.82038945145905017852783203125" lon="-118.39813261292874813079833984375">
        <ele>3495.199951171875</ele>
        <time>2021-06-27T15:02:14.000Z</time>
        <extensions>
          <ns3:TrackPointExtension>
            <ns3:atemp>21.0</ns3:atemp>
            <ns3:hr>111</ns3:hr>
          </ns3:TrackPointExtension>
        </extensions>
      </trkpt>
      <trkpt lat="36.82039448060095310211181640625" lon="-118.39812657795846462249755859375">
        <ele>3495.39990234375</ele>
        <time>2021-06-27T15:02:19.000Z</time>
        <extensions>
          <ns3:TrackPointExtension>
            <ns3:atemp>21.0</ns3:atemp>
            <ns3:hr>114</ns3:hr>
          </ns3:TrackPointExtension>
        </extensions>
      </trkpt>
      <trkpt lat="36.82039950974285602569580078125" lon="-118.3981204591691493988037109375">
        <ele>3496.800048828125</ele>
        <time>2021-06-27T15:02:24.000Z</time>
        <extensions>
          <ns3:TrackPointExtension>
            <ns3:atemp>21.0</ns3:atemp>
            <ns3:hr>117</ns3:hr>
          </ns3:TrackPointExtension>
        </extensions>
      </trkpt>
      <trkpt lat="36.82040554471313953399658203125" lon="-118.3981130830943584442138671875">
        <ele>3497.199951171875</ele>
        <time>2021-06-27T15:02:30.000Z</time>
        <extensions>
          <ns3:TrackPointExtension>
            <ns3:atemp>21.0</ns3:atemp>
            <ns3:hr>120</ns3:hr>
          </ns3:TrackPointExtension>
        </extensions>
      </trkpt>
      <trkpt lat="36.8204106576740741729736328125" lon="-118.39810679666697978973388671875">
        <ele>3497.800048828125</ele>
        <time>2021-06-27T15:02:35.000Z</time>
        <extensions>
          <ns3:TrackPointExtension>
            <ns3:atemp>21.0</ns3:atemp>
            <ns3:hr>120</ns3:hr>
          </ns3:TrackPointExtension>
        </extensions>
      </trkpt>
      <trkpt lat="36.8204176984727382659912109375" lon="-118.39809782803058624267578125">
        <ele>3498.800048828125</ele>
        <time>2021-06-27T15:02:42.000Z</time>
        <extensions>
          <ns3:TrackPointExtension>
            <ns3:atemp>21.0</ns3:atemp>
            <ns3:hr>119</ns3:hr>
          </ns3:TrackPointExtension>
        </extensions>
      </trkpt>
      <trkpt lat="36.82042079977691173553466796875" lon="-118.3980939723551273345947265625">
        <ele>3499.39990234375</ele>
        <time>2021-06-27T15:02:45.000Z</time>
        <extensions>
          <ns3:TrackPointExtension>
            <ns3:atemp>21.0</ns3:atemp>
            <ns3:hr>115</ns3:hr>
          </ns3:TrackPointExtension>
        </extensions>
      </trkpt>
      <trkpt lat="36.82042591273784637451171875" lon="-118.39808735065162181854248046875">
        <ele>3500</ele>
        <time>2021-06-27T15:02:50.000Z</time>
        <extensions>
          <ns3:TrackPointExtension>
            <ns3:atemp>21.0</ns3:atemp>
            <ns3:hr>115</ns3:hr>
          </ns3:TrackPointExtension>
        </extensions>
      </trkpt>
      <trkpt lat="36.82043219916522502899169921875" lon="-118.39807930402457714080810546875">
        <ele>3501</ele>
        <time>2021-06-27T15:02:56.000Z</time>
        <extensions>
          <ns3:TrackPointExtension>
            <ns3:atemp>21.0</ns3:atemp>
            <ns3:hr>117</ns3:hr>
          </ns3:TrackPointExtension>
        </extensions>
      </trkpt>
      <trkpt lat="36.82043840177357196807861328125" lon="-118.3980711735785007476806640625">
        <ele>3501.800048828125</ele>
        <time>2021-06-27T15:03:02.000Z</time>
        <extensions>
          <ns3:TrackPointExtension>
            <ns3:atemp>21.0</ns3:atemp>
            <ns3:hr>120</ns3:hr>
          </ns3:TrackPointExtension>
        </extensions>
      </trkpt>
      <trkpt lat="36.8204404972493648529052734375" lon="-118.39806840755045413970947265625">
        <ele>3502.39990234375</ele>
        <time>2021-06-27T15:03:04.000Z</time>
        <extensions>
          <ns3:TrackPointExtension>
            <ns3:atemp>21.0</ns3:atemp>
            <ns3:hr>121</ns3:hr>
          </ns3:TrackPointExtension>
        </extensions>
      </trkpt>
      <trkpt lat="36.82045214809477329254150390625" lon="-118.39805298484861850738525390625">
        <ele>3503.199951171875</ele>
        <time>2021-06-27T15:03:15.000Z</time>
        <extensions>
          <ns3:TrackPointExtension>
            <ns3:atemp>21.0</ns3:atemp>
            <ns3:hr>118</ns3:hr>
          </ns3:TrackPointExtension>
        </extensions>
      </trkpt>
      <trkpt lat="36.82045315392315387725830078125" lon="-118.398051559925079345703125">
        <ele>3504</ele>
        <time>2021-06-27T15:03:16.000Z</time>
        <extensions>
          <ns3:TrackPointExtension>
            <ns3:atemp>21.0</ns3:atemp>
            <ns3:hr>118</ns3:hr>
          </ns3:TrackPointExtension>
        </extensions>
      </trkpt>
      <trkpt lat="36.82046078145503997802734375" lon="-118.39804158546030521392822265625">
        <ele>3505</ele>
        <time>2021-06-27T15:03:23.000Z</time>
        <extensions>
          <ns3:TrackPointExtension>
            <ns3:atemp>21.0</ns3:atemp>
            <ns3:hr>120</ns3:hr>
          </ns3:TrackPointExtension>
        </extensions>
      </trkpt>
      <trkpt lat="36.820465140044689178466796875" lon="-118.39803571812808513641357421875">
        <ele>3505.199951171875</ele>
        <time>2021-06-27T15:03:27.000Z</time>
        <extensions>
          <ns3:TrackPointExtension>
            <ns3:atemp>21.0</ns3:atemp>
            <ns3:hr>123</ns3:hr>
          </ns3:TrackPointExtension>
        </extensions>
      </trkpt>
      <trkpt lat="36.82047058828175067901611328125" lon="-118.398028425872325897216796875">
        <ele>3506</ele>
        <time>2021-06-27T15:03:32.000Z</time>
        <extensions>
          <ns3:TrackPointExtension>
            <ns3:atemp>21.0</ns3:atemp>
            <ns3:hr>122</ns3:hr>
          </ns3:TrackPointExtension>
        </extensions>
      </trkpt>
      <trkpt lat="36.82047612033784389495849609375" lon="-118.398021049797534942626953125">
        <ele>3507</ele>
        <time>2021-06-27T15:03:37.000Z</time>
        <extensions>
          <ns3:TrackPointExtension>
            <ns3:atemp>21.0</ns3:atemp>
            <ns3:hr>121</ns3:hr>
          </ns3:TrackPointExtension>
        </extensions>
      </trkpt>
      <trkpt lat="36.82048483751714229583740234375" lon="-118.3980091474950313568115234375">
        <ele>3508.199951171875</ele>
        <time>2021-06-27T15:03:45.000Z</time>
        <extensions>
          <ns3:TrackPointExtension>
            <ns3:atemp>21.0</ns3:atemp>
            <ns3:hr>119</ns3:hr>
          </ns3:TrackPointExtension>
        </extensions>
      </trkpt>
      <trkpt lat="36.820493638515472412109375" lon="-118.39799699373543262481689453125">
        <ele>3508.60009765625</ele>
        <time>2021-06-27T15:03:53.000Z</time>
        <extensions>
          <ns3:TrackPointExtension>
            <ns3:atemp>21.0</ns3:atemp>
            <ns3:hr>116</ns3:hr>
          </ns3:TrackPointExtension>
        </extensions>
      </trkpt>
      <trkpt lat="36.8205001763999462127685546875" lon="-118.39798777364194393157958984375">
        <ele>3509</ele>
        <time>2021-06-27T15:03:59.000Z</time>
        <extensions>
          <ns3:TrackPointExtension>
            <ns3:atemp>21.0</ns3:atemp>
            <ns3:hr>113</ns3:hr>
          </ns3:TrackPointExtension>
        </extensions>
      </trkpt>
      <trkpt lat="36.82050126604735851287841796875" lon="-118.39798626489937305450439453125">
        <ele>3509.199951171875</ele>
        <time>2021-06-27T15:04:00.000Z</time>
        <extensions>
          <ns3:TrackPointExtension>
            <ns3:atemp>21.0</ns3:atemp>
            <ns3:hr>113</ns3:hr>
          </ns3:TrackPointExtension>
        </extensions>
      </trkpt>
      <trkpt lat="36.8205088935792446136474609375" lon="-118.397975452244281768798828125">
        <ele>3510</ele>
        <time>2021-06-27T15:04:07.000Z</time>
        <extensions>
          <ns3:TrackPointExtension>
            <ns3:atemp>21.0</ns3:atemp>
            <ns3:hr>117</ns3:hr>
          </ns3:TrackPointExtension>
        </extensions>
      </trkpt>
      <trkpt lat="36.8205110728740692138671875" lon="-118.39797235094010829925537109375">
        <ele>3510.199951171875</ele>
        <time>2021-06-27T15:04:09.000Z</time>
        <extensions>
          <ns3:TrackPointExtension>
            <ns3:atemp>21.0</ns3:atemp>
            <ns3:hr>120</ns3:hr>
          </ns3:TrackPointExtension>
        </extensions>
      </trkpt>
      <trkpt lat="36.8205132521688938140869140625" lon="-118.39796933345496654510498046875">
        <ele>3510.800048828125</ele>
        <time>2021-06-27T15:04:11.000Z</time>
        <extensions>
          <ns3:TrackPointExtension>
            <ns3:atemp>21.0</ns3:atemp>
            <ns3:hr>123</ns3:hr>
          </ns3:TrackPointExtension>
        </extensions>
      </trkpt>
      <trkpt lat="36.82051434181630611419677734375" lon="-118.39796782471239566802978515625">
        <ele>3511.39990234375</ele>
        <time>2021-06-27T15:04:12.000Z</time>
        <extensions>
          <ns3:TrackPointExtension>
            <ns3:atemp>21.0</ns3:atemp>
            <ns3:hr>124</ns3:hr>
          </ns3:TrackPointExtension>
        </extensions>
      </trkpt>
      <trkpt lat="36.8205405771732330322265625" lon="-118.3979303576052188873291015625">
        <ele>3511</ele>
        <time>2021-06-27T15:04:36.000Z</time>
        <extensions>
          <ns3:TrackPointExtension>
            <ns3:atemp>21.0</ns3:atemp>
            <ns3:hr>121</ns3:hr>
          </ns3:TrackPointExtension>
        </extensions>
      </trkpt>
      <trkpt lat="36.82054820470511913299560546875" lon="-118.39791954495012760162353515625">
        <ele>3510.800048828125</ele>
        <time>2021-06-27T15:04:43.000Z</time>
        <extensions>
          <ns3:TrackPointExtension>
            <ns3:atemp>22.0</ns3:atemp>
            <ns3:hr>118</ns3:hr>
          </ns3:TrackPointExtension>
        </extensions>
      </trkpt>
      <trkpt lat="36.82055474258959293365478515625" lon="-118.3979102410376071929931640625">
        <ele>3510.199951171875</ele>
        <time>2021-06-27T15:04:49.000Z</time>
        <extensions>
          <ns3:TrackPointExtension>
            <ns3:atemp>22.0</ns3:atemp>
            <ns3:hr>117</ns3:hr>
          </ns3:TrackPointExtension>
        </extensions>
      </trkpt>
      <trkpt lat="36.82056547142565250396728515625" lon="-118.39789506979286670684814453125">
        <ele>3510</ele>
        <time>2021-06-27T15:04:59.000Z</time>
        <extensions>
          <ns3:TrackPointExtension>
            <ns3:atemp>22.0</ns3:atemp>
            <ns3:hr>114</ns3:hr>
          </ns3:TrackPointExtension>
        </extensions>
      </trkpt>
      <trkpt lat="36.82058039121329784393310546875" lon="-118.3978743664920330047607421875">
        <ele>3509.800048828125</ele>
        <time>2021-06-27T15:05:13.000Z</time>
        <extensions>
          <ns3:TrackPointExtension>
            <ns3:atemp>22.0</ns3:atemp>
            <ns3:hr>111</ns3:hr>
          </ns3:TrackPointExtension>
        </extensions>
      </trkpt>
      <trkpt lat="36.82059179060161113739013671875" lon="-118.39785902760922908782958984375">
        <ele>3510.199951171875</ele>
        <time>2021-06-27T15:05:24.000Z</time>
        <extensions>
          <ns3:TrackPointExtension>
            <ns3:atemp>22.0</ns3:atemp>
            <ns3:hr>108</ns3:hr>
          </ns3:TrackPointExtension>
        </extensions>
      </trkpt>
      <trkpt lat="36.8205997534096240997314453125" lon="-118.39784846641123294830322265625">
        <ele>3511.39990234375</ele>
        <time>2021-06-27T15:05:32.000Z</time>
        <extensions>
          <ns3:TrackPointExtension>
            <ns3:atemp>22.0</ns3:atemp>
            <ns3:hr>109</ns3:hr>
          </ns3:TrackPointExtension>
        </extensions>
      </trkpt>
      <trkpt lat="36.82060268707573413848876953125" lon="-118.39784461073577404022216796875">
        <ele>3512</ele>
        <time>2021-06-27T15:05:35.000Z</time>
        <extensions>
          <ns3:TrackPointExtension>
            <ns3:atemp>22.0</ns3:atemp>
            <ns3:hr>112</ns3:hr>
          </ns3:TrackPointExtension>
        </extensions>
      </trkpt>
      <trkpt lat="36.82060562074184417724609375" lon="-118.397840671241283416748046875">
        <ele>3512.60009765625</ele>
        <time>2021-06-27T15:05:38.000Z</time>
        <extensions>
          <ns3:TrackPointExtension>
            <ns3:atemp>22.0</ns3:atemp>
            <ns3:hr>111</ns3:hr>
          </ns3:TrackPointExtension>
        </extensions>
      </trkpt>
      <trkpt lat="36.82060855440795421600341796875" lon="-118.39783673174679279327392578125">
        <ele>3513.39990234375</ele>
        <time>2021-06-27T15:05:41.000Z</time>
        <extensions>
          <ns3:TrackPointExtension>
            <ns3:atemp>22.0</ns3:atemp>
            <ns3:hr>114</ns3:hr>
          </ns3:TrackPointExtension>
        </extensions>
      </trkpt>
      <trkpt lat="36.8206104822456836700439453125" lon="-118.39783404953777790069580078125">
        <ele>3513.39990234375</ele>
        <time>2021-06-27T15:05:43.000Z</time>
        <extensions>
          <ns3:TrackPointExtension>
            <ns3:atemp>22.0</ns3:atemp>
            <ns3:hr>111</ns3:hr>
          </ns3:TrackPointExtension>
        </extensions>
      </trkpt>
      <trkpt lat="36.82061241008341312408447265625" lon="-118.397831283509731292724609375">
        <ele>3513.60009765625</ele>
        <time>2021-06-27T15:05:45.000Z</time>
        <extensions>
          <ns3:TrackPointExtension>
            <ns3:atemp>22.0</ns3:atemp>
            <ns3:hr>111</ns3:hr>
          </ns3:TrackPointExtension>
        </extensions>
      </trkpt>
      <trkpt lat="36.82061727158725261688232421875" lon="-118.39782432653009891510009765625">
        <ele>3514.800048828125</ele>
        <time>2021-06-27T15:05:50.000Z</time>
        <extensions>
          <ns3:TrackPointExtension>
            <ns3:atemp>22.0</ns3:atemp>
            <ns3:hr>110</ns3:hr>
          </ns3:TrackPointExtension>
        </extensions>
      </trkpt>
      <trkpt lat="36.82062414474785327911376953125" lon="-118.39781426824629306793212890625">
        <ele>3516.199951171875</ele>
        <time>2021-06-27T15:05:57.000Z</time>
        <extensions>
          <ns3:TrackPointExtension>
            <ns3:atemp>21.0</ns3:atemp>
            <ns3:hr>112</ns3:hr>
          </ns3:TrackPointExtension>
        </extensions>
      </trkpt>
      <trkpt lat="36.82063101790845394134521484375" lon="-118.39780387468636035919189453125">
        <ele>3517.199951171875</ele>
        <time>2021-06-27T15:06:04.000Z</time>
        <extensions>
          <ns3:TrackPointExtension>
            <ns3:atemp>21.0</ns3:atemp>
            <ns3:hr>109</ns3:hr>
          </ns3:TrackPointExtension>
        </extensions>
      </trkpt>
      <trkpt lat="36.82063202373683452606201171875" lon="-118.39780236594378948211669921875">
        <ele>3517.60009765625</ele>
        <time>2021-06-27T15:06:05.000Z</time>
        <extensions>
          <ns3:TrackPointExtension>
            <ns3:atemp>21.0</ns3:atemp>
            <ns3:hr>110</ns3:hr>
          </ns3:TrackPointExtension>
        </extensions>
      </trkpt>
      <trkpt lat="36.82063587941229343414306640625" lon="-118.39779633097350597381591796875">
        <ele>3517.60009765625</ele>
        <time>2021-06-27T15:06:09.000Z</time>
        <extensions>
          <ns3:TrackPointExtension>
            <ns3:atemp>21.0</ns3:atemp>
            <ns3:hr>113</ns3:hr>
          </ns3:TrackPointExtension>
        </extensions>
      </trkpt>
      <trkpt lat="36.82063789106905460357666015625" lon="-118.3977932296693325042724609375">
        <ele>3518.199951171875</ele>
        <time>2021-06-27T15:06:11.000Z</time>
        <extensions>
          <ns3:TrackPointExtension>
            <ns3:atemp>21.0</ns3:atemp>
            <ns3:hr>116</ns3:hr>
          </ns3:TrackPointExtension>
        </extensions>
      </trkpt>
      <trkpt lat="36.82064275257289409637451171875" lon="-118.3977855183184146881103515625">
        <ele>3519</ele>
        <time>2021-06-27T15:06:16.000Z</time>
        <extensions>
          <ns3:TrackPointExtension>
            <ns3:atemp>21.0</ns3:atemp>
            <ns3:hr>116</ns3:hr>
          </ns3:TrackPointExtension>
        </extensions>
      </trkpt>
      <trkpt lat="36.8206446804106235504150390625" lon="-118.39778241701424121856689453125">
        <ele>3519.39990234375</ele>
        <time>2021-06-27T15:06:18.000Z</time>
        <extensions>
          <ns3:TrackPointExtension>
            <ns3:atemp>21.0</ns3:atemp>
            <ns3:hr>119</ns3:hr>
          </ns3:TrackPointExtension>
        </extensions>
      </trkpt>
      <trkpt lat="36.82064660824835300445556640625" lon="-118.39777923189103603363037109375">
        <ele>3519.800048828125</ele>
        <time>2021-06-27T15:06:20.000Z</time>
        <extensions>
          <ns3:TrackPointExtension>
            <ns3:atemp>21.0</ns3:atemp>
            <ns3:hr>122</ns3:hr>
          </ns3:TrackPointExtension>
        </extensions>
      </trkpt>
      <trkpt lat="36.8206505477428436279296875" lon="-118.397772945463657379150390625">
        <ele>3519.800048828125</ele>
        <time>2021-06-27T15:06:24.000Z</time>
        <extensions>
          <ns3:TrackPointExtension>
            <ns3:atemp>21.0</ns3:atemp>
            <ns3:hr>125</ns3:hr>
          </ns3:TrackPointExtension>
        </extensions>
      </trkpt>
      <trkpt lat="36.8206533975899219512939453125" lon="-118.397768251597881317138671875">
        <ele>3520.199951171875</ele>
        <time>2021-06-27T15:06:27.000Z</time>
        <extensions>
          <ns3:TrackPointExtension>
            <ns3:atemp>21.0</ns3:atemp>
            <ns3:hr>124</ns3:hr>
          </ns3:TrackPointExtension>
        </extensions>
      </trkpt>
      <trkpt lat="36.820658259093761444091796875" lon="-118.397760204970836639404296875">
        <ele>3521</ele>
        <time>2021-06-27T15:06:32.000Z</time>
        <extensions>
          <ns3:TrackPointExtension>
            <ns3:atemp>21.0</ns3:atemp>
            <ns3:hr>127</ns3:hr>
          </ns3:TrackPointExtension>
        </extensions>
      </trkpt>
      <trkpt lat="36.82065926492214202880859375" lon="-118.39775861240923404693603515625">
        <ele>3521.199951171875</ele>
        <time>2021-06-27T15:06:33.000Z</time>
        <extensions>
          <ns3:TrackPointExtension>
            <ns3:atemp>21.0</ns3:atemp>
            <ns3:hr>130</ns3:hr>
          </ns3:TrackPointExtension>
        </extensions>
      </trkpt>
      <trkpt lat="36.82066504843533039093017578125" lon="-118.39774888940155506134033203125">
        <ele>3522.199951171875</ele>
        <time>2021-06-27T15:06:39.000Z</time>
        <extensions>
          <ns3:TrackPointExtension>
            <ns3:atemp>21.0</ns3:atemp>
            <ns3:hr>130</ns3:hr>
          </ns3:TrackPointExtension>
        </extensions>
      </trkpt>
      <trkpt lat="36.82067577727138996124267578125" lon="-118.39773078449070453643798828125">
        <ele>3523.60009765625</ele>
        <time>2021-06-27T15:06:50.000Z</time>
        <extensions>
          <ns3:TrackPointExtension>
            <ns3:atemp>21.0</ns3:atemp>
            <ns3:hr>128</ns3:hr>
          </ns3:TrackPointExtension>
        </extensions>
      </trkpt>
      <trkpt lat="36.8206825666129589080810546875" lon="-118.39771904982626438140869140625">
        <ele>3524.60009765625</ele>
        <time>2021-06-27T15:06:57.000Z</time>
        <extensions>
          <ns3:TrackPointExtension>
            <ns3:atemp>22.0</ns3:atemp>
            <ns3:hr>130</ns3:hr>
          </ns3:TrackPointExtension>
        </extensions>
      </trkpt>
      <trkpt lat="36.820688433945178985595703125" lon="-118.39770890772342681884765625">
        <ele>3525.60009765625</ele>
        <time>2021-06-27T15:07:03.000Z</time>
        <extensions>
          <ns3:TrackPointExtension>
            <ns3:atemp>22.0</ns3:atemp>
            <ns3:hr>129</ns3:hr>
          </ns3:TrackPointExtension>
        </extensions>
      </trkpt>
      <trkpt lat="36.82069606147706508636474609375" lon="-118.3976949937641620635986328125">
        <ele>3526.800048828125</ele>
        <time>2021-06-27T15:07:11.000Z</time>
        <extensions>
          <ns3:TrackPointExtension>
            <ns3:atemp>22.0</ns3:atemp>
            <ns3:hr>128</ns3:hr>
          </ns3:TrackPointExtension>
        </extensions>
      </trkpt>
      <trkpt lat="36.82070176117122173309326171875" lon="-118.3976846002042293548583984375">
        <ele>3527.800048828125</ele>
        <time>2021-06-27T15:07:17.000Z</time>
        <extensions>
          <ns3:TrackPointExtension>
            <ns3:atemp>22.0</ns3:atemp>
            <ns3:hr>128</ns3:hr>
          </ns3:TrackPointExtension>
        </extensions>
      </trkpt>
      <trkpt lat="36.82070746086537837982177734375" lon="-118.39767395518720149993896484375">
        <ele>3528.800048828125</ele>
        <time>2021-06-27T15:07:23.000Z</time>
        <extensions>
          <ns3:TrackPointExtension>
            <ns3:atemp>22.0</ns3:atemp>
            <ns3:hr>129</ns3:hr>
          </ns3:TrackPointExtension>
        </extensions>
      </trkpt>
      <trkpt lat="36.82072020135819911956787109375" lon="-118.397648893296718597412109375">
        <ele>3529.800048828125</ele>
        <time>2021-06-27T15:07:37.000Z</time>
        <extensions>
          <ns3:TrackPointExtension>
            <ns3:atemp>22.0</ns3:atemp>
            <ns3:hr>127</ns3:hr>
          </ns3:TrackPointExtension>
        </extensions>
      </trkpt>
      <trkpt lat="36.820724643766880035400390625" lon="-118.3976398408412933349609375">
        <ele>3530.60009765625</ele>
        <time>2021-06-27T15:07:42.000Z</time>
        <extensions>
          <ns3:TrackPointExtension>
            <ns3:atemp>22.0</ns3:atemp>
            <ns3:hr>131</ns3:hr>
          </ns3:TrackPointExtension>
        </extensions>
      </trkpt>
      <trkpt lat="36.8207281641662120819091796875" lon="-118.3976326324045658111572265625">
        <ele>3531.199951171875</ele>
        <time>2021-06-27T15:07:46.000Z</time>
        <extensions>
          <ns3:TrackPointExtension>
            <ns3:atemp>22.0</ns3:atemp>
            <ns3:hr>134</ns3:hr>
          </ns3:TrackPointExtension>
        </extensions>
      </trkpt>
      <trkpt lat="36.82074316777288913726806640625" lon="-118.39760136790573596954345703125">
        <ele>3531</ele>
        <time>2021-06-27T15:08:03.000Z</time>
        <extensions>
          <ns3:TrackPointExtension>
            <ns3:atemp>22.0</ns3:atemp>
            <ns3:hr>131</ns3:hr>
          </ns3:TrackPointExtension>
        </extensions>
      </trkpt>
      <trkpt lat="36.82074584998190402984619140625" lon="-118.3975957520306110382080078125">
        <ele>3530.800048828125</ele>
        <time>2021-06-27T15:08:06.000Z</time>
        <extensions>
          <ns3:TrackPointExtension>
            <ns3:atemp>22.0</ns3:atemp>
            <ns3:hr>128</ns3:hr>
          </ns3:TrackPointExtension>
        </extensions>
      </trkpt>
      <trkpt lat="36.82075020857155323028564453125" lon="-118.397586531937122344970703125">
        <ele>3530.60009765625</ele>
        <time>2021-06-27T15:08:11.000Z</time>
        <extensions>
          <ns3:TrackPointExtension>
            <ns3:atemp>22.0</ns3:atemp>
            <ns3:hr>125</ns3:hr>
          </ns3:TrackPointExtension>
        </extensions>
      </trkpt>
      <trkpt lat="36.820752806961536407470703125" lon="-118.39758108370006084442138671875">
        <ele>3530.60009765625</ele>
        <time>2021-06-27T15:08:14.000Z</time>
        <extensions>
          <ns3:TrackPointExtension>
            <ns3:atemp>22.0</ns3:atemp>
            <ns3:hr>122</ns3:hr>
          </ns3:TrackPointExtension>
        </extensions>
      </trkpt>
      <trkpt lat="36.82075448334217071533203125" lon="-118.39757739566266536712646484375">
        <ele>3530.39990234375</ele>
        <time>2021-06-27T15:08:16.000Z</time>
        <extensions>
          <ns3:TrackPointExtension>
            <ns3:atemp>22.0</ns3:atemp>
            <ns3:hr>118</ns3:hr>
          </ns3:TrackPointExtension>
        </extensions>
      </trkpt>
      <trkpt lat="36.82075708173215389251708984375" lon="-118.3975719474256038665771484375">
        <ele>3530.39990234375</ele>
        <time>2021-06-27T15:08:19.000Z</time>
        <extensions>
          <ns3:TrackPointExtension>
            <ns3:atemp>22.0</ns3:atemp>
            <ns3:hr>115</ns3:hr>
          </ns3:TrackPointExtension>
        </extensions>
      </trkpt>
      <trkpt lat="36.8207596801221370697021484375" lon="-118.39756649918854236602783203125">
        <ele>3530.39990234375</ele>
        <time>2021-06-27T15:08:22.000Z</time>
        <extensions>
          <ns3:TrackPointExtension>
            <ns3:atemp>22.0</ns3:atemp>
            <ns3:hr>112</ns3:hr>
          </ns3:TrackPointExtension>
        </extensions>
      </trkpt>
      <trkpt lat="36.8207673914730548858642578125" lon="-118.397550322115421295166015625">
        <ele>3530.60009765625</ele>
        <time>2021-06-27T15:08:31.000Z</time>
        <extensions>
          <ns3:TrackPointExtension>
            <ns3:atemp>22.0</ns3:atemp>
            <ns3:hr>110</ns3:hr>
          </ns3:TrackPointExtension>
        </extensions>
      </trkpt>
      <trkpt lat="36.8207707442343235015869140625" lon="-118.39754319749772548675537109375">
        <ele>3530.39990234375</ele>
        <time>2021-06-27T15:08:35.000Z</time>
        <extensions>
          <ns3:TrackPointExtension>
            <ns3:atemp>22.0</ns3:atemp>
            <ns3:hr>107</ns3:hr>
          </ns3:TrackPointExtension>
        </extensions>
      </trkpt>
      <trkpt lat="36.8207724206149578094482421875" lon="-118.39753967709839344024658203125">
        <ele>3530.60009765625</ele>
        <time>2021-06-27T15:08:37.000Z</time>
        <extensions>
          <ns3:TrackPointExtension>
            <ns3:atemp>22.0</ns3:atemp>
            <ns3:hr>104</ns3:hr>
          </ns3:TrackPointExtension>
        </extensions>
      </trkpt>
      <trkpt lat="36.8207740969955921173095703125" lon="-118.39753615669906139373779296875">
        <ele>3530.39990234375</ele>
        <time>2021-06-27T15:08:39.000Z</time>
        <extensions>
          <ns3:TrackPointExtension>
            <ns3:atemp>22.0</ns3:atemp>
            <ns3:hr>101</ns3:hr>
          </ns3:TrackPointExtension>
        </extensions>
      </trkpt>
      <trkpt lat="36.8207774497568607330322265625" lon="-118.39752911590039730072021484375">
        <ele>3530.39990234375</ele>
        <time>2021-06-27T15:08:43.000Z</time>
        <extensions>
          <ns3:TrackPointExtension>
            <ns3:atemp>22.0</ns3:atemp>
            <ns3:hr>98</ns3:hr>
          </ns3:TrackPointExtension>
        </extensions>
      </trkpt>
      <trkpt lat="36.820778287947177886962890625" lon="-118.3975273557007312774658203125">
        <ele>3530</ele>
        <time>2021-06-27T15:08:44.000Z</time>
        <extensions>
          <ns3:TrackPointExtension>
            <ns3:atemp>22.0</ns3:atemp>
            <ns3:hr>98</ns3:hr>
          </ns3:TrackPointExtension>
        </extensions>
      </trkpt>
      <trkpt lat="36.820781640708446502685546875" lon="-118.39752039872109889984130859375">
        <ele>3529.800048828125</ele>
        <time>2021-06-27T15:08:48.000Z</time>
        <extensions>
          <ns3:TrackPointExtension>
            <ns3:atemp>22.0</ns3:atemp>
            <ns3:hr>94</ns3:hr>
          </ns3:TrackPointExtension>
        </extensions>
      </trkpt>
      <trkpt lat="36.820783317089080810546875" lon="-118.39751687832176685333251953125">
        <ele>3530</ele>
        <time>2021-06-27T15:08:50.000Z</time>
        <extensions>
          <ns3:TrackPointExtension>
            <ns3:atemp>22.0</ns3:atemp>
            <ns3:hr>91</ns3:hr>
          </ns3:TrackPointExtension>
        </extensions>
      </trkpt>
      <trkpt lat="36.8207858316600322723388671875" lon="-118.39751168154180049896240234375">
        <ele>3530.199951171875</ele>
        <time>2021-06-27T15:08:53.000Z</time>
        <extensions>
          <ns3:TrackPointExtension>
            <ns3:atemp>23.0</ns3:atemp>
            <ns3:hr>88</ns3:hr>
          </ns3:TrackPointExtension>
        </extensions>
      </trkpt>
      <trkpt lat="36.8207891844213008880615234375" lon="-118.39750480838119983673095703125">
        <ele>3530.60009765625</ele>
        <time>2021-06-27T15:08:57.000Z</time>
        <extensions>
          <ns3:TrackPointExtension>
            <ns3:atemp>23.0</ns3:atemp>
            <ns3:hr>85</ns3:hr>
          </ns3:TrackPointExtension>
        </extensions>
      </trkpt>
      <trkpt lat="36.82079245336353778839111328125" lon="-118.397498019039630889892578125">
        <ele>3531.199951171875</ele>
        <time>2021-06-27T15:09:01.000Z</time>
        <extensions>
          <ns3:TrackPointExtension>
            <ns3:atemp>23.0</ns3:atemp>
            <ns3:hr>85</ns3:hr>
          </ns3:TrackPointExtension>
        </extensions>
      </trkpt>
      <trkpt lat="36.82079739868640899658203125" lon="-118.3974877931177616119384765625">
        <ele>3532.60009765625</ele>
        <time>2021-06-27T15:09:07.000Z</time>
        <extensions>
          <ns3:TrackPointExtension>
            <ns3:atemp>23.0</ns3:atemp>
            <ns3:hr>85</ns3:hr>
          </ns3:TrackPointExtension>
        </extensions>
      </trkpt>
      <trkpt lat="36.820799075067043304443359375" lon="-118.39748435653746128082275390625">
        <ele>3532.800048828125</ele>
        <time>2021-06-27T15:09:09.000Z</time>
        <extensions>
          <ns3:TrackPointExtension>
            <ns3:atemp>23.0</ns3:atemp>
            <ns3:hr>88</ns3:hr>
          </ns3:TrackPointExtension>
        </extensions>
      </trkpt>
      <trkpt lat="36.82080150581896305084228515625" lon="-118.397479243576526641845703125">
        <ele>3533.39990234375</ele>
        <time>2021-06-27T15:09:12.000Z</time>
        <extensions>
          <ns3:TrackPointExtension>
            <ns3:atemp>22.0</ns3:atemp>
            <ns3:hr>91</ns3:hr>
          </ns3:TrackPointExtension>
        </extensions>
      </trkpt>
      <trkpt lat="36.820803098380565643310546875" lon="-118.3974757231771945953369140625">
        <ele>3533.800048828125</ele>
        <time>2021-06-27T15:09:14.000Z</time>
        <extensions>
          <ns3:TrackPointExtension>
            <ns3:atemp>22.0</ns3:atemp>
            <ns3:hr>94</ns3:hr>
          </ns3:TrackPointExtension>
        </extensions>
      </trkpt>
      <trkpt lat="36.82080636732280254364013671875" lon="-118.39746876619756221771240234375">
        <ele>3534.199951171875</ele>
        <time>2021-06-27T15:09:18.000Z</time>
        <extensions>
          <ns3:TrackPointExtension>
            <ns3:atemp>22.0</ns3:atemp>
            <ns3:hr>97</ns3:hr>
          </ns3:TrackPointExtension>
        </extensions>
      </trkpt>
      <trkpt lat="36.8208087980747222900390625" lon="-118.39746356941759586334228515625">
        <ele>3535</ele>
        <time>2021-06-27T15:09:21.000Z</time>
        <extensions>
          <ns3:TrackPointExtension>
            <ns3:atemp>22.0</ns3:atemp>
            <ns3:hr>98</ns3:hr>
          </ns3:TrackPointExtension>
        </extensions>
      </trkpt>
      <trkpt lat="36.82081039063632488250732421875" lon="-118.39746004901826381683349609375">
        <ele>3535</ele>
        <time>2021-06-27T15:09:23.000Z</time>
        <extensions>
          <ns3:TrackPointExtension>
            <ns3:atemp>22.0</ns3:atemp>
            <ns3:hr>101</ns3:hr>
          </ns3:TrackPointExtension>
        </extensions>
      </trkpt>
      <trkpt lat="36.820911057293415069580078125" lon="-118.3972333185374736785888671875">
        <ele>3535.60009765625</ele>
        <time>2021-06-27T15:09:26.000Z</time>
        <extensions>
          <ns3:TrackPointExtension>
            <ns3:atemp>22.0</ns3:atemp>
            <ns3:hr>102</ns3:hr>
          </ns3:TrackPointExtension>
        </extensions>
      </trkpt>
      <trkpt lat="36.82095958851277828216552734375" lon="-118.397122509777545928955078125">
        <ele>3535.60009765625</ele>
        <time>2021-06-27T15:09:27.000Z</time>
        <extensions>
          <ns3:TrackPointExtension>
            <ns3:atemp>22.0</ns3:atemp>
            <ns3:hr>101</ns3:hr>
          </ns3:TrackPointExtension>
        </extensions>
      </trkpt>
      <trkpt lat="36.821059919893741607666015625" lon="-118.3968967013061046600341796875">
        <ele>3535.800048828125</ele>
        <time>2021-06-27T15:09:29.000Z</time>
        <extensions>
          <ns3:TrackPointExtension>
            <ns3:atemp>22.0</ns3:atemp>
            <ns3:hr>101</ns3:hr>
          </ns3:TrackPointExtension>
        </extensions>
      </trkpt>
      <trkpt lat="36.8211103789508342742919921875" lon="-118.39678245596587657928466796875">
        <ele>3536.39990234375</ele>
        <time>2021-06-27T15:09:30.000Z</time>
        <extensions>
          <ns3:TrackPointExtension>
            <ns3:atemp>22.0</ns3:atemp>
            <ns3:hr>101</ns3:hr>
          </ns3:TrackPointExtension>
        </extensions>
      </trkpt>
      <trkpt lat="36.82116058655083179473876953125" lon="-118.39666712097823619842529296875">
        <ele>3536.39990234375</ele>
        <time>2021-06-27T15:09:31.000Z</time>
        <extensions>
          <ns3:TrackPointExtension>
            <ns3:atemp>22.0</ns3:atemp>
            <ns3:hr>101</ns3:hr>
          </ns3:TrackPointExtension>
        </extensions>
      </trkpt>
      <trkpt lat="36.821208782494068145751953125" lon="-118.39655111543834209442138671875">
        <ele>3537</ele>
        <time>2021-06-27T15:09:32.000Z</time>
        <extensions>
          <ns3:TrackPointExtension>
            <ns3:atemp>22.0</ns3:atemp>
            <ns3:hr>101</ns3:hr>
          </ns3:TrackPointExtension>
        </extensions>
      </trkpt>
      <trkpt lat="36.82125614024698734283447265625" lon="-118.39643418788909912109375">
        <ele>3537</ele>
        <time>2021-06-27T15:09:33.000Z</time>
        <extensions>
          <ns3:TrackPointExtension>
            <ns3:atemp>22.0</ns3:atemp>
            <ns3:hr>102</ns3:hr>
          </ns3:TrackPointExtension>
        </extensions>
      </trkpt>
      <trkpt lat="36.82130307890474796295166015625" lon="-118.39631550014019012451171875">
        <ele>3537</ele>
        <time>2021-06-27T15:09:35.000Z</time>
        <extensions>
          <ns3:TrackPointExtension>
            <ns3:atemp>22.0</ns3:atemp>
            <ns3:hr>102</ns3:hr>
          </ns3:TrackPointExtension>
        </extensions>
      </trkpt>
      <trkpt lat="36.8212998099625110626220703125" lon="-118.39631508104503154754638671875">
        <ele>3537.60009765625</ele>
        <time>2021-06-27T15:09:37.000Z</time>
        <extensions>
          <ns3:TrackPointExtension>
            <ns3:atemp>22.0</ns3:atemp>
            <ns3:hr>102</ns3:hr>
          </ns3:TrackPointExtension>
        </extensions>
      </trkpt>
      <trkpt lat="36.821301318705081939697265625" lon="-118.39631055481731891632080078125">
        <ele>3537.800048828125</ele>
        <time>2021-06-27T15:09:39.000Z</time>
        <extensions>
          <ns3:TrackPointExtension>
            <ns3:atemp>23.0</ns3:atemp>
            <ns3:hr>105</ns3:hr>
          </ns3:TrackPointExtension>
        </extensions>
      </trkpt>
      <trkpt lat="36.82130056433379650115966796875" lon="-118.3963056094944477081298828125">
        <ele>3537.800048828125</ele>
        <time>2021-06-27T15:09:40.000Z</time>
        <extensions>
          <ns3:TrackPointExtension>
            <ns3:atemp>22.0</ns3:atemp>
            <ns3:hr>105</ns3:hr>
          </ns3:TrackPointExtension>
        </extensions>
      </trkpt>
      <trkpt lat="36.8212957866489887237548828125" lon="-118.3962911926209926605224609375">
        <ele>3538.199951171875</ele>
        <time>2021-06-27T15:09:45.000Z</time>
        <extensions>
          <ns3:TrackPointExtension>
            <ns3:atemp>22.0</ns3:atemp>
            <ns3:hr>102</ns3:hr>
          </ns3:TrackPointExtension>
        </extensions>
      </trkpt>
      <trkpt lat="36.8212957866489887237548828125" lon="-118.3962911926209926605224609375">
        <ele>3538.800048828125</ele>
        <time>2021-06-27T15:09:47.000Z</time>
        <extensions>
          <ns3:TrackPointExtension>
            <ns3:atemp>22.0</ns3:atemp>
            <ns3:hr>101</ns3:hr>
          </ns3:TrackPointExtension>
        </extensions>
      </trkpt>
      <trkpt lat="36.8212957866489887237548828125" lon="-118.3962911926209926605224609375">
        <ele>3539.199951171875</ele>
        <time>2021-06-27T15:09:49.000Z</time>
        <extensions>
          <ns3:TrackPointExtension>
            <ns3:atemp>23.0</ns3:atemp>
            <ns3:hr>101</ns3:hr>
          </ns3:TrackPointExtension>
        </extensions>
      </trkpt>
      <trkpt lat="36.8212957866489887237548828125" lon="-118.3962911926209926605224609375">
        <ele>3540.199951171875</ele>
        <time>2021-06-27T15:09:56.000Z</time>
        <extensions>
          <ns3:TrackPointExtension>
            <ns3:atemp>23.0</ns3:atemp>
            <ns3:hr>104</ns3:hr>
          </ns3:TrackPointExtension>
        </extensions>
      </trkpt>
      <trkpt lat="36.8212961219251155853271484375" lon="-118.3962911926209926605224609375">
        <ele>3540.39990234375</ele>
        <time>2021-06-27T15:09:58.000Z</time>
        <extensions>
          <ns3:TrackPointExtension>
            <ns3:atemp>22.0</ns3:atemp>
            <ns3:hr>108</ns3:hr>
          </ns3:TrackPointExtension>
        </extensions>
      </trkpt>
      <trkpt lat="36.82129687629640102386474609375" lon="-118.39628943242132663726806640625">
        <ele>3540.39990234375</ele>
        <time>2021-06-27T15:10:00.000Z</time>
        <extensions>
          <ns3:TrackPointExtension>
            <ns3:atemp>22.0</ns3:atemp>
            <ns3:hr>111</ns3:hr>
          </ns3:TrackPointExtension>
        </extensions>
      </trkpt>
      <trkpt lat="36.821299307048320770263671875" lon="-118.39627929031848907470703125">
        <ele>3541.39990234375</ele>
        <time>2021-06-27T15:10:06.000Z</time>
        <extensions>
          <ns3:TrackPointExtension>
            <ns3:atemp>22.0</ns3:atemp>
            <ns3:hr>111</ns3:hr>
          </ns3:TrackPointExtension>
        </extensions>
      </trkpt>
      <trkpt lat="36.821299307048320770263671875" lon="-118.396278284490108489990234375">
        <ele>3542.39990234375</ele>
        <time>2021-06-27T15:10:09.000Z</time>
        <extensions>
          <ns3:TrackPointExtension>
            <ns3:atemp>23.0</ns3:atemp>
            <ns3:hr>108</ns3:hr>
          </ns3:TrackPointExtension>
        </extensions>
      </trkpt>
      <trkpt lat="36.82130022905766963958740234375" lon="-118.39627233333885669708251953125">
        <ele>3542.60009765625</ele>
        <time>2021-06-27T15:10:10.000Z</time>
        <extensions>
          <ns3:TrackPointExtension>
            <ns3:atemp>22.0</ns3:atemp>
            <ns3:hr>107</ns3:hr>
          </ns3:TrackPointExtension>
        </extensions>
      </trkpt>
      <trkpt lat="36.8213076889514923095703125" lon="-118.39621684513986110687255859375">
        <ele>3543.199951171875</ele>
        <time>2021-06-27T15:10:16.000Z</time>
        <extensions>
          <ns3:TrackPointExtension>
            <ns3:atemp>22.0</ns3:atemp>
            <ns3:hr>105</ns3:hr>
          </ns3:TrackPointExtension>
        </extensions>
      </trkpt>
      <trkpt lat="36.8213076889514923095703125" lon="-118.39619748294353485107421875">
        <ele>3543.60009765625</ele>
        <time>2021-06-27T15:10:24.000Z</time>
        <extensions>
          <ns3:TrackPointExtension>
            <ns3:atemp>23.0</ns3:atemp>
            <ns3:hr>103</ns3:hr>
          </ns3:TrackPointExtension>
        </extensions>
      </trkpt>
      <trkpt lat="36.8213076889514923095703125" lon="-118.39619748294353485107421875">
        <ele>3543.60009765625</ele>
        <time>2021-06-27T15:10:25.000Z</time>
        <extensions>
          <ns3:TrackPointExtension>
            <ns3:atemp>23.0</ns3:atemp>
            <ns3:hr>104</ns3:hr>
          </ns3:TrackPointExtension>
        </extensions>
      </trkpt>
      <trkpt lat="36.8213076889514923095703125" lon="-118.39619748294353485107421875">
        <ele>3543.800048828125</ele>
        <time>2021-06-27T15:10:29.000Z</time>
        <extensions>
          <ns3:TrackPointExtension>
            <ns3:atemp>23.0</ns3:atemp>
            <ns3:hr>103</ns3:hr>
          </ns3:TrackPointExtension>
        </extensions>
      </trkpt>
      <trkpt lat="36.8213076889514923095703125" lon="-118.39619907550513744354248046875">
        <ele>3544.60009765625</ele>
        <time>2021-06-27T15:10:36.000Z</time>
        <extensions>
          <ns3:TrackPointExtension>
            <ns3:atemp>23.0</ns3:atemp>
            <ns3:hr>104</ns3:hr>
          </ns3:TrackPointExtension>
        </extensions>
      </trkpt>
      <trkpt lat="36.8213076889514923095703125" lon="-118.39619907550513744354248046875">
        <ele>3545.60009765625</ele>
        <time>2021-06-27T15:10:39.000Z</time>
        <extensions>
          <ns3:TrackPointExtension>
            <ns3:atemp>23.0</ns3:atemp>
            <ns3:hr>105</ns3:hr>
          </ns3:TrackPointExtension>
        </extensions>
      </trkpt>
      <trkpt lat="36.8213088624179363250732421875" lon="-118.39619723148643970489501953125">
        <ele>3547</ele>
        <time>2021-06-27T15:10:46.000Z</time>
        <extensions>
          <ns3:TrackPointExtension>
            <ns3:atemp>23.0</ns3:atemp>
            <ns3:hr>105</ns3:hr>
          </ns3:TrackPointExtension>
        </extensions>
      </trkpt>
      <trkpt lat="36.82131280191242694854736328125" lon="-118.396188430488109588623046875">
        <ele>3547.800048828125</ele>
        <time>2021-06-27T15:10:50.000Z</time>
        <extensions>
          <ns3:TrackPointExtension>
            <ns3:atemp>23.0</ns3:atemp>
            <ns3:hr>108</ns3:hr>
          </ns3:TrackPointExtension>
        </extensions>
      </trkpt>
      <trkpt lat="36.82131464593112468719482421875" lon="-118.39618767611682415008544921875">
        <ele>3548</ele>
        <time>2021-06-27T15:10:51.000Z</time>
        <extensions>
          <ns3:TrackPointExtension>
            <ns3:atemp>23.0</ns3:atemp>
            <ns3:hr>109</ns3:hr>
          </ns3:TrackPointExtension>
        </extensions>
      </trkpt>
      <trkpt lat="36.82131565175950527191162109375" lon="-118.39617158286273479461669921875">
        <ele>3549.199951171875</ele>
        <time>2021-06-27T15:10:55.000Z</time>
        <extensions>
          <ns3:TrackPointExtension>
            <ns3:atemp>23.0</ns3:atemp>
            <ns3:hr>110</ns3:hr>
          </ns3:TrackPointExtension>
        </extensions>
      </trkpt>
      <trkpt lat="36.82131565175950527191162109375" lon="-118.3961373008787631988525390625">
        <ele>3549.60009765625</ele>
        <time>2021-06-27T15:11:03.000Z</time>
        <extensions>
          <ns3:TrackPointExtension>
            <ns3:atemp>23.0</ns3:atemp>
            <ns3:hr>113</ns3:hr>
          </ns3:TrackPointExtension>
        </extensions>
      </trkpt>
      <trkpt lat="36.8213155679404735565185546875" lon="-118.39612816460430622100830078125">
        <ele>3549.800048828125</ele>
        <time>2021-06-27T15:11:06.000Z</time>
        <extensions>
          <ns3:TrackPointExtension>
            <ns3:atemp>23.0</ns3:atemp>
            <ns3:hr>116</ns3:hr>
          </ns3:TrackPointExtension>
        </extensions>
      </trkpt>
      <trkpt lat="36.8213152326643466949462890625" lon="-118.3961217105388641357421875">
        <ele>3550.199951171875</ele>
        <time>2021-06-27T15:11:08.000Z</time>
        <extensions>
          <ns3:TrackPointExtension>
            <ns3:atemp>23.0</ns3:atemp>
            <ns3:hr>115</ns3:hr>
          </ns3:TrackPointExtension>
        </extensions>
      </trkpt>
      <trkpt lat="36.8213105387985706329345703125" lon="-118.3961145021021366119384765625">
        <ele>3551.199951171875</ele>
        <time>2021-06-27T15:11:13.000Z</time>
        <extensions>
          <ns3:TrackPointExtension>
            <ns3:atemp>23.0</ns3:atemp>
            <ns3:hr>113</ns3:hr>
          </ns3:TrackPointExtension>
        </extensions>
      </trkpt>
      <trkpt lat="36.82130995206534862518310546875" lon="-118.39610134251415729522705078125">
        <ele>3552.39990234375</ele>
        <time>2021-06-27T15:11:20.000Z</time>
        <extensions>
          <ns3:TrackPointExtension>
            <ns3:atemp>23.0</ns3:atemp>
            <ns3:hr>111</ns3:hr>
          </ns3:TrackPointExtension>
        </extensions>
      </trkpt>
      <trkpt lat="36.82131397537887096405029296875" lon="-118.39608122594654560089111328125">
        <ele>3553.60009765625</ele>
        <time>2021-06-27T15:11:28.000Z</time>
        <extensions>
          <ns3:TrackPointExtension>
            <ns3:atemp>23.0</ns3:atemp>
            <ns3:hr>109</ns3:hr>
          </ns3:TrackPointExtension>
        </extensions>
      </trkpt>
      <trkpt lat="36.82133342139422893524169921875" lon="-118.3960474468767642974853515625">
        <ele>3554.60009765625</ele>
        <time>2021-06-27T15:11:33.000Z</time>
        <extensions>
          <ns3:TrackPointExtension>
            <ns3:atemp>23.0</ns3:atemp>
            <ns3:hr>111</ns3:hr>
          </ns3:TrackPointExtension>
        </extensions>
      </trkpt>
      <trkpt lat="36.82135303504765033721923828125" lon="-118.39602087624371051788330078125">
        <ele>3555.60009765625</ele>
        <time>2021-06-27T15:11:40.000Z</time>
        <extensions>
          <ns3:TrackPointExtension>
            <ns3:atemp>23.0</ns3:atemp>
            <ns3:hr>109</ns3:hr>
          </ns3:TrackPointExtension>
        </extensions>
      </trkpt>
      <trkpt lat="36.82135303504765033721923828125" lon="-118.39602087624371051788330078125">
        <ele>3555.800048828125</ele>
        <time>2021-06-27T15:11:42.000Z</time>
        <extensions>
          <ns3:TrackPointExtension>
            <ns3:atemp>23.0</ns3:atemp>
            <ns3:hr>109</ns3:hr>
          </ns3:TrackPointExtension>
        </extensions>
      </trkpt>
      <trkpt lat="36.82135303504765033721923828125" lon="-118.39602087624371051788330078125">
        <ele>3556.39990234375</ele>
        <time>2021-06-27T15:11:47.000Z</time>
        <extensions>
          <ns3:TrackPointExtension>
            <ns3:atemp>23.0</ns3:atemp>
            <ns3:hr>113</ns3:hr>
          </ns3:TrackPointExtension>
        </extensions>
      </trkpt>
      <trkpt lat="36.82135303504765033721923828125" lon="-118.39602087624371051788330078125">
        <ele>3557</ele>
        <time>2021-06-27T15:11:49.000Z</time>
        <extensions>
          <ns3:TrackPointExtension>
            <ns3:atemp>23.0</ns3:atemp>
            <ns3:hr>109</ns3:hr>
          </ns3:TrackPointExtension>
        </extensions>
      </trkpt>
      <trkpt lat="36.82135303504765033721923828125" lon="-118.3960186131298542022705078125">
        <ele>3557.60009765625</ele>
        <time>2021-06-27T15:11:56.000Z</time>
        <extensions>
          <ns3:TrackPointExtension>
            <ns3:atemp>23.0</ns3:atemp>
            <ns3:hr>112</ns3:hr>
          </ns3:TrackPointExtension>
        </extensions>
      </trkpt>
      <trkpt lat="36.82135655544698238372802734375" lon="-118.39601417072117328643798828125">
        <ele>3557.800048828125</ele>
        <time>2021-06-27T15:12:00.000Z</time>
        <extensions>
          <ns3:TrackPointExtension>
            <ns3:atemp>23.0</ns3:atemp>
            <ns3:hr>109</ns3:hr>
          </ns3:TrackPointExtension>
        </extensions>
      </trkpt>
      <trkpt lat="36.82135672308504581451416015625" lon="-118.39600813575088977813720703125">
        <ele>3557.800048828125</ele>
        <time>2021-06-27T15:12:04.000Z</time>
        <extensions>
          <ns3:TrackPointExtension>
            <ns3:atemp>23.0</ns3:atemp>
            <ns3:hr>106</ns3:hr>
          </ns3:TrackPointExtension>
        </extensions>
      </trkpt>
      <trkpt lat="36.8213574774563312530517578125" lon="-118.396007381379604339599609375">
        <ele>3557.800048828125</ele>
        <time>2021-06-27T15:12:06.000Z</time>
        <extensions>
          <ns3:TrackPointExtension>
            <ns3:atemp>23.0</ns3:atemp>
            <ns3:hr>103</ns3:hr>
          </ns3:TrackPointExtension>
        </extensions>
      </trkpt>
      <trkpt lat="36.82136158458888530731201171875" lon="-118.396007381379604339599609375">
        <ele>3557.60009765625</ele>
        <time>2021-06-27T15:12:10.000Z</time>
        <extensions>
          <ns3:TrackPointExtension>
            <ns3:atemp>23.0</ns3:atemp>
            <ns3:hr>106</ns3:hr>
          </ns3:TrackPointExtension>
        </extensions>
      </trkpt>
      <trkpt lat="36.82136342860758304595947265625" lon="-118.39600704610347747802734375">
        <ele>3557.60009765625</ele>
        <time>2021-06-27T15:12:12.000Z</time>
        <extensions>
          <ns3:TrackPointExtension>
            <ns3:atemp>23.0</ns3:atemp>
            <ns3:hr>110</ns3:hr>
          </ns3:TrackPointExtension>
        </extensions>
      </trkpt>
      <trkpt lat="36.821363680064678192138671875" lon="-118.39600696228444576263427734375">
        <ele>3557.39990234375</ele>
        <time>2021-06-27T15:12:13.000Z</time>
        <extensions>
          <ns3:TrackPointExtension>
            <ns3:atemp>23.0</ns3:atemp>
            <ns3:hr>113</ns3:hr>
          </ns3:TrackPointExtension>
        </extensions>
      </trkpt>
      <trkpt lat="36.82136468589305877685546875" lon="-118.396006710827350616455078125">
        <ele>3557.800048828125</ele>
        <time>2021-06-27T15:12:15.000Z</time>
        <extensions>
          <ns3:TrackPointExtension>
            <ns3:atemp>23.0</ns3:atemp>
            <ns3:hr>117</ns3:hr>
          </ns3:TrackPointExtension>
        </extensions>
      </trkpt>
      <trkpt lat="36.8213655240833759307861328125" lon="-118.39600578881800174713134765625">
        <ele>3557.800048828125</ele>
        <time>2021-06-27T15:12:17.000Z</time>
        <extensions>
          <ns3:TrackPointExtension>
            <ns3:atemp>23.0</ns3:atemp>
            <ns3:hr>120</ns3:hr>
          </ns3:TrackPointExtension>
        </extensions>
      </trkpt>
      <trkpt lat="36.8213648535311222076416015625" lon="-118.39600503444671630859375">
        <ele>3558</ele>
        <time>2021-06-27T15:12:20.000Z</time>
        <extensions>
          <ns3:TrackPointExtension>
            <ns3:atemp>23.0</ns3:atemp>
            <ns3:hr>121</ns3:hr>
          </ns3:TrackPointExtension>
        </extensions>
      </trkpt>
      <trkpt lat="36.8213638477027416229248046875" lon="-118.39600503444671630859375">
        <ele>3558.60009765625</ele>
        <time>2021-06-27T15:12:27.000Z</time>
        <extensions>
          <ns3:TrackPointExtension>
            <ns3:atemp>23.0</ns3:atemp>
            <ns3:hr>118</ns3:hr>
          </ns3:TrackPointExtension>
        </extensions>
      </trkpt>
      <trkpt lat="36.8213638477027416229248046875" lon="-118.3959984965622425079345703125">
        <ele>3558.60009765625</ele>
        <time>2021-06-27T15:12:32.000Z</time>
        <extensions>
          <ns3:TrackPointExtension>
            <ns3:atemp>23.0</ns3:atemp>
            <ns3:hr>115</ns3:hr>
          </ns3:TrackPointExtension>
        </extensions>
      </trkpt>
      <trkpt lat="36.8213604949414730072021484375" lon="-118.3959971554577350616455078125">
        <ele>3559.199951171875</ele>
        <time>2021-06-27T15:12:41.000Z</time>
        <extensions>
          <ns3:TrackPointExtension>
            <ns3:atemp>23.0</ns3:atemp>
            <ns3:hr>117</ns3:hr>
          </ns3:TrackPointExtension>
        </extensions>
      </trkpt>
      <trkpt lat="36.82136041112244129180908203125" lon="-118.39599631726741790771484375">
        <ele>3560.39990234375</ele>
        <time>2021-06-27T15:12:46.000Z</time>
        <extensions>
          <ns3:TrackPointExtension>
            <ns3:atemp>23.0</ns3:atemp>
            <ns3:hr>119</ns3:hr>
          </ns3:TrackPointExtension>
        </extensions>
      </trkpt>
      <trkpt lat="36.82136041112244129180908203125" lon="-118.3959921263158321380615234375">
        <ele>3561.60009765625</ele>
        <time>2021-06-27T15:12:53.000Z</time>
        <extensions>
          <ns3:TrackPointExtension>
            <ns3:atemp>23.0</ns3:atemp>
            <ns3:hr>120</ns3:hr>
          </ns3:TrackPointExtension>
        </extensions>
      </trkpt>
      <trkpt lat="36.821362674236297607421875" lon="-118.39595474302768707275390625">
        <ele>3562.800048828125</ele>
        <time>2021-06-27T15:13:00.000Z</time>
        <extensions>
          <ns3:TrackPointExtension>
            <ns3:atemp>23.0</ns3:atemp>
            <ns3:hr>119</ns3:hr>
          </ns3:TrackPointExtension>
        </extensions>
      </trkpt>
      <trkpt lat="36.8213678710162639617919921875" lon="-118.39593370445072650909423828125">
        <ele>3563.800048828125</ele>
        <time>2021-06-27T15:13:05.000Z</time>
        <extensions>
          <ns3:TrackPointExtension>
            <ns3:atemp>23.0</ns3:atemp>
            <ns3:hr>118</ns3:hr>
          </ns3:TrackPointExtension>
        </extensions>
      </trkpt>
      <trkpt lat="36.8213698826730251312255859375" lon="-118.39592129923403263092041015625">
        <ele>3564.39990234375</ele>
        <time>2021-06-27T15:13:10.000Z</time>
        <extensions>
          <ns3:TrackPointExtension>
            <ns3:atemp>23.0</ns3:atemp>
            <ns3:hr>115</ns3:hr>
          </ns3:TrackPointExtension>
        </extensions>
      </trkpt>
      <trkpt lat="36.82137005031108856201171875" lon="-118.395915515720844268798828125">
        <ele>3564.39990234375</ele>
        <time>2021-06-27T15:13:11.000Z</time>
        <extensions>
          <ns3:TrackPointExtension>
            <ns3:atemp>23.0</ns3:atemp>
            <ns3:hr>118</ns3:hr>
          </ns3:TrackPointExtension>
        </extensions>
      </trkpt>
      <trkpt lat="36.8213712237775325775146484375" lon="-118.395911492407321929931640625">
        <ele>3564.800048828125</ele>
        <time>2021-06-27T15:13:12.000Z</time>
        <extensions>
          <ns3:TrackPointExtension>
            <ns3:atemp>23.0</ns3:atemp>
            <ns3:hr>118</ns3:hr>
          </ns3:TrackPointExtension>
        </extensions>
      </trkpt>
      <trkpt lat="36.8213769234716892242431640625" lon="-118.39588777162134647369384765625">
        <ele>3565.800048828125</ele>
        <time>2021-06-27T15:13:19.000Z</time>
        <extensions>
          <ns3:TrackPointExtension>
            <ns3:atemp>23.0</ns3:atemp>
            <ns3:hr>115</ns3:hr>
          </ns3:TrackPointExtension>
        </extensions>
      </trkpt>
      <trkpt lat="36.82138270698487758636474609375" lon="-118.39586597867310047149658203125">
        <ele>3567</ele>
        <time>2021-06-27T15:13:25.000Z</time>
        <extensions>
          <ns3:TrackPointExtension>
            <ns3:atemp>23.0</ns3:atemp>
            <ns3:hr>116</ns3:hr>
          </ns3:TrackPointExtension>
        </extensions>
      </trkpt>
      <trkpt lat="36.82138455100357532501220703125" lon="-118.3958603627979755401611328125">
        <ele>3567.60009765625</ele>
        <time>2021-06-27T15:13:27.000Z</time>
        <extensions>
          <ns3:TrackPointExtension>
            <ns3:atemp>23.0</ns3:atemp>
            <ns3:hr>119</ns3:hr>
          </ns3:TrackPointExtension>
        </extensions>
      </trkpt>
      <trkpt lat="36.82138639502227306365966796875" lon="-118.39584938250482082366943359375">
        <ele>3568</ele>
        <time>2021-06-27T15:13:30.000Z</time>
        <extensions>
          <ns3:TrackPointExtension>
            <ns3:atemp>23.0</ns3:atemp>
            <ns3:hr>122</ns3:hr>
          </ns3:TrackPointExtension>
        </extensions>
      </trkpt>
      <trkpt lat="36.82138882577419281005859375" lon="-118.39582608081400394439697265625">
        <ele>3568.39990234375</ele>
        <time>2021-06-27T15:13:42.000Z</time>
        <extensions>
          <ns3:TrackPointExtension>
            <ns3:atemp>23.0</ns3:atemp>
            <ns3:hr>119</ns3:hr>
          </ns3:TrackPointExtension>
        </extensions>
      </trkpt>
      <trkpt lat="36.82138773612678050994873046875" lon="-118.39581769891083240509033203125">
        <ele>3568.60009765625</ele>
        <time>2021-06-27T15:13:45.000Z</time>
        <extensions>
          <ns3:TrackPointExtension>
            <ns3:atemp>23.0</ns3:atemp>
            <ns3:hr>118</ns3:hr>
          </ns3:TrackPointExtension>
        </extensions>
      </trkpt>
      <trkpt lat="36.821387819945812225341796875" lon="-118.39581417851150035858154296875">
        <ele>3569</ele>
        <time>2021-06-27T15:13:48.000Z</time>
        <extensions>
          <ns3:TrackPointExtension>
            <ns3:atemp>23.0</ns3:atemp>
            <ns3:hr>119</ns3:hr>
          </ns3:TrackPointExtension>
        </extensions>
      </trkpt>
      <trkpt lat="36.821389161050319671630859375" lon="-118.395809568464756011962890625">
        <ele>3570.39990234375</ele>
        <time>2021-06-27T15:13:56.000Z</time>
        <extensions>
          <ns3:TrackPointExtension>
            <ns3:atemp>23.0</ns3:atemp>
            <ns3:hr>118</ns3:hr>
          </ns3:TrackPointExtension>
        </extensions>
      </trkpt>
      <trkpt lat="36.82139125652611255645751953125" lon="-118.39579515159130096435546875">
        <ele>3571.60009765625</ele>
        <time>2021-06-27T15:14:06.000Z</time>
        <extensions>
          <ns3:TrackPointExtension>
            <ns3:atemp>23.0</ns3:atemp>
            <ns3:hr>117</ns3:hr>
          </ns3:TrackPointExtension>
        </extensions>
      </trkpt>
      <trkpt lat="36.82139561511576175689697265625" lon="-118.39578366838395595550537109375">
        <ele>3572.800048828125</ele>
        <time>2021-06-27T15:14:12.000Z</time>
        <extensions>
          <ns3:TrackPointExtension>
            <ns3:atemp>23.0</ns3:atemp>
            <ns3:hr>117</ns3:hr>
          </ns3:TrackPointExtension>
        </extensions>
      </trkpt>
      <trkpt lat="36.8214003928005695343017578125" lon="-118.39577143080532550811767578125">
        <ele>3573.800048828125</ele>
        <time>2021-06-27T15:14:16.000Z</time>
        <extensions>
          <ns3:TrackPointExtension>
            <ns3:atemp>23.0</ns3:atemp>
            <ns3:hr>117</ns3:hr>
          </ns3:TrackPointExtension>
        </extensions>
      </trkpt>
      <trkpt lat="36.8214057572185993194580078125" lon="-118.3957376517355442047119140625">
        <ele>3575.199951171875</ele>
        <time>2021-06-27T15:14:24.000Z</time>
        <extensions>
          <ns3:TrackPointExtension>
            <ns3:atemp>23.0</ns3:atemp>
            <ns3:hr>116</ns3:hr>
          </ns3:TrackPointExtension>
        </extensions>
      </trkpt>
      <trkpt lat="36.82141070254147052764892578125" lon="-118.3957182057201862335205078125">
        <ele>3575.60009765625</ele>
        <time>2021-06-27T15:14:29.000Z</time>
        <extensions>
          <ns3:TrackPointExtension>
            <ns3:atemp>23.0</ns3:atemp>
            <ns3:hr>113</ns3:hr>
          </ns3:TrackPointExtension>
        </extensions>
      </trkpt>
      <trkpt lat="36.82141254656016826629638671875" lon="-118.39570588432252407073974609375">
        <ele>3576.199951171875</ele>
        <time>2021-06-27T15:14:33.000Z</time>
        <extensions>
          <ns3:TrackPointExtension>
            <ns3:atemp>23.0</ns3:atemp>
            <ns3:hr>112</ns3:hr>
          </ns3:TrackPointExtension>
        </extensions>
      </trkpt>
      <trkpt lat="36.8214138038456439971923828125" lon="-118.3956778049468994140625">
        <ele>3577</ele>
        <time>2021-06-27T15:14:42.000Z</time>
        <extensions>
          <ns3:TrackPointExtension>
            <ns3:atemp>23.0</ns3:atemp>
            <ns3:hr>116</ns3:hr>
          </ns3:TrackPointExtension>
        </extensions>
      </trkpt>
      <trkpt lat="36.8214138038456439971923828125" lon="-118.3956752903759479522705078125">
        <ele>3577.199951171875</ele>
        <time>2021-06-27T15:14:43.000Z</time>
        <extensions>
          <ns3:TrackPointExtension>
            <ns3:atemp>23.0</ns3:atemp>
            <ns3:hr>114</ns3:hr>
          </ns3:TrackPointExtension>
        </extensions>
      </trkpt>
      <trkpt lat="36.82141363620758056640625" lon="-118.39566397480666637420654296875">
        <ele>3578.39990234375</ele>
        <time>2021-06-27T15:14:49.000Z</time>
        <extensions>
          <ns3:TrackPointExtension>
            <ns3:atemp>23.0</ns3:atemp>
            <ns3:hr>115</ns3:hr>
          </ns3:TrackPointExtension>
        </extensions>
      </trkpt>
      <trkpt lat="36.8214131332933902740478515625" lon="-118.39565676636993885040283203125">
        <ele>3579.60009765625</ele>
        <time>2021-06-27T15:14:57.000Z</time>
        <extensions>
          <ns3:TrackPointExtension>
            <ns3:atemp>24.0</ns3:atemp>
            <ns3:hr>118</ns3:hr>
          </ns3:TrackPointExtension>
        </extensions>
      </trkpt>
      <trkpt lat="36.8214131332933902740478515625" lon="-118.3956563472747802734375">
        <ele>3580</ele>
        <time>2021-06-27T15:15:00.000Z</time>
        <extensions>
          <ns3:TrackPointExtension>
            <ns3:atemp>23.0</ns3:atemp>
            <ns3:hr>121</ns3:hr>
          </ns3:TrackPointExtension>
        </extensions>
      </trkpt>
      <trkpt lat="36.82141296565532684326171875" lon="-118.3956558443605899810791015625">
        <ele>3580.800048828125</ele>
        <time>2021-06-27T15:15:06.000Z</time>
        <extensions>
          <ns3:TrackPointExtension>
            <ns3:atemp>24.0</ns3:atemp>
            <ns3:hr>122</ns3:hr>
          </ns3:TrackPointExtension>
        </extensions>
      </trkpt>
      <trkpt lat="36.82141288183629512786865234375" lon="-118.39565542526543140411376953125">
        <ele>3582</ele>
        <time>2021-06-27T15:15:10.000Z</time>
        <extensions>
          <ns3:TrackPointExtension>
            <ns3:atemp>23.0</ns3:atemp>
            <ns3:hr>122</ns3:hr>
          </ns3:TrackPointExtension>
        </extensions>
      </trkpt>
      <trkpt lat="36.8214127980172634124755859375" lon="-118.3956548385322093963623046875">
        <ele>3583.39990234375</ele>
        <time>2021-06-27T15:15:15.000Z</time>
        <extensions>
          <ns3:TrackPointExtension>
            <ns3:atemp>23.0</ns3:atemp>
            <ns3:hr>124</ns3:hr>
          </ns3:TrackPointExtension>
        </extensions>
      </trkpt>
      <trkpt lat="36.82141271419823169708251953125" lon="-118.39565458707511425018310546875">
        <ele>3584</ele>
        <time>2021-06-27T15:15:17.000Z</time>
        <extensions>
          <ns3:TrackPointExtension>
            <ns3:atemp>23.0</ns3:atemp>
            <ns3:hr>119</ns3:hr>
          </ns3:TrackPointExtension>
        </extensions>
      </trkpt>
      <trkpt lat="36.821412630379199981689453125" lon="-118.3956541679799556732177734375">
        <ele>3584</ele>
        <time>2021-06-27T15:15:20.000Z</time>
        <extensions>
          <ns3:TrackPointExtension>
            <ns3:atemp>23.0</ns3:atemp>
            <ns3:hr>122</ns3:hr>
          </ns3:TrackPointExtension>
        </extensions>
      </trkpt>
      <trkpt lat="36.82141254656016826629638671875" lon="-118.39565324597060680389404296875">
        <ele>3584</ele>
        <time>2021-06-27T15:15:26.000Z</time>
        <extensions>
          <ns3:TrackPointExtension>
            <ns3:atemp>23.0</ns3:atemp>
            <ns3:hr>118</ns3:hr>
          </ns3:TrackPointExtension>
        </extensions>
      </trkpt>
      <trkpt lat="36.82141221128404140472412109375" lon="-118.3956508152186870574951171875">
        <ele>3584.199951171875</ele>
        <time>2021-06-27T15:15:38.000Z</time>
        <extensions>
          <ns3:TrackPointExtension>
            <ns3:atemp>23.0</ns3:atemp>
            <ns3:hr>115</ns3:hr>
          </ns3:TrackPointExtension>
        </extensions>
      </trkpt>
      <trkpt lat="36.8214121274650096893310546875" lon="-118.3956494741141796112060546875">
        <ele>3584.39990234375</ele>
        <time>2021-06-27T15:15:44.000Z</time>
        <extensions>
          <ns3:TrackPointExtension>
            <ns3:atemp>23.0</ns3:atemp>
            <ns3:hr>114</ns3:hr>
          </ns3:TrackPointExtension>
        </extensions>
      </trkpt>
      <trkpt lat="36.821411959826946258544921875" lon="-118.39564821682870388031005859375">
        <ele>3584.800048828125</ele>
        <time>2021-06-27T15:15:50.000Z</time>
        <extensions>
          <ns3:TrackPointExtension>
            <ns3:atemp>24.0</ns3:atemp>
            <ns3:hr>117</ns3:hr>
          </ns3:TrackPointExtension>
        </extensions>
      </trkpt>
      <trkpt lat="36.821411959826946258544921875" lon="-118.3956477977335453033447265625">
        <ele>3584.800048828125</ele>
        <time>2021-06-27T15:15:52.000Z</time>
        <extensions>
          <ns3:TrackPointExtension>
            <ns3:atemp>23.0</ns3:atemp>
            <ns3:hr>121</ns3:hr>
          </ns3:TrackPointExtension>
        </extensions>
      </trkpt>
      <trkpt lat="36.82141187600791454315185546875" lon="-118.3956471271812915802001953125">
        <ele>3584.60009765625</ele>
        <time>2021-06-27T15:15:55.000Z</time>
        <extensions>
          <ns3:TrackPointExtension>
            <ns3:atemp>24.0</ns3:atemp>
            <ns3:hr>124</ns3:hr>
          </ns3:TrackPointExtension>
        </extensions>
      </trkpt>
      <trkpt lat="36.82141187600791454315185546875" lon="-118.3956457860767841339111328125">
        <ele>3584.60009765625</ele>
        <time>2021-06-27T15:16:01.000Z</time>
        <extensions>
          <ns3:TrackPointExtension>
            <ns3:atemp>24.0</ns3:atemp>
            <ns3:hr>121</ns3:hr>
          </ns3:TrackPointExtension>
        </extensions>
      </trkpt>
      <trkpt lat="36.82141187600791454315185546875" lon="-118.39564519934356212615966796875">
        <ele>3584.60009765625</ele>
        <time>2021-06-27T15:16:04.000Z</time>
        <extensions>
          <ns3:TrackPointExtension>
            <ns3:atemp>24.0</ns3:atemp>
            <ns3:hr>118</ns3:hr>
          </ns3:TrackPointExtension>
        </extensions>
      </trkpt>
      <trkpt lat="36.82141187600791454315185546875" lon="-118.3956447802484035491943359375">
        <ele>3584.60009765625</ele>
        <time>2021-06-27T15:16:06.000Z</time>
        <extensions>
          <ns3:TrackPointExtension>
            <ns3:atemp>24.0</ns3:atemp>
            <ns3:hr>115</ns3:hr>
          </ns3:TrackPointExtension>
        </extensions>
      </trkpt>
      <trkpt lat="36.821411959826946258544921875" lon="-118.39564369060099124908447265625">
        <ele>3585.800048828125</ele>
        <time>2021-06-27T15:16:11.000Z</time>
        <extensions>
          <ns3:TrackPointExtension>
            <ns3:atemp>24.0</ns3:atemp>
            <ns3:hr>115</ns3:hr>
          </ns3:TrackPointExtension>
        </extensions>
      </trkpt>
      <trkpt lat="36.82141221128404140472412109375" lon="-118.39564218185842037200927734375">
        <ele>3587</ele>
        <time>2021-06-27T15:16:18.000Z</time>
        <extensions>
          <ns3:TrackPointExtension>
            <ns3:atemp>23.0</ns3:atemp>
            <ns3:hr>113</ns3:hr>
          </ns3:TrackPointExtension>
        </extensions>
      </trkpt>
      <trkpt lat="36.8214124627411365509033203125" lon="-118.3956410922110080718994140625">
        <ele>3588</ele>
        <time>2021-06-27T15:16:23.000Z</time>
        <extensions>
          <ns3:TrackPointExtension>
            <ns3:atemp>23.0</ns3:atemp>
            <ns3:hr>114</ns3:hr>
          </ns3:TrackPointExtension>
        </extensions>
      </trkpt>
      <trkpt lat="36.8214127980172634124755859375" lon="-118.3956400863826274871826171875">
        <ele>3589</ele>
        <time>2021-06-27T15:16:27.000Z</time>
        <extensions>
          <ns3:TrackPointExtension>
            <ns3:atemp>23.0</ns3:atemp>
            <ns3:hr>117</ns3:hr>
          </ns3:TrackPointExtension>
        </extensions>
      </trkpt>
      <trkpt lat="36.82141304947435855865478515625" lon="-118.3956394158303737640380859375">
        <ele>3589.199951171875</ele>
        <time>2021-06-27T15:16:30.000Z</time>
        <extensions>
          <ns3:TrackPointExtension>
            <ns3:atemp>23.0</ns3:atemp>
            <ns3:hr>120</ns3:hr>
          </ns3:TrackPointExtension>
        </extensions>
      </trkpt>
      <trkpt lat="36.82141958735883235931396484375" lon="-118.39561988599598407745361328125">
        <ele>3589.800048828125</ele>
        <time>2021-06-27T15:16:31.000Z</time>
        <extensions>
          <ns3:TrackPointExtension>
            <ns3:atemp>23.0</ns3:atemp>
            <ns3:hr>123</ns3:hr>
          </ns3:TrackPointExtension>
        </extensions>
      </trkpt>
      <trkpt lat="36.8214218504726886749267578125" lon="-118.39559742249548435211181640625">
        <ele>3590</ele>
        <time>2021-06-27T15:16:32.000Z</time>
        <extensions>
          <ns3:TrackPointExtension>
            <ns3:atemp>23.0</ns3:atemp>
            <ns3:hr>120</ns3:hr>
          </ns3:TrackPointExtension>
        </extensions>
      </trkpt>
      <trkpt lat="36.82142578996717929840087890625" lon="-118.3955763839185237884521484375">
        <ele>3590</ele>
        <time>2021-06-27T15:16:34.000Z</time>
        <extensions>
          <ns3:TrackPointExtension>
            <ns3:atemp>23.0</ns3:atemp>
            <ns3:hr>124</ns3:hr>
          </ns3:TrackPointExtension>
        </extensions>
      </trkpt>
      <trkpt lat="36.821430735290050506591796875" lon="-118.3955619670450687408447265625">
        <ele>3590</ele>
        <time>2021-06-27T15:16:35.000Z</time>
        <extensions>
          <ns3:TrackPointExtension>
            <ns3:atemp>23.0</ns3:atemp>
            <ns3:hr>123</ns3:hr>
          </ns3:TrackPointExtension>
        </extensions>
      </trkpt>
      <trkpt lat="36.82143903337419033050537109375" lon="-118.39552483521401882171630859375">
        <ele>3590.39990234375</ele>
        <time>2021-06-27T15:16:37.000Z</time>
        <extensions>
          <ns3:TrackPointExtension>
            <ns3:atemp>23.0</ns3:atemp>
            <ns3:hr>124</ns3:hr>
          </ns3:TrackPointExtension>
        </extensions>
      </trkpt>
      <trkpt lat="36.8214453198015689849853515625" lon="-118.3954975940287113189697265625">
        <ele>3591</ele>
        <time>2021-06-27T15:16:40.000Z</time>
        <extensions>
          <ns3:TrackPointExtension>
            <ns3:atemp>23.0</ns3:atemp>
            <ns3:hr>123</ns3:hr>
          </ns3:TrackPointExtension>
        </extensions>
      </trkpt>
      <trkpt lat="36.821466945111751556396484375" lon="-118.39543917216360569000244140625">
        <ele>3592.199951171875</ele>
        <time>2021-06-27T15:16:48.000Z</time>
        <extensions>
          <ns3:TrackPointExtension>
            <ns3:atemp>23.0</ns3:atemp>
            <ns3:hr>124</ns3:hr>
          </ns3:TrackPointExtension>
        </extensions>
      </trkpt>
      <trkpt lat="36.821466945111751556396484375" lon="-118.39543229900300502777099609375">
        <ele>3593.199951171875</ele>
        <time>2021-06-27T15:16:50.000Z</time>
        <extensions>
          <ns3:TrackPointExtension>
            <ns3:atemp>23.0</ns3:atemp>
            <ns3:hr>125</ns3:hr>
          </ns3:TrackPointExtension>
        </extensions>
      </trkpt>
      <trkpt lat="36.821466945111751556396484375" lon="-118.3954288624227046966552734375">
        <ele>3593.60009765625</ele>
        <time>2021-06-27T15:16:52.000Z</time>
        <extensions>
          <ns3:TrackPointExtension>
            <ns3:atemp>23.0</ns3:atemp>
            <ns3:hr>122</ns3:hr>
          </ns3:TrackPointExtension>
        </extensions>
      </trkpt>
      <trkpt lat="36.82146904058754444122314453125" lon="-118.39542693458497524261474609375">
        <ele>3594</ele>
        <time>2021-06-27T15:16:56.000Z</time>
        <extensions>
          <ns3:TrackPointExtension>
            <ns3:atemp>23.0</ns3:atemp>
            <ns3:hr>125</ns3:hr>
          </ns3:TrackPointExtension>
        </extensions>
      </trkpt>
      <trkpt lat="36.82146929204463958740234375" lon="-118.39542634785175323486328125">
        <ele>3594.199951171875</ele>
        <time>2021-06-27T15:16:58.000Z</time>
        <extensions>
          <ns3:TrackPointExtension>
            <ns3:atemp>23.0</ns3:atemp>
            <ns3:hr>125</ns3:hr>
          </ns3:TrackPointExtension>
        </extensions>
      </trkpt>
      <trkpt lat="36.82146929204463958740234375" lon="-118.3954214863479137420654296875">
        <ele>3595.39990234375</ele>
        <time>2021-06-27T15:17:05.000Z</time>
        <extensions>
          <ns3:TrackPointExtension>
            <ns3:atemp>24.0</ns3:atemp>
            <ns3:hr>125</ns3:hr>
          </ns3:TrackPointExtension>
        </extensions>
      </trkpt>
      <trkpt lat="36.82146870531141757965087890625" lon="-118.3954067341983318328857421875">
        <ele>3596.39990234375</ele>
        <time>2021-06-27T15:17:10.000Z</time>
        <extensions>
          <ns3:TrackPointExtension>
            <ns3:atemp>23.0</ns3:atemp>
            <ns3:hr>126</ns3:hr>
          </ns3:TrackPointExtension>
        </extensions>
      </trkpt>
      <trkpt lat="36.82146837003529071807861328125" lon="-118.39540380053222179412841796875">
        <ele>3597</ele>
        <time>2021-06-27T15:17:13.000Z</time>
        <extensions>
          <ns3:TrackPointExtension>
            <ns3:atemp>24.0</ns3:atemp>
            <ns3:hr>129</ns3:hr>
          </ns3:TrackPointExtension>
        </extensions>
      </trkpt>
      <trkpt lat="36.82146870531141757965087890625" lon="-118.3953728713095188140869140625">
        <ele>3597.60009765625</ele>
        <time>2021-06-27T15:17:22.000Z</time>
        <extensions>
          <ns3:TrackPointExtension>
            <ns3:atemp>24.0</ns3:atemp>
            <ns3:hr>126</ns3:hr>
          </ns3:TrackPointExtension>
        </extensions>
      </trkpt>
      <trkpt lat="36.82146753184497356414794921875" lon="-118.39536004699766635894775390625">
        <ele>3598.39990234375</ele>
        <time>2021-06-27T15:17:26.000Z</time>
        <extensions>
          <ns3:TrackPointExtension>
            <ns3:atemp>24.0</ns3:atemp>
            <ns3:hr>123</ns3:hr>
          </ns3:TrackPointExtension>
        </extensions>
      </trkpt>
      <trkpt lat="36.8214671127498149871826171875" lon="-118.39535929262638092041015625">
        <ele>3598.800048828125</ele>
        <time>2021-06-27T15:17:27.000Z</time>
        <extensions>
          <ns3:TrackPointExtension>
            <ns3:atemp>24.0</ns3:atemp>
            <ns3:hr>122</ns3:hr>
          </ns3:TrackPointExtension>
        </extensions>
      </trkpt>
      <trkpt lat="36.82146702893078327178955078125" lon="-118.39535870589315891265869140625">
        <ele>3599</ele>
        <time>2021-06-27T15:17:29.000Z</time>
        <extensions>
          <ns3:TrackPointExtension>
            <ns3:atemp>24.0</ns3:atemp>
            <ns3:hr>119</ns3:hr>
          </ns3:TrackPointExtension>
        </extensions>
      </trkpt>
      <trkpt lat="36.82146702893078327178955078125" lon="-118.3953577838838100433349609375">
        <ele>3599.39990234375</ele>
        <time>2021-06-27T15:17:31.000Z</time>
        <extensions>
          <ns3:TrackPointExtension>
            <ns3:atemp>24.0</ns3:atemp>
            <ns3:hr>116</ns3:hr>
          </ns3:TrackPointExtension>
        </extensions>
      </trkpt>
      <trkpt lat="36.82146702893078327178955078125" lon="-118.3953545987606048583984375">
        <ele>3600</ele>
        <time>2021-06-27T15:17:35.000Z</time>
        <extensions>
          <ns3:TrackPointExtension>
            <ns3:atemp>24.0</ns3:atemp>
            <ns3:hr>113</ns3:hr>
          </ns3:TrackPointExtension>
        </extensions>
      </trkpt>
      <trkpt lat="36.82147373445332050323486328125" lon="-118.39533758349716663360595703125">
        <ele>3601.39990234375</ele>
        <time>2021-06-27T15:17:43.000Z</time>
        <extensions>
          <ns3:TrackPointExtension>
            <ns3:atemp>24.0</ns3:atemp>
            <ns3:hr>112</ns3:hr>
          </ns3:TrackPointExtension>
        </extensions>
      </trkpt>
      <trkpt lat="36.82147859595715999603271484375" lon="-118.395330123603343963623046875">
        <ele>3602.39990234375</ele>
        <time>2021-06-27T15:17:46.000Z</time>
        <extensions>
          <ns3:TrackPointExtension>
            <ns3:atemp>24.0</ns3:atemp>
            <ns3:hr>108</ns3:hr>
          </ns3:TrackPointExtension>
        </extensions>
      </trkpt>
      <trkpt lat="36.82148002088069915771484375" lon="-118.39532853104174137115478515625">
        <ele>3602.39990234375</ele>
        <time>2021-06-27T15:17:47.000Z</time>
        <extensions>
          <ns3:TrackPointExtension>
            <ns3:atemp>24.0</ns3:atemp>
            <ns3:hr>111</ns3:hr>
          </ns3:TrackPointExtension>
        </extensions>
      </trkpt>
      <trkpt lat="36.8214986287057399749755859375" lon="-118.3952920697629451751708984375">
        <ele>3603.39990234375</ele>
        <time>2021-06-27T15:18:01.000Z</time>
        <extensions>
          <ns3:TrackPointExtension>
            <ns3:atemp>24.0</ns3:atemp>
            <ns3:hr>110</ns3:hr>
          </ns3:TrackPointExtension>
        </extensions>
      </trkpt>
      <trkpt lat="36.82150055654346942901611328125" lon="-118.395289219915866851806640625">
        <ele>3604.60009765625</ele>
        <time>2021-06-27T15:18:04.000Z</time>
        <extensions>
          <ns3:TrackPointExtension>
            <ns3:atemp>23.0</ns3:atemp>
            <ns3:hr>111</ns3:hr>
          </ns3:TrackPointExtension>
        </extensions>
      </trkpt>
      <trkpt lat="36.821517236530780792236328125" lon="-118.39527857489883899688720703125">
        <ele>3605.39990234375</ele>
        <time>2021-06-27T15:18:10.000Z</time>
        <extensions>
          <ns3:TrackPointExtension>
            <ns3:atemp>23.0</ns3:atemp>
            <ns3:hr>114</ns3:hr>
          </ns3:TrackPointExtension>
        </extensions>
      </trkpt>
      <trkpt lat="36.82151815854012966156005859375" lon="-118.3952736295759677886962890625">
        <ele>3605.60009765625</ele>
        <time>2021-06-27T15:18:11.000Z</time>
        <extensions>
          <ns3:TrackPointExtension>
            <ns3:atemp>24.0</ns3:atemp>
            <ns3:hr>114</ns3:hr>
          </ns3:TrackPointExtension>
        </extensions>
      </trkpt>
      <trkpt lat="36.82152050547301769256591796875" lon="-118.3952515013515949249267578125">
        <ele>3605.800048828125</ele>
        <time>2021-06-27T15:18:17.000Z</time>
        <extensions>
          <ns3:TrackPointExtension>
            <ns3:atemp>24.0</ns3:atemp>
            <ns3:hr>111</ns3:hr>
          </ns3:TrackPointExtension>
        </extensions>
      </trkpt>
      <trkpt lat="36.82152050547301769256591796875" lon="-118.3952303789556026458740234375">
        <ele>3605.60009765625</ele>
        <time>2021-06-27T15:18:23.000Z</time>
        <extensions>
          <ns3:TrackPointExtension>
            <ns3:atemp>24.0</ns3:atemp>
            <ns3:hr>114</ns3:hr>
          </ns3:TrackPointExtension>
        </extensions>
      </trkpt>
      <trkpt lat="36.821520589292049407958984375" lon="-118.39522694237530231475830078125">
        <ele>3606</ele>
        <time>2021-06-27T15:18:28.000Z</time>
        <extensions>
          <ns3:TrackPointExtension>
            <ns3:atemp>24.0</ns3:atemp>
            <ns3:hr>117</ns3:hr>
          </ns3:TrackPointExtension>
        </extensions>
      </trkpt>
      <trkpt lat="36.8215210922062397003173828125" lon="-118.39522660709917545318603515625">
        <ele>3606.199951171875</ele>
        <time>2021-06-27T15:18:30.000Z</time>
        <extensions>
          <ns3:TrackPointExtension>
            <ns3:atemp>24.0</ns3:atemp>
            <ns3:hr>120</ns3:hr>
          </ns3:TrackPointExtension>
        </extensions>
      </trkpt>
      <trkpt lat="36.82152151130139827728271484375" lon="-118.39522576890885829925537109375">
        <ele>3606.60009765625</ele>
        <time>2021-06-27T15:18:32.000Z</time>
        <extensions>
          <ns3:TrackPointExtension>
            <ns3:atemp>24.0</ns3:atemp>
            <ns3:hr>122</ns3:hr>
          </ns3:TrackPointExtension>
        </extensions>
      </trkpt>
      <trkpt lat="36.82152167893946170806884765625" lon="-118.3952230028808116912841796875">
        <ele>3607.800048828125</ele>
        <time>2021-06-27T15:18:37.000Z</time>
        <extensions>
          <ns3:TrackPointExtension>
            <ns3:atemp>24.0</ns3:atemp>
            <ns3:hr>123</ns3:hr>
          </ns3:TrackPointExtension>
        </extensions>
      </trkpt>
      <trkpt lat="36.8215251155197620391845703125" lon="-118.39522174559533596038818359375">
        <ele>3609.199951171875</ele>
        <time>2021-06-27T15:18:42.000Z</time>
        <extensions>
          <ns3:TrackPointExtension>
            <ns3:atemp>23.0</ns3:atemp>
            <ns3:hr>122</ns3:hr>
          </ns3:TrackPointExtension>
        </extensions>
      </trkpt>
      <trkpt lat="36.82153609581291675567626953125" lon="-118.39522057212889194488525390625">
        <ele>3609.199951171875</ele>
        <time>2021-06-27T15:18:45.000Z</time>
        <extensions>
          <ns3:TrackPointExtension>
            <ns3:atemp>24.0</ns3:atemp>
            <ns3:hr>118</ns3:hr>
          </ns3:TrackPointExtension>
        </extensions>
      </trkpt>
      <trkpt lat="36.821545399725437164306640625" lon="-118.39520766399800777435302734375">
        <ele>3610</ele>
        <time>2021-06-27T15:18:49.000Z</time>
        <extensions>
          <ns3:TrackPointExtension>
            <ns3:atemp>24.0</ns3:atemp>
            <ns3:hr>115</ns3:hr>
          </ns3:TrackPointExtension>
        </extensions>
      </trkpt>
      <trkpt lat="36.82154833339154720306396484375" lon="-118.3951780758798122406005859375">
        <ele>3609.800048828125</ele>
        <time>2021-06-27T15:18:56.000Z</time>
        <extensions>
          <ns3:TrackPointExtension>
            <ns3:atemp>24.0</ns3:atemp>
            <ns3:hr>112</ns3:hr>
          </ns3:TrackPointExtension>
        </extensions>
      </trkpt>
      <trkpt lat="36.82154833339154720306396484375" lon="-118.395173214375972747802734375">
        <ele>3609.800048828125</ele>
        <time>2021-06-27T15:18:57.000Z</time>
        <extensions>
          <ns3:TrackPointExtension>
            <ns3:atemp>24.0</ns3:atemp>
            <ns3:hr>115</ns3:hr>
          </ns3:TrackPointExtension>
        </extensions>
      </trkpt>
      <trkpt lat="36.82154841721057891845703125" lon="-118.39516759850084781646728515625">
        <ele>3610</ele>
        <time>2021-06-27T15:18:59.000Z</time>
        <extensions>
          <ns3:TrackPointExtension>
            <ns3:atemp>24.0</ns3:atemp>
            <ns3:hr>118</ns3:hr>
          </ns3:TrackPointExtension>
        </extensions>
      </trkpt>
      <trkpt lat="36.8215477466583251953125" lon="-118.395163156092166900634765625">
        <ele>3610</ele>
        <time>2021-06-27T15:19:05.000Z</time>
        <extensions>
          <ns3:TrackPointExtension>
            <ns3:atemp>24.0</ns3:atemp>
            <ns3:hr>121</ns3:hr>
          </ns3:TrackPointExtension>
        </extensions>
      </trkpt>
      <trkpt lat="36.82154648937284946441650390625" lon="-118.39516273699700832366943359375">
        <ele>3609.800048828125</ele>
        <time>2021-06-27T15:19:08.000Z</time>
        <extensions>
          <ns3:TrackPointExtension>
            <ns3:atemp>24.0</ns3:atemp>
            <ns3:hr>124</ns3:hr>
          </ns3:TrackPointExtension>
        </extensions>
      </trkpt>
      <trkpt lat="36.821544729173183441162109375" lon="-118.39516256935894489288330078125">
        <ele>3610.199951171875</ele>
        <time>2021-06-27T15:19:12.000Z</time>
        <extensions>
          <ns3:TrackPointExtension>
            <ns3:atemp>24.0</ns3:atemp>
            <ns3:hr>126</ns3:hr>
          </ns3:TrackPointExtension>
        </extensions>
      </trkpt>
      <trkpt lat="36.82154330424964427947998046875" lon="-118.39517162181437015533447265625">
        <ele>3610.39990234375</ele>
        <time>2021-06-27T15:19:21.000Z</time>
        <extensions>
          <ns3:TrackPointExtension>
            <ns3:atemp>24.0</ns3:atemp>
            <ns3:hr>122</ns3:hr>
          </ns3:TrackPointExtension>
        </extensions>
      </trkpt>
      <trkpt lat="36.8215445615351200103759765625" lon="-118.39517422020435333251953125">
        <ele>3610.39990234375</ele>
        <time>2021-06-27T15:19:35.000Z</time>
        <extensions>
          <ns3:TrackPointExtension>
            <ns3:atemp>24.0</ns3:atemp>
            <ns3:hr>119</ns3:hr>
          </ns3:TrackPointExtension>
        </extensions>
      </trkpt>
      <trkpt lat="36.82154514826834201812744140625" lon="-118.39517262764275074005126953125">
        <ele>3610.39990234375</ele>
        <time>2021-06-27T15:19:40.000Z</time>
        <extensions>
          <ns3:TrackPointExtension>
            <ns3:atemp>24.0</ns3:atemp>
            <ns3:hr>116</ns3:hr>
          </ns3:TrackPointExtension>
        </extensions>
      </trkpt>
      <trkpt lat="36.82154615409672260284423828125" lon="-118.3951686881482601165771484375">
        <ele>3611</ele>
        <time>2021-06-27T15:20:02.000Z</time>
        <extensions>
          <ns3:TrackPointExtension>
            <ns3:atemp>24.0</ns3:atemp>
            <ns3:hr>113</ns3:hr>
          </ns3:TrackPointExtension>
        </extensions>
      </trkpt>
      <trkpt lat="36.82154615409672260284423828125" lon="-118.39516860432922840118408203125">
        <ele>3610.60009765625</ele>
        <time>2021-06-27T15:20:08.000Z</time>
        <extensions>
          <ns3:TrackPointExtension>
            <ns3:atemp>24.0</ns3:atemp>
            <ns3:hr>110</ns3:hr>
          </ns3:TrackPointExtension>
        </extensions>
      </trkpt>
      <trkpt lat="36.821546070277690887451171875" lon="-118.395168520510196685791015625">
        <ele>3610.60009765625</ele>
        <time>2021-06-27T15:20:11.000Z</time>
        <extensions>
          <ns3:TrackPointExtension>
            <ns3:atemp>24.0</ns3:atemp>
            <ns3:hr>106</ns3:hr>
          </ns3:TrackPointExtension>
        </extensions>
      </trkpt>
      <trkpt lat="36.821546070277690887451171875" lon="-118.395168520510196685791015625">
        <ele>3610.60009765625</ele>
        <time>2021-06-27T15:20:13.000Z</time>
        <extensions>
          <ns3:TrackPointExtension>
            <ns3:atemp>24.0</ns3:atemp>
            <ns3:hr>103</ns3:hr>
          </ns3:TrackPointExtension>
        </extensions>
      </trkpt>
      <trkpt lat="36.8215459026396274566650390625" lon="-118.39516818523406982421875">
        <ele>3610.60009765625</ele>
        <time>2021-06-27T15:20:25.000Z</time>
        <extensions>
          <ns3:TrackPointExtension>
            <ns3:atemp>24.0</ns3:atemp>
            <ns3:hr>103</ns3:hr>
          </ns3:TrackPointExtension>
        </extensions>
      </trkpt>
      <trkpt lat="36.8215459026396274566650390625" lon="-118.39516776613891124725341796875">
        <ele>3610.60009765625</ele>
        <time>2021-06-27T15:20:32.000Z</time>
        <extensions>
          <ns3:TrackPointExtension>
            <ns3:atemp>24.0</ns3:atemp>
            <ns3:hr>100</ns3:hr>
          </ns3:TrackPointExtension>
        </extensions>
      </trkpt>
      <trkpt lat="36.82154581882059574127197265625" lon="-118.39516759850084781646728515625">
        <ele>3610.60009765625</ele>
        <time>2021-06-27T15:20:35.000Z</time>
        <extensions>
          <ns3:TrackPointExtension>
            <ns3:atemp>24.0</ns3:atemp>
            <ns3:hr>96</ns3:hr>
          </ns3:TrackPointExtension>
        </extensions>
      </trkpt>
      <trkpt lat="36.82154682464897632598876953125" lon="-118.39516357518732547760009765625">
        <ele>3610.60009765625</ele>
        <time>2021-06-27T15:21:22.000Z</time>
        <extensions>
          <ns3:TrackPointExtension>
            <ns3:atemp>24.0</ns3:atemp>
            <ns3:hr>99</ns3:hr>
          </ns3:TrackPointExtension>
        </extensions>
      </trkpt>
      <trkpt lat="36.82154707610607147216796875" lon="-118.39516349136829376220703125">
        <ele>3610.60009765625</ele>
        <time>2021-06-27T15:21:24.000Z</time>
        <extensions>
          <ns3:TrackPointExtension>
            <ns3:atemp>24.0</ns3:atemp>
            <ns3:hr>102</ns3:hr>
          </ns3:TrackPointExtension>
        </extensions>
      </trkpt>
      <trkpt lat="36.82154866866767406463623046875" lon="-118.3951626531779766082763671875">
        <ele>3610.60009765625</ele>
        <time>2021-06-27T15:21:35.000Z</time>
        <extensions>
          <ns3:TrackPointExtension>
            <ns3:atemp>24.0</ns3:atemp>
            <ns3:hr>105</ns3:hr>
          </ns3:TrackPointExtension>
        </extensions>
      </trkpt>
      <trkpt lat="36.82154917158186435699462890625" lon="-118.3951623179018497467041015625">
        <ele>3610.60009765625</ele>
        <time>2021-06-27T15:21:38.000Z</time>
        <extensions>
          <ns3:TrackPointExtension>
            <ns3:atemp>24.0</ns3:atemp>
            <ns3:hr>108</ns3:hr>
          </ns3:TrackPointExtension>
        </extensions>
      </trkpt>
      <trkpt lat="36.82155135087668895721435546875" lon="-118.39516089297831058502197265625">
        <ele>3610.60009765625</ele>
        <time>2021-06-27T15:21:50.000Z</time>
        <extensions>
          <ns3:TrackPointExtension>
            <ns3:atemp>24.0</ns3:atemp>
            <ns3:hr>105</ns3:hr>
          </ns3:TrackPointExtension>
        </extensions>
      </trkpt>
      <trkpt lat="36.82155311107635498046875" lon="-118.39515946805477142333984375">
        <ele>3610.60009765625</ele>
        <time>2021-06-27T15:21:59.000Z</time>
        <extensions>
          <ns3:TrackPointExtension>
            <ns3:atemp>25.0</ns3:atemp>
            <ns3:hr>102</ns3:hr>
          </ns3:TrackPointExtension>
        </extensions>
      </trkpt>
      <trkpt lat="36.8215928412973880767822265625" lon="-118.395115546882152557373046875">
        <ele>3610.60009765625</ele>
        <time>2021-06-27T15:22:04.000Z</time>
        <extensions>
          <ns3:TrackPointExtension>
            <ns3:atemp>25.0</ns3:atemp>
            <ns3:hr>103</ns3:hr>
          </ns3:TrackPointExtension>
        </extensions>
      </trkpt>
      <trkpt lat="36.821663081645965576171875" lon="-118.39503533206880092620849609375">
        <ele>3619.60009765625</ele>
        <time>2021-06-27T15:22:10.000Z</time>
        <extensions>
          <ns3:TrackPointExtension>
            <ns3:atemp>25.0</ns3:atemp>
            <ns3:hr>102</ns3:hr>
          </ns3:TrackPointExtension>
        </extensions>
      </trkpt>
      <trkpt lat="36.82169149629771709442138671875" lon="-118.39500130154192447662353515625">
        <ele>3620.800048828125</ele>
        <time>2021-06-27T15:22:19.000Z</time>
        <extensions>
          <ns3:TrackPointExtension>
            <ns3:atemp>25.0</ns3:atemp>
            <ns3:hr>99</ns3:hr>
          </ns3:TrackPointExtension>
        </extensions>
      </trkpt>
      <trkpt lat="36.82169216684997081756591796875" lon="-118.39500046335160732269287109375">
        <ele>3620.800048828125</ele>
        <time>2021-06-27T15:22:20.000Z</time>
        <extensions>
          <ns3:TrackPointExtension>
            <ns3:atemp>25.0</ns3:atemp>
            <ns3:hr>102</ns3:hr>
          </ns3:TrackPointExtension>
        </extensions>
      </trkpt>
      <trkpt lat="36.82169350795447826385498046875" lon="-118.39499912224709987640380859375">
        <ele>3622</ele>
        <time>2021-06-27T15:22:24.000Z</time>
        <extensions>
          <ns3:TrackPointExtension>
            <ns3:atemp>24.0</ns3:atemp>
            <ns3:hr>102</ns3:hr>
          </ns3:TrackPointExtension>
        </extensions>
      </trkpt>
      <trkpt lat="36.82170054875314235687255859375" lon="-118.3949886448681354522705078125">
        <ele>3623</ele>
        <time>2021-06-27T15:22:30.000Z</time>
        <extensions>
          <ns3:TrackPointExtension>
            <ns3:atemp>24.0</ns3:atemp>
            <ns3:hr>103</ns3:hr>
          </ns3:TrackPointExtension>
        </extensions>
      </trkpt>
      <trkpt lat="36.8217038176953792572021484375" lon="-118.39498654939234256744384765625">
        <ele>3623.60009765625</ele>
        <time>2021-06-27T15:22:31.000Z</time>
        <extensions>
          <ns3:TrackPointExtension>
            <ns3:atemp>24.0</ns3:atemp>
            <ns3:hr>104</ns3:hr>
          </ns3:TrackPointExtension>
        </extensions>
      </trkpt>
      <trkpt lat="36.82170658372342586517333984375" lon="-118.39498185552656650543212890625">
        <ele>3623.60009765625</ele>
        <time>2021-06-27T15:22:32.000Z</time>
        <extensions>
          <ns3:TrackPointExtension>
            <ns3:atemp>24.0</ns3:atemp>
            <ns3:hr>107</ns3:hr>
          </ns3:TrackPointExtension>
        </extensions>
      </trkpt>
      <trkpt lat="36.82170859538018703460693359375" lon="-118.39497707784175872802734375">
        <ele>3623.60009765625</ele>
        <time>2021-06-27T15:22:33.000Z</time>
        <extensions>
          <ns3:TrackPointExtension>
            <ns3:atemp>24.0</ns3:atemp>
            <ns3:hr>110</ns3:hr>
          </ns3:TrackPointExtension>
        </extensions>
      </trkpt>
      <trkpt lat="36.8217100203037261962890625" lon="-118.39496945030987262725830078125">
        <ele>3624.60009765625</ele>
        <time>2021-06-27T15:22:35.000Z</time>
        <extensions>
          <ns3:TrackPointExtension>
            <ns3:atemp>24.0</ns3:atemp>
            <ns3:hr>113</ns3:hr>
          </ns3:TrackPointExtension>
        </extensions>
      </trkpt>
      <trkpt lat="36.8217185698449611663818359375" lon="-118.394958637654781341552734375">
        <ele>3626</ele>
        <time>2021-06-27T15:22:43.000Z</time>
        <extensions>
          <ns3:TrackPointExtension>
            <ns3:atemp>24.0</ns3:atemp>
            <ns3:hr>113</ns3:hr>
          </ns3:TrackPointExtension>
        </extensions>
      </trkpt>
      <trkpt lat="36.82172334752976894378662109375" lon="-118.39493122883141040802001953125">
        <ele>3627</ele>
        <time>2021-06-27T15:22:51.000Z</time>
        <extensions>
          <ns3:TrackPointExtension>
            <ns3:atemp>24.0</ns3:atemp>
            <ns3:hr>110</ns3:hr>
          </ns3:TrackPointExtension>
        </extensions>
      </trkpt>
      <trkpt lat="36.82172351516783237457275390625" lon="-118.394929133355617523193359375">
        <ele>3627.199951171875</ele>
        <time>2021-06-27T15:22:52.000Z</time>
        <extensions>
          <ns3:TrackPointExtension>
            <ns3:atemp>24.0</ns3:atemp>
            <ns3:hr>110</ns3:hr>
          </ns3:TrackPointExtension>
        </extensions>
      </trkpt>
      <trkpt lat="36.82173357345163822174072265625" lon="-118.39488781057298183441162109375">
        <ele>3627.800048828125</ele>
        <time>2021-06-27T15:23:07.000Z</time>
        <extensions>
          <ns3:TrackPointExtension>
            <ns3:atemp>25.0</ns3:atemp>
            <ns3:hr>110</ns3:hr>
          </ns3:TrackPointExtension>
        </extensions>
      </trkpt>
      <trkpt lat="36.8217336572706699371337890625" lon="-118.39488747529685497283935546875">
        <ele>3628.800048828125</ele>
        <time>2021-06-27T15:23:10.000Z</time>
        <extensions>
          <ns3:TrackPointExtension>
            <ns3:atemp>25.0</ns3:atemp>
            <ns3:hr>110</ns3:hr>
          </ns3:TrackPointExtension>
        </extensions>
      </trkpt>
      <trkpt lat="36.8217341601848602294921875" lon="-118.39488412253558635711669921875">
        <ele>3630.199951171875</ele>
        <time>2021-06-27T15:23:17.000Z</time>
        <extensions>
          <ns3:TrackPointExtension>
            <ns3:atemp>25.0</ns3:atemp>
            <ns3:hr>113</ns3:hr>
          </ns3:TrackPointExtension>
        </extensions>
      </trkpt>
      <trkpt lat="36.821735166013240814208984375" lon="-118.39488110505044460296630859375">
        <ele>3631</ele>
        <time>2021-06-27T15:23:23.000Z</time>
        <extensions>
          <ns3:TrackPointExtension>
            <ns3:atemp>25.0</ns3:atemp>
            <ns3:hr>117</ns3:hr>
          </ns3:TrackPointExtension>
        </extensions>
      </trkpt>
      <trkpt lat="36.82173592038452625274658203125" lon="-118.3948806859552860260009765625">
        <ele>3630.800048828125</ele>
        <time>2021-06-27T15:23:25.000Z</time>
        <extensions>
          <ns3:TrackPointExtension>
            <ns3:atemp>25.0</ns3:atemp>
            <ns3:hr>114</ns3:hr>
          </ns3:TrackPointExtension>
        </extensions>
      </trkpt>
      <trkpt lat="36.82174011133611202239990234375" lon="-118.39484204538166522979736328125">
        <ele>3630.800048828125</ele>
        <time>2021-06-27T15:23:38.000Z</time>
        <extensions>
          <ns3:TrackPointExtension>
            <ns3:atemp>25.0</ns3:atemp>
            <ns3:hr>111</ns3:hr>
          </ns3:TrackPointExtension>
        </extensions>
      </trkpt>
      <trkpt lat="36.82174312882125377655029296875" lon="-118.39483567513525485992431640625">
        <ele>3631.199951171875</ele>
        <time>2021-06-27T15:23:48.000Z</time>
        <extensions>
          <ns3:TrackPointExtension>
            <ns3:atemp>25.0</ns3:atemp>
            <ns3:hr>107</ns3:hr>
          </ns3:TrackPointExtension>
        </extensions>
      </trkpt>
      <trkpt lat="36.82174379937350749969482421875" lon="-118.3948344178497791290283203125">
        <ele>3631.39990234375</ele>
        <time>2021-06-27T15:23:50.000Z</time>
        <extensions>
          <ns3:TrackPointExtension>
            <ns3:atemp>25.0</ns3:atemp>
            <ns3:hr>109</ns3:hr>
          </ns3:TrackPointExtension>
        </extensions>
      </trkpt>
      <trkpt lat="36.8217524327337741851806640625" lon="-118.394824527204036712646484375">
        <ele>3631.800048828125</ele>
        <time>2021-06-27T15:24:06.000Z</time>
        <extensions>
          <ns3:TrackPointExtension>
            <ns3:atemp>25.0</ns3:atemp>
            <ns3:hr>106</ns3:hr>
          </ns3:TrackPointExtension>
        </extensions>
      </trkpt>
      <trkpt lat="36.82177615351974964141845703125" lon="-118.39482947252690792083740234375">
        <ele>3632</ele>
        <time>2021-06-27T15:24:13.000Z</time>
        <extensions>
          <ns3:TrackPointExtension>
            <ns3:atemp>24.0</ns3:atemp>
            <ns3:hr>102</ns3:hr>
          </ns3:TrackPointExtension>
        </extensions>
      </trkpt>
      <trkpt lat="36.82178034447133541107177734375" lon="-118.39483316056430339813232421875">
        <ele>3632.199951171875</ele>
        <time>2021-06-27T15:24:15.000Z</time>
        <extensions>
          <ns3:TrackPointExtension>
            <ns3:atemp>24.0</ns3:atemp>
            <ns3:hr>98</ns3:hr>
          </ns3:TrackPointExtension>
        </extensions>
      </trkpt>
      <trkpt lat="36.82178654707968235015869140625" lon="-118.3948401175439357757568359375">
        <ele>3632.39990234375</ele>
        <time>2021-06-27T15:24:24.000Z</time>
        <extensions>
          <ns3:TrackPointExtension>
            <ns3:atemp>24.0</ns3:atemp>
            <ns3:hr>100</ns3:hr>
          </ns3:TrackPointExtension>
        </extensions>
      </trkpt>
      <trkpt lat="36.8217869661748409271240234375" lon="-118.394840620458126068115234375">
        <ele>3632.60009765625</ele>
        <time>2021-06-27T15:24:31.000Z</time>
        <extensions>
          <ns3:TrackPointExtension>
            <ns3:atemp>24.0</ns3:atemp>
            <ns3:hr>103</ns3:hr>
          </ns3:TrackPointExtension>
        </extensions>
      </trkpt>
      <trkpt lat="36.8217869661748409271240234375" lon="-118.39484053663909435272216796875">
        <ele>3632.60009765625</ele>
        <time>2021-06-27T15:24:33.000Z</time>
        <extensions>
          <ns3:TrackPointExtension>
            <ns3:atemp>24.0</ns3:atemp>
            <ns3:hr>106</ns3:hr>
          </ns3:TrackPointExtension>
        </extensions>
      </trkpt>
      <trkpt lat="36.8217869661748409271240234375" lon="-118.39483986608684062957763671875">
        <ele>3632.800048828125</ele>
        <time>2021-06-27T15:24:40.000Z</time>
        <extensions>
          <ns3:TrackPointExtension>
            <ns3:atemp>24.0</ns3:atemp>
            <ns3:hr>103</ns3:hr>
          </ns3:TrackPointExtension>
        </extensions>
      </trkpt>
      <trkpt lat="36.82178101502358913421630859375" lon="-118.3948401175439357757568359375">
        <ele>3633.39990234375</ele>
        <time>2021-06-27T15:24:46.000Z</time>
        <extensions>
          <ns3:TrackPointExtension>
            <ns3:atemp>24.0</ns3:atemp>
            <ns3:hr>103</ns3:hr>
          </ns3:TrackPointExtension>
        </extensions>
      </trkpt>
      <trkpt lat="36.82176676578819751739501953125" lon="-118.3948394469916820526123046875">
        <ele>3634</ele>
        <time>2021-06-27T15:24:56.000Z</time>
        <extensions>
          <ns3:TrackPointExtension>
            <ns3:atemp>24.0</ns3:atemp>
            <ns3:hr>106</ns3:hr>
          </ns3:TrackPointExtension>
        </extensions>
      </trkpt>
      <trkpt lat="36.82176542468369007110595703125" lon="-118.39483953081071376800537109375">
        <ele>3634.199951171875</ele>
        <time>2021-06-27T15:24:59.000Z</time>
        <extensions>
          <ns3:TrackPointExtension>
            <ns3:atemp>24.0</ns3:atemp>
            <ns3:hr>109</ns3:hr>
          </ns3:TrackPointExtension>
        </extensions>
      </trkpt>
      <trkpt lat="36.8217645026743412017822265625" lon="-118.39483986608684062957763671875">
        <ele>3634.39990234375</ele>
        <time>2021-06-27T15:25:02.000Z</time>
        <extensions>
          <ns3:TrackPointExtension>
            <ns3:atemp>24.0</ns3:atemp>
            <ns3:hr>112</ns3:hr>
          </ns3:TrackPointExtension>
        </extensions>
      </trkpt>
      <trkpt lat="36.82176207192242145538330078125" lon="-118.3948441408574581146240234375">
        <ele>3634.199951171875</ele>
        <time>2021-06-27T15:25:11.000Z</time>
        <extensions>
          <ns3:TrackPointExtension>
            <ns3:atemp>25.0</ns3:atemp>
            <ns3:hr>109</ns3:hr>
          </ns3:TrackPointExtension>
        </extensions>
      </trkpt>
      <trkpt lat="36.82176140137016773223876953125" lon="-118.39484774507582187652587890625">
        <ele>3634.199951171875</ele>
        <time>2021-06-27T15:25:13.000Z</time>
        <extensions>
          <ns3:TrackPointExtension>
            <ns3:atemp>25.0</ns3:atemp>
            <ns3:hr>104</ns3:hr>
          </ns3:TrackPointExtension>
        </extensions>
      </trkpt>
      <trkpt lat="36.82176106609404087066650390625" lon="-118.39484942145645618438720703125">
        <ele>3634.199951171875</ele>
        <time>2021-06-27T15:25:14.000Z</time>
        <extensions>
          <ns3:TrackPointExtension>
            <ns3:atemp>25.0</ns3:atemp>
            <ns3:hr>101</ns3:hr>
          </ns3:TrackPointExtension>
        </extensions>
      </trkpt>
      <trkpt lat="36.8217608146369457244873046875" lon="-118.3948508463799953460693359375">
        <ele>3634.199951171875</ele>
        <time>2021-06-27T15:25:15.000Z</time>
        <extensions>
          <ns3:TrackPointExtension>
            <ns3:atemp>25.0</ns3:atemp>
            <ns3:hr>101</ns3:hr>
          </ns3:TrackPointExtension>
        </extensions>
      </trkpt>
      <trkpt lat="36.82175771333277225494384765625" lon="-118.394858054816722869873046875">
        <ele>3634.199951171875</ele>
        <time>2021-06-27T15:25:25.000Z</time>
        <extensions>
          <ns3:TrackPointExtension>
            <ns3:atemp>25.0</ns3:atemp>
            <ns3:hr>98</ns3:hr>
          </ns3:TrackPointExtension>
        </extensions>
      </trkpt>
      <trkpt lat="36.8217571265995502471923828125" lon="-118.39485897682607173919677734375">
        <ele>3634.39990234375</ele>
        <time>2021-06-27T15:25:29.000Z</time>
        <extensions>
          <ns3:TrackPointExtension>
            <ns3:atemp>25.0</ns3:atemp>
            <ns3:hr>95</ns3:hr>
          </ns3:TrackPointExtension>
        </extensions>
      </trkpt>
      <trkpt lat="36.82175695896148681640625" lon="-118.39485906064510345458984375">
        <ele>3634.39990234375</ele>
        <time>2021-06-27T15:25:30.000Z</time>
        <extensions>
          <ns3:TrackPointExtension>
            <ns3:atemp>25.0</ns3:atemp>
            <ns3:hr>94</ns3:hr>
          </ns3:TrackPointExtension>
        </extensions>
      </trkpt>
      <trkpt lat="36.8217567913234233856201171875" lon="-118.39485914446413516998291015625">
        <ele>3634.39990234375</ele>
        <time>2021-06-27T15:25:39.000Z</time>
        <extensions>
          <ns3:TrackPointExtension>
            <ns3:atemp>25.0</ns3:atemp>
            <ns3:hr>91</ns3:hr>
          </ns3:TrackPointExtension>
        </extensions>
      </trkpt>
      <trkpt lat="36.8217567913234233856201171875" lon="-118.39485914446413516998291015625">
        <ele>3634.60009765625</ele>
        <time>2021-06-27T15:25:48.000Z</time>
        <extensions>
          <ns3:TrackPointExtension>
            <ns3:atemp>25.0</ns3:atemp>
            <ns3:hr>94</ns3:hr>
          </ns3:TrackPointExtension>
        </extensions>
      </trkpt>
      <trkpt lat="36.82175670750439167022705078125" lon="-118.39485914446413516998291015625">
        <ele>3634.39990234375</ele>
        <time>2021-06-27T15:25:54.000Z</time>
        <extensions>
          <ns3:TrackPointExtension>
            <ns3:atemp>25.0</ns3:atemp>
            <ns3:hr>97</ns3:hr>
          </ns3:TrackPointExtension>
        </extensions>
      </trkpt>
      <trkpt lat="36.82175670750439167022705078125" lon="-118.39485914446413516998291015625">
        <ele>3634.60009765625</ele>
        <time>2021-06-27T15:25:56.000Z</time>
        <extensions>
          <ns3:TrackPointExtension>
            <ns3:atemp>25.0</ns3:atemp>
            <ns3:hr>100</ns3:hr>
          </ns3:TrackPointExtension>
        </extensions>
      </trkpt>
      <trkpt lat="36.82175670750439167022705078125" lon="-118.39485914446413516998291015625">
        <ele>3634.39990234375</ele>
        <time>2021-06-27T15:25:59.000Z</time>
        <extensions>
          <ns3:TrackPointExtension>
            <ns3:atemp>25.0</ns3:atemp>
            <ns3:hr>103</ns3:hr>
          </ns3:TrackPointExtension>
        </extensions>
      </trkpt>
      <trkpt lat="36.82175670750439167022705078125" lon="-118.39485906064510345458984375">
        <ele>3634.39990234375</ele>
        <time>2021-06-27T15:26:02.000Z</time>
        <extensions>
          <ns3:TrackPointExtension>
            <ns3:atemp>25.0</ns3:atemp>
            <ns3:hr>107</ns3:hr>
          </ns3:TrackPointExtension>
        </extensions>
      </trkpt>
      <trkpt lat="36.82175670750439167022705078125" lon="-118.39485897682607173919677734375">
        <ele>3634.60009765625</ele>
        <time>2021-06-27T15:26:13.000Z</time>
        <extensions>
          <ns3:TrackPointExtension>
            <ns3:atemp>25.0</ns3:atemp>
            <ns3:hr>103</ns3:hr>
          </ns3:TrackPointExtension>
        </extensions>
      </trkpt>
      <trkpt lat="36.8217567913234233856201171875" lon="-118.39485897682607173919677734375">
        <ele>3634.60009765625</ele>
        <time>2021-06-27T15:26:16.000Z</time>
        <extensions>
          <ns3:TrackPointExtension>
            <ns3:atemp>25.0</ns3:atemp>
            <ns3:hr>99</ns3:hr>
          </ns3:TrackPointExtension>
        </extensions>
      </trkpt>
      <trkpt lat="36.8217567913234233856201171875" lon="-118.39485897682607173919677734375">
        <ele>3635</ele>
        <time>2021-06-27T15:26:17.000Z</time>
        <extensions>
          <ns3:TrackPointExtension>
            <ns3:atemp>25.0</ns3:atemp>
            <ns3:hr>102</ns3:hr>
          </ns3:TrackPointExtension>
        </extensions>
      </trkpt>
      <trkpt lat="36.82175695896148681640625" lon="-118.39485880918800830841064453125">
        <ele>3635</ele>
        <time>2021-06-27T15:26:26.000Z</time>
        <extensions>
          <ns3:TrackPointExtension>
            <ns3:atemp>25.0</ns3:atemp>
            <ns3:hr>105</ns3:hr>
          </ns3:TrackPointExtension>
        </extensions>
      </trkpt>
      <trkpt lat="36.8217571265995502471923828125" lon="-118.394858725368976593017578125">
        <ele>3635</ele>
        <time>2021-06-27T15:26:33.000Z</time>
        <extensions>
          <ns3:TrackPointExtension>
            <ns3:atemp>25.0</ns3:atemp>
            <ns3:hr>108</ns3:hr>
          </ns3:TrackPointExtension>
        </extensions>
      </trkpt>
      <trkpt lat="36.8217571265995502471923828125" lon="-118.39485864154994487762451171875">
        <ele>3635</ele>
        <time>2021-06-27T15:26:35.000Z</time>
        <extensions>
          <ns3:TrackPointExtension>
            <ns3:atemp>25.0</ns3:atemp>
            <ns3:hr>111</ns3:hr>
          </ns3:TrackPointExtension>
        </extensions>
      </trkpt>
      <trkpt lat="36.82175721041858196258544921875" lon="-118.3948585577309131622314453125">
        <ele>3635</ele>
        <time>2021-06-27T15:26:38.000Z</time>
        <extensions>
          <ns3:TrackPointExtension>
            <ns3:atemp>25.0</ns3:atemp>
            <ns3:hr>115</ns3:hr>
          </ns3:TrackPointExtension>
        </extensions>
      </trkpt>
      <trkpt lat="36.82175721041858196258544921875" lon="-118.3948585577309131622314453125">
        <ele>3635.39990234375</ele>
        <time>2021-06-27T15:26:41.000Z</time>
        <extensions>
          <ns3:TrackPointExtension>
            <ns3:atemp>25.0</ns3:atemp>
            <ns3:hr>118</ns3:hr>
          </ns3:TrackPointExtension>
        </extensions>
      </trkpt>
      <trkpt lat="36.821757294237613677978515625" lon="-118.3948585577309131622314453125">
        <ele>3635.60009765625</ele>
        <time>2021-06-27T15:26:42.000Z</time>
        <extensions>
          <ns3:TrackPointExtension>
            <ns3:atemp>25.0</ns3:atemp>
            <ns3:hr>119</ns3:hr>
          </ns3:TrackPointExtension>
        </extensions>
      </trkpt>
      <trkpt lat="36.82175737805664539337158203125" lon="-118.39485847391188144683837890625">
        <ele>3635.800048828125</ele>
        <time>2021-06-27T15:26:49.000Z</time>
        <extensions>
          <ns3:TrackPointExtension>
            <ns3:atemp>25.0</ns3:atemp>
            <ns3:hr>116</ns3:hr>
          </ns3:TrackPointExtension>
        </extensions>
      </trkpt>
      <trkpt lat="36.8217574618756771087646484375" lon="-118.39485847391188144683837890625">
        <ele>3636.60009765625</ele>
        <time>2021-06-27T15:26:54.000Z</time>
        <extensions>
          <ns3:TrackPointExtension>
            <ns3:atemp>25.0</ns3:atemp>
            <ns3:hr>116</ns3:hr>
          </ns3:TrackPointExtension>
        </extensions>
      </trkpt>
      <trkpt lat="36.8217574618756771087646484375" lon="-118.39485847391188144683837890625">
        <ele>3637.60009765625</ele>
        <time>2021-06-27T15:27:03.000Z</time>
        <extensions>
          <ns3:TrackPointExtension>
            <ns3:atemp>25.0</ns3:atemp>
            <ns3:hr>116</ns3:hr>
          </ns3:TrackPointExtension>
        </extensions>
      </trkpt>
      <trkpt lat="36.8217574618756771087646484375" lon="-118.39485847391188144683837890625">
        <ele>3639</ele>
        <time>2021-06-27T15:27:09.000Z</time>
        <extensions>
          <ns3:TrackPointExtension>
            <ns3:atemp>25.0</ns3:atemp>
            <ns3:hr>117</ns3:hr>
          </ns3:TrackPointExtension>
        </extensions>
      </trkpt>
      <trkpt lat="36.8217577971518039703369140625" lon="-118.39485771954059600830078125">
        <ele>3641</ele>
        <time>2021-06-27T15:27:21.000Z</time>
        <extensions>
          <ns3:TrackPointExtension>
            <ns3:atemp>25.0</ns3:atemp>
            <ns3:hr>119</ns3:hr>
          </ns3:TrackPointExtension>
        </extensions>
      </trkpt>
      <trkpt lat="36.82175788097083568572998046875" lon="-118.394857384264469146728515625">
        <ele>3641.60009765625</ele>
        <time>2021-06-27T15:27:25.000Z</time>
        <extensions>
          <ns3:TrackPointExtension>
            <ns3:atemp>25.0</ns3:atemp>
            <ns3:hr>115</ns3:hr>
          </ns3:TrackPointExtension>
        </extensions>
      </trkpt>
      <trkpt lat="36.821757964789867401123046875" lon="-118.39485704898834228515625">
        <ele>3642.199951171875</ele>
        <time>2021-06-27T15:27:28.000Z</time>
        <extensions>
          <ns3:TrackPointExtension>
            <ns3:atemp>25.0</ns3:atemp>
            <ns3:hr>114</ns3:hr>
          </ns3:TrackPointExtension>
        </extensions>
      </trkpt>
      <trkpt lat="36.8217581324279308319091796875" lon="-118.39485646225512027740478515625">
        <ele>3643.199951171875</ele>
        <time>2021-06-27T15:27:33.000Z</time>
        <extensions>
          <ns3:TrackPointExtension>
            <ns3:atemp>25.0</ns3:atemp>
            <ns3:hr>113</ns3:hr>
          </ns3:TrackPointExtension>
        </extensions>
      </trkpt>
      <trkpt lat="36.82175821624696254730224609375" lon="-118.3948562107980251312255859375">
        <ele>3643.800048828125</ele>
        <time>2021-06-27T15:27:35.000Z</time>
        <extensions>
          <ns3:TrackPointExtension>
            <ns3:atemp>25.0</ns3:atemp>
            <ns3:hr>117</ns3:hr>
          </ns3:TrackPointExtension>
        </extensions>
      </trkpt>
      <trkpt lat="36.8217583000659942626953125" lon="-118.39485595934092998504638671875">
        <ele>3643.800048828125</ele>
        <time>2021-06-27T15:27:37.000Z</time>
        <extensions>
          <ns3:TrackPointExtension>
            <ns3:atemp>25.0</ns3:atemp>
            <ns3:hr>121</ns3:hr>
          </ns3:TrackPointExtension>
        </extensions>
      </trkpt>
      <trkpt lat="36.82175838388502597808837890625" lon="-118.3948557078838348388671875">
        <ele>3644.39990234375</ele>
        <time>2021-06-27T15:27:39.000Z</time>
        <extensions>
          <ns3:TrackPointExtension>
            <ns3:atemp>25.0</ns3:atemp>
            <ns3:hr>123</ns3:hr>
          </ns3:TrackPointExtension>
        </extensions>
      </trkpt>
      <trkpt lat="36.8217584677040576934814453125" lon="-118.394855372607707977294921875">
        <ele>3645.39990234375</ele>
        <time>2021-06-27T15:27:41.000Z</time>
        <extensions>
          <ns3:TrackPointExtension>
            <ns3:atemp>25.0</ns3:atemp>
            <ns3:hr>123</ns3:hr>
          </ns3:TrackPointExtension>
        </extensions>
      </trkpt>
      <trkpt lat="36.8217584677040576934814453125" lon="-118.3948552049696445465087890625">
        <ele>3645.39990234375</ele>
        <time>2021-06-27T15:27:42.000Z</time>
        <extensions>
          <ns3:TrackPointExtension>
            <ns3:atemp>25.0</ns3:atemp>
            <ns3:hr>120</ns3:hr>
          </ns3:TrackPointExtension>
        </extensions>
      </trkpt>
      <trkpt lat="36.82175871916115283966064453125" lon="-118.394854366779327392578125">
        <ele>3647.199951171875</ele>
        <time>2021-06-27T15:27:47.000Z</time>
        <extensions>
          <ns3:TrackPointExtension>
            <ns3:atemp>25.0</ns3:atemp>
            <ns3:hr>119</ns3:hr>
          </ns3:TrackPointExtension>
        </extensions>
      </trkpt>
      <trkpt lat="36.8217591382563114166259765625" lon="-118.39485327713191509246826171875">
        <ele>3647.39990234375</ele>
        <time>2021-06-27T15:27:53.000Z</time>
        <extensions>
          <ns3:TrackPointExtension>
            <ns3:atemp>25.0</ns3:atemp>
            <ns3:hr>117</ns3:hr>
          </ns3:TrackPointExtension>
        </extensions>
      </trkpt>
      <trkpt lat="36.8217594735324382781982421875" lon="-118.39485243894159793853759765625">
        <ele>3647</ele>
        <time>2021-06-27T15:27:57.000Z</time>
        <extensions>
          <ns3:TrackPointExtension>
            <ns3:atemp>25.0</ns3:atemp>
            <ns3:hr>120</ns3:hr>
          </ns3:TrackPointExtension>
        </extensions>
      </trkpt>
      <trkpt lat="36.8217598088085651397705078125" lon="-118.39485176838934421539306640625">
        <ele>3647</ele>
        <time>2021-06-27T15:28:00.000Z</time>
        <extensions>
          <ns3:TrackPointExtension>
            <ns3:atemp>25.0</ns3:atemp>
            <ns3:hr>117</ns3:hr>
          </ns3:TrackPointExtension>
        </extensions>
      </trkpt>
      <trkpt lat="36.82176299393177032470703125" lon="-118.39484472759068012237548828125">
        <ele>3646.800048828125</ele>
        <time>2021-06-27T15:28:28.000Z</time>
        <extensions>
          <ns3:TrackPointExtension>
            <ns3:atemp>26.0</ns3:atemp>
            <ns3:hr>120</ns3:hr>
          </ns3:TrackPointExtension>
        </extensions>
      </trkpt>
      <trkpt lat="36.821763329207897186279296875" lon="-118.394843973219394683837890625">
        <ele>3647</ele>
        <time>2021-06-27T15:28:31.000Z</time>
        <extensions>
          <ns3:TrackPointExtension>
            <ns3:atemp>26.0</ns3:atemp>
            <ns3:hr>118</ns3:hr>
          </ns3:TrackPointExtension>
        </extensions>
      </trkpt>
      <trkpt lat="36.82176425121724605560302734375" lon="-118.39484187774360179901123046875">
        <ele>3647</ele>
        <time>2021-06-27T15:28:39.000Z</time>
        <extensions>
          <ns3:TrackPointExtension>
            <ns3:atemp>26.0</ns3:atemp>
            <ns3:hr>115</ns3:hr>
          </ns3:TrackPointExtension>
        </extensions>
      </trkpt>
      <trkpt lat="36.82176433503627777099609375" lon="-118.39484162628650665283203125">
        <ele>3647</ele>
        <time>2021-06-27T15:28:40.000Z</time>
        <extensions>
          <ns3:TrackPointExtension>
            <ns3:atemp>26.0</ns3:atemp>
            <ns3:hr>118</ns3:hr>
          </ns3:TrackPointExtension>
        </extensions>
      </trkpt>
      <trkpt lat="36.821765005588531494140625" lon="-118.39484020136296749114990234375">
        <ele>3647</ele>
        <time>2021-06-27T15:28:46.000Z</time>
        <extensions>
          <ns3:TrackPointExtension>
            <ns3:atemp>26.0</ns3:atemp>
            <ns3:hr>115</ns3:hr>
          </ns3:TrackPointExtension>
        </extensions>
      </trkpt>
      <trkpt lat="36.82176542468369007110595703125" lon="-118.3948391117155551910400390625">
        <ele>3647.199951171875</ele>
        <time>2021-06-27T15:28:50.000Z</time>
        <extensions>
          <ns3:TrackPointExtension>
            <ns3:atemp>26.0</ns3:atemp>
            <ns3:hr>112</ns3:hr>
          </ns3:TrackPointExtension>
        </extensions>
      </trkpt>
      <trkpt lat="36.82176609523594379425048828125" lon="-118.3948377706110477447509765625">
        <ele>3647.800048828125</ele>
        <time>2021-06-27T15:28:56.000Z</time>
        <extensions>
          <ns3:TrackPointExtension>
            <ns3:atemp>26.0</ns3:atemp>
            <ns3:hr>109</ns3:hr>
          </ns3:TrackPointExtension>
        </extensions>
      </trkpt>
      <trkpt lat="36.82176676578819751739501953125" lon="-118.39483617804944515228271484375">
        <ele>3647.39990234375</ele>
        <time>2021-06-27T15:29:03.000Z</time>
        <extensions>
          <ns3:TrackPointExtension>
            <ns3:atemp>26.0</ns3:atemp>
            <ns3:hr>112</ns3:hr>
          </ns3:TrackPointExtension>
        </extensions>
      </trkpt>
      <trkpt lat="36.82176777161657810211181640625" lon="-118.394832909107208251953125">
        <ele>3647.60009765625</ele>
        <time>2021-06-27T15:29:17.000Z</time>
        <extensions>
          <ns3:TrackPointExtension>
            <ns3:atemp>26.0</ns3:atemp>
            <ns3:hr>109</ns3:hr>
          </ns3:TrackPointExtension>
        </extensions>
      </trkpt>
      <trkpt lat="36.82176793925464153289794921875" lon="-118.3948324061930179595947265625">
        <ele>3647.60009765625</ele>
        <time>2021-06-27T15:29:19.000Z</time>
        <extensions>
          <ns3:TrackPointExtension>
            <ns3:atemp>26.0</ns3:atemp>
            <ns3:hr>106</ns3:hr>
          </ns3:TrackPointExtension>
        </extensions>
      </trkpt>
      <trkpt lat="36.82176793925464153289794921875" lon="-118.39483215473592281341552734375">
        <ele>3647.60009765625</ele>
        <time>2021-06-27T15:29:20.000Z</time>
        <extensions>
          <ns3:TrackPointExtension>
            <ns3:atemp>26.0</ns3:atemp>
            <ns3:hr>103</ns3:hr>
          </ns3:TrackPointExtension>
        </extensions>
      </trkpt>
      <trkpt lat="36.82176810689270496368408203125" lon="-118.39483165182173252105712890625">
        <ele>3647.60009765625</ele>
        <time>2021-06-27T15:29:22.000Z</time>
        <extensions>
          <ns3:TrackPointExtension>
            <ns3:atemp>26.0</ns3:atemp>
            <ns3:hr>100</ns3:hr>
          </ns3:TrackPointExtension>
        </extensions>
      </trkpt>
      <trkpt lat="36.82176835834980010986328125" lon="-118.3948307298123836517333984375">
        <ele>3647.60009765625</ele>
        <time>2021-06-27T15:29:26.000Z</time>
        <extensions>
          <ns3:TrackPointExtension>
            <ns3:atemp>26.0</ns3:atemp>
            <ns3:hr>97</ns3:hr>
          </ns3:TrackPointExtension>
        </extensions>
      </trkpt>
      <trkpt lat="36.8217691965401172637939453125" lon="-118.3948270417749881744384765625">
        <ele>3647.60009765625</ele>
        <time>2021-06-27T15:29:42.000Z</time>
        <extensions>
          <ns3:TrackPointExtension>
            <ns3:atemp>26.0</ns3:atemp>
            <ns3:hr>94</ns3:hr>
          </ns3:TrackPointExtension>
        </extensions>
      </trkpt>
      <trkpt lat="36.82176969945430755615234375" lon="-118.3948250301182270050048828125">
        <ele>3647.60009765625</ele>
        <time>2021-06-27T15:29:51.000Z</time>
        <extensions>
          <ns3:TrackPointExtension>
            <ns3:atemp>26.0</ns3:atemp>
            <ns3:hr>97</ns3:hr>
          </ns3:TrackPointExtension>
        </extensions>
      </trkpt>
      <trkpt lat="36.821770034730434417724609375" lon="-118.39482310228049755096435546875">
        <ele>3647.60009765625</ele>
        <time>2021-06-27T15:29:59.000Z</time>
        <extensions>
          <ns3:TrackPointExtension>
            <ns3:atemp>26.0</ns3:atemp>
            <ns3:hr>94</ns3:hr>
          </ns3:TrackPointExtension>
        </extensions>
      </trkpt>
      <trkpt lat="36.8217705376446247100830078125" lon="-118.3948208391666412353515625">
        <ele>3647.60009765625</ele>
        <time>2021-06-27T15:30:09.000Z</time>
        <extensions>
          <ns3:TrackPointExtension>
            <ns3:atemp>26.0</ns3:atemp>
            <ns3:hr>89</ns3:hr>
          </ns3:TrackPointExtension>
        </extensions>
      </trkpt>
      <trkpt lat="36.8217705376446247100830078125" lon="-118.39482058770954608917236328125">
        <ele>3647.60009765625</ele>
        <time>2021-06-27T15:30:10.000Z</time>
        <extensions>
          <ns3:TrackPointExtension>
            <ns3:atemp>26.0</ns3:atemp>
            <ns3:hr>92</ns3:hr>
          </ns3:TrackPointExtension>
        </extensions>
      </trkpt>
      <trkpt lat="36.821770705282688140869140625" lon="-118.3948196657001972198486328125">
        <ele>3647.60009765625</ele>
        <time>2021-06-27T15:30:14.000Z</time>
        <extensions>
          <ns3:TrackPointExtension>
            <ns3:atemp>26.0</ns3:atemp>
            <ns3:hr>89</ns3:hr>
          </ns3:TrackPointExtension>
        </extensions>
      </trkpt>
      <trkpt lat="36.8217708729207515716552734375" lon="-118.39481874369084835052490234375">
        <ele>3647.60009765625</ele>
        <time>2021-06-27T15:30:18.000Z</time>
        <extensions>
          <ns3:TrackPointExtension>
            <ns3:atemp>26.0</ns3:atemp>
            <ns3:hr>92</ns3:hr>
          </ns3:TrackPointExtension>
        </extensions>
      </trkpt>
      <trkpt lat="36.82177129201591014862060546875" lon="-118.394816815853118896484375">
        <ele>3647.60009765625</ele>
        <time>2021-06-27T15:30:27.000Z</time>
        <extensions>
          <ns3:TrackPointExtension>
            <ns3:atemp>26.0</ns3:atemp>
            <ns3:hr>89</ns3:hr>
          </ns3:TrackPointExtension>
        </extensions>
      </trkpt>
      <trkpt lat="36.82177145965397357940673828125" lon="-118.39481614530086517333984375">
        <ele>3647.60009765625</ele>
        <time>2021-06-27T15:30:30.000Z</time>
        <extensions>
          <ns3:TrackPointExtension>
            <ns3:atemp>26.0</ns3:atemp>
            <ns3:hr>86</ns3:hr>
          </ns3:TrackPointExtension>
        </extensions>
      </trkpt>
      <trkpt lat="36.8217715434730052947998046875" lon="-118.39481572620570659637451171875">
        <ele>3647.60009765625</ele>
        <time>2021-06-27T15:30:32.000Z</time>
        <extensions>
          <ns3:TrackPointExtension>
            <ns3:atemp>26.0</ns3:atemp>
            <ns3:hr>83</ns3:hr>
          </ns3:TrackPointExtension>
        </extensions>
      </trkpt>
      <trkpt lat="36.82177213020622730255126953125" lon="-118.3948127925395965576171875">
        <ele>3647.60009765625</ele>
        <time>2021-06-27T15:30:46.000Z</time>
        <extensions>
          <ns3:TrackPointExtension>
            <ns3:atemp>26.0</ns3:atemp>
            <ns3:hr>80</ns3:hr>
          </ns3:TrackPointExtension>
        </extensions>
      </trkpt>
      <trkpt lat="36.8217725493013858795166015625" lon="-118.3948102779686450958251953125">
        <ele>3647.60009765625</ele>
        <time>2021-06-27T15:30:58.000Z</time>
        <extensions>
          <ns3:TrackPointExtension>
            <ns3:atemp>26.0</ns3:atemp>
            <ns3:hr>83</ns3:hr>
          </ns3:TrackPointExtension>
        </extensions>
      </trkpt>
      <trkpt lat="36.82177263312041759490966796875" lon="-118.39480969123542308807373046875">
        <ele>3647.60009765625</ele>
        <time>2021-06-27T15:31:01.000Z</time>
        <extensions>
          <ns3:TrackPointExtension>
            <ns3:atemp>26.0</ns3:atemp>
            <ns3:hr>80</ns3:hr>
          </ns3:TrackPointExtension>
        </extensions>
      </trkpt>
      <trkpt lat="36.821772716939449310302734375" lon="-118.39480943977832794189453125">
        <ele>3647.60009765625</ele>
        <time>2021-06-27T15:31:02.000Z</time>
        <extensions>
          <ns3:TrackPointExtension>
            <ns3:atemp>26.0</ns3:atemp>
            <ns3:hr>84</ns3:hr>
          </ns3:TrackPointExtension>
        </extensions>
      </trkpt>
      <trkpt lat="36.82177296839654445648193359375" lon="-118.3948079310357570648193359375">
        <ele>3647.60009765625</ele>
        <time>2021-06-27T15:31:09.000Z</time>
        <extensions>
          <ns3:TrackPointExtension>
            <ns3:atemp>26.0</ns3:atemp>
            <ns3:hr>88</ns3:hr>
          </ns3:TrackPointExtension>
        </extensions>
      </trkpt>
      <trkpt lat="36.82177296839654445648193359375" lon="-118.39480767957866191864013671875">
        <ele>3647.60009765625</ele>
        <time>2021-06-27T15:31:10.000Z</time>
        <extensions>
          <ns3:TrackPointExtension>
            <ns3:atemp>26.0</ns3:atemp>
            <ns3:hr>85</ns3:hr>
          </ns3:TrackPointExtension>
        </extensions>
      </trkpt>
      <trkpt lat="36.8217735551297664642333984375" lon="-118.39480550028383731842041015625">
        <ele>3647.60009765625</ele>
        <time>2021-06-27T15:31:18.000Z</time>
        <extensions>
          <ns3:TrackPointExtension>
            <ns3:atemp>26.0</ns3:atemp>
            <ns3:hr>88</ns3:hr>
          </ns3:TrackPointExtension>
        </extensions>
      </trkpt>
      <trkpt lat="36.82177363894879817962646484375" lon="-118.39480533264577388763427734375">
        <ele>3654.199951171875</ele>
        <time>2021-06-27T15:31:19.000Z</time>
        <extensions>
          <ns3:TrackPointExtension>
            <ns3:atemp>26.0</ns3:atemp>
            <ns3:hr>88</ns3:hr>
          </ns3:TrackPointExtension>
        </extensions>
      </trkpt>
      <trkpt lat="36.8217738904058933258056640625" lon="-118.394804410636425018310546875">
        <ele>3654.199951171875</ele>
        <time>2021-06-27T15:31:22.000Z</time>
        <extensions>
          <ns3:TrackPointExtension>
            <ns3:atemp>26.0</ns3:atemp>
            <ns3:hr>92</ns3:hr>
          </ns3:TrackPointExtension>
        </extensions>
      </trkpt>
      <trkpt lat="36.82177430950105190277099609375" lon="-118.39480281807482242584228515625">
        <ele>3655</ele>
        <time>2021-06-27T15:31:27.000Z</time>
        <extensions>
          <ns3:TrackPointExtension>
            <ns3:atemp>26.0</ns3:atemp>
            <ns3:hr>95</ns3:hr>
          </ns3:TrackPointExtension>
        </extensions>
      </trkpt>
      <trkpt lat="36.8217743933200836181640625" lon="-118.3948025666177272796630859375">
        <ele>3655.60009765625</ele>
        <time>2021-06-27T15:31:28.000Z</time>
        <extensions>
          <ns3:TrackPointExtension>
            <ns3:atemp>26.0</ns3:atemp>
            <ns3:hr>96</ns3:hr>
          </ns3:TrackPointExtension>
        </extensions>
      </trkpt>
      <trkpt lat="36.8217748962342739105224609375" lon="-118.39480063877999782562255859375">
        <ele>3657</ele>
        <time>2021-06-27T15:31:34.000Z</time>
        <extensions>
          <ns3:TrackPointExtension>
            <ns3:atemp>26.0</ns3:atemp>
            <ns3:hr>98</ns3:hr>
          </ns3:TrackPointExtension>
        </extensions>
      </trkpt>
      <trkpt lat="36.821775399148464202880859375" lon="-118.394799046218395233154296875">
        <ele>3658.800048828125</ele>
        <time>2021-06-27T15:31:39.000Z</time>
        <extensions>
          <ns3:TrackPointExtension>
            <ns3:atemp>26.0</ns3:atemp>
            <ns3:hr>99</ns3:hr>
          </ns3:TrackPointExtension>
        </extensions>
      </trkpt>
      <trkpt lat="36.8217765726149082183837890625" lon="-118.394796364009380340576171875">
        <ele>3659.800048828125</ele>
        <time>2021-06-27T15:31:47.000Z</time>
        <extensions>
          <ns3:TrackPointExtension>
            <ns3:atemp>26.0</ns3:atemp>
            <ns3:hr>102</ns3:hr>
          </ns3:TrackPointExtension>
        </extensions>
      </trkpt>
      <trkpt lat="36.82177682407200336456298828125" lon="-118.39479560963809490203857421875">
        <ele>3659.800048828125</ele>
        <time>2021-06-27T15:31:49.000Z</time>
        <extensions>
          <ns3:TrackPointExtension>
            <ns3:atemp>26.0</ns3:atemp>
            <ns3:hr>105</ns3:hr>
          </ns3:TrackPointExtension>
        </extensions>
      </trkpt>
      <trkpt lat="36.82177766226232051849365234375" lon="-118.394793681800365447998046875">
        <ele>3661</ele>
        <time>2021-06-27T15:31:54.000Z</time>
        <extensions>
          <ns3:TrackPointExtension>
            <ns3:atemp>26.0</ns3:atemp>
            <ns3:hr>109</ns3:hr>
          </ns3:TrackPointExtension>
        </extensions>
      </trkpt>
      <trkpt lat="36.8217785842716693878173828125" lon="-118.39479175396263599395751953125">
        <ele>3661.39990234375</ele>
        <time>2021-06-27T15:31:59.000Z</time>
        <extensions>
          <ns3:TrackPointExtension>
            <ns3:atemp>26.0</ns3:atemp>
            <ns3:hr>113</ns3:hr>
          </ns3:TrackPointExtension>
        </extensions>
      </trkpt>
      <trkpt lat="36.821778751909732818603515625" lon="-118.3947913348674774169921875">
        <ele>3661.39990234375</ele>
        <time>2021-06-27T15:32:00.000Z</time>
        <extensions>
          <ns3:TrackPointExtension>
            <ns3:atemp>26.0</ns3:atemp>
            <ns3:hr>113</ns3:hr>
          </ns3:TrackPointExtension>
        </extensions>
      </trkpt>
      <trkpt lat="36.8217802606523036956787109375" lon="-118.39478739537298679351806640625">
        <ele>3661.60009765625</ele>
        <time>2021-06-27T15:32:09.000Z</time>
        <extensions>
          <ns3:TrackPointExtension>
            <ns3:atemp>26.0</ns3:atemp>
            <ns3:hr>110</ns3:hr>
          </ns3:TrackPointExtension>
        </extensions>
      </trkpt>
      <trkpt lat="36.821780763566493988037109375" lon="-118.39478605426847934722900390625">
        <ele>3662</ele>
        <time>2021-06-27T15:32:12.000Z</time>
        <extensions>
          <ns3:TrackPointExtension>
            <ns3:atemp>26.0</ns3:atemp>
            <ns3:hr>112</ns3:hr>
          </ns3:TrackPointExtension>
        </extensions>
      </trkpt>
      <trkpt lat="36.821781434118747711181640625" lon="-118.39478421024978160858154296875">
        <ele>3663.39990234375</ele>
        <time>2021-06-27T15:32:16.000Z</time>
        <extensions>
          <ns3:TrackPointExtension>
            <ns3:atemp>26.0</ns3:atemp>
            <ns3:hr>110</ns3:hr>
          </ns3:TrackPointExtension>
        </extensions>
      </trkpt>
      <trkpt lat="36.8217824399471282958984375" lon="-118.39478152804076671600341796875">
        <ele>3664.800048828125</ele>
        <time>2021-06-27T15:32:22.000Z</time>
        <extensions>
          <ns3:TrackPointExtension>
            <ns3:atemp>26.0</ns3:atemp>
            <ns3:hr>111</ns3:hr>
          </ns3:TrackPointExtension>
        </extensions>
      </trkpt>
      <trkpt lat="36.82178302668035030364990234375" lon="-118.3947801031172275543212890625">
        <ele>3665.800048828125</ele>
        <time>2021-06-27T15:32:25.000Z</time>
        <extensions>
          <ns3:TrackPointExtension>
            <ns3:atemp>26.0</ns3:atemp>
            <ns3:hr>111</ns3:hr>
          </ns3:TrackPointExtension>
        </extensions>
      </trkpt>
      <trkpt lat="36.821784786880016326904296875" lon="-118.39477591216564178466796875">
        <ele>3666.800048828125</ele>
        <time>2021-06-27T15:32:34.000Z</time>
        <extensions>
          <ns3:TrackPointExtension>
            <ns3:atemp>25.0</ns3:atemp>
            <ns3:hr>110</ns3:hr>
          </ns3:TrackPointExtension>
        </extensions>
      </trkpt>
      <trkpt lat="36.82178503833711147308349609375" lon="-118.39477532543241977691650390625">
        <ele>3667.39990234375</ele>
        <time>2021-06-27T15:32:35.000Z</time>
        <extensions>
          <ns3:TrackPointExtension>
            <ns3:atemp>25.0</ns3:atemp>
            <ns3:hr>113</ns3:hr>
          </ns3:TrackPointExtension>
        </extensions>
      </trkpt>
      <trkpt lat="36.8217856250703334808349609375" lon="-118.394773900508880615234375">
        <ele>3668.199951171875</ele>
        <time>2021-06-27T15:32:38.000Z</time>
        <extensions>
          <ns3:TrackPointExtension>
            <ns3:atemp>25.0</ns3:atemp>
            <ns3:hr>112</ns3:hr>
          </ns3:TrackPointExtension>
        </extensions>
      </trkpt>
      <trkpt lat="36.82178713381290435791015625" lon="-118.394770212471485137939453125">
        <ele>3670</ele>
        <time>2021-06-27T15:32:45.000Z</time>
        <extensions>
          <ns3:TrackPointExtension>
            <ns3:atemp>25.0</ns3:atemp>
            <ns3:hr>115</ns3:hr>
          </ns3:TrackPointExtension>
        </extensions>
      </trkpt>
      <trkpt lat="36.8217876367270946502685546875" lon="-118.39476912282407283782958984375">
        <ele>3670.60009765625</ele>
        <time>2021-06-27T15:32:47.000Z</time>
        <extensions>
          <ns3:TrackPointExtension>
            <ns3:atemp>25.0</ns3:atemp>
            <ns3:hr>114</ns3:hr>
          </ns3:TrackPointExtension>
        </extensions>
      </trkpt>
      <trkpt lat="36.82178889401257038116455078125" lon="-118.3947663567960262298583984375">
        <ele>3671.199951171875</ele>
        <time>2021-06-27T15:32:52.000Z</time>
        <extensions>
          <ns3:TrackPointExtension>
            <ns3:atemp>25.0</ns3:atemp>
            <ns3:hr>114</ns3:hr>
          </ns3:TrackPointExtension>
        </extensions>
      </trkpt>
      <trkpt lat="36.82179140858352184295654296875" lon="-118.39476107619702816009521484375">
        <ele>3672.199951171875</ele>
        <time>2021-06-27T15:33:01.000Z</time>
        <extensions>
          <ns3:TrackPointExtension>
            <ns3:atemp>25.0</ns3:atemp>
            <ns3:hr>115</ns3:hr>
          </ns3:TrackPointExtension>
        </extensions>
      </trkpt>
      <trkpt lat="36.82179325260221958160400390625" lon="-118.39475654996931552886962890625">
        <ele>3673.199951171875</ele>
        <time>2021-06-27T15:33:08.000Z</time>
        <extensions>
          <ns3:TrackPointExtension>
            <ns3:atemp>25.0</ns3:atemp>
            <ns3:hr>115</ns3:hr>
          </ns3:TrackPointExtension>
        </extensions>
      </trkpt>
      <trkpt lat="36.82179492898285388946533203125" lon="-118.3947526104748249053955078125">
        <ele>3674.39990234375</ele>
        <time>2021-06-27T15:33:14.000Z</time>
        <extensions>
          <ns3:TrackPointExtension>
            <ns3:atemp>25.0</ns3:atemp>
            <ns3:hr>116</ns3:hr>
          </ns3:TrackPointExtension>
        </extensions>
      </trkpt>
      <trkpt lat="36.8217960186302661895751953125" lon="-118.3947499282658100128173828125">
        <ele>3675.39990234375</ele>
        <time>2021-06-27T15:33:18.000Z</time>
        <extensions>
          <ns3:TrackPointExtension>
            <ns3:atemp>25.0</ns3:atemp>
            <ns3:hr>123</ns3:hr>
          </ns3:TrackPointExtension>
        </extensions>
      </trkpt>
      <trkpt lat="36.82179627008736133575439453125" lon="-118.3947492577135562896728515625">
        <ele>3675.39990234375</ele>
        <time>2021-06-27T15:33:19.000Z</time>
        <extensions>
          <ns3:TrackPointExtension>
            <ns3:atemp>25.0</ns3:atemp>
            <ns3:hr>123</ns3:hr>
          </ns3:TrackPointExtension>
        </extensions>
      </trkpt>
      <trkpt lat="36.821796856820583343505859375" lon="-118.39474783279001712799072265625">
        <ele>3675.39990234375</ele>
        <time>2021-06-27T15:33:21.000Z</time>
        <extensions>
          <ns3:TrackPointExtension>
            <ns3:atemp>25.0</ns3:atemp>
            <ns3:hr>120</ns3:hr>
          </ns3:TrackPointExtension>
        </extensions>
      </trkpt>
      <trkpt lat="36.82179861702024936676025390625" lon="-118.39474372565746307373046875">
        <ele>3676.39990234375</ele>
        <time>2021-06-27T15:33:27.000Z</time>
        <extensions>
          <ns3:TrackPointExtension>
            <ns3:atemp>25.0</ns3:atemp>
            <ns3:hr>123</ns3:hr>
          </ns3:TrackPointExtension>
        </extensions>
      </trkpt>
      <trkpt lat="36.82179895229637622833251953125" lon="-118.3947430551052093505859375">
        <ele>3676.39990234375</ele>
        <time>2021-06-27T15:33:28.000Z</time>
        <extensions>
          <ns3:TrackPointExtension>
            <ns3:atemp>25.0</ns3:atemp>
            <ns3:hr>124</ns3:hr>
          </ns3:TrackPointExtension>
        </extensions>
      </trkpt>
      <trkpt lat="36.821800209581851959228515625" lon="-118.39474012143909931182861328125">
        <ele>3677</ele>
        <time>2021-06-27T15:33:32.000Z</time>
        <extensions>
          <ns3:TrackPointExtension>
            <ns3:atemp>25.0</ns3:atemp>
            <ns3:hr>127</ns3:hr>
          </ns3:TrackPointExtension>
        </extensions>
      </trkpt>
      <trkpt lat="36.8218017183244228363037109375" lon="-118.39473643340170383453369140625">
        <ele>3677</ele>
        <time>2021-06-27T15:33:37.000Z</time>
        <extensions>
          <ns3:TrackPointExtension>
            <ns3:atemp>25.0</ns3:atemp>
            <ns3:hr>124</ns3:hr>
          </ns3:TrackPointExtension>
        </extensions>
      </trkpt>
      <trkpt lat="36.82180264033377170562744140625" lon="-118.3947341702878475189208984375">
        <ele>3677.39990234375</ele>
        <time>2021-06-27T15:33:40.000Z</time>
        <extensions>
          <ns3:TrackPointExtension>
            <ns3:atemp>25.0</ns3:atemp>
            <ns3:hr>123</ns3:hr>
          </ns3:TrackPointExtension>
        </extensions>
      </trkpt>
      <trkpt lat="36.82180448435246944427490234375" lon="-118.3947296440601348876953125">
        <ele>3678.60009765625</ele>
        <time>2021-06-27T15:33:46.000Z</time>
        <extensions>
          <ns3:TrackPointExtension>
            <ns3:atemp>25.0</ns3:atemp>
            <ns3:hr>120</ns3:hr>
          </ns3:TrackPointExtension>
        </extensions>
      </trkpt>
      <trkpt lat="36.8218060769140720367431640625" lon="-118.39472587220370769500732421875">
        <ele>3679.199951171875</ele>
        <time>2021-06-27T15:33:51.000Z</time>
        <extensions>
          <ns3:TrackPointExtension>
            <ns3:atemp>25.0</ns3:atemp>
            <ns3:hr>117</ns3:hr>
          </ns3:TrackPointExtension>
        </extensions>
      </trkpt>
      <trkpt lat="36.82180733419954776763916015625" lon="-118.39472285471856594085693359375">
        <ele>3680</ele>
        <time>2021-06-27T15:33:55.000Z</time>
        <extensions>
          <ns3:TrackPointExtension>
            <ns3:atemp>25.0</ns3:atemp>
            <ns3:hr>117</ns3:hr>
          </ns3:TrackPointExtension>
        </extensions>
      </trkpt>
      <trkpt lat="36.821807920932769775390625" lon="-118.39472134597599506378173828125">
        <ele>3680.39990234375</ele>
        <time>2021-06-27T15:33:57.000Z</time>
        <extensions>
          <ns3:TrackPointExtension>
            <ns3:atemp>25.0</ns3:atemp>
            <ns3:hr>121</ns3:hr>
          </ns3:TrackPointExtension>
        </extensions>
      </trkpt>
      <trkpt lat="36.82180884294211864471435546875" lon="-118.39471899904310703277587890625">
        <ele>3681</ele>
        <time>2021-06-27T15:34:00.000Z</time>
        <extensions>
          <ns3:TrackPointExtension>
            <ns3:atemp>25.0</ns3:atemp>
            <ns3:hr>119</ns3:hr>
          </ns3:TrackPointExtension>
        </extensions>
      </trkpt>
      <trkpt lat="36.8218124471604824066162109375" lon="-118.39471019804477691650390625">
        <ele>3680.800048828125</ele>
        <time>2021-06-27T15:34:11.000Z</time>
        <extensions>
          <ns3:TrackPointExtension>
            <ns3:atemp>25.0</ns3:atemp>
            <ns3:hr>122</ns3:hr>
          </ns3:TrackPointExtension>
        </extensions>
      </trkpt>
      <trkpt lat="36.82181538082659244537353515625" lon="-118.3947026543319225311279296875">
        <ele>3682.199951171875</ele>
        <time>2021-06-27T15:34:20.000Z</time>
        <extensions>
          <ns3:TrackPointExtension>
            <ns3:atemp>25.0</ns3:atemp>
            <ns3:hr>122</ns3:hr>
          </ns3:TrackPointExtension>
        </extensions>
      </trkpt>
      <trkpt lat="36.8218191526830196380615234375" lon="-118.39469351805746555328369140625">
        <ele>3682.800048828125</ele>
        <time>2021-06-27T15:34:31.000Z</time>
        <extensions>
          <ns3:TrackPointExtension>
            <ns3:atemp>25.0</ns3:atemp>
            <ns3:hr>119</ns3:hr>
          </ns3:TrackPointExtension>
        </extensions>
      </trkpt>
      <trkpt lat="36.8218198232352733612060546875" lon="-118.39469184167683124542236328125">
        <ele>3682.800048828125</ele>
        <time>2021-06-27T15:34:33.000Z</time>
        <extensions>
          <ns3:TrackPointExtension>
            <ns3:atemp>25.0</ns3:atemp>
            <ns3:hr>115</ns3:hr>
          </ns3:TrackPointExtension>
        </extensions>
      </trkpt>
      <trkpt lat="36.82182091288268566131591796875" lon="-118.39468932710587978363037109375">
        <ele>3683.39990234375</ele>
        <time>2021-06-27T15:34:36.000Z</time>
        <extensions>
          <ns3:TrackPointExtension>
            <ns3:atemp>25.0</ns3:atemp>
            <ns3:hr>117</ns3:hr>
          </ns3:TrackPointExtension>
        </extensions>
      </trkpt>
      <trkpt lat="36.82182292453944683074951171875" lon="-118.394684381783008575439453125">
        <ele>3683.800048828125</ele>
        <time>2021-06-27T15:34:42.000Z</time>
        <extensions>
          <ns3:TrackPointExtension>
            <ns3:atemp>25.0</ns3:atemp>
            <ns3:hr>120</ns3:hr>
          </ns3:TrackPointExtension>
        </extensions>
      </trkpt>
      <trkpt lat="36.821824014186859130859375" lon="-118.3946818672120571136474609375">
        <ele>3684.60009765625</ele>
        <time>2021-06-27T15:34:45.000Z</time>
        <extensions>
          <ns3:TrackPointExtension>
            <ns3:atemp>25.0</ns3:atemp>
            <ns3:hr>122</ns3:hr>
          </ns3:TrackPointExtension>
        </extensions>
      </trkpt>
      <trkpt lat="36.8218266963958740234375" lon="-118.3946751616895198822021484375">
        <ele>3685.800048828125</ele>
        <time>2021-06-27T15:34:53.000Z</time>
        <extensions>
          <ns3:TrackPointExtension>
            <ns3:atemp>25.0</ns3:atemp>
            <ns3:hr>121</ns3:hr>
          </ns3:TrackPointExtension>
        </extensions>
      </trkpt>
      <trkpt lat="36.821829713881015777587890625" lon="-118.39466753415763378143310546875">
        <ele>3686.39990234375</ele>
        <time>2021-06-27T15:35:02.000Z</time>
        <extensions>
          <ns3:TrackPointExtension>
            <ns3:atemp>25.0</ns3:atemp>
            <ns3:hr>118</ns3:hr>
          </ns3:TrackPointExtension>
        </extensions>
      </trkpt>
      <trkpt lat="36.8218307197093963623046875" lon="-118.394664935767650604248046875">
        <ele>3686.60009765625</ele>
        <time>2021-06-27T15:35:05.000Z</time>
        <extensions>
          <ns3:TrackPointExtension>
            <ns3:atemp>25.0</ns3:atemp>
            <ns3:hr>115</ns3:hr>
          </ns3:TrackPointExtension>
        </extensions>
      </trkpt>
      <trkpt lat="36.82183097116649150848388671875" lon="-118.3946640975773334503173828125">
        <ele>3686.800048828125</ele>
        <time>2021-06-27T15:35:06.000Z</time>
        <extensions>
          <ns3:TrackPointExtension>
            <ns3:atemp>25.0</ns3:atemp>
            <ns3:hr>117</ns3:hr>
          </ns3:TrackPointExtension>
        </extensions>
      </trkpt>
      <trkpt lat="36.82183298282325267791748046875" lon="-118.394658900797367095947265625">
        <ele>3686.800048828125</ele>
        <time>2021-06-27T15:35:12.000Z</time>
        <extensions>
          <ns3:TrackPointExtension>
            <ns3:atemp>25.0</ns3:atemp>
            <ns3:hr>114</ns3:hr>
          </ns3:TrackPointExtension>
        </extensions>
      </trkpt>
      <trkpt lat="36.82183616794645786285400390625" lon="-118.39465009979903697967529296875">
        <ele>3686.800048828125</ele>
        <time>2021-06-27T15:35:22.000Z</time>
        <extensions>
          <ns3:TrackPointExtension>
            <ns3:atemp>25.0</ns3:atemp>
            <ns3:hr>118</ns3:hr>
          </ns3:TrackPointExtension>
        </extensions>
      </trkpt>
      <trkpt lat="36.82183683849871158599853515625" lon="-118.3946483395993709564208984375">
        <ele>3687</ele>
        <time>2021-06-27T15:35:24.000Z</time>
        <extensions>
          <ns3:TrackPointExtension>
            <ns3:atemp>25.0</ns3:atemp>
            <ns3:hr>121</ns3:hr>
          </ns3:TrackPointExtension>
        </extensions>
      </trkpt>
      <trkpt lat="36.82184186764061450958251953125" lon="-118.39463450945913791656494140625">
        <ele>3687.39990234375</ele>
        <time>2021-06-27T15:35:40.000Z</time>
        <extensions>
          <ns3:TrackPointExtension>
            <ns3:atemp>25.0</ns3:atemp>
            <ns3:hr>118</ns3:hr>
          </ns3:TrackPointExtension>
        </extensions>
      </trkpt>
      <trkpt lat="36.82184589095413684844970703125" lon="-118.39462344534695148468017578125">
        <ele>3687.199951171875</ele>
        <time>2021-06-27T15:35:53.000Z</time>
        <extensions>
          <ns3:TrackPointExtension>
            <ns3:atemp>25.0</ns3:atemp>
            <ns3:hr>115</ns3:hr>
          </ns3:TrackPointExtension>
        </extensions>
      </trkpt>
      <trkpt lat="36.82184773497283458709716796875" lon="-118.3946185000240802764892578125">
        <ele>3686.800048828125</ele>
        <time>2021-06-27T15:35:59.000Z</time>
        <extensions>
          <ns3:TrackPointExtension>
            <ns3:atemp>25.0</ns3:atemp>
            <ns3:hr>112</ns3:hr>
          </ns3:TrackPointExtension>
        </extensions>
      </trkpt>
      <trkpt lat="36.8218486569821834564208984375" lon="-118.394615985453128814697265625">
        <ele>3686.800048828125</ele>
        <time>2021-06-27T15:36:02.000Z</time>
        <extensions>
          <ns3:TrackPointExtension>
            <ns3:atemp>25.0</ns3:atemp>
            <ns3:hr>109</ns3:hr>
          </ns3:TrackPointExtension>
        </extensions>
      </trkpt>
      <trkpt lat="36.82184924371540546417236328125" lon="-118.39461439289152622222900390625">
        <ele>3687.199951171875</ele>
        <time>2021-06-27T15:36:04.000Z</time>
        <extensions>
          <ns3:TrackPointExtension>
            <ns3:atemp>25.0</ns3:atemp>
            <ns3:hr>107</ns3:hr>
          </ns3:TrackPointExtension>
        </extensions>
      </trkpt>
      <trkpt lat="36.82185293175280094146728515625" lon="-118.394604586064815521240234375">
        <ele>3687.39990234375</ele>
        <time>2021-06-27T15:36:16.000Z</time>
        <extensions>
          <ns3:TrackPointExtension>
            <ns3:atemp>25.0</ns3:atemp>
            <ns3:hr>104</ns3:hr>
          </ns3:TrackPointExtension>
        </extensions>
      </trkpt>
      <trkpt lat="36.8218570388853549957275390625" lon="-118.39459352195262908935546875">
        <ele>3687.60009765625</ele>
        <time>2021-06-27T15:36:30.000Z</time>
        <extensions>
          <ns3:TrackPointExtension>
            <ns3:atemp>25.0</ns3:atemp>
            <ns3:hr>101</ns3:hr>
          </ns3:TrackPointExtension>
        </extensions>
      </trkpt>
      <trkpt lat="36.82185821235179901123046875" lon="-118.3945903368294239044189453125">
        <ele>3687.60009765625</ele>
        <time>2021-06-27T15:36:34.000Z</time>
        <extensions>
          <ns3:TrackPointExtension>
            <ns3:atemp>25.0</ns3:atemp>
            <ns3:hr>98</ns3:hr>
          </ns3:TrackPointExtension>
        </extensions>
      </trkpt>
      <trkpt lat="36.82185879908502101898193359375" lon="-118.39458882808685302734375">
        <ele>3687.60009765625</ele>
        <time>2021-06-27T15:36:36.000Z</time>
        <extensions>
          <ns3:TrackPointExtension>
            <ns3:atemp>25.0</ns3:atemp>
            <ns3:hr>94</ns3:hr>
          </ns3:TrackPointExtension>
        </extensions>
      </trkpt>
      <trkpt lat="36.8218593858182430267333984375" lon="-118.39458723552525043487548828125">
        <ele>3687.60009765625</ele>
        <time>2021-06-27T15:36:38.000Z</time>
        <extensions>
          <ns3:TrackPointExtension>
            <ns3:atemp>25.0</ns3:atemp>
            <ns3:hr>91</ns3:hr>
          </ns3:TrackPointExtension>
        </extensions>
      </trkpt>
      <trkpt lat="36.82185997255146503448486328125" lon="-118.3945856429636478424072265625">
        <ele>3687.60009765625</ele>
        <time>2021-06-27T15:36:40.000Z</time>
        <extensions>
          <ns3:TrackPointExtension>
            <ns3:atemp>25.0</ns3:atemp>
            <ns3:hr>88</ns3:hr>
          </ns3:TrackPointExtension>
        </extensions>
      </trkpt>
      <trkpt lat="36.82186089456081390380859375" lon="-118.3945832960307598114013671875">
        <ele>3687.60009765625</ele>
        <time>2021-06-27T15:36:43.000Z</time>
        <extensions>
          <ns3:TrackPointExtension>
            <ns3:atemp>25.0</ns3:atemp>
            <ns3:hr>85</ns3:hr>
          </ns3:TrackPointExtension>
        </extensions>
      </trkpt>
      <trkpt lat="36.82186466641724109649658203125" lon="-118.3945732377469539642333984375">
        <ele>3687.60009765625</ele>
        <time>2021-06-27T15:36:56.000Z</time>
        <extensions>
          <ns3:TrackPointExtension>
            <ns3:atemp>25.0</ns3:atemp>
            <ns3:hr>88</ns3:hr>
          </ns3:TrackPointExtension>
        </extensions>
      </trkpt>
      <trkpt lat="36.821866929531097412109375" lon="-118.394567035138607025146484375">
        <ele>3687.60009765625</ele>
        <time>2021-06-27T15:37:04.000Z</time>
        <extensions>
          <ns3:TrackPointExtension>
            <ns3:atemp>25.0</ns3:atemp>
            <ns3:hr>91</ns3:hr>
          </ns3:TrackPointExtension>
        </extensions>
      </trkpt>
      <trkpt lat="36.8218681029975414276123046875" lon="-118.39456401765346527099609375">
        <ele>3687.60009765625</ele>
        <time>2021-06-27T15:37:08.000Z</time>
        <extensions>
          <ns3:TrackPointExtension>
            <ns3:atemp>25.0</ns3:atemp>
            <ns3:hr>94</ns3:hr>
          </ns3:TrackPointExtension>
        </extensions>
      </trkpt>
      <trkpt lat="36.821869276463985443115234375" lon="-118.39456091634929180145263671875">
        <ele>3687.60009765625</ele>
        <time>2021-06-27T15:37:12.000Z</time>
        <extensions>
          <ns3:TrackPointExtension>
            <ns3:atemp>25.0</ns3:atemp>
            <ns3:hr>97</ns3:hr>
          </ns3:TrackPointExtension>
        </extensions>
      </trkpt>
      <trkpt lat="36.82187254540622234344482421875" lon="-118.3945524506270885467529296875">
        <ele>3687.60009765625</ele>
        <time>2021-06-27T15:37:23.000Z</time>
        <extensions>
          <ns3:TrackPointExtension>
            <ns3:atemp>25.0</ns3:atemp>
            <ns3:hr>92</ns3:hr>
          </ns3:TrackPointExtension>
        </extensions>
      </trkpt>
      <trkpt lat="36.8218727968633174896240234375" lon="-118.39455169625580310821533203125">
        <ele>3687.60009765625</ele>
        <time>2021-06-27T15:37:24.000Z</time>
        <extensions>
          <ns3:TrackPointExtension>
            <ns3:atemp>25.0</ns3:atemp>
            <ns3:hr>95</ns3:hr>
          </ns3:TrackPointExtension>
        </extensions>
      </trkpt>
      <trkpt lat="36.8218731321394443511962890625" lon="-118.39455085806548595428466796875">
        <ele>3691.60009765625</ele>
        <time>2021-06-27T15:37:25.000Z</time>
        <extensions>
          <ns3:TrackPointExtension>
            <ns3:atemp>25.0</ns3:atemp>
            <ns3:hr>95</ns3:hr>
          </ns3:TrackPointExtension>
        </extensions>
      </trkpt>
      <trkpt lat="36.82187489233911037445068359375" lon="-118.394546248018741607666015625">
        <ele>3691.800048828125</ele>
        <time>2021-06-27T15:37:31.000Z</time>
        <extensions>
          <ns3:TrackPointExtension>
            <ns3:atemp>25.0</ns3:atemp>
            <ns3:hr>98</ns3:hr>
          </ns3:TrackPointExtension>
        </extensions>
      </trkpt>
      <trkpt lat="36.8218758143484592437744140625" lon="-118.39454390108585357666015625">
        <ele>3692</ele>
        <time>2021-06-27T15:37:34.000Z</time>
        <extensions>
          <ns3:TrackPointExtension>
            <ns3:atemp>25.0</ns3:atemp>
            <ns3:hr>101</ns3:hr>
          </ns3:TrackPointExtension>
        </extensions>
      </trkpt>
      <trkpt lat="36.82187698781490325927734375" lon="-118.3945407159626483917236328125">
        <ele>3692.60009765625</ele>
        <time>2021-06-27T15:37:38.000Z</time>
        <extensions>
          <ns3:TrackPointExtension>
            <ns3:atemp>25.0</ns3:atemp>
            <ns3:hr>107</ns3:hr>
          </ns3:TrackPointExtension>
        </extensions>
      </trkpt>
      <trkpt lat="36.821877323091030120849609375" lon="-118.39453996159136295318603515625">
        <ele>3693</ele>
        <time>2021-06-27T15:37:39.000Z</time>
        <extensions>
          <ns3:TrackPointExtension>
            <ns3:atemp>25.0</ns3:atemp>
            <ns3:hr>107</ns3:hr>
          </ns3:TrackPointExtension>
        </extensions>
      </trkpt>
      <trkpt lat="36.82187824510037899017333984375" lon="-118.394537530839443206787109375">
        <ele>3694</ele>
        <time>2021-06-27T15:37:42.000Z</time>
        <extensions>
          <ns3:TrackPointExtension>
            <ns3:atemp>25.0</ns3:atemp>
            <ns3:hr>106</ns3:hr>
          </ns3:TrackPointExtension>
        </extensions>
      </trkpt>
      <trkpt lat="36.82188059203326702117919921875" lon="-118.3945309929549694061279296875">
        <ele>3695</ele>
        <time>2021-06-27T15:37:50.000Z</time>
        <extensions>
          <ns3:TrackPointExtension>
            <ns3:atemp>25.0</ns3:atemp>
            <ns3:hr>106</ns3:hr>
          </ns3:TrackPointExtension>
        </extensions>
      </trkpt>
      <trkpt lat="36.82188210077583789825439453125" lon="-118.394526802003383636474609375">
        <ele>3695.60009765625</ele>
        <time>2021-06-27T15:37:55.000Z</time>
        <extensions>
          <ns3:TrackPointExtension>
            <ns3:atemp>25.0</ns3:atemp>
            <ns3:hr>110</ns3:hr>
          </ns3:TrackPointExtension>
        </extensions>
      </trkpt>
      <trkpt lat="36.821882687509059906005859375" lon="-118.39452512562274932861328125">
        <ele>3695.800048828125</ele>
        <time>2021-06-27T15:37:57.000Z</time>
        <extensions>
          <ns3:TrackPointExtension>
            <ns3:atemp>25.0</ns3:atemp>
            <ns3:hr>113</ns3:hr>
          </ns3:TrackPointExtension>
        </extensions>
      </trkpt>
      <trkpt lat="36.82188327424228191375732421875" lon="-118.39452336542308330535888671875">
        <ele>3695.800048828125</ele>
        <time>2021-06-27T15:37:59.000Z</time>
        <extensions>
          <ns3:TrackPointExtension>
            <ns3:atemp>25.0</ns3:atemp>
            <ns3:hr>116</ns3:hr>
          </ns3:TrackPointExtension>
        </extensions>
      </trkpt>
      <trkpt lat="36.8218841962516307830810546875" lon="-118.39452068321406841278076171875">
        <ele>3696</ele>
        <time>2021-06-27T15:38:02.000Z</time>
        <extensions>
          <ns3:TrackPointExtension>
            <ns3:atemp>25.0</ns3:atemp>
            <ns3:hr>120</ns3:hr>
          </ns3:TrackPointExtension>
        </extensions>
      </trkpt>
      <trkpt lat="36.82188478298485279083251953125" lon="-118.39451900683343410491943359375">
        <ele>3696.39990234375</ele>
        <time>2021-06-27T15:38:04.000Z</time>
        <extensions>
          <ns3:TrackPointExtension>
            <ns3:atemp>25.0</ns3:atemp>
            <ns3:hr>121</ns3:hr>
          </ns3:TrackPointExtension>
        </extensions>
      </trkpt>
      <trkpt lat="36.821886710822582244873046875" lon="-118.39451364241540431976318359375">
        <ele>3697</ele>
        <time>2021-06-27T15:38:10.000Z</time>
        <extensions>
          <ns3:TrackPointExtension>
            <ns3:atemp>25.0</ns3:atemp>
            <ns3:hr>118</ns3:hr>
          </ns3:TrackPointExtension>
        </extensions>
      </trkpt>
      <trkpt lat="36.82188796810805797576904296875" lon="-118.39451012201607227325439453125">
        <ele>3697</ele>
        <time>2021-06-27T15:38:14.000Z</time>
        <extensions>
          <ns3:TrackPointExtension>
            <ns3:atemp>25.0</ns3:atemp>
            <ns3:hr>114</ns3:hr>
          </ns3:TrackPointExtension>
        </extensions>
      </trkpt>
      <trkpt lat="36.8218924105167388916015625" lon="-118.39449771679937839508056640625">
        <ele>3697.39990234375</ele>
        <time>2021-06-27T15:38:28.000Z</time>
        <extensions>
          <ns3:TrackPointExtension>
            <ns3:atemp>25.0</ns3:atemp>
            <ns3:hr>113</ns3:hr>
          </ns3:TrackPointExtension>
        </extensions>
      </trkpt>
      <trkpt lat="36.82190112769603729248046875" lon="-118.394473828375339508056640625">
        <ele>3696.800048828125</ele>
        <time>2021-06-27T15:38:54.000Z</time>
        <extensions>
          <ns3:TrackPointExtension>
            <ns3:atemp>25.0</ns3:atemp>
            <ns3:hr>110</ns3:hr>
          </ns3:TrackPointExtension>
        </extensions>
      </trkpt>
      <trkpt lat="36.82190221734344959259033203125" lon="-118.394471146166324615478515625">
        <ele>3696.60009765625</ele>
        <time>2021-06-27T15:38:57.000Z</time>
        <extensions>
          <ns3:TrackPointExtension>
            <ns3:atemp>25.0</ns3:atemp>
            <ns3:hr>110</ns3:hr>
          </ns3:TrackPointExtension>
        </extensions>
      </trkpt>
      <trkpt lat="36.82190322317183017730712890625" lon="-118.394468463957309722900390625">
        <ele>3697</ele>
        <time>2021-06-27T15:39:00.000Z</time>
        <extensions>
          <ns3:TrackPointExtension>
            <ns3:atemp>25.0</ns3:atemp>
            <ns3:hr>107</ns3:hr>
          </ns3:TrackPointExtension>
        </extensions>
      </trkpt>
      <trkpt lat="36.8219043128192424774169921875" lon="-118.39446569792926311492919921875">
        <ele>3697</ele>
        <time>2021-06-27T15:39:03.000Z</time>
        <extensions>
          <ns3:TrackPointExtension>
            <ns3:atemp>25.0</ns3:atemp>
            <ns3:hr>104</ns3:hr>
          </ns3:TrackPointExtension>
        </extensions>
      </trkpt>
      <trkpt lat="36.821908168494701385498046875" lon="-118.3944558911025524139404296875">
        <ele>3697</ele>
        <time>2021-06-27T15:39:14.000Z</time>
        <extensions>
          <ns3:TrackPointExtension>
            <ns3:atemp>25.0</ns3:atemp>
            <ns3:hr>101</ns3:hr>
          </ns3:TrackPointExtension>
        </extensions>
      </trkpt>
      <trkpt lat="36.821925602853298187255859375" lon="-118.3944086171686649322509765625">
        <ele>3697.800048828125</ele>
        <time>2021-06-27T15:40:10.000Z</time>
        <extensions>
          <ns3:TrackPointExtension>
            <ns3:atemp>25.0</ns3:atemp>
            <ns3:hr>105</ns3:hr>
          </ns3:TrackPointExtension>
        </extensions>
      </trkpt>
      <trkpt lat="36.8219281174242496490478515625" lon="-118.3944009058177471160888671875">
        <ele>3697.800048828125</ele>
        <time>2021-06-27T15:40:19.000Z</time>
        <extensions>
          <ns3:TrackPointExtension>
            <ns3:atemp>25.0</ns3:atemp>
            <ns3:hr>109</ns3:hr>
          </ns3:TrackPointExtension>
        </extensions>
      </trkpt>
      <trkpt lat="36.82192870415747165679931640625" lon="-118.3943992294371128082275390625">
        <ele>3697.800048828125</ele>
        <time>2021-06-27T15:40:21.000Z</time>
        <extensions>
          <ns3:TrackPointExtension>
            <ns3:atemp>25.0</ns3:atemp>
            <ns3:hr>113</ns3:hr>
          </ns3:TrackPointExtension>
        </extensions>
      </trkpt>
      <trkpt lat="36.82193071581423282623291015625" lon="-118.3943931944668292999267578125">
        <ele>3702</ele>
        <time>2021-06-27T15:40:28.000Z</time>
        <extensions>
          <ns3:TrackPointExtension>
            <ns3:atemp>25.0</ns3:atemp>
            <ns3:hr>115</ns3:hr>
          </ns3:TrackPointExtension>
        </extensions>
      </trkpt>
      <trkpt lat="36.82193289510905742645263671875" lon="-118.3943863213062286376953125">
        <ele>3703.199951171875</ele>
        <time>2021-06-27T15:40:36.000Z</time>
        <extensions>
          <ns3:TrackPointExtension>
            <ns3:atemp>25.0</ns3:atemp>
            <ns3:hr>114</ns3:hr>
          </ns3:TrackPointExtension>
        </extensions>
      </trkpt>
      <trkpt lat="36.82193465530872344970703125" lon="-118.39438120834529399871826171875">
        <ele>3704.39990234375</ele>
        <time>2021-06-27T15:40:42.000Z</time>
        <extensions>
          <ns3:TrackPointExtension>
            <ns3:atemp>25.0</ns3:atemp>
            <ns3:hr>111</ns3:hr>
          </ns3:TrackPointExtension>
        </extensions>
      </trkpt>
      <trkpt lat="36.82193574495613574981689453125" lon="-118.3943777717649936676025390625">
        <ele>3705.800048828125</ele>
        <time>2021-06-27T15:40:46.000Z</time>
        <extensions>
          <ns3:TrackPointExtension>
            <ns3:atemp>25.0</ns3:atemp>
            <ns3:hr>110</ns3:hr>
          </ns3:TrackPointExtension>
        </extensions>
      </trkpt>
      <trkpt lat="36.8219395168125629425048828125" lon="-118.39436662383377552032470703125">
        <ele>3707.199951171875</ele>
        <time>2021-06-27T15:40:59.000Z</time>
        <extensions>
          <ns3:TrackPointExtension>
            <ns3:atemp>25.0</ns3:atemp>
            <ns3:hr>110</ns3:hr>
          </ns3:TrackPointExtension>
        </extensions>
      </trkpt>
      <trkpt lat="36.821940355002880096435546875" lon="-118.394363857805728912353515625">
        <ele>3708.39990234375</ele>
        <time>2021-06-27T15:41:02.000Z</time>
        <extensions>
          <ns3:TrackPointExtension>
            <ns3:atemp>25.0</ns3:atemp>
            <ns3:hr>108</ns3:hr>
          </ns3:TrackPointExtension>
        </extensions>
      </trkpt>
      <trkpt lat="36.821941696107387542724609375" lon="-118.39435941539704799652099609375">
        <ele>3709.800048828125</ele>
        <time>2021-06-27T15:41:07.000Z</time>
        <extensions>
          <ns3:TrackPointExtension>
            <ns3:atemp>25.0</ns3:atemp>
            <ns3:hr>107</ns3:hr>
          </ns3:TrackPointExtension>
        </extensions>
      </trkpt>
      <trkpt lat="36.821943707764148712158203125" lon="-118.39435304515063762664794921875">
        <ele>3710.39990234375</ele>
        <time>2021-06-27T15:41:14.000Z</time>
        <extensions>
          <ns3:TrackPointExtension>
            <ns3:atemp>25.0</ns3:atemp>
            <ns3:hr>104</ns3:hr>
          </ns3:TrackPointExtension>
        </extensions>
      </trkpt>
      <trkpt lat="36.82194479741156101226806640625" lon="-118.3943492732942104339599609375">
        <ele>3710.800048828125</ele>
        <time>2021-06-27T15:41:18.000Z</time>
        <extensions>
          <ns3:TrackPointExtension>
            <ns3:atemp>25.0</ns3:atemp>
            <ns3:hr>107</ns3:hr>
          </ns3:TrackPointExtension>
        </extensions>
      </trkpt>
      <trkpt lat="36.82194672524929046630859375" lon="-118.39434265159070491790771484375">
        <ele>3711.60009765625</ele>
        <time>2021-06-27T15:41:25.000Z</time>
        <extensions>
          <ns3:TrackPointExtension>
            <ns3:atemp>25.0</ns3:atemp>
            <ns3:hr>110</ns3:hr>
          </ns3:TrackPointExtension>
        </extensions>
      </trkpt>
      <trkpt lat="36.82194697670638561248779296875" lon="-118.394341729581356048583984375">
        <ele>3712</ele>
        <time>2021-06-27T15:41:26.000Z</time>
        <extensions>
          <ns3:TrackPointExtension>
            <ns3:atemp>25.0</ns3:atemp>
            <ns3:hr>109</ns3:hr>
          </ns3:TrackPointExtension>
        </extensions>
      </trkpt>
      <trkpt lat="36.82194815017282962799072265625" lon="-118.3943378739058971405029296875">
        <ele>3713</ele>
        <time>2021-06-27T15:41:30.000Z</time>
        <extensions>
          <ns3:TrackPointExtension>
            <ns3:atemp>25.0</ns3:atemp>
            <ns3:hr>111</ns3:hr>
          </ns3:TrackPointExtension>
        </extensions>
      </trkpt>
      <trkpt lat="36.8219519220292568206787109375" lon="-118.39432521723210811614990234375">
        <ele>3714</ele>
        <time>2021-06-27T15:41:43.000Z</time>
        <extensions>
          <ns3:TrackPointExtension>
            <ns3:atemp>25.0</ns3:atemp>
            <ns3:hr>110</ns3:hr>
          </ns3:TrackPointExtension>
        </extensions>
      </trkpt>
      <trkpt lat="36.82195334695279598236083984375" lon="-118.394320271909236907958984375">
        <ele>3714.39990234375</ele>
        <time>2021-06-27T15:41:48.000Z</time>
        <extensions>
          <ns3:TrackPointExtension>
            <ns3:atemp>25.0</ns3:atemp>
            <ns3:hr>106</ns3:hr>
          </ns3:TrackPointExtension>
        </extensions>
      </trkpt>
      <trkpt lat="36.8219572864472866058349609375" lon="-118.39430627413094043731689453125">
        <ele>3715</ele>
        <time>2021-06-27T15:42:02.000Z</time>
        <extensions>
          <ns3:TrackPointExtension>
            <ns3:atemp>25.0</ns3:atemp>
            <ns3:hr>106</ns3:hr>
          </ns3:TrackPointExtension>
        </extensions>
      </trkpt>
      <trkpt lat="36.82195921428501605987548828125" lon="-118.39429940097033977508544921875">
        <ele>3715</ele>
        <time>2021-06-27T15:42:09.000Z</time>
        <extensions>
          <ns3:TrackPointExtension>
            <ns3:atemp>25.0</ns3:atemp>
            <ns3:hr>109</ns3:hr>
          </ns3:TrackPointExtension>
        </extensions>
      </trkpt>
      <trkpt lat="36.82196340523660182952880859375" lon="-118.39428414590656757354736328125">
        <ele>3716.199951171875</ele>
        <time>2021-06-27T15:42:24.000Z</time>
        <extensions>
          <ns3:TrackPointExtension>
            <ns3:atemp>25.0</ns3:atemp>
            <ns3:hr>108</ns3:hr>
          </ns3:TrackPointExtension>
        </extensions>
      </trkpt>
      <trkpt lat="36.821964494884014129638671875" lon="-118.39428012259304523468017578125">
        <ele>3716.199951171875</ele>
        <time>2021-06-27T15:42:28.000Z</time>
        <extensions>
          <ns3:TrackPointExtension>
            <ns3:atemp>25.0</ns3:atemp>
            <ns3:hr>104</ns3:hr>
          </ns3:TrackPointExtension>
        </extensions>
      </trkpt>
      <trkpt lat="36.821965835988521575927734375" lon="-118.394275009632110595703125">
        <ele>3716.800048828125</ele>
        <time>2021-06-27T15:42:33.000Z</time>
        <extensions>
          <ns3:TrackPointExtension>
            <ns3:atemp>25.0</ns3:atemp>
            <ns3:hr>107</ns3:hr>
          </ns3:TrackPointExtension>
        </extensions>
      </trkpt>
      <trkpt lat="36.82196642272174358367919921875" lon="-118.39427291415631771087646484375">
        <ele>3717.60009765625</ele>
        <time>2021-06-27T15:42:35.000Z</time>
        <extensions>
          <ns3:TrackPointExtension>
            <ns3:atemp>25.0</ns3:atemp>
            <ns3:hr>109</ns3:hr>
          </ns3:TrackPointExtension>
        </extensions>
      </trkpt>
      <trkpt lat="36.821967177093029022216796875" lon="-118.39426989667117595672607421875">
        <ele>3718</ele>
        <time>2021-06-27T15:42:38.000Z</time>
        <extensions>
          <ns3:TrackPointExtension>
            <ns3:atemp>25.0</ns3:atemp>
            <ns3:hr>112</ns3:hr>
          </ns3:TrackPointExtension>
        </extensions>
      </trkpt>
      <trkpt lat="36.8219683505594730377197265625" lon="-118.3942657895386219024658203125">
        <ele>3718.60009765625</ele>
        <time>2021-06-27T15:42:42.000Z</time>
        <extensions>
          <ns3:TrackPointExtension>
            <ns3:atemp>25.0</ns3:atemp>
            <ns3:hr>112</ns3:hr>
          </ns3:TrackPointExtension>
        </extensions>
      </trkpt>
      <trkpt lat="36.8220008723437786102294921875" lon="-118.39412413537502288818359375">
        <ele>3720</ele>
        <time>2021-06-27T15:42:47.000Z</time>
        <extensions>
          <ns3:TrackPointExtension>
            <ns3:atemp>25.0</ns3:atemp>
            <ns3:hr>114</ns3:hr>
          </ns3:TrackPointExtension>
        </extensions>
      </trkpt>
      <trkpt lat="36.82202995754778385162353515625" lon="-118.39398373849689960479736328125">
        <ele>3720.199951171875</ele>
        <time>2021-06-27T15:42:49.000Z</time>
        <extensions>
          <ns3:TrackPointExtension>
            <ns3:atemp>25.0</ns3:atemp>
            <ns3:hr>111</ns3:hr>
          </ns3:TrackPointExtension>
        </extensions>
      </trkpt>
      <trkpt lat="36.82204437442123889923095703125" lon="-118.39391668327152729034423828125">
        <ele>3721.199951171875</ele>
        <time>2021-06-27T15:42:50.000Z</time>
        <extensions>
          <ns3:TrackPointExtension>
            <ns3:atemp>25.0</ns3:atemp>
            <ns3:hr>111</ns3:hr>
          </ns3:TrackPointExtension>
        </extensions>
      </trkpt>
      <trkpt lat="36.82206130586564540863037109375" lon="-118.3938498795032501220703125">
        <ele>3721.199951171875</ele>
        <time>2021-06-27T15:42:51.000Z</time>
        <extensions>
          <ns3:TrackPointExtension>
            <ns3:atemp>25.0</ns3:atemp>
            <ns3:hr>111</ns3:hr>
          </ns3:TrackPointExtension>
        </extensions>
      </trkpt>
      <trkpt lat="36.822145543992519378662109375" lon="-118.3935902081429958343505859375">
        <ele>3722</ele>
        <time>2021-06-27T15:42:59.000Z</time>
        <extensions>
          <ns3:TrackPointExtension>
            <ns3:atemp>25.0</ns3:atemp>
            <ns3:hr>109</ns3:hr>
          </ns3:TrackPointExtension>
        </extensions>
      </trkpt>
      <trkpt lat="36.82215199805796146392822265625" lon="-118.39358928613364696502685546875">
        <ele>3721.800048828125</ele>
        <time>2021-06-27T15:43:02.000Z</time>
        <extensions>
          <ns3:TrackPointExtension>
            <ns3:atemp>25.0</ns3:atemp>
            <ns3:hr>106</ns3:hr>
          </ns3:TrackPointExtension>
        </extensions>
      </trkpt>
      <trkpt lat="36.82215199805796146392822265625" lon="-118.39358928613364696502685546875">
        <ele>3721.60009765625</ele>
        <time>2021-06-27T15:43:04.000Z</time>
        <extensions>
          <ns3:TrackPointExtension>
            <ns3:atemp>25.0</ns3:atemp>
            <ns3:hr>103</ns3:hr>
          </ns3:TrackPointExtension>
        </extensions>
      </trkpt>
      <trkpt lat="36.8221493996679782867431640625" lon="-118.39358928613364696502685546875">
        <ele>3722</ele>
        <time>2021-06-27T15:43:13.000Z</time>
        <extensions>
          <ns3:TrackPointExtension>
            <ns3:atemp>25.0</ns3:atemp>
            <ns3:hr>100</ns3:hr>
          </ns3:TrackPointExtension>
        </extensions>
      </trkpt>
      <trkpt lat="36.8221473880112171173095703125" lon="-118.39358928613364696502685546875">
        <ele>3722.199951171875</ele>
        <time>2021-06-27T15:43:16.000Z</time>
        <extensions>
          <ns3:TrackPointExtension>
            <ns3:atemp>25.0</ns3:atemp>
            <ns3:hr>98</ns3:hr>
          </ns3:TrackPointExtension>
        </extensions>
      </trkpt>
      <trkpt lat="36.82214923202991485595703125" lon="-118.39359280653297901153564453125">
        <ele>3722.199951171875</ele>
        <time>2021-06-27T15:43:24.000Z</time>
        <extensions>
          <ns3:TrackPointExtension>
            <ns3:atemp>25.0</ns3:atemp>
            <ns3:hr>101</ns3:hr>
          </ns3:TrackPointExtension>
        </extensions>
      </trkpt>
      <trkpt lat="36.822151578962802886962890625" lon="-118.39359582401812076568603515625">
        <ele>3722.60009765625</ele>
        <time>2021-06-27T15:43:36.000Z</time>
        <extensions>
          <ns3:TrackPointExtension>
            <ns3:atemp>25.0</ns3:atemp>
            <ns3:hr>105</ns3:hr>
          </ns3:TrackPointExtension>
        </extensions>
      </trkpt>
      <trkpt lat="36.82215166278183460235595703125" lon="-118.39359582401812076568603515625">
        <ele>3722.800048828125</ele>
        <time>2021-06-27T15:43:38.000Z</time>
        <extensions>
          <ns3:TrackPointExtension>
            <ns3:atemp>25.0</ns3:atemp>
            <ns3:hr>108</ns3:hr>
          </ns3:TrackPointExtension>
        </extensions>
      </trkpt>
      <trkpt lat="36.82215166278183460235595703125" lon="-118.39359582401812076568603515625">
        <ele>3722.800048828125</ele>
        <time>2021-06-27T15:43:43.000Z</time>
        <extensions>
          <ns3:TrackPointExtension>
            <ns3:atemp>25.0</ns3:atemp>
            <ns3:hr>111</ns3:hr>
          </ns3:TrackPointExtension>
        </extensions>
      </trkpt>
      <trkpt lat="36.82215166278183460235595703125" lon="-118.39359582401812076568603515625">
        <ele>3723</ele>
        <time>2021-06-27T15:43:46.000Z</time>
        <extensions>
          <ns3:TrackPointExtension>
            <ns3:atemp>25.0</ns3:atemp>
            <ns3:hr>106</ns3:hr>
          </ns3:TrackPointExtension>
        </extensions>
      </trkpt>
      <trkpt lat="36.82215166278183460235595703125" lon="-118.39358593337237834930419921875">
        <ele>3723.199951171875</ele>
        <time>2021-06-27T15:43:48.000Z</time>
        <extensions>
          <ns3:TrackPointExtension>
            <ns3:atemp>25.0</ns3:atemp>
            <ns3:hr>103</ns3:hr>
          </ns3:TrackPointExtension>
        </extensions>
      </trkpt>
      <trkpt lat="36.82215166278183460235595703125" lon="-118.39357637800276279449462890625">
        <ele>3723.199951171875</ele>
        <time>2021-06-27T15:43:49.000Z</time>
        <extensions>
          <ns3:TrackPointExtension>
            <ns3:atemp>25.0</ns3:atemp>
            <ns3:hr>102</ns3:hr>
          </ns3:TrackPointExtension>
        </extensions>
      </trkpt>
      <trkpt lat="36.82214076630771160125732421875" lon="-118.39356062002480030059814453125">
        <ele>3723.199951171875</ele>
        <time>2021-06-27T15:44:01.000Z</time>
        <extensions>
          <ns3:TrackPointExtension>
            <ns3:atemp>25.0</ns3:atemp>
            <ns3:hr>105</ns3:hr>
          </ns3:TrackPointExtension>
        </extensions>
      </trkpt>
      <trkpt lat="36.82214076630771160125732421875" lon="-118.3935603685677051544189453125">
        <ele>3723.199951171875</ele>
        <time>2021-06-27T15:44:07.000Z</time>
        <extensions>
          <ns3:TrackPointExtension>
            <ns3:atemp>25.0</ns3:atemp>
            <ns3:hr>102</ns3:hr>
          </ns3:TrackPointExtension>
        </extensions>
      </trkpt>
      <trkpt lat="36.82214059866964817047119140625" lon="-118.3935600332915782928466796875">
        <ele>3723.199951171875</ele>
        <time>2021-06-27T15:44:10.000Z</time>
        <extensions>
          <ns3:TrackPointExtension>
            <ns3:atemp>25.0</ns3:atemp>
            <ns3:hr>98</ns3:hr>
          </ns3:TrackPointExtension>
        </extensions>
      </trkpt>
      <trkpt lat="36.82214043103158473968505859375" lon="-118.3935580216348171234130859375">
        <ele>3723.39990234375</ele>
        <time>2021-06-27T15:44:22.000Z</time>
        <extensions>
          <ns3:TrackPointExtension>
            <ns3:atemp>26.0</ns3:atemp>
            <ns3:hr>94</ns3:hr>
          </ns3:TrackPointExtension>
        </extensions>
      </trkpt>
      <trkpt lat="36.8221316300332546234130859375" lon="-118.3935539983212947845458984375">
        <ele>3723.39990234375</ele>
        <time>2021-06-27T15:44:30.000Z</time>
        <extensions>
          <ns3:TrackPointExtension>
            <ns3:atemp>26.0</ns3:atemp>
            <ns3:hr>91</ns3:hr>
          </ns3:TrackPointExtension>
        </extensions>
      </trkpt>
      <trkpt lat="36.82212752290070056915283203125" lon="-118.39355357922613620758056640625">
        <ele>3723.39990234375</ele>
        <time>2021-06-27T15:44:35.000Z</time>
        <extensions>
          <ns3:TrackPointExtension>
            <ns3:atemp>26.0</ns3:atemp>
            <ns3:hr>89</ns3:hr>
          </ns3:TrackPointExtension>
        </extensions>
      </trkpt>
      <trkpt lat="36.8221235834062099456787109375" lon="-118.39355357922613620758056640625">
        <ele>3724.199951171875</ele>
        <time>2021-06-27T15:44:39.000Z</time>
        <extensions>
          <ns3:TrackPointExtension>
            <ns3:atemp>26.0</ns3:atemp>
            <ns3:hr>90</ns3:hr>
          </ns3:TrackPointExtension>
        </extensions>
      </trkpt>
      <trkpt lat="36.82212333194911479949951171875" lon="-118.3935573510825634002685546875">
        <ele>3725.60009765625</ele>
        <time>2021-06-27T15:44:51.000Z</time>
        <extensions>
          <ns3:TrackPointExtension>
            <ns3:atemp>26.0</ns3:atemp>
            <ns3:hr>89</ns3:hr>
          </ns3:TrackPointExtension>
        </extensions>
      </trkpt>
      <trkpt lat="36.822129450738430023193359375" lon="-118.39355760253965854644775390625">
        <ele>3726</ele>
        <time>2021-06-27T15:44:54.000Z</time>
        <extensions>
          <ns3:TrackPointExtension>
            <ns3:atemp>26.0</ns3:atemp>
            <ns3:hr>92</ns3:hr>
          </ns3:TrackPointExtension>
        </extensions>
      </trkpt>
      <trkpt lat="36.82214294560253620147705078125" lon="-118.3935576863586902618408203125">
        <ele>3726.39990234375</ele>
        <time>2021-06-27T15:44:57.000Z</time>
        <extensions>
          <ns3:TrackPointExtension>
            <ns3:atemp>26.0</ns3:atemp>
            <ns3:hr>95</ns3:hr>
          </ns3:TrackPointExtension>
        </extensions>
      </trkpt>
      <trkpt lat="36.82214596308767795562744140625" lon="-118.3935576863586902618408203125">
        <ele>3726.60009765625</ele>
        <time>2021-06-27T15:44:58.000Z</time>
        <extensions>
          <ns3:TrackPointExtension>
            <ns3:atemp>26.0</ns3:atemp>
            <ns3:hr>94</ns3:hr>
          </ns3:TrackPointExtension>
        </extensions>
      </trkpt>
      <trkpt lat="36.82214998640120029449462890625" lon="-118.39355676434934139251708984375">
        <ele>3727.800048828125</ele>
        <time>2021-06-27T15:45:04.000Z</time>
        <extensions>
          <ns3:TrackPointExtension>
            <ns3:atemp>26.0</ns3:atemp>
            <ns3:hr>95</ns3:hr>
          </ns3:TrackPointExtension>
        </extensions>
      </trkpt>
      <trkpt lat="36.82215015403926372528076171875" lon="-118.3935402520000934600830078125">
        <ele>3728.800048828125</ele>
        <time>2021-06-27T15:45:09.000Z</time>
        <extensions>
          <ns3:TrackPointExtension>
            <ns3:atemp>26.0</ns3:atemp>
            <ns3:hr>97</ns3:hr>
          </ns3:TrackPointExtension>
        </extensions>
      </trkpt>
      <trkpt lat="36.82214981876313686370849609375" lon="-118.39352667331695556640625">
        <ele>3730</ele>
        <time>2021-06-27T15:45:15.000Z</time>
        <extensions>
          <ns3:TrackPointExtension>
            <ns3:atemp>26.0</ns3:atemp>
            <ns3:hr>101</ns3:hr>
          </ns3:TrackPointExtension>
        </extensions>
      </trkpt>
      <trkpt lat="36.8221493996679782867431640625" lon="-118.39352508075535297393798828125">
        <ele>3730</ele>
        <time>2021-06-27T15:45:16.000Z</time>
        <extensions>
          <ns3:TrackPointExtension>
            <ns3:atemp>25.0</ns3:atemp>
            <ns3:hr>104</ns3:hr>
          </ns3:TrackPointExtension>
        </extensions>
      </trkpt>
      <trkpt lat="36.82214680127799510955810546875" lon="-118.39352088980376720428466796875">
        <ele>3730.199951171875</ele>
        <time>2021-06-27T15:45:18.000Z</time>
        <extensions>
          <ns3:TrackPointExtension>
            <ns3:atemp>25.0</ns3:atemp>
            <ns3:hr>107</ns3:hr>
          </ns3:TrackPointExtension>
        </extensions>
      </trkpt>
      <trkpt lat="36.82214118540287017822265625" lon="-118.39350454509258270263671875">
        <ele>3731</ele>
        <time>2021-06-27T15:45:24.000Z</time>
        <extensions>
          <ns3:TrackPointExtension>
            <ns3:atemp>25.0</ns3:atemp>
            <ns3:hr>109</ns3:hr>
          </ns3:TrackPointExtension>
        </extensions>
      </trkpt>
      <trkpt lat="36.822137497365474700927734375" lon="-118.3934976719319820404052734375">
        <ele>3732</ele>
        <time>2021-06-27T15:45:28.000Z</time>
        <extensions>
          <ns3:TrackPointExtension>
            <ns3:atemp>25.0</ns3:atemp>
            <ns3:hr>112</ns3:hr>
          </ns3:TrackPointExtension>
        </extensions>
      </trkpt>
      <trkpt lat="36.82213657535612583160400390625" lon="-118.3934963308274745941162109375">
        <ele>3732.39990234375</ele>
        <time>2021-06-27T15:45:29.000Z</time>
        <extensions>
          <ns3:TrackPointExtension>
            <ns3:atemp>25.0</ns3:atemp>
            <ns3:hr>113</ns3:hr>
          </ns3:TrackPointExtension>
        </extensions>
      </trkpt>
      <trkpt lat="36.8221339769661426544189453125" lon="-118.393491804599761962890625">
        <ele>3732.800048828125</ele>
        <time>2021-06-27T15:45:35.000Z</time>
        <extensions>
          <ns3:TrackPointExtension>
            <ns3:atemp>25.0</ns3:atemp>
            <ns3:hr>118</ns3:hr>
          </ns3:TrackPointExtension>
        </extensions>
      </trkpt>
      <trkpt lat="36.8221338093280792236328125" lon="-118.39349138550460338592529296875">
        <ele>3732.800048828125</ele>
        <time>2021-06-27T15:45:36.000Z</time>
        <extensions>
          <ns3:TrackPointExtension>
            <ns3:atemp>25.0</ns3:atemp>
            <ns3:hr>113</ns3:hr>
          </ns3:TrackPointExtension>
        </extensions>
      </trkpt>
      <trkpt lat="36.8221284449100494384765625" lon="-118.3934654854238033294677734375">
        <ele>3733.39990234375</ele>
        <time>2021-06-27T15:45:53.000Z</time>
        <extensions>
          <ns3:TrackPointExtension>
            <ns3:atemp>26.0</ns3:atemp>
            <ns3:hr>111</ns3:hr>
          </ns3:TrackPointExtension>
        </extensions>
      </trkpt>
      <trkpt lat="36.82212651707231998443603515625" lon="-118.39346221648156642913818359375">
        <ele>3735</ele>
        <time>2021-06-27T15:46:01.000Z</time>
        <extensions>
          <ns3:TrackPointExtension>
            <ns3:atemp>26.0</ns3:atemp>
            <ns3:hr>109</ns3:hr>
          </ns3:TrackPointExtension>
        </extensions>
      </trkpt>
      <trkpt lat="36.82212433777749538421630859375" lon="-118.39346087537705898284912109375">
        <ele>3734.60009765625</ele>
        <time>2021-06-27T15:46:09.000Z</time>
        <extensions>
          <ns3:TrackPointExtension>
            <ns3:atemp>26.0</ns3:atemp>
            <ns3:hr>106</ns3:hr>
          </ns3:TrackPointExtension>
        </extensions>
      </trkpt>
      <trkpt lat="36.82211964391171932220458984375" lon="-118.393459618091583251953125">
        <ele>3735.800048828125</ele>
        <time>2021-06-27T15:46:17.000Z</time>
        <extensions>
          <ns3:TrackPointExtension>
            <ns3:atemp>26.0</ns3:atemp>
            <ns3:hr>109</ns3:hr>
          </ns3:TrackPointExtension>
        </extensions>
      </trkpt>
      <trkpt lat="36.82211930863559246063232421875" lon="-118.39345953427255153656005859375">
        <ele>3736</ele>
        <time>2021-06-27T15:46:18.000Z</time>
        <extensions>
          <ns3:TrackPointExtension>
            <ns3:atemp>26.0</ns3:atemp>
            <ns3:hr>110</ns3:hr>
          </ns3:TrackPointExtension>
        </extensions>
      </trkpt>
      <trkpt lat="36.82211880572140216827392578125" lon="-118.393459282815456390380859375">
        <ele>3737.199951171875</ele>
        <time>2021-06-27T15:46:23.000Z</time>
        <extensions>
          <ns3:TrackPointExtension>
            <ns3:atemp>26.0</ns3:atemp>
            <ns3:hr>112</ns3:hr>
          </ns3:TrackPointExtension>
        </extensions>
      </trkpt>
      <trkpt lat="36.82211863808333873748779296875" lon="-118.39345894753932952880859375">
        <ele>3738.199951171875</ele>
        <time>2021-06-27T15:46:30.000Z</time>
        <extensions>
          <ns3:TrackPointExtension>
            <ns3:atemp>26.0</ns3:atemp>
            <ns3:hr>113</ns3:hr>
          </ns3:TrackPointExtension>
        </extensions>
      </trkpt>
      <trkpt lat="36.82211863808333873748779296875" lon="-118.39345836080610752105712890625">
        <ele>3738.199951171875</ele>
        <time>2021-06-27T15:46:37.000Z</time>
        <extensions>
          <ns3:TrackPointExtension>
            <ns3:atemp>25.0</ns3:atemp>
            <ns3:hr>110</ns3:hr>
          </ns3:TrackPointExtension>
        </extensions>
      </trkpt>
      <trkpt lat="36.82211863808333873748779296875" lon="-118.39345769025385379791259765625">
        <ele>3739.39990234375</ele>
        <time>2021-06-27T15:46:44.000Z</time>
        <extensions>
          <ns3:TrackPointExtension>
            <ns3:atemp>25.0</ns3:atemp>
            <ns3:hr>111</ns3:hr>
          </ns3:TrackPointExtension>
        </extensions>
      </trkpt>
      <trkpt lat="36.82211863808333873748779296875" lon="-118.3934567682445049285888671875">
        <ele>3740.39990234375</ele>
        <time>2021-06-27T15:46:51.000Z</time>
        <extensions>
          <ns3:TrackPointExtension>
            <ns3:atemp>25.0</ns3:atemp>
            <ns3:hr>111</ns3:hr>
          </ns3:TrackPointExtension>
        </extensions>
      </trkpt>
      <trkpt lat="36.82211863808333873748779296875" lon="-118.393455930054187774658203125">
        <ele>3741.800048828125</ele>
        <time>2021-06-27T15:46:57.000Z</time>
        <extensions>
          <ns3:TrackPointExtension>
            <ns3:atemp>25.0</ns3:atemp>
            <ns3:hr>110</ns3:hr>
          </ns3:TrackPointExtension>
        </extensions>
      </trkpt>
      <trkpt lat="36.82211863808333873748779296875" lon="-118.3934555947780609130859375">
        <ele>3741.800048828125</ele>
        <time>2021-06-27T15:46:59.000Z</time>
        <extensions>
          <ns3:TrackPointExtension>
            <ns3:atemp>25.0</ns3:atemp>
            <ns3:hr>107</ns3:hr>
          </ns3:TrackPointExtension>
        </extensions>
      </trkpt>
      <trkpt lat="36.8221185542643070220947265625" lon="-118.393455259501934051513671875">
        <ele>3742.199951171875</ele>
        <time>2021-06-27T15:47:01.000Z</time>
        <extensions>
          <ns3:TrackPointExtension>
            <ns3:atemp>25.0</ns3:atemp>
            <ns3:hr>104</ns3:hr>
          </ns3:TrackPointExtension>
        </extensions>
      </trkpt>
      <trkpt lat="36.82211847044527530670166015625" lon="-118.393454588949680328369140625">
        <ele>3742.800048828125</ele>
        <time>2021-06-27T15:47:05.000Z</time>
        <extensions>
          <ns3:TrackPointExtension>
            <ns3:atemp>25.0</ns3:atemp>
            <ns3:hr>105</ns3:hr>
          </ns3:TrackPointExtension>
        </extensions>
      </trkpt>
      <trkpt lat="36.82211838662624359130859375" lon="-118.3934540860354900360107421875">
        <ele>3743.199951171875</ele>
        <time>2021-06-27T15:47:08.000Z</time>
        <extensions>
          <ns3:TrackPointExtension>
            <ns3:atemp>25.0</ns3:atemp>
            <ns3:hr>106</ns3:hr>
          </ns3:TrackPointExtension>
        </extensions>
      </trkpt>
      <trkpt lat="36.82211830280721187591552734375" lon="-118.39345358312129974365234375">
        <ele>3743.800048828125</ele>
        <time>2021-06-27T15:47:11.000Z</time>
        <extensions>
          <ns3:TrackPointExtension>
            <ns3:atemp>25.0</ns3:atemp>
            <ns3:hr>106</ns3:hr>
          </ns3:TrackPointExtension>
        </extensions>
      </trkpt>
      <trkpt lat="36.8221182189881801605224609375" lon="-118.3934529125690460205078125">
        <ele>3744.60009765625</ele>
        <time>2021-06-27T15:47:15.000Z</time>
        <extensions>
          <ns3:TrackPointExtension>
            <ns3:atemp>25.0</ns3:atemp>
            <ns3:hr>102</ns3:hr>
          </ns3:TrackPointExtension>
        </extensions>
      </trkpt>
      <trkpt lat="36.8221182189881801605224609375" lon="-118.3934527449309825897216796875">
        <ele>3745.199951171875</ele>
        <time>2021-06-27T15:47:16.000Z</time>
        <extensions>
          <ns3:TrackPointExtension>
            <ns3:atemp>25.0</ns3:atemp>
            <ns3:hr>102</ns3:hr>
          </ns3:TrackPointExtension>
        </extensions>
      </trkpt>
      <trkpt lat="36.82211813516914844512939453125" lon="-118.39345215819776058197021484375">
        <ele>3745.800048828125</ele>
        <time>2021-06-27T15:47:19.000Z</time>
        <extensions>
          <ns3:TrackPointExtension>
            <ns3:atemp>25.0</ns3:atemp>
            <ns3:hr>99</ns3:hr>
          </ns3:TrackPointExtension>
        </extensions>
      </trkpt>
      <trkpt lat="36.8221175484359264373779296875" lon="-118.393448889255523681640625">
        <ele>3746.199951171875</ele>
        <time>2021-06-27T15:47:35.000Z</time>
        <extensions>
          <ns3:TrackPointExtension>
            <ns3:atemp>25.0</ns3:atemp>
            <ns3:hr>99</ns3:hr>
          </ns3:TrackPointExtension>
        </extensions>
      </trkpt>
      <trkpt lat="36.8221175484359264373779296875" lon="-118.39344847016036510467529296875">
        <ele>3746.39990234375</ele>
        <time>2021-06-27T15:47:37.000Z</time>
        <extensions>
          <ns3:TrackPointExtension>
            <ns3:atemp>25.0</ns3:atemp>
            <ns3:hr>102</ns3:hr>
          </ns3:TrackPointExtension>
        </extensions>
      </trkpt>
      <trkpt lat="36.82211746461689472198486328125" lon="-118.3934480510652065277099609375">
        <ele>3746.39990234375</ele>
        <time>2021-06-27T15:47:39.000Z</time>
        <extensions>
          <ns3:TrackPointExtension>
            <ns3:atemp>25.0</ns3:atemp>
            <ns3:hr>105</ns3:hr>
          </ns3:TrackPointExtension>
        </extensions>
      </trkpt>
      <trkpt lat="36.822117380797863006591796875" lon="-118.39344763197004795074462890625">
        <ele>3746.39990234375</ele>
        <time>2021-06-27T15:47:41.000Z</time>
        <extensions>
          <ns3:TrackPointExtension>
            <ns3:atemp>25.0</ns3:atemp>
            <ns3:hr>108</ns3:hr>
          </ns3:TrackPointExtension>
        </extensions>
      </trkpt>
      <trkpt lat="36.8221172131597995758056640625" lon="-118.393446542322635650634765625">
        <ele>3746.39990234375</ele>
        <time>2021-06-27T15:47:46.000Z</time>
        <extensions>
          <ns3:TrackPointExtension>
            <ns3:atemp>25.0</ns3:atemp>
            <ns3:hr>105</ns3:hr>
          </ns3:TrackPointExtension>
        </extensions>
      </trkpt>
      <trkpt lat="36.82211696170270442962646484375" lon="-118.39344528503715991973876953125">
        <ele>3746.60009765625</ele>
        <time>2021-06-27T15:47:52.000Z</time>
        <extensions>
          <ns3:TrackPointExtension>
            <ns3:atemp>25.0</ns3:atemp>
            <ns3:hr>109</ns3:hr>
          </ns3:TrackPointExtension>
        </extensions>
      </trkpt>
      <trkpt lat="36.8221168778836727142333984375" lon="-118.39344478212296962738037109375">
        <ele>3746.39990234375</ele>
        <time>2021-06-27T15:47:54.000Z</time>
        <extensions>
          <ns3:TrackPointExtension>
            <ns3:atemp>25.0</ns3:atemp>
            <ns3:hr>112</ns3:hr>
          </ns3:TrackPointExtension>
        </extensions>
      </trkpt>
      <trkpt lat="36.82211662642657756805419921875" lon="-118.393443524837493896484375">
        <ele>3747.39990234375</ele>
        <time>2021-06-27T15:48:00.000Z</time>
        <extensions>
          <ns3:TrackPointExtension>
            <ns3:atemp>25.0</ns3:atemp>
            <ns3:hr>112</ns3:hr>
          </ns3:TrackPointExtension>
        </extensions>
      </trkpt>
      <trkpt lat="36.82211612351238727569580078125" lon="-118.39344151318073272705078125">
        <ele>3748.199951171875</ele>
        <time>2021-06-27T15:48:09.000Z</time>
        <extensions>
          <ns3:TrackPointExtension>
            <ns3:atemp>25.0</ns3:atemp>
            <ns3:hr>109</ns3:hr>
          </ns3:TrackPointExtension>
        </extensions>
      </trkpt>
      <trkpt lat="36.822116039693355560302734375" lon="-118.3934413455426692962646484375">
        <ele>3748.39990234375</ele>
        <time>2021-06-27T15:48:10.000Z</time>
        <extensions>
          <ns3:TrackPointExtension>
            <ns3:atemp>25.0</ns3:atemp>
            <ns3:hr>109</ns3:hr>
          </ns3:TrackPointExtension>
        </extensions>
      </trkpt>
      <trkpt lat="36.8221148662269115447998046875" lon="-118.39343740604817867279052734375">
        <ele>3748.199951171875</ele>
        <time>2021-06-27T15:48:27.000Z</time>
        <extensions>
          <ns3:TrackPointExtension>
            <ns3:atemp>25.0</ns3:atemp>
            <ns3:hr>112</ns3:hr>
          </ns3:TrackPointExtension>
        </extensions>
      </trkpt>
      <trkpt lat="36.82211436331272125244140625" lon="-118.3934359811246395111083984375">
        <ele>3748.60009765625</ele>
        <time>2021-06-27T15:48:33.000Z</time>
        <extensions>
          <ns3:TrackPointExtension>
            <ns3:atemp>25.0</ns3:atemp>
            <ns3:hr>109</ns3:hr>
          </ns3:TrackPointExtension>
        </extensions>
      </trkpt>
      <trkpt lat="36.82211411185562610626220703125" lon="-118.39343489147722721099853515625">
        <ele>3750.199951171875</ele>
        <time>2021-06-27T15:48:37.000Z</time>
        <extensions>
          <ns3:TrackPointExtension>
            <ns3:atemp>25.0</ns3:atemp>
            <ns3:hr>110</ns3:hr>
          </ns3:TrackPointExtension>
        </extensions>
      </trkpt>
      <trkpt lat="36.822113692760467529296875" lon="-118.39343371801078319549560546875">
        <ele>3751.39990234375</ele>
        <time>2021-06-27T15:48:42.000Z</time>
        <extensions>
          <ns3:TrackPointExtension>
            <ns3:atemp>25.0</ns3:atemp>
            <ns3:hr>112</ns3:hr>
          </ns3:TrackPointExtension>
        </extensions>
      </trkpt>
      <trkpt lat="36.82211327366530895233154296875" lon="-118.393432460725307464599609375">
        <ele>3751.800048828125</ele>
        <time>2021-06-27T15:48:47.000Z</time>
        <extensions>
          <ns3:TrackPointExtension>
            <ns3:atemp>25.0</ns3:atemp>
            <ns3:hr>109</ns3:hr>
          </ns3:TrackPointExtension>
        </extensions>
      </trkpt>
      <trkpt lat="36.82211310602724552154541015625" lon="-118.3934319578111171722412109375">
        <ele>3752.60009765625</ele>
        <time>2021-06-27T15:48:49.000Z</time>
        <extensions>
          <ns3:TrackPointExtension>
            <ns3:atemp>25.0</ns3:atemp>
            <ns3:hr>108</ns3:hr>
          </ns3:TrackPointExtension>
        </extensions>
      </trkpt>
      <trkpt lat="36.82211277075111865997314453125" lon="-118.39343078434467315673828125">
        <ele>3753.60009765625</ele>
        <time>2021-06-27T15:48:53.000Z</time>
        <extensions>
          <ns3:TrackPointExtension>
            <ns3:atemp>25.0</ns3:atemp>
            <ns3:hr>108</ns3:hr>
          </ns3:TrackPointExtension>
        </extensions>
      </trkpt>
      <trkpt lat="36.8221123516559600830078125" lon="-118.39342902414500713348388671875">
        <ele>3754.800048828125</ele>
        <time>2021-06-27T15:48:59.000Z</time>
        <extensions>
          <ns3:TrackPointExtension>
            <ns3:atemp>25.0</ns3:atemp>
            <ns3:hr>108</ns3:hr>
          </ns3:TrackPointExtension>
        </extensions>
      </trkpt>
      <trkpt lat="36.82211210019886493682861328125" lon="-118.393427766859531402587890625">
        <ele>3755.800048828125</ele>
        <time>2021-06-27T15:49:03.000Z</time>
        <extensions>
          <ns3:TrackPointExtension>
            <ns3:atemp>25.0</ns3:atemp>
            <ns3:hr>106</ns3:hr>
          </ns3:TrackPointExtension>
        </extensions>
      </trkpt>
      <trkpt lat="36.8221115134656429290771484375" lon="-118.3934245817363262176513671875">
        <ele>3756.800048828125</ele>
        <time>2021-06-27T15:49:12.000Z</time>
        <extensions>
          <ns3:TrackPointExtension>
            <ns3:atemp>25.0</ns3:atemp>
            <ns3:hr>108</ns3:hr>
          </ns3:TrackPointExtension>
        </extensions>
      </trkpt>
      <trkpt lat="36.82211092673242092132568359375" lon="-118.393421731889247894287109375">
        <ele>3757.800048828125</ele>
        <time>2021-06-27T15:49:19.000Z</time>
        <extensions>
          <ns3:TrackPointExtension>
            <ns3:atemp>25.0</ns3:atemp>
            <ns3:hr>104</ns3:hr>
          </ns3:TrackPointExtension>
        </extensions>
      </trkpt>
      <trkpt lat="36.82211075909435749053955078125" lon="-118.3934208936989307403564453125">
        <ele>3758.39990234375</ele>
        <time>2021-06-27T15:49:21.000Z</time>
        <extensions>
          <ns3:TrackPointExtension>
            <ns3:atemp>25.0</ns3:atemp>
            <ns3:hr>102</ns3:hr>
          </ns3:TrackPointExtension>
        </extensions>
      </trkpt>
      <trkpt lat="36.82211059145629405975341796875" lon="-118.39342005550861358642578125">
        <ele>3758.800048828125</ele>
        <time>2021-06-27T15:49:23.000Z</time>
        <extensions>
          <ns3:TrackPointExtension>
            <ns3:atemp>25.0</ns3:atemp>
            <ns3:hr>99</ns3:hr>
          </ns3:TrackPointExtension>
        </extensions>
      </trkpt>
      <trkpt lat="36.82211033999919891357421875" lon="-118.39341871440410614013671875">
        <ele>3759</ele>
        <time>2021-06-27T15:49:26.000Z</time>
        <extensions>
          <ns3:TrackPointExtension>
            <ns3:atemp>25.0</ns3:atemp>
            <ns3:hr>96</ns3:hr>
          </ns3:TrackPointExtension>
        </extensions>
      </trkpt>
      <trkpt lat="36.82210992090404033660888671875" lon="-118.39341645129024982452392578125">
        <ele>3759.60009765625</ele>
        <time>2021-06-27T15:49:31.000Z</time>
        <extensions>
          <ns3:TrackPointExtension>
            <ns3:atemp>25.0</ns3:atemp>
            <ns3:hr>97</ns3:hr>
          </ns3:TrackPointExtension>
        </extensions>
      </trkpt>
      <trkpt lat="36.822109334170818328857421875" lon="-118.39341276325285434722900390625">
        <ele>3760.199951171875</ele>
        <time>2021-06-27T15:49:39.000Z</time>
        <extensions>
          <ns3:TrackPointExtension>
            <ns3:atemp>25.0</ns3:atemp>
            <ns3:hr>100</ns3:hr>
          </ns3:TrackPointExtension>
        </extensions>
      </trkpt>
      <trkpt lat="36.82210899889469146728515625" lon="-118.3934108354151248931884765625">
        <ele>3760.800048828125</ele>
        <time>2021-06-27T15:49:43.000Z</time>
        <extensions>
          <ns3:TrackPointExtension>
            <ns3:atemp>25.0</ns3:atemp>
            <ns3:hr>101</ns3:hr>
          </ns3:TrackPointExtension>
        </extensions>
      </trkpt>
      <trkpt lat="36.82210857979953289031982421875" lon="-118.39340790174901485443115234375">
        <ele>3761.800048828125</ele>
        <time>2021-06-27T15:49:49.000Z</time>
        <extensions>
          <ns3:TrackPointExtension>
            <ns3:atemp>25.0</ns3:atemp>
            <ns3:hr>103</ns3:hr>
          </ns3:TrackPointExtension>
        </extensions>
      </trkpt>
      <trkpt lat="36.8221084959805011749267578125" lon="-118.3934064768254756927490234375">
        <ele>3762.199951171875</ele>
        <time>2021-06-27T15:49:52.000Z</time>
        <extensions>
          <ns3:TrackPointExtension>
            <ns3:atemp>25.0</ns3:atemp>
            <ns3:hr>104</ns3:hr>
          </ns3:TrackPointExtension>
        </extensions>
      </trkpt>
      <trkpt lat="36.82210824452340602874755859375" lon="-118.3934044651687145233154296875">
        <ele>3762.800048828125</ele>
        <time>2021-06-27T15:49:56.000Z</time>
        <extensions>
          <ns3:TrackPointExtension>
            <ns3:atemp>25.0</ns3:atemp>
            <ns3:hr>104</ns3:hr>
          </ns3:TrackPointExtension>
        </extensions>
      </trkpt>
      <trkpt lat="36.82210807688534259796142578125" lon="-118.393400944769382476806640625">
        <ele>3763.800048828125</ele>
        <time>2021-06-27T15:50:03.000Z</time>
        <extensions>
          <ns3:TrackPointExtension>
            <ns3:atemp>25.0</ns3:atemp>
            <ns3:hr>107</ns3:hr>
          </ns3:TrackPointExtension>
        </extensions>
      </trkpt>
      <trkpt lat="36.82210807688534259796142578125" lon="-118.3934004418551921844482421875">
        <ele>3763.800048828125</ele>
        <time>2021-06-27T15:50:04.000Z</time>
        <extensions>
          <ns3:TrackPointExtension>
            <ns3:atemp>25.0</ns3:atemp>
            <ns3:hr>107</ns3:hr>
          </ns3:TrackPointExtension>
        </extensions>
      </trkpt>
      <trkpt lat="36.82210790924727916717529296875" lon="-118.393396250903606414794921875">
        <ele>3764.800048828125</ele>
        <time>2021-06-27T15:50:12.000Z</time>
        <extensions>
          <ns3:TrackPointExtension>
            <ns3:atemp>25.0</ns3:atemp>
            <ns3:hr>110</ns3:hr>
          </ns3:TrackPointExtension>
        </extensions>
      </trkpt>
      <trkpt lat="36.82210790924727916717529296875" lon="-118.39339566417038440704345703125">
        <ele>3765</ele>
        <time>2021-06-27T15:50:13.000Z</time>
        <extensions>
          <ns3:TrackPointExtension>
            <ns3:atemp>25.0</ns3:atemp>
            <ns3:hr>110</ns3:hr>
          </ns3:TrackPointExtension>
        </extensions>
      </trkpt>
      <trkpt lat="36.82210807688534259796142578125" lon="-118.39338761754333972930908203125">
        <ele>3766</ele>
        <time>2021-06-27T15:50:27.000Z</time>
        <extensions>
          <ns3:TrackPointExtension>
            <ns3:atemp>25.0</ns3:atemp>
            <ns3:hr>112</ns3:hr>
          </ns3:TrackPointExtension>
        </extensions>
      </trkpt>
      <trkpt lat="36.822108328342437744140625" lon="-118.39338359422981739044189453125">
        <ele>3767</ele>
        <time>2021-06-27T15:50:34.000Z</time>
        <extensions>
          <ns3:TrackPointExtension>
            <ns3:atemp>25.0</ns3:atemp>
            <ns3:hr>111</ns3:hr>
          </ns3:TrackPointExtension>
        </extensions>
      </trkpt>
      <trkpt lat="36.822108663618564605712890625" lon="-118.393380157649517059326171875">
        <ele>3768.39990234375</ele>
        <time>2021-06-27T15:50:40.000Z</time>
        <extensions>
          <ns3:TrackPointExtension>
            <ns3:atemp>25.0</ns3:atemp>
            <ns3:hr>111</ns3:hr>
          </ns3:TrackPointExtension>
        </extensions>
      </trkpt>
      <trkpt lat="36.8221101723611354827880859375" lon="-118.39336699806153774261474609375">
        <ele>3768</ele>
        <time>2021-06-27T15:51:01.000Z</time>
        <extensions>
          <ns3:TrackPointExtension>
            <ns3:atemp>24.0</ns3:atemp>
            <ns3:hr>108</ns3:hr>
          </ns3:TrackPointExtension>
        </extensions>
      </trkpt>
      <trkpt lat="36.822111345827579498291015625" lon="-118.39335744269192218780517578125">
        <ele>3768.800048828125</ele>
        <time>2021-06-27T15:51:16.000Z</time>
        <extensions>
          <ns3:TrackPointExtension>
            <ns3:atemp>24.0</ns3:atemp>
            <ns3:hr>105</ns3:hr>
          </ns3:TrackPointExtension>
        </extensions>
      </trkpt>
      <trkpt lat="36.822112016379833221435546875" lon="-118.39335308410227298736572265625">
        <ele>3769.39990234375</ele>
        <time>2021-06-27T15:51:23.000Z</time>
        <extensions>
          <ns3:TrackPointExtension>
            <ns3:atemp>24.0</ns3:atemp>
            <ns3:hr>108</ns3:hr>
          </ns3:TrackPointExtension>
        </extensions>
      </trkpt>
      <trkpt lat="36.8221135251224040985107421875" lon="-118.39334629476070404052734375">
        <ele>3769.800048828125</ele>
        <time>2021-06-27T15:51:34.000Z</time>
        <extensions>
          <ns3:TrackPointExtension>
            <ns3:atemp>24.0</ns3:atemp>
            <ns3:hr>110</ns3:hr>
          </ns3:TrackPointExtension>
        </extensions>
      </trkpt>
      <trkpt lat="36.82211411185562610626220703125" lon="-118.39334386400878429412841796875">
        <ele>3770</ele>
        <time>2021-06-27T15:51:38.000Z</time>
        <extensions>
          <ns3:TrackPointExtension>
            <ns3:atemp>24.0</ns3:atemp>
            <ns3:hr>107</ns3:hr>
          </ns3:TrackPointExtension>
        </extensions>
      </trkpt>
      <trkpt lat="36.8221148662269115447998046875" lon="-118.39334084652364253997802734375">
        <ele>3770.199951171875</ele>
        <time>2021-06-27T15:51:43.000Z</time>
        <extensions>
          <ns3:TrackPointExtension>
            <ns3:atemp>24.0</ns3:atemp>
            <ns3:hr>104</ns3:hr>
          </ns3:TrackPointExtension>
        </extensions>
      </trkpt>
      <trkpt lat="36.8221152015030384063720703125" lon="-118.39333967305719852447509765625">
        <ele>3770.39990234375</ele>
        <time>2021-06-27T15:51:45.000Z</time>
        <extensions>
          <ns3:TrackPointExtension>
            <ns3:atemp>24.0</ns3:atemp>
            <ns3:hr>103</ns3:hr>
          </ns3:TrackPointExtension>
        </extensions>
      </trkpt>
      <trkpt lat="36.822116710245609283447265625" lon="-118.3933337219059467315673828125">
        <ele>3771.800048828125</ele>
        <time>2021-06-27T15:51:55.000Z</time>
        <extensions>
          <ns3:TrackPointExtension>
            <ns3:atemp>24.0</ns3:atemp>
            <ns3:hr>105</ns3:hr>
          </ns3:TrackPointExtension>
        </extensions>
      </trkpt>
      <trkpt lat="36.822117380797863006591796875" lon="-118.3933313749730587005615234375">
        <ele>3772</ele>
        <time>2021-06-27T15:51:59.000Z</time>
        <extensions>
          <ns3:TrackPointExtension>
            <ns3:atemp>24.0</ns3:atemp>
            <ns3:hr>108</ns3:hr>
          </ns3:TrackPointExtension>
        </extensions>
      </trkpt>
      <trkpt lat="36.82211796753108501434326171875" lon="-118.39332961477339267730712890625">
        <ele>3772.39990234375</ele>
        <time>2021-06-27T15:52:02.000Z</time>
        <extensions>
          <ns3:TrackPointExtension>
            <ns3:atemp>24.0</ns3:atemp>
            <ns3:hr>111</ns3:hr>
          </ns3:TrackPointExtension>
        </extensions>
      </trkpt>
      <trkpt lat="36.822118721902370452880859375" lon="-118.39332726784050464630126953125">
        <ele>3773.199951171875</ele>
        <time>2021-06-27T15:52:06.000Z</time>
        <extensions>
          <ns3:TrackPointExtension>
            <ns3:atemp>24.0</ns3:atemp>
            <ns3:hr>113</ns3:hr>
          </ns3:TrackPointExtension>
        </extensions>
      </trkpt>
      <trkpt lat="36.82212467305362224578857421875" lon="-118.39330832473933696746826171875">
        <ele>3773.39990234375</ele>
        <time>2021-06-27T15:52:35.000Z</time>
        <extensions>
          <ns3:TrackPointExtension>
            <ns3:atemp>24.0</ns3:atemp>
            <ns3:hr>110</ns3:hr>
          </ns3:TrackPointExtension>
        </extensions>
      </trkpt>
      <trkpt lat="36.82212777435779571533203125" lon="-118.39329692535102367401123046875">
        <ele>3773.199951171875</ele>
        <time>2021-06-27T15:52:52.000Z</time>
        <extensions>
          <ns3:TrackPointExtension>
            <ns3:atemp>25.0</ns3:atemp>
            <ns3:hr>106</ns3:hr>
          </ns3:TrackPointExtension>
        </extensions>
      </trkpt>
      <trkpt lat="36.82212852872908115386962890625" lon="-118.39329424314200878143310546875">
        <ele>3772.800048828125</ele>
        <time>2021-06-27T15:52:56.000Z</time>
        <extensions>
          <ns3:TrackPointExtension>
            <ns3:atemp>25.0</ns3:atemp>
            <ns3:hr>109</ns3:hr>
          </ns3:TrackPointExtension>
        </extensions>
      </trkpt>
      <trkpt lat="36.822130121290683746337890625" lon="-118.39328820817172527313232421875">
        <ele>3772.800048828125</ele>
        <time>2021-06-27T15:53:05.000Z</time>
        <extensions>
          <ns3:TrackPointExtension>
            <ns3:atemp>25.0</ns3:atemp>
            <ns3:hr>111</ns3:hr>
          </ns3:TrackPointExtension>
        </extensions>
      </trkpt>
      <trkpt lat="36.8221302889287471771240234375" lon="-118.39328753761947154998779296875">
        <ele>3772.800048828125</ele>
        <time>2021-06-27T15:53:06.000Z</time>
        <extensions>
          <ns3:TrackPointExtension>
            <ns3:atemp>25.0</ns3:atemp>
            <ns3:hr>108</ns3:hr>
          </ns3:TrackPointExtension>
        </extensions>
      </trkpt>
      <trkpt lat="36.82213246822357177734375" lon="-118.39327965863049030303955078125">
        <ele>3773</ele>
        <time>2021-06-27T15:53:18.000Z</time>
        <extensions>
          <ns3:TrackPointExtension>
            <ns3:atemp>25.0</ns3:atemp>
            <ns3:hr>111</ns3:hr>
          </ns3:TrackPointExtension>
        </extensions>
      </trkpt>
      <trkpt lat="36.82213313877582550048828125" lon="-118.3932770602405071258544921875">
        <ele>3772.800048828125</ele>
        <time>2021-06-27T15:53:22.000Z</time>
        <extensions>
          <ns3:TrackPointExtension>
            <ns3:atemp>25.0</ns3:atemp>
            <ns3:hr>108</ns3:hr>
          </ns3:TrackPointExtension>
        </extensions>
      </trkpt>
      <trkpt lat="36.82213422842323780059814453125" lon="-118.39327328838407993316650390625">
        <ele>3773</ele>
        <time>2021-06-27T15:53:28.000Z</time>
        <extensions>
          <ns3:TrackPointExtension>
            <ns3:atemp>25.0</ns3:atemp>
            <ns3:hr>105</ns3:hr>
          </ns3:TrackPointExtension>
        </extensions>
      </trkpt>
      <trkpt lat="36.82213607244193553924560546875" lon="-118.39326725341379642486572265625">
        <ele>3773.199951171875</ele>
        <time>2021-06-27T15:53:38.000Z</time>
        <extensions>
          <ns3:TrackPointExtension>
            <ns3:atemp>25.0</ns3:atemp>
            <ns3:hr>102</ns3:hr>
          </ns3:TrackPointExtension>
        </extensions>
      </trkpt>
      <trkpt lat="36.82213716208934783935546875" lon="-118.39326314628124237060546875">
        <ele>3773</ele>
        <time>2021-06-27T15:53:45.000Z</time>
        <extensions>
          <ns3:TrackPointExtension>
            <ns3:atemp>25.0</ns3:atemp>
            <ns3:hr>99</ns3:hr>
          </ns3:TrackPointExtension>
        </extensions>
      </trkpt>
      <trkpt lat="36.822143532335758209228515625" lon="-118.39322961866855621337890625">
        <ele>3773</ele>
        <time>2021-06-27T15:54:39.000Z</time>
        <extensions>
          <ns3:TrackPointExtension>
            <ns3:atemp>25.0</ns3:atemp>
            <ns3:hr>103</ns3:hr>
          </ns3:TrackPointExtension>
        </extensions>
      </trkpt>
      <trkpt lat="36.82214378379285335540771484375" lon="-118.39322769083082675933837890625">
        <ele>3778.39990234375</ele>
        <time>2021-06-27T15:54:42.000Z</time>
        <extensions>
          <ns3:TrackPointExtension>
            <ns3:atemp>25.0</ns3:atemp>
            <ns3:hr>103</ns3:hr>
          </ns3:TrackPointExtension>
        </extensions>
      </trkpt>
      <trkpt lat="36.82214445434510707855224609375" lon="-118.39322383515536785125732421875">
        <ele>3778.60009765625</ele>
        <time>2021-06-27T15:54:48.000Z</time>
        <extensions>
          <ns3:TrackPointExtension>
            <ns3:atemp>25.0</ns3:atemp>
            <ns3:hr>106</ns3:hr>
          </ns3:TrackPointExtension>
        </extensions>
      </trkpt>
      <trkpt lat="36.8221447058022022247314453125" lon="-118.39322249405086040496826171875">
        <ele>3778.39990234375</ele>
        <time>2021-06-27T15:54:50.000Z</time>
        <extensions>
          <ns3:TrackPointExtension>
            <ns3:atemp>25.0</ns3:atemp>
            <ns3:hr>109</ns3:hr>
          </ns3:TrackPointExtension>
        </extensions>
      </trkpt>
      <trkpt lat="36.8221450410783290863037109375" lon="-118.393220566213130950927734375">
        <ele>3778.39990234375</ele>
        <time>2021-06-27T15:54:53.000Z</time>
        <extensions>
          <ns3:TrackPointExtension>
            <ns3:atemp>25.0</ns3:atemp>
            <ns3:hr>113</ns3:hr>
          </ns3:TrackPointExtension>
        </extensions>
      </trkpt>
      <trkpt lat="36.8221453763544559478759765625" lon="-118.39321863837540149688720703125">
        <ele>3778.800048828125</ele>
        <time>2021-06-27T15:54:56.000Z</time>
        <extensions>
          <ns3:TrackPointExtension>
            <ns3:atemp>25.0</ns3:atemp>
            <ns3:hr>117</ns3:hr>
          </ns3:TrackPointExtension>
        </extensions>
      </trkpt>
      <trkpt lat="36.8221457116305828094482421875" lon="-118.3932167105376720428466796875">
        <ele>3778.800048828125</ele>
        <time>2021-06-27T15:54:59.000Z</time>
        <extensions>
          <ns3:TrackPointExtension>
            <ns3:atemp>25.0</ns3:atemp>
            <ns3:hr>121</ns3:hr>
          </ns3:TrackPointExtension>
        </extensions>
      </trkpt>
      <trkpt lat="36.8221477232873439788818359375" lon="-118.39320824481546878814697265625">
        <ele>3779.39990234375</ele>
        <time>2021-06-27T15:55:12.000Z</time>
        <extensions>
          <ns3:TrackPointExtension>
            <ns3:atemp>25.0</ns3:atemp>
            <ns3:hr>117</ns3:hr>
          </ns3:TrackPointExtension>
        </extensions>
      </trkpt>
      <trkpt lat="36.8221490643918514251708984375" lon="-118.39320288039743900299072265625">
        <ele>3780.39990234375</ele>
        <time>2021-06-27T15:55:20.000Z</time>
        <extensions>
          <ns3:TrackPointExtension>
            <ns3:atemp>25.0</ns3:atemp>
            <ns3:hr>116</ns3:hr>
          </ns3:TrackPointExtension>
        </extensions>
      </trkpt>
      <trkpt lat="36.82215015403926372528076171875" lon="-118.39319885708391666412353515625">
        <ele>3780.800048828125</ele>
        <time>2021-06-27T15:55:26.000Z</time>
        <extensions>
          <ns3:TrackPointExtension>
            <ns3:atemp>25.0</ns3:atemp>
            <ns3:hr>113</ns3:hr>
          </ns3:TrackPointExtension>
        </extensions>
      </trkpt>
      <trkpt lat="36.82215115986764430999755859375" lon="-118.39319483377039432525634765625">
        <ele>3781.60009765625</ele>
        <time>2021-06-27T15:55:32.000Z</time>
        <extensions>
          <ns3:TrackPointExtension>
            <ns3:atemp>25.0</ns3:atemp>
            <ns3:hr>112</ns3:hr>
          </ns3:TrackPointExtension>
        </extensions>
      </trkpt>
      <trkpt lat="36.82215250097215175628662109375" lon="-118.3931895531713962554931640625">
        <ele>3781.800048828125</ele>
        <time>2021-06-27T15:55:40.000Z</time>
        <extensions>
          <ns3:TrackPointExtension>
            <ns3:atemp>25.0</ns3:atemp>
            <ns3:hr>109</ns3:hr>
          </ns3:TrackPointExtension>
        </extensions>
      </trkpt>
      <trkpt lat="36.8221561051905155181884765625" lon="-118.39317731559276580810546875">
        <ele>3781.60009765625</ele>
        <time>2021-06-27T15:55:58.000Z</time>
        <extensions>
          <ns3:TrackPointExtension>
            <ns3:atemp>25.0</ns3:atemp>
            <ns3:hr>106</ns3:hr>
          </ns3:TrackPointExtension>
        </extensions>
      </trkpt>
      <trkpt lat="36.8221567757427692413330078125" lon="-118.393175303936004638671875">
        <ele>3781.39990234375</ele>
        <time>2021-06-27T15:56:01.000Z</time>
        <extensions>
          <ns3:TrackPointExtension>
            <ns3:atemp>25.0</ns3:atemp>
            <ns3:hr>103</ns3:hr>
          </ns3:TrackPointExtension>
        </extensions>
      </trkpt>
      <trkpt lat="36.82215786539018154144287109375" lon="-118.39317195117473602294921875">
        <ele>3781.199951171875</ele>
        <time>2021-06-27T15:56:06.000Z</time>
        <extensions>
          <ns3:TrackPointExtension>
            <ns3:atemp>25.0</ns3:atemp>
            <ns3:hr>100</ns3:hr>
          </ns3:TrackPointExtension>
        </extensions>
      </trkpt>
      <trkpt lat="36.82216222397983074188232421875" lon="-118.39315728284418582916259765625">
        <ele>3781.60009765625</ele>
        <time>2021-06-27T15:56:28.000Z</time>
        <extensions>
          <ns3:TrackPointExtension>
            <ns3:atemp>25.0</ns3:atemp>
            <ns3:hr>97</ns3:hr>
          </ns3:TrackPointExtension>
        </extensions>
      </trkpt>
      <trkpt lat="36.8221654929220676422119140625" lon="-118.39314647018909454345703125">
        <ele>3781.39990234375</ele>
        <time>2021-06-27T15:56:45.000Z</time>
        <extensions>
          <ns3:TrackPointExtension>
            <ns3:atemp>25.0</ns3:atemp>
            <ns3:hr>100</ns3:hr>
          </ns3:TrackPointExtension>
        </extensions>
      </trkpt>
      <trkpt lat="36.822167001664638519287109375" lon="-118.3931416086852550506591796875">
        <ele>3781.39990234375</ele>
        <time>2021-06-27T15:56:53.000Z</time>
        <extensions>
          <ns3:TrackPointExtension>
            <ns3:atemp>25.0</ns3:atemp>
            <ns3:hr>103</ns3:hr>
          </ns3:TrackPointExtension>
        </extensions>
      </trkpt>
      <trkpt lat="36.82216960005462169647216796875" lon="-118.39313314296305179595947265625">
        <ele>3781.39990234375</ele>
        <time>2021-06-27T15:57:07.000Z</time>
        <extensions>
          <ns3:TrackPointExtension>
            <ns3:atemp>25.0</ns3:atemp>
            <ns3:hr>106</ns3:hr>
          </ns3:TrackPointExtension>
        </extensions>
      </trkpt>
      <trkpt lat="36.822171024978160858154296875" lon="-118.39312844909727573394775390625">
        <ele>3781.39990234375</ele>
        <time>2021-06-27T15:57:15.000Z</time>
        <extensions>
          <ns3:TrackPointExtension>
            <ns3:atemp>24.0</ns3:atemp>
            <ns3:hr>103</ns3:hr>
          </ns3:TrackPointExtension>
        </extensions>
      </trkpt>
      <trkpt lat="36.82217228226363658905029296875" lon="-118.39312442578375339508056640625">
        <ele>3781.39990234375</ele>
        <time>2021-06-27T15:57:22.000Z</time>
        <extensions>
          <ns3:TrackPointExtension>
            <ns3:atemp>24.0</ns3:atemp>
            <ns3:hr>100</ns3:hr>
          </ns3:TrackPointExtension>
        </extensions>
      </trkpt>
      <trkpt lat="36.822172701358795166015625" lon="-118.39312325231730937957763671875">
        <ele>3781.39990234375</ele>
        <time>2021-06-27T15:57:24.000Z</time>
        <extensions>
          <ns3:TrackPointExtension>
            <ns3:atemp>24.0</ns3:atemp>
            <ns3:hr>100</ns3:hr>
          </ns3:TrackPointExtension>
        </extensions>
      </trkpt>
      <trkpt lat="36.82217362336814403533935546875" lon="-118.3931203186511993408203125">
        <ele>3781.39990234375</ele>
        <time>2021-06-27T15:57:29.000Z</time>
        <extensions>
          <ns3:TrackPointExtension>
            <ns3:atemp>24.0</ns3:atemp>
            <ns3:hr>97</ns3:hr>
          </ns3:TrackPointExtension>
        </extensions>
      </trkpt>
      <trkpt lat="36.8221748806536197662353515625" lon="-118.393116295337677001953125">
        <ele>3781.39990234375</ele>
        <time>2021-06-27T15:57:36.000Z</time>
        <extensions>
          <ns3:TrackPointExtension>
            <ns3:atemp>24.0</ns3:atemp>
            <ns3:hr>94</ns3:hr>
          </ns3:TrackPointExtension>
        </extensions>
      </trkpt>
      <trkpt lat="36.82217731140553951263427734375" lon="-118.39310866780579090118408203125">
        <ele>3781.39990234375</ele>
        <time>2021-06-27T15:57:49.000Z</time>
        <extensions>
          <ns3:TrackPointExtension>
            <ns3:atemp>24.0</ns3:atemp>
            <ns3:hr>98</ns3:hr>
          </ns3:TrackPointExtension>
        </extensions>
      </trkpt>
      <trkpt lat="36.82217747904360294342041015625" lon="-118.3931080810725688934326171875">
        <ele>3781.39990234375</ele>
        <time>2021-06-27T15:57:50.000Z</time>
        <extensions>
          <ns3:TrackPointExtension>
            <ns3:atemp>24.0</ns3:atemp>
            <ns3:hr>101</ns3:hr>
          </ns3:TrackPointExtension>
        </extensions>
      </trkpt>
      <trkpt lat="36.82217764668166637420654296875" lon="-118.39310749433934688568115234375">
        <ele>3781.39990234375</ele>
        <time>2021-06-27T15:57:51.000Z</time>
        <extensions>
          <ns3:TrackPointExtension>
            <ns3:atemp>24.0</ns3:atemp>
            <ns3:hr>104</ns3:hr>
          </ns3:TrackPointExtension>
        </extensions>
      </trkpt>
      <trkpt lat="36.822178065776824951171875" lon="-118.39310632087290287017822265625">
        <ele>3781.39990234375</ele>
        <time>2021-06-27T15:57:53.000Z</time>
        <extensions>
          <ns3:TrackPointExtension>
            <ns3:atemp>24.0</ns3:atemp>
            <ns3:hr>108</ns3:hr>
          </ns3:TrackPointExtension>
        </extensions>
      </trkpt>
      <trkpt lat="36.8221799097955226898193359375" lon="-118.39310045354068279266357421875">
        <ele>3781.39990234375</ele>
        <time>2021-06-27T15:58:03.000Z</time>
        <extensions>
          <ns3:TrackPointExtension>
            <ns3:atemp>24.0</ns3:atemp>
            <ns3:hr>104</ns3:hr>
          </ns3:TrackPointExtension>
        </extensions>
      </trkpt>
      <trkpt lat="36.82218032889068126678466796875" lon="-118.3930993638932704925537109375">
        <ele>3781.39990234375</ele>
        <time>2021-06-27T15:58:05.000Z</time>
        <extensions>
          <ns3:TrackPointExtension>
            <ns3:atemp>24.0</ns3:atemp>
            <ns3:hr>100</ns3:hr>
          </ns3:TrackPointExtension>
        </extensions>
      </trkpt>
      <trkpt lat="36.82218083180487155914306640625" lon="-118.39309760369360446929931640625">
        <ele>3781.39990234375</ele>
        <time>2021-06-27T15:58:08.000Z</time>
        <extensions>
          <ns3:TrackPointExtension>
            <ns3:atemp>24.0</ns3:atemp>
            <ns3:hr>97</ns3:hr>
          </ns3:TrackPointExtension>
        </extensions>
      </trkpt>
      <trkpt lat="36.8221812509000301361083984375" lon="-118.393096514046192169189453125">
        <ele>3781.39990234375</ele>
        <time>2021-06-27T15:58:10.000Z</time>
        <extensions>
          <ns3:TrackPointExtension>
            <ns3:atemp>24.0</ns3:atemp>
            <ns3:hr>93</ns3:hr>
          </ns3:TrackPointExtension>
        </extensions>
      </trkpt>
      <trkpt lat="36.8221815861761569976806640625" lon="-118.3930953405797481536865234375">
        <ele>3781.39990234375</ele>
        <time>2021-06-27T15:58:12.000Z</time>
        <extensions>
          <ns3:TrackPointExtension>
            <ns3:atemp>24.0</ns3:atemp>
            <ns3:hr>90</ns3:hr>
          </ns3:TrackPointExtension>
        </extensions>
      </trkpt>
      <trkpt lat="36.82218200527131557464599609375" lon="-118.39309425093233585357666015625">
        <ele>3781.39990234375</ele>
        <time>2021-06-27T15:58:14.000Z</time>
        <extensions>
          <ns3:TrackPointExtension>
            <ns3:atemp>24.0</ns3:atemp>
            <ns3:hr>87</ns3:hr>
          </ns3:TrackPointExtension>
        </extensions>
      </trkpt>
      <trkpt lat="36.82218653149902820587158203125" lon="-118.39308251626789569854736328125">
        <ele>3781.39990234375</ele>
        <time>2021-06-27T15:58:36.000Z</time>
        <extensions>
          <ns3:TrackPointExtension>
            <ns3:atemp>24.0</ns3:atemp>
            <ns3:hr>90</ns3:hr>
          </ns3:TrackPointExtension>
        </extensions>
      </trkpt>
      <trkpt lat="36.8221876211464405059814453125" lon="-118.393080420792102813720703125">
        <ele>3781.39990234375</ele>
        <time>2021-06-27T15:58:40.000Z</time>
        <extensions>
          <ns3:TrackPointExtension>
            <ns3:atemp>24.0</ns3:atemp>
            <ns3:hr>93</ns3:hr>
          </ns3:TrackPointExtension>
        </extensions>
      </trkpt>
      <trkpt lat="36.8221892975270748138427734375" lon="-118.3930772356688976287841796875">
        <ele>3785.800048828125</ele>
        <time>2021-06-27T15:58:46.000Z</time>
        <extensions>
          <ns3:TrackPointExtension>
            <ns3:atemp>24.0</ns3:atemp>
            <ns3:hr>95</ns3:hr>
          </ns3:TrackPointExtension>
        </extensions>
      </trkpt>
      <trkpt lat="36.82219223119318485260009765625" lon="-118.393071703612804412841796875">
        <ele>3787</ele>
        <time>2021-06-27T15:58:56.000Z</time>
        <extensions>
          <ns3:TrackPointExtension>
            <ns3:atemp>25.0</ns3:atemp>
            <ns3:hr>96</ns3:hr>
          </ns3:TrackPointExtension>
        </extensions>
      </trkpt>
      <trkpt lat="36.8221928179264068603515625" lon="-118.39307061396539211273193359375">
        <ele>3787</ele>
        <time>2021-06-27T15:58:58.000Z</time>
        <extensions>
          <ns3:TrackPointExtension>
            <ns3:atemp>25.0</ns3:atemp>
            <ns3:hr>99</ns3:hr>
          </ns3:TrackPointExtension>
        </extensions>
      </trkpt>
      <trkpt lat="36.82219373993575572967529296875" lon="-118.3930688537657260894775390625">
        <ele>3787.39990234375</ele>
        <time>2021-06-27T15:59:01.000Z</time>
        <extensions>
          <ns3:TrackPointExtension>
            <ns3:atemp>25.0</ns3:atemp>
            <ns3:hr>96</ns3:hr>
          </ns3:TrackPointExtension>
        </extensions>
      </trkpt>
      <trkpt lat="36.822195164859294891357421875" lon="-118.39306600391864776611328125">
        <ele>3788</ele>
        <time>2021-06-27T15:59:06.000Z</time>
        <extensions>
          <ns3:TrackPointExtension>
            <ns3:atemp>25.0</ns3:atemp>
            <ns3:hr>93</ns3:hr>
          </ns3:TrackPointExtension>
        </extensions>
      </trkpt>
      <trkpt lat="36.8221963383257389068603515625" lon="-118.39306374080479145050048828125">
        <ele>3789.199951171875</ele>
        <time>2021-06-27T15:59:10.000Z</time>
        <extensions>
          <ns3:TrackPointExtension>
            <ns3:atemp>25.0</ns3:atemp>
            <ns3:hr>92</ns3:hr>
          </ns3:TrackPointExtension>
        </extensions>
      </trkpt>
      <trkpt lat="36.8221981823444366455078125" lon="-118.39306022040545940399169921875">
        <ele>3789.60009765625</ele>
        <time>2021-06-27T15:59:16.000Z</time>
        <extensions>
          <ns3:TrackPointExtension>
            <ns3:atemp>25.0</ns3:atemp>
            <ns3:hr>95</ns3:hr>
          </ns3:TrackPointExtension>
        </extensions>
      </trkpt>
      <trkpt lat="36.822199523448944091796875" lon="-118.39305787347257137298583984375">
        <ele>3790</ele>
        <time>2021-06-27T15:59:20.000Z</time>
        <extensions>
          <ns3:TrackPointExtension>
            <ns3:atemp>25.0</ns3:atemp>
            <ns3:hr>98</ns3:hr>
          </ns3:TrackPointExtension>
        </extensions>
      </trkpt>
      <trkpt lat="36.822199858725070953369140625" lon="-118.393057286739349365234375">
        <ele>3790.39990234375</ele>
        <time>2021-06-27T15:59:21.000Z</time>
        <extensions>
          <ns3:TrackPointExtension>
            <ns3:atemp>25.0</ns3:atemp>
            <ns3:hr>99</ns3:hr>
          </ns3:TrackPointExtension>
        </extensions>
      </trkpt>
      <trkpt lat="36.8222008645534515380859375" lon="-118.39305552653968334197998046875">
        <ele>3791.60009765625</ele>
        <time>2021-06-27T15:59:24.000Z</time>
        <extensions>
          <ns3:TrackPointExtension>
            <ns3:atemp>25.0</ns3:atemp>
            <ns3:hr>100</ns3:hr>
          </ns3:TrackPointExtension>
        </extensions>
      </trkpt>
      <trkpt lat="36.8222037144005298614501953125" lon="-118.3930507488548755645751953125">
        <ele>3792.800048828125</ele>
        <time>2021-06-27T15:59:32.000Z</time>
        <extensions>
          <ns3:TrackPointExtension>
            <ns3:atemp>25.0</ns3:atemp>
            <ns3:hr>101</ns3:hr>
          </ns3:TrackPointExtension>
        </extensions>
      </trkpt>
      <trkpt lat="36.82220597751438617706298828125" lon="-118.3930470608174800872802734375">
        <ele>3794</ele>
        <time>2021-06-27T15:59:38.000Z</time>
        <extensions>
          <ns3:TrackPointExtension>
            <ns3:atemp>25.0</ns3:atemp>
            <ns3:hr>102</ns3:hr>
          </ns3:TrackPointExtension>
        </extensions>
      </trkpt>
      <trkpt lat="36.82220715098083019256591796875" lon="-118.3930452167987823486328125">
        <ele>3794</ele>
        <time>2021-06-27T15:59:41.000Z</time>
        <extensions>
          <ns3:TrackPointExtension>
            <ns3:atemp>25.0</ns3:atemp>
            <ns3:hr>105</ns3:hr>
          </ns3:TrackPointExtension>
        </extensions>
      </trkpt>
      <trkpt lat="36.822210587561130523681640625" lon="-118.39303918182849884033203125">
        <ele>3794.39990234375</ele>
        <time>2021-06-27T15:59:50.000Z</time>
        <extensions>
          <ns3:TrackPointExtension>
            <ns3:atemp>25.0</ns3:atemp>
            <ns3:hr>108</ns3:hr>
          </ns3:TrackPointExtension>
        </extensions>
      </trkpt>
      <trkpt lat="36.82221402414143085479736328125" lon="-118.3930329792201519012451171875">
        <ele>3795</ele>
        <time>2021-06-27T15:59:59.000Z</time>
        <extensions>
          <ns3:TrackPointExtension>
            <ns3:atemp>25.0</ns3:atemp>
            <ns3:hr>107</ns3:hr>
          </ns3:TrackPointExtension>
        </extensions>
      </trkpt>
      <trkpt lat="36.8222144432365894317626953125" lon="-118.39303222484886646270751953125">
        <ele>3795.199951171875</ele>
        <time>2021-06-27T16:00:00.000Z</time>
        <extensions>
          <ns3:TrackPointExtension>
            <ns3:atemp>25.0</ns3:atemp>
            <ns3:hr>106</ns3:hr>
          </ns3:TrackPointExtension>
        </extensions>
      </trkpt>
      <trkpt lat="36.82221628725528717041015625" lon="-118.3930286206305027008056640625">
        <ele>3795.199951171875</ele>
        <time>2021-06-27T16:00:05.000Z</time>
        <extensions>
          <ns3:TrackPointExtension>
            <ns3:atemp>25.0</ns3:atemp>
            <ns3:hr>109</ns3:hr>
          </ns3:TrackPointExtension>
        </extensions>
      </trkpt>
      <trkpt lat="36.82221804745495319366455078125" lon="-118.3930249325931072235107421875">
        <ele>3794.800048828125</ele>
        <time>2021-06-27T16:00:10.000Z</time>
        <extensions>
          <ns3:TrackPointExtension>
            <ns3:atemp>25.0</ns3:atemp>
            <ns3:hr>106</ns3:hr>
          </ns3:TrackPointExtension>
        </extensions>
      </trkpt>
      <trkpt lat="36.8222191371023654937744140625" lon="-118.39302266947925090789794921875">
        <ele>3797</ele>
        <time>2021-06-27T16:00:13.000Z</time>
        <extensions>
          <ns3:TrackPointExtension>
            <ns3:atemp>25.0</ns3:atemp>
            <ns3:hr>106</ns3:hr>
          </ns3:TrackPointExtension>
        </extensions>
      </trkpt>
      <trkpt lat="36.82222190313041210174560546875" lon="-118.39301663450896739959716796875">
        <ele>3798.39990234375</ele>
        <time>2021-06-27T16:00:21.000Z</time>
        <extensions>
          <ns3:TrackPointExtension>
            <ns3:atemp>25.0</ns3:atemp>
            <ns3:hr>108</ns3:hr>
          </ns3:TrackPointExtension>
        </extensions>
      </trkpt>
      <trkpt lat="36.822223328053951263427734375" lon="-118.39301361702382564544677734375">
        <ele>3798.60009765625</ele>
        <time>2021-06-27T16:00:25.000Z</time>
        <extensions>
          <ns3:TrackPointExtension>
            <ns3:atemp>25.0</ns3:atemp>
            <ns3:hr>111</ns3:hr>
          </ns3:TrackPointExtension>
        </extensions>
      </trkpt>
      <trkpt lat="36.82222441770136356353759765625" lon="-118.39301127009093761444091796875">
        <ele>3799</ele>
        <time>2021-06-27T16:00:28.000Z</time>
        <extensions>
          <ns3:TrackPointExtension>
            <ns3:atemp>25.0</ns3:atemp>
            <ns3:hr>114</ns3:hr>
          </ns3:TrackPointExtension>
        </extensions>
      </trkpt>
      <trkpt lat="36.82222542352974414825439453125" lon="-118.39300892315804958343505859375">
        <ele>3799.39990234375</ele>
        <time>2021-06-27T16:00:31.000Z</time>
        <extensions>
          <ns3:TrackPointExtension>
            <ns3:atemp>25.0</ns3:atemp>
            <ns3:hr>113</ns3:hr>
          </ns3:TrackPointExtension>
        </extensions>
      </trkpt>
      <trkpt lat="36.82222793810069561004638671875" lon="-118.393003307282924652099609375">
        <ele>3800</ele>
        <time>2021-06-27T16:00:38.000Z</time>
        <extensions>
          <ns3:TrackPointExtension>
            <ns3:atemp>25.0</ns3:atemp>
            <ns3:hr>109</ns3:hr>
          </ns3:TrackPointExtension>
        </extensions>
      </trkpt>
      <trkpt lat="36.82222902774810791015625" lon="-118.39300087653100490570068359375">
        <ele>3800.199951171875</ele>
        <time>2021-06-27T16:00:41.000Z</time>
        <extensions>
          <ns3:TrackPointExtension>
            <ns3:atemp>25.0</ns3:atemp>
            <ns3:hr>113</ns3:hr>
          </ns3:TrackPointExtension>
        </extensions>
      </trkpt>
      <trkpt lat="36.8222308717668056488037109375" lon="-118.39299668557941913604736328125">
        <ele>3800.199951171875</ele>
        <time>2021-06-27T16:00:46.000Z</time>
        <extensions>
          <ns3:TrackPointExtension>
            <ns3:atemp>25.0</ns3:atemp>
            <ns3:hr>109</ns3:hr>
          </ns3:TrackPointExtension>
        </extensions>
      </trkpt>
      <trkpt lat="36.8222330510616302490234375" lon="-118.3929917402565479278564453125">
        <ele>3801</ele>
        <time>2021-06-27T16:00:52.000Z</time>
        <extensions>
          <ns3:TrackPointExtension>
            <ns3:atemp>25.0</ns3:atemp>
            <ns3:hr>112</ns3:hr>
          </ns3:TrackPointExtension>
        </extensions>
      </trkpt>
      <trkpt lat="36.8222345598042011260986328125" lon="-118.3929883874952793121337890625">
        <ele>3801.199951171875</ele>
        <time>2021-06-27T16:00:56.000Z</time>
        <extensions>
          <ns3:TrackPointExtension>
            <ns3:atemp>25.0</ns3:atemp>
            <ns3:hr>115</ns3:hr>
          </ns3:TrackPointExtension>
        </extensions>
      </trkpt>
      <trkpt lat="36.822236739099025726318359375" lon="-118.39298344217240810394287109375">
        <ele>3801.39990234375</ele>
        <time>2021-06-27T16:01:02.000Z</time>
        <extensions>
          <ns3:TrackPointExtension>
            <ns3:atemp>25.0</ns3:atemp>
            <ns3:hr>118</ns3:hr>
          </ns3:TrackPointExtension>
        </extensions>
      </trkpt>
      <trkpt lat="36.82223866693675518035888671875" lon="-118.3929793350398540496826171875">
        <ele>3802</ele>
        <time>2021-06-27T16:01:07.000Z</time>
        <extensions>
          <ns3:TrackPointExtension>
            <ns3:atemp>25.0</ns3:atemp>
            <ns3:hr>116</ns3:hr>
          </ns3:TrackPointExtension>
        </extensions>
      </trkpt>
      <trkpt lat="36.82224017567932605743408203125" lon="-118.3929759822785854339599609375">
        <ele>3803</ele>
        <time>2021-06-27T16:01:11.000Z</time>
        <extensions>
          <ns3:TrackPointExtension>
            <ns3:atemp>25.0</ns3:atemp>
            <ns3:hr>117</ns3:hr>
          </ns3:TrackPointExtension>
        </extensions>
      </trkpt>
      <trkpt lat="36.82224134914577007293701171875" lon="-118.39297355152666568756103515625">
        <ele>3803</ele>
        <time>2021-06-27T16:01:14.000Z</time>
        <extensions>
          <ns3:TrackPointExtension>
            <ns3:atemp>25.0</ns3:atemp>
            <ns3:hr>114</ns3:hr>
          </ns3:TrackPointExtension>
        </extensions>
      </trkpt>
      <trkpt lat="36.82224981486797332763671875" lon="-118.392955362796783447265625">
        <ele>3802.800048828125</ele>
        <time>2021-06-27T16:01:36.000Z</time>
        <extensions>
          <ns3:TrackPointExtension>
            <ns3:atemp>25.0</ns3:atemp>
            <ns3:hr>111</ns3:hr>
          </ns3:TrackPointExtension>
        </extensions>
      </trkpt>
      <trkpt lat="36.82225056923925876617431640625" lon="-118.39295377023518085479736328125">
        <ele>3802.800048828125</ele>
        <time>2021-06-27T16:01:38.000Z</time>
        <extensions>
          <ns3:TrackPointExtension>
            <ns3:atemp>25.0</ns3:atemp>
            <ns3:hr>108</ns3:hr>
          </ns3:TrackPointExtension>
        </extensions>
      </trkpt>
      <trkpt lat="36.8222516588866710662841796875" lon="-118.3929513394832611083984375">
        <ele>3803</ele>
        <time>2021-06-27T16:01:41.000Z</time>
        <extensions>
          <ns3:TrackPointExtension>
            <ns3:atemp>25.0</ns3:atemp>
            <ns3:hr>105</ns3:hr>
          </ns3:TrackPointExtension>
        </extensions>
      </trkpt>
      <trkpt lat="36.82225207798182964324951171875" lon="-118.3929505012929439544677734375">
        <ele>3803</ele>
        <time>2021-06-27T16:01:42.000Z</time>
        <extensions>
          <ns3:TrackPointExtension>
            <ns3:atemp>25.0</ns3:atemp>
            <ns3:hr>105</ns3:hr>
          </ns3:TrackPointExtension>
        </extensions>
      </trkpt>
      <trkpt lat="36.8222550116479396820068359375" lon="-118.3929441310465335845947265625">
        <ele>3802.60009765625</ele>
        <time>2021-06-27T16:01:50.000Z</time>
        <extensions>
          <ns3:TrackPointExtension>
            <ns3:atemp>25.0</ns3:atemp>
            <ns3:hr>102</ns3:hr>
          </ns3:TrackPointExtension>
        </extensions>
      </trkpt>
      <trkpt lat="36.822257526218891143798828125" lon="-118.39293859899044036865234375">
        <ele>3802.800048828125</ele>
        <time>2021-06-27T16:01:57.000Z</time>
        <extensions>
          <ns3:TrackPointExtension>
            <ns3:atemp>25.0</ns3:atemp>
            <ns3:hr>105</ns3:hr>
          </ns3:TrackPointExtension>
        </extensions>
      </trkpt>
      <trkpt lat="36.8222610466182231903076171875" lon="-118.39293080382049083709716796875">
        <ele>3802.60009765625</ele>
        <time>2021-06-27T16:02:07.000Z</time>
        <extensions>
          <ns3:TrackPointExtension>
            <ns3:atemp>25.0</ns3:atemp>
            <ns3:hr>109</ns3:hr>
          </ns3:TrackPointExtension>
        </extensions>
      </trkpt>
      <trkpt lat="36.82226817123591899871826171875" lon="-118.3929152972996234893798828125">
        <ele>3802.39990234375</ele>
        <time>2021-06-27T16:02:28.000Z</time>
        <extensions>
          <ns3:TrackPointExtension>
            <ns3:atemp>26.0</ns3:atemp>
            <ns3:hr>106</ns3:hr>
          </ns3:TrackPointExtension>
        </extensions>
      </trkpt>
      <trkpt lat="36.82227487675845623016357421875" lon="-118.3929008804261684417724609375">
        <ele>3802.39990234375</ele>
        <time>2021-06-27T16:02:48.000Z</time>
        <extensions>
          <ns3:TrackPointExtension>
            <ns3:atemp>26.0</ns3:atemp>
            <ns3:hr>109</ns3:hr>
          </ns3:TrackPointExtension>
        </extensions>
      </trkpt>
      <trkpt lat="36.82228057645261287689208984375" lon="-118.3928888104856014251708984375">
        <ele>3802.800048828125</ele>
        <time>2021-06-27T16:03:05.000Z</time>
        <extensions>
          <ns3:TrackPointExtension>
            <ns3:atemp>26.0</ns3:atemp>
            <ns3:hr>105</ns3:hr>
          </ns3:TrackPointExtension>
        </extensions>
      </trkpt>
      <trkpt lat="36.82228560559451580047607421875" lon="-118.39287833310663700103759765625">
        <ele>3804.39990234375</ele>
        <time>2021-06-27T16:03:20.000Z</time>
        <extensions>
          <ns3:TrackPointExtension>
            <ns3:atemp>26.0</ns3:atemp>
            <ns3:hr>106</ns3:hr>
          </ns3:TrackPointExtension>
        </extensions>
      </trkpt>
      <trkpt lat="36.822287030518054962158203125" lon="-118.39287556707859039306640625">
        <ele>3805.39990234375</ele>
        <time>2021-06-27T16:03:24.000Z</time>
        <extensions>
          <ns3:TrackPointExtension>
            <ns3:atemp>26.0</ns3:atemp>
            <ns3:hr>102</ns3:hr>
          </ns3:TrackPointExtension>
        </extensions>
      </trkpt>
      <trkpt lat="36.822287701070308685302734375" lon="-118.39287422597408294677734375">
        <ele>3805.800048828125</ele>
        <time>2021-06-27T16:03:26.000Z</time>
        <extensions>
          <ns3:TrackPointExtension>
            <ns3:atemp>26.0</ns3:atemp>
            <ns3:hr>99</ns3:hr>
          </ns3:TrackPointExtension>
        </extensions>
      </trkpt>
      <trkpt lat="36.822288371622562408447265625" lon="-118.39287280105054378509521484375">
        <ele>3806</ele>
        <time>2021-06-27T16:03:28.000Z</time>
        <extensions>
          <ns3:TrackPointExtension>
            <ns3:atemp>26.0</ns3:atemp>
            <ns3:hr>96</ns3:hr>
          </ns3:TrackPointExtension>
        </extensions>
      </trkpt>
      <trkpt lat="36.8222893774509429931640625" lon="-118.39287078939378261566162109375">
        <ele>3806.39990234375</ele>
        <time>2021-06-27T16:03:31.000Z</time>
        <extensions>
          <ns3:TrackPointExtension>
            <ns3:atemp>26.0</ns3:atemp>
            <ns3:hr>93</ns3:hr>
          </ns3:TrackPointExtension>
        </extensions>
      </trkpt>
      <trkpt lat="36.822289712727069854736328125" lon="-118.3928700350224971771240234375">
        <ele>3806.800048828125</ele>
        <time>2021-06-27T16:03:32.000Z</time>
        <extensions>
          <ns3:TrackPointExtension>
            <ns3:atemp>26.0</ns3:atemp>
            <ns3:hr>93</ns3:hr>
          </ns3:TrackPointExtension>
        </extensions>
      </trkpt>
      <trkpt lat="36.82229138910770416259765625" lon="-118.39286659844219684600830078125">
        <ele>3807.39990234375</ele>
        <time>2021-06-27T16:03:37.000Z</time>
        <extensions>
          <ns3:TrackPointExtension>
            <ns3:atemp>26.0</ns3:atemp>
            <ns3:hr>96</ns3:hr>
          </ns3:TrackPointExtension>
        </extensions>
      </trkpt>
      <trkpt lat="36.82229281403124332427978515625" lon="-118.392863832414150238037109375">
        <ele>3808</ele>
        <time>2021-06-27T16:03:41.000Z</time>
        <extensions>
          <ns3:TrackPointExtension>
            <ns3:atemp>26.0</ns3:atemp>
            <ns3:hr>100</ns3:hr>
          </ns3:TrackPointExtension>
        </extensions>
      </trkpt>
      <trkpt lat="36.8222959153354167938232421875" lon="-118.3928574621677398681640625">
        <ele>3808.800048828125</ele>
        <time>2021-06-27T16:03:50.000Z</time>
        <extensions>
          <ns3:TrackPointExtension>
            <ns3:atemp>26.0</ns3:atemp>
            <ns3:hr>105</ns3:hr>
          </ns3:TrackPointExtension>
        </extensions>
      </trkpt>
      <trkpt lat="36.82229633443057537078857421875" lon="-118.39285670779645442962646484375">
        <ele>3808.800048828125</ele>
        <time>2021-06-27T16:03:51.000Z</time>
        <extensions>
          <ns3:TrackPointExtension>
            <ns3:atemp>26.0</ns3:atemp>
            <ns3:hr>104</ns3:hr>
          </ns3:TrackPointExtension>
        </extensions>
      </trkpt>
      <trkpt lat="36.82229666970670223236083984375" lon="-118.39285603724420070648193359375">
        <ele>3809</ele>
        <time>2021-06-27T16:03:52.000Z</time>
        <extensions>
          <ns3:TrackPointExtension>
            <ns3:atemp>26.0</ns3:atemp>
            <ns3:hr>105</ns3:hr>
          </ns3:TrackPointExtension>
        </extensions>
      </trkpt>
      <trkpt lat="36.82229901663959026336669921875" lon="-118.3928509242832660675048828125">
        <ele>3809.800048828125</ele>
        <time>2021-06-27T16:03:59.000Z</time>
        <extensions>
          <ns3:TrackPointExtension>
            <ns3:atemp>26.0</ns3:atemp>
            <ns3:hr>109</ns3:hr>
          </ns3:TrackPointExtension>
        </extensions>
      </trkpt>
      <trkpt lat="36.82229968719184398651123046875" lon="-118.39284949935972690582275390625">
        <ele>3810</ele>
        <time>2021-06-27T16:04:01.000Z</time>
        <extensions>
          <ns3:TrackPointExtension>
            <ns3:atemp>26.0</ns3:atemp>
            <ns3:hr>109</ns3:hr>
          </ns3:TrackPointExtension>
        </extensions>
      </trkpt>
      <trkpt lat="36.822302453219890594482421875" lon="-118.39284363202750682830810546875">
        <ele>3810.39990234375</ele>
        <time>2021-06-27T16:04:09.000Z</time>
        <extensions>
          <ns3:TrackPointExtension>
            <ns3:atemp>26.0</ns3:atemp>
            <ns3:hr>112</ns3:hr>
          </ns3:TrackPointExtension>
        </extensions>
      </trkpt>
      <trkpt lat="36.82230412960052490234375" lon="-118.39283994399011135101318359375">
        <ele>3811.39990234375</ele>
        <time>2021-06-27T16:04:14.000Z</time>
        <extensions>
          <ns3:TrackPointExtension>
            <ns3:atemp>26.0</ns3:atemp>
            <ns3:hr>113</ns3:hr>
          </ns3:TrackPointExtension>
        </extensions>
      </trkpt>
      <trkpt lat="36.82230614125728607177734375" lon="-118.39283533394336700439453125">
        <ele>3812.199951171875</ele>
        <time>2021-06-27T16:04:20.000Z</time>
        <extensions>
          <ns3:TrackPointExtension>
            <ns3:atemp>26.0</ns3:atemp>
            <ns3:hr>110</ns3:hr>
          </ns3:TrackPointExtension>
        </extensions>
      </trkpt>
      <trkpt lat="36.822306811809539794921875" lon="-118.3928338252007961273193359375">
        <ele>3812.39990234375</ele>
        <time>2021-06-27T16:04:22.000Z</time>
        <extensions>
          <ns3:TrackPointExtension>
            <ns3:atemp>26.0</ns3:atemp>
            <ns3:hr>112</ns3:hr>
          </ns3:TrackPointExtension>
        </extensions>
      </trkpt>
      <trkpt lat="36.82230924256145954132080078125" lon="-118.39282854460179805755615234375">
        <ele>3813.800048828125</ele>
        <time>2021-06-27T16:04:29.000Z</time>
        <extensions>
          <ns3:TrackPointExtension>
            <ns3:atemp>26.0</ns3:atemp>
            <ns3:hr>112</ns3:hr>
          </ns3:TrackPointExtension>
        </extensions>
      </trkpt>
      <trkpt lat="36.8223116733133792877197265625" lon="-118.3928230963647365570068359375">
        <ele>3814.199951171875</ele>
        <time>2021-06-27T16:04:36.000Z</time>
        <extensions>
          <ns3:TrackPointExtension>
            <ns3:atemp>25.0</ns3:atemp>
            <ns3:hr>109</ns3:hr>
          </ns3:TrackPointExtension>
        </extensions>
      </trkpt>
      <trkpt lat="36.82231410406529903411865234375" lon="-118.39281748048961162567138671875">
        <ele>3815</ele>
        <time>2021-06-27T16:04:43.000Z</time>
        <extensions>
          <ns3:TrackPointExtension>
            <ns3:atemp>25.0</ns3:atemp>
            <ns3:hr>108</ns3:hr>
          </ns3:TrackPointExtension>
        </extensions>
      </trkpt>
      <trkpt lat="36.8223187141120433807373046875" lon="-118.3928066678345203399658203125">
        <ele>3814.39990234375</ele>
        <time>2021-06-27T16:04:56.000Z</time>
        <extensions>
          <ns3:TrackPointExtension>
            <ns3:atemp>25.0</ns3:atemp>
            <ns3:hr>104</ns3:hr>
          </ns3:TrackPointExtension>
        </extensions>
      </trkpt>
      <trkpt lat="36.82232097722589969635009765625" lon="-118.39280172251164913177490234375">
        <ele>3814.39990234375</ele>
        <time>2021-06-27T16:05:02.000Z</time>
        <extensions>
          <ns3:TrackPointExtension>
            <ns3:atemp>25.0</ns3:atemp>
            <ns3:hr>108</ns3:hr>
          </ns3:TrackPointExtension>
        </extensions>
      </trkpt>
      <trkpt lat="36.82232365943491458892822265625" lon="-118.3927959389984607696533203125">
        <ele>3814.800048828125</ele>
        <time>2021-06-27T16:05:09.000Z</time>
        <extensions>
          <ns3:TrackPointExtension>
            <ns3:atemp>25.0</ns3:atemp>
            <ns3:hr>105</ns3:hr>
          </ns3:TrackPointExtension>
        </extensions>
      </trkpt>
      <trkpt lat="36.822325922548770904541015625" lon="-118.39279107749462127685546875">
        <ele>3814.39990234375</ele>
        <time>2021-06-27T16:05:15.000Z</time>
        <extensions>
          <ns3:TrackPointExtension>
            <ns3:atemp>25.0</ns3:atemp>
            <ns3:hr>102</ns3:hr>
          </ns3:TrackPointExtension>
        </extensions>
      </trkpt>
      <trkpt lat="36.82232818566262722015380859375" lon="-118.39278629980981349945068359375">
        <ele>3814.60009765625</ele>
        <time>2021-06-27T16:05:21.000Z</time>
        <extensions>
          <ns3:TrackPointExtension>
            <ns3:atemp>25.0</ns3:atemp>
            <ns3:hr>99</ns3:hr>
          </ns3:TrackPointExtension>
        </extensions>
      </trkpt>
      <trkpt lat="36.82233505882322788238525390625" lon="-118.39277171529829502105712890625">
        <ele>3814.60009765625</ele>
        <time>2021-06-27T16:05:40.000Z</time>
        <extensions>
          <ns3:TrackPointExtension>
            <ns3:atemp>25.0</ns3:atemp>
            <ns3:hr>96</ns3:hr>
          </ns3:TrackPointExtension>
        </extensions>
      </trkpt>
      <trkpt lat="36.8223374895751476287841796875" lon="-118.3927664346992969512939453125">
        <ele>3814.60009765625</ele>
        <time>2021-06-27T16:05:47.000Z</time>
        <extensions>
          <ns3:TrackPointExtension>
            <ns3:atemp>25.0</ns3:atemp>
            <ns3:hr>100</ns3:hr>
          </ns3:TrackPointExtension>
        </extensions>
      </trkpt>
      <trkpt lat="36.8223378248512744903564453125" lon="-118.39276568032801151275634765625">
        <ele>3814.60009765625</ele>
        <time>2021-06-27T16:05:48.000Z</time>
        <extensions>
          <ns3:TrackPointExtension>
            <ns3:atemp>25.0</ns3:atemp>
            <ns3:hr>103</ns3:hr>
          </ns3:TrackPointExtension>
        </extensions>
      </trkpt>
      <trkpt lat="36.8223381601274013519287109375" lon="-118.39276500977575778961181640625">
        <ele>3814.60009765625</ele>
        <time>2021-06-27T16:05:49.000Z</time>
        <extensions>
          <ns3:TrackPointExtension>
            <ns3:atemp>25.0</ns3:atemp>
            <ns3:hr>103</ns3:hr>
          </ns3:TrackPointExtension>
        </extensions>
      </trkpt>
      <trkpt lat="36.8223384954035282135009765625" lon="-118.39276425540447235107421875">
        <ele>3814.60009765625</ele>
        <time>2021-06-27T16:05:50.000Z</time>
        <extensions>
          <ns3:TrackPointExtension>
            <ns3:atemp>25.0</ns3:atemp>
            <ns3:hr>108</ns3:hr>
          </ns3:TrackPointExtension>
        </extensions>
      </trkpt>
      <trkpt lat="36.8223388306796550750732421875" lon="-118.39276350103318691253662109375">
        <ele>3814.60009765625</ele>
        <time>2021-06-27T16:05:51.000Z</time>
        <extensions>
          <ns3:TrackPointExtension>
            <ns3:atemp>25.0</ns3:atemp>
            <ns3:hr>104</ns3:hr>
          </ns3:TrackPointExtension>
        </extensions>
      </trkpt>
      <trkpt lat="36.82234092615544795989990234375" lon="-118.39275914244353771209716796875">
        <ele>3814.199951171875</ele>
        <time>2021-06-27T16:05:57.000Z</time>
        <extensions>
          <ns3:TrackPointExtension>
            <ns3:atemp>25.0</ns3:atemp>
            <ns3:hr>107</ns3:hr>
          </ns3:TrackPointExtension>
        </extensions>
      </trkpt>
      <trkpt lat="36.82234427891671657562255859375" lon="-118.3927520178258419036865234375">
        <ele>3814.199951171875</ele>
        <time>2021-06-27T16:06:07.000Z</time>
        <extensions>
          <ns3:TrackPointExtension>
            <ns3:atemp>25.0</ns3:atemp>
            <ns3:hr>104</ns3:hr>
          </ns3:TrackPointExtension>
        </extensions>
      </trkpt>
      <trkpt lat="36.8223457038402557373046875" lon="-118.3927493356168270111083984375">
        <ele>3814.199951171875</ele>
        <time>2021-06-27T16:06:11.000Z</time>
        <extensions>
          <ns3:TrackPointExtension>
            <ns3:atemp>25.0</ns3:atemp>
            <ns3:hr>101</ns3:hr>
          </ns3:TrackPointExtension>
        </extensions>
      </trkpt>
      <trkpt lat="36.82234637439250946044921875" lon="-118.39274791069328784942626953125">
        <ele>3814.199951171875</ele>
        <time>2021-06-27T16:06:13.000Z</time>
        <extensions>
          <ns3:TrackPointExtension>
            <ns3:atemp>25.0</ns3:atemp>
            <ns3:hr>98</ns3:hr>
          </ns3:TrackPointExtension>
        </extensions>
      </trkpt>
      <trkpt lat="36.82234771549701690673828125" lon="-118.39274522848427295684814453125">
        <ele>3814.199951171875</ele>
        <time>2021-06-27T16:06:17.000Z</time>
        <extensions>
          <ns3:TrackPointExtension>
            <ns3:atemp>25.0</ns3:atemp>
            <ns3:hr>95</ns3:hr>
          </ns3:TrackPointExtension>
        </extensions>
      </trkpt>
      <trkpt lat="36.82235282845795154571533203125" lon="-118.392734415829181671142578125">
        <ele>3814.199951171875</ele>
        <time>2021-06-27T16:06:33.000Z</time>
        <extensions>
          <ns3:TrackPointExtension>
            <ns3:atemp>25.0</ns3:atemp>
            <ns3:hr>92</ns3:hr>
          </ns3:TrackPointExtension>
        </extensions>
      </trkpt>
      <trkpt lat="36.82235844433307647705078125" lon="-118.3927225135266780853271484375">
        <ele>3814.199951171875</ele>
        <time>2021-06-27T16:06:51.000Z</time>
        <extensions>
          <ns3:TrackPointExtension>
            <ns3:atemp>25.0</ns3:atemp>
            <ns3:hr>95</ns3:hr>
          </ns3:TrackPointExtension>
        </extensions>
      </trkpt>
      <trkpt lat="36.8223643116652965545654296875" lon="-118.39271002449095249176025390625">
        <ele>3814.199951171875</ele>
        <time>2021-06-27T16:07:10.000Z</time>
        <extensions>
          <ns3:TrackPointExtension>
            <ns3:atemp>25.0</ns3:atemp>
            <ns3:hr>98</ns3:hr>
          </ns3:TrackPointExtension>
        </extensions>
      </trkpt>
      <trkpt lat="36.82237043045461177825927734375" lon="-118.39269778691232204437255859375">
        <ele>3814.199951171875</ele>
        <time>2021-06-27T16:07:29.000Z</time>
        <extensions>
          <ns3:TrackPointExtension>
            <ns3:atemp>25.0</ns3:atemp>
            <ns3:hr>95</ns3:hr>
          </ns3:TrackPointExtension>
        </extensions>
      </trkpt>
      <trkpt lat="36.82237110100686550140380859375" lon="-118.3926965296268463134765625">
        <ele>3814.199951171875</ele>
        <time>2021-06-27T16:07:31.000Z</time>
        <extensions>
          <ns3:TrackPointExtension>
            <ns3:atemp>25.0</ns3:atemp>
            <ns3:hr>92</ns3:hr>
          </ns3:TrackPointExtension>
        </extensions>
      </trkpt>
      <trkpt lat="36.8223723582923412322998046875" lon="-118.3926940150558948516845703125">
        <ele>3814.199951171875</ele>
        <time>2021-06-27T16:07:35.000Z</time>
        <extensions>
          <ns3:TrackPointExtension>
            <ns3:atemp>25.0</ns3:atemp>
            <ns3:hr>89</ns3:hr>
          </ns3:TrackPointExtension>
        </extensions>
      </trkpt>
      <trkpt lat="36.82237713597714900970458984375" lon="-118.39268487878143787384033203125">
        <ele>3814.199951171875</ele>
        <time>2021-06-27T16:07:50.000Z</time>
        <extensions>
          <ns3:TrackPointExtension>
            <ns3:atemp>25.0</ns3:atemp>
            <ns3:hr>86</ns3:hr>
          </ns3:TrackPointExtension>
        </extensions>
      </trkpt>
      <trkpt lat="36.8223790638148784637451171875" lon="-118.39268135838210582733154296875">
        <ele>3814.199951171875</ele>
        <time>2021-06-27T16:07:56.000Z</time>
        <extensions>
          <ns3:TrackPointExtension>
            <ns3:atemp>25.0</ns3:atemp>
            <ns3:hr>89</ns3:hr>
          </ns3:TrackPointExtension>
        </extensions>
      </trkpt>
      <trkpt lat="36.82238233275711536407470703125" lon="-118.3926755748689174652099609375">
        <ele>3814.199951171875</ele>
        <time>2021-06-27T16:08:06.000Z</time>
        <extensions>
          <ns3:TrackPointExtension>
            <ns3:atemp>25.0</ns3:atemp>
            <ns3:hr>92</ns3:hr>
          </ns3:TrackPointExtension>
        </extensions>
      </trkpt>
      <trkpt lat="36.82238333858549594879150390625" lon="-118.3926738984882831573486328125">
        <ele>3814.199951171875</ele>
        <time>2021-06-27T16:08:09.000Z</time>
        <extensions>
          <ns3:TrackPointExtension>
            <ns3:atemp>25.0</ns3:atemp>
            <ns3:hr>89</ns3:hr>
          </ns3:TrackPointExtension>
        </extensions>
      </trkpt>
      <trkpt lat="36.82238820008933544158935546875" lon="-118.3926655165851116180419921875">
        <ele>3814.199951171875</ele>
        <time>2021-06-27T16:08:24.000Z</time>
        <extensions>
          <ns3:TrackPointExtension>
            <ns3:atemp>25.0</ns3:atemp>
            <ns3:hr>92</ns3:hr>
          </ns3:TrackPointExtension>
        </extensions>
      </trkpt>
      <trkpt lat="36.8223894573748111724853515625" lon="-118.392663337290287017822265625">
        <ele>3814.199951171875</ele>
        <time>2021-06-27T16:08:28.000Z</time>
        <extensions>
          <ns3:TrackPointExtension>
            <ns3:atemp>25.0</ns3:atemp>
            <ns3:hr>88</ns3:hr>
          </ns3:TrackPointExtension>
        </extensions>
      </trkpt>
      <trkpt lat="36.8223904632031917572021484375" lon="-118.3926616609096527099609375">
        <ele>3814.199951171875</ele>
        <time>2021-06-27T16:08:31.000Z</time>
        <extensions>
          <ns3:TrackPointExtension>
            <ns3:atemp>25.0</ns3:atemp>
            <ns3:hr>85</ns3:hr>
          </ns3:TrackPointExtension>
        </extensions>
      </trkpt>
      <trkpt lat="36.82239104993641376495361328125" lon="-118.39266057126224040985107421875">
        <ele>3814.199951171875</ele>
        <time>2021-06-27T16:08:33.000Z</time>
        <extensions>
          <ns3:TrackPointExtension>
            <ns3:atemp>25.0</ns3:atemp>
            <ns3:hr>82</ns3:hr>
          </ns3:TrackPointExtension>
        </extensions>
      </trkpt>
      <trkpt lat="36.8223988451063632965087890625" lon="-118.39264699257910251617431640625">
        <ele>3821.199951171875</ele>
        <time>2021-06-27T16:08:56.000Z</time>
        <extensions>
          <ns3:TrackPointExtension>
            <ns3:atemp>25.0</ns3:atemp>
            <ns3:hr>85</ns3:hr>
          </ns3:TrackPointExtension>
        </extensions>
      </trkpt>
      <trkpt lat="36.82240379042923450469970703125" lon="-118.39263978414237499237060546875">
        <ele>3822</ele>
        <time>2021-06-27T16:09:08.000Z</time>
        <extensions>
          <ns3:TrackPointExtension>
            <ns3:atemp>25.0</ns3:atemp>
            <ns3:hr>88</ns3:hr>
          </ns3:TrackPointExtension>
        </extensions>
      </trkpt>
      <trkpt lat="36.8224042095243930816650390625" lon="-118.392639197409152984619140625">
        <ele>3822.60009765625</ele>
        <time>2021-06-27T16:09:09.000Z</time>
        <extensions>
          <ns3:TrackPointExtension>
            <ns3:atemp>25.0</ns3:atemp>
            <ns3:hr>87</ns3:hr>
          </ns3:TrackPointExtension>
        </extensions>
      </trkpt>
      <trkpt lat="36.8224055506289005279541015625" lon="-118.3926373533904552459716796875">
        <ele>3822.800048828125</ele>
        <time>2021-06-27T16:09:12.000Z</time>
        <extensions>
          <ns3:TrackPointExtension>
            <ns3:atemp>25.0</ns3:atemp>
            <ns3:hr>91</ns3:hr>
          </ns3:TrackPointExtension>
        </extensions>
      </trkpt>
      <trkpt lat="36.82240865193307399749755859375" lon="-118.39263307861983776092529296875">
        <ele>3823.800048828125</ele>
        <time>2021-06-27T16:09:19.000Z</time>
        <extensions>
          <ns3:TrackPointExtension>
            <ns3:atemp>25.0</ns3:atemp>
            <ns3:hr>94</ns3:hr>
          </ns3:TrackPointExtension>
        </extensions>
      </trkpt>
      <trkpt lat="36.82240999303758144378662109375" lon="-118.392631150782108306884765625">
        <ele>3824</ele>
        <time>2021-06-27T16:09:22.000Z</time>
        <extensions>
          <ns3:TrackPointExtension>
            <ns3:atemp>25.0</ns3:atemp>
            <ns3:hr>98</ns3:hr>
          </ns3:TrackPointExtension>
        </extensions>
      </trkpt>
      <trkpt lat="36.8224109150469303131103515625" lon="-118.3926299773156642913818359375">
        <ele>3824</ele>
        <time>2021-06-27T16:09:24.000Z</time>
        <extensions>
          <ns3:TrackPointExtension>
            <ns3:atemp>25.0</ns3:atemp>
            <ns3:hr>102</ns3:hr>
          </ns3:TrackPointExtension>
        </extensions>
      </trkpt>
      <trkpt lat="36.8224132619798183441162109375" lon="-118.3926267921924591064453125">
        <ele>3825</ele>
        <time>2021-06-27T16:09:29.000Z</time>
        <extensions>
          <ns3:TrackPointExtension>
            <ns3:atemp>25.0</ns3:atemp>
            <ns3:hr>103</ns3:hr>
          </ns3:TrackPointExtension>
        </extensions>
      </trkpt>
      <trkpt lat="36.8224156089127063751220703125" lon="-118.39262352325022220611572265625">
        <ele>3826</ele>
        <time>2021-06-27T16:09:34.000Z</time>
        <extensions>
          <ns3:TrackPointExtension>
            <ns3:atemp>25.0</ns3:atemp>
            <ns3:hr>100</ns3:hr>
          </ns3:TrackPointExtension>
        </extensions>
      </trkpt>
      <trkpt lat="36.82241703383624553680419921875" lon="-118.39262151159346103668212890625">
        <ele>3826</ele>
        <time>2021-06-27T16:09:37.000Z</time>
        <extensions>
          <ns3:TrackPointExtension>
            <ns3:atemp>25.0</ns3:atemp>
            <ns3:hr>97</ns3:hr>
          </ns3:TrackPointExtension>
        </extensions>
      </trkpt>
      <trkpt lat="36.82241938076913356781005859375" lon="-118.39261815883219242095947265625">
        <ele>3826.199951171875</ele>
        <time>2021-06-27T16:09:42.000Z</time>
        <extensions>
          <ns3:TrackPointExtension>
            <ns3:atemp>25.0</ns3:atemp>
            <ns3:hr>94</ns3:hr>
          </ns3:TrackPointExtension>
        </extensions>
      </trkpt>
      <trkpt lat="36.82242223061621189117431640625" lon="-118.39261405169963836669921875">
        <ele>3826</ele>
        <time>2021-06-27T16:09:48.000Z</time>
        <extensions>
          <ns3:TrackPointExtension>
            <ns3:atemp>26.0</ns3:atemp>
            <ns3:hr>97</ns3:hr>
          </ns3:TrackPointExtension>
        </extensions>
      </trkpt>
      <trkpt lat="36.822423152625560760498046875" lon="-118.39261271059513092041015625">
        <ele>3826</ele>
        <time>2021-06-27T16:09:50.000Z</time>
        <extensions>
          <ns3:TrackPointExtension>
            <ns3:atemp>26.0</ns3:atemp>
            <ns3:hr>100</ns3:hr>
          </ns3:TrackPointExtension>
        </extensions>
      </trkpt>
      <trkpt lat="36.82242684066295623779296875" lon="-118.39260692708194255828857421875">
        <ele>3827.199951171875</ele>
        <time>2021-06-27T16:09:58.000Z</time>
        <extensions>
          <ns3:TrackPointExtension>
            <ns3:atemp>26.0</ns3:atemp>
            <ns3:hr>99</ns3:hr>
          </ns3:TrackPointExtension>
        </extensions>
      </trkpt>
      <trkpt lat="36.8224286846816539764404296875" lon="-118.39260407723486423492431640625">
        <ele>3827.39990234375</ele>
        <time>2021-06-27T16:10:02.000Z</time>
        <extensions>
          <ns3:TrackPointExtension>
            <ns3:atemp>26.0</ns3:atemp>
            <ns3:hr>96</ns3:hr>
          </ns3:TrackPointExtension>
        </extensions>
      </trkpt>
      <trkpt lat="36.8224300257861614227294921875" lon="-118.39260189794003963470458984375">
        <ele>3828.39990234375</ele>
        <time>2021-06-27T16:10:05.000Z</time>
        <extensions>
          <ns3:TrackPointExtension>
            <ns3:atemp>26.0</ns3:atemp>
            <ns3:hr>98</ns3:hr>
          </ns3:TrackPointExtension>
        </extensions>
      </trkpt>
      <trkpt lat="36.82243094779551029205322265625" lon="-118.3926004730165004730224609375">
        <ele>3828.800048828125</ele>
        <time>2021-06-27T16:10:07.000Z</time>
        <extensions>
          <ns3:TrackPointExtension>
            <ns3:atemp>26.0</ns3:atemp>
            <ns3:hr>98</ns3:hr>
          </ns3:TrackPointExtension>
        </extensions>
      </trkpt>
      <trkpt lat="36.82243228890001773834228515625" lon="-118.392598293721675872802734375">
        <ele>3828.800048828125</ele>
        <time>2021-06-27T16:10:10.000Z</time>
        <extensions>
          <ns3:TrackPointExtension>
            <ns3:atemp>26.0</ns3:atemp>
            <ns3:hr>103</ns3:hr>
          </ns3:TrackPointExtension>
        </extensions>
      </trkpt>
      <trkpt lat="36.822434552013874053955078125" lon="-118.39259468950331211090087890625">
        <ele>3829</ele>
        <time>2021-06-27T16:10:15.000Z</time>
        <extensions>
          <ns3:TrackPointExtension>
            <ns3:atemp>26.0</ns3:atemp>
            <ns3:hr>99</ns3:hr>
          </ns3:TrackPointExtension>
        </extensions>
      </trkpt>
      <trkpt lat="36.82243497110903263092041015625" lon="-118.39259401895105838775634765625">
        <ele>3829</ele>
        <time>2021-06-27T16:10:16.000Z</time>
        <extensions>
          <ns3:TrackPointExtension>
            <ns3:atemp>26.0</ns3:atemp>
            <ns3:hr>102</ns3:hr>
          </ns3:TrackPointExtension>
        </extensions>
      </trkpt>
      <trkpt lat="36.822435893118381500244140625" lon="-118.39259259402751922607421875">
        <ele>3829.199951171875</ele>
        <time>2021-06-27T16:10:18.000Z</time>
        <extensions>
          <ns3:TrackPointExtension>
            <ns3:atemp>26.0</ns3:atemp>
            <ns3:hr>106</ns3:hr>
          </ns3:TrackPointExtension>
        </extensions>
      </trkpt>
      <trkpt lat="36.8224363960325717926025390625" lon="-118.3925919234752655029296875">
        <ele>3829.39990234375</ele>
        <time>2021-06-27T16:10:19.000Z</time>
        <extensions>
          <ns3:TrackPointExtension>
            <ns3:atemp>26.0</ns3:atemp>
            <ns3:hr>108</ns3:hr>
          </ns3:TrackPointExtension>
        </extensions>
      </trkpt>
      <trkpt lat="36.82243983261287212371826171875" lon="-118.39258697815239429473876953125">
        <ele>3829.800048828125</ele>
        <time>2021-06-27T16:10:26.000Z</time>
        <extensions>
          <ns3:TrackPointExtension>
            <ns3:atemp>26.0</ns3:atemp>
            <ns3:hr>111</ns3:hr>
          </ns3:TrackPointExtension>
        </extensions>
      </trkpt>
      <trkpt lat="36.82244385592639446258544921875" lon="-118.3925813622772693634033203125">
        <ele>3829.800048828125</ele>
        <time>2021-06-27T16:10:34.000Z</time>
        <extensions>
          <ns3:TrackPointExtension>
            <ns3:atemp>26.0</ns3:atemp>
            <ns3:hr>114</ns3:hr>
          </ns3:TrackPointExtension>
        </extensions>
      </trkpt>
      <trkpt lat="36.82244486175477504730224609375" lon="-118.39257993735373020172119140625">
        <ele>3829.800048828125</ele>
        <time>2021-06-27T16:10:36.000Z</time>
        <extensions>
          <ns3:TrackPointExtension>
            <ns3:atemp>26.0</ns3:atemp>
            <ns3:hr>117</ns3:hr>
          </ns3:TrackPointExtension>
        </extensions>
      </trkpt>
      <trkpt lat="36.8224508129060268402099609375" lon="-118.3925716392695903778076171875">
        <ele>3829.800048828125</ele>
        <time>2021-06-27T16:10:48.000Z</time>
        <extensions>
          <ns3:TrackPointExtension>
            <ns3:atemp>26.0</ns3:atemp>
            <ns3:hr>114</ns3:hr>
          </ns3:TrackPointExtension>
        </extensions>
      </trkpt>
      <trkpt lat="36.8224541656672954559326171875" lon="-118.39256669394671916961669921875">
        <ele>3829.800048828125</ele>
        <time>2021-06-27T16:10:55.000Z</time>
        <extensions>
          <ns3:TrackPointExtension>
            <ns3:atemp>26.0</ns3:atemp>
            <ns3:hr>111</ns3:hr>
          </ns3:TrackPointExtension>
        </extensions>
      </trkpt>
      <trkpt lat="36.82245609350502490997314453125" lon="-118.392564095556735992431640625">
        <ele>3829.800048828125</ele>
        <time>2021-06-27T16:10:59.000Z</time>
        <extensions>
          <ns3:TrackPointExtension>
            <ns3:atemp>26.0</ns3:atemp>
            <ns3:hr>115</ns3:hr>
          </ns3:TrackPointExtension>
        </extensions>
      </trkpt>
      <trkpt lat="36.8224575184285640716552734375" lon="-118.39256200008094310760498046875">
        <ele>3830.199951171875</ele>
        <time>2021-06-27T16:11:02.000Z</time>
        <extensions>
          <ns3:TrackPointExtension>
            <ns3:atemp>26.0</ns3:atemp>
            <ns3:hr>111</ns3:hr>
          </ns3:TrackPointExtension>
        </extensions>
      </trkpt>
      <trkpt lat="36.82245944626629352569580078125" lon="-118.3925592340528964996337890625">
        <ele>3830.39990234375</ele>
        <time>2021-06-27T16:11:06.000Z</time>
        <extensions>
          <ns3:TrackPointExtension>
            <ns3:atemp>26.0</ns3:atemp>
            <ns3:hr>117</ns3:hr>
          </ns3:TrackPointExtension>
        </extensions>
      </trkpt>
      <trkpt lat="36.8224598653614521026611328125" lon="-118.3925585635006427764892578125">
        <ele>3830.199951171875</ele>
        <time>2021-06-27T16:11:07.000Z</time>
        <extensions>
          <ns3:TrackPointExtension>
            <ns3:atemp>26.0</ns3:atemp>
            <ns3:hr>117</ns3:hr>
          </ns3:TrackPointExtension>
        </extensions>
      </trkpt>
      <trkpt lat="36.82246631942689418792724609375" lon="-118.39254892431199550628662109375">
        <ele>3830</ele>
        <time>2021-06-27T16:11:21.000Z</time>
        <extensions>
          <ns3:TrackPointExtension>
            <ns3:atemp>26.0</ns3:atemp>
            <ns3:hr>114</ns3:hr>
          </ns3:TrackPointExtension>
        </extensions>
      </trkpt>
      <trkpt lat="36.82246983982622623443603515625" lon="-118.39254355989396572113037109375">
        <ele>3830.39990234375</ele>
        <time>2021-06-27T16:11:29.000Z</time>
        <extensions>
          <ns3:TrackPointExtension>
            <ns3:atemp>26.0</ns3:atemp>
            <ns3:hr>110</ns3:hr>
          </ns3:TrackPointExtension>
        </extensions>
      </trkpt>
      <trkpt lat="36.82247118093073368072509765625" lon="-118.39254154823720455169677734375">
        <ele>3830.60009765625</ele>
        <time>2021-06-27T16:11:32.000Z</time>
        <extensions>
          <ns3:TrackPointExtension>
            <ns3:atemp>26.0</ns3:atemp>
            <ns3:hr>112</ns3:hr>
          </ns3:TrackPointExtension>
        </extensions>
      </trkpt>
      <trkpt lat="36.82247243821620941162109375" lon="-118.39253953658044338226318359375">
        <ele>3831.60009765625</ele>
        <time>2021-06-27T16:11:35.000Z</time>
        <extensions>
          <ns3:TrackPointExtension>
            <ns3:atemp>26.0</ns3:atemp>
            <ns3:hr>112</ns3:hr>
          </ns3:TrackPointExtension>
        </extensions>
      </trkpt>
      <trkpt lat="36.82247419841587543487548828125" lon="-118.392536938190460205078125">
        <ele>3831.800048828125</ele>
        <time>2021-06-27T16:11:39.000Z</time>
        <extensions>
          <ns3:TrackPointExtension>
            <ns3:atemp>25.0</ns3:atemp>
            <ns3:hr>109</ns3:hr>
          </ns3:TrackPointExtension>
        </extensions>
      </trkpt>
      <trkpt lat="36.82247637771070003509521484375" lon="-118.3925337530672550201416015625">
        <ele>3832.800048828125</ele>
        <time>2021-06-27T16:11:44.000Z</time>
        <extensions>
          <ns3:TrackPointExtension>
            <ns3:atemp>25.0</ns3:atemp>
            <ns3:hr>109</ns3:hr>
          </ns3:TrackPointExtension>
        </extensions>
      </trkpt>
      <trkpt lat="36.822480149567127227783203125" lon="-118.39252889156341552734375">
        <ele>3833.800048828125</ele>
        <time>2021-06-27T16:11:52.000Z</time>
        <extensions>
          <ns3:TrackPointExtension>
            <ns3:atemp>25.0</ns3:atemp>
            <ns3:hr>109</ns3:hr>
          </ns3:TrackPointExtension>
        </extensions>
      </trkpt>
      <trkpt lat="36.8224806524813175201416015625" lon="-118.39252822101116180419921875">
        <ele>3833.800048828125</ele>
        <time>2021-06-27T16:11:53.000Z</time>
        <extensions>
          <ns3:TrackPointExtension>
            <ns3:atemp>25.0</ns3:atemp>
            <ns3:hr>108</ns3:hr>
          </ns3:TrackPointExtension>
        </extensions>
      </trkpt>
      <trkpt lat="36.8224816583096981048583984375" lon="-118.3925270475447177886962890625">
        <ele>3833.800048828125</ele>
        <time>2021-06-27T16:11:55.000Z</time>
        <extensions>
          <ns3:TrackPointExtension>
            <ns3:atemp>25.0</ns3:atemp>
            <ns3:hr>105</ns3:hr>
          </ns3:TrackPointExtension>
        </extensions>
      </trkpt>
      <trkpt lat="36.822483837604522705078125" lon="-118.3925247006118297576904296875">
        <ele>3833.60009765625</ele>
        <time>2021-06-27T16:11:59.000Z</time>
        <extensions>
          <ns3:TrackPointExtension>
            <ns3:atemp>25.0</ns3:atemp>
            <ns3:hr>101</ns3:hr>
          </ns3:TrackPointExtension>
        </extensions>
      </trkpt>
      <trkpt lat="36.8224843405187129974365234375" lon="-118.39252411387860774993896484375">
        <ele>3833.60009765625</ele>
        <time>2021-06-27T16:12:00.000Z</time>
        <extensions>
          <ns3:TrackPointExtension>
            <ns3:atemp>25.0</ns3:atemp>
            <ns3:hr>104</ns3:hr>
          </ns3:TrackPointExtension>
        </extensions>
      </trkpt>
      <trkpt lat="36.8224860168993473052978515625" lon="-118.3925223536789417266845703125">
        <ele>3833.800048828125</ele>
        <time>2021-06-27T16:12:03.000Z</time>
        <extensions>
          <ns3:TrackPointExtension>
            <ns3:atemp>25.0</ns3:atemp>
            <ns3:hr>101</ns3:hr>
          </ns3:TrackPointExtension>
        </extensions>
      </trkpt>
      <trkpt lat="36.822488196194171905517578125" lon="-118.3925200067460536956787109375">
        <ele>3834.199951171875</ele>
        <time>2021-06-27T16:12:07.000Z</time>
        <extensions>
          <ns3:TrackPointExtension>
            <ns3:atemp>25.0</ns3:atemp>
            <ns3:hr>98</ns3:hr>
          </ns3:TrackPointExtension>
        </extensions>
      </trkpt>
      <trkpt lat="36.82249314151704311370849609375" lon="-118.39251489378511905670166015625">
        <ele>3834</ele>
        <time>2021-06-27T16:12:16.000Z</time>
        <extensions>
          <ns3:TrackPointExtension>
            <ns3:atemp>25.0</ns3:atemp>
            <ns3:hr>101</ns3:hr>
          </ns3:TrackPointExtension>
        </extensions>
      </trkpt>
      <trkpt lat="36.82249532081186771392822265625" lon="-118.39251271449029445648193359375">
        <ele>3834.39990234375</ele>
        <time>2021-06-27T16:12:20.000Z</time>
        <extensions>
          <ns3:TrackPointExtension>
            <ns3:atemp>25.0</ns3:atemp>
            <ns3:hr>104</ns3:hr>
          </ns3:TrackPointExtension>
        </extensions>
      </trkpt>
      <trkpt lat="36.8224959075450897216796875" lon="-118.39251212775707244873046875">
        <ele>3834.39990234375</ele>
        <time>2021-06-27T16:12:21.000Z</time>
        <extensions>
          <ns3:TrackPointExtension>
            <ns3:atemp>25.0</ns3:atemp>
            <ns3:hr>101</ns3:hr>
          </ns3:TrackPointExtension>
        </extensions>
      </trkpt>
      <trkpt lat="36.8224985897541046142578125" lon="-118.39250936172902584075927734375">
        <ele>3834.60009765625</ele>
        <time>2021-06-27T16:12:26.000Z</time>
        <extensions>
          <ns3:TrackPointExtension>
            <ns3:atemp>25.0</ns3:atemp>
            <ns3:hr>98</ns3:hr>
          </ns3:TrackPointExtension>
        </extensions>
      </trkpt>
      <trkpt lat="36.82250068522989749908447265625" lon="-118.3925072662532329559326171875">
        <ele>3835.39990234375</ele>
        <time>2021-06-27T16:12:30.000Z</time>
        <extensions>
          <ns3:TrackPointExtension>
            <ns3:atemp>25.0</ns3:atemp>
            <ns3:hr>96</ns3:hr>
          </ns3:TrackPointExtension>
        </extensions>
      </trkpt>
      <trkpt lat="36.822504960000514984130859375" lon="-118.392503075301647186279296875">
        <ele>3836.60009765625</ele>
        <time>2021-06-27T16:12:38.000Z</time>
        <extensions>
          <ns3:TrackPointExtension>
            <ns3:atemp>25.0</ns3:atemp>
            <ns3:hr>96</ns3:hr>
          </ns3:TrackPointExtension>
        </extensions>
      </trkpt>
      <trkpt lat="36.82250864803791046142578125" lon="-118.392499387264251708984375">
        <ele>3837</ele>
        <time>2021-06-27T16:12:45.000Z</time>
        <extensions>
          <ns3:TrackPointExtension>
            <ns3:atemp>25.0</ns3:atemp>
            <ns3:hr>99</ns3:hr>
          </ns3:TrackPointExtension>
        </extensions>
      </trkpt>
      <trkpt lat="36.82251292280852794647216796875" lon="-118.39249528013169765472412109375">
        <ele>3836.800048828125</ele>
        <time>2021-06-27T16:12:53.000Z</time>
        <extensions>
          <ns3:TrackPointExtension>
            <ns3:atemp>25.0</ns3:atemp>
            <ns3:hr>96</ns3:hr>
          </ns3:TrackPointExtension>
        </extensions>
      </trkpt>
      <trkpt lat="36.82252499274909496307373046875" lon="-118.3924844674766063690185546875">
        <ele>3837.60009765625</ele>
        <time>2021-06-27T16:13:14.000Z</time>
        <extensions>
          <ns3:TrackPointExtension>
            <ns3:atemp>25.0</ns3:atemp>
            <ns3:hr>99</ns3:hr>
          </ns3:TrackPointExtension>
        </extensions>
      </trkpt>
      <trkpt lat="36.82252666912972927093505859375" lon="-118.392482958734035491943359375">
        <ele>3837.39990234375</ele>
        <time>2021-06-27T16:13:17.000Z</time>
        <extensions>
          <ns3:TrackPointExtension>
            <ns3:atemp>25.0</ns3:atemp>
            <ns3:hr>102</ns3:hr>
          </ns3:TrackPointExtension>
        </extensions>
      </trkpt>
      <trkpt lat="36.82252901606261730194091796875" lon="-118.392480947077274322509765625">
        <ele>3837.39990234375</ele>
        <time>2021-06-27T16:13:21.000Z</time>
        <extensions>
          <ns3:TrackPointExtension>
            <ns3:atemp>25.0</ns3:atemp>
            <ns3:hr>98</ns3:hr>
          </ns3:TrackPointExtension>
        </extensions>
      </trkpt>
      <trkpt lat="36.82252951897680759429931640625" lon="-118.3924804441630840301513671875">
        <ele>3837.39990234375</ele>
        <time>2021-06-27T16:13:22.000Z</time>
        <extensions>
          <ns3:TrackPointExtension>
            <ns3:atemp>25.0</ns3:atemp>
            <ns3:hr>101</ns3:hr>
          </ns3:TrackPointExtension>
        </extensions>
      </trkpt>
      <trkpt lat="36.82253010571002960205078125" lon="-118.39247994124889373779296875">
        <ele>3837.60009765625</ele>
        <time>2021-06-27T16:13:23.000Z</time>
        <extensions>
          <ns3:TrackPointExtension>
            <ns3:atemp>25.0</ns3:atemp>
            <ns3:hr>101</ns3:hr>
          </ns3:TrackPointExtension>
        </extensions>
      </trkpt>
      <trkpt lat="36.8225356377661228179931640625" lon="-118.39247499592602252960205078125">
        <ele>3838.60009765625</ele>
        <time>2021-06-27T16:13:33.000Z</time>
        <extensions>
          <ns3:TrackPointExtension>
            <ns3:atemp>25.0</ns3:atemp>
            <ns3:hr>99</ns3:hr>
          </ns3:TrackPointExtension>
        </extensions>
      </trkpt>
      <trkpt lat="36.82253890670835971832275390625" lon="-118.3924720622599124908447265625">
        <ele>3839.800048828125</ele>
        <time>2021-06-27T16:13:39.000Z</time>
        <extensions>
          <ns3:TrackPointExtension>
            <ns3:atemp>25.0</ns3:atemp>
            <ns3:hr>99</ns3:hr>
          </ns3:TrackPointExtension>
        </extensions>
      </trkpt>
      <trkpt lat="36.8225440196692943572998046875" lon="-118.3924673683941364288330078125">
        <ele>3840.60009765625</ele>
        <time>2021-06-27T16:13:48.000Z</time>
        <extensions>
          <ns3:TrackPointExtension>
            <ns3:atemp>25.0</ns3:atemp>
            <ns3:hr>102</ns3:hr>
          </ns3:TrackPointExtension>
        </extensions>
      </trkpt>
      <trkpt lat="36.82254510931670665740966796875" lon="-118.39246627874672412872314453125">
        <ele>3841</ele>
        <time>2021-06-27T16:13:50.000Z</time>
        <extensions>
          <ns3:TrackPointExtension>
            <ns3:atemp>25.0</ns3:atemp>
            <ns3:hr>102</ns3:hr>
          </ns3:TrackPointExtension>
        </extensions>
      </trkpt>
      <trkpt lat="36.822549216449260711669921875" lon="-118.39246259070932865142822265625">
        <ele>3842</ele>
        <time>2021-06-27T16:13:57.000Z</time>
        <extensions>
          <ns3:TrackPointExtension>
            <ns3:atemp>25.0</ns3:atemp>
            <ns3:hr>104</ns3:hr>
          </ns3:TrackPointExtension>
        </extensions>
      </trkpt>
      <trkpt lat="36.82255097664892673492431640625" lon="-118.39246091432869434356689453125">
        <ele>3842.39990234375</ele>
        <time>2021-06-27T16:14:00.000Z</time>
        <extensions>
          <ns3:TrackPointExtension>
            <ns3:atemp>25.0</ns3:atemp>
            <ns3:hr>107</ns3:hr>
          </ns3:TrackPointExtension>
        </extensions>
      </trkpt>
      <trkpt lat="36.8225522339344024658203125" lon="-118.39245982468128204345703125">
        <ele>3843.199951171875</ele>
        <time>2021-06-27T16:14:02.000Z</time>
        <extensions>
          <ns3:TrackPointExtension>
            <ns3:atemp>25.0</ns3:atemp>
            <ns3:hr>106</ns3:hr>
          </ns3:TrackPointExtension>
        </extensions>
      </trkpt>
      <trkpt lat="36.8225575983524322509765625" lon="-118.39245504699647426605224609375">
        <ele>3844.199951171875</ele>
        <time>2021-06-27T16:14:11.000Z</time>
        <extensions>
          <ns3:TrackPointExtension>
            <ns3:atemp>25.0</ns3:atemp>
            <ns3:hr>105</ns3:hr>
          </ns3:TrackPointExtension>
        </extensions>
      </trkpt>
      <trkpt lat="36.82256069965660572052001953125" lon="-118.39245236478745937347412109375">
        <ele>3844.199951171875</ele>
        <time>2021-06-27T16:14:16.000Z</time>
        <extensions>
          <ns3:TrackPointExtension>
            <ns3:atemp>25.0</ns3:atemp>
            <ns3:hr>108</ns3:hr>
          </ns3:TrackPointExtension>
        </extensions>
      </trkpt>
      <trkpt lat="36.82256572879850864410400390625" lon="-118.39244800619781017303466796875">
        <ele>3845.39990234375</ele>
        <time>2021-06-27T16:14:24.000Z</time>
        <extensions>
          <ns3:TrackPointExtension>
            <ns3:atemp>25.0</ns3:atemp>
            <ns3:hr>107</ns3:hr>
          </ns3:TrackPointExtension>
        </extensions>
      </trkpt>
      <trkpt lat="36.82257075794041156768798828125" lon="-118.39244347997009754180908203125">
        <ele>3846.39990234375</ele>
        <time>2021-06-27T16:14:32.000Z</time>
        <extensions>
          <ns3:TrackPointExtension>
            <ns3:atemp>25.0</ns3:atemp>
            <ns3:hr>108</ns3:hr>
          </ns3:TrackPointExtension>
        </extensions>
      </trkpt>
      <trkpt lat="36.822572015225887298583984375" lon="-118.39244230650365352630615234375">
        <ele>3846.60009765625</ele>
        <time>2021-06-27T16:14:34.000Z</time>
        <extensions>
          <ns3:TrackPointExtension>
            <ns3:atemp>25.0</ns3:atemp>
            <ns3:hr>111</ns3:hr>
          </ns3:TrackPointExtension>
        </extensions>
      </trkpt>
      <trkpt lat="36.82257327251136302947998046875" lon="-118.3924412168562412261962890625">
        <ele>3846.60009765625</ele>
        <time>2021-06-27T16:14:36.000Z</time>
        <extensions>
          <ns3:TrackPointExtension>
            <ns3:atemp>25.0</ns3:atemp>
            <ns3:hr>108</ns3:hr>
          </ns3:TrackPointExtension>
        </extensions>
      </trkpt>
      <trkpt lat="36.82257704436779022216796875" lon="-118.39243761263787746429443359375">
        <ele>3846.39990234375</ele>
        <time>2021-06-27T16:14:42.000Z</time>
        <extensions>
          <ns3:TrackPointExtension>
            <ns3:atemp>25.0</ns3:atemp>
            <ns3:hr>111</ns3:hr>
          </ns3:TrackPointExtension>
        </extensions>
      </trkpt>
      <trkpt lat="36.82258450426161289215087890625" lon="-118.392429985105991363525390625">
        <ele>3846.199951171875</ele>
        <time>2021-06-27T16:14:54.000Z</time>
        <extensions>
          <ns3:TrackPointExtension>
            <ns3:atemp>25.0</ns3:atemp>
            <ns3:hr>114</ns3:hr>
          </ns3:TrackPointExtension>
        </extensions>
      </trkpt>
      <trkpt lat="36.822596825659275054931640625" lon="-118.3924162387847900390625">
        <ele>3846.60009765625</ele>
        <time>2021-06-27T16:15:15.000Z</time>
        <extensions>
          <ns3:TrackPointExtension>
            <ns3:atemp>25.0</ns3:atemp>
            <ns3:hr>117</ns3:hr>
          </ns3:TrackPointExtension>
        </extensions>
      </trkpt>
      <trkpt lat="36.8226057104766368865966796875" lon="-118.3924060128629207611083984375">
        <ele>3846.199951171875</ele>
        <time>2021-06-27T16:15:30.000Z</time>
        <extensions>
          <ns3:TrackPointExtension>
            <ns3:atemp>26.0</ns3:atemp>
            <ns3:hr>113</ns3:hr>
          </ns3:TrackPointExtension>
        </extensions>
      </trkpt>
      <trkpt lat="36.82260948233306407928466796875" lon="-118.392401821911334991455078125">
        <ele>3845.800048828125</ele>
        <time>2021-06-27T16:15:36.000Z</time>
        <extensions>
          <ns3:TrackPointExtension>
            <ns3:atemp>26.0</ns3:atemp>
            <ns3:hr>108</ns3:hr>
          </ns3:TrackPointExtension>
        </extensions>
      </trkpt>
      <trkpt lat="36.8226114101707935333251953125" lon="-118.39239972643554210662841796875">
        <ele>3845.60009765625</ele>
        <time>2021-06-27T16:15:39.000Z</time>
        <extensions>
          <ns3:TrackPointExtension>
            <ns3:atemp>26.0</ns3:atemp>
            <ns3:hr>105</ns3:hr>
          </ns3:TrackPointExtension>
        </extensions>
      </trkpt>
      <trkpt lat="36.82261518202722072601318359375" lon="-118.39239553548395633697509765625">
        <ele>3845.60009765625</ele>
        <time>2021-06-27T16:15:45.000Z</time>
        <extensions>
          <ns3:TrackPointExtension>
            <ns3:atemp>26.0</ns3:atemp>
            <ns3:hr>102</ns3:hr>
          </ns3:TrackPointExtension>
        </extensions>
      </trkpt>
      <trkpt lat="36.822625659406185150146484375" lon="-118.3923838846385478973388671875">
        <ele>3847.800048828125</ele>
        <time>2021-06-27T16:16:02.000Z</time>
        <extensions>
          <ns3:TrackPointExtension>
            <ns3:atemp>26.0</ns3:atemp>
            <ns3:hr>100</ns3:hr>
          </ns3:TrackPointExtension>
        </extensions>
      </trkpt>
      <trkpt lat="36.82262809015810489654541015625" lon="-118.39238128624856472015380859375">
        <ele>3848</ele>
        <time>2021-06-27T16:16:06.000Z</time>
        <extensions>
          <ns3:TrackPointExtension>
            <ns3:atemp>25.0</ns3:atemp>
            <ns3:hr>97</ns3:hr>
          </ns3:TrackPointExtension>
        </extensions>
      </trkpt>
      <trkpt lat="36.822631023824214935302734375" lon="-118.39237810112535953521728515625">
        <ele>3848.800048828125</ele>
        <time>2021-06-27T16:16:11.000Z</time>
        <extensions>
          <ns3:TrackPointExtension>
            <ns3:atemp>25.0</ns3:atemp>
            <ns3:hr>97</ns3:hr>
          </ns3:TrackPointExtension>
        </extensions>
      </trkpt>
      <trkpt lat="36.82263328693807125091552734375" lon="-118.3923755027353763580322265625">
        <ele>3849.800048828125</ele>
        <time>2021-06-27T16:16:15.000Z</time>
        <extensions>
          <ns3:TrackPointExtension>
            <ns3:atemp>25.0</ns3:atemp>
            <ns3:hr>101</ns3:hr>
          </ns3:TrackPointExtension>
        </extensions>
      </trkpt>
      <trkpt lat="36.8226338736712932586669921875" lon="-118.3923748321831226348876953125">
        <ele>3849.800048828125</ele>
        <time>2021-06-27T16:16:16.000Z</time>
        <extensions>
          <ns3:TrackPointExtension>
            <ns3:atemp>25.0</ns3:atemp>
            <ns3:hr>104</ns3:hr>
          </ns3:TrackPointExtension>
        </extensions>
      </trkpt>
      <trkpt lat="36.82263446040451526641845703125" lon="-118.39237424544990062713623046875">
        <ele>3850.199951171875</ele>
        <time>2021-06-27T16:16:17.000Z</time>
        <extensions>
          <ns3:TrackPointExtension>
            <ns3:atemp>25.0</ns3:atemp>
            <ns3:hr>107</ns3:hr>
          </ns3:TrackPointExtension>
        </extensions>
      </trkpt>
      <trkpt lat="36.82263496331870555877685546875" lon="-118.39237357489764690399169921875">
        <ele>3850.199951171875</ele>
        <time>2021-06-27T16:16:18.000Z</time>
        <extensions>
          <ns3:TrackPointExtension>
            <ns3:atemp>25.0</ns3:atemp>
            <ns3:hr>110</ns3:hr>
          </ns3:TrackPointExtension>
        </extensions>
      </trkpt>
      <trkpt lat="36.82263605296611785888671875" lon="-118.392372317612171173095703125">
        <ele>3850.800048828125</ele>
        <time>2021-06-27T16:16:20.000Z</time>
        <extensions>
          <ns3:TrackPointExtension>
            <ns3:atemp>25.0</ns3:atemp>
            <ns3:hr>113</ns3:hr>
          </ns3:TrackPointExtension>
        </extensions>
      </trkpt>
      <trkpt lat="36.8226372264325618743896484375" lon="-118.39237106032669544219970703125">
        <ele>3851.199951171875</ele>
        <time>2021-06-27T16:16:22.000Z</time>
        <extensions>
          <ns3:TrackPointExtension>
            <ns3:atemp>25.0</ns3:atemp>
            <ns3:hr>115</ns3:hr>
          </ns3:TrackPointExtension>
        </extensions>
      </trkpt>
      <trkpt lat="36.822640411555767059326171875" lon="-118.3923671208322048187255859375">
        <ele>3852.60009765625</ele>
        <time>2021-06-27T16:16:28.000Z</time>
        <extensions>
          <ns3:TrackPointExtension>
            <ns3:atemp>25.0</ns3:atemp>
            <ns3:hr>113</ns3:hr>
          </ns3:TrackPointExtension>
        </extensions>
      </trkpt>
      <trkpt lat="36.82264418341219425201416015625" lon="-118.39236251078546047210693359375">
        <ele>3853.39990234375</ele>
        <time>2021-06-27T16:16:35.000Z</time>
        <extensions>
          <ns3:TrackPointExtension>
            <ns3:atemp>25.0</ns3:atemp>
            <ns3:hr>110</ns3:hr>
          </ns3:TrackPointExtension>
        </extensions>
      </trkpt>
      <trkpt lat="36.82264686562120914459228515625" lon="-118.39235924184322357177734375">
        <ele>3853.60009765625</ele>
        <time>2021-06-27T16:16:40.000Z</time>
        <extensions>
          <ns3:TrackPointExtension>
            <ns3:atemp>25.0</ns3:atemp>
            <ns3:hr>110</ns3:hr>
          </ns3:TrackPointExtension>
        </extensions>
      </trkpt>
      <trkpt lat="36.8226496316492557525634765625" lon="-118.39235597290098667144775390625">
        <ele>3854.800048828125</ele>
        <time>2021-06-27T16:16:45.000Z</time>
        <extensions>
          <ns3:TrackPointExtension>
            <ns3:atemp>25.0</ns3:atemp>
            <ns3:hr>109</ns3:hr>
          </ns3:TrackPointExtension>
        </extensions>
      </trkpt>
      <trkpt lat="36.82265348732471466064453125" lon="-118.3923513628542423248291015625">
        <ele>3854.800048828125</ele>
        <time>2021-06-27T16:16:52.000Z</time>
        <extensions>
          <ns3:TrackPointExtension>
            <ns3:atemp>25.0</ns3:atemp>
            <ns3:hr>106</ns3:hr>
          </ns3:TrackPointExtension>
        </extensions>
      </trkpt>
      <trkpt lat="36.82265843264758586883544921875" lon="-118.3923453278839588165283203125">
        <ele>3855.800048828125</ele>
        <time>2021-06-27T16:17:01.000Z</time>
        <extensions>
          <ns3:TrackPointExtension>
            <ns3:atemp>26.0</ns3:atemp>
            <ns3:hr>106</ns3:hr>
          </ns3:TrackPointExtension>
        </extensions>
      </trkpt>
      <trkpt lat="36.82266429997980594635009765625" lon="-118.39233778417110443115234375">
        <ele>3856.39990234375</ele>
        <time>2021-06-27T16:17:12.000Z</time>
        <extensions>
          <ns3:TrackPointExtension>
            <ns3:atemp>26.0</ns3:atemp>
            <ns3:hr>110</ns3:hr>
          </ns3:TrackPointExtension>
        </extensions>
      </trkpt>
      <trkpt lat="36.8226653896272182464599609375" lon="-118.39233644306659698486328125">
        <ele>3856.39990234375</ele>
        <time>2021-06-27T16:17:14.000Z</time>
        <extensions>
          <ns3:TrackPointExtension>
            <ns3:atemp>26.0</ns3:atemp>
            <ns3:hr>113</ns3:hr>
          </ns3:TrackPointExtension>
        </extensions>
      </trkpt>
      <trkpt lat="36.822669245302677154541015625" lon="-118.3923315815627574920654296875">
        <ele>3857</ele>
        <time>2021-06-27T16:17:21.000Z</time>
        <extensions>
          <ns3:TrackPointExtension>
            <ns3:atemp>26.0</ns3:atemp>
            <ns3:hr>111</ns3:hr>
          </ns3:TrackPointExtension>
        </extensions>
      </trkpt>
      <trkpt lat="36.82267301715910434722900390625" lon="-118.392326720058917999267578125">
        <ele>3857.60009765625</ele>
        <time>2021-06-27T16:17:28.000Z</time>
        <extensions>
          <ns3:TrackPointExtension>
            <ns3:atemp>25.0</ns3:atemp>
            <ns3:hr>108</ns3:hr>
          </ns3:TrackPointExtension>
        </extensions>
      </trkpt>
      <trkpt lat="36.82267452590167522430419921875" lon="-118.392324708402156829833984375">
        <ele>3858</ele>
        <time>2021-06-27T16:17:31.000Z</time>
        <extensions>
          <ns3:TrackPointExtension>
            <ns3:atemp>25.0</ns3:atemp>
            <ns3:hr>111</ns3:hr>
          </ns3:TrackPointExtension>
        </extensions>
      </trkpt>
      <trkpt lat="36.82267569936811923980712890625" lon="-118.392323367297649383544921875">
        <ele>3858.39990234375</ele>
        <time>2021-06-27T16:17:33.000Z</time>
        <extensions>
          <ns3:TrackPointExtension>
            <ns3:atemp>25.0</ns3:atemp>
            <ns3:hr>107</ns3:hr>
          </ns3:TrackPointExtension>
        </extensions>
      </trkpt>
      <trkpt lat="36.82267938740551471710205078125" lon="-118.39231842197477817535400390625">
        <ele>3858.60009765625</ele>
        <time>2021-06-27T16:17:40.000Z</time>
        <extensions>
          <ns3:TrackPointExtension>
            <ns3:atemp>25.0</ns3:atemp>
            <ns3:hr>110</ns3:hr>
          </ns3:TrackPointExtension>
        </extensions>
      </trkpt>
      <trkpt lat="36.8226814828813076019287109375" lon="-118.39231557212769985198974609375">
        <ele>3859.199951171875</ele>
        <time>2021-06-27T16:17:44.000Z</time>
        <extensions>
          <ns3:TrackPointExtension>
            <ns3:atemp>25.0</ns3:atemp>
            <ns3:hr>114</ns3:hr>
          </ns3:TrackPointExtension>
        </extensions>
      </trkpt>
      <trkpt lat="36.82268357835710048675537109375" lon="-118.39231272228062152862548828125">
        <ele>3859.60009765625</ele>
        <time>2021-06-27T16:17:48.000Z</time>
        <extensions>
          <ns3:TrackPointExtension>
            <ns3:atemp>25.0</ns3:atemp>
            <ns3:hr>117</ns3:hr>
          </ns3:TrackPointExtension>
        </extensions>
      </trkpt>
      <trkpt lat="36.8226932175457477569580078125" lon="-118.39229947887361049652099609375">
        <ele>3859.39990234375</ele>
        <time>2021-06-27T16:18:06.000Z</time>
        <extensions>
          <ns3:TrackPointExtension>
            <ns3:atemp>26.0</ns3:atemp>
            <ns3:hr>120</ns3:hr>
          </ns3:TrackPointExtension>
        </extensions>
      </trkpt>
      <trkpt lat="36.8226948939263820648193359375" lon="-118.392297215759754180908203125">
        <ele>3859.39990234375</ele>
        <time>2021-06-27T16:18:09.000Z</time>
        <extensions>
          <ns3:TrackPointExtension>
            <ns3:atemp>26.0</ns3:atemp>
            <ns3:hr>123</ns3:hr>
          </ns3:TrackPointExtension>
        </extensions>
      </trkpt>
      <trkpt lat="36.82269883342087268829345703125" lon="-118.39229193516075611114501953125">
        <ele>3859.199951171875</ele>
        <time>2021-06-27T16:18:16.000Z</time>
        <extensions>
          <ns3:TrackPointExtension>
            <ns3:atemp>26.0</ns3:atemp>
            <ns3:hr>122</ns3:hr>
          </ns3:TrackPointExtension>
        </extensions>
      </trkpt>
      <trkpt lat="36.82270042598247528076171875" lon="-118.39228958822786808013916015625">
        <ele>3859</ele>
        <time>2021-06-27T16:18:19.000Z</time>
        <extensions>
          <ns3:TrackPointExtension>
            <ns3:atemp>26.0</ns3:atemp>
            <ns3:hr>118</ns3:hr>
          </ns3:TrackPointExtension>
        </extensions>
      </trkpt>
      <trkpt lat="36.82270151562988758087158203125" lon="-118.39228807948529720306396484375">
        <ele>3859</ele>
        <time>2021-06-27T16:18:21.000Z</time>
        <extensions>
          <ns3:TrackPointExtension>
            <ns3:atemp>26.0</ns3:atemp>
            <ns3:hr>114</ns3:hr>
          </ns3:TrackPointExtension>
        </extensions>
      </trkpt>
      <trkpt lat="36.82270268909633159637451171875" lon="-118.39228657074272632598876953125">
        <ele>3858.60009765625</ele>
        <time>2021-06-27T16:18:23.000Z</time>
        <extensions>
          <ns3:TrackPointExtension>
            <ns3:atemp>26.0</ns3:atemp>
            <ns3:hr>111</ns3:hr>
          </ns3:TrackPointExtension>
        </extensions>
      </trkpt>
      <trkpt lat="36.82270922698080539703369140625" lon="-118.39227735064923763275146484375">
        <ele>3859.800048828125</ele>
        <time>2021-06-27T16:18:35.000Z</time>
        <extensions>
          <ns3:TrackPointExtension>
            <ns3:atemp>26.0</ns3:atemp>
            <ns3:hr>107</ns3:hr>
          </ns3:TrackPointExtension>
        </extensions>
      </trkpt>
      <trkpt lat="36.822710819542407989501953125" lon="-118.39227500371634960174560546875">
        <ele>3860</ele>
        <time>2021-06-27T16:18:38.000Z</time>
        <extensions>
          <ns3:TrackPointExtension>
            <ns3:atemp>26.0</ns3:atemp>
            <ns3:hr>110</ns3:hr>
          </ns3:TrackPointExtension>
        </extensions>
      </trkpt>
      <trkpt lat="36.82271140627562999725341796875" lon="-118.39227433316409587860107421875">
        <ele>3860.199951171875</ele>
        <time>2021-06-27T16:18:39.000Z</time>
        <extensions>
          <ns3:TrackPointExtension>
            <ns3:atemp>26.0</ns3:atemp>
            <ns3:hr>109</ns3:hr>
          </ns3:TrackPointExtension>
        </extensions>
      </trkpt>
      <trkpt lat="36.82271459139883518218994140625" lon="-118.392269723117351531982421875">
        <ele>3861.39990234375</ele>
        <time>2021-06-27T16:18:45.000Z</time>
        <extensions>
          <ns3:TrackPointExtension>
            <ns3:atemp>26.0</ns3:atemp>
            <ns3:hr>109</ns3:hr>
          </ns3:TrackPointExtension>
        </extensions>
      </trkpt>
      <trkpt lat="36.82271777652204036712646484375" lon="-118.3922651968896389007568359375">
        <ele>3862.39990234375</ele>
        <time>2021-06-27T16:18:51.000Z</time>
        <extensions>
          <ns3:TrackPointExtension>
            <ns3:atemp>26.0</ns3:atemp>
            <ns3:hr>107</ns3:hr>
          </ns3:TrackPointExtension>
        </extensions>
      </trkpt>
      <trkpt lat="36.82272255420684814453125" lon="-118.39225823991000652313232421875">
        <ele>3862.39990234375</ele>
        <time>2021-06-27T16:19:00.000Z</time>
        <extensions>
          <ns3:TrackPointExtension>
            <ns3:atemp>26.0</ns3:atemp>
            <ns3:hr>110</ns3:hr>
          </ns3:TrackPointExtension>
        </extensions>
      </trkpt>
      <trkpt lat="36.8227257393300533294677734375" lon="-118.392253629863262176513671875">
        <ele>3863.39990234375</ele>
        <time>2021-06-27T16:19:06.000Z</time>
        <extensions>
          <ns3:TrackPointExtension>
            <ns3:atemp>26.0</ns3:atemp>
            <ns3:hr>113</ns3:hr>
          </ns3:TrackPointExtension>
        </extensions>
      </trkpt>
      <trkpt lat="36.82272783480584621429443359375" lon="-118.39225052855908870697021484375">
        <ele>3864.39990234375</ele>
        <time>2021-06-27T16:19:10.000Z</time>
        <extensions>
          <ns3:TrackPointExtension>
            <ns3:atemp>26.0</ns3:atemp>
            <ns3:hr>115</ns3:hr>
          </ns3:TrackPointExtension>
        </extensions>
      </trkpt>
      <trkpt lat="36.822730936110019683837890625" lon="-118.39224600233137607574462890625">
        <ele>3865.199951171875</ele>
        <time>2021-06-27T16:19:16.000Z</time>
        <extensions>
          <ns3:TrackPointExtension>
            <ns3:atemp>26.0</ns3:atemp>
            <ns3:hr>119</ns3:hr>
          </ns3:TrackPointExtension>
        </extensions>
      </trkpt>
      <trkpt lat="36.82273202575743198394775390625" lon="-118.39224449358880519866943359375">
        <ele>3865.199951171875</ele>
        <time>2021-06-27T16:19:18.000Z</time>
        <extensions>
          <ns3:TrackPointExtension>
            <ns3:atemp>26.0</ns3:atemp>
            <ns3:hr>116</ns3:hr>
          </ns3:TrackPointExtension>
        </extensions>
      </trkpt>
      <trkpt lat="36.822733618319034576416015625" lon="-118.392242230474948883056640625">
        <ele>3865.199951171875</ele>
        <time>2021-06-27T16:19:21.000Z</time>
        <extensions>
          <ns3:TrackPointExtension>
            <ns3:atemp>26.0</ns3:atemp>
            <ns3:hr>122</ns3:hr>
          </ns3:TrackPointExtension>
        </extensions>
      </trkpt>
      <trkpt lat="36.8227341212332248687744140625" lon="-118.39224147610366344451904296875">
        <ele>3865</ele>
        <time>2021-06-27T16:19:22.000Z</time>
        <extensions>
          <ns3:TrackPointExtension>
            <ns3:atemp>26.0</ns3:atemp>
            <ns3:hr>119</ns3:hr>
          </ns3:TrackPointExtension>
        </extensions>
      </trkpt>
      <trkpt lat="36.82273470796644687652587890625" lon="-118.3922407217323780059814453125">
        <ele>3865</ele>
        <time>2021-06-27T16:19:23.000Z</time>
        <extensions>
          <ns3:TrackPointExtension>
            <ns3:atemp>26.0</ns3:atemp>
            <ns3:hr>123</ns3:hr>
          </ns3:TrackPointExtension>
        </extensions>
      </trkpt>
      <trkpt lat="36.82273789308965206146240234375" lon="-118.39223611168563365936279296875">
        <ele>3865.39990234375</ele>
        <time>2021-06-27T16:19:29.000Z</time>
        <extensions>
          <ns3:TrackPointExtension>
            <ns3:atemp>26.0</ns3:atemp>
            <ns3:hr>119</ns3:hr>
          </ns3:TrackPointExtension>
        </extensions>
      </trkpt>
      <trkpt lat="36.82273889891803264617919921875" lon="-118.39223451912403106689453125">
        <ele>3865.60009765625</ele>
        <time>2021-06-27T16:19:31.000Z</time>
        <extensions>
          <ns3:TrackPointExtension>
            <ns3:atemp>26.0</ns3:atemp>
            <ns3:hr>118</ns3:hr>
          </ns3:TrackPointExtension>
        </extensions>
      </trkpt>
      <trkpt lat="36.8227404914796352386474609375" lon="-118.392232172191143035888671875">
        <ele>3865.800048828125</ele>
        <time>2021-06-27T16:19:34.000Z</time>
        <extensions>
          <ns3:TrackPointExtension>
            <ns3:atemp>26.0</ns3:atemp>
            <ns3:hr>115</ns3:hr>
          </ns3:TrackPointExtension>
        </extensions>
      </trkpt>
      <trkpt lat="36.82274208404123783111572265625" lon="-118.3922298252582550048828125">
        <ele>3866.60009765625</ele>
        <time>2021-06-27T16:19:37.000Z</time>
        <extensions>
          <ns3:TrackPointExtension>
            <ns3:atemp>26.0</ns3:atemp>
            <ns3:hr>113</ns3:hr>
          </ns3:TrackPointExtension>
        </extensions>
      </trkpt>
      <trkpt lat="36.822745688259601593017578125" lon="-118.39222437702119350433349609375">
        <ele>3867.60009765625</ele>
        <time>2021-06-27T16:19:44.000Z</time>
        <extensions>
          <ns3:TrackPointExtension>
            <ns3:atemp>26.0</ns3:atemp>
            <ns3:hr>112</ns3:hr>
          </ns3:TrackPointExtension>
        </extensions>
      </trkpt>
      <trkpt lat="36.82274878956377506256103515625" lon="-118.39221968315541744232177734375">
        <ele>3869</ele>
        <time>2021-06-27T16:19:50.000Z</time>
        <extensions>
          <ns3:TrackPointExtension>
            <ns3:atemp>26.0</ns3:atemp>
            <ns3:hr>112</ns3:hr>
          </ns3:TrackPointExtension>
        </extensions>
      </trkpt>
      <trkpt lat="36.8227528966963291168212890625" lon="-118.39221314527094364166259765625">
        <ele>3869.39990234375</ele>
        <time>2021-06-27T16:19:58.000Z</time>
        <extensions>
          <ns3:TrackPointExtension>
            <ns3:atemp>26.0</ns3:atemp>
            <ns3:hr>115</ns3:hr>
          </ns3:TrackPointExtension>
        </extensions>
      </trkpt>
      <trkpt lat="36.822754405438899993896484375" lon="-118.392210714519023895263671875">
        <ele>3869.60009765625</ele>
        <time>2021-06-27T16:20:01.000Z</time>
        <extensions>
          <ns3:TrackPointExtension>
            <ns3:atemp>26.0</ns3:atemp>
            <ns3:hr>118</ns3:hr>
          </ns3:TrackPointExtension>
        </extensions>
      </trkpt>
      <trkpt lat="36.822756417095661163330078125" lon="-118.392207361757755279541015625">
        <ele>3870</ele>
        <time>2021-06-27T16:20:05.000Z</time>
        <extensions>
          <ns3:TrackPointExtension>
            <ns3:atemp>26.0</ns3:atemp>
            <ns3:hr>121</ns3:hr>
          </ns3:TrackPointExtension>
        </extensions>
      </trkpt>
      <trkpt lat="36.8227569200098514556884765625" lon="-118.3922065235674381256103515625">
        <ele>3870</ele>
        <time>2021-06-27T16:20:06.000Z</time>
        <extensions>
          <ns3:TrackPointExtension>
            <ns3:atemp>26.0</ns3:atemp>
            <ns3:hr>121</ns3:hr>
          </ns3:TrackPointExtension>
        </extensions>
      </trkpt>
      <trkpt lat="36.82275951839983463287353515625" lon="-118.39220224879682064056396484375">
        <ele>3871.199951171875</ele>
        <time>2021-06-27T16:20:11.000Z</time>
        <extensions>
          <ns3:TrackPointExtension>
            <ns3:atemp>26.0</ns3:atemp>
            <ns3:hr>122</ns3:hr>
          </ns3:TrackPointExtension>
        </extensions>
      </trkpt>
      <trkpt lat="36.82276320643723011016845703125" lon="-118.39219638146460056304931640625">
        <ele>3871.800048828125</ele>
        <time>2021-06-27T16:20:18.000Z</time>
        <extensions>
          <ns3:TrackPointExtension>
            <ns3:atemp>25.0</ns3:atemp>
            <ns3:hr>119</ns3:hr>
          </ns3:TrackPointExtension>
        </extensions>
      </trkpt>
      <trkpt lat="36.8227716721594333648681640625" lon="-118.3921823836863040924072265625">
        <ele>3871.60009765625</ele>
        <time>2021-06-27T16:20:34.000Z</time>
        <extensions>
          <ns3:TrackPointExtension>
            <ns3:atemp>25.0</ns3:atemp>
            <ns3:hr>119</ns3:hr>
          </ns3:TrackPointExtension>
        </extensions>
      </trkpt>
      <trkpt lat="36.8227753601968288421630859375" lon="-118.3921763487160205841064453125">
        <ele>3871.60009765625</ele>
        <time>2021-06-27T16:20:41.000Z</time>
        <extensions>
          <ns3:TrackPointExtension>
            <ns3:atemp>25.0</ns3:atemp>
            <ns3:hr>116</ns3:hr>
          </ns3:TrackPointExtension>
        </extensions>
      </trkpt>
      <trkpt lat="36.82277955114841461181640625" lon="-118.392169475555419921875">
        <ele>3871.800048828125</ele>
        <time>2021-06-27T16:20:49.000Z</time>
        <extensions>
          <ns3:TrackPointExtension>
            <ns3:atemp>25.0</ns3:atemp>
            <ns3:hr>119</ns3:hr>
          </ns3:TrackPointExtension>
        </extensions>
      </trkpt>
      <trkpt lat="36.82278265245258808135986328125" lon="-118.39216453023254871368408203125">
        <ele>3871.800048828125</ele>
        <time>2021-06-27T16:20:55.000Z</time>
        <extensions>
          <ns3:TrackPointExtension>
            <ns3:atemp>25.0</ns3:atemp>
            <ns3:hr>116</ns3:hr>
          </ns3:TrackPointExtension>
        </extensions>
      </trkpt>
      <trkpt lat="36.82278566993772983551025390625" lon="-118.3921595849096775054931640625">
        <ele>3871.800048828125</ele>
        <time>2021-06-27T16:21:01.000Z</time>
        <extensions>
          <ns3:TrackPointExtension>
            <ns3:atemp>25.0</ns3:atemp>
            <ns3:hr>113</ns3:hr>
          </ns3:TrackPointExtension>
        </extensions>
      </trkpt>
      <trkpt lat="36.822795309126377105712890625" lon="-118.3921438269317150115966796875">
        <ele>3871.199951171875</ele>
        <time>2021-06-27T16:21:21.000Z</time>
        <extensions>
          <ns3:TrackPointExtension>
            <ns3:atemp>25.0</ns3:atemp>
            <ns3:hr>110</ns3:hr>
          </ns3:TrackPointExtension>
        </extensions>
      </trkpt>
      <trkpt lat="36.822801344096660614013671875" lon="-118.3921337686479091644287109375">
        <ele>3871.199951171875</ele>
        <time>2021-06-27T16:21:34.000Z</time>
        <extensions>
          <ns3:TrackPointExtension>
            <ns3:atemp>25.0</ns3:atemp>
            <ns3:hr>107</ns3:hr>
          </ns3:TrackPointExtension>
        </extensions>
      </trkpt>
      <trkpt lat="36.822802685201168060302734375" lon="-118.39213150553405284881591796875">
        <ele>3871.199951171875</ele>
        <time>2021-06-27T16:21:37.000Z</time>
        <extensions>
          <ns3:TrackPointExtension>
            <ns3:atemp>25.0</ns3:atemp>
            <ns3:hr>110</ns3:hr>
          </ns3:TrackPointExtension>
        </extensions>
      </trkpt>
      <trkpt lat="36.82280360721051692962646484375" lon="-118.39212999679148197174072265625">
        <ele>3871.199951171875</ele>
        <time>2021-06-27T16:21:39.000Z</time>
        <extensions>
          <ns3:TrackPointExtension>
            <ns3:atemp>25.0</ns3:atemp>
            <ns3:hr>114</ns3:hr>
          </ns3:TrackPointExtension>
        </extensions>
      </trkpt>
      <trkpt lat="36.8228045292198657989501953125" lon="-118.39212848804891109466552734375">
        <ele>3871.199951171875</ele>
        <time>2021-06-27T16:21:41.000Z</time>
        <extensions>
          <ns3:TrackPointExtension>
            <ns3:atemp>25.0</ns3:atemp>
            <ns3:hr>117</ns3:hr>
          </ns3:TrackPointExtension>
        </extensions>
      </trkpt>
      <trkpt lat="36.8228165991604328155517578125" lon="-118.392110131680965423583984375">
        <ele>3871.199951171875</ele>
        <time>2021-06-27T16:22:05.000Z</time>
        <extensions>
          <ns3:TrackPointExtension>
            <ns3:atemp>25.0</ns3:atemp>
            <ns3:hr>114</ns3:hr>
          </ns3:TrackPointExtension>
        </extensions>
      </trkpt>
      <trkpt lat="36.82281869463622570037841796875" lon="-118.39210703037679195404052734375">
        <ele>3878.60009765625</ele>
        <time>2021-06-27T16:22:09.000Z</time>
        <extensions>
          <ns3:TrackPointExtension>
            <ns3:atemp>25.0</ns3:atemp>
            <ns3:hr>117</ns3:hr>
          </ns3:TrackPointExtension>
        </extensions>
      </trkpt>
      <trkpt lat="36.82282573543488979339599609375" lon="-118.39209697209298610687255859375">
        <ele>3879.800048828125</ele>
        <time>2021-06-27T16:22:22.000Z</time>
        <extensions>
          <ns3:TrackPointExtension>
            <ns3:atemp>25.0</ns3:atemp>
            <ns3:hr>118</ns3:hr>
          </ns3:TrackPointExtension>
        </extensions>
      </trkpt>
      <trkpt lat="36.8228306807577610015869140625" lon="-118.392090015113353729248046875">
        <ele>3880.60009765625</ele>
        <time>2021-06-27T16:22:31.000Z</time>
        <extensions>
          <ns3:TrackPointExtension>
            <ns3:atemp>25.0</ns3:atemp>
            <ns3:hr>115</ns3:hr>
          </ns3:TrackPointExtension>
        </extensions>
      </trkpt>
      <trkpt lat="36.82283126749098300933837890625" lon="-118.39208926074206829071044921875">
        <ele>3880.800048828125</ele>
        <time>2021-06-27T16:22:32.000Z</time>
        <extensions>
          <ns3:TrackPointExtension>
            <ns3:atemp>25.0</ns3:atemp>
            <ns3:hr>117</ns3:hr>
          </ns3:TrackPointExtension>
        </extensions>
      </trkpt>
      <trkpt lat="36.82283462025225162506103515625" lon="-118.392084650695323944091796875">
        <ele>3881.60009765625</ele>
        <time>2021-06-27T16:22:38.000Z</time>
        <extensions>
          <ns3:TrackPointExtension>
            <ns3:atemp>25.0</ns3:atemp>
            <ns3:hr>120</ns3:hr>
          </ns3:TrackPointExtension>
        </extensions>
      </trkpt>
      <trkpt lat="36.82283579371869564056396484375" lon="-118.3920831419527530670166015625">
        <ele>3881.800048828125</ele>
        <time>2021-06-27T16:22:40.000Z</time>
        <extensions>
          <ns3:TrackPointExtension>
            <ns3:atemp>25.0</ns3:atemp>
            <ns3:hr>118</ns3:hr>
          </ns3:TrackPointExtension>
        </extensions>
      </trkpt>
      <trkpt lat="36.82283814065158367156982421875" lon="-118.39208004064857959747314453125">
        <ele>3882.39990234375</ele>
        <time>2021-06-27T16:22:44.000Z</time>
        <extensions>
          <ns3:TrackPointExtension>
            <ns3:atemp>25.0</ns3:atemp>
            <ns3:hr>121</ns3:hr>
          </ns3:TrackPointExtension>
        </extensions>
      </trkpt>
      <trkpt lat="36.8228417448699474334716796875" lon="-118.3920754306018352508544921875">
        <ele>3882.800048828125</ele>
        <time>2021-06-27T16:22:50.000Z</time>
        <extensions>
          <ns3:TrackPointExtension>
            <ns3:atemp>25.0</ns3:atemp>
            <ns3:hr>121</ns3:hr>
          </ns3:TrackPointExtension>
        </extensions>
      </trkpt>
      <trkpt lat="36.822845935821533203125" lon="-118.392069898545742034912109375">
        <ele>3883.800048828125</ele>
        <time>2021-06-27T16:22:57.000Z</time>
        <extensions>
          <ns3:TrackPointExtension>
            <ns3:atemp>25.0</ns3:atemp>
            <ns3:hr>124</ns3:hr>
          </ns3:TrackPointExtension>
        </extensions>
      </trkpt>
      <trkpt lat="36.82284652255475521087646484375" lon="-118.3920690603554248809814453125">
        <ele>3883.800048828125</ele>
        <time>2021-06-27T16:22:58.000Z</time>
        <extensions>
          <ns3:TrackPointExtension>
            <ns3:atemp>25.0</ns3:atemp>
            <ns3:hr>122</ns3:hr>
          </ns3:TrackPointExtension>
        </extensions>
      </trkpt>
      <trkpt lat="36.82285423390567302703857421875" lon="-118.3920583315193653106689453125">
        <ele>3884.800048828125</ele>
        <time>2021-06-27T16:23:11.000Z</time>
        <extensions>
          <ns3:TrackPointExtension>
            <ns3:atemp>25.0</ns3:atemp>
            <ns3:hr>120</ns3:hr>
          </ns3:TrackPointExtension>
        </extensions>
      </trkpt>
      <trkpt lat="36.8228595145046710968017578125" lon="-118.39205070398747920989990234375">
        <ele>3885.60009765625</ele>
        <time>2021-06-27T16:23:20.000Z</time>
        <extensions>
          <ns3:TrackPointExtension>
            <ns3:atemp>25.0</ns3:atemp>
            <ns3:hr>123</ns3:hr>
          </ns3:TrackPointExtension>
        </extensions>
      </trkpt>
      <trkpt lat="36.82286010123789310455322265625" lon="-118.39204986579716205596923828125">
        <ele>3885.39990234375</ele>
        <time>2021-06-27T16:23:21.000Z</time>
        <extensions>
          <ns3:TrackPointExtension>
            <ns3:atemp>25.0</ns3:atemp>
            <ns3:hr>119</ns3:hr>
          </ns3:TrackPointExtension>
        </extensions>
      </trkpt>
      <trkpt lat="36.82286596857011318206787109375" lon="-118.3920415677130222320556640625">
        <ele>3886</ele>
        <time>2021-06-27T16:23:31.000Z</time>
        <extensions>
          <ns3:TrackPointExtension>
            <ns3:atemp>25.0</ns3:atemp>
            <ns3:hr>118</ns3:hr>
          </ns3:TrackPointExtension>
        </extensions>
      </trkpt>
      <trkpt lat="36.822870075702667236328125" lon="-118.39203595183789730072021484375">
        <ele>3886.60009765625</ele>
        <time>2021-06-27T16:23:38.000Z</time>
        <extensions>
          <ns3:TrackPointExtension>
            <ns3:atemp>25.0</ns3:atemp>
            <ns3:hr>121</ns3:hr>
          </ns3:TrackPointExtension>
        </extensions>
      </trkpt>
      <trkpt lat="36.82287250645458698272705078125" lon="-118.3920328505337238311767578125">
        <ele>3887</ele>
        <time>2021-06-27T16:23:42.000Z</time>
        <extensions>
          <ns3:TrackPointExtension>
            <ns3:atemp>25.0</ns3:atemp>
            <ns3:hr>123</ns3:hr>
          </ns3:TrackPointExtension>
        </extensions>
      </trkpt>
      <trkpt lat="36.82287502102553844451904296875" lon="-118.39202974922955036163330078125">
        <ele>3887.60009765625</ele>
        <time>2021-06-27T16:23:46.000Z</time>
        <extensions>
          <ns3:TrackPointExtension>
            <ns3:atemp>25.0</ns3:atemp>
            <ns3:hr>126</ns3:hr>
          </ns3:TrackPointExtension>
        </extensions>
      </trkpt>
      <trkpt lat="36.82287954725325107574462890625" lon="-118.39202438481152057647705078125">
        <ele>3888.199951171875</ele>
        <time>2021-06-27T16:23:53.000Z</time>
        <extensions>
          <ns3:TrackPointExtension>
            <ns3:atemp>25.0</ns3:atemp>
            <ns3:hr>127</ns3:hr>
          </ns3:TrackPointExtension>
        </extensions>
      </trkpt>
      <trkpt lat="36.8228833191096782684326171875" lon="-118.3920197747647762298583984375">
        <ele>3888.60009765625</ele>
        <time>2021-06-27T16:23:59.000Z</time>
        <extensions>
          <ns3:TrackPointExtension>
            <ns3:atemp>25.0</ns3:atemp>
            <ns3:hr>124</ns3:hr>
          </ns3:TrackPointExtension>
        </extensions>
      </trkpt>
      <trkpt lat="36.822885833680629730224609375" lon="-118.39201667346060276031494140625">
        <ele>3889.199951171875</ele>
        <time>2021-06-27T16:24:03.000Z</time>
        <extensions>
          <ns3:TrackPointExtension>
            <ns3:atemp>25.0</ns3:atemp>
            <ns3:hr>124</ns3:hr>
          </ns3:TrackPointExtension>
        </extensions>
      </trkpt>
      <trkpt lat="36.82288709096610546112060546875" lon="-118.39201516471803188323974609375">
        <ele>3889.60009765625</ele>
        <time>2021-06-27T16:24:05.000Z</time>
        <extensions>
          <ns3:TrackPointExtension>
            <ns3:atemp>25.0</ns3:atemp>
            <ns3:hr>121</ns3:hr>
          </ns3:TrackPointExtension>
        </extensions>
      </trkpt>
      <trkpt lat="36.8228901922702789306640625" lon="-118.392011225223541259765625">
        <ele>3889.800048828125</ele>
        <time>2021-06-27T16:24:10.000Z</time>
        <extensions>
          <ns3:TrackPointExtension>
            <ns3:atemp>25.0</ns3:atemp>
            <ns3:hr>118</ns3:hr>
          </ns3:TrackPointExtension>
        </extensions>
      </trkpt>
      <trkpt lat="36.82289086282253265380859375" lon="-118.39201030321419239044189453125">
        <ele>3890.199951171875</ele>
        <time>2021-06-27T16:24:11.000Z</time>
        <extensions>
          <ns3:TrackPointExtension>
            <ns3:atemp>25.0</ns3:atemp>
            <ns3:hr>118</ns3:hr>
          </ns3:TrackPointExtension>
        </extensions>
      </trkpt>
      <trkpt lat="36.82289513759315013885498046875" lon="-118.3920046873390674591064453125">
        <ele>3891.60009765625</ele>
        <time>2021-06-27T16:24:18.000Z</time>
        <extensions>
          <ns3:TrackPointExtension>
            <ns3:atemp>25.0</ns3:atemp>
            <ns3:hr>120</ns3:hr>
          </ns3:TrackPointExtension>
        </extensions>
      </trkpt>
      <trkpt lat="36.82289882563054561614990234375" lon="-118.3919996581971645355224609375">
        <ele>3892.800048828125</ele>
        <time>2021-06-27T16:24:24.000Z</time>
        <extensions>
          <ns3:TrackPointExtension>
            <ns3:atemp>25.0</ns3:atemp>
            <ns3:hr>119</ns3:hr>
          </ns3:TrackPointExtension>
        </extensions>
      </trkpt>
      <trkpt lat="36.82290620170533657073974609375" lon="-118.39198968373239040374755859375">
        <ele>3893.800048828125</ele>
        <time>2021-06-27T16:24:36.000Z</time>
        <extensions>
          <ns3:TrackPointExtension>
            <ns3:atemp>25.0</ns3:atemp>
            <ns3:hr>117</ns3:hr>
          </ns3:TrackPointExtension>
        </extensions>
      </trkpt>
      <trkpt lat="36.822910644114017486572265625" lon="-118.3919839002192020416259765625">
        <ele>3895</ele>
        <time>2021-06-27T16:24:43.000Z</time>
        <extensions>
          <ns3:TrackPointExtension>
            <ns3:atemp>25.0</ns3:atemp>
            <ns3:hr>119</ns3:hr>
          </ns3:TrackPointExtension>
        </extensions>
      </trkpt>
      <trkpt lat="36.82292296551167964935302734375" lon="-118.391968309879302978515625">
        <ele>3896</ele>
        <time>2021-06-27T16:25:02.000Z</time>
        <extensions>
          <ns3:TrackPointExtension>
            <ns3:atemp>25.0</ns3:atemp>
            <ns3:hr>118</ns3:hr>
          </ns3:TrackPointExtension>
        </extensions>
      </trkpt>
      <trkpt lat="36.822932772338390350341796875" lon="-118.39195582084357738494873046875">
        <ele>3897</ele>
        <time>2021-06-27T16:25:17.000Z</time>
        <extensions>
          <ns3:TrackPointExtension>
            <ns3:atemp>25.0</ns3:atemp>
            <ns3:hr>118</ns3:hr>
          </ns3:TrackPointExtension>
        </extensions>
      </trkpt>
      <trkpt lat="36.82293402962386608123779296875" lon="-118.39195422828197479248046875">
        <ele>3898.199951171875</ele>
        <time>2021-06-27T16:25:19.000Z</time>
        <extensions>
          <ns3:TrackPointExtension>
            <ns3:atemp>25.0</ns3:atemp>
            <ns3:hr>118</ns3:hr>
          </ns3:TrackPointExtension>
        </extensions>
      </trkpt>
      <trkpt lat="36.8229399807751178741455078125" lon="-118.39194676838815212249755859375">
        <ele>3899.199951171875</ele>
        <time>2021-06-27T16:25:28.000Z</time>
        <extensions>
          <ns3:TrackPointExtension>
            <ns3:atemp>25.0</ns3:atemp>
            <ns3:hr>114</ns3:hr>
          </ns3:TrackPointExtension>
        </extensions>
      </trkpt>
      <trkpt lat="36.8229406513273715972900390625" lon="-118.39194593019783496856689453125">
        <ele>3899.39990234375</ele>
        <time>2021-06-27T16:25:29.000Z</time>
        <extensions>
          <ns3:TrackPointExtension>
            <ns3:atemp>25.0</ns3:atemp>
            <ns3:hr>114</ns3:hr>
          </ns3:TrackPointExtension>
        </extensions>
      </trkpt>
      <trkpt lat="36.82294257916510105133056640625" lon="-118.39194349944591522216796875">
        <ele>3900</ele>
        <time>2021-06-27T16:25:32.000Z</time>
        <extensions>
          <ns3:TrackPointExtension>
            <ns3:atemp>25.0</ns3:atemp>
            <ns3:hr>111</ns3:hr>
          </ns3:TrackPointExtension>
        </extensions>
      </trkpt>
      <trkpt lat="36.8229438364505767822265625" lon="-118.391941823065280914306640625">
        <ele>3900</ele>
        <time>2021-06-27T16:25:34.000Z</time>
        <extensions>
          <ns3:TrackPointExtension>
            <ns3:atemp>25.0</ns3:atemp>
            <ns3:hr>114</ns3:hr>
          </ns3:TrackPointExtension>
        </extensions>
      </trkpt>
      <trkpt lat="36.82294978760182857513427734375" lon="-118.39193436317145824432373046875">
        <ele>3900</ele>
        <time>2021-06-27T16:25:43.000Z</time>
        <extensions>
          <ns3:TrackPointExtension>
            <ns3:atemp>25.0</ns3:atemp>
            <ns3:hr>111</ns3:hr>
          </ns3:TrackPointExtension>
        </extensions>
      </trkpt>
      <trkpt lat="36.82295112870633602142333984375" lon="-118.39193268679082393646240234375">
        <ele>3900.60009765625</ele>
        <time>2021-06-27T16:25:45.000Z</time>
        <extensions>
          <ns3:TrackPointExtension>
            <ns3:atemp>25.0</ns3:atemp>
            <ns3:hr>113</ns3:hr>
          </ns3:TrackPointExtension>
        </extensions>
      </trkpt>
      <trkpt lat="36.82295833714306354522705078125" lon="-118.3919232152402400970458984375">
        <ele>3901.800048828125</ele>
        <time>2021-06-27T16:25:56.000Z</time>
        <extensions>
          <ns3:TrackPointExtension>
            <ns3:atemp>25.0</ns3:atemp>
            <ns3:hr>115</ns3:hr>
          </ns3:TrackPointExtension>
        </extensions>
      </trkpt>
      <trkpt lat="36.822960264980792999267578125" lon="-118.39192061685025691986083984375">
        <ele>3902</ele>
        <time>2021-06-27T16:25:59.000Z</time>
        <extensions>
          <ns3:TrackPointExtension>
            <ns3:atemp>25.0</ns3:atemp>
            <ns3:hr>119</ns3:hr>
          </ns3:TrackPointExtension>
        </extensions>
      </trkpt>
      <trkpt lat="36.822966635227203369140625" lon="-118.39191189967095851898193359375">
        <ele>3902.800048828125</ele>
        <time>2021-06-27T16:26:09.000Z</time>
        <extensions>
          <ns3:TrackPointExtension>
            <ns3:atemp>25.0</ns3:atemp>
            <ns3:hr>119</ns3:hr>
          </ns3:TrackPointExtension>
        </extensions>
      </trkpt>
      <trkpt lat="36.822970323264598846435546875" lon="-118.39190653525292873382568359375">
        <ele>3903.199951171875</ele>
        <time>2021-06-27T16:26:15.000Z</time>
        <extensions>
          <ns3:TrackPointExtension>
            <ns3:atemp>25.0</ns3:atemp>
            <ns3:hr>115</ns3:hr>
          </ns3:TrackPointExtension>
        </extensions>
      </trkpt>
      <trkpt lat="36.82298616506159305572509765625" lon="-118.39188356883823871612548828125">
        <ele>3902.60009765625</ele>
        <time>2021-06-27T16:26:41.000Z</time>
        <extensions>
          <ns3:TrackPointExtension>
            <ns3:atemp>25.0</ns3:atemp>
            <ns3:hr>112</ns3:hr>
          </ns3:TrackPointExtension>
        </extensions>
      </trkpt>
      <trkpt lat="36.82298800908029079437255859375" lon="-118.39188088662922382354736328125">
        <ele>3902.60009765625</ele>
        <time>2021-06-27T16:26:44.000Z</time>
        <extensions>
          <ns3:TrackPointExtension>
            <ns3:atemp>25.0</ns3:atemp>
            <ns3:hr>111</ns3:hr>
          </ns3:TrackPointExtension>
        </extensions>
      </trkpt>
      <trkpt lat="36.82299102656543254852294921875" lon="-118.39187636040151119232177734375">
        <ele>3902.800048828125</ele>
        <time>2021-06-27T16:26:49.000Z</time>
        <extensions>
          <ns3:TrackPointExtension>
            <ns3:atemp>25.0</ns3:atemp>
            <ns3:hr>108</ns3:hr>
          </ns3:TrackPointExtension>
        </extensions>
      </trkpt>
      <trkpt lat="36.82299220003187656402587890625" lon="-118.39187468402087688446044921875">
        <ele>3902.800048828125</ele>
        <time>2021-06-27T16:26:51.000Z</time>
        <extensions>
          <ns3:TrackPointExtension>
            <ns3:atemp>25.0</ns3:atemp>
            <ns3:hr>111</ns3:hr>
          </ns3:TrackPointExtension>
        </extensions>
      </trkpt>
      <trkpt lat="36.82299278676509857177734375" lon="-118.39187384583055973052978515625">
        <ele>3903</ele>
        <time>2021-06-27T16:26:52.000Z</time>
        <extensions>
          <ns3:TrackPointExtension>
            <ns3:atemp>25.0</ns3:atemp>
            <ns3:hr>108</ns3:hr>
          </ns3:TrackPointExtension>
        </extensions>
      </trkpt>
      <trkpt lat="36.82299756444990634918212890625" lon="-118.3918668888509273529052734375">
        <ele>3903.199951171875</ele>
        <time>2021-06-27T16:27:00.000Z</time>
        <extensions>
          <ns3:TrackPointExtension>
            <ns3:atemp>25.0</ns3:atemp>
            <ns3:hr>104</ns3:hr>
          </ns3:TrackPointExtension>
        </extensions>
      </trkpt>
      <trkpt lat="36.822998821735382080078125" lon="-118.39186512865126132965087890625">
        <ele>3903.199951171875</ele>
        <time>2021-06-27T16:27:02.000Z</time>
        <extensions>
          <ns3:TrackPointExtension>
            <ns3:atemp>25.0</ns3:atemp>
            <ns3:hr>101</ns3:hr>
          </ns3:TrackPointExtension>
        </extensions>
      </trkpt>
      <trkpt lat="36.82300058193504810333251953125" lon="-118.3918625302612781524658203125">
        <ele>3903.199951171875</ele>
        <time>2021-06-27T16:27:05.000Z</time>
        <extensions>
          <ns3:TrackPointExtension>
            <ns3:atemp>25.0</ns3:atemp>
            <ns3:hr>98</ns3:hr>
          </ns3:TrackPointExtension>
        </extensions>
      </trkpt>
      <trkpt lat="36.8230023421347141265869140625" lon="-118.39185993187129497528076171875">
        <ele>3903.199951171875</ele>
        <time>2021-06-27T16:27:08.000Z</time>
        <extensions>
          <ns3:TrackPointExtension>
            <ns3:atemp>25.0</ns3:atemp>
            <ns3:hr>95</ns3:hr>
          </ns3:TrackPointExtension>
        </extensions>
      </trkpt>
      <trkpt lat="36.823006533086299896240234375" lon="-118.391853980720043182373046875">
        <ele>3903.39990234375</ele>
        <time>2021-06-27T16:27:15.000Z</time>
        <extensions>
          <ns3:TrackPointExtension>
            <ns3:atemp>25.0</ns3:atemp>
            <ns3:hr>92</ns3:hr>
          </ns3:TrackPointExtension>
        </extensions>
      </trkpt>
      <trkpt lat="36.823013238608837127685546875" lon="-118.39184434153139591217041015625">
        <ele>3903.39990234375</ele>
        <time>2021-06-27T16:27:26.000Z</time>
        <extensions>
          <ns3:TrackPointExtension>
            <ns3:atemp>24.0</ns3:atemp>
            <ns3:hr>95</ns3:hr>
          </ns3:TrackPointExtension>
        </extensions>
      </trkpt>
      <trkpt lat="36.82301449589431285858154296875" lon="-118.391842581331729888916015625">
        <ele>3903.39990234375</ele>
        <time>2021-06-27T16:27:28.000Z</time>
        <extensions>
          <ns3:TrackPointExtension>
            <ns3:atemp>24.0</ns3:atemp>
            <ns3:hr>92</ns3:hr>
          </ns3:TrackPointExtension>
        </extensions>
      </trkpt>
      <trkpt lat="36.82301885448396205902099609375" lon="-118.391836546361446380615234375">
        <ele>3903.39990234375</ele>
        <time>2021-06-27T16:27:35.000Z</time>
        <extensions>
          <ns3:TrackPointExtension>
            <ns3:atemp>24.0</ns3:atemp>
            <ns3:hr>89</ns3:hr>
          </ns3:TrackPointExtension>
        </extensions>
      </trkpt>
      <trkpt lat="36.8230201117694377899169921875" lon="-118.39183486998081207275390625">
        <ele>3903.39990234375</ele>
        <time>2021-06-27T16:27:37.000Z</time>
        <extensions>
          <ns3:TrackPointExtension>
            <ns3:atemp>24.0</ns3:atemp>
            <ns3:hr>86</ns3:hr>
          </ns3:TrackPointExtension>
        </extensions>
      </trkpt>
      <trkpt lat="36.82302136905491352081298828125" lon="-118.391833193600177764892578125">
        <ele>3903.39990234375</ele>
        <time>2021-06-27T16:27:39.000Z</time>
        <extensions>
          <ns3:TrackPointExtension>
            <ns3:atemp>24.0</ns3:atemp>
            <ns3:hr>83</ns3:hr>
          </ns3:TrackPointExtension>
        </extensions>
      </trkpt>
      <trkpt lat="36.82302321307361125946044921875" lon="-118.3918306790292263031005859375">
        <ele>3903.39990234375</ele>
        <time>2021-06-27T16:27:42.000Z</time>
        <extensions>
          <ns3:TrackPointExtension>
            <ns3:atemp>24.0</ns3:atemp>
            <ns3:hr>80</ns3:hr>
          </ns3:TrackPointExtension>
        </extensions>
      </trkpt>
      <trkpt lat="36.82302572764456272125244140625" lon="-118.3918274939060211181640625">
        <ele>3903.39990234375</ele>
        <time>2021-06-27T16:27:46.000Z</time>
        <extensions>
          <ns3:TrackPointExtension>
            <ns3:atemp>24.0</ns3:atemp>
            <ns3:hr>78</ns3:hr>
          </ns3:TrackPointExtension>
        </extensions>
      </trkpt>
      <trkpt lat="36.82302631437778472900390625" lon="-118.39182673953473567962646484375">
        <ele>3903.39990234375</ele>
        <time>2021-06-27T16:27:47.000Z</time>
        <extensions>
          <ns3:TrackPointExtension>
            <ns3:atemp>24.0</ns3:atemp>
            <ns3:hr>75</ns3:hr>
          </ns3:TrackPointExtension>
        </extensions>
      </trkpt>
      <trkpt lat="36.8230288289487361907958984375" lon="-118.39182355441153049468994140625">
        <ele>3903.39990234375</ele>
        <time>2021-06-27T16:27:51.000Z</time>
        <extensions>
          <ns3:TrackPointExtension>
            <ns3:atemp>24.0</ns3:atemp>
            <ns3:hr>78</ns3:hr>
          </ns3:TrackPointExtension>
        </extensions>
      </trkpt>
      <trkpt lat="36.8230331875383853912353515625" lon="-118.39181835763156414031982421875">
        <ele>3903.39990234375</ele>
        <time>2021-06-27T16:27:58.000Z</time>
        <extensions>
          <ns3:TrackPointExtension>
            <ns3:atemp>24.0</ns3:atemp>
            <ns3:hr>81</ns3:hr>
          </ns3:TrackPointExtension>
        </extensions>
      </trkpt>
      <trkpt lat="36.82303377427160739898681640625" lon="-118.3918176032602787017822265625">
        <ele>3903.39990234375</ele>
        <time>2021-06-27T16:27:59.000Z</time>
        <extensions>
          <ns3:TrackPointExtension>
            <ns3:atemp>24.0</ns3:atemp>
            <ns3:hr>84</ns3:hr>
          </ns3:TrackPointExtension>
        </extensions>
      </trkpt>
      <trkpt lat="36.82304366491734981536865234375" lon="-118.39180628769099712371826171875">
        <ele>3906</ele>
        <time>2021-06-27T16:28:15.000Z</time>
        <extensions>
          <ns3:TrackPointExtension>
            <ns3:atemp>24.0</ns3:atemp>
            <ns3:hr>84</ns3:hr>
          </ns3:TrackPointExtension>
        </extensions>
      </trkpt>
      <trkpt lat="36.823047436773777008056640625" lon="-118.3918021805584430694580078125">
        <ele>3906.60009765625</ele>
        <time>2021-06-27T16:28:21.000Z</time>
        <extensions>
          <ns3:TrackPointExtension>
            <ns3:atemp>24.0</ns3:atemp>
            <ns3:hr>87</ns3:hr>
          </ns3:TrackPointExtension>
        </extensions>
      </trkpt>
      <trkpt lat="36.82304869405925273895263671875" lon="-118.3918008394539356231689453125">
        <ele>3907.199951171875</ele>
        <time>2021-06-27T16:28:23.000Z</time>
        <extensions>
          <ns3:TrackPointExtension>
            <ns3:atemp>24.0</ns3:atemp>
            <ns3:hr>88</ns3:hr>
          </ns3:TrackPointExtension>
        </extensions>
      </trkpt>
      <trkpt lat="36.8230499513447284698486328125" lon="-118.3917994983494281768798828125">
        <ele>3907.800048828125</ele>
        <time>2021-06-27T16:28:25.000Z</time>
        <extensions>
          <ns3:TrackPointExtension>
            <ns3:atemp>24.0</ns3:atemp>
            <ns3:hr>91</ns3:hr>
          </ns3:TrackPointExtension>
        </extensions>
      </trkpt>
      <trkpt lat="36.82305120863020420074462890625" lon="-118.3917981572449207305908203125">
        <ele>3908.199951171875</ele>
        <time>2021-06-27T16:28:27.000Z</time>
        <extensions>
          <ns3:TrackPointExtension>
            <ns3:atemp>24.0</ns3:atemp>
            <ns3:hr>91</ns3:hr>
          </ns3:TrackPointExtension>
        </extensions>
      </trkpt>
      <trkpt lat="36.823052465915679931640625" lon="-118.3917968161404132843017578125">
        <ele>3908.60009765625</ele>
        <time>2021-06-27T16:28:29.000Z</time>
        <extensions>
          <ns3:TrackPointExtension>
            <ns3:atemp>24.0</ns3:atemp>
            <ns3:hr>95</ns3:hr>
          </ns3:TrackPointExtension>
        </extensions>
      </trkpt>
      <trkpt lat="36.8230543099343776702880859375" lon="-118.3917948044836521148681640625">
        <ele>3909.199951171875</ele>
        <time>2021-06-27T16:28:32.000Z</time>
        <extensions>
          <ns3:TrackPointExtension>
            <ns3:atemp>24.0</ns3:atemp>
            <ns3:hr>95</ns3:hr>
          </ns3:TrackPointExtension>
        </extensions>
      </trkpt>
      <trkpt lat="36.82305556721985340118408203125" lon="-118.3917934633791446685791015625">
        <ele>3909.60009765625</ele>
        <time>2021-06-27T16:28:34.000Z</time>
        <extensions>
          <ns3:TrackPointExtension>
            <ns3:atemp>24.0</ns3:atemp>
            <ns3:hr>103</ns3:hr>
          </ns3:TrackPointExtension>
        </extensions>
      </trkpt>
      <trkpt lat="36.823056153953075408935546875" lon="-118.39179270900785923004150390625">
        <ele>3909.60009765625</ele>
        <time>2021-06-27T16:28:35.000Z</time>
        <extensions>
          <ns3:TrackPointExtension>
            <ns3:atemp>24.0</ns3:atemp>
            <ns3:hr>103</ns3:hr>
          </ns3:TrackPointExtension>
        </extensions>
      </trkpt>
      <trkpt lat="36.8230586685240268707275390625" lon="-118.3917899429798126220703125">
        <ele>3909.60009765625</ele>
        <time>2021-06-27T16:28:39.000Z</time>
        <extensions>
          <ns3:TrackPointExtension>
            <ns3:atemp>24.0</ns3:atemp>
            <ns3:hr>106</ns3:hr>
          </ns3:TrackPointExtension>
        </extensions>
      </trkpt>
      <trkpt lat="36.82306059636175632476806640625" lon="-118.3917877636849880218505859375">
        <ele>3910.800048828125</ele>
        <time>2021-06-27T16:28:42.000Z</time>
        <extensions>
          <ns3:TrackPointExtension>
            <ns3:atemp>24.0</ns3:atemp>
            <ns3:hr>103</ns3:hr>
          </ns3:TrackPointExtension>
        </extensions>
      </trkpt>
      <trkpt lat="36.8230650387704372406005859375" lon="-118.39178265072405338287353515625">
        <ele>3911.60009765625</ele>
        <time>2021-06-27T16:28:49.000Z</time>
        <extensions>
          <ns3:TrackPointExtension>
            <ns3:atemp>24.0</ns3:atemp>
            <ns3:hr>106</ns3:hr>
          </ns3:TrackPointExtension>
        </extensions>
      </trkpt>
      <trkpt lat="36.82306629605591297149658203125" lon="-118.39178122580051422119140625">
        <ele>3911.800048828125</ele>
        <time>2021-06-27T16:28:51.000Z</time>
        <extensions>
          <ns3:TrackPointExtension>
            <ns3:atemp>24.0</ns3:atemp>
            <ns3:hr>108</ns3:hr>
          </ns3:TrackPointExtension>
        </extensions>
      </trkpt>
      <trkpt lat="36.82306881062686443328857421875" lon="-118.391778208315372467041015625">
        <ele>3911.800048828125</ele>
        <time>2021-06-27T16:28:55.000Z</time>
        <extensions>
          <ns3:TrackPointExtension>
            <ns3:atemp>24.0</ns3:atemp>
            <ns3:hr>105</ns3:hr>
          </ns3:TrackPointExtension>
        </extensions>
      </trkpt>
      <trkpt lat="36.82307618670165538787841796875" lon="-118.3917686529457569122314453125">
        <ele>3912.60009765625</ele>
        <time>2021-06-27T16:29:07.000Z</time>
        <extensions>
          <ns3:TrackPointExtension>
            <ns3:atemp>24.0</ns3:atemp>
            <ns3:hr>109</ns3:hr>
          </ns3:TrackPointExtension>
        </extensions>
      </trkpt>
      <trkpt lat="36.8230767734348773956298828125" lon="-118.39176789857447147369384765625">
        <ele>3912.800048828125</ele>
        <time>2021-06-27T16:29:08.000Z</time>
        <extensions>
          <ns3:TrackPointExtension>
            <ns3:atemp>24.0</ns3:atemp>
            <ns3:hr>114</ns3:hr>
          </ns3:TrackPointExtension>
        </extensions>
      </trkpt>
      <trkpt lat="36.82307736016809940338134765625" lon="-118.39176714420318603515625">
        <ele>3913.39990234375</ele>
        <time>2021-06-27T16:29:09.000Z</time>
        <extensions>
          <ns3:TrackPointExtension>
            <ns3:atemp>24.0</ns3:atemp>
            <ns3:hr>117</ns3:hr>
          </ns3:TrackPointExtension>
        </extensions>
      </trkpt>
      <trkpt lat="36.82307903654873371124267578125" lon="-118.391764797270298004150390625">
        <ele>3913.39990234375</ele>
        <time>2021-06-27T16:29:12.000Z</time>
        <extensions>
          <ns3:TrackPointExtension>
            <ns3:atemp>24.0</ns3:atemp>
            <ns3:hr>120</ns3:hr>
          </ns3:TrackPointExtension>
        </extensions>
      </trkpt>
      <trkpt lat="36.8230801261961460113525390625" lon="-118.3917632885277271270751953125">
        <ele>3913.39990234375</ele>
        <time>2021-06-27T16:29:14.000Z</time>
        <extensions>
          <ns3:TrackPointExtension>
            <ns3:atemp>24.0</ns3:atemp>
            <ns3:hr>123</ns3:hr>
          </ns3:TrackPointExtension>
        </extensions>
      </trkpt>
      <trkpt lat="36.82308800518512725830078125" lon="-118.3917532302439212799072265625">
        <ele>3913.60009765625</ele>
        <time>2021-06-27T16:29:28.000Z</time>
        <extensions>
          <ns3:TrackPointExtension>
            <ns3:atemp>25.0</ns3:atemp>
            <ns3:hr>120</ns3:hr>
          </ns3:TrackPointExtension>
        </extensions>
      </trkpt>
      <trkpt lat="36.82309362106025218963623046875" lon="-118.39174627326428890228271484375">
        <ele>3913.39990234375</ele>
        <time>2021-06-27T16:29:38.000Z</time>
        <extensions>
          <ns3:TrackPointExtension>
            <ns3:atemp>25.0</ns3:atemp>
            <ns3:hr>117</ns3:hr>
          </ns3:TrackPointExtension>
        </extensions>
      </trkpt>
      <trkpt lat="36.8231005780398845672607421875" lon="-118.39173772372305393218994140625">
        <ele>3913</ele>
        <time>2021-06-27T16:29:50.000Z</time>
        <extensions>
          <ns3:TrackPointExtension>
            <ns3:atemp>25.0</ns3:atemp>
            <ns3:hr>114</ns3:hr>
          </ns3:TrackPointExtension>
        </extensions>
      </trkpt>
      <trkpt lat="36.82310233823955059051513671875" lon="-118.39173554442822933197021484375">
        <ele>3913</ele>
        <time>2021-06-27T16:29:53.000Z</time>
        <extensions>
          <ns3:TrackPointExtension>
            <ns3:atemp>25.0</ns3:atemp>
            <ns3:hr>111</ns3:hr>
          </ns3:TrackPointExtension>
        </extensions>
      </trkpt>
      <trkpt lat="36.82310351170599460601806640625" lon="-118.39173420332372188568115234375">
        <ele>3913</ele>
        <time>2021-06-27T16:29:55.000Z</time>
        <extensions>
          <ns3:TrackPointExtension>
            <ns3:atemp>25.0</ns3:atemp>
            <ns3:hr>108</ns3:hr>
          </ns3:TrackPointExtension>
        </extensions>
      </trkpt>
      <trkpt lat="36.82310468517243862152099609375" lon="-118.39173286221921443939208984375">
        <ele>3913</ele>
        <time>2021-06-27T16:29:57.000Z</time>
        <extensions>
          <ns3:TrackPointExtension>
            <ns3:atemp>25.0</ns3:atemp>
            <ns3:hr>104</ns3:hr>
          </ns3:TrackPointExtension>
        </extensions>
      </trkpt>
      <trkpt lat="36.82310585863888263702392578125" lon="-118.3917314372956752777099609375">
        <ele>3912.800048828125</ele>
        <time>2021-06-27T16:29:59.000Z</time>
        <extensions>
          <ns3:TrackPointExtension>
            <ns3:atemp>25.0</ns3:atemp>
            <ns3:hr>101</ns3:hr>
          </ns3:TrackPointExtension>
        </extensions>
      </trkpt>
      <trkpt lat="36.82310703210532665252685546875" lon="-118.3917300961911678314208984375">
        <ele>3912.800048828125</ele>
        <time>2021-06-27T16:30:01.000Z</time>
        <extensions>
          <ns3:TrackPointExtension>
            <ns3:atemp>25.0</ns3:atemp>
            <ns3:hr>98</ns3:hr>
          </ns3:TrackPointExtension>
        </extensions>
      </trkpt>
      <trkpt lat="36.82310820557177066802978515625" lon="-118.39172867126762866973876953125">
        <ele>3912.60009765625</ele>
        <time>2021-06-27T16:30:03.000Z</time>
        <extensions>
          <ns3:TrackPointExtension>
            <ns3:atemp>25.0</ns3:atemp>
            <ns3:hr>94</ns3:hr>
          </ns3:TrackPointExtension>
        </extensions>
      </trkpt>
      <trkpt lat="36.82311055250465869903564453125" lon="-118.39172598905861377716064453125">
        <ele>3912.60009765625</ele>
        <time>2021-06-27T16:30:07.000Z</time>
        <extensions>
          <ns3:TrackPointExtension>
            <ns3:atemp>25.0</ns3:atemp>
            <ns3:hr>91</ns3:hr>
          </ns3:TrackPointExtension>
        </extensions>
      </trkpt>
      <trkpt lat="36.82311289943754673004150390625" lon="-118.391723223030567169189453125">
        <ele>3912.60009765625</ele>
        <time>2021-06-27T16:30:11.000Z</time>
        <extensions>
          <ns3:TrackPointExtension>
            <ns3:atemp>25.0</ns3:atemp>
            <ns3:hr>88</ns3:hr>
          </ns3:TrackPointExtension>
        </extensions>
      </trkpt>
      <trkpt lat="36.82311574928462505340576171875" lon="-118.391719870269298553466796875">
        <ele>3912.60009765625</ele>
        <time>2021-06-27T16:30:16.000Z</time>
        <extensions>
          <ns3:TrackPointExtension>
            <ns3:atemp>25.0</ns3:atemp>
            <ns3:hr>85</ns3:hr>
          </ns3:TrackPointExtension>
        </extensions>
      </trkpt>
      <trkpt lat="36.82311750948429107666015625" lon="-118.391717858612537384033203125">
        <ele>3912.39990234375</ele>
        <time>2021-06-27T16:30:19.000Z</time>
        <extensions>
          <ns3:TrackPointExtension>
            <ns3:atemp>25.0</ns3:atemp>
            <ns3:hr>88</ns3:hr>
          </ns3:TrackPointExtension>
        </extensions>
      </trkpt>
      <trkpt lat="36.82312488555908203125" lon="-118.3917093090713024139404296875">
        <ele>3912.39990234375</ele>
        <time>2021-06-27T16:30:32.000Z</time>
        <extensions>
          <ns3:TrackPointExtension>
            <ns3:atemp>24.0</ns3:atemp>
            <ns3:hr>91</ns3:hr>
          </ns3:TrackPointExtension>
        </extensions>
      </trkpt>
      <trkpt lat="36.8231277354061603546142578125" lon="-118.3917059563100337982177734375">
        <ele>3912.800048828125</ele>
        <time>2021-06-27T16:30:37.000Z</time>
        <extensions>
          <ns3:TrackPointExtension>
            <ns3:atemp>24.0</ns3:atemp>
            <ns3:hr>95</ns3:hr>
          </ns3:TrackPointExtension>
        </extensions>
      </trkpt>
      <trkpt lat="36.8231289088726043701171875" lon="-118.3917046152055263519287109375">
        <ele>3913</ele>
        <time>2021-06-27T16:30:39.000Z</time>
        <extensions>
          <ns3:TrackPointExtension>
            <ns3:atemp>24.0</ns3:atemp>
            <ns3:hr>99</ns3:hr>
          </ns3:TrackPointExtension>
        </extensions>
      </trkpt>
      <trkpt lat="36.8231300823390483856201171875" lon="-118.3917032741010189056396484375">
        <ele>3913</ele>
        <time>2021-06-27T16:30:41.000Z</time>
        <extensions>
          <ns3:TrackPointExtension>
            <ns3:atemp>24.0</ns3:atemp>
            <ns3:hr>102</ns3:hr>
          </ns3:TrackPointExtension>
        </extensions>
      </trkpt>
      <trkpt lat="36.82313234545290470123291015625" lon="-118.39170067571103572845458984375">
        <ele>3913</ele>
        <time>2021-06-27T16:30:45.000Z</time>
        <extensions>
          <ns3:TrackPointExtension>
            <ns3:atemp>24.0</ns3:atemp>
            <ns3:hr>105</ns3:hr>
          </ns3:TrackPointExtension>
        </extensions>
      </trkpt>
      <trkpt lat="36.823132932186126708984375" lon="-118.39170000515878200531005859375">
        <ele>3913</ele>
        <time>2021-06-27T16:30:46.000Z</time>
        <extensions>
          <ns3:TrackPointExtension>
            <ns3:atemp>24.0</ns3:atemp>
            <ns3:hr>108</ns3:hr>
          </ns3:TrackPointExtension>
        </extensions>
      </trkpt>
      <trkpt lat="36.823139972984790802001953125" lon="-118.3916918747127056121826171875">
        <ele>3912.60009765625</ele>
        <time>2021-06-27T16:30:59.000Z</time>
        <extensions>
          <ns3:TrackPointExtension>
            <ns3:atemp>25.0</ns3:atemp>
            <ns3:hr>103</ns3:hr>
          </ns3:TrackPointExtension>
        </extensions>
      </trkpt>
      <trkpt lat="36.82314156554639339447021484375" lon="-118.39168994687497615814208984375">
        <ele>3912.60009765625</ele>
        <time>2021-06-27T16:31:02.000Z</time>
        <extensions>
          <ns3:TrackPointExtension>
            <ns3:atemp>25.0</ns3:atemp>
            <ns3:hr>107</ns3:hr>
          </ns3:TrackPointExtension>
        </extensions>
      </trkpt>
      <trkpt lat="36.82314307428896427154541015625" lon="-118.39168810285627841949462890625">
        <ele>3912.39990234375</ele>
        <time>2021-06-27T16:31:05.000Z</time>
        <extensions>
          <ns3:TrackPointExtension>
            <ns3:atemp>25.0</ns3:atemp>
            <ns3:hr>105</ns3:hr>
          </ns3:TrackPointExtension>
        </extensions>
      </trkpt>
      <trkpt lat="36.8231471814215183258056640625" lon="-118.3916831575334072113037109375">
        <ele>3912.60009765625</ele>
        <time>2021-06-27T16:31:13.000Z</time>
        <extensions>
          <ns3:TrackPointExtension>
            <ns3:atemp>25.0</ns3:atemp>
            <ns3:hr>101</ns3:hr>
          </ns3:TrackPointExtension>
        </extensions>
      </trkpt>
      <trkpt lat="36.82314977981150150299072265625" lon="-118.39168005622923374176025390625">
        <ele>3912</ele>
        <time>2021-06-27T16:31:18.000Z</time>
        <extensions>
          <ns3:TrackPointExtension>
            <ns3:atemp>25.0</ns3:atemp>
            <ns3:hr>98</ns3:hr>
          </ns3:TrackPointExtension>
        </extensions>
      </trkpt>
      <trkpt lat="36.8231522105634212493896484375" lon="-118.39167703874409198760986328125">
        <ele>3912</ele>
        <time>2021-06-27T16:31:23.000Z</time>
        <extensions>
          <ns3:TrackPointExtension>
            <ns3:atemp>25.0</ns3:atemp>
            <ns3:hr>94</ns3:hr>
          </ns3:TrackPointExtension>
        </extensions>
      </trkpt>
      <trkpt lat="36.823152713477611541748046875" lon="-118.39167636819183826446533203125">
        <ele>3912</ele>
        <time>2021-06-27T16:31:24.000Z</time>
        <extensions>
          <ns3:TrackPointExtension>
            <ns3:atemp>25.0</ns3:atemp>
            <ns3:hr>97</ns3:hr>
          </ns3:TrackPointExtension>
        </extensions>
      </trkpt>
      <trkpt lat="36.82315665297210216522216796875" lon="-118.391671590507030487060546875">
        <ele>3912</ele>
        <time>2021-06-27T16:31:32.000Z</time>
        <extensions>
          <ns3:TrackPointExtension>
            <ns3:atemp>25.0</ns3:atemp>
            <ns3:hr>94</ns3:hr>
          </ns3:TrackPointExtension>
        </extensions>
      </trkpt>
      <trkpt lat="36.82315715588629245758056640625" lon="-118.39167100377380847930908203125">
        <ele>3912</ele>
        <time>2021-06-27T16:31:33.000Z</time>
        <extensions>
          <ns3:TrackPointExtension>
            <ns3:atemp>25.0</ns3:atemp>
            <ns3:hr>97</ns3:hr>
          </ns3:TrackPointExtension>
        </extensions>
      </trkpt>
      <trkpt lat="36.82316671125590801239013671875" lon="-118.391658850014209747314453125">
        <ele>3912</ele>
        <time>2021-06-27T16:31:53.000Z</time>
        <extensions>
          <ns3:TrackPointExtension>
            <ns3:atemp>25.0</ns3:atemp>
            <ns3:hr>98</ns3:hr>
          </ns3:TrackPointExtension>
        </extensions>
      </trkpt>
      <trkpt lat="36.82316805236041545867919921875" lon="-118.39165708981454372406005859375">
        <ele>3912</ele>
        <time>2021-06-27T16:31:56.000Z</time>
        <extensions>
          <ns3:TrackPointExtension>
            <ns3:atemp>25.0</ns3:atemp>
            <ns3:hr>101</ns3:hr>
          </ns3:TrackPointExtension>
        </extensions>
      </trkpt>
      <trkpt lat="36.8231696449220180511474609375" lon="-118.39165524579584598541259765625">
        <ele>3912</ele>
        <time>2021-06-27T16:31:59.000Z</time>
        <extensions>
          <ns3:TrackPointExtension>
            <ns3:atemp>25.0</ns3:atemp>
            <ns3:hr>104</ns3:hr>
          </ns3:TrackPointExtension>
        </extensions>
      </trkpt>
      <trkpt lat="36.82317106984555721282958984375" lon="-118.39165340177714824676513671875">
        <ele>3912</ele>
        <time>2021-06-27T16:32:02.000Z</time>
        <extensions>
          <ns3:TrackPointExtension>
            <ns3:atemp>25.0</ns3:atemp>
            <ns3:hr>107</ns3:hr>
          </ns3:TrackPointExtension>
        </extensions>
      </trkpt>
      <trkpt lat="36.8231857381761074066162109375" lon="-118.3916345424950122833251953125">
        <ele>3912</ele>
        <time>2021-06-27T16:32:36.000Z</time>
        <extensions>
          <ns3:TrackPointExtension>
            <ns3:atemp>25.0</ns3:atemp>
            <ns3:hr>104</ns3:hr>
          </ns3:TrackPointExtension>
        </extensions>
      </trkpt>
      <trkpt lat="36.823186576366424560546875" lon="-118.3916335366666316986083984375">
        <ele>3912</ele>
        <time>2021-06-27T16:32:38.000Z</time>
        <extensions>
          <ns3:TrackPointExtension>
            <ns3:atemp>25.0</ns3:atemp>
            <ns3:hr>101</ns3:hr>
          </ns3:TrackPointExtension>
        </extensions>
      </trkpt>
      <trkpt lat="36.82318733073770999908447265625" lon="-118.3916325308382511138916015625">
        <ele>3912</ele>
        <time>2021-06-27T16:32:40.000Z</time>
        <extensions>
          <ns3:TrackPointExtension>
            <ns3:atemp>25.0</ns3:atemp>
            <ns3:hr>98</ns3:hr>
          </ns3:TrackPointExtension>
        </extensions>
      </trkpt>
      <trkpt lat="36.823189593851566314697265625" lon="-118.39162959717214107513427734375">
        <ele>3912</ele>
        <time>2021-06-27T16:32:46.000Z</time>
        <extensions>
          <ns3:TrackPointExtension>
            <ns3:atemp>25.0</ns3:atemp>
            <ns3:hr>95</ns3:hr>
          </ns3:TrackPointExtension>
        </extensions>
      </trkpt>
      <trkpt lat="36.82319034822285175323486328125" lon="-118.391628675162792205810546875">
        <ele>3912</ele>
        <time>2021-06-27T16:32:48.000Z</time>
        <extensions>
          <ns3:TrackPointExtension>
            <ns3:atemp>25.0</ns3:atemp>
            <ns3:hr>92</ns3:hr>
          </ns3:TrackPointExtension>
        </extensions>
      </trkpt>
      <trkpt lat="36.82319101877510547637939453125" lon="-118.39162775315344333648681640625">
        <ele>3912</ele>
        <time>2021-06-27T16:32:50.000Z</time>
        <extensions>
          <ns3:TrackPointExtension>
            <ns3:atemp>25.0</ns3:atemp>
            <ns3:hr>89</ns3:hr>
          </ns3:TrackPointExtension>
        </extensions>
      </trkpt>
      <trkpt lat="36.82319235987961292266845703125" lon="-118.39162590913474559783935546875">
        <ele>3912</ele>
        <time>2021-06-27T16:32:54.000Z</time>
        <extensions>
          <ns3:TrackPointExtension>
            <ns3:atemp>25.0</ns3:atemp>
            <ns3:hr>86</ns3:hr>
          </ns3:TrackPointExtension>
        </extensions>
      </trkpt>
      <trkpt lat="36.82319537736475467681884765625" lon="-118.391621299088001251220703125">
        <ele>3912</ele>
        <time>2021-06-27T16:33:04.000Z</time>
        <extensions>
          <ns3:TrackPointExtension>
            <ns3:atemp>25.0</ns3:atemp>
            <ns3:hr>90</ns3:hr>
          </ns3:TrackPointExtension>
        </extensions>
      </trkpt>
      <trkpt lat="36.8231974728405475616455078125" lon="-118.3916181139647960662841796875">
        <ele>3912</ele>
        <time>2021-06-27T16:33:11.000Z</time>
        <extensions>
          <ns3:TrackPointExtension>
            <ns3:atemp>25.0</ns3:atemp>
            <ns3:hr>94</ns3:hr>
          </ns3:TrackPointExtension>
        </extensions>
      </trkpt>
      <trkpt lat="36.8232568167150020599365234375" lon="-118.39147402904927730560302734375">
        <ele>3912</ele>
        <time>2021-06-27T16:33:37.000Z</time>
        <extensions>
          <ns3:TrackPointExtension>
            <ns3:atemp>26.0</ns3:atemp>
            <ns3:hr>91</ns3:hr>
          </ns3:TrackPointExtension>
        </extensions>
      </trkpt>
      <trkpt lat="36.82331155054271221160888671875" lon="-118.39139037765562534332275390625">
        <ele>3912</ele>
        <time>2021-06-27T16:33:41.000Z</time>
        <extensions>
          <ns3:TrackPointExtension>
            <ns3:atemp>26.0</ns3:atemp>
            <ns3:hr>88</ns3:hr>
          </ns3:TrackPointExtension>
        </extensions>
      </trkpt>
      <trkpt lat="36.823329739272594451904296875" lon="-118.3913700096309185028076171875">
        <ele>3912</ele>
        <time>2021-06-27T16:33:44.000Z</time>
        <extensions>
          <ns3:TrackPointExtension>
            <ns3:atemp>26.0</ns3:atemp>
            <ns3:hr>85</ns3:hr>
          </ns3:TrackPointExtension>
        </extensions>
      </trkpt>
      <trkpt lat="36.82333468459546566009521484375" lon="-118.3913626335561275482177734375">
        <ele>3912</ele>
        <time>2021-06-27T16:33:45.000Z</time>
        <extensions>
          <ns3:TrackPointExtension>
            <ns3:atemp>26.0</ns3:atemp>
            <ns3:hr>85</ns3:hr>
          </ns3:TrackPointExtension>
        </extensions>
      </trkpt>
      <trkpt lat="36.8233413062989711761474609375" lon="-118.39135416783392429351806640625">
        <ele>3912</ele>
        <time>2021-06-27T16:33:51.000Z</time>
        <extensions>
          <ns3:TrackPointExtension>
            <ns3:atemp>26.0</ns3:atemp>
            <ns3:hr>86</ns3:hr>
          </ns3:TrackPointExtension>
        </extensions>
      </trkpt>
      <trkpt lat="36.82335983030498027801513671875" lon="-118.39130940847098827362060546875">
        <ele>3912</ele>
        <time>2021-06-27T16:33:56.000Z</time>
        <extensions>
          <ns3:TrackPointExtension>
            <ns3:atemp>26.0</ns3:atemp>
            <ns3:hr>82</ns3:hr>
          </ns3:TrackPointExtension>
        </extensions>
      </trkpt>
      <trkpt lat="36.8233649432659149169921875" lon="-118.39130940847098827362060546875">
        <ele>3912</ele>
        <time>2021-06-27T16:34:00.000Z</time>
        <extensions>
          <ns3:TrackPointExtension>
            <ns3:atemp>26.0</ns3:atemp>
            <ns3:hr>79</ns3:hr>
          </ns3:TrackPointExtension>
        </extensions>
      </trkpt>
      <trkpt lat="36.823389418423175811767578125" lon="-118.39132030494511127471923828125">
        <ele>3912</ele>
        <time>2021-06-27T16:34:27.000Z</time>
        <extensions>
          <ns3:TrackPointExtension>
            <ns3:atemp>26.0</ns3:atemp>
            <ns3:hr>82</ns3:hr>
          </ns3:TrackPointExtension>
        </extensions>
      </trkpt>
      <trkpt lat="36.8233919329941272735595703125" lon="-118.39132030494511127471923828125">
        <ele>3912</ele>
        <time>2021-06-27T16:34:32.000Z</time>
        <extensions>
          <ns3:TrackPointExtension>
            <ns3:atemp>26.0</ns3:atemp>
            <ns3:hr>85</ns3:hr>
          </ns3:TrackPointExtension>
        </extensions>
      </trkpt>
      <trkpt lat="36.82338631711900234222412109375" lon="-118.3913106657564640045166015625">
        <ele>3912</ele>
        <time>2021-06-27T16:34:40.000Z</time>
        <extensions>
          <ns3:TrackPointExtension>
            <ns3:atemp>26.0</ns3:atemp>
            <ns3:hr>88</ns3:hr>
          </ns3:TrackPointExtension>
        </extensions>
      </trkpt>
      <trkpt lat="36.82338397018611431121826171875" lon="-118.39128577150404453277587890625">
        <ele>3912</ele>
        <time>2021-06-27T16:34:46.000Z</time>
        <extensions>
          <ns3:TrackPointExtension>
            <ns3:atemp>26.0</ns3:atemp>
            <ns3:hr>91</ns3:hr>
          </ns3:TrackPointExtension>
        </extensions>
      </trkpt>
      <trkpt lat="36.8233842216432094573974609375" lon="-118.3912814967334270477294921875">
        <ele>3912</ele>
        <time>2021-06-27T16:34:49.000Z</time>
        <extensions>
          <ns3:TrackPointExtension>
            <ns3:atemp>26.0</ns3:atemp>
            <ns3:hr>95</ns3:hr>
          </ns3:TrackPointExtension>
        </extensions>
      </trkpt>
      <trkpt lat="36.82338246144354343414306640625" lon="-118.391281999647617340087890625">
        <ele>3912</ele>
        <time>2021-06-27T16:35:04.000Z</time>
        <extensions>
          <ns3:TrackPointExtension>
            <ns3:atemp>26.0</ns3:atemp>
            <ns3:hr>92</ns3:hr>
          </ns3:TrackPointExtension>
        </extensions>
      </trkpt>
      <trkpt lat="36.8233825452625751495361328125" lon="-118.3912828378379344940185546875">
        <ele>3912</ele>
        <time>2021-06-27T16:35:13.000Z</time>
        <extensions>
          <ns3:TrackPointExtension>
            <ns3:atemp>26.0</ns3:atemp>
            <ns3:hr>92</ns3:hr>
          </ns3:TrackPointExtension>
        </extensions>
      </trkpt>
      <trkpt lat="36.8233858980238437652587890625" lon="-118.39128677733242511749267578125">
        <ele>3912</ele>
        <time>2021-06-27T16:35:24.000Z</time>
        <extensions>
          <ns3:TrackPointExtension>
            <ns3:atemp>26.0</ns3:atemp>
            <ns3:hr>89</ns3:hr>
          </ns3:TrackPointExtension>
        </extensions>
      </trkpt>
      <trkpt lat="36.82338832877576351165771484375" lon="-118.39128711260855197906494140625">
        <ele>3912</ele>
        <time>2021-06-27T16:35:28.000Z</time>
        <extensions>
          <ns3:TrackPointExtension>
            <ns3:atemp>26.0</ns3:atemp>
            <ns3:hr>92</ns3:hr>
          </ns3:TrackPointExtension>
        </extensions>
      </trkpt>
      <trkpt lat="36.82339109480381011962890625" lon="-118.39128694497048854827880859375">
        <ele>3912</ele>
        <time>2021-06-27T16:35:30.000Z</time>
        <extensions>
          <ns3:TrackPointExtension>
            <ns3:atemp>26.0</ns3:atemp>
            <ns3:hr>95</ns3:hr>
          </ns3:TrackPointExtension>
        </extensions>
      </trkpt>
      <trkpt lat="36.82342604734003543853759765625" lon="-118.39128979481756687164306640625">
        <ele>3912</ele>
        <time>2021-06-27T16:35:56.000Z</time>
        <extensions>
          <ns3:TrackPointExtension>
            <ns3:atemp>27.0</ns3:atemp>
            <ns3:hr>92</ns3:hr>
          </ns3:TrackPointExtension>
        </extensions>
      </trkpt>
      <trkpt lat="36.82345588691532611846923828125" lon="-118.3913029544055461883544921875">
        <ele>3912</ele>
        <time>2021-06-27T16:36:03.000Z</time>
        <extensions>
          <ns3:TrackPointExtension>
            <ns3:atemp>27.0</ns3:atemp>
            <ns3:hr>95</ns3:hr>
          </ns3:TrackPointExtension>
        </extensions>
      </trkpt>
      <trkpt lat="36.82351171039044857025146484375" lon="-118.3913284353911876678466796875">
        <ele>3912</ele>
        <time>2021-06-27T16:36:11.000Z</time>
        <extensions>
          <ns3:TrackPointExtension>
            <ns3:atemp>26.0</ns3:atemp>
            <ns3:hr>92</ns3:hr>
          </ns3:TrackPointExtension>
        </extensions>
      </trkpt>
      <trkpt lat="36.82353685609996318817138671875" lon="-118.39133740402758121490478515625">
        <ele>3912</ele>
        <time>2021-06-27T16:36:13.000Z</time>
        <extensions>
          <ns3:TrackPointExtension>
            <ns3:atemp>26.0</ns3:atemp>
            <ns3:hr>88</ns3:hr>
          </ns3:TrackPointExtension>
        </extensions>
      </trkpt>
      <trkpt lat="36.82358798570930957794189453125" lon="-118.3913549222052097320556640625">
        <ele>3912</ele>
        <time>2021-06-27T16:36:17.000Z</time>
        <extensions>
          <ns3:TrackPointExtension>
            <ns3:atemp>26.0</ns3:atemp>
            <ns3:hr>85</ns3:hr>
          </ns3:TrackPointExtension>
        </extensions>
      </trkpt>
      <trkpt lat="36.8236051686108112335205078125" lon="-118.3913629688322544097900390625">
        <ele>3912</ele>
        <time>2021-06-27T16:36:19.000Z</time>
        <extensions>
          <ns3:TrackPointExtension>
            <ns3:atemp>26.0</ns3:atemp>
            <ns3:hr>84</ns3:hr>
          </ns3:TrackPointExtension>
        </extensions>
      </trkpt>
      <trkpt lat="36.82361547835171222686767578125" lon="-118.39136506430804729461669921875">
        <ele>3912</ele>
        <time>2021-06-27T16:36:22.000Z</time>
        <extensions>
          <ns3:TrackPointExtension>
            <ns3:atemp>26.0</ns3:atemp>
            <ns3:hr>81</ns3:hr>
          </ns3:TrackPointExtension>
        </extensions>
      </trkpt>
      <trkpt lat="36.82363743893802165985107421875" lon="-118.39137562550604343414306640625">
        <ele>3912</ele>
        <time>2021-06-27T16:36:25.000Z</time>
        <extensions>
          <ns3:TrackPointExtension>
            <ns3:atemp>26.0</ns3:atemp>
            <ns3:hr>81</ns3:hr>
          </ns3:TrackPointExtension>
        </extensions>
      </trkpt>
      <trkpt lat="36.82366794906556606292724609375" lon="-118.39139004237949848175048828125">
        <ele>3912</ele>
        <time>2021-06-27T16:36:29.000Z</time>
        <extensions>
          <ns3:TrackPointExtension>
            <ns3:atemp>26.0</ns3:atemp>
            <ns3:hr>85</ns3:hr>
          </ns3:TrackPointExtension>
        </extensions>
      </trkpt>
      <trkpt lat="36.82369192130863666534423828125" lon="-118.3913948200643062591552734375">
        <ele>3912</ele>
        <time>2021-06-27T16:36:32.000Z</time>
        <extensions>
          <ns3:TrackPointExtension>
            <ns3:atemp>26.0</ns3:atemp>
            <ns3:hr>83</ns3:hr>
          </ns3:TrackPointExtension>
        </extensions>
      </trkpt>
      <trkpt lat="36.82371832430362701416015625" lon="-118.39141686446964740753173828125">
        <ele>3912</ele>
        <time>2021-06-27T16:36:38.000Z</time>
        <extensions>
          <ns3:TrackPointExtension>
            <ns3:atemp>26.0</ns3:atemp>
            <ns3:hr>84</ns3:hr>
          </ns3:TrackPointExtension>
        </extensions>
      </trkpt>
      <trkpt lat="36.82374514639377593994140625" lon="-118.39142122305929660797119140625">
        <ele>3912</ele>
        <time>2021-06-27T16:36:42.000Z</time>
        <extensions>
          <ns3:TrackPointExtension>
            <ns3:atemp>26.0</ns3:atemp>
            <ns3:hr>87</ns3:hr>
          </ns3:TrackPointExtension>
        </extensions>
      </trkpt>
      <trkpt lat="36.82375763542950153350830078125" lon="-118.39142289943993091583251953125">
        <ele>3912</ele>
        <time>2021-06-27T16:36:44.000Z</time>
        <extensions>
          <ns3:TrackPointExtension>
            <ns3:atemp>26.0</ns3:atemp>
            <ns3:hr>84</ns3:hr>
          </ns3:TrackPointExtension>
        </extensions>
      </trkpt>
      <trkpt lat="36.82377071119844913482666015625" lon="-118.39143010787665843963623046875">
        <ele>3912</ele>
        <time>2021-06-27T16:36:46.000Z</time>
        <extensions>
          <ns3:TrackPointExtension>
            <ns3:atemp>26.0</ns3:atemp>
            <ns3:hr>85</ns3:hr>
          </ns3:TrackPointExtension>
        </extensions>
      </trkpt>
      <trkpt lat="36.823793090879917144775390625" lon="-118.39143832214176654815673828125">
        <ele>3911.60009765625</ele>
        <time>2021-06-27T16:36:50.000Z</time>
        <extensions>
          <ns3:TrackPointExtension>
            <ns3:atemp>26.0</ns3:atemp>
            <ns3:hr>84</ns3:hr>
          </ns3:TrackPointExtension>
        </extensions>
      </trkpt>
      <trkpt lat="36.8238029815256595611572265625" lon="-118.391436897218227386474609375">
        <ele>3911.39990234375</ele>
        <time>2021-06-27T16:36:53.000Z</time>
        <extensions>
          <ns3:TrackPointExtension>
            <ns3:atemp>26.0</ns3:atemp>
            <ns3:hr>84</ns3:hr>
          </ns3:TrackPointExtension>
        </extensions>
      </trkpt>
      <trkpt lat="36.82381211780011653900146484375" lon="-118.39143446646630764007568359375">
        <ele>3911</ele>
        <time>2021-06-27T16:36:55.000Z</time>
        <extensions>
          <ns3:TrackPointExtension>
            <ns3:atemp>26.0</ns3:atemp>
            <ns3:hr>81</ns3:hr>
          </ns3:TrackPointExtension>
        </extensions>
      </trkpt>
      <trkpt lat="36.82382117025554180145263671875" lon="-118.39143580757081508636474609375">
        <ele>3910.60009765625</ele>
        <time>2021-06-27T16:36:57.000Z</time>
        <extensions>
          <ns3:TrackPointExtension>
            <ns3:atemp>26.0</ns3:atemp>
            <ns3:hr>83</ns3:hr>
          </ns3:TrackPointExtension>
        </extensions>
      </trkpt>
      <trkpt lat="36.8238398618996143341064453125" lon="-118.39144452475011348724365234375">
        <ele>3911.199951171875</ele>
        <time>2021-06-27T16:37:00.000Z</time>
        <extensions>
          <ns3:TrackPointExtension>
            <ns3:atemp>26.0</ns3:atemp>
            <ns3:hr>81</ns3:hr>
          </ns3:TrackPointExtension>
        </extensions>
      </trkpt>
      <trkpt lat="36.823850758373737335205078125" lon="-118.39144167490303516387939453125">
        <ele>3911.199951171875</ele>
        <time>2021-06-27T16:37:03.000Z</time>
        <extensions>
          <ns3:TrackPointExtension>
            <ns3:atemp>26.0</ns3:atemp>
            <ns3:hr>84</ns3:hr>
          </ns3:TrackPointExtension>
        </extensions>
      </trkpt>
      <trkpt lat="36.82386182248592376708984375" lon="-118.391442932188510894775390625">
        <ele>3911.199951171875</ele>
        <time>2021-06-27T16:37:06.000Z</time>
        <extensions>
          <ns3:TrackPointExtension>
            <ns3:atemp>26.0</ns3:atemp>
            <ns3:hr>83</ns3:hr>
          </ns3:TrackPointExtension>
        </extensions>
      </trkpt>
      <trkpt lat="36.82387464679777622222900390625" lon="-118.39144553057849407196044921875">
        <ele>3910.800048828125</ele>
        <time>2021-06-27T16:37:13.000Z</time>
        <extensions>
          <ns3:TrackPointExtension>
            <ns3:atemp>26.0</ns3:atemp>
            <ns3:hr>79</ns3:hr>
          </ns3:TrackPointExtension>
        </extensions>
      </trkpt>
      <trkpt lat="36.82388856075704097747802734375" lon="-118.39145324192941188812255859375">
        <ele>3911.199951171875</ele>
        <time>2021-06-27T16:37:18.000Z</time>
        <extensions>
          <ns3:TrackPointExtension>
            <ns3:atemp>26.0</ns3:atemp>
            <ns3:hr>76</ns3:hr>
          </ns3:TrackPointExtension>
        </extensions>
      </trkpt>
      <trkpt lat="36.82389224879443645477294921875" lon="-118.39146204292774200439453125">
        <ele>3911.39990234375</ele>
        <time>2021-06-27T16:37:20.000Z</time>
        <extensions>
          <ns3:TrackPointExtension>
            <ns3:atemp>26.0</ns3:atemp>
            <ns3:hr>74</ns3:hr>
          </ns3:TrackPointExtension>
        </extensions>
      </trkpt>
      <trkpt lat="36.82389576919376850128173828125" lon="-118.3914635516703128814697265625">
        <ele>3912.199951171875</ele>
        <time>2021-06-27T16:37:21.000Z</time>
        <extensions>
          <ns3:TrackPointExtension>
            <ns3:atemp>26.0</ns3:atemp>
            <ns3:hr>74</ns3:hr>
          </ns3:TrackPointExtension>
        </extensions>
      </trkpt>
      <trkpt lat="36.823902390897274017333984375" lon="-118.3914595283567905426025390625">
        <ele>3912.60009765625</ele>
        <time>2021-06-27T16:37:32.000Z</time>
        <extensions>
          <ns3:TrackPointExtension>
            <ns3:atemp>26.0</ns3:atemp>
            <ns3:hr>76</ns3:hr>
          </ns3:TrackPointExtension>
        </extensions>
      </trkpt>
      <trkpt lat="36.823902390897274017333984375" lon="-118.391453325748443603515625">
        <ele>3912.60009765625</ele>
        <time>2021-06-27T16:37:36.000Z</time>
        <extensions>
          <ns3:TrackPointExtension>
            <ns3:atemp>26.0</ns3:atemp>
            <ns3:hr>76</ns3:hr>
          </ns3:TrackPointExtension>
        </extensions>
      </trkpt>
      <trkpt lat="36.82390272617340087890625" lon="-118.39144536294043064117431640625">
        <ele>3913</ele>
        <time>2021-06-27T16:37:44.000Z</time>
        <extensions>
          <ns3:TrackPointExtension>
            <ns3:atemp>26.0</ns3:atemp>
            <ns3:hr>79</ns3:hr>
          </ns3:TrackPointExtension>
        </extensions>
      </trkpt>
      <trkpt lat="36.82390381582081317901611328125" lon="-118.39144469238817691802978515625">
        <ele>3913.199951171875</ele>
        <time>2021-06-27T16:37:47.000Z</time>
        <extensions>
          <ns3:TrackPointExtension>
            <ns3:atemp>25.0</ns3:atemp>
            <ns3:hr>83</ns3:hr>
          </ns3:TrackPointExtension>
        </extensions>
      </trkpt>
      <trkpt lat="36.82390381582081317901611328125" lon="-118.391444273293018341064453125">
        <ele>3913.199951171875</ele>
        <time>2021-06-27T16:37:48.000Z</time>
        <extensions>
          <ns3:TrackPointExtension>
            <ns3:atemp>25.0</ns3:atemp>
            <ns3:hr>86</ns3:hr>
          </ns3:TrackPointExtension>
        </extensions>
      </trkpt>
      <trkpt lat="36.82390381582081317901611328125" lon="-118.39144385419785976409912109375">
        <ele>3913</ele>
        <time>2021-06-27T16:37:49.000Z</time>
        <extensions>
          <ns3:TrackPointExtension>
            <ns3:atemp>25.0</ns3:atemp>
            <ns3:hr>89</ns3:hr>
          </ns3:TrackPointExtension>
        </extensions>
      </trkpt>
      <trkpt lat="36.82390280999243259429931640625" lon="-118.3914394117891788482666015625">
        <ele>3913.39990234375</ele>
        <time>2021-06-27T16:37:55.000Z</time>
        <extensions>
          <ns3:TrackPointExtension>
            <ns3:atemp>25.0</ns3:atemp>
            <ns3:hr>88</ns3:hr>
          </ns3:TrackPointExtension>
        </extensions>
      </trkpt>
      <trkpt lat="36.82390381582081317901611328125" lon="-118.39144620113074779510498046875">
        <ele>3913.60009765625</ele>
        <time>2021-06-27T16:38:08.000Z</time>
        <extensions>
          <ns3:TrackPointExtension>
            <ns3:atemp>25.0</ns3:atemp>
            <ns3:hr>91</ns3:hr>
          </ns3:TrackPointExtension>
        </extensions>
      </trkpt>
      <trkpt lat="36.8239042349159717559814453125" lon="-118.391452990472316741943359375">
        <ele>3913.60009765625</ele>
        <time>2021-06-27T16:38:15.000Z</time>
        <extensions>
          <ns3:TrackPointExtension>
            <ns3:atemp>25.0</ns3:atemp>
            <ns3:hr>88</ns3:hr>
          </ns3:TrackPointExtension>
        </extensions>
      </trkpt>
      <trkpt lat="36.82390473783016204833984375" lon="-118.391454331576824188232421875">
        <ele>3913.60009765625</ele>
        <time>2021-06-27T16:38:16.000Z</time>
        <extensions>
          <ns3:TrackPointExtension>
            <ns3:atemp>25.0</ns3:atemp>
            <ns3:hr>88</ns3:hr>
          </ns3:TrackPointExtension>
        </extensions>
      </trkpt>
      <trkpt lat="36.82390817441046237945556640625" lon="-118.3914565108716487884521484375">
        <ele>3913.39990234375</ele>
        <time>2021-06-27T16:38:23.000Z</time>
        <extensions>
          <ns3:TrackPointExtension>
            <ns3:atemp>25.0</ns3:atemp>
            <ns3:hr>85</ns3:hr>
          </ns3:TrackPointExtension>
        </extensions>
      </trkpt>
      <trkpt lat="36.823908425867557525634765625" lon="-118.3914588578045368194580078125">
        <ele>3913.39990234375</ele>
        <time>2021-06-27T16:38:27.000Z</time>
        <extensions>
          <ns3:TrackPointExtension>
            <ns3:atemp>25.0</ns3:atemp>
            <ns3:hr>82</ns3:hr>
          </ns3:TrackPointExtension>
        </extensions>
      </trkpt>
      <trkpt lat="36.823910772800445556640625" lon="-118.3914595283567905426025390625">
        <ele>3913.39990234375</ele>
        <time>2021-06-27T16:38:32.000Z</time>
        <extensions>
          <ns3:TrackPointExtension>
            <ns3:atemp>25.0</ns3:atemp>
            <ns3:hr>79</ns3:hr>
          </ns3:TrackPointExtension>
        </extensions>
      </trkpt>
      <trkpt lat="36.82392485439777374267578125" lon="-118.391456343233585357666015625">
        <ele>3913.60009765625</ele>
        <time>2021-06-27T16:38:38.000Z</time>
        <extensions>
          <ns3:TrackPointExtension>
            <ns3:atemp>25.0</ns3:atemp>
            <ns3:hr>76</ns3:hr>
          </ns3:TrackPointExtension>
        </extensions>
      </trkpt>
      <trkpt lat="36.82392485439777374267578125" lon="-118.39145625941455364227294921875">
        <ele>3913.39990234375</ele>
        <time>2021-06-27T16:38:39.000Z</time>
        <extensions>
          <ns3:TrackPointExtension>
            <ns3:atemp>25.0</ns3:atemp>
            <ns3:hr>79</ns3:hr>
          </ns3:TrackPointExtension>
        </extensions>
      </trkpt>
      <trkpt lat="36.82392485439777374267578125" lon="-118.3914561755955219268798828125">
        <ele>3913.39990234375</ele>
        <time>2021-06-27T16:38:40.000Z</time>
        <extensions>
          <ns3:TrackPointExtension>
            <ns3:atemp>25.0</ns3:atemp>
            <ns3:hr>76</ns3:hr>
          </ns3:TrackPointExtension>
        </extensions>
      </trkpt>
      <trkpt lat="36.8239209987223148345947265625" lon="-118.39145458303391933441162109375">
        <ele>3913.60009765625</ele>
        <time>2021-06-27T16:38:51.000Z</time>
        <extensions>
          <ns3:TrackPointExtension>
            <ns3:atemp>25.0</ns3:atemp>
            <ns3:hr>73</ns3:hr>
          </ns3:TrackPointExtension>
        </extensions>
      </trkpt>
      <trkpt lat="36.823905408382415771484375" lon="-118.39144720695912837982177734375">
        <ele>3914</ele>
        <time>2021-06-27T16:39:20.000Z</time>
        <extensions>
          <ns3:TrackPointExtension>
            <ns3:atemp>25.0</ns3:atemp>
            <ns3:hr>73</ns3:hr>
          </ns3:TrackPointExtension>
        </extensions>
      </trkpt>
      <trkpt lat="36.82390482164919376373291015625" lon="-118.39145324192941188812255859375">
        <ele>3914.199951171875</ele>
        <time>2021-06-27T16:39:27.000Z</time>
        <extensions>
          <ns3:TrackPointExtension>
            <ns3:atemp>25.0</ns3:atemp>
            <ns3:hr>70</ns3:hr>
          </ns3:TrackPointExtension>
        </extensions>
      </trkpt>
      <trkpt lat="36.82390205562114715576171875" lon="-118.39145391248166561126708984375">
        <ele>3914.199951171875</ele>
        <time>2021-06-27T16:39:30.000Z</time>
        <extensions>
          <ns3:TrackPointExtension>
            <ns3:atemp>25.0</ns3:atemp>
            <ns3:hr>67</ns3:hr>
          </ns3:TrackPointExtension>
        </extensions>
      </trkpt>
      <trkpt lat="36.82387766428291797637939453125" lon="-118.39145458303391933441162109375">
        <ele>3914.199951171875</ele>
        <time>2021-06-27T16:39:33.000Z</time>
        <extensions>
          <ns3:TrackPointExtension>
            <ns3:atemp>25.0</ns3:atemp>
            <ns3:hr>64</ns3:hr>
          </ns3:TrackPointExtension>
        </extensions>
      </trkpt>
      <trkpt lat="36.8238606490194797515869140625" lon="-118.391454331576824188232421875">
        <ele>3913.60009765625</ele>
        <time>2021-06-27T16:39:47.000Z</time>
        <extensions>
          <ns3:TrackPointExtension>
            <ns3:atemp>25.0</ns3:atemp>
            <ns3:hr>68</ns3:hr>
          </ns3:TrackPointExtension>
        </extensions>
      </trkpt>
      <trkpt lat="36.82386190630495548248291015625" lon="-118.39145072735846042633056640625">
        <ele>3913.800048828125</ele>
        <time>2021-06-27T16:39:57.000Z</time>
        <extensions>
          <ns3:TrackPointExtension>
            <ns3:atemp>25.0</ns3:atemp>
            <ns3:hr>71</ns3:hr>
          </ns3:TrackPointExtension>
        </extensions>
      </trkpt>
      <trkpt lat="36.8238710425794124603271484375" lon="-118.39144854806363582611083984375">
        <ele>3913.800048828125</ele>
        <time>2021-06-27T16:40:04.000Z</time>
        <extensions>
          <ns3:TrackPointExtension>
            <ns3:atemp>25.0</ns3:atemp>
            <ns3:hr>75</ns3:hr>
          </ns3:TrackPointExtension>
        </extensions>
      </trkpt>
      <trkpt lat="36.82387632317841053009033203125" lon="-118.3914558403193950653076171875">
        <ele>3913.800048828125</ele>
        <time>2021-06-27T16:40:14.000Z</time>
        <extensions>
          <ns3:TrackPointExtension>
            <ns3:atemp>25.0</ns3:atemp>
            <ns3:hr>72</ns3:hr>
          </ns3:TrackPointExtension>
        </extensions>
      </trkpt>
      <trkpt lat="36.82387649081647396087646484375" lon="-118.39145659469068050384521484375">
        <ele>3913.800048828125</ele>
        <time>2021-06-27T16:40:15.000Z</time>
        <extensions>
          <ns3:TrackPointExtension>
            <ns3:atemp>25.0</ns3:atemp>
            <ns3:hr>75</ns3:hr>
          </ns3:TrackPointExtension>
        </extensions>
      </trkpt>
      <trkpt lat="36.823876909911632537841796875" lon="-118.39145810343325138092041015625">
        <ele>3913.800048828125</ele>
        <time>2021-06-27T16:40:18.000Z</time>
        <extensions>
          <ns3:TrackPointExtension>
            <ns3:atemp>25.0</ns3:atemp>
            <ns3:hr>72</ns3:hr>
          </ns3:TrackPointExtension>
        </extensions>
      </trkpt>
      <trkpt lat="36.823877580463886260986328125" lon="-118.39145894162356853485107421875">
        <ele>3913.800048828125</ele>
        <time>2021-06-27T16:40:21.000Z</time>
        <extensions>
          <ns3:TrackPointExtension>
            <ns3:atemp>25.0</ns3:atemp>
            <ns3:hr>75</ns3:hr>
          </ns3:TrackPointExtension>
        </extensions>
      </trkpt>
      <trkpt lat="36.82387816719710826873779296875" lon="-118.39145961217582225799560546875">
        <ele>3913.800048828125</ele>
        <time>2021-06-27T16:40:24.000Z</time>
        <extensions>
          <ns3:TrackPointExtension>
            <ns3:atemp>25.0</ns3:atemp>
            <ns3:hr>78</ns3:hr>
          </ns3:TrackPointExtension>
        </extensions>
      </trkpt>
      <trkpt lat="36.823879592120647430419921875" lon="-118.3914612047374248504638671875">
        <ele>3913.800048828125</ele>
        <time>2021-06-27T16:40:29.000Z</time>
        <extensions>
          <ns3:TrackPointExtension>
            <ns3:atemp>25.0</ns3:atemp>
            <ns3:hr>81</ns3:hr>
          </ns3:TrackPointExtension>
        </extensions>
      </trkpt>
      <trkpt lat="36.82388051412999629974365234375" lon="-118.39146204292774200439453125">
        <ele>3913.800048828125</ele>
        <time>2021-06-27T16:40:35.000Z</time>
        <extensions>
          <ns3:TrackPointExtension>
            <ns3:atemp>25.0</ns3:atemp>
            <ns3:hr>84</ns3:hr>
          </ns3:TrackPointExtension>
        </extensions>
      </trkpt>
      <trkpt lat="36.82388235814869403839111328125" lon="-118.39146212674677371978759765625">
        <ele>3913.800048828125</ele>
        <time>2021-06-27T16:40:42.000Z</time>
        <extensions>
          <ns3:TrackPointExtension>
            <ns3:atemp>25.0</ns3:atemp>
            <ns3:hr>81</ns3:hr>
          </ns3:TrackPointExtension>
        </extensions>
      </trkpt>
      <trkpt lat="36.82388252578675746917724609375" lon="-118.39146204292774200439453125">
        <ele>3913.800048828125</ele>
        <time>2021-06-27T16:40:45.000Z</time>
        <extensions>
          <ns3:TrackPointExtension>
            <ns3:atemp>24.0</ns3:atemp>
            <ns3:hr>78</ns3:hr>
          </ns3:TrackPointExtension>
        </extensions>
      </trkpt>
      <trkpt lat="36.82388269342482089996337890625" lon="-118.39146204292774200439453125">
        <ele>3913.800048828125</ele>
        <time>2021-06-27T16:40:52.000Z</time>
        <extensions>
          <ns3:TrackPointExtension>
            <ns3:atemp>24.0</ns3:atemp>
            <ns3:hr>75</ns3:hr>
          </ns3:TrackPointExtension>
        </extensions>
      </trkpt>
      <trkpt lat="36.82388286106288433074951171875" lon="-118.39146204292774200439453125">
        <ele>3913.800048828125</ele>
        <time>2021-06-27T16:40:58.000Z</time>
        <extensions>
          <ns3:TrackPointExtension>
            <ns3:atemp>24.0</ns3:atemp>
            <ns3:hr>78</ns3:hr>
          </ns3:TrackPointExtension>
        </extensions>
      </trkpt>
      <trkpt lat="36.823882944881916046142578125" lon="-118.39146204292774200439453125">
        <ele>3913.800048828125</ele>
        <time>2021-06-27T16:41:01.000Z</time>
        <extensions>
          <ns3:TrackPointExtension>
            <ns3:atemp>24.0</ns3:atemp>
            <ns3:hr>74</ns3:hr>
          </ns3:TrackPointExtension>
        </extensions>
      </trkpt>
      <trkpt lat="36.82388369925320148468017578125" lon="-118.3914622105658054351806640625">
        <ele>3913.800048828125</ele>
        <time>2021-06-27T16:41:16.000Z</time>
        <extensions>
          <ns3:TrackPointExtension>
            <ns3:atemp>25.0</ns3:atemp>
            <ns3:hr>78</ns3:hr>
          </ns3:TrackPointExtension>
        </extensions>
      </trkpt>
      <trkpt lat="36.8238841183483600616455078125" lon="-118.391462378203868865966796875">
        <ele>3913.800048828125</ele>
        <time>2021-06-27T16:41:23.000Z</time>
        <extensions>
          <ns3:TrackPointExtension>
            <ns3:atemp>24.0</ns3:atemp>
            <ns3:hr>81</ns3:hr>
          </ns3:TrackPointExtension>
        </extensions>
      </trkpt>
      <trkpt lat="36.82388571090996265411376953125" lon="-118.3914628811180591583251953125">
        <ele>3913.800048828125</ele>
        <time>2021-06-27T16:41:39.000Z</time>
        <extensions>
          <ns3:TrackPointExtension>
            <ns3:atemp>24.0</ns3:atemp>
            <ns3:hr>78</ns3:hr>
          </ns3:TrackPointExtension>
        </extensions>
      </trkpt>
      <trkpt lat="36.8238878063857555389404296875" lon="-118.3914628811180591583251953125">
        <ele>3913.800048828125</ele>
        <time>2021-06-27T16:41:50.000Z</time>
        <extensions>
          <ns3:TrackPointExtension>
            <ns3:atemp>24.0</ns3:atemp>
            <ns3:hr>81</ns3:hr>
          </ns3:TrackPointExtension>
        </extensions>
      </trkpt>
      <trkpt lat="36.8238879740238189697265625" lon="-118.3914628811180591583251953125">
        <ele>3910.199951171875</ele>
        <time>2021-06-27T16:41:51.000Z</time>
        <extensions>
          <ns3:TrackPointExtension>
            <ns3:atemp>24.0</ns3:atemp>
            <ns3:hr>83</ns3:hr>
          </ns3:TrackPointExtension>
        </extensions>
      </trkpt>
      <trkpt lat="36.82388822548091411590576171875" lon="-118.3914628811180591583251953125">
        <ele>3910.199951171875</ele>
        <time>2021-06-27T16:41:52.000Z</time>
        <extensions>
          <ns3:TrackPointExtension>
            <ns3:atemp>24.0</ns3:atemp>
            <ns3:hr>86</ns3:hr>
          </ns3:TrackPointExtension>
        </extensions>
      </trkpt>
      <trkpt lat="36.8238884769380092620849609375" lon="-118.3914628811180591583251953125">
        <ele>3910.199951171875</ele>
        <time>2021-06-27T16:41:53.000Z</time>
        <extensions>
          <ns3:TrackPointExtension>
            <ns3:atemp>24.0</ns3:atemp>
            <ns3:hr>89</ns3:hr>
          </ns3:TrackPointExtension>
        </extensions>
      </trkpt>
      <trkpt lat="36.8238928355276584625244140625" lon="-118.3914628811180591583251953125">
        <ele>3909.39990234375</ele>
        <time>2021-06-27T16:42:08.000Z</time>
        <extensions>
          <ns3:TrackPointExtension>
            <ns3:atemp>24.0</ns3:atemp>
            <ns3:hr>86</ns3:hr>
          </ns3:TrackPointExtension>
        </extensions>
      </trkpt>
      <trkpt lat="36.8238935060799121856689453125" lon="-118.3914628811180591583251953125">
        <ele>3909.199951171875</ele>
        <time>2021-06-27T16:42:10.000Z</time>
        <extensions>
          <ns3:TrackPointExtension>
            <ns3:atemp>24.0</ns3:atemp>
            <ns3:hr>84</ns3:hr>
          </ns3:TrackPointExtension>
        </extensions>
      </trkpt>
      <trkpt lat="36.82389576919376850128173828125" lon="-118.3914632163941860198974609375">
        <ele>3908.60009765625</ele>
        <time>2021-06-27T16:42:16.000Z</time>
        <extensions>
          <ns3:TrackPointExtension>
            <ns3:atemp>24.0</ns3:atemp>
            <ns3:hr>80</ns3:hr>
          </ns3:TrackPointExtension>
        </extensions>
      </trkpt>
      <trkpt lat="36.82389660738408565521240234375" lon="-118.39146338403224945068359375">
        <ele>3908.39990234375</ele>
        <time>2021-06-27T16:42:18.000Z</time>
        <extensions>
          <ns3:TrackPointExtension>
            <ns3:atemp>25.0</ns3:atemp>
            <ns3:hr>76</ns3:hr>
          </ns3:TrackPointExtension>
        </extensions>
      </trkpt>
      <trkpt lat="36.8238998763263225555419921875" lon="-118.3914642222225666046142578125">
        <ele>3908.800048828125</ele>
        <time>2021-06-27T16:42:26.000Z</time>
        <extensions>
          <ns3:TrackPointExtension>
            <ns3:atemp>24.0</ns3:atemp>
            <ns3:hr>73</ns3:hr>
          </ns3:TrackPointExtension>
        </extensions>
      </trkpt>
      <trkpt lat="36.8239012174308300018310546875" lon="-118.39146464131772518157958984375">
        <ele>3908.800048828125</ele>
        <time>2021-06-27T16:42:29.000Z</time>
        <extensions>
          <ns3:TrackPointExtension>
            <ns3:atemp>24.0</ns3:atemp>
            <ns3:hr>70</ns3:hr>
          </ns3:TrackPointExtension>
        </extensions>
      </trkpt>
      <trkpt lat="36.823903061449527740478515625" lon="-118.39146514423191547393798828125">
        <ele>3909</ele>
        <time>2021-06-27T16:42:33.000Z</time>
        <extensions>
          <ns3:TrackPointExtension>
            <ns3:atemp>24.0</ns3:atemp>
            <ns3:hr>67</ns3:hr>
          </ns3:TrackPointExtension>
        </extensions>
      </trkpt>
      <trkpt lat="36.82397975586354732513427734375" lon="-118.391477130353450775146484375">
        <ele>3910.60009765625</ele>
        <time>2021-06-27T16:42:37.000Z</time>
        <extensions>
          <ns3:TrackPointExtension>
            <ns3:atemp>24.0</ns3:atemp>
            <ns3:hr>66</ns3:hr>
          </ns3:TrackPointExtension>
        </extensions>
      </trkpt>
      <trkpt lat="36.82401780970394611358642578125" lon="-118.39148819446563720703125">
        <ele>3910.60009765625</ele>
        <time>2021-06-27T16:42:38.000Z</time>
        <extensions>
          <ns3:TrackPointExtension>
            <ns3:atemp>24.0</ns3:atemp>
            <ns3:hr>70</ns3:hr>
          </ns3:TrackPointExtension>
        </extensions>
      </trkpt>
      <trkpt lat="36.82409157045185565948486328125" lon="-118.39150034822523593902587890625">
        <ele>3911</ele>
        <time>2021-06-27T16:42:40.000Z</time>
        <extensions>
          <ns3:TrackPointExtension>
            <ns3:atemp>24.0</ns3:atemp>
            <ns3:hr>70</ns3:hr>
          </ns3:TrackPointExtension>
        </extensions>
      </trkpt>
      <trkpt lat="36.8242881260812282562255859375" lon="-118.39152147062122821807861328125">
        <ele>3910.800048828125</ele>
        <time>2021-06-27T16:42:50.000Z</time>
        <extensions>
          <ns3:TrackPointExtension>
            <ns3:atemp>24.0</ns3:atemp>
            <ns3:hr>72</ns3:hr>
          </ns3:TrackPointExtension>
        </extensions>
      </trkpt>
      <trkpt lat="36.8242881260812282562255859375" lon="-118.39152147062122821807861328125">
        <ele>3910.60009765625</ele>
        <time>2021-06-27T16:42:56.000Z</time>
        <extensions>
          <ns3:TrackPointExtension>
            <ns3:atemp>24.0</ns3:atemp>
            <ns3:hr>72</ns3:hr>
          </ns3:TrackPointExtension>
        </extensions>
      </trkpt>
      <trkpt lat="36.8242881260812282562255859375" lon="-118.39152264408767223358154296875">
        <ele>3910.60009765625</ele>
        <time>2021-06-27T16:43:02.000Z</time>
        <extensions>
          <ns3:TrackPointExtension>
            <ns3:atemp>24.0</ns3:atemp>
            <ns3:hr>75</ns3:hr>
          </ns3:TrackPointExtension>
        </extensions>
      </trkpt>
      <trkpt lat="36.82428334839642047882080078125" lon="-118.3915232308208942413330078125">
        <ele>3910.60009765625</ele>
        <time>2021-06-27T16:43:07.000Z</time>
        <extensions>
          <ns3:TrackPointExtension>
            <ns3:atemp>24.0</ns3:atemp>
            <ns3:hr>70</ns3:hr>
          </ns3:TrackPointExtension>
        </extensions>
      </trkpt>
      <trkpt lat="36.82428334839642047882080078125" lon="-118.39152373373508453369140625">
        <ele>3910.60009765625</ele>
        <time>2021-06-27T16:43:08.000Z</time>
        <extensions>
          <ns3:TrackPointExtension>
            <ns3:atemp>24.0</ns3:atemp>
            <ns3:hr>73</ns3:hr>
          </ns3:TrackPointExtension>
        </extensions>
      </trkpt>
      <trkpt lat="36.82428351603448390960693359375" lon="-118.39152331463992595672607421875">
        <ele>3910.60009765625</ele>
        <time>2021-06-27T16:43:12.000Z</time>
        <extensions>
          <ns3:TrackPointExtension>
            <ns3:atemp>24.0</ns3:atemp>
            <ns3:hr>77</ns3:hr>
          </ns3:TrackPointExtension>
        </extensions>
      </trkpt>
      <trkpt lat="36.824283599853515625" lon="-118.3915232308208942413330078125">
        <ele>3910.60009765625</ele>
        <time>2021-06-27T16:43:13.000Z</time>
        <extensions>
          <ns3:TrackPointExtension>
            <ns3:atemp>24.0</ns3:atemp>
            <ns3:hr>80</ns3:hr>
          </ns3:TrackPointExtension>
        </extensions>
      </trkpt>
      <trkpt lat="36.82428368367254734039306640625" lon="-118.3915232308208942413330078125">
        <ele>3910.60009765625</ele>
        <time>2021-06-27T16:43:15.000Z</time>
        <extensions>
          <ns3:TrackPointExtension>
            <ns3:atemp>24.0</ns3:atemp>
            <ns3:hr>77</ns3:hr>
          </ns3:TrackPointExtension>
        </extensions>
      </trkpt>
      <trkpt lat="36.82428703643381595611572265625" lon="-118.39151157997548580169677734375">
        <ele>3910.60009765625</ele>
        <time>2021-06-27T16:43:25.000Z</time>
        <extensions>
          <ns3:TrackPointExtension>
            <ns3:atemp>24.0</ns3:atemp>
            <ns3:hr>80</ns3:hr>
          </ns3:TrackPointExtension>
        </extensions>
      </trkpt>
      <trkpt lat="36.824289970099925994873046875" lon="-118.391510657966136932373046875">
        <ele>3910.60009765625</ele>
        <time>2021-06-27T16:43:33.000Z</time>
        <extensions>
          <ns3:TrackPointExtension>
            <ns3:atemp>24.0</ns3:atemp>
            <ns3:hr>83</ns3:hr>
          </ns3:TrackPointExtension>
        </extensions>
      </trkpt>
      <trkpt lat="36.82428561151027679443359375" lon="-118.3915190398693084716796875">
        <ele>3910.60009765625</ele>
        <time>2021-06-27T16:43:44.000Z</time>
        <extensions>
          <ns3:TrackPointExtension>
            <ns3:atemp>24.0</ns3:atemp>
            <ns3:hr>79</ns3:hr>
          </ns3:TrackPointExtension>
        </extensions>
      </trkpt>
      <trkpt lat="36.824281923472881317138671875" lon="-118.39152038097381591796875">
        <ele>3910.60009765625</ele>
        <time>2021-06-27T16:43:47.000Z</time>
        <extensions>
          <ns3:TrackPointExtension>
            <ns3:atemp>24.0</ns3:atemp>
            <ns3:hr>76</ns3:hr>
          </ns3:TrackPointExtension>
        </extensions>
      </trkpt>
      <trkpt lat="36.82427949272096157073974609375" lon="-118.39152046479284763336181640625">
        <ele>3910.60009765625</ele>
        <time>2021-06-27T16:43:57.000Z</time>
        <extensions>
          <ns3:TrackPointExtension>
            <ns3:atemp>24.0</ns3:atemp>
            <ns3:hr>73</ns3:hr>
          </ns3:TrackPointExtension>
        </extensions>
      </trkpt>
      <trkpt lat="36.82428267784416675567626953125" lon="-118.391517363488674163818359375">
        <ele>3910.60009765625</ele>
        <time>2021-06-27T16:44:05.000Z</time>
        <extensions>
          <ns3:TrackPointExtension>
            <ns3:atemp>24.0</ns3:atemp>
            <ns3:hr>76</ns3:hr>
          </ns3:TrackPointExtension>
        </extensions>
      </trkpt>
      <trkpt lat="36.8243105895817279815673828125" lon="-118.39151442982256412506103515625">
        <ele>3910.60009765625</ele>
        <time>2021-06-27T16:44:09.000Z</time>
        <extensions>
          <ns3:TrackPointExtension>
            <ns3:atemp>24.0</ns3:atemp>
            <ns3:hr>79</ns3:hr>
          </ns3:TrackPointExtension>
        </extensions>
      </trkpt>
      <trkpt lat="36.82438745163381099700927734375" lon="-118.39148727245628833770751953125">
        <ele>3910.60009765625</ele>
        <time>2021-06-27T16:44:23.000Z</time>
        <extensions>
          <ns3:TrackPointExtension>
            <ns3:atemp>24.0</ns3:atemp>
            <ns3:hr>83</ns3:hr>
          </ns3:TrackPointExtension>
        </extensions>
      </trkpt>
      <trkpt lat="36.82442718185484409332275390625" lon="-118.3914806507527828216552734375">
        <ele>3910.60009765625</ele>
        <time>2021-06-27T16:44:30.000Z</time>
        <extensions>
          <ns3:TrackPointExtension>
            <ns3:atemp>24.0</ns3:atemp>
            <ns3:hr>80</ns3:hr>
          </ns3:TrackPointExtension>
        </extensions>
      </trkpt>
      <trkpt lat="36.824519634246826171875" lon="-118.39146296493709087371826171875">
        <ele>3910.60009765625</ele>
        <time>2021-06-27T16:44:47.000Z</time>
        <extensions>
          <ns3:TrackPointExtension>
            <ns3:atemp>24.0</ns3:atemp>
            <ns3:hr>76</ns3:hr>
          </ns3:TrackPointExtension>
        </extensions>
      </trkpt>
      <trkpt lat="36.8245278485119342803955078125" lon="-118.3914625458419322967529296875">
        <ele>3910.60009765625</ele>
        <time>2021-06-27T16:44:49.000Z</time>
        <extensions>
          <ns3:TrackPointExtension>
            <ns3:atemp>24.0</ns3:atemp>
            <ns3:hr>79</ns3:hr>
          </ns3:TrackPointExtension>
        </extensions>
      </trkpt>
      <trkpt lat="36.82454670779407024383544921875" lon="-118.39146229438483715057373046875">
        <ele>3910.60009765625</ele>
        <time>2021-06-27T16:44:55.000Z</time>
        <extensions>
          <ns3:TrackPointExtension>
            <ns3:atemp>24.0</ns3:atemp>
            <ns3:hr>83</ns3:hr>
          </ns3:TrackPointExtension>
        </extensions>
      </trkpt>
      <trkpt lat="36.82454821653664112091064453125" lon="-118.39146229438483715057373046875">
        <ele>3910.60009765625</ele>
        <time>2021-06-27T16:44:56.000Z</time>
        <extensions>
          <ns3:TrackPointExtension>
            <ns3:atemp>24.0</ns3:atemp>
            <ns3:hr>86</ns3:hr>
          </ns3:TrackPointExtension>
        </extensions>
      </trkpt>
      <trkpt lat="36.82454939000308513641357421875" lon="-118.391462378203868865966796875">
        <ele>3910.60009765625</ele>
        <time>2021-06-27T16:44:57.000Z</time>
        <extensions>
          <ns3:TrackPointExtension>
            <ns3:atemp>24.0</ns3:atemp>
            <ns3:hr>89</ns3:hr>
          </ns3:TrackPointExtension>
        </extensions>
      </trkpt>
      <trkpt lat="36.82458333671092987060546875" lon="-118.39146447367966175079345703125">
        <ele>3910.60009765625</ele>
        <time>2021-06-27T16:45:11.000Z</time>
        <extensions>
          <ns3:TrackPointExtension>
            <ns3:atemp>25.0</ns3:atemp>
            <ns3:hr>86</ns3:hr>
          </ns3:TrackPointExtension>
        </extensions>
      </trkpt>
      <trkpt lat="36.82458258233964443206787109375" lon="-118.3914615400135517120361328125">
        <ele>3910.60009765625</ele>
        <time>2021-06-27T16:45:23.000Z</time>
        <extensions>
          <ns3:TrackPointExtension>
            <ns3:atemp>25.0</ns3:atemp>
            <ns3:hr>85</ns3:hr>
          </ns3:TrackPointExtension>
        </extensions>
      </trkpt>
      <trkpt lat="36.8246341310441493988037109375" lon="-118.39141133241355419158935546875">
        <ele>3910.60009765625</ele>
        <time>2021-06-27T16:45:49.000Z</time>
        <extensions>
          <ns3:TrackPointExtension>
            <ns3:atemp>25.0</ns3:atemp>
            <ns3:hr>86</ns3:hr>
          </ns3:TrackPointExtension>
        </extensions>
      </trkpt>
      <trkpt lat="36.82464343495666980743408203125" lon="-118.3914125896990299224853515625">
        <ele>3910.60009765625</ele>
        <time>2021-06-27T16:45:50.000Z</time>
        <extensions>
          <ns3:TrackPointExtension>
            <ns3:atemp>25.0</ns3:atemp>
            <ns3:hr>86</ns3:hr>
          </ns3:TrackPointExtension>
        </extensions>
      </trkpt>
      <trkpt lat="36.82467193342745304107666015625" lon="-118.3914055489003658294677734375">
        <ele>3910.60009765625</ele>
        <time>2021-06-27T16:45:52.000Z</time>
        <extensions>
          <ns3:TrackPointExtension>
            <ns3:atemp>25.0</ns3:atemp>
            <ns3:hr>86</ns3:hr>
          </ns3:TrackPointExtension>
        </extensions>
      </trkpt>
      <trkpt lat="36.824688278138637542724609375" lon="-118.39140110649168491363525390625">
        <ele>3910.60009765625</ele>
        <time>2021-06-27T16:45:55.000Z</time>
        <extensions>
          <ns3:TrackPointExtension>
            <ns3:atemp>25.0</ns3:atemp>
            <ns3:hr>85</ns3:hr>
          </ns3:TrackPointExtension>
        </extensions>
      </trkpt>
      <trkpt lat="36.82469875551760196685791015625" lon="-118.39139976538717746734619140625">
        <ele>3910.60009765625</ele>
        <time>2021-06-27T16:45:57.000Z</time>
        <extensions>
          <ns3:TrackPointExtension>
            <ns3:atemp>25.0</ns3:atemp>
            <ns3:hr>86</ns3:hr>
          </ns3:TrackPointExtension>
        </extensions>
      </trkpt>
      <trkpt lat="36.82471610605716705322265625" lon="-118.39141032658517360687255859375">
        <ele>3910.199951171875</ele>
        <time>2021-06-27T16:46:01.000Z</time>
        <extensions>
          <ns3:TrackPointExtension>
            <ns3:atemp>25.0</ns3:atemp>
            <ns3:hr>87</ns3:hr>
          </ns3:TrackPointExtension>
        </extensions>
      </trkpt>
      <trkpt lat="36.82471887208521366119384765625" lon="-118.39141108095645904541015625">
        <ele>3909.800048828125</ele>
        <time>2021-06-27T16:46:03.000Z</time>
        <extensions>
          <ns3:TrackPointExtension>
            <ns3:atemp>25.0</ns3:atemp>
            <ns3:hr>87</ns3:hr>
          </ns3:TrackPointExtension>
        </extensions>
      </trkpt>
      <trkpt lat="36.8247202970087528228759765625" lon="-118.39141233824193477630615234375">
        <ele>3909.800048828125</ele>
        <time>2021-06-27T16:46:04.000Z</time>
        <extensions>
          <ns3:TrackPointExtension>
            <ns3:atemp>25.0</ns3:atemp>
            <ns3:hr>88</ns3:hr>
          </ns3:TrackPointExtension>
        </extensions>
      </trkpt>
      <trkpt lat="36.82472960092127323150634765625" lon="-118.39142021723091602325439453125">
        <ele>3909.800048828125</ele>
        <time>2021-06-27T16:46:08.000Z</time>
        <extensions>
          <ns3:TrackPointExtension>
            <ns3:atemp>25.0</ns3:atemp>
            <ns3:hr>91</ns3:hr>
          </ns3:TrackPointExtension>
        </extensions>
      </trkpt>
      <trkpt lat="36.82473831810057163238525390625" lon="-118.3914192952215671539306640625">
        <ele>3909.60009765625</ele>
        <time>2021-06-27T16:46:10.000Z</time>
        <extensions>
          <ns3:TrackPointExtension>
            <ns3:atemp>25.0</ns3:atemp>
            <ns3:hr>92</ns3:hr>
          </ns3:TrackPointExtension>
        </extensions>
      </trkpt>
      <trkpt lat="36.82475642301142215728759765625" lon="-118.3914171159267425537109375">
        <ele>3909.800048828125</ele>
        <time>2021-06-27T16:46:16.000Z</time>
        <extensions>
          <ns3:TrackPointExtension>
            <ns3:atemp>25.0</ns3:atemp>
            <ns3:hr>90</ns3:hr>
          </ns3:TrackPointExtension>
        </extensions>
      </trkpt>
      <trkpt lat="36.82475642301142215728759765625" lon="-118.391420133411884307861328125">
        <ele>3911.60009765625</ele>
        <time>2021-06-27T16:46:29.000Z</time>
        <extensions>
          <ns3:TrackPointExtension>
            <ns3:atemp>25.0</ns3:atemp>
            <ns3:hr>91</ns3:hr>
          </ns3:TrackPointExtension>
        </extensions>
      </trkpt>
      <trkpt lat="36.82481442578136920928955078125" lon="-118.391406051814556121826171875">
        <ele>3912.39990234375</ele>
        <time>2021-06-27T16:46:38.000Z</time>
        <extensions>
          <ns3:TrackPointExtension>
            <ns3:atemp>25.0</ns3:atemp>
            <ns3:hr>92</ns3:hr>
          </ns3:TrackPointExtension>
        </extensions>
      </trkpt>
      <trkpt lat="36.82482884265482425689697265625" lon="-118.39139943011105060577392578125">
        <ele>3912.39990234375</ele>
        <time>2021-06-27T16:46:39.000Z</time>
        <extensions>
          <ns3:TrackPointExtension>
            <ns3:atemp>25.0</ns3:atemp>
            <ns3:hr>91</ns3:hr>
          </ns3:TrackPointExtension>
        </extensions>
      </trkpt>
      <trkpt lat="36.82486857287585735321044921875" lon="-118.391372859477996826171875">
        <ele>3912.199951171875</ele>
        <time>2021-06-27T16:46:43.000Z</time>
        <extensions>
          <ns3:TrackPointExtension>
            <ns3:atemp>25.0</ns3:atemp>
            <ns3:hr>94</ns3:hr>
          </ns3:TrackPointExtension>
        </extensions>
      </trkpt>
      <trkpt lat="36.82486840523779392242431640625" lon="-118.3913730271160602569580078125">
        <ele>3912</ele>
        <time>2021-06-27T16:46:44.000Z</time>
        <extensions>
          <ns3:TrackPointExtension>
            <ns3:atemp>25.0</ns3:atemp>
            <ns3:hr>95</ns3:hr>
          </ns3:TrackPointExtension>
        </extensions>
      </trkpt>
      <trkpt lat="36.8248815648257732391357421875" lon="-118.39137344621121883392333984375">
        <ele>3912.199951171875</ele>
        <time>2021-06-27T16:46:52.000Z</time>
        <extensions>
          <ns3:TrackPointExtension>
            <ns3:atemp>25.0</ns3:atemp>
            <ns3:hr>95</ns3:hr>
          </ns3:TrackPointExtension>
        </extensions>
      </trkpt>
      <trkpt lat="36.8248815648257732391357421875" lon="-118.39137344621121883392333984375">
        <ele>3912.39990234375</ele>
        <time>2021-06-27T16:47:04.000Z</time>
        <extensions>
          <ns3:TrackPointExtension>
            <ns3:atemp>25.0</ns3:atemp>
            <ns3:hr>98</ns3:hr>
          </ns3:TrackPointExtension>
        </extensions>
      </trkpt>
      <trkpt lat="36.82488617487251758575439453125" lon="-118.39137210510671138763427734375">
        <ele>3912.199951171875</ele>
        <time>2021-06-27T16:47:12.000Z</time>
        <extensions>
          <ns3:TrackPointExtension>
            <ns3:atemp>25.0</ns3:atemp>
            <ns3:hr>101</ns3:hr>
          </ns3:TrackPointExtension>
        </extensions>
      </trkpt>
      <trkpt lat="36.8248879350721836090087890625" lon="-118.39137210510671138763427734375">
        <ele>3912.39990234375</ele>
        <time>2021-06-27T16:47:17.000Z</time>
        <extensions>
          <ns3:TrackPointExtension>
            <ns3:atemp>25.0</ns3:atemp>
            <ns3:hr>104</ns3:hr>
          </ns3:TrackPointExtension>
        </extensions>
      </trkpt>
      <trkpt lat="36.824888102710247039794921875" lon="-118.39137210510671138763427734375">
        <ele>3912.39990234375</ele>
        <time>2021-06-27T16:47:19.000Z</time>
        <extensions>
          <ns3:TrackPointExtension>
            <ns3:atemp>25.0</ns3:atemp>
            <ns3:hr>101</ns3:hr>
          </ns3:TrackPointExtension>
        </extensions>
      </trkpt>
      <trkpt lat="36.82488835416734218597412109375" lon="-118.39137210510671138763427734375">
        <ele>3912.39990234375</ele>
        <time>2021-06-27T16:47:23.000Z</time>
        <extensions>
          <ns3:TrackPointExtension>
            <ns3:atemp>25.0</ns3:atemp>
            <ns3:hr>98</ns3:hr>
          </ns3:TrackPointExtension>
        </extensions>
      </trkpt>
      <trkpt lat="36.82488835416734218597412109375" lon="-118.3913733623921871185302734375">
        <ele>3912.39990234375</ele>
        <time>2021-06-27T16:47:27.000Z</time>
        <extensions>
          <ns3:TrackPointExtension>
            <ns3:atemp>25.0</ns3:atemp>
            <ns3:hr>95</ns3:hr>
          </ns3:TrackPointExtension>
        </extensions>
      </trkpt>
      <trkpt lat="36.82488818652927875518798828125" lon="-118.39137621223926544189453125">
        <ele>3912.39990234375</ele>
        <time>2021-06-27T16:47:30.000Z</time>
        <extensions>
          <ns3:TrackPointExtension>
            <ns3:atemp>25.0</ns3:atemp>
            <ns3:hr>92</ns3:hr>
          </ns3:TrackPointExtension>
        </extensions>
      </trkpt>
      <trkpt lat="36.82488818652927875518798828125" lon="-118.3913768827915191650390625">
        <ele>3912.39990234375</ele>
        <time>2021-06-27T16:47:31.000Z</time>
        <extensions>
          <ns3:TrackPointExtension>
            <ns3:atemp>25.0</ns3:atemp>
            <ns3:hr>89</ns3:hr>
          </ns3:TrackPointExtension>
        </extensions>
      </trkpt>
      <trkpt lat="36.824888102710247039794921875" lon="-118.391379229724407196044921875">
        <ele>3912.39990234375</ele>
        <time>2021-06-27T16:47:34.000Z</time>
        <extensions>
          <ns3:TrackPointExtension>
            <ns3:atemp>25.0</ns3:atemp>
            <ns3:hr>86</ns3:hr>
          </ns3:TrackPointExtension>
        </extensions>
      </trkpt>
      <trkpt lat="36.8248884379863739013671875" lon="-118.39138015173375606536865234375">
        <ele>3912</ele>
        <time>2021-06-27T16:47:37.000Z</time>
        <extensions>
          <ns3:TrackPointExtension>
            <ns3:atemp>25.0</ns3:atemp>
            <ns3:hr>86</ns3:hr>
          </ns3:TrackPointExtension>
        </extensions>
      </trkpt>
      <trkpt lat="36.8248884379863739013671875" lon="-118.39138015173375606536865234375">
        <ele>3912.199951171875</ele>
        <time>2021-06-27T16:47:40.000Z</time>
        <extensions>
          <ns3:TrackPointExtension>
            <ns3:atemp>25.0</ns3:atemp>
            <ns3:hr>89</ns3:hr>
          </ns3:TrackPointExtension>
        </extensions>
      </trkpt>
      <trkpt lat="36.82488751597702503204345703125" lon="-118.39138015173375606536865234375">
        <ele>3912.60009765625</ele>
        <time>2021-06-27T16:47:50.000Z</time>
        <extensions>
          <ns3:TrackPointExtension>
            <ns3:atemp>25.0</ns3:atemp>
            <ns3:hr>86</ns3:hr>
          </ns3:TrackPointExtension>
        </extensions>
      </trkpt>
      <trkpt lat="36.8248872645199298858642578125" lon="-118.3913790620863437652587890625">
        <ele>3912.39990234375</ele>
        <time>2021-06-27T16:47:52.000Z</time>
        <extensions>
          <ns3:TrackPointExtension>
            <ns3:atemp>25.0</ns3:atemp>
            <ns3:hr>83</ns3:hr>
          </ns3:TrackPointExtension>
        </extensions>
      </trkpt>
      <trkpt lat="36.8248872645199298858642578125" lon="-118.391377888619899749755859375">
        <ele>3912.199951171875</ele>
        <time>2021-06-27T16:47:54.000Z</time>
        <extensions>
          <ns3:TrackPointExtension>
            <ns3:atemp>25.0</ns3:atemp>
            <ns3:hr>80</ns3:hr>
          </ns3:TrackPointExtension>
        </extensions>
      </trkpt>
      <trkpt lat="36.82488751597702503204345703125" lon="-118.39137487113475799560546875">
        <ele>3912</ele>
        <time>2021-06-27T16:47:57.000Z</time>
        <extensions>
          <ns3:TrackPointExtension>
            <ns3:atemp>25.0</ns3:atemp>
            <ns3:hr>77</ns3:hr>
          </ns3:TrackPointExtension>
        </extensions>
      </trkpt>
      <trkpt lat="36.82488751597702503204345703125" lon="-118.39137026108801364898681640625">
        <ele>3912.60009765625</ele>
        <time>2021-06-27T16:48:00.000Z</time>
        <extensions>
          <ns3:TrackPointExtension>
            <ns3:atemp>25.0</ns3:atemp>
            <ns3:hr>76</ns3:hr>
          </ns3:TrackPointExtension>
        </extensions>
      </trkpt>
      <trkpt lat="36.82488902471959590911865234375" lon="-118.39136187918484210968017578125">
        <ele>3912.60009765625</ele>
        <time>2021-06-27T16:48:17.000Z</time>
        <extensions>
          <ns3:TrackPointExtension>
            <ns3:atemp>26.0</ns3:atemp>
            <ns3:hr>79</ns3:hr>
          </ns3:TrackPointExtension>
        </extensions>
      </trkpt>
      <trkpt lat="36.8249160982668399810791015625" lon="-118.39136682450771331787109375">
        <ele>3912.60009765625</ele>
        <time>2021-06-27T16:48:28.000Z</time>
        <extensions>
          <ns3:TrackPointExtension>
            <ns3:atemp>26.0</ns3:atemp>
            <ns3:hr>82</ns3:hr>
          </ns3:TrackPointExtension>
        </extensions>
      </trkpt>
      <trkpt lat="36.82493478991091251373291015625" lon="-118.39136975817382335662841796875">
        <ele>3912.60009765625</ele>
        <time>2021-06-27T16:48:31.000Z</time>
        <extensions>
          <ns3:TrackPointExtension>
            <ns3:atemp>26.0</ns3:atemp>
            <ns3:hr>79</ns3:hr>
          </ns3:TrackPointExtension>
        </extensions>
      </trkpt>
      <trkpt lat="36.82497301138937473297119140625" lon="-118.39137763716280460357666015625">
        <ele>3912.60009765625</ele>
        <time>2021-06-27T16:48:38.000Z</time>
        <extensions>
          <ns3:TrackPointExtension>
            <ns3:atemp>26.0</ns3:atemp>
            <ns3:hr>82</ns3:hr>
          </ns3:TrackPointExtension>
        </extensions>
      </trkpt>
      <trkpt lat="36.82502162642776966094970703125" lon="-118.391388617455959320068359375">
        <ele>3912.60009765625</ele>
        <time>2021-06-27T16:48:47.000Z</time>
        <extensions>
          <ns3:TrackPointExtension>
            <ns3:atemp>26.0</ns3:atemp>
            <ns3:hr>85</ns3:hr>
          </ns3:TrackPointExtension>
        </extensions>
      </trkpt>
      <trkpt lat="36.8250562436878681182861328125" lon="-118.39138970710337162017822265625">
        <ele>3912.60009765625</ele>
        <time>2021-06-27T16:48:53.000Z</time>
        <extensions>
          <ns3:TrackPointExtension>
            <ns3:atemp>26.0</ns3:atemp>
            <ns3:hr>88</ns3:hr>
          </ns3:TrackPointExtension>
        </extensions>
      </trkpt>
      <trkpt lat="36.82510041631758213043212890625" lon="-118.39138736017048358917236328125">
        <ele>3912.60009765625</ele>
        <time>2021-06-27T16:49:02.000Z</time>
        <extensions>
          <ns3:TrackPointExtension>
            <ns3:atemp>26.0</ns3:atemp>
            <ns3:hr>91</ns3:hr>
          </ns3:TrackPointExtension>
        </extensions>
      </trkpt>
      <trkpt lat="36.825186498463153839111328125" lon="-118.3913814090192317962646484375">
        <ele>3912.60009765625</ele>
        <time>2021-06-27T16:49:10.000Z</time>
        <extensions>
          <ns3:TrackPointExtension>
            <ns3:atemp>26.0</ns3:atemp>
            <ns3:hr>92</ns3:hr>
          </ns3:TrackPointExtension>
        </extensions>
      </trkpt>
      <trkpt lat="36.8251987360417842864990234375" lon="-118.391377218067646026611328125">
        <ele>3912.60009765625</ele>
        <time>2021-06-27T16:49:11.000Z</time>
        <extensions>
          <ns3:TrackPointExtension>
            <ns3:atemp>26.0</ns3:atemp>
            <ns3:hr>89</ns3:hr>
          </ns3:TrackPointExtension>
        </extensions>
      </trkpt>
      <trkpt lat="36.82523955591022968292236328125" lon="-118.39137093164026737213134765625">
        <ele>3920.60009765625</ele>
        <time>2021-06-27T16:49:16.000Z</time>
        <extensions>
          <ns3:TrackPointExtension>
            <ns3:atemp>26.0</ns3:atemp>
            <ns3:hr>90</ns3:hr>
          </ns3:TrackPointExtension>
        </extensions>
      </trkpt>
      <trkpt lat="36.825249530375003814697265625" lon="-118.39137948118150234222412109375">
        <ele>3920.60009765625</ele>
        <time>2021-06-27T16:49:18.000Z</time>
        <extensions>
          <ns3:TrackPointExtension>
            <ns3:atemp>26.0</ns3:atemp>
            <ns3:hr>92</ns3:hr>
          </ns3:TrackPointExtension>
        </extensions>
      </trkpt>
      <trkpt lat="36.82528205215930938720703125" lon="-118.39139222167432308197021484375">
        <ele>3921.60009765625</ele>
        <time>2021-06-27T16:49:24.000Z</time>
        <extensions>
          <ns3:TrackPointExtension>
            <ns3:atemp>26.0</ns3:atemp>
            <ns3:hr>91</ns3:hr>
          </ns3:TrackPointExtension>
        </extensions>
      </trkpt>
      <trkpt lat="36.82529588229954242706298828125" lon="-118.39139138348400592803955078125">
        <ele>3921.800048828125</ele>
        <time>2021-06-27T16:49:26.000Z</time>
        <extensions>
          <ns3:TrackPointExtension>
            <ns3:atemp>26.0</ns3:atemp>
            <ns3:hr>90</ns3:hr>
          </ns3:TrackPointExtension>
        </extensions>
      </trkpt>
      <trkpt lat="36.82531147263944149017333984375" lon="-118.3913780562579631805419921875">
        <ele>3922.60009765625</ele>
        <time>2021-06-27T16:49:30.000Z</time>
        <extensions>
          <ns3:TrackPointExtension>
            <ns3:atemp>26.0</ns3:atemp>
            <ns3:hr>91</ns3:hr>
          </ns3:TrackPointExtension>
        </extensions>
      </trkpt>
      <trkpt lat="36.82530325837433338165283203125" lon="-118.3913736976683139801025390625">
        <ele>3922.60009765625</ele>
        <time>2021-06-27T16:49:33.000Z</time>
        <extensions>
          <ns3:TrackPointExtension>
            <ns3:atemp>26.0</ns3:atemp>
            <ns3:hr>90</ns3:hr>
          </ns3:TrackPointExtension>
        </extensions>
      </trkpt>
      <trkpt lat="36.825326979160308837890625" lon="-118.3913648128509521484375">
        <ele>3923.199951171875</ele>
        <time>2021-06-27T16:49:40.000Z</time>
        <extensions>
          <ns3:TrackPointExtension>
            <ns3:atemp>26.0</ns3:atemp>
            <ns3:hr>93</ns3:hr>
          </ns3:TrackPointExtension>
        </extensions>
      </trkpt>
      <trkpt lat="36.82533276267349720001220703125" lon="-118.3913599513471126556396484375">
        <ele>3923.199951171875</ele>
        <time>2021-06-27T16:49:42.000Z</time>
        <extensions>
          <ns3:TrackPointExtension>
            <ns3:atemp>26.0</ns3:atemp>
            <ns3:hr>93</ns3:hr>
          </ns3:TrackPointExtension>
        </extensions>
      </trkpt>
      <trkpt lat="36.82533896528184413909912109375" lon="-118.39135835878551006317138671875">
        <ele>3923.39990234375</ele>
        <time>2021-06-27T16:49:43.000Z</time>
        <extensions>
          <ns3:TrackPointExtension>
            <ns3:atemp>26.0</ns3:atemp>
            <ns3:hr>94</ns3:hr>
          </ns3:TrackPointExtension>
        </extensions>
      </trkpt>
      <trkpt lat="36.82534399442374706268310546875" lon="-118.3913569338619709014892578125">
        <ele>3923.800048828125</ele>
        <time>2021-06-27T16:49:44.000Z</time>
        <extensions>
          <ns3:TrackPointExtension>
            <ns3:atemp>26.0</ns3:atemp>
            <ns3:hr>94</ns3:hr>
          </ns3:TrackPointExtension>
        </extensions>
      </trkpt>
      <trkpt lat="36.82536411099135875701904296875" lon="-118.391357101500034332275390625">
        <ele>3924</ele>
        <time>2021-06-27T16:49:48.000Z</time>
        <extensions>
          <ns3:TrackPointExtension>
            <ns3:atemp>26.0</ns3:atemp>
            <ns3:hr>95</ns3:hr>
          </ns3:TrackPointExtension>
        </extensions>
      </trkpt>
      <trkpt lat="36.82539110071957111358642578125" lon="-118.39136414229869842529296875">
        <ele>3924.60009765625</ele>
        <time>2021-06-27T16:49:57.000Z</time>
        <extensions>
          <ns3:TrackPointExtension>
            <ns3:atemp>26.0</ns3:atemp>
            <ns3:hr>97</ns3:hr>
          </ns3:TrackPointExtension>
        </extensions>
      </trkpt>
      <trkpt lat="36.8253928609192371368408203125" lon="-118.39135835878551006317138671875">
        <ele>3924.39990234375</ele>
        <time>2021-06-27T16:50:02.000Z</time>
        <extensions>
          <ns3:TrackPointExtension>
            <ns3:atemp>26.0</ns3:atemp>
            <ns3:hr>94</ns3:hr>
          </ns3:TrackPointExtension>
        </extensions>
      </trkpt>
      <trkpt lat="36.8253926932811737060546875" lon="-118.391358442604541778564453125">
        <ele>3924.39990234375</ele>
        <time>2021-06-27T16:50:09.000Z</time>
        <extensions>
          <ns3:TrackPointExtension>
            <ns3:atemp>26.0</ns3:atemp>
            <ns3:hr>95</ns3:hr>
          </ns3:TrackPointExtension>
        </extensions>
      </trkpt>
      <trkpt lat="36.82539110071957111358642578125" lon="-118.3913599513471126556396484375">
        <ele>3924.800048828125</ele>
        <time>2021-06-27T16:50:17.000Z</time>
        <extensions>
          <ns3:TrackPointExtension>
            <ns3:atemp>26.0</ns3:atemp>
            <ns3:hr>95</ns3:hr>
          </ns3:TrackPointExtension>
        </extensions>
      </trkpt>
      <trkpt lat="36.82539260946214199066162109375" lon="-118.3913586102426052093505859375">
        <ele>3924.800048828125</ele>
        <time>2021-06-27T16:50:25.000Z</time>
        <extensions>
          <ns3:TrackPointExtension>
            <ns3:atemp>26.0</ns3:atemp>
            <ns3:hr>92</ns3:hr>
          </ns3:TrackPointExtension>
        </extensions>
      </trkpt>
      <trkpt lat="36.82540769688785076141357421875" lon="-118.39135852642357349395751953125">
        <ele>3925</ele>
        <time>2021-06-27T16:50:30.000Z</time>
        <extensions>
          <ns3:TrackPointExtension>
            <ns3:atemp>26.0</ns3:atemp>
            <ns3:hr>89</ns3:hr>
          </ns3:TrackPointExtension>
        </extensions>
      </trkpt>
      <trkpt lat="36.82543166913092136383056640625" lon="-118.39135601185262203216552734375">
        <ele>3925.800048828125</ele>
        <time>2021-06-27T16:50:47.000Z</time>
        <extensions>
          <ns3:TrackPointExtension>
            <ns3:atemp>27.0</ns3:atemp>
            <ns3:hr>90</ns3:hr>
          </ns3:TrackPointExtension>
        </extensions>
      </trkpt>
      <trkpt lat="36.8254320882260799407958984375" lon="-118.3913559280335903167724609375">
        <ele>3926</ele>
        <time>2021-06-27T16:50:48.000Z</time>
        <extensions>
          <ns3:TrackPointExtension>
            <ns3:atemp>27.0</ns3:atemp>
            <ns3:hr>93</ns3:hr>
          </ns3:TrackPointExtension>
        </extensions>
      </trkpt>
      <trkpt lat="36.82543753646314144134521484375" lon="-118.391355760395526885986328125">
        <ele>3925.800048828125</ele>
        <time>2021-06-27T16:50:51.000Z</time>
        <extensions>
          <ns3:TrackPointExtension>
            <ns3:atemp>27.0</ns3:atemp>
            <ns3:hr>90</ns3:hr>
          </ns3:TrackPointExtension>
        </extensions>
      </trkpt>
      <trkpt lat="36.82543787173926830291748046875" lon="-118.391355760395526885986328125">
        <ele>3926</ele>
        <time>2021-06-27T16:50:52.000Z</time>
        <extensions>
          <ns3:TrackPointExtension>
            <ns3:atemp>27.0</ns3:atemp>
            <ns3:hr>90</ns3:hr>
          </ns3:TrackPointExtension>
        </extensions>
      </trkpt>
      <trkpt lat="36.82546284981071949005126953125" lon="-118.39136037044227123260498046875">
        <ele>3926.60009765625</ele>
        <time>2021-06-27T16:51:00.000Z</time>
        <extensions>
          <ns3:TrackPointExtension>
            <ns3:atemp>27.0</ns3:atemp>
            <ns3:hr>87</ns3:hr>
          </ns3:TrackPointExtension>
        </extensions>
      </trkpt>
      <trkpt lat="36.8254736624658107757568359375" lon="-118.39136355556547641754150390625">
        <ele>3926.800048828125</ele>
        <time>2021-06-27T16:51:01.000Z</time>
        <extensions>
          <ns3:TrackPointExtension>
            <ns3:atemp>27.0</ns3:atemp>
            <ns3:hr>90</ns3:hr>
          </ns3:TrackPointExtension>
        </extensions>
      </trkpt>
      <trkpt lat="36.82548514567315578460693359375" lon="-118.39136707596480846405029296875">
        <ele>3926.800048828125</ele>
        <time>2021-06-27T16:51:02.000Z</time>
        <extensions>
          <ns3:TrackPointExtension>
            <ns3:atemp>27.0</ns3:atemp>
            <ns3:hr>87</ns3:hr>
          </ns3:TrackPointExtension>
        </extensions>
      </trkpt>
      <trkpt lat="36.82550199329853057861328125" lon="-118.39136682450771331787109375">
        <ele>3927.39990234375</ele>
        <time>2021-06-27T16:51:04.000Z</time>
        <extensions>
          <ns3:TrackPointExtension>
            <ns3:atemp>27.0</ns3:atemp>
            <ns3:hr>88</ns3:hr>
          </ns3:TrackPointExtension>
        </extensions>
      </trkpt>
      <trkpt lat="36.82553543709218502044677734375" lon="-118.391372524201869964599609375">
        <ele>3928.60009765625</ele>
        <time>2021-06-27T16:51:08.000Z</time>
        <extensions>
          <ns3:TrackPointExtension>
            <ns3:atemp>27.0</ns3:atemp>
            <ns3:hr>89</ns3:hr>
          </ns3:TrackPointExtension>
        </extensions>
      </trkpt>
      <trkpt lat="36.825557313859462738037109375" lon="-118.391365818679332733154296875">
        <ele>3929.199951171875</ele>
        <time>2021-06-27T16:51:12.000Z</time>
        <extensions>
          <ns3:TrackPointExtension>
            <ns3:atemp>27.0</ns3:atemp>
            <ns3:hr>92</ns3:hr>
          </ns3:TrackPointExtension>
        </extensions>
      </trkpt>
      <trkpt lat="36.82556108571588993072509765625" lon="-118.39136841706931591033935546875">
        <ele>3929.199951171875</ele>
        <time>2021-06-27T16:51:13.000Z</time>
        <extensions>
          <ns3:TrackPointExtension>
            <ns3:atemp>27.0</ns3:atemp>
            <ns3:hr>90</ns3:hr>
          </ns3:TrackPointExtension>
        </extensions>
      </trkpt>
      <trkpt lat="36.82556494139134883880615234375" lon="-118.39136950671672821044921875">
        <ele>3929.60009765625</ele>
        <time>2021-06-27T16:51:14.000Z</time>
        <extensions>
          <ns3:TrackPointExtension>
            <ns3:atemp>27.0</ns3:atemp>
            <ns3:hr>90</ns3:hr>
          </ns3:TrackPointExtension>
        </extensions>
      </trkpt>
      <trkpt lat="36.8255856446921825408935546875" lon="-118.39136355556547641754150390625">
        <ele>3930</ele>
        <time>2021-06-27T16:51:18.000Z</time>
        <extensions>
          <ns3:TrackPointExtension>
            <ns3:atemp>27.0</ns3:atemp>
            <ns3:hr>93</ns3:hr>
          </ns3:TrackPointExtension>
        </extensions>
      </trkpt>
      <trkpt lat="36.82558841072022914886474609375" lon="-118.39136439375579357147216796875">
        <ele>3930.199951171875</ele>
        <time>2021-06-27T16:51:20.000Z</time>
        <extensions>
          <ns3:TrackPointExtension>
            <ns3:atemp>27.0</ns3:atemp>
            <ns3:hr>98</ns3:hr>
          </ns3:TrackPointExtension>
        </extensions>
      </trkpt>
      <trkpt lat="36.82559318840503692626953125" lon="-118.39136858470737934112548828125">
        <ele>3930.800048828125</ele>
        <time>2021-06-27T16:51:22.000Z</time>
        <extensions>
          <ns3:TrackPointExtension>
            <ns3:atemp>27.0</ns3:atemp>
            <ns3:hr>100</ns3:hr>
          </ns3:TrackPointExtension>
        </extensions>
      </trkpt>
      <trkpt lat="36.825600229203701019287109375" lon="-118.391370512545108795166015625">
        <ele>3930.800048828125</ele>
        <time>2021-06-27T16:51:23.000Z</time>
        <extensions>
          <ns3:TrackPointExtension>
            <ns3:atemp>27.0</ns3:atemp>
            <ns3:hr>101</ns3:hr>
          </ns3:TrackPointExtension>
        </extensions>
      </trkpt>
      <trkpt lat="36.82561204768717288970947265625" lon="-118.391369171440601348876953125">
        <ele>3930.800048828125</ele>
        <time>2021-06-27T16:51:26.000Z</time>
        <extensions>
          <ns3:TrackPointExtension>
            <ns3:atemp>27.0</ns3:atemp>
            <ns3:hr>104</ns3:hr>
          </ns3:TrackPointExtension>
        </extensions>
      </trkpt>
      <trkpt lat="36.82562227360904216766357421875" lon="-118.39135567657649517059326171875">
        <ele>3931</ele>
        <time>2021-06-27T16:51:29.000Z</time>
        <extensions>
          <ns3:TrackPointExtension>
            <ns3:atemp>27.0</ns3:atemp>
            <ns3:hr>101</ns3:hr>
          </ns3:TrackPointExtension>
        </extensions>
      </trkpt>
      <trkpt lat="36.8256235308945178985595703125" lon="-118.39134796522557735443115234375">
        <ele>3931.199951171875</ele>
        <time>2021-06-27T16:51:30.000Z</time>
        <extensions>
          <ns3:TrackPointExtension>
            <ns3:atemp>27.0</ns3:atemp>
            <ns3:hr>100</ns3:hr>
          </ns3:TrackPointExtension>
        </extensions>
      </trkpt>
      <trkpt lat="36.8256231956183910369873046875" lon="-118.391335643827915191650390625">
        <ele>3931.800048828125</ele>
        <time>2021-06-27T16:51:34.000Z</time>
        <extensions>
          <ns3:TrackPointExtension>
            <ns3:atemp>27.0</ns3:atemp>
            <ns3:hr>97</ns3:hr>
          </ns3:TrackPointExtension>
        </extensions>
      </trkpt>
      <trkpt lat="36.8256235308945178985595703125" lon="-118.3913180418312549591064453125">
        <ele>3932.60009765625</ele>
        <time>2021-06-27T16:51:37.000Z</time>
        <extensions>
          <ns3:TrackPointExtension>
            <ns3:atemp>27.0</ns3:atemp>
            <ns3:hr>96</ns3:hr>
          </ns3:TrackPointExtension>
        </extensions>
      </trkpt>
      <trkpt lat="36.82562512345612049102783203125" lon="-118.3913071453571319580078125">
        <ele>3933</ele>
        <time>2021-06-27T16:51:39.000Z</time>
        <extensions>
          <ns3:TrackPointExtension>
            <ns3:atemp>27.0</ns3:atemp>
            <ns3:hr>95</ns3:hr>
          </ns3:TrackPointExtension>
        </extensions>
      </trkpt>
      <trkpt lat="36.82562478817999362945556640625" lon="-118.391273953020572662353515625">
        <ele>3933.199951171875</ele>
        <time>2021-06-27T16:51:46.000Z</time>
        <extensions>
          <ns3:TrackPointExtension>
            <ns3:atemp>27.0</ns3:atemp>
            <ns3:hr>94</ns3:hr>
          </ns3:TrackPointExtension>
        </extensions>
      </trkpt>
      <trkpt lat="36.82564104907214641571044921875" lon="-118.39126900769770145416259765625">
        <ele>3934</ele>
        <time>2021-06-27T16:51:54.000Z</time>
        <extensions>
          <ns3:TrackPointExtension>
            <ns3:atemp>27.0</ns3:atemp>
            <ns3:hr>93</ns3:hr>
          </ns3:TrackPointExtension>
        </extensions>
      </trkpt>
      <trkpt lat="36.82564104907214641571044921875" lon="-118.39126900769770145416259765625">
        <ele>3933.199951171875</ele>
        <time>2021-06-27T16:52:02.000Z</time>
        <extensions>
          <ns3:TrackPointExtension>
            <ns3:atemp>27.0</ns3:atemp>
            <ns3:hr>90</ns3:hr>
          </ns3:TrackPointExtension>
        </extensions>
      </trkpt>
      <trkpt lat="36.825635768473148345947265625" lon="-118.39126515202224254608154296875">
        <ele>3934.199951171875</ele>
        <time>2021-06-27T16:52:25.000Z</time>
        <extensions>
          <ns3:TrackPointExtension>
            <ns3:atemp>27.0</ns3:atemp>
            <ns3:hr>91</ns3:hr>
          </ns3:TrackPointExtension>
        </extensions>
      </trkpt>
      <trkpt lat="36.82565982453525066375732421875" lon="-118.39118183590471744537353515625">
        <ele>3935.199951171875</ele>
        <time>2021-06-27T16:52:48.000Z</time>
        <extensions>
          <ns3:TrackPointExtension>
            <ns3:atemp>27.0</ns3:atemp>
            <ns3:hr>93</ns3:hr>
          </ns3:TrackPointExtension>
        </extensions>
      </trkpt>
      <trkpt lat="36.82567927055060863494873046875" lon="-118.3911450393497943878173828125">
        <ele>3936.199951171875</ele>
        <time>2021-06-27T16:52:59.000Z</time>
        <extensions>
          <ns3:TrackPointExtension>
            <ns3:atemp>27.0</ns3:atemp>
            <ns3:hr>92</ns3:hr>
          </ns3:TrackPointExtension>
        </extensions>
      </trkpt>
      <trkpt lat="36.82569301687180995941162109375" lon="-118.3911363221704959869384765625">
        <ele>3936.60009765625</ele>
        <time>2021-06-27T16:53:03.000Z</time>
        <extensions>
          <ns3:TrackPointExtension>
            <ns3:atemp>27.0</ns3:atemp>
            <ns3:hr>95</ns3:hr>
          </ns3:TrackPointExtension>
        </extensions>
      </trkpt>
      <trkpt lat="36.82571045123040676116943359375" lon="-118.3911279402673244476318359375">
        <ele>3936.199951171875</ele>
        <time>2021-06-27T16:53:07.000Z</time>
        <extensions>
          <ns3:TrackPointExtension>
            <ns3:atemp>27.0</ns3:atemp>
            <ns3:hr>98</ns3:hr>
          </ns3:TrackPointExtension>
        </extensions>
      </trkpt>
      <trkpt lat="36.82573056779801845550537109375" lon="-118.39111595414578914642333984375">
        <ele>3935.800048828125</ele>
        <time>2021-06-27T16:53:11.000Z</time>
        <extensions>
          <ns3:TrackPointExtension>
            <ns3:atemp>27.0</ns3:atemp>
            <ns3:hr>101</ns3:hr>
          </ns3:TrackPointExtension>
        </extensions>
      </trkpt>
      <trkpt lat="36.82575018145143985748291015625" lon="-118.39110304601490497589111328125">
        <ele>3935.800048828125</ele>
        <time>2021-06-27T16:53:15.000Z</time>
        <extensions>
          <ns3:TrackPointExtension>
            <ns3:atemp>27.0</ns3:atemp>
            <ns3:hr>105</ns3:hr>
          </ns3:TrackPointExtension>
        </extensions>
      </trkpt>
      <trkpt lat="36.8257559649646282196044921875" lon="-118.3910830132663249969482421875">
        <ele>3936</ele>
        <time>2021-06-27T16:53:19.000Z</time>
        <extensions>
          <ns3:TrackPointExtension>
            <ns3:atemp>27.0</ns3:atemp>
            <ns3:hr>108</ns3:hr>
          </ns3:TrackPointExtension>
        </extensions>
      </trkpt>
      <trkpt lat="36.82579427026212215423583984375" lon="-118.39103230275213718414306640625">
        <ele>3936.60009765625</ele>
        <time>2021-06-27T16:53:24.000Z</time>
        <extensions>
          <ns3:TrackPointExtension>
            <ns3:atemp>27.0</ns3:atemp>
            <ns3:hr>111</ns3:hr>
          </ns3:TrackPointExtension>
        </extensions>
      </trkpt>
      <trkpt lat="36.82582243345677852630615234375" lon="-118.3910109288990497589111328125">
        <ele>3936.800048828125</ele>
        <time>2021-06-27T16:53:26.000Z</time>
        <extensions>
          <ns3:TrackPointExtension>
            <ns3:atemp>27.0</ns3:atemp>
            <ns3:hr>112</ns3:hr>
          </ns3:TrackPointExtension>
        </extensions>
      </trkpt>
      <trkpt lat="36.825832910835742950439453125" lon="-118.3909971825778484344482421875">
        <ele>3936.800048828125</ele>
        <time>2021-06-27T16:53:27.000Z</time>
        <extensions>
          <ns3:TrackPointExtension>
            <ns3:atemp>27.0</ns3:atemp>
            <ns3:hr>112</ns3:hr>
          </ns3:TrackPointExtension>
        </extensions>
      </trkpt>
      <trkpt lat="36.8258411251008510589599609375" lon="-118.39098569937050342559814453125">
        <ele>3936.800048828125</ele>
        <time>2021-06-27T16:53:28.000Z</time>
        <extensions>
          <ns3:TrackPointExtension>
            <ns3:atemp>27.0</ns3:atemp>
            <ns3:hr>112</ns3:hr>
          </ns3:TrackPointExtension>
        </extensions>
      </trkpt>
      <trkpt lat="36.82585981674492359161376953125" lon="-118.39096055366098880767822265625">
        <ele>3937.39990234375</ele>
        <time>2021-06-27T16:53:30.000Z</time>
        <extensions>
          <ns3:TrackPointExtension>
            <ns3:atemp>27.0</ns3:atemp>
            <ns3:hr>113</ns3:hr>
          </ns3:TrackPointExtension>
        </extensions>
      </trkpt>
      <trkpt lat="36.8258686177432537078857421875" lon="-118.39095108211040496826171875">
        <ele>3937.60009765625</ele>
        <time>2021-06-27T16:53:32.000Z</time>
        <extensions>
          <ns3:TrackPointExtension>
            <ns3:atemp>27.0</ns3:atemp>
            <ns3:hr>114</ns3:hr>
          </ns3:TrackPointExtension>
        </extensions>
      </trkpt>
      <trkpt lat="36.82587146759033203125" lon="-118.3909465558826923370361328125">
        <ele>3937.800048828125</ele>
        <time>2021-06-27T16:53:36.000Z</time>
        <extensions>
          <ns3:TrackPointExtension>
            <ns3:atemp>27.0</ns3:atemp>
            <ns3:hr>117</ns3:hr>
          </ns3:TrackPointExtension>
        </extensions>
      </trkpt>
      <trkpt lat="36.82586719281971454620361328125" lon="-118.39094546623528003692626953125">
        <ele>3937.39990234375</ele>
        <time>2021-06-27T16:53:38.000Z</time>
        <extensions>
          <ns3:TrackPointExtension>
            <ns3:atemp>27.0</ns3:atemp>
            <ns3:hr>117</ns3:hr>
          </ns3:TrackPointExtension>
        </extensions>
      </trkpt>
      <trkpt lat="36.82586945593357086181640625" lon="-118.3909468911588191986083984375">
        <ele>3937.39990234375</ele>
        <time>2021-06-27T16:53:45.000Z</time>
        <extensions>
          <ns3:TrackPointExtension>
            <ns3:atemp>28.0</ns3:atemp>
            <ns3:hr>114</ns3:hr>
          </ns3:TrackPointExtension>
        </extensions>
      </trkpt>
      <trkpt lat="36.82586953975260257720947265625" lon="-118.3909468911588191986083984375">
        <ele>3937.39990234375</ele>
        <time>2021-06-27T16:53:52.000Z</time>
        <extensions>
          <ns3:TrackPointExtension>
            <ns3:atemp>28.0</ns3:atemp>
            <ns3:hr>112</ns3:hr>
          </ns3:TrackPointExtension>
        </extensions>
      </trkpt>
      <trkpt lat="36.82587255723774433135986328125" lon="-118.3909468911588191986083984375">
        <ele>3937.60009765625</ele>
        <time>2021-06-27T16:53:59.000Z</time>
        <extensions>
          <ns3:TrackPointExtension>
            <ns3:atemp>28.0</ns3:atemp>
            <ns3:hr>113</ns3:hr>
          </ns3:TrackPointExtension>
        </extensions>
      </trkpt>
      <trkpt lat="36.82587473653256893157958984375" lon="-118.3909468911588191986083984375">
        <ele>3938.199951171875</ele>
        <time>2021-06-27T16:54:04.000Z</time>
        <extensions>
          <ns3:TrackPointExtension>
            <ns3:atemp>28.0</ns3:atemp>
            <ns3:hr>110</ns3:hr>
          </ns3:TrackPointExtension>
        </extensions>
      </trkpt>
      <trkpt lat="36.82587540708482265472412109375" lon="-118.390946723520755767822265625">
        <ele>3938.39990234375</ele>
        <time>2021-06-27T16:54:06.000Z</time>
        <extensions>
          <ns3:TrackPointExtension>
            <ns3:atemp>28.0</ns3:atemp>
            <ns3:hr>110</ns3:hr>
          </ns3:TrackPointExtension>
        </extensions>
      </trkpt>
      <trkpt lat="36.82588445954024791717529296875" lon="-118.39094462804496288299560546875">
        <ele>3939.39990234375</ele>
        <time>2021-06-27T16:54:13.000Z</time>
        <extensions>
          <ns3:TrackPointExtension>
            <ns3:atemp>28.0</ns3:atemp>
            <ns3:hr>108</ns3:hr>
          </ns3:TrackPointExtension>
        </extensions>
      </trkpt>
      <trkpt lat="36.825895272195339202880859375" lon="-118.3909445442259311676025390625">
        <ele>3940.800048828125</ele>
        <time>2021-06-27T16:54:16.000Z</time>
        <extensions>
          <ns3:TrackPointExtension>
            <ns3:atemp>28.0</ns3:atemp>
            <ns3:hr>108</ns3:hr>
          </ns3:TrackPointExtension>
        </extensions>
      </trkpt>
      <trkpt lat="36.8259671889245510101318359375" lon="-118.39090623892843723297119140625">
        <ele>3941.800048828125</ele>
        <time>2021-06-27T16:54:32.000Z</time>
        <extensions>
          <ns3:TrackPointExtension>
            <ns3:atemp>28.0</ns3:atemp>
            <ns3:hr>109</ns3:hr>
          </ns3:TrackPointExtension>
        </extensions>
      </trkpt>
      <trkpt lat="36.8259755708277225494384765625" lon="-118.39090271852910518646240234375">
        <ele>3942.199951171875</ele>
        <time>2021-06-27T16:54:38.000Z</time>
        <extensions>
          <ns3:TrackPointExtension>
            <ns3:atemp>28.0</ns3:atemp>
            <ns3:hr>106</ns3:hr>
          </ns3:TrackPointExtension>
        </extensions>
      </trkpt>
      <trkpt lat="36.82598671875894069671630859375" lon="-118.39087321422994136810302734375">
        <ele>3941.800048828125</ele>
        <time>2021-06-27T16:54:43.000Z</time>
        <extensions>
          <ns3:TrackPointExtension>
            <ns3:atemp>28.0</ns3:atemp>
            <ns3:hr>103</ns3:hr>
          </ns3:TrackPointExtension>
        </extensions>
      </trkpt>
      <trkpt lat="36.8260074220597743988037109375" lon="-118.390826024115085601806640625">
        <ele>3942</ele>
        <time>2021-06-27T16:54:46.000Z</time>
        <extensions>
          <ns3:TrackPointExtension>
            <ns3:atemp>28.0</ns3:atemp>
            <ns3:hr>103</ns3:hr>
          </ns3:TrackPointExtension>
        </extensions>
      </trkpt>
      <trkpt lat="36.8260184861719608306884765625" lon="-118.39080900885164737701416015625">
        <ele>3941.800048828125</ele>
        <time>2021-06-27T16:54:47.000Z</time>
        <extensions>
          <ns3:TrackPointExtension>
            <ns3:atemp>28.0</ns3:atemp>
            <ns3:hr>101</ns3:hr>
          </ns3:TrackPointExtension>
        </extensions>
      </trkpt>
      <trkpt lat="36.82604849338531494140625" lon="-118.39073927141726016998291015625">
        <ele>3942</ele>
        <time>2021-06-27T16:54:51.000Z</time>
        <extensions>
          <ns3:TrackPointExtension>
            <ns3:atemp>28.0</ns3:atemp>
            <ns3:hr>101</ns3:hr>
          </ns3:TrackPointExtension>
        </extensions>
      </trkpt>
      <trkpt lat="36.82605461217463016510009765625" lon="-118.39073357172310352325439453125">
        <ele>3942</ele>
        <time>2021-06-27T16:54:52.000Z</time>
        <extensions>
          <ns3:TrackPointExtension>
            <ns3:atemp>28.0</ns3:atemp>
            <ns3:hr>102</ns3:hr>
          </ns3:TrackPointExtension>
        </extensions>
      </trkpt>
      <trkpt lat="36.82607037015259265899658203125" lon="-118.39072753675282001495361328125">
        <ele>3942.39990234375</ele>
        <time>2021-06-27T16:54:58.000Z</time>
        <extensions>
          <ns3:TrackPointExtension>
            <ns3:atemp>28.0</ns3:atemp>
            <ns3:hr>106</ns3:hr>
          </ns3:TrackPointExtension>
        </extensions>
      </trkpt>
      <trkpt lat="36.82606852613389492034912109375" lon="-118.39073172770440578460693359375">
        <ele>3942.60009765625</ele>
        <time>2021-06-27T16:55:00.000Z</time>
        <extensions>
          <ns3:TrackPointExtension>
            <ns3:atemp>28.0</ns3:atemp>
            <ns3:hr>106</ns3:hr>
          </ns3:TrackPointExtension>
        </extensions>
      </trkpt>
      <trkpt lat="36.8260712921619415283203125" lon="-118.39072753675282001495361328125">
        <ele>3942.60009765625</ele>
        <time>2021-06-27T16:55:07.000Z</time>
        <extensions>
          <ns3:TrackPointExtension>
            <ns3:atemp>29.0</ns3:atemp>
            <ns3:hr>109</ns3:hr>
          </ns3:TrackPointExtension>
        </extensions>
      </trkpt>
      <trkpt lat="36.8260712921619415283203125" lon="-118.39072753675282001495361328125">
        <ele>3942.800048828125</ele>
        <time>2021-06-27T16:55:10.000Z</time>
        <extensions>
          <ns3:TrackPointExtension>
            <ns3:atemp>29.0</ns3:atemp>
            <ns3:hr>109</ns3:hr>
          </ns3:TrackPointExtension>
        </extensions>
      </trkpt>
      <trkpt lat="36.8260712921619415283203125" lon="-118.39072753675282001495361328125">
        <ele>3943.39990234375</ele>
        <time>2021-06-27T16:55:12.000Z</time>
        <extensions>
          <ns3:TrackPointExtension>
            <ns3:atemp>29.0</ns3:atemp>
            <ns3:hr>111</ns3:hr>
          </ns3:TrackPointExtension>
        </extensions>
      </trkpt>
      <trkpt lat="36.8260712921619415283203125" lon="-118.39072586037218570709228515625">
        <ele>3943</ele>
        <time>2021-06-27T16:55:19.000Z</time>
        <extensions>
          <ns3:TrackPointExtension>
            <ns3:atemp>29.0</ns3:atemp>
            <ns3:hr>110</ns3:hr>
          </ns3:TrackPointExtension>
        </extensions>
      </trkpt>
      <trkpt lat="36.82608696632087230682373046875" lon="-118.39068629778921604156494140625">
        <ele>3944.60009765625</ele>
        <time>2021-06-27T16:55:28.000Z</time>
        <extensions>
          <ns3:TrackPointExtension>
            <ns3:atemp>29.0</ns3:atemp>
            <ns3:hr>110</ns3:hr>
          </ns3:TrackPointExtension>
        </extensions>
      </trkpt>
      <trkpt lat="36.82609065435826778411865234375" lon="-118.39068353176116943359375">
        <ele>3944.60009765625</ele>
        <time>2021-06-27T16:55:30.000Z</time>
        <extensions>
          <ns3:TrackPointExtension>
            <ns3:atemp>29.0</ns3:atemp>
            <ns3:hr>116</ns3:hr>
          </ns3:TrackPointExtension>
        </extensions>
      </trkpt>
      <trkpt lat="36.82609333656728267669677734375" lon="-118.390677832067012786865234375">
        <ele>3944.60009765625</ele>
        <time>2021-06-27T16:55:31.000Z</time>
        <extensions>
          <ns3:TrackPointExtension>
            <ns3:atemp>29.0</ns3:atemp>
            <ns3:hr>115</ns3:hr>
          </ns3:TrackPointExtension>
        </extensions>
      </trkpt>
      <trkpt lat="36.82610146701335906982421875" lon="-118.3906642533838748931884765625">
        <ele>3944.39990234375</ele>
        <time>2021-06-27T16:55:34.000Z</time>
        <extensions>
          <ns3:TrackPointExtension>
            <ns3:atemp>29.0</ns3:atemp>
            <ns3:hr>112</ns3:hr>
          </ns3:TrackPointExtension>
        </extensions>
      </trkpt>
      <trkpt lat="36.82612384669482707977294921875" lon="-118.3906407840549945831298828125">
        <ele>3945.800048828125</ele>
        <time>2021-06-27T16:55:43.000Z</time>
        <extensions>
          <ns3:TrackPointExtension>
            <ns3:atemp>29.0</ns3:atemp>
            <ns3:hr>112</ns3:hr>
          </ns3:TrackPointExtension>
        </extensions>
      </trkpt>
      <trkpt lat="36.8261308036744594573974609375" lon="-118.390634246170520782470703125">
        <ele>3946.39990234375</ele>
        <time>2021-06-27T16:55:50.000Z</time>
        <extensions>
          <ns3:TrackPointExtension>
            <ns3:atemp>29.0</ns3:atemp>
            <ns3:hr>108</ns3:hr>
          </ns3:TrackPointExtension>
        </extensions>
      </trkpt>
      <trkpt lat="36.82613088749349117279052734375" lon="-118.3906340785324573516845703125">
        <ele>3946.199951171875</ele>
        <time>2021-06-27T16:55:51.000Z</time>
        <extensions>
          <ns3:TrackPointExtension>
            <ns3:atemp>29.0</ns3:atemp>
            <ns3:hr>110</ns3:hr>
          </ns3:TrackPointExtension>
        </extensions>
      </trkpt>
      <trkpt lat="36.8261666782200336456298828125" lon="-118.39060507714748382568359375">
        <ele>3946.800048828125</ele>
        <time>2021-06-27T16:56:05.000Z</time>
        <extensions>
          <ns3:TrackPointExtension>
            <ns3:atemp>29.0</ns3:atemp>
            <ns3:hr>108</ns3:hr>
          </ns3:TrackPointExtension>
        </extensions>
      </trkpt>
      <trkpt lat="36.82617045007646083831787109375" lon="-118.39059744961559772491455078125">
        <ele>3947</ele>
        <time>2021-06-27T16:56:08.000Z</time>
        <extensions>
          <ns3:TrackPointExtension>
            <ns3:atemp>29.0</ns3:atemp>
            <ns3:hr>105</ns3:hr>
          </ns3:TrackPointExtension>
        </extensions>
      </trkpt>
      <trkpt lat="36.826172880828380584716796875" lon="-118.39059325866401195526123046875">
        <ele>3947.60009765625</ele>
        <time>2021-06-27T16:56:14.000Z</time>
        <extensions>
          <ns3:TrackPointExtension>
            <ns3:atemp>29.0</ns3:atemp>
            <ns3:hr>101</ns3:hr>
          </ns3:TrackPointExtension>
        </extensions>
      </trkpt>
      <trkpt lat="36.8261810950934886932373046875" lon="-118.39059057645499706268310546875">
        <ele>3948</ele>
        <time>2021-06-27T16:56:19.000Z</time>
        <extensions>
          <ns3:TrackPointExtension>
            <ns3:atemp>30.0</ns3:atemp>
            <ns3:hr>103</ns3:hr>
          </ns3:TrackPointExtension>
        </extensions>
      </trkpt>
      <trkpt lat="36.8262069113552570343017578125" lon="-118.390539698302745819091796875">
        <ele>3949</ele>
        <time>2021-06-27T16:56:28.000Z</time>
        <extensions>
          <ns3:TrackPointExtension>
            <ns3:atemp>30.0</ns3:atemp>
            <ns3:hr>102</ns3:hr>
          </ns3:TrackPointExtension>
        </extensions>
      </trkpt>
      <trkpt lat="36.82621235959231853485107421875" lon="-118.39052586816251277923583984375">
        <ele>3949.60009765625</ele>
        <time>2021-06-27T16:56:31.000Z</time>
        <extensions>
          <ns3:TrackPointExtension>
            <ns3:atemp>30.0</ns3:atemp>
            <ns3:hr>105</ns3:hr>
          </ns3:TrackPointExtension>
        </extensions>
      </trkpt>
      <trkpt lat="36.82627002708613872528076171875" lon="-118.3904729783535003662109375">
        <ele>3949.60009765625</ele>
        <time>2021-06-27T16:56:37.000Z</time>
        <extensions>
          <ns3:TrackPointExtension>
            <ns3:atemp>30.0</ns3:atemp>
            <ns3:hr>101</ns3:hr>
          </ns3:TrackPointExtension>
        </extensions>
      </trkpt>
      <trkpt lat="36.82628176175057888031005859375" lon="-118.39046166278421878814697265625">
        <ele>3949.800048828125</ele>
        <time>2021-06-27T16:56:38.000Z</time>
        <extensions>
          <ns3:TrackPointExtension>
            <ns3:atemp>29.0</ns3:atemp>
            <ns3:hr>104</ns3:hr>
          </ns3:TrackPointExtension>
        </extensions>
      </trkpt>
      <trkpt lat="36.8262940831482410430908203125" lon="-118.39045227505266666412353515625">
        <ele>3950</ele>
        <time>2021-06-27T16:56:39.000Z</time>
        <extensions>
          <ns3:TrackPointExtension>
            <ns3:atemp>30.0</ns3:atemp>
            <ns3:hr>102</ns3:hr>
          </ns3:TrackPointExtension>
        </extensions>
      </trkpt>
      <trkpt lat="36.82630573399364948272705078125" lon="-118.39044439606368541717529296875">
        <ele>3950</ele>
        <time>2021-06-27T16:56:40.000Z</time>
        <extensions>
          <ns3:TrackPointExtension>
            <ns3:atemp>29.0</ns3:atemp>
            <ns3:hr>102</ns3:hr>
          </ns3:TrackPointExtension>
        </extensions>
      </trkpt>
      <trkpt lat="36.82632719166576862335205078125" lon="-118.39043484069406986236572265625">
        <ele>3950.199951171875</ele>
        <time>2021-06-27T16:56:42.000Z</time>
        <extensions>
          <ns3:TrackPointExtension>
            <ns3:atemp>29.0</ns3:atemp>
            <ns3:hr>106</ns3:hr>
          </ns3:TrackPointExtension>
        </extensions>
      </trkpt>
      <trkpt lat="36.82633808813989162445068359375" lon="-118.3904355950653553009033203125">
        <ele>3950.199951171875</ele>
        <time>2021-06-27T16:56:44.000Z</time>
        <extensions>
          <ns3:TrackPointExtension>
            <ns3:atemp>29.0</ns3:atemp>
            <ns3:hr>108</ns3:hr>
          </ns3:TrackPointExtension>
        </extensions>
      </trkpt>
      <trkpt lat="36.82635250501334667205810546875" lon="-118.39042226783931255340576171875">
        <ele>3950.199951171875</ele>
        <time>2021-06-27T16:56:46.000Z</time>
        <extensions>
          <ns3:TrackPointExtension>
            <ns3:atemp>29.0</ns3:atemp>
            <ns3:hr>110</ns3:hr>
          </ns3:TrackPointExtension>
        </extensions>
      </trkpt>
      <trkpt lat="36.82636566460132598876953125" lon="-118.39040366001427173614501953125">
        <ele>3951.39990234375</ele>
        <time>2021-06-27T16:56:50.000Z</time>
        <extensions>
          <ns3:TrackPointExtension>
            <ns3:atemp>29.0</ns3:atemp>
            <ns3:hr>108</ns3:hr>
          </ns3:TrackPointExtension>
        </extensions>
      </trkpt>
      <trkpt lat="36.82637128047645092010498046875" lon="-118.39039946906268596649169921875">
        <ele>3951.60009765625</ele>
        <time>2021-06-27T16:56:51.000Z</time>
        <extensions>
          <ns3:TrackPointExtension>
            <ns3:atemp>29.0</ns3:atemp>
            <ns3:hr>109</ns3:hr>
          </ns3:TrackPointExtension>
        </extensions>
      </trkpt>
      <trkpt lat="36.82638108730316162109375" lon="-118.39039452373981475830078125">
        <ele>3951.800048828125</ele>
        <time>2021-06-27T16:56:53.000Z</time>
        <extensions>
          <ns3:TrackPointExtension>
            <ns3:atemp>29.0</ns3:atemp>
            <ns3:hr>108</ns3:hr>
          </ns3:TrackPointExtension>
        </extensions>
      </trkpt>
      <trkpt lat="36.82640564627945423126220703125" lon="-118.39036074467003345489501953125">
        <ele>3952.60009765625</ele>
        <time>2021-06-27T16:56:58.000Z</time>
        <extensions>
          <ns3:TrackPointExtension>
            <ns3:atemp>29.0</ns3:atemp>
            <ns3:hr>109</ns3:hr>
          </ns3:TrackPointExtension>
        </extensions>
      </trkpt>
      <trkpt lat="36.8264104239642620086669921875" lon="-118.39035554789006710052490234375">
        <ele>3952.60009765625</ele>
        <time>2021-06-27T16:56:59.000Z</time>
        <extensions>
          <ns3:TrackPointExtension>
            <ns3:atemp>29.0</ns3:atemp>
            <ns3:hr>110</ns3:hr>
          </ns3:TrackPointExtension>
        </extensions>
      </trkpt>
      <trkpt lat="36.82641872204840183258056640625" lon="-118.3903413824737071990966796875">
        <ele>3953.199951171875</ele>
        <time>2021-06-27T16:57:03.000Z</time>
        <extensions>
          <ns3:TrackPointExtension>
            <ns3:atemp>29.0</ns3:atemp>
            <ns3:hr>112</ns3:hr>
          </ns3:TrackPointExtension>
        </extensions>
      </trkpt>
      <trkpt lat="36.82641662657260894775390625" lon="-118.39033140800893306732177734375">
        <ele>3953.39990234375</ele>
        <time>2021-06-27T16:57:04.000Z</time>
        <extensions>
          <ns3:TrackPointExtension>
            <ns3:atemp>29.0</ns3:atemp>
            <ns3:hr>111</ns3:hr>
          </ns3:TrackPointExtension>
        </extensions>
      </trkpt>
      <trkpt lat="36.82641528546810150146484375" lon="-118.39032344520092010498046875">
        <ele>3953.60009765625</ele>
        <time>2021-06-27T16:57:05.000Z</time>
        <extensions>
          <ns3:TrackPointExtension>
            <ns3:atemp>29.0</ns3:atemp>
            <ns3:hr>110</ns3:hr>
          </ns3:TrackPointExtension>
        </extensions>
      </trkpt>
      <trkpt lat="36.826414279639720916748046875" lon="-118.390314392745494842529296875">
        <ele>3954.39990234375</ele>
        <time>2021-06-27T16:57:08.000Z</time>
        <extensions>
          <ns3:TrackPointExtension>
            <ns3:atemp>29.0</ns3:atemp>
            <ns3:hr>112</ns3:hr>
          </ns3:TrackPointExtension>
        </extensions>
      </trkpt>
      <trkpt lat="36.826415956020355224609375" lon="-118.39030408300459384918212890625">
        <ele>3954.39990234375</ele>
        <time>2021-06-27T16:57:11.000Z</time>
        <extensions>
          <ns3:TrackPointExtension>
            <ns3:atemp>29.0</ns3:atemp>
            <ns3:hr>112</ns3:hr>
          </ns3:TrackPointExtension>
        </extensions>
      </trkpt>
      <trkpt lat="36.82639005593955516815185546875" lon="-118.3903048373758792877197265625">
        <ele>3950.60009765625</ele>
        <time>2021-06-27T17:52:12.000Z</time>
        <extensions>
          <ns3:TrackPointExtension>
            <ns3:atemp>32.0</ns3:atemp>
            <ns3:hr>100</ns3:hr>
          </ns3:TrackPointExtension>
        </extensions>
      </trkpt>
      <trkpt lat="36.82639005593955516815185546875" lon="-118.3903048373758792877197265625">
        <ele>3950.60009765625</ele>
        <time>2021-06-27T17:52:13.000Z</time>
        <extensions>
          <ns3:TrackPointExtension>
            <ns3:atemp>32.0</ns3:atemp>
            <ns3:hr>100</ns3:hr>
          </ns3:TrackPointExtension>
        </extensions>
      </trkpt>
      <trkpt lat="36.82639005593955516815185546875" lon="-118.390312381088733673095703125">
        <ele>3949.800048828125</ele>
        <time>2021-06-27T17:52:27.000Z</time>
        <extensions>
          <ns3:TrackPointExtension>
            <ns3:atemp>32.0</ns3:atemp>
            <ns3:hr>102</ns3:hr>
          </ns3:TrackPointExtension>
        </extensions>
      </trkpt>
      <trkpt lat="36.82639005593955516815185546875" lon="-118.3903125487267971038818359375">
        <ele>3949.60009765625</ele>
        <time>2021-06-27T17:52:28.000Z</time>
        <extensions>
          <ns3:TrackPointExtension>
            <ns3:atemp>32.0</ns3:atemp>
            <ns3:hr>102</ns3:hr>
          </ns3:TrackPointExtension>
        </extensions>
      </trkpt>
      <trkpt lat="36.82638804428279399871826171875" lon="-118.39031766168773174285888671875">
        <ele>3949.39990234375</ele>
        <time>2021-06-27T17:52:31.000Z</time>
        <extensions>
          <ns3:TrackPointExtension>
            <ns3:atemp>32.0</ns3:atemp>
            <ns3:hr>105</ns3:hr>
          </ns3:TrackPointExtension>
        </extensions>
      </trkpt>
      <trkpt lat="36.8263859488070011138916015625" lon="-118.3903521113097667694091796875">
        <ele>3949</ele>
        <time>2021-06-27T17:52:36.000Z</time>
        <extensions>
          <ns3:TrackPointExtension>
            <ns3:atemp>32.0</ns3:atemp>
            <ns3:hr>108</ns3:hr>
          </ns3:TrackPointExtension>
        </extensions>
      </trkpt>
      <trkpt lat="36.826385445892810821533203125" lon="-118.39035605080425739288330078125">
        <ele>3948.39990234375</ele>
        <time>2021-06-27T17:52:39.000Z</time>
        <extensions>
          <ns3:TrackPointExtension>
            <ns3:atemp>32.0</ns3:atemp>
            <ns3:hr>109</ns3:hr>
          </ns3:TrackPointExtension>
        </extensions>
      </trkpt>
      <trkpt lat="36.826363988220691680908203125" lon="-118.39037415571510791778564453125">
        <ele>3947.800048828125</ele>
        <time>2021-06-27T17:52:49.000Z</time>
        <extensions>
          <ns3:TrackPointExtension>
            <ns3:atemp>32.0</ns3:atemp>
            <ns3:hr>112</ns3:hr>
          </ns3:TrackPointExtension>
        </extensions>
      </trkpt>
      <trkpt lat="36.8263448774814605712890625" lon="-118.3903903327882289886474609375">
        <ele>3947.39990234375</ele>
        <time>2021-06-27T17:52:55.000Z</time>
        <extensions>
          <ns3:TrackPointExtension>
            <ns3:atemp>32.0</ns3:atemp>
            <ns3:hr>112</ns3:hr>
          </ns3:TrackPointExtension>
        </extensions>
      </trkpt>
      <trkpt lat="36.8263004533946514129638671875" lon="-118.39045462198555469512939453125">
        <ele>3946.39990234375</ele>
        <time>2021-06-27T17:53:15.000Z</time>
        <extensions>
          <ns3:TrackPointExtension>
            <ns3:atemp>31.0</ns3:atemp>
            <ns3:hr>108</ns3:hr>
          </ns3:TrackPointExtension>
        </extensions>
      </trkpt>
      <trkpt lat="36.82629651390016078948974609375" lon="-118.3904550410807132720947265625">
        <ele>3946.39990234375</ele>
        <time>2021-06-27T17:53:16.000Z</time>
        <extensions>
          <ns3:TrackPointExtension>
            <ns3:atemp>31.0</ns3:atemp>
            <ns3:hr>110</ns3:hr>
          </ns3:TrackPointExtension>
        </extensions>
      </trkpt>
      <trkpt lat="36.82625460438430309295654296875" lon="-118.3904728107154369354248046875">
        <ele>3945.800048828125</ele>
        <time>2021-06-27T17:53:27.000Z</time>
        <extensions>
          <ns3:TrackPointExtension>
            <ns3:atemp>31.0</ns3:atemp>
            <ns3:hr>107</ns3:hr>
          </ns3:TrackPointExtension>
        </extensions>
      </trkpt>
      <trkpt lat="36.826206743717193603515625" lon="-118.3905462361872196197509765625">
        <ele>3945.199951171875</ele>
        <time>2021-06-27T17:53:43.000Z</time>
        <extensions>
          <ns3:TrackPointExtension>
            <ns3:atemp>31.0</ns3:atemp>
            <ns3:hr>106</ns3:hr>
          </ns3:TrackPointExtension>
        </extensions>
      </trkpt>
      <trkpt lat="36.82616156525909900665283203125" lon="-118.39059879072010517120361328125">
        <ele>3944.199951171875</ele>
        <time>2021-06-27T17:54:02.000Z</time>
        <extensions>
          <ns3:TrackPointExtension>
            <ns3:atemp>31.0</ns3:atemp>
            <ns3:hr>108</ns3:hr>
          </ns3:TrackPointExtension>
        </extensions>
      </trkpt>
      <trkpt lat="36.82614563964307308197021484375" lon="-118.390606753528118133544921875">
        <ele>3944.60009765625</ele>
        <time>2021-06-27T17:54:11.000Z</time>
        <extensions>
          <ns3:TrackPointExtension>
            <ns3:atemp>31.0</ns3:atemp>
            <ns3:hr>111</ns3:hr>
          </ns3:TrackPointExtension>
        </extensions>
      </trkpt>
      <trkpt lat="36.8261137045919895172119140625" lon="-118.39066819287836551666259765625">
        <ele>3945.199951171875</ele>
        <time>2021-06-27T17:54:24.000Z</time>
        <extensions>
          <ns3:TrackPointExtension>
            <ns3:atemp>31.0</ns3:atemp>
            <ns3:hr>111</ns3:hr>
          </ns3:TrackPointExtension>
        </extensions>
      </trkpt>
      <trkpt lat="36.826107501983642578125" lon="-118.39068244211375713348388671875">
        <ele>3944.800048828125</ele>
        <time>2021-06-27T17:54:37.000Z</time>
        <extensions>
          <ns3:TrackPointExtension>
            <ns3:atemp>31.0</ns3:atemp>
            <ns3:hr>114</ns3:hr>
          </ns3:TrackPointExtension>
        </extensions>
      </trkpt>
      <trkpt lat="36.8261073343455791473388671875" lon="-118.3906830288469791412353515625">
        <ele>3944.60009765625</ele>
        <time>2021-06-27T17:54:39.000Z</time>
        <extensions>
          <ns3:TrackPointExtension>
            <ns3:atemp>31.0</ns3:atemp>
            <ns3:hr>115</ns3:hr>
          </ns3:TrackPointExtension>
        </extensions>
      </trkpt>
      <trkpt lat="36.82610440067946910858154296875" lon="-118.3906863816082477569580078125">
        <ele>3944.199951171875</ele>
        <time>2021-06-27T17:54:49.000Z</time>
        <extensions>
          <ns3:TrackPointExtension>
            <ns3:atemp>31.0</ns3:atemp>
            <ns3:hr>118</ns3:hr>
          </ns3:TrackPointExtension>
        </extensions>
      </trkpt>
      <trkpt lat="36.82609501294791698455810546875" lon="-118.390695936977863311767578125">
        <ele>3944.39990234375</ele>
        <time>2021-06-27T17:54:59.000Z</time>
        <extensions>
          <ns3:TrackPointExtension>
            <ns3:atemp>31.0</ns3:atemp>
            <ns3:hr>115</ns3:hr>
          </ns3:TrackPointExtension>
        </extensions>
      </trkpt>
      <trkpt lat="36.82608948089182376861572265625" lon="-118.39070163667201995849609375">
        <ele>3943.800048828125</ele>
        <time>2021-06-27T17:55:04.000Z</time>
        <extensions>
          <ns3:TrackPointExtension>
            <ns3:atemp>31.0</ns3:atemp>
            <ns3:hr>112</ns3:hr>
          </ns3:TrackPointExtension>
        </extensions>
      </trkpt>
      <trkpt lat="36.82608612813055515289306640625" lon="-118.39070725254714488983154296875">
        <ele>3943.800048828125</ele>
        <time>2021-06-27T17:55:15.000Z</time>
        <extensions>
          <ns3:TrackPointExtension>
            <ns3:atemp>31.0</ns3:atemp>
            <ns3:hr>107</ns3:hr>
          </ns3:TrackPointExtension>
        </extensions>
      </trkpt>
      <trkpt lat="36.82608596049249172210693359375" lon="-118.39070809073746204376220703125">
        <ele>3943.199951171875</ele>
        <time>2021-06-27T17:55:21.000Z</time>
        <extensions>
          <ns3:TrackPointExtension>
            <ns3:atemp>31.0</ns3:atemp>
            <ns3:hr>108</ns3:hr>
          </ns3:TrackPointExtension>
        </extensions>
      </trkpt>
      <trkpt lat="36.82608596049249172210693359375" lon="-118.39070792309939861297607421875">
        <ele>3941.800048828125</ele>
        <time>2021-06-27T17:55:28.000Z</time>
        <extensions>
          <ns3:TrackPointExtension>
            <ns3:atemp>31.0</ns3:atemp>
            <ns3:hr>105</ns3:hr>
          </ns3:TrackPointExtension>
        </extensions>
      </trkpt>
      <trkpt lat="36.82608596049249172210693359375" lon="-118.39070792309939861297607421875">
        <ele>3941.199951171875</ele>
        <time>2021-06-27T17:55:33.000Z</time>
        <extensions>
          <ns3:TrackPointExtension>
            <ns3:atemp>31.0</ns3:atemp>
            <ns3:hr>102</ns3:hr>
          </ns3:TrackPointExtension>
        </extensions>
      </trkpt>
      <trkpt lat="36.8260858766734600067138671875" lon="-118.3907078392803668975830078125">
        <ele>3940.39990234375</ele>
        <time>2021-06-27T17:55:38.000Z</time>
        <extensions>
          <ns3:TrackPointExtension>
            <ns3:atemp>31.0</ns3:atemp>
            <ns3:hr>104</ns3:hr>
          </ns3:TrackPointExtension>
        </extensions>
      </trkpt>
      <trkpt lat="36.82608478702604770660400390625" lon="-118.390707671642303466796875">
        <ele>3939.800048828125</ele>
        <time>2021-06-27T17:55:55.000Z</time>
        <extensions>
          <ns3:TrackPointExtension>
            <ns3:atemp>31.0</ns3:atemp>
            <ns3:hr>107</ns3:hr>
          </ns3:TrackPointExtension>
        </extensions>
      </trkpt>
      <trkpt lat="36.8260838650166988372802734375" lon="-118.3907078392803668975830078125">
        <ele>3940</ele>
        <time>2021-06-27T17:56:03.000Z</time>
        <extensions>
          <ns3:TrackPointExtension>
            <ns3:atemp>31.0</ns3:atemp>
            <ns3:hr>110</ns3:hr>
          </ns3:TrackPointExtension>
        </extensions>
      </trkpt>
      <trkpt lat="36.826082356274127960205078125" lon="-118.39070834219455718994140625">
        <ele>3939.60009765625</ele>
        <time>2021-06-27T17:56:15.000Z</time>
        <extensions>
          <ns3:TrackPointExtension>
            <ns3:atemp>31.0</ns3:atemp>
            <ns3:hr>113</ns3:hr>
          </ns3:TrackPointExtension>
        </extensions>
      </trkpt>
      <trkpt lat="36.82608143426477909088134765625" lon="-118.390708677470684051513671875">
        <ele>3939.60009765625</ele>
        <time>2021-06-27T17:56:21.000Z</time>
        <extensions>
          <ns3:TrackPointExtension>
            <ns3:atemp>31.0</ns3:atemp>
            <ns3:hr>110</ns3:hr>
          </ns3:TrackPointExtension>
        </extensions>
      </trkpt>
      <trkpt lat="36.82607925496995449066162109375" lon="-118.39070959948003292083740234375">
        <ele>3939.60009765625</ele>
        <time>2021-06-27T17:56:36.000Z</time>
        <extensions>
          <ns3:TrackPointExtension>
            <ns3:atemp>31.0</ns3:atemp>
            <ns3:hr>107</ns3:hr>
          </ns3:TrackPointExtension>
        </extensions>
      </trkpt>
      <trkpt lat="36.826079003512859344482421875" lon="-118.39070976711809635162353515625">
        <ele>3939.60009765625</ele>
        <time>2021-06-27T17:56:38.000Z</time>
        <extensions>
          <ns3:TrackPointExtension>
            <ns3:atemp>31.0</ns3:atemp>
            <ns3:hr>104</ns3:hr>
          </ns3:TrackPointExtension>
        </extensions>
      </trkpt>
      <trkpt lat="36.82607875205576419830322265625" lon="-118.3907098509371280670166015625">
        <ele>3939.60009765625</ele>
        <time>2021-06-27T17:56:40.000Z</time>
        <extensions>
          <ns3:TrackPointExtension>
            <ns3:atemp>31.0</ns3:atemp>
            <ns3:hr>101</ns3:hr>
          </ns3:TrackPointExtension>
        </extensions>
      </trkpt>
      <trkpt lat="36.8260778300464153289794921875" lon="-118.39071027003228664398193359375">
        <ele>3939.39990234375</ele>
        <time>2021-06-27T17:56:46.000Z</time>
        <extensions>
          <ns3:TrackPointExtension>
            <ns3:atemp>31.0</ns3:atemp>
            <ns3:hr>99</ns3:hr>
          </ns3:TrackPointExtension>
        </extensions>
      </trkpt>
      <trkpt lat="36.826076991856098175048828125" lon="-118.39071060530841350555419921875">
        <ele>3938</ele>
        <time>2021-06-27T17:56:52.000Z</time>
        <extensions>
          <ns3:TrackPointExtension>
            <ns3:atemp>31.0</ns3:atemp>
            <ns3:hr>102</ns3:hr>
          </ns3:TrackPointExtension>
        </extensions>
      </trkpt>
      <trkpt lat="36.82607330381870269775390625" lon="-118.39071311987936496734619140625">
        <ele>3937.60009765625</ele>
        <time>2021-06-27T17:57:11.000Z</time>
        <extensions>
          <ns3:TrackPointExtension>
            <ns3:atemp>31.0</ns3:atemp>
            <ns3:hr>99</ns3:hr>
          </ns3:TrackPointExtension>
        </extensions>
      </trkpt>
      <trkpt lat="36.8260728009045124053955078125" lon="-118.39071345515549182891845703125">
        <ele>3937.199951171875</ele>
        <time>2021-06-27T17:57:13.000Z</time>
        <extensions>
          <ns3:TrackPointExtension>
            <ns3:atemp>31.0</ns3:atemp>
            <ns3:hr>102</ns3:hr>
          </ns3:TrackPointExtension>
        </extensions>
      </trkpt>
      <trkpt lat="36.82607087306678295135498046875" lon="-118.39071479625999927520751953125">
        <ele>3937</ele>
        <time>2021-06-27T17:57:20.000Z</time>
        <extensions>
          <ns3:TrackPointExtension>
            <ns3:atemp>31.0</ns3:atemp>
            <ns3:hr>102</ns3:hr>
          </ns3:TrackPointExtension>
        </extensions>
      </trkpt>
      <trkpt lat="36.82606793940067291259765625" lon="-118.3907170593738555908203125">
        <ele>3935.800048828125</ele>
        <time>2021-06-27T17:57:29.000Z</time>
        <extensions>
          <ns3:TrackPointExtension>
            <ns3:atemp>31.0</ns3:atemp>
            <ns3:hr>102</ns3:hr>
          </ns3:TrackPointExtension>
        </extensions>
      </trkpt>
      <trkpt lat="36.82606567628681659698486328125" lon="-118.39071881957352161407470703125">
        <ele>3935.60009765625</ele>
        <time>2021-06-27T17:57:35.000Z</time>
        <extensions>
          <ns3:TrackPointExtension>
            <ns3:atemp>31.0</ns3:atemp>
            <ns3:hr>105</ns3:hr>
          </ns3:TrackPointExtension>
        </extensions>
      </trkpt>
      <trkpt lat="36.82605595327913761138916015625" lon="-118.39072653092443943023681640625">
        <ele>3934.60009765625</ele>
        <time>2021-06-27T17:57:58.000Z</time>
        <extensions>
          <ns3:TrackPointExtension>
            <ns3:atemp>31.0</ns3:atemp>
            <ns3:hr>107</ns3:hr>
          </ns3:TrackPointExtension>
        </extensions>
      </trkpt>
      <trkpt lat="36.82605159468948841094970703125" lon="-118.3907299675047397613525390625">
        <ele>3934.199951171875</ele>
        <time>2021-06-27T17:58:08.000Z</time>
        <extensions>
          <ns3:TrackPointExtension>
            <ns3:atemp>31.0</ns3:atemp>
            <ns3:hr>104</ns3:hr>
          </ns3:TrackPointExtension>
        </extensions>
      </trkpt>
      <trkpt lat="36.826050169765949249267578125" lon="-118.39073114097118377685546875">
        <ele>3934</ele>
        <time>2021-06-27T17:58:11.000Z</time>
        <extensions>
          <ns3:TrackPointExtension>
            <ns3:atemp>30.0</ns3:atemp>
            <ns3:hr>102</ns3:hr>
          </ns3:TrackPointExtension>
        </extensions>
      </trkpt>
      <trkpt lat="36.82604354806244373321533203125" lon="-118.390736170113086700439453125">
        <ele>3933.800048828125</ele>
        <time>2021-06-27T17:58:24.000Z</time>
        <extensions>
          <ns3:TrackPointExtension>
            <ns3:atemp>30.0</ns3:atemp>
            <ns3:hr>95</ns3:hr>
          </ns3:TrackPointExtension>
        </extensions>
      </trkpt>
      <trkpt lat="36.82604304514825344085693359375" lon="-118.39073658920824527740478515625">
        <ele>3934</ele>
        <time>2021-06-27T17:58:25.000Z</time>
        <extensions>
          <ns3:TrackPointExtension>
            <ns3:atemp>30.0</ns3:atemp>
            <ns3:hr>102</ns3:hr>
          </ns3:TrackPointExtension>
        </extensions>
      </trkpt>
      <trkpt lat="36.8260302208364009857177734375" lon="-118.3907474018633365631103515625">
        <ele>3934.39990234375</ele>
        <time>2021-06-27T17:58:47.000Z</time>
        <extensions>
          <ns3:TrackPointExtension>
            <ns3:atemp>30.0</ns3:atemp>
            <ns3:hr>105</ns3:hr>
          </ns3:TrackPointExtension>
        </extensions>
      </trkpt>
      <trkpt lat="36.8260283768177032470703125" lon="-118.390748910605907440185546875">
        <ele>3934.199951171875</ele>
        <time>2021-06-27T17:58:50.000Z</time>
        <extensions>
          <ns3:TrackPointExtension>
            <ns3:atemp>30.0</ns3:atemp>
            <ns3:hr>102</ns3:hr>
          </ns3:TrackPointExtension>
        </extensions>
      </trkpt>
      <trkpt lat="36.82602527551352977752685546875" lon="-118.39075150899589061737060546875">
        <ele>3933.800048828125</ele>
        <time>2021-06-27T17:58:55.000Z</time>
        <extensions>
          <ns3:TrackPointExtension>
            <ns3:atemp>30.0</ns3:atemp>
            <ns3:hr>99</ns3:hr>
          </ns3:TrackPointExtension>
        </extensions>
      </trkpt>
      <trkpt lat="36.82602343149483203887939453125" lon="-118.3907531015574932098388671875">
        <ele>3933.60009765625</ele>
        <time>2021-06-27T17:58:58.000Z</time>
        <extensions>
          <ns3:TrackPointExtension>
            <ns3:atemp>30.0</ns3:atemp>
            <ns3:hr>95</ns3:hr>
          </ns3:TrackPointExtension>
        </extensions>
      </trkpt>
      <trkpt lat="36.82602209039032459259033203125" lon="-118.39075419120490550994873046875">
        <ele>3933.39990234375</ele>
        <time>2021-06-27T17:59:00.000Z</time>
        <extensions>
          <ns3:TrackPointExtension>
            <ns3:atemp>30.0</ns3:atemp>
            <ns3:hr>94</ns3:hr>
          </ns3:TrackPointExtension>
        </extensions>
      </trkpt>
      <trkpt lat="36.8260181508958339691162109375" lon="-118.39075754396617412567138671875">
        <ele>3933</ele>
        <time>2021-06-27T17:59:06.000Z</time>
        <extensions>
          <ns3:TrackPointExtension>
            <ns3:atemp>30.0</ns3:atemp>
            <ns3:hr>91</ns3:hr>
          </ns3:TrackPointExtension>
        </extensions>
      </trkpt>
      <trkpt lat="36.8260161392390727996826171875" lon="-118.39075922034680843353271484375">
        <ele>3933.199951171875</ele>
        <time>2021-06-27T17:59:09.000Z</time>
        <extensions>
          <ns3:TrackPointExtension>
            <ns3:atemp>30.0</ns3:atemp>
            <ns3:hr>88</ns3:hr>
          </ns3:TrackPointExtension>
        </extensions>
      </trkpt>
      <trkpt lat="36.82601404376327991485595703125" lon="-118.390760980546474456787109375">
        <ele>3933.199951171875</ele>
        <time>2021-06-27T17:59:12.000Z</time>
        <extensions>
          <ns3:TrackPointExtension>
            <ns3:atemp>30.0</ns3:atemp>
            <ns3:hr>85</ns3:hr>
          </ns3:TrackPointExtension>
        </extensions>
      </trkpt>
      <trkpt lat="36.82600851170718669891357421875" lon="-118.39076592586934566497802734375">
        <ele>3933.39990234375</ele>
        <time>2021-06-27T17:59:20.000Z</time>
        <extensions>
          <ns3:TrackPointExtension>
            <ns3:atemp>30.0</ns3:atemp>
            <ns3:hr>82</ns3:hr>
          </ns3:TrackPointExtension>
        </extensions>
      </trkpt>
      <trkpt lat="36.82600499130785465240478515625" lon="-118.3907691948115825653076171875">
        <ele>3932.199951171875</ele>
        <time>2021-06-27T17:59:25.000Z</time>
        <extensions>
          <ns3:TrackPointExtension>
            <ns3:atemp>30.0</ns3:atemp>
            <ns3:hr>81</ns3:hr>
          </ns3:TrackPointExtension>
        </extensions>
      </trkpt>
      <trkpt lat="36.82599929161369800567626953125" lon="-118.39077472686767578125">
        <ele>3932</ele>
        <time>2021-06-27T17:59:33.000Z</time>
        <extensions>
          <ns3:TrackPointExtension>
            <ns3:atemp>30.0</ns3:atemp>
            <ns3:hr>84</ns3:hr>
          </ns3:TrackPointExtension>
        </extensions>
      </trkpt>
      <trkpt lat="36.82599275372922420501708984375" lon="-118.390781097114086151123046875">
        <ele>3931</ele>
        <time>2021-06-27T17:59:42.000Z</time>
        <extensions>
          <ns3:TrackPointExtension>
            <ns3:atemp>30.0</ns3:atemp>
            <ns3:hr>85</ns3:hr>
          </ns3:TrackPointExtension>
        </extensions>
      </trkpt>
      <trkpt lat="36.82598747313022613525390625" lon="-118.39078604243695735931396484375">
        <ele>3930</ele>
        <time>2021-06-27T17:59:49.000Z</time>
        <extensions>
          <ns3:TrackPointExtension>
            <ns3:atemp>30.0</ns3:atemp>
            <ns3:hr>90</ns3:hr>
          </ns3:TrackPointExtension>
        </extensions>
      </trkpt>
      <trkpt lat="36.82598671875894069671630859375" lon="-118.39078671298921108245849609375">
        <ele>3930</ele>
        <time>2021-06-27T17:59:50.000Z</time>
        <extensions>
          <ns3:TrackPointExtension>
            <ns3:atemp>30.0</ns3:atemp>
            <ns3:hr>87</ns3:hr>
          </ns3:TrackPointExtension>
        </extensions>
      </trkpt>
      <trkpt lat="36.82598135434091091156005859375" lon="-118.39079149067401885986328125">
        <ele>3930</ele>
        <time>2021-06-27T17:59:57.000Z</time>
        <extensions>
          <ns3:TrackPointExtension>
            <ns3:atemp>30.0</ns3:atemp>
            <ns3:hr>90</ns3:hr>
          </ns3:TrackPointExtension>
        </extensions>
      </trkpt>
      <trkpt lat="36.82598051615059375762939453125" lon="-118.39079224504530429840087890625">
        <ele>3930</ele>
        <time>2021-06-27T17:59:58.000Z</time>
        <extensions>
          <ns3:TrackPointExtension>
            <ns3:atemp>31.0</ns3:atemp>
            <ns3:hr>91</ns3:hr>
          </ns3:TrackPointExtension>
        </extensions>
      </trkpt>
      <trkpt lat="36.82597339153289794921875" lon="-118.3907983638346195220947265625">
        <ele>3928.800048828125</ele>
        <time>2021-06-27T18:00:07.000Z</time>
        <extensions>
          <ns3:TrackPointExtension>
            <ns3:atemp>31.0</ns3:atemp>
            <ns3:hr>90</ns3:hr>
          </ns3:TrackPointExtension>
        </extensions>
      </trkpt>
      <trkpt lat="36.82595503516495227813720703125" lon="-118.39081294834613800048828125">
        <ele>3927.60009765625</ele>
        <time>2021-06-27T18:00:28.000Z</time>
        <extensions>
          <ns3:TrackPointExtension>
            <ns3:atemp>31.0</ns3:atemp>
            <ns3:hr>91</ns3:hr>
          </ns3:TrackPointExtension>
        </extensions>
      </trkpt>
      <trkpt lat="36.8259504251182079315185546875" lon="-118.39081672020256519317626953125">
        <ele>3927.39990234375</ele>
        <time>2021-06-27T18:00:33.000Z</time>
        <extensions>
          <ns3:TrackPointExtension>
            <ns3:atemp>31.0</ns3:atemp>
            <ns3:hr>94</ns3:hr>
          </ns3:TrackPointExtension>
        </extensions>
      </trkpt>
      <trkpt lat="36.82594120502471923828125" lon="-118.39082476682960987091064453125">
        <ele>3926.60009765625</ele>
        <time>2021-06-27T18:00:43.000Z</time>
        <extensions>
          <ns3:TrackPointExtension>
            <ns3:atemp>31.0</ns3:atemp>
            <ns3:hr>94</ns3:hr>
          </ns3:TrackPointExtension>
        </extensions>
      </trkpt>
      <trkpt lat="36.82592636905610561370849609375" lon="-118.39083717204630374908447265625">
        <ele>3926</ele>
        <time>2021-06-27T18:00:58.000Z</time>
        <extensions>
          <ns3:TrackPointExtension>
            <ns3:atemp>31.0</ns3:atemp>
            <ns3:hr>97</ns3:hr>
          </ns3:TrackPointExtension>
        </extensions>
      </trkpt>
      <trkpt lat="36.8259232677519321441650390625" lon="-118.3908396027982234954833984375">
        <ele>3926.39990234375</ele>
        <time>2021-06-27T18:01:01.000Z</time>
        <extensions>
          <ns3:TrackPointExtension>
            <ns3:atemp>31.0</ns3:atemp>
            <ns3:hr>101</ns3:hr>
          </ns3:TrackPointExtension>
        </extensions>
      </trkpt>
      <trkpt lat="36.82592117227613925933837890625" lon="-118.3908412791788578033447265625">
        <ele>3926.39990234375</ele>
        <time>2021-06-27T18:01:03.000Z</time>
        <extensions>
          <ns3:TrackPointExtension>
            <ns3:atemp>31.0</ns3:atemp>
            <ns3:hr>104</ns3:hr>
          </ns3:TrackPointExtension>
        </extensions>
      </trkpt>
      <trkpt lat="36.825918070971965789794921875" lon="-118.39084387756884098052978515625">
        <ele>3926.39990234375</ele>
        <time>2021-06-27T18:01:06.000Z</time>
        <extensions>
          <ns3:TrackPointExtension>
            <ns3:atemp>31.0</ns3:atemp>
            <ns3:hr>107</ns3:hr>
          </ns3:TrackPointExtension>
        </extensions>
      </trkpt>
      <trkpt lat="36.82591178454458713531494140625" lon="-118.3908489905297756195068359375">
        <ele>3925.39990234375</ele>
        <time>2021-06-27T18:01:12.000Z</time>
        <extensions>
          <ns3:TrackPointExtension>
            <ns3:atemp>31.0</ns3:atemp>
            <ns3:hr>107</ns3:hr>
          </ns3:TrackPointExtension>
        </extensions>
      </trkpt>
      <trkpt lat="36.82590558193624019622802734375" lon="-118.3908540196716785430908203125">
        <ele>3924.39990234375</ele>
        <time>2021-06-27T18:01:18.000Z</time>
        <extensions>
          <ns3:TrackPointExtension>
            <ns3:atemp>31.0</ns3:atemp>
            <ns3:hr>107</ns3:hr>
          </ns3:TrackPointExtension>
        </extensions>
      </trkpt>
      <trkpt lat="36.82589937932789325714111328125" lon="-118.3908590488135814666748046875">
        <ele>3923.60009765625</ele>
        <time>2021-06-27T18:01:24.000Z</time>
        <extensions>
          <ns3:TrackPointExtension>
            <ns3:atemp>31.0</ns3:atemp>
            <ns3:hr>108</ns3:hr>
          </ns3:TrackPointExtension>
        </extensions>
      </trkpt>
      <trkpt lat="36.825897283852100372314453125" lon="-118.3908607251942157745361328125">
        <ele>3923.199951171875</ele>
        <time>2021-06-27T18:01:26.000Z</time>
        <extensions>
          <ns3:TrackPointExtension>
            <ns3:atemp>31.0</ns3:atemp>
            <ns3:hr>108</ns3:hr>
          </ns3:TrackPointExtension>
        </extensions>
      </trkpt>
      <trkpt lat="36.8258940987288951873779296875" lon="-118.390863239765167236328125">
        <ele>3922.199951171875</ele>
        <time>2021-06-27T18:01:29.000Z</time>
        <extensions>
          <ns3:TrackPointExtension>
            <ns3:atemp>31.0</ns3:atemp>
            <ns3:hr>107</ns3:hr>
          </ns3:TrackPointExtension>
        </extensions>
      </trkpt>
      <trkpt lat="36.8258833698928356170654296875" lon="-118.3908712863922119140625">
        <ele>3921.199951171875</ele>
        <time>2021-06-27T18:01:39.000Z</time>
        <extensions>
          <ns3:TrackPointExtension>
            <ns3:atemp>31.0</ns3:atemp>
            <ns3:hr>110</ns3:hr>
          </ns3:TrackPointExtension>
        </extensions>
      </trkpt>
      <trkpt lat="36.82588228024542331695556640625" lon="-118.3908721245825290679931640625">
        <ele>3921.199951171875</ele>
        <time>2021-06-27T18:01:40.000Z</time>
        <extensions>
          <ns3:TrackPointExtension>
            <ns3:atemp>31.0</ns3:atemp>
            <ns3:hr>108</ns3:hr>
          </ns3:TrackPointExtension>
        </extensions>
      </trkpt>
      <trkpt lat="36.825873143970966339111328125" lon="-118.39087841100990772247314453125">
        <ele>3920.199951171875</ele>
        <time>2021-06-27T18:01:48.000Z</time>
        <extensions>
          <ns3:TrackPointExtension>
            <ns3:atemp>31.0</ns3:atemp>
            <ns3:hr>111</ns3:hr>
          </ns3:TrackPointExtension>
        </extensions>
      </trkpt>
      <trkpt lat="36.8258719705045223236083984375" lon="-118.39087924920022487640380859375">
        <ele>3920.199951171875</ele>
        <time>2021-06-27T18:01:49.000Z</time>
        <extensions>
          <ns3:TrackPointExtension>
            <ns3:atemp>31.0</ns3:atemp>
            <ns3:hr>114</ns3:hr>
          </ns3:TrackPointExtension>
        </extensions>
      </trkpt>
      <trkpt lat="36.82587079703807830810546875" lon="-118.39088000357151031494140625">
        <ele>3920</ele>
        <time>2021-06-27T18:01:50.000Z</time>
        <extensions>
          <ns3:TrackPointExtension>
            <ns3:atemp>31.0</ns3:atemp>
            <ns3:hr>114</ns3:hr>
          </ns3:TrackPointExtension>
        </extensions>
      </trkpt>
      <trkpt lat="36.825856380164623260498046875" lon="-118.3908895589411258697509765625">
        <ele>3919.39990234375</ele>
        <time>2021-06-27T18:02:02.000Z</time>
        <extensions>
          <ns3:TrackPointExtension>
            <ns3:atemp>31.0</ns3:atemp>
            <ns3:hr>111</ns3:hr>
          </ns3:TrackPointExtension>
        </extensions>
      </trkpt>
      <trkpt lat="36.82584757916629314422607421875" lon="-118.3908952586352825164794921875">
        <ele>3919.60009765625</ele>
        <time>2021-06-27T18:02:09.000Z</time>
        <extensions>
          <ns3:TrackPointExtension>
            <ns3:atemp>31.0</ns3:atemp>
            <ns3:hr>108</ns3:hr>
          </ns3:TrackPointExtension>
        </extensions>
      </trkpt>
      <trkpt lat="36.8258438073098659515380859375" lon="-118.390897773206233978271484375">
        <ele>3919.60009765625</ele>
        <time>2021-06-27T18:02:12.000Z</time>
        <extensions>
          <ns3:TrackPointExtension>
            <ns3:atemp>31.0</ns3:atemp>
            <ns3:hr>105</ns3:hr>
          </ns3:TrackPointExtension>
        </extensions>
      </trkpt>
      <trkpt lat="36.82583886198699474334716796875" lon="-118.39090120978653430938720703125">
        <ele>3919.800048828125</ele>
        <time>2021-06-27T18:02:16.000Z</time>
        <extensions>
          <ns3:TrackPointExtension>
            <ns3:atemp>31.0</ns3:atemp>
            <ns3:hr>102</ns3:hr>
          </ns3:TrackPointExtension>
        </extensions>
      </trkpt>
      <trkpt lat="36.82583265937864780426025390625" lon="-118.39090540073812007904052734375">
        <ele>3920.199951171875</ele>
        <time>2021-06-27T18:02:21.000Z</time>
        <extensions>
          <ns3:TrackPointExtension>
            <ns3:atemp>31.0</ns3:atemp>
            <ns3:hr>99</ns3:hr>
          </ns3:TrackPointExtension>
        </extensions>
      </trkpt>
      <trkpt lat="36.82583014480769634246826171875" lon="-118.39090707711875438690185546875">
        <ele>3920.199951171875</ele>
        <time>2021-06-27T18:02:23.000Z</time>
        <extensions>
          <ns3:TrackPointExtension>
            <ns3:atemp>31.0</ns3:atemp>
            <ns3:hr>96</ns3:hr>
          </ns3:TrackPointExtension>
        </extensions>
      </trkpt>
      <trkpt lat="36.82580952532589435577392578125" lon="-118.3909210748970508575439453125">
        <ele>3920</ele>
        <time>2021-06-27T18:02:40.000Z</time>
        <extensions>
          <ns3:TrackPointExtension>
            <ns3:atemp>31.0</ns3:atemp>
            <ns3:hr>93</ns3:hr>
          </ns3:TrackPointExtension>
        </extensions>
      </trkpt>
      <trkpt lat="36.82580114342272281646728515625" lon="-118.39092669077217578887939453125">
        <ele>3920.60009765625</ele>
        <time>2021-06-27T18:02:47.000Z</time>
        <extensions>
          <ns3:TrackPointExtension>
            <ns3:atemp>31.0</ns3:atemp>
            <ns3:hr>90</ns3:hr>
          </ns3:TrackPointExtension>
        </extensions>
      </trkpt>
      <trkpt lat="36.82578136213123798370361328125" lon="-118.3909401856362819671630859375">
        <ele>3921</ele>
        <time>2021-06-27T18:03:04.000Z</time>
        <extensions>
          <ns3:TrackPointExtension>
            <ns3:atemp>31.0</ns3:atemp>
            <ns3:hr>89</ns3:hr>
          </ns3:TrackPointExtension>
        </extensions>
      </trkpt>
      <trkpt lat="36.82576644234359264373779296875" lon="-118.3909502439200878143310546875">
        <ele>3921.199951171875</ele>
        <time>2021-06-27T18:03:17.000Z</time>
        <extensions>
          <ns3:TrackPointExtension>
            <ns3:atemp>30.0</ns3:atemp>
            <ns3:hr>92</ns3:hr>
          </ns3:TrackPointExtension>
        </extensions>
      </trkpt>
      <trkpt lat="36.82573861442506313323974609375" lon="-118.39096910320222377777099609375">
        <ele>3920.800048828125</ele>
        <time>2021-06-27T18:03:42.000Z</time>
        <extensions>
          <ns3:TrackPointExtension>
            <ns3:atemp>31.0</ns3:atemp>
            <ns3:hr>89</ns3:hr>
          </ns3:TrackPointExtension>
        </extensions>
      </trkpt>
      <trkpt lat="36.8257224373519420623779296875" lon="-118.3909799158573150634765625">
        <ele>3920</ele>
        <time>2021-06-27T18:03:57.000Z</time>
        <extensions>
          <ns3:TrackPointExtension>
            <ns3:atemp>31.0</ns3:atemp>
            <ns3:hr>93</ns3:hr>
          </ns3:TrackPointExtension>
        </extensions>
      </trkpt>
      <trkpt lat="36.8257214315235614776611328125" lon="-118.39098058640956878662109375">
        <ele>3920</ele>
        <time>2021-06-27T18:03:58.000Z</time>
        <extensions>
          <ns3:TrackPointExtension>
            <ns3:atemp>31.0</ns3:atemp>
            <ns3:hr>96</ns3:hr>
          </ns3:TrackPointExtension>
        </extensions>
      </trkpt>
      <trkpt lat="36.82572034187614917755126953125" lon="-118.39098134078085422515869140625">
        <ele>3919.800048828125</ele>
        <time>2021-06-27T18:03:59.000Z</time>
        <extensions>
          <ns3:TrackPointExtension>
            <ns3:atemp>31.0</ns3:atemp>
            <ns3:hr>99</ns3:hr>
          </ns3:TrackPointExtension>
        </extensions>
      </trkpt>
      <trkpt lat="36.82571925222873687744140625" lon="-118.39098201133310794830322265625">
        <ele>3919.800048828125</ele>
        <time>2021-06-27T18:04:00.000Z</time>
        <extensions>
          <ns3:TrackPointExtension>
            <ns3:atemp>31.0</ns3:atemp>
            <ns3:hr>102</ns3:hr>
          </ns3:TrackPointExtension>
        </extensions>
      </trkpt>
      <trkpt lat="36.8257170729339122772216796875" lon="-118.3909834362566471099853515625">
        <ele>3919.39990234375</ele>
        <time>2021-06-27T18:04:02.000Z</time>
        <extensions>
          <ns3:TrackPointExtension>
            <ns3:atemp>31.0</ns3:atemp>
            <ns3:hr>106</ns3:hr>
          </ns3:TrackPointExtension>
        </extensions>
      </trkpt>
      <trkpt lat="36.825714893639087677001953125" lon="-118.3909847773611545562744140625">
        <ele>3919.39990234375</ele>
        <time>2021-06-27T18:04:04.000Z</time>
        <extensions>
          <ns3:TrackPointExtension>
            <ns3:atemp>31.0</ns3:atemp>
            <ns3:hr>109</ns3:hr>
          </ns3:TrackPointExtension>
        </extensions>
      </trkpt>
      <trkpt lat="36.82571162469685077667236328125" lon="-118.3909867890179157257080078125">
        <ele>3919.60009765625</ele>
        <time>2021-06-27T18:04:07.000Z</time>
        <extensions>
          <ns3:TrackPointExtension>
            <ns3:atemp>31.0</ns3:atemp>
            <ns3:hr>112</ns3:hr>
          </ns3:TrackPointExtension>
        </extensions>
      </trkpt>
      <trkpt lat="36.82570709846913814544677734375" lon="-118.39098938740789890289306640625">
        <ele>3919.39990234375</ele>
        <time>2021-06-27T18:04:11.000Z</time>
        <extensions>
          <ns3:TrackPointExtension>
            <ns3:atemp>31.0</ns3:atemp>
            <ns3:hr>115</ns3:hr>
          </ns3:TrackPointExtension>
        </extensions>
      </trkpt>
      <trkpt lat="36.82569905184209346771240234375" lon="-118.39099374599754810333251953125">
        <ele>3919.199951171875</ele>
        <time>2021-06-27T18:04:18.000Z</time>
        <extensions>
          <ns3:TrackPointExtension>
            <ns3:atemp>31.0</ns3:atemp>
            <ns3:hr>112</ns3:hr>
          </ns3:TrackPointExtension>
        </extensions>
      </trkpt>
      <trkpt lat="36.82569553144276142120361328125" lon="-118.390995673835277557373046875">
        <ele>3918.800048828125</ele>
        <time>2021-06-27T18:04:21.000Z</time>
        <extensions>
          <ns3:TrackPointExtension>
            <ns3:atemp>31.0</ns3:atemp>
            <ns3:hr>112</ns3:hr>
          </ns3:TrackPointExtension>
        </extensions>
      </trkpt>
      <trkpt lat="36.825663931667804718017578125" lon="-118.39101084508001804351806640625">
        <ele>3918.800048828125</ele>
        <time>2021-06-27T18:04:46.000Z</time>
        <extensions>
          <ns3:TrackPointExtension>
            <ns3:atemp>31.0</ns3:atemp>
            <ns3:hr>108</ns3:hr>
          </ns3:TrackPointExtension>
        </extensions>
      </trkpt>
      <trkpt lat="36.82564674876630306243896484375" lon="-118.39101872406899929046630859375">
        <ele>3918.800048828125</ele>
        <time>2021-06-27T18:04:59.000Z</time>
        <extensions>
          <ns3:TrackPointExtension>
            <ns3:atemp>31.0</ns3:atemp>
            <ns3:hr>105</ns3:hr>
          </ns3:TrackPointExtension>
        </extensions>
      </trkpt>
      <trkpt lat="36.825623027980327606201171875" lon="-118.3910297043621540069580078125">
        <ele>3918</ele>
        <time>2021-06-27T18:05:17.000Z</time>
        <extensions>
          <ns3:TrackPointExtension>
            <ns3:atemp>31.0</ns3:atemp>
            <ns3:hr>102</ns3:hr>
          </ns3:TrackPointExtension>
        </extensions>
      </trkpt>
      <trkpt lat="36.825620345771312713623046875" lon="-118.39103096164762973785400390625">
        <ele>3917.800048828125</ele>
        <time>2021-06-27T18:05:19.000Z</time>
        <extensions>
          <ns3:TrackPointExtension>
            <ns3:atemp>31.0</ns3:atemp>
            <ns3:hr>102</ns3:hr>
          </ns3:TrackPointExtension>
        </extensions>
      </trkpt>
      <trkpt lat="36.82561489753425121307373046875" lon="-118.3910333923995494842529296875">
        <ele>3917.800048828125</ele>
        <time>2021-06-27T18:05:23.000Z</time>
        <extensions>
          <ns3:TrackPointExtension>
            <ns3:atemp>31.0</ns3:atemp>
            <ns3:hr>105</ns3:hr>
          </ns3:TrackPointExtension>
        </extensions>
      </trkpt>
      <trkpt lat="36.8256107904016971588134765625" lon="-118.39103515259921550750732421875">
        <ele>3917.800048828125</ele>
        <time>2021-06-27T18:05:26.000Z</time>
        <extensions>
          <ns3:TrackPointExtension>
            <ns3:atemp>31.0</ns3:atemp>
            <ns3:hr>108</ns3:hr>
          </ns3:TrackPointExtension>
        </extensions>
      </trkpt>
      <trkpt lat="36.82559813372790813446044921875" lon="-118.3910404331982135772705078125">
        <ele>3918.800048828125</ele>
        <time>2021-06-27T18:05:35.000Z</time>
        <extensions>
          <ns3:TrackPointExtension>
            <ns3:atemp>31.0</ns3:atemp>
            <ns3:hr>106</ns3:hr>
          </ns3:TrackPointExtension>
        </extensions>
      </trkpt>
      <trkpt lat="36.8255923502147197723388671875" lon="-118.3910427801311016082763671875">
        <ele>3918.800048828125</ele>
        <time>2021-06-27T18:05:39.000Z</time>
        <extensions>
          <ns3:TrackPointExtension>
            <ns3:atemp>31.0</ns3:atemp>
            <ns3:hr>103</ns3:hr>
          </ns3:TrackPointExtension>
        </extensions>
      </trkpt>
      <trkpt lat="36.82558790780603885650634765625" lon="-118.3910444565117359161376953125">
        <ele>3918.800048828125</ele>
        <time>2021-06-27T18:05:42.000Z</time>
        <extensions>
          <ns3:TrackPointExtension>
            <ns3:atemp>31.0</ns3:atemp>
            <ns3:hr>99</ns3:hr>
          </ns3:TrackPointExtension>
        </extensions>
      </trkpt>
      <trkpt lat="36.8255789391696453094482421875" lon="-118.39104789309203624725341796875">
        <ele>3918.60009765625</ele>
        <time>2021-06-27T18:05:48.000Z</time>
        <extensions>
          <ns3:TrackPointExtension>
            <ns3:atemp>31.0</ns3:atemp>
            <ns3:hr>96</ns3:hr>
          </ns3:TrackPointExtension>
        </extensions>
      </trkpt>
      <trkpt lat="36.82557131163775920867919921875" lon="-118.391050659120082855224609375">
        <ele>3918</ele>
        <time>2021-06-27T18:05:53.000Z</time>
        <extensions>
          <ns3:TrackPointExtension>
            <ns3:atemp>31.0</ns3:atemp>
            <ns3:hr>93</ns3:hr>
          </ns3:TrackPointExtension>
        </extensions>
      </trkpt>
      <trkpt lat="36.8255697190761566162109375" lon="-118.39105124585330486297607421875">
        <ele>3917.39990234375</ele>
        <time>2021-06-27T18:05:54.000Z</time>
        <extensions>
          <ns3:TrackPointExtension>
            <ns3:atemp>31.0</ns3:atemp>
            <ns3:hr>94</ns3:hr>
          </ns3:TrackPointExtension>
        </extensions>
      </trkpt>
      <trkpt lat="36.82554616592824459075927734375" lon="-118.39105971157550811767578125">
        <ele>3916.39990234375</ele>
        <time>2021-06-27T18:06:09.000Z</time>
        <extensions>
          <ns3:TrackPointExtension>
            <ns3:atemp>31.0</ns3:atemp>
            <ns3:hr>95</ns3:hr>
          </ns3:TrackPointExtension>
        </extensions>
      </trkpt>
      <trkpt lat="36.8255303241312503814697265625" lon="-118.391065411269664764404296875">
        <ele>3916.800048828125</ele>
        <time>2021-06-27T18:06:19.000Z</time>
        <extensions>
          <ns3:TrackPointExtension>
            <ns3:atemp>31.0</ns3:atemp>
            <ns3:hr>98</ns3:hr>
          </ns3:TrackPointExtension>
        </extensions>
      </trkpt>
      <trkpt lat="36.8255125544965267181396484375" lon="-118.39107169769704341888427734375">
        <ele>3915.199951171875</ele>
        <time>2021-06-27T18:06:30.000Z</time>
        <extensions>
          <ns3:TrackPointExtension>
            <ns3:atemp>31.0</ns3:atemp>
            <ns3:hr>97</ns3:hr>
          </ns3:TrackPointExtension>
        </extensions>
      </trkpt>
      <trkpt lat="36.8255028314888477325439453125" lon="-118.39107513427734375">
        <ele>3914.39990234375</ele>
        <time>2021-06-27T18:06:36.000Z</time>
        <extensions>
          <ns3:TrackPointExtension>
            <ns3:atemp>31.0</ns3:atemp>
            <ns3:hr>93</ns3:hr>
          </ns3:TrackPointExtension>
        </extensions>
      </trkpt>
      <trkpt lat="36.82549956254661083221435546875" lon="-118.39107639156281948089599609375">
        <ele>3914.60009765625</ele>
        <time>2021-06-27T18:06:38.000Z</time>
        <extensions>
          <ns3:TrackPointExtension>
            <ns3:atemp>31.0</ns3:atemp>
            <ns3:hr>90</ns3:hr>
          </ns3:TrackPointExtension>
        </extensions>
      </trkpt>
      <trkpt lat="36.825496293604373931884765625" lon="-118.39107756502926349639892578125">
        <ele>3914.800048828125</ele>
        <time>2021-06-27T18:06:40.000Z</time>
        <extensions>
          <ns3:TrackPointExtension>
            <ns3:atemp>31.0</ns3:atemp>
            <ns3:hr>94</ns3:hr>
          </ns3:TrackPointExtension>
        </extensions>
      </trkpt>
      <trkpt lat="36.8254629336297512054443359375" lon="-118.3910898864269256591796875">
        <ele>3915.199951171875</ele>
        <time>2021-06-27T18:07:00.000Z</time>
        <extensions>
          <ns3:TrackPointExtension>
            <ns3:atemp>31.0</ns3:atemp>
            <ns3:hr>91</ns3:hr>
          </ns3:TrackPointExtension>
        </extensions>
      </trkpt>
      <trkpt lat="36.8254195153713226318359375" lon="-118.391105644404888153076171875">
        <ele>3914</ele>
        <time>2021-06-27T18:07:27.000Z</time>
        <extensions>
          <ns3:TrackPointExtension>
            <ns3:atemp>31.0</ns3:atemp>
            <ns3:hr>93</ns3:hr>
          </ns3:TrackPointExtension>
        </extensions>
      </trkpt>
      <trkpt lat="36.82540685869753360748291015625" lon="-118.39111008681356906890869140625">
        <ele>3913.39990234375</ele>
        <time>2021-06-27T18:07:35.000Z</time>
        <extensions>
          <ns3:TrackPointExtension>
            <ns3:atemp>31.0</ns3:atemp>
            <ns3:hr>90</ns3:hr>
          </ns3:TrackPointExtension>
        </extensions>
      </trkpt>
      <trkpt lat="36.82540367357432842254638671875" lon="-118.39111126028001308441162109375">
        <ele>3913.39990234375</ele>
        <time>2021-06-27T18:07:37.000Z</time>
        <extensions>
          <ns3:TrackPointExtension>
            <ns3:atemp>31.0</ns3:atemp>
            <ns3:hr>93</ns3:hr>
          </ns3:TrackPointExtension>
        </extensions>
      </trkpt>
      <trkpt lat="36.82539068162441253662109375" lon="-118.39111595414578914642333984375">
        <ele>3913.60009765625</ele>
        <time>2021-06-27T18:07:45.000Z</time>
        <extensions>
          <ns3:TrackPointExtension>
            <ns3:atemp>31.0</ns3:atemp>
            <ns3:hr>96</ns3:hr>
          </ns3:TrackPointExtension>
        </extensions>
      </trkpt>
      <trkpt lat="36.8253633566200733184814453125" lon="-118.391126096248626708984375">
        <ele>3913.800048828125</ele>
        <time>2021-06-27T18:08:02.000Z</time>
        <extensions>
          <ns3:TrackPointExtension>
            <ns3:atemp>31.0</ns3:atemp>
            <ns3:hr>96</ns3:hr>
          </ns3:TrackPointExtension>
        </extensions>
      </trkpt>
      <trkpt lat="36.8253522925078868865966796875" lon="-118.39113003574311733245849609375">
        <ele>3913.60009765625</ele>
        <time>2021-06-27T18:08:09.000Z</time>
        <extensions>
          <ns3:TrackPointExtension>
            <ns3:atemp>32.0</ns3:atemp>
            <ns3:hr>93</ns3:hr>
          </ns3:TrackPointExtension>
        </extensions>
      </trkpt>
      <trkpt lat="36.8253382109105587005615234375" lon="-118.39113506488502025604248046875">
        <ele>3913.60009765625</ele>
        <time>2021-06-27T18:08:18.000Z</time>
        <extensions>
          <ns3:TrackPointExtension>
            <ns3:atemp>32.0</ns3:atemp>
            <ns3:hr>90</ns3:hr>
          </ns3:TrackPointExtension>
        </extensions>
      </trkpt>
      <trkpt lat="36.82533510960638523101806640625" lon="-118.39113615453243255615234375">
        <ele>3913.60009765625</ele>
        <time>2021-06-27T18:08:20.000Z</time>
        <extensions>
          <ns3:TrackPointExtension>
            <ns3:atemp>32.0</ns3:atemp>
            <ns3:hr>87</ns3:hr>
          </ns3:TrackPointExtension>
        </extensions>
      </trkpt>
      <trkpt lat="36.825332008302211761474609375" lon="-118.3911373279988765716552734375">
        <ele>3913.800048828125</ele>
        <time>2021-06-27T18:08:22.000Z</time>
        <extensions>
          <ns3:TrackPointExtension>
            <ns3:atemp>32.0</ns3:atemp>
            <ns3:hr>84</ns3:hr>
          </ns3:TrackPointExtension>
        </extensions>
      </trkpt>
      <trkpt lat="36.82531968690454959869384765625" lon="-118.39114177040755748748779296875">
        <ele>3913.800048828125</ele>
        <time>2021-06-27T18:08:30.000Z</time>
        <extensions>
          <ns3:TrackPointExtension>
            <ns3:atemp>32.0</ns3:atemp>
            <ns3:hr>87</ns3:hr>
          </ns3:TrackPointExtension>
        </extensions>
      </trkpt>
      <trkpt lat="36.825313568115234375" lon="-118.39114394970238208770751953125">
        <ele>3913.800048828125</ele>
        <time>2021-06-27T18:08:34.000Z</time>
        <extensions>
          <ns3:TrackPointExtension>
            <ns3:atemp>32.0</ns3:atemp>
            <ns3:hr>90</ns3:hr>
          </ns3:TrackPointExtension>
        </extensions>
      </trkpt>
      <trkpt lat="36.82528800331056118011474609375" lon="-118.39115333743393421173095703125">
        <ele>3913.800048828125</ele>
        <time>2021-06-27T18:08:51.000Z</time>
        <extensions>
          <ns3:TrackPointExtension>
            <ns3:atemp>31.0</ns3:atemp>
            <ns3:hr>87</ns3:hr>
          </ns3:TrackPointExtension>
        </extensions>
      </trkpt>
      <trkpt lat="36.82528205215930938720703125" lon="-118.39115560054779052734375">
        <ele>3913.800048828125</ele>
        <time>2021-06-27T18:08:55.000Z</time>
        <extensions>
          <ns3:TrackPointExtension>
            <ns3:atemp>31.0</ns3:atemp>
            <ns3:hr>84</ns3:hr>
          </ns3:TrackPointExtension>
        </extensions>
      </trkpt>
      <trkpt lat="36.8252761848270893096923828125" lon="-118.3911577798426151275634765625">
        <ele>3913.800048828125</ele>
        <time>2021-06-27T18:08:59.000Z</time>
        <extensions>
          <ns3:TrackPointExtension>
            <ns3:atemp>31.0</ns3:atemp>
            <ns3:hr>81</ns3:hr>
          </ns3:TrackPointExtension>
        </extensions>
      </trkpt>
      <trkpt lat="36.825260259211063385009765625" lon="-118.39116373099386692047119140625">
        <ele>3913.800048828125</ele>
        <time>2021-06-27T18:09:10.000Z</time>
        <extensions>
          <ns3:TrackPointExtension>
            <ns3:atemp>31.0</ns3:atemp>
            <ns3:hr>85</ns3:hr>
          </ns3:TrackPointExtension>
        </extensions>
      </trkpt>
      <trkpt lat="36.82525145821273326873779296875" lon="-118.39116691611707210540771484375">
        <ele>3913.800048828125</ele>
        <time>2021-06-27T18:09:16.000Z</time>
        <extensions>
          <ns3:TrackPointExtension>
            <ns3:atemp>31.0</ns3:atemp>
            <ns3:hr>88</ns3:hr>
          </ns3:TrackPointExtension>
        </extensions>
      </trkpt>
      <trkpt lat="36.82523771189153194427490234375" lon="-118.39117160998284816741943359375">
        <ele>3913.800048828125</ele>
        <time>2021-06-27T18:09:25.000Z</time>
        <extensions>
          <ns3:TrackPointExtension>
            <ns3:atemp>31.0</ns3:atemp>
            <ns3:hr>85</ns3:hr>
          </ns3:TrackPointExtension>
        </extensions>
      </trkpt>
      <trkpt lat="36.8252104707062244415283203125" lon="-118.39117999188601970672607421875">
        <ele>3913.800048828125</ele>
        <time>2021-06-27T18:09:42.000Z</time>
        <extensions>
          <ns3:TrackPointExtension>
            <ns3:atemp>31.0</ns3:atemp>
            <ns3:hr>88</ns3:hr>
          </ns3:TrackPointExtension>
        </extensions>
      </trkpt>
      <trkpt lat="36.8252087943255901336669921875" lon="-118.39118049480020999908447265625">
        <ele>3913.800048828125</ele>
        <time>2021-06-27T18:09:43.000Z</time>
        <extensions>
          <ns3:TrackPointExtension>
            <ns3:atemp>31.0</ns3:atemp>
            <ns3:hr>92</ns3:hr>
          </ns3:TrackPointExtension>
        </extensions>
      </trkpt>
      <trkpt lat="36.82520552538335323333740234375" lon="-118.391181416809558868408203125">
        <ele>3913.800048828125</ele>
        <time>2021-06-27T18:09:45.000Z</time>
        <extensions>
          <ns3:TrackPointExtension>
            <ns3:atemp>31.0</ns3:atemp>
            <ns3:hr>98</ns3:hr>
          </ns3:TrackPointExtension>
        </extensions>
      </trkpt>
      <trkpt lat="36.82520384900271892547607421875" lon="-118.3911819197237491607666015625">
        <ele>3913.800048828125</ele>
        <time>2021-06-27T18:09:46.000Z</time>
        <extensions>
          <ns3:TrackPointExtension>
            <ns3:atemp>31.0</ns3:atemp>
            <ns3:hr>97</ns3:hr>
          </ns3:TrackPointExtension>
        </extensions>
      </trkpt>
      <trkpt lat="36.82518205605447292327880859375" lon="-118.3911879546940326690673828125">
        <ele>3913.800048828125</ele>
        <time>2021-06-27T18:09:59.000Z</time>
        <extensions>
          <ns3:TrackPointExtension>
            <ns3:atemp>31.0</ns3:atemp>
            <ns3:hr>94</ns3:hr>
          </ns3:TrackPointExtension>
        </extensions>
      </trkpt>
      <trkpt lat="36.82517518289387226104736328125" lon="-118.39118988253176212310791015625">
        <ele>3913.800048828125</ele>
        <time>2021-06-27T18:10:03.000Z</time>
        <extensions>
          <ns3:TrackPointExtension>
            <ns3:atemp>31.0</ns3:atemp>
            <ns3:hr>91</ns3:hr>
          </ns3:TrackPointExtension>
        </extensions>
      </trkpt>
      <trkpt lat="36.8251665495336055755615234375" lon="-118.391192145645618438720703125">
        <ele>3913.800048828125</ele>
        <time>2021-06-27T18:10:08.000Z</time>
        <extensions>
          <ns3:TrackPointExtension>
            <ns3:atemp>31.0</ns3:atemp>
            <ns3:hr>88</ns3:hr>
          </ns3:TrackPointExtension>
        </extensions>
      </trkpt>
      <trkpt lat="36.8251239694654941558837890625" lon="-118.3912025392055511474609375">
        <ele>3917.39990234375</ele>
        <time>2021-06-27T18:10:32.000Z</time>
        <extensions>
          <ns3:TrackPointExtension>
            <ns3:atemp>31.0</ns3:atemp>
            <ns3:hr>87</ns3:hr>
          </ns3:TrackPointExtension>
        </extensions>
      </trkpt>
      <trkpt lat="36.8251186050474643707275390625" lon="-118.39120379649102687835693359375">
        <ele>3917.39990234375</ele>
        <time>2021-06-27T18:10:35.000Z</time>
        <extensions>
          <ns3:TrackPointExtension>
            <ns3:atemp>31.0</ns3:atemp>
            <ns3:hr>84</ns3:hr>
          </ns3:TrackPointExtension>
        </extensions>
      </trkpt>
      <trkpt lat="36.825116761028766632080078125" lon="-118.391204215586185455322265625">
        <ele>3917.39990234375</ele>
        <time>2021-06-27T18:10:36.000Z</time>
        <extensions>
          <ns3:TrackPointExtension>
            <ns3:atemp>31.0</ns3:atemp>
            <ns3:hr>87</ns3:hr>
          </ns3:TrackPointExtension>
        </extensions>
      </trkpt>
      <trkpt lat="36.8251021765172481536865234375" lon="-118.39120748452842235565185546875">
        <ele>3917.39990234375</ele>
        <time>2021-06-27T18:10:44.000Z</time>
        <extensions>
          <ns3:TrackPointExtension>
            <ns3:atemp>31.0</ns3:atemp>
            <ns3:hr>84</ns3:hr>
          </ns3:TrackPointExtension>
        </extensions>
      </trkpt>
      <trkpt lat="36.8251003324985504150390625" lon="-118.3912079036235809326171875">
        <ele>3917.39990234375</ele>
        <time>2021-06-27T18:10:45.000Z</time>
        <extensions>
          <ns3:TrackPointExtension>
            <ns3:atemp>31.0</ns3:atemp>
            <ns3:hr>88</ns3:hr>
          </ns3:TrackPointExtension>
        </extensions>
      </trkpt>
      <trkpt lat="36.825096644461154937744140625" lon="-118.39120882563292980194091796875">
        <ele>3917.60009765625</ele>
        <time>2021-06-27T18:10:47.000Z</time>
        <extensions>
          <ns3:TrackPointExtension>
            <ns3:atemp>31.0</ns3:atemp>
            <ns3:hr>91</ns3:hr>
          </ns3:TrackPointExtension>
        </extensions>
      </trkpt>
      <trkpt lat="36.825089268386363983154296875" lon="-118.3912105858325958251953125">
        <ele>3917.60009765625</ele>
        <time>2021-06-27T18:10:51.000Z</time>
        <extensions>
          <ns3:TrackPointExtension>
            <ns3:atemp>31.0</ns3:atemp>
            <ns3:hr>94</ns3:hr>
          </ns3:TrackPointExtension>
        </extensions>
      </trkpt>
      <trkpt lat="36.82508549652993679046630859375" lon="-118.39121150784194469451904296875">
        <ele>3917.39990234375</ele>
        <time>2021-06-27T18:10:53.000Z</time>
        <extensions>
          <ns3:TrackPointExtension>
            <ns3:atemp>31.0</ns3:atemp>
            <ns3:hr>98</ns3:hr>
          </ns3:TrackPointExtension>
        </extensions>
      </trkpt>
      <trkpt lat="36.825048029422760009765625" lon="-118.39122072793543338775634765625">
        <ele>3916.199951171875</ele>
        <time>2021-06-27T18:11:13.000Z</time>
        <extensions>
          <ns3:TrackPointExtension>
            <ns3:atemp>32.0</ns3:atemp>
            <ns3:hr>96</ns3:hr>
          </ns3:TrackPointExtension>
        </extensions>
      </trkpt>
      <trkpt lat="36.82503855787217617034912109375" lon="-118.39122307486832141876220703125">
        <ele>3916</ele>
        <time>2021-06-27T18:11:18.000Z</time>
        <extensions>
          <ns3:TrackPointExtension>
            <ns3:atemp>32.0</ns3:atemp>
            <ns3:hr>99</ns3:hr>
          </ns3:TrackPointExtension>
        </extensions>
      </trkpt>
      <trkpt lat="36.8250193633139133453369140625" lon="-118.39122760109603404998779296875">
        <ele>3916.800048828125</ele>
        <time>2021-06-27T18:11:28.000Z</time>
        <extensions>
          <ns3:TrackPointExtension>
            <ns3:atemp>32.0</ns3:atemp>
            <ns3:hr>96</ns3:hr>
          </ns3:TrackPointExtension>
        </extensions>
      </trkpt>
      <trkpt lat="36.825015507638454437255859375" lon="-118.3912285231053829193115234375">
        <ele>3916.800048828125</ele>
        <time>2021-06-27T18:11:30.000Z</time>
        <extensions>
          <ns3:TrackPointExtension>
            <ns3:atemp>32.0</ns3:atemp>
            <ns3:hr>100</ns3:hr>
          </ns3:TrackPointExtension>
        </extensions>
      </trkpt>
      <trkpt lat="36.82500368915498256683349609375" lon="-118.3912312053143978118896484375">
        <ele>3917.39990234375</ele>
        <time>2021-06-27T18:11:36.000Z</time>
        <extensions>
          <ns3:TrackPointExtension>
            <ns3:atemp>32.0</ns3:atemp>
            <ns3:hr>100</ns3:hr>
          </ns3:TrackPointExtension>
        </extensions>
      </trkpt>
      <trkpt lat="36.82497116737067699432373046875" lon="-118.39123799465596675872802734375">
        <ele>3917.199951171875</ele>
        <time>2021-06-27T18:11:52.000Z</time>
        <extensions>
          <ns3:TrackPointExtension>
            <ns3:atemp>32.0</ns3:atemp>
            <ns3:hr>103</ns3:hr>
          </ns3:TrackPointExtension>
        </extensions>
      </trkpt>
      <trkpt lat="36.82496496476233005523681640625" lon="-118.39123916812241077423095703125">
        <ele>3917.199951171875</ele>
        <time>2021-06-27T18:11:55.000Z</time>
        <extensions>
          <ns3:TrackPointExtension>
            <ns3:atemp>32.0</ns3:atemp>
            <ns3:hr>107</ns3:hr>
          </ns3:TrackPointExtension>
        </extensions>
      </trkpt>
      <trkpt lat="36.8249586783349514007568359375" lon="-118.391240425407886505126953125">
        <ele>3917.199951171875</ele>
        <time>2021-06-27T18:11:58.000Z</time>
        <extensions>
          <ns3:TrackPointExtension>
            <ns3:atemp>32.0</ns3:atemp>
            <ns3:hr>110</ns3:hr>
          </ns3:TrackPointExtension>
        </extensions>
      </trkpt>
      <trkpt lat="36.82494007050991058349609375" lon="-118.39124402962625026702880859375">
        <ele>3917.199951171875</ele>
        <time>2021-06-27T18:12:07.000Z</time>
        <extensions>
          <ns3:TrackPointExtension>
            <ns3:atemp>32.0</ns3:atemp>
            <ns3:hr>107</ns3:hr>
          </ns3:TrackPointExtension>
        </extensions>
      </trkpt>
      <trkpt lat="36.8249338679015636444091796875" lon="-118.39124520309269428253173828125">
        <ele>3917.39990234375</ele>
        <time>2021-06-27T18:12:10.000Z</time>
        <extensions>
          <ns3:TrackPointExtension>
            <ns3:atemp>32.0</ns3:atemp>
            <ns3:hr>104</ns3:hr>
          </ns3:TrackPointExtension>
        </extensions>
      </trkpt>
      <trkpt lat="36.8249298445880413055419921875" lon="-118.39124604128301143646240234375">
        <ele>3917.39990234375</ele>
        <time>2021-06-27T18:12:12.000Z</time>
        <extensions>
          <ns3:TrackPointExtension>
            <ns3:atemp>32.0</ns3:atemp>
            <ns3:hr>101</ns3:hr>
          </ns3:TrackPointExtension>
        </extensions>
      </trkpt>
      <trkpt lat="36.82491769082844257354736328125" lon="-118.39124838821589946746826171875">
        <ele>3917.39990234375</ele>
        <time>2021-06-27T18:12:18.000Z</time>
        <extensions>
          <ns3:TrackPointExtension>
            <ns3:atemp>32.0</ns3:atemp>
            <ns3:hr>98</ns3:hr>
          </ns3:TrackPointExtension>
        </extensions>
      </trkpt>
      <trkpt lat="36.8248976580798625946044921875" lon="-118.3912523277103900909423828125">
        <ele>3917.60009765625</ele>
        <time>2021-06-27T18:12:28.000Z</time>
        <extensions>
          <ns3:TrackPointExtension>
            <ns3:atemp>32.0</ns3:atemp>
            <ns3:hr>95</ns3:hr>
          </ns3:TrackPointExtension>
        </extensions>
      </trkpt>
      <trkpt lat="36.824878044426441192626953125" lon="-118.3912560157477855682373046875">
        <ele>3917.39990234375</ele>
        <time>2021-06-27T18:12:38.000Z</time>
        <extensions>
          <ns3:TrackPointExtension>
            <ns3:atemp>32.0</ns3:atemp>
            <ns3:hr>93</ns3:hr>
          </ns3:TrackPointExtension>
        </extensions>
      </trkpt>
      <trkpt lat="36.8248721770942211151123046875" lon="-118.39125710539519786834716796875">
        <ele>3917.39990234375</ele>
        <time>2021-06-27T18:12:41.000Z</time>
        <extensions>
          <ns3:TrackPointExtension>
            <ns3:atemp>32.0</ns3:atemp>
            <ns3:hr>90</ns3:hr>
          </ns3:TrackPointExtension>
        </extensions>
      </trkpt>
      <trkpt lat="36.82486832141876220703125" lon="-118.391257859766483306884765625">
        <ele>3917.39990234375</ele>
        <time>2021-06-27T18:12:43.000Z</time>
        <extensions>
          <ns3:TrackPointExtension>
            <ns3:atemp>32.0</ns3:atemp>
            <ns3:hr>87</ns3:hr>
          </ns3:TrackPointExtension>
        </extensions>
      </trkpt>
      <trkpt lat="36.82485289871692657470703125" lon="-118.39126079343259334564208984375">
        <ele>3917.39990234375</ele>
        <time>2021-06-27T18:12:51.000Z</time>
        <extensions>
          <ns3:TrackPointExtension>
            <ns3:atemp>32.0</ns3:atemp>
            <ns3:hr>90</ns3:hr>
          </ns3:TrackPointExtension>
        </extensions>
      </trkpt>
      <trkpt lat="36.82482448406517505645751953125" lon="-118.3912664093077182769775390625">
        <ele>3917.39990234375</ele>
        <time>2021-06-27T18:13:06.000Z</time>
        <extensions>
          <ns3:TrackPointExtension>
            <ns3:atemp>32.0</ns3:atemp>
            <ns3:hr>87</ns3:hr>
          </ns3:TrackPointExtension>
        </extensions>
      </trkpt>
      <trkpt lat="36.82477151043713092803955078125" lon="-118.3912771381437778472900390625">
        <ele>3917.39990234375</ele>
        <time>2021-06-27T18:13:35.000Z</time>
        <extensions>
          <ns3:TrackPointExtension>
            <ns3:atemp>32.0</ns3:atemp>
            <ns3:hr>84</ns3:hr>
          </ns3:TrackPointExtension>
        </extensions>
      </trkpt>
      <trkpt lat="36.82475910522043704986572265625" lon="-118.39127956889569759368896484375">
        <ele>3917.39990234375</ele>
        <time>2021-06-27T18:13:42.000Z</time>
        <extensions>
          <ns3:TrackPointExtension>
            <ns3:atemp>32.0</ns3:atemp>
            <ns3:hr>86</ns3:hr>
          </ns3:TrackPointExtension>
        </extensions>
      </trkpt>
      <trkpt lat="36.82469791732728481292724609375" lon="-118.39129063300788402557373046875">
        <ele>3917.39990234375</ele>
        <time>2021-06-27T18:14:18.000Z</time>
        <extensions>
          <ns3:TrackPointExtension>
            <ns3:atemp>33.0</ns3:atemp>
            <ns3:hr>83</ns3:hr>
          </ns3:TrackPointExtension>
        </extensions>
      </trkpt>
      <trkpt lat="36.82467344217002391815185546875" lon="-118.39129415340721607208251953125">
        <ele>3917.39990234375</ele>
        <time>2021-06-27T18:14:33.000Z</time>
        <extensions>
          <ns3:TrackPointExtension>
            <ns3:atemp>33.0</ns3:atemp>
            <ns3:hr>86</ns3:hr>
          </ns3:TrackPointExtension>
        </extensions>
      </trkpt>
      <trkpt lat="36.82467008940875530242919921875" lon="-118.39129448868334293365478515625">
        <ele>3917.39990234375</ele>
        <time>2021-06-27T18:14:35.000Z</time>
        <extensions>
          <ns3:TrackPointExtension>
            <ns3:atemp>33.0</ns3:atemp>
            <ns3:hr>90</ns3:hr>
          </ns3:TrackPointExtension>
        </extensions>
      </trkpt>
      <trkpt lat="36.82466673664748668670654296875" lon="-118.3912949077785015106201171875">
        <ele>3917.39990234375</ele>
        <time>2021-06-27T18:14:37.000Z</time>
        <extensions>
          <ns3:TrackPointExtension>
            <ns3:atemp>33.0</ns3:atemp>
            <ns3:hr>93</ns3:hr>
          </ns3:TrackPointExtension>
        </extensions>
      </trkpt>
      <trkpt lat="36.824663467705249786376953125" lon="-118.39129532687366008758544921875">
        <ele>3917.39990234375</ele>
        <time>2021-06-27T18:14:39.000Z</time>
        <extensions>
          <ns3:TrackPointExtension>
            <ns3:atemp>33.0</ns3:atemp>
            <ns3:hr>96</ns3:hr>
          </ns3:TrackPointExtension>
        </extensions>
      </trkpt>
      <trkpt lat="36.82465843856334686279296875" lon="-118.39129582978785037994384765625">
        <ele>3917.39990234375</ele>
        <time>2021-06-27T18:14:42.000Z</time>
        <extensions>
          <ns3:TrackPointExtension>
            <ns3:atemp>33.0</ns3:atemp>
            <ns3:hr>99</ns3:hr>
          </ns3:TrackPointExtension>
        </extensions>
      </trkpt>
      <trkpt lat="36.82464527897536754608154296875" lon="-118.391297422349452972412109375">
        <ele>3917.39990234375</ele>
        <time>2021-06-27T18:14:50.000Z</time>
        <extensions>
          <ns3:TrackPointExtension>
            <ns3:atemp>33.0</ns3:atemp>
            <ns3:hr>96</ns3:hr>
          </ns3:TrackPointExtension>
        </extensions>
      </trkpt>
      <trkpt lat="36.8246304430067539215087890625" lon="-118.3912992663681507110595703125">
        <ele>3917.39990234375</ele>
        <time>2021-06-27T18:14:59.000Z</time>
        <extensions>
          <ns3:TrackPointExtension>
            <ns3:atemp>33.0</ns3:atemp>
            <ns3:hr>92</ns3:hr>
          </ns3:TrackPointExtension>
        </extensions>
      </trkpt>
      <trkpt lat="36.82462717406451702117919921875" lon="-118.39129968546330928802490234375">
        <ele>3917.39990234375</ele>
        <time>2021-06-27T18:15:01.000Z</time>
        <extensions>
          <ns3:TrackPointExtension>
            <ns3:atemp>33.0</ns3:atemp>
            <ns3:hr>88</ns3:hr>
          </ns3:TrackPointExtension>
        </extensions>
      </trkpt>
      <trkpt lat="36.82462231256067752838134765625" lon="-118.3913002721965312957763671875">
        <ele>3917.39990234375</ele>
        <time>2021-06-27T18:15:04.000Z</time>
        <extensions>
          <ns3:TrackPointExtension>
            <ns3:atemp>33.0</ns3:atemp>
            <ns3:hr>85</ns3:hr>
          </ns3:TrackPointExtension>
        </extensions>
      </trkpt>
      <trkpt lat="36.82461418211460113525390625" lon="-118.391301445662975311279296875">
        <ele>3917.39990234375</ele>
        <time>2021-06-27T18:15:09.000Z</time>
        <extensions>
          <ns3:TrackPointExtension>
            <ns3:atemp>33.0</ns3:atemp>
            <ns3:hr>82</ns3:hr>
          </ns3:TrackPointExtension>
        </extensions>
      </trkpt>
      <trkpt lat="36.82426490820944309234619140625" lon="-118.39131711982190608978271484375">
        <ele>3917.39990234375</ele>
        <time>2021-06-27T18:15:42.000Z</time>
        <extensions>
          <ns3:TrackPointExtension>
            <ns3:atemp>33.0</ns3:atemp>
            <ns3:hr>81</ns3:hr>
          </ns3:TrackPointExtension>
        </extensions>
      </trkpt>
      <trkpt lat="36.82416516356170177459716796875" lon="-118.391319215297698974609375">
        <ele>3917.39990234375</ele>
        <time>2021-06-27T18:15:43.000Z</time>
        <extensions>
          <ns3:TrackPointExtension>
            <ns3:atemp>33.0</ns3:atemp>
            <ns3:hr>80</ns3:hr>
          </ns3:TrackPointExtension>
        </extensions>
      </trkpt>
      <trkpt lat="36.82396332733333110809326171875" lon="-118.39132064022123813629150390625">
        <ele>3917.39990234375</ele>
        <time>2021-06-27T18:15:45.000Z</time>
        <extensions>
          <ns3:TrackPointExtension>
            <ns3:atemp>33.0</ns3:atemp>
            <ns3:hr>82</ns3:hr>
          </ns3:TrackPointExtension>
        </extensions>
      </trkpt>
      <trkpt lat="36.82376316748559474945068359375" lon="-118.39132701046764850616455078125">
        <ele>3917.39990234375</ele>
        <time>2021-06-27T18:15:47.000Z</time>
        <extensions>
          <ns3:TrackPointExtension>
            <ns3:atemp>33.0</ns3:atemp>
            <ns3:hr>83</ns3:hr>
          </ns3:TrackPointExtension>
        </extensions>
      </trkpt>
      <trkpt lat="36.82355781085789203643798828125" lon="-118.3913324587047100067138671875">
        <ele>3917.199951171875</ele>
        <time>2021-06-27T18:15:50.000Z</time>
        <extensions>
          <ns3:TrackPointExtension>
            <ns3:atemp>33.0</ns3:atemp>
            <ns3:hr>78</ns3:hr>
          </ns3:TrackPointExtension>
        </extensions>
      </trkpt>
      <trkpt lat="36.8235532008111476898193359375" lon="-118.3913321234285831451416015625">
        <ele>3917.199951171875</ele>
        <time>2021-06-27T18:15:51.000Z</time>
        <extensions>
          <ns3:TrackPointExtension>
            <ns3:atemp>33.0</ns3:atemp>
            <ns3:hr>80</ns3:hr>
          </ns3:TrackPointExtension>
        </extensions>
      </trkpt>
      <trkpt lat="36.82354490272700786590576171875" lon="-118.39132986031472682952880859375">
        <ele>3916.800048828125</ele>
        <time>2021-06-27T18:15:53.000Z</time>
        <extensions>
          <ns3:TrackPointExtension>
            <ns3:atemp>33.0</ns3:atemp>
            <ns3:hr>83</ns3:hr>
          </ns3:TrackPointExtension>
        </extensions>
      </trkpt>
      <trkpt lat="36.82354959659278392791748046875" lon="-118.39133539237082004547119140625">
        <ele>3916.199951171875</ele>
        <time>2021-06-27T18:15:56.000Z</time>
        <extensions>
          <ns3:TrackPointExtension>
            <ns3:atemp>33.0</ns3:atemp>
            <ns3:hr>82</ns3:hr>
          </ns3:TrackPointExtension>
        </extensions>
      </trkpt>
      <trkpt lat="36.82355227880179882049560546875" lon="-118.3913384936749935150146484375">
        <ele>3916.199951171875</ele>
        <time>2021-06-27T18:15:57.000Z</time>
        <extensions>
          <ns3:TrackPointExtension>
            <ns3:atemp>33.0</ns3:atemp>
            <ns3:hr>79</ns3:hr>
          </ns3:TrackPointExtension>
        </extensions>
      </trkpt>
      <trkpt lat="36.8235565535724163055419921875" lon="-118.39134628884494304656982421875">
        <ele>3915.199951171875</ele>
        <time>2021-06-27T18:16:00.000Z</time>
        <extensions>
          <ns3:TrackPointExtension>
            <ns3:atemp>33.0</ns3:atemp>
            <ns3:hr>83</ns3:hr>
          </ns3:TrackPointExtension>
        </extensions>
      </trkpt>
      <trkpt lat="36.8235565535724163055419921875" lon="-118.39134628884494304656982421875">
        <ele>3915.199951171875</ele>
        <time>2021-06-27T18:16:01.000Z</time>
        <extensions>
          <ns3:TrackPointExtension>
            <ns3:atemp>33.0</ns3:atemp>
            <ns3:hr>81</ns3:hr>
          </ns3:TrackPointExtension>
        </extensions>
      </trkpt>
      <trkpt lat="36.8235565535724163055419921875" lon="-118.39134628884494304656982421875">
        <ele>3915.199951171875</ele>
        <time>2021-06-27T18:16:04.000Z</time>
        <extensions>
          <ns3:TrackPointExtension>
            <ns3:atemp>33.0</ns3:atemp>
            <ns3:hr>80</ns3:hr>
          </ns3:TrackPointExtension>
        </extensions>
      </trkpt>
      <trkpt lat="36.8235565535724163055419921875" lon="-118.39134628884494304656982421875">
        <ele>3915.199951171875</ele>
        <time>2021-06-27T18:16:05.000Z</time>
        <extensions>
          <ns3:TrackPointExtension>
            <ns3:atemp>33.0</ns3:atemp>
            <ns3:hr>83</ns3:hr>
          </ns3:TrackPointExtension>
        </extensions>
      </trkpt>
      <trkpt lat="36.82355227880179882049560546875" lon="-118.39134628884494304656982421875">
        <ele>3914.199951171875</ele>
        <time>2021-06-27T18:16:13.000Z</time>
        <extensions>
          <ns3:TrackPointExtension>
            <ns3:atemp>33.0</ns3:atemp>
            <ns3:hr>86</ns3:hr>
          </ns3:TrackPointExtension>
        </extensions>
      </trkpt>
      <trkpt lat="36.8235511891543865203857421875" lon="-118.39134846813976764678955078125">
        <ele>3914.39990234375</ele>
        <time>2021-06-27T18:16:16.000Z</time>
        <extensions>
          <ns3:TrackPointExtension>
            <ns3:atemp>33.0</ns3:atemp>
            <ns3:hr>90</ns3:hr>
          </ns3:TrackPointExtension>
        </extensions>
      </trkpt>
      <trkpt lat="36.82354875840246677398681640625" lon="-118.391351737082004547119140625">
        <ele>3914.39990234375</ele>
        <time>2021-06-27T18:16:18.000Z</time>
        <extensions>
          <ns3:TrackPointExtension>
            <ns3:atemp>33.0</ns3:atemp>
            <ns3:hr>93</ns3:hr>
          </ns3:TrackPointExtension>
        </extensions>
      </trkpt>
      <trkpt lat="36.82354691438376903533935546875" lon="-118.39135534130036830902099609375">
        <ele>3914</ele>
        <time>2021-06-27T18:16:21.000Z</time>
        <extensions>
          <ns3:TrackPointExtension>
            <ns3:atemp>33.0</ns3:atemp>
            <ns3:hr>93</ns3:hr>
          </ns3:TrackPointExtension>
        </extensions>
      </trkpt>
      <trkpt lat="36.82354532182216644287109375" lon="-118.3913599513471126556396484375">
        <ele>3913.199951171875</ele>
        <time>2021-06-27T18:16:28.000Z</time>
        <extensions>
          <ns3:TrackPointExtension>
            <ns3:atemp>33.0</ns3:atemp>
            <ns3:hr>94</ns3:hr>
          </ns3:TrackPointExtension>
        </extensions>
      </trkpt>
      <trkpt lat="36.82353115640580654144287109375" lon="-118.391368500888347625732421875">
        <ele>3913.60009765625</ele>
        <time>2021-06-27T18:16:37.000Z</time>
        <extensions>
          <ns3:TrackPointExtension>
            <ns3:atemp>33.0</ns3:atemp>
            <ns3:hr>97</ns3:hr>
          </ns3:TrackPointExtension>
        </extensions>
      </trkpt>
      <trkpt lat="36.823530904948711395263671875" lon="-118.3913690038025379180908203125">
        <ele>3913.60009765625</ele>
        <time>2021-06-27T18:16:39.000Z</time>
        <extensions>
          <ns3:TrackPointExtension>
            <ns3:atemp>33.0</ns3:atemp>
            <ns3:hr>94</ns3:hr>
          </ns3:TrackPointExtension>
        </extensions>
      </trkpt>
      <trkpt lat="36.8235300667583942413330078125" lon="-118.39137076400220394134521484375">
        <ele>3913</ele>
        <time>2021-06-27T18:16:43.000Z</time>
        <extensions>
          <ns3:TrackPointExtension>
            <ns3:atemp>33.0</ns3:atemp>
            <ns3:hr>92</ns3:hr>
          </ns3:TrackPointExtension>
        </extensions>
      </trkpt>
      <trkpt lat="36.8235243670642375946044921875" lon="-118.39137193746864795684814453125">
        <ele>3913.199951171875</ele>
        <time>2021-06-27T18:16:49.000Z</time>
        <extensions>
          <ns3:TrackPointExtension>
            <ns3:atemp>33.0</ns3:atemp>
            <ns3:hr>89</ns3:hr>
          </ns3:TrackPointExtension>
        </extensions>
      </trkpt>
      <trkpt lat="36.8235200084745883941650390625" lon="-118.39136682450771331787109375">
        <ele>3912.60009765625</ele>
        <time>2021-06-27T18:17:30.000Z</time>
        <extensions>
          <ns3:TrackPointExtension>
            <ns3:atemp>33.0</ns3:atemp>
            <ns3:hr>92</ns3:hr>
          </ns3:TrackPointExtension>
        </extensions>
      </trkpt>
      <trkpt lat="36.82351673953235149383544921875" lon="-118.391366489231586456298828125">
        <ele>3912.60009765625</ele>
        <time>2021-06-27T18:17:33.000Z</time>
        <extensions>
          <ns3:TrackPointExtension>
            <ns3:atemp>33.0</ns3:atemp>
            <ns3:hr>89</ns3:hr>
          </ns3:TrackPointExtension>
        </extensions>
      </trkpt>
      <trkpt lat="36.82351271621882915496826171875" lon="-118.39136640541255474090576171875">
        <ele>3912.39990234375</ele>
        <time>2021-06-27T18:17:35.000Z</time>
        <extensions>
          <ns3:TrackPointExtension>
            <ns3:atemp>33.0</ns3:atemp>
            <ns3:hr>86</ns3:hr>
          </ns3:TrackPointExtension>
        </extensions>
      </trkpt>
      <trkpt lat="36.82351087220013141632080078125" lon="-118.39136640541255474090576171875">
        <ele>3912.39990234375</ele>
        <time>2021-06-27T18:17:37.000Z</time>
        <extensions>
          <ns3:TrackPointExtension>
            <ns3:atemp>33.0</ns3:atemp>
            <ns3:hr>83</ns3:hr>
          </ns3:TrackPointExtension>
        </extensions>
      </trkpt>
      <trkpt lat="36.82350450195372104644775390625" lon="-118.39136757887899875640869140625">
        <ele>3912</ele>
        <time>2021-06-27T18:17:55.000Z</time>
        <extensions>
          <ns3:TrackPointExtension>
            <ns3:atemp>33.0</ns3:atemp>
            <ns3:hr>79</ns3:hr>
          </ns3:TrackPointExtension>
        </extensions>
      </trkpt>
      <trkpt lat="36.82350332848727703094482421875" lon="-118.39136757887899875640869140625">
        <ele>3911.800048828125</ele>
        <time>2021-06-27T18:17:56.000Z</time>
        <extensions>
          <ns3:TrackPointExtension>
            <ns3:atemp>33.0</ns3:atemp>
            <ns3:hr>82</ns3:hr>
          </ns3:TrackPointExtension>
        </extensions>
      </trkpt>
      <trkpt lat="36.82347483001649379730224609375" lon="-118.3913715183734893798828125">
        <ele>3911</ele>
        <time>2021-06-27T18:18:07.000Z</time>
        <extensions>
          <ns3:TrackPointExtension>
            <ns3:atemp>33.0</ns3:atemp>
            <ns3:hr>85</ns3:hr>
          </ns3:TrackPointExtension>
        </extensions>
      </trkpt>
      <trkpt lat="36.82346795685589313507080078125" lon="-118.39137294329702854156494140625">
        <ele>3910.60009765625</ele>
        <time>2021-06-27T18:18:09.000Z</time>
        <extensions>
          <ns3:TrackPointExtension>
            <ns3:atemp>33.0</ns3:atemp>
            <ns3:hr>84</ns3:hr>
          </ns3:TrackPointExtension>
        </extensions>
      </trkpt>
      <trkpt lat="36.82346083223819732666015625" lon="-118.39137621223926544189453125">
        <ele>3911</ele>
        <time>2021-06-27T18:18:12.000Z</time>
        <extensions>
          <ns3:TrackPointExtension>
            <ns3:atemp>33.0</ns3:atemp>
            <ns3:hr>85</ns3:hr>
          </ns3:TrackPointExtension>
        </extensions>
      </trkpt>
      <trkpt lat="36.82345555163919925689697265625" lon="-118.39140613563358783721923828125">
        <ele>3909.39990234375</ele>
        <time>2021-06-27T18:18:24.000Z</time>
        <extensions>
          <ns3:TrackPointExtension>
            <ns3:atemp>32.0</ns3:atemp>
            <ns3:hr>87</ns3:hr>
          </ns3:TrackPointExtension>
        </extensions>
      </trkpt>
      <trkpt lat="36.8234519474208354949951171875" lon="-118.39141049422323703765869140625">
        <ele>3908.800048828125</ele>
        <time>2021-06-27T18:18:31.000Z</time>
        <extensions>
          <ns3:TrackPointExtension>
            <ns3:atemp>32.0</ns3:atemp>
            <ns3:hr>87</ns3:hr>
          </ns3:TrackPointExtension>
        </extensions>
      </trkpt>
      <trkpt lat="36.82344666682183742523193359375" lon="-118.39141367934644222259521484375">
        <ele>3908.39990234375</ele>
        <time>2021-06-27T18:18:34.000Z</time>
        <extensions>
          <ns3:TrackPointExtension>
            <ns3:atemp>32.0</ns3:atemp>
            <ns3:hr>87</ns3:hr>
          </ns3:TrackPointExtension>
        </extensions>
      </trkpt>
      <trkpt lat="36.823433674871921539306640625" lon="-118.3914333768188953399658203125">
        <ele>3907.199951171875</ele>
        <time>2021-06-27T18:18:43.000Z</time>
        <extensions>
          <ns3:TrackPointExtension>
            <ns3:atemp>32.0</ns3:atemp>
            <ns3:hr>83</ns3:hr>
          </ns3:TrackPointExtension>
        </extensions>
      </trkpt>
      <trkpt lat="36.82343107648193836212158203125" lon="-118.3914360590279102325439453125">
        <ele>3907</ele>
        <time>2021-06-27T18:18:45.000Z</time>
        <extensions>
          <ns3:TrackPointExtension>
            <ns3:atemp>32.0</ns3:atemp>
            <ns3:hr>86</ns3:hr>
          </ns3:TrackPointExtension>
        </extensions>
      </trkpt>
      <trkpt lat="36.823412217199802398681640625" lon="-118.3914434351027011871337890625">
        <ele>3906.39990234375</ele>
        <time>2021-06-27T18:18:54.000Z</time>
        <extensions>
          <ns3:TrackPointExtension>
            <ns3:atemp>32.0</ns3:atemp>
            <ns3:hr>83</ns3:hr>
          </ns3:TrackPointExtension>
        </extensions>
      </trkpt>
      <trkpt lat="36.8234026618301868438720703125" lon="-118.3914565108716487884521484375">
        <ele>3906.60009765625</ele>
        <time>2021-06-27T18:19:00.000Z</time>
        <extensions>
          <ns3:TrackPointExtension>
            <ns3:atemp>32.0</ns3:atemp>
            <ns3:hr>80</ns3:hr>
          </ns3:TrackPointExtension>
        </extensions>
      </trkpt>
      <trkpt lat="36.82340039871633052825927734375" lon="-118.3914648927748203277587890625">
        <ele>3906.60009765625</ele>
        <time>2021-06-27T18:19:03.000Z</time>
        <extensions>
          <ns3:TrackPointExtension>
            <ns3:atemp>31.0</ns3:atemp>
            <ns3:hr>78</ns3:hr>
          </ns3:TrackPointExtension>
        </extensions>
      </trkpt>
      <trkpt lat="36.82339805178344249725341796875" lon="-118.39147604070603847503662109375">
        <ele>3907</ele>
        <time>2021-06-27T18:19:09.000Z</time>
        <extensions>
          <ns3:TrackPointExtension>
            <ns3:atemp>31.0</ns3:atemp>
            <ns3:hr>81</ns3:hr>
          </ns3:TrackPointExtension>
        </extensions>
      </trkpt>
      <trkpt lat="36.8233971297740936279296875" lon="-118.39148291386663913726806640625">
        <ele>3908</ele>
        <time>2021-06-27T18:19:27.000Z</time>
        <extensions>
          <ns3:TrackPointExtension>
            <ns3:atemp>31.0</ns3:atemp>
            <ns3:hr>83</ns3:hr>
          </ns3:TrackPointExtension>
        </extensions>
      </trkpt>
      <trkpt lat="36.8233971297740936279296875" lon="-118.39148291386663913726806640625">
        <ele>3907.800048828125</ele>
        <time>2021-06-27T18:19:29.000Z</time>
        <extensions>
          <ns3:TrackPointExtension>
            <ns3:atemp>31.0</ns3:atemp>
            <ns3:hr>86</ns3:hr>
          </ns3:TrackPointExtension>
        </extensions>
      </trkpt>
      <trkpt lat="36.8233971297740936279296875" lon="-118.3914829976856708526611328125">
        <ele>3907.800048828125</ele>
        <time>2021-06-27T18:19:31.000Z</time>
        <extensions>
          <ns3:TrackPointExtension>
            <ns3:atemp>31.0</ns3:atemp>
            <ns3:hr>90</ns3:hr>
          </ns3:TrackPointExtension>
        </extensions>
      </trkpt>
      <trkpt lat="36.8233971297740936279296875" lon="-118.39148308150470256805419921875">
        <ele>3907.60009765625</ele>
        <time>2021-06-27T18:19:33.000Z</time>
        <extensions>
          <ns3:TrackPointExtension>
            <ns3:atemp>31.0</ns3:atemp>
            <ns3:hr>93</ns3:hr>
          </ns3:TrackPointExtension>
        </extensions>
      </trkpt>
      <trkpt lat="36.8233969621360301971435546875" lon="-118.39148350059986114501953125">
        <ele>3908.199951171875</ele>
        <time>2021-06-27T18:19:44.000Z</time>
        <extensions>
          <ns3:TrackPointExtension>
            <ns3:atemp>31.0</ns3:atemp>
            <ns3:hr>94</ns3:hr>
          </ns3:TrackPointExtension>
        </extensions>
      </trkpt>
      <trkpt lat="36.82339687831699848175048828125" lon="-118.39148375205695629119873046875">
        <ele>3907.800048828125</ele>
        <time>2021-06-27T18:19:50.000Z</time>
        <extensions>
          <ns3:TrackPointExtension>
            <ns3:atemp>31.0</ns3:atemp>
            <ns3:hr>90</ns3:hr>
          </ns3:TrackPointExtension>
        </extensions>
      </trkpt>
      <trkpt lat="36.823396794497966766357421875" lon="-118.391483835875988006591796875">
        <ele>3907.800048828125</ele>
        <time>2021-06-27T18:19:52.000Z</time>
        <extensions>
          <ns3:TrackPointExtension>
            <ns3:atemp>31.0</ns3:atemp>
            <ns3:hr>87</ns3:hr>
          </ns3:TrackPointExtension>
        </extensions>
      </trkpt>
      <trkpt lat="36.82339654304087162017822265625" lon="-118.3914843387901782989501953125">
        <ele>3907.199951171875</ele>
        <time>2021-06-27T18:20:02.000Z</time>
        <extensions>
          <ns3:TrackPointExtension>
            <ns3:atemp>31.0</ns3:atemp>
            <ns3:hr>89</ns3:hr>
          </ns3:TrackPointExtension>
        </extensions>
      </trkpt>
      <trkpt lat="36.82339654304087162017822265625" lon="-118.39148442260921001434326171875">
        <ele>3906.800048828125</ele>
        <time>2021-06-27T18:20:04.000Z</time>
        <extensions>
          <ns3:TrackPointExtension>
            <ns3:atemp>31.0</ns3:atemp>
            <ns3:hr>86</ns3:hr>
          </ns3:TrackPointExtension>
        </extensions>
      </trkpt>
      <trkpt lat="36.82339645922183990478515625" lon="-118.391484506428241729736328125">
        <ele>3906.60009765625</ele>
        <time>2021-06-27T18:20:05.000Z</time>
        <extensions>
          <ns3:TrackPointExtension>
            <ns3:atemp>31.0</ns3:atemp>
            <ns3:hr>89</ns3:hr>
          </ns3:TrackPointExtension>
        </extensions>
      </trkpt>
      <trkpt lat="36.82339645922183990478515625" lon="-118.39148459024727344512939453125">
        <ele>3905.60009765625</ele>
        <time>2021-06-27T18:20:08.000Z</time>
        <extensions>
          <ns3:TrackPointExtension>
            <ns3:atemp>31.0</ns3:atemp>
            <ns3:hr>90</ns3:hr>
          </ns3:TrackPointExtension>
        </extensions>
      </trkpt>
      <trkpt lat="36.82339637540280818939208984375" lon="-118.39148484170436859130859375">
        <ele>3905.199951171875</ele>
        <time>2021-06-27T18:20:12.000Z</time>
        <extensions>
          <ns3:TrackPointExtension>
            <ns3:atemp>31.0</ns3:atemp>
            <ns3:hr>93</ns3:hr>
          </ns3:TrackPointExtension>
        </extensions>
      </trkpt>
      <trkpt lat="36.82339620776474475860595703125" lon="-118.39148526079952716827392578125">
        <ele>3904.800048828125</ele>
        <time>2021-06-27T18:20:19.000Z</time>
        <extensions>
          <ns3:TrackPointExtension>
            <ns3:atemp>30.0</ns3:atemp>
            <ns3:hr>93</ns3:hr>
          </ns3:TrackPointExtension>
        </extensions>
      </trkpt>
      <trkpt lat="36.823396123945713043212890625" lon="-118.39148576371371746063232421875">
        <ele>3904.800048828125</ele>
        <time>2021-06-27T18:20:24.000Z</time>
        <extensions>
          <ns3:TrackPointExtension>
            <ns3:atemp>30.0</ns3:atemp>
            <ns3:hr>90</ns3:hr>
          </ns3:TrackPointExtension>
        </extensions>
      </trkpt>
      <trkpt lat="36.823396123945713043212890625" lon="-118.3914866857230663299560546875">
        <ele>3905.199951171875</ele>
        <time>2021-06-27T18:20:32.000Z</time>
        <extensions>
          <ns3:TrackPointExtension>
            <ns3:atemp>30.0</ns3:atemp>
            <ns3:hr>87</ns3:hr>
          </ns3:TrackPointExtension>
        </extensions>
      </trkpt>
      <trkpt lat="36.8233962915837764739990234375" lon="-118.391487859189510345458984375">
        <ele>3904.39990234375</ele>
        <time>2021-06-27T18:20:42.000Z</time>
        <extensions>
          <ns3:TrackPointExtension>
            <ns3:atemp>30.0</ns3:atemp>
            <ns3:hr>87</ns3:hr>
          </ns3:TrackPointExtension>
        </extensions>
      </trkpt>
      <trkpt lat="36.82339637540280818939208984375" lon="-118.39148819446563720703125">
        <ele>3904</ele>
        <time>2021-06-27T18:20:45.000Z</time>
        <extensions>
          <ns3:TrackPointExtension>
            <ns3:atemp>30.0</ns3:atemp>
            <ns3:hr>88</ns3:hr>
          </ns3:TrackPointExtension>
        </extensions>
      </trkpt>
      <trkpt lat="36.82339645922183990478515625" lon="-118.3914890326559543609619140625">
        <ele>3903.199951171875</ele>
        <time>2021-06-27T18:20:52.000Z</time>
        <extensions>
          <ns3:TrackPointExtension>
            <ns3:atemp>30.0</ns3:atemp>
            <ns3:hr>91</ns3:hr>
          </ns3:TrackPointExtension>
        </extensions>
      </trkpt>
      <trkpt lat="36.8233966268599033355712890625" lon="-118.39148995466530323028564453125">
        <ele>3902.39990234375</ele>
        <time>2021-06-27T18:20:59.000Z</time>
        <extensions>
          <ns3:TrackPointExtension>
            <ns3:atemp>30.0</ns3:atemp>
            <ns3:hr>88</ns3:hr>
          </ns3:TrackPointExtension>
        </extensions>
      </trkpt>
      <trkpt lat="36.82339671067893505096435546875" lon="-118.39149012230336666107177734375">
        <ele>3902</ele>
        <time>2021-06-27T18:21:00.000Z</time>
        <extensions>
          <ns3:TrackPointExtension>
            <ns3:atemp>30.0</ns3:atemp>
            <ns3:hr>87</ns3:hr>
          </ns3:TrackPointExtension>
        </extensions>
      </trkpt>
      <trkpt lat="36.82339671067893505096435546875" lon="-118.39149062521755695343017578125">
        <ele>3901.800048828125</ele>
        <time>2021-06-27T18:21:03.000Z</time>
        <extensions>
          <ns3:TrackPointExtension>
            <ns3:atemp>30.0</ns3:atemp>
            <ns3:hr>84</ns3:hr>
          </ns3:TrackPointExtension>
        </extensions>
      </trkpt>
      <trkpt lat="36.8233969621360301971435546875" lon="-118.39149263687431812286376953125">
        <ele>3901.199951171875</ele>
        <time>2021-06-27T18:21:13.000Z</time>
        <extensions>
          <ns3:TrackPointExtension>
            <ns3:atemp>29.0</ns3:atemp>
            <ns3:hr>84</ns3:hr>
          </ns3:TrackPointExtension>
        </extensions>
      </trkpt>
      <trkpt lat="36.8233972974121570587158203125" lon="-118.3914940617978572845458984375">
        <ele>3901</ele>
        <time>2021-06-27T18:21:20.000Z</time>
        <extensions>
          <ns3:TrackPointExtension>
            <ns3:atemp>29.0</ns3:atemp>
            <ns3:hr>87</ns3:hr>
          </ns3:TrackPointExtension>
        </extensions>
      </trkpt>
      <trkpt lat="36.82339780032634735107421875" lon="-118.39149598963558673858642578125">
        <ele>3901</ele>
        <time>2021-06-27T18:21:28.000Z</time>
        <extensions>
          <ns3:TrackPointExtension>
            <ns3:atemp>29.0</ns3:atemp>
            <ns3:hr>88</ns3:hr>
          </ns3:TrackPointExtension>
        </extensions>
      </trkpt>
      <trkpt lat="36.8233979679644107818603515625" lon="-118.39149666018784046173095703125">
        <ele>3900.60009765625</ele>
        <time>2021-06-27T18:21:31.000Z</time>
        <extensions>
          <ns3:TrackPointExtension>
            <ns3:atemp>29.0</ns3:atemp>
            <ns3:hr>84</ns3:hr>
          </ns3:TrackPointExtension>
        </extensions>
      </trkpt>
      <trkpt lat="36.823398135602474212646484375" lon="-118.39149716310203075408935546875">
        <ele>3900.60009765625</ele>
        <time>2021-06-27T18:21:33.000Z</time>
        <extensions>
          <ns3:TrackPointExtension>
            <ns3:atemp>29.0</ns3:atemp>
            <ns3:hr>87</ns3:hr>
          </ns3:TrackPointExtension>
        </extensions>
      </trkpt>
      <trkpt lat="36.82340023107826709747314453125" lon="-118.39150303043425083160400390625">
        <ele>3899.800048828125</ele>
        <time>2021-06-27T18:21:59.000Z</time>
        <extensions>
          <ns3:TrackPointExtension>
            <ns3:atemp>29.0</ns3:atemp>
            <ns3:hr>86</ns3:hr>
          </ns3:TrackPointExtension>
        </extensions>
      </trkpt>
      <trkpt lat="36.8234009854495525360107421875" lon="-118.391505293548107147216796875">
        <ele>3899.800048828125</ele>
        <time>2021-06-27T18:22:10.000Z</time>
        <extensions>
          <ns3:TrackPointExtension>
            <ns3:atemp>30.0</ns3:atemp>
            <ns3:hr>82</ns3:hr>
          </ns3:TrackPointExtension>
        </extensions>
      </trkpt>
      <trkpt lat="36.8234013207256793975830078125" lon="-118.391505964100360870361328125">
        <ele>3899.800048828125</ele>
        <time>2021-06-27T18:22:13.000Z</time>
        <extensions>
          <ns3:TrackPointExtension>
            <ns3:atemp>30.0</ns3:atemp>
            <ns3:hr>79</ns3:hr>
          </ns3:TrackPointExtension>
        </extensions>
      </trkpt>
      <trkpt lat="36.82340190745890140533447265625" lon="-118.39150738902390003204345703125">
        <ele>3899.199951171875</ele>
        <time>2021-06-27T18:22:20.000Z</time>
        <extensions>
          <ns3:TrackPointExtension>
            <ns3:atemp>30.0</ns3:atemp>
            <ns3:hr>78</ns3:hr>
          </ns3:TrackPointExtension>
        </extensions>
      </trkpt>
      <trkpt lat="36.82340274564921855926513671875" lon="-118.39150940068066120147705078125">
        <ele>3899</ele>
        <time>2021-06-27T18:22:30.000Z</time>
        <extensions>
          <ns3:TrackPointExtension>
            <ns3:atemp>30.0</ns3:atemp>
            <ns3:hr>81</ns3:hr>
          </ns3:TrackPointExtension>
        </extensions>
      </trkpt>
      <trkpt lat="36.82340291328728199005126953125" lon="-118.391509987413883209228515625">
        <ele>3899</ele>
        <time>2021-06-27T18:22:33.000Z</time>
        <extensions>
          <ns3:TrackPointExtension>
            <ns3:atemp>30.0</ns3:atemp>
            <ns3:hr>84</ns3:hr>
          </ns3:TrackPointExtension>
        </extensions>
      </trkpt>
      <trkpt lat="36.8234036676585674285888671875" lon="-118.39151191525161266326904296875">
        <ele>3898.800048828125</ele>
        <time>2021-06-27T18:22:42.000Z</time>
        <extensions>
          <ns3:TrackPointExtension>
            <ns3:atemp>30.0</ns3:atemp>
            <ns3:hr>86</ns3:hr>
          </ns3:TrackPointExtension>
        </extensions>
      </trkpt>
      <trkpt lat="36.82340408675372600555419921875" lon="-118.39151325635612010955810546875">
        <ele>3898.60009765625</ele>
        <time>2021-06-27T18:22:48.000Z</time>
        <extensions>
          <ns3:TrackPointExtension>
            <ns3:atemp>30.0</ns3:atemp>
            <ns3:hr>83</ns3:hr>
          </ns3:TrackPointExtension>
        </extensions>
      </trkpt>
      <trkpt lat="36.82340450584888458251953125" lon="-118.3915148489177227020263671875">
        <ele>3898</ele>
        <time>2021-06-27T18:22:55.000Z</time>
        <extensions>
          <ns3:TrackPointExtension>
            <ns3:atemp>30.0</ns3:atemp>
            <ns3:hr>80</ns3:hr>
          </ns3:TrackPointExtension>
        </extensions>
      </trkpt>
      <trkpt lat="36.82340458966791629791259765625" lon="-118.391515351831912994384765625">
        <ele>3897.60009765625</ele>
        <time>2021-06-27T18:22:57.000Z</time>
        <extensions>
          <ns3:TrackPointExtension>
            <ns3:atemp>30.0</ns3:atemp>
            <ns3:hr>80</ns3:hr>
          </ns3:TrackPointExtension>
        </extensions>
      </trkpt>
      <trkpt lat="36.823404841125011444091796875" lon="-118.39151627384126186370849609375">
        <ele>3896.60009765625</ele>
        <time>2021-06-27T18:23:01.000Z</time>
        <extensions>
          <ns3:TrackPointExtension>
            <ns3:atemp>30.0</ns3:atemp>
            <ns3:hr>79</ns3:hr>
          </ns3:TrackPointExtension>
        </extensions>
      </trkpt>
      <trkpt lat="36.8234051764011383056640625" lon="-118.391520045697689056396484375">
        <ele>3895.39990234375</ele>
        <time>2021-06-27T18:23:16.000Z</time>
        <extensions>
          <ns3:TrackPointExtension>
            <ns3:atemp>30.0</ns3:atemp>
            <ns3:hr>80</ns3:hr>
          </ns3:TrackPointExtension>
        </extensions>
      </trkpt>
      <trkpt lat="36.8234051764011383056640625" lon="-118.39152130298316478729248046875">
        <ele>3895.199951171875</ele>
        <time>2021-06-27T18:23:20.000Z</time>
        <extensions>
          <ns3:TrackPointExtension>
            <ns3:atemp>30.0</ns3:atemp>
            <ns3:hr>81</ns3:hr>
          </ns3:TrackPointExtension>
        </extensions>
      </trkpt>
      <trkpt lat="36.8234051764011383056640625" lon="-118.3915225602686405181884765625">
        <ele>3895.199951171875</ele>
        <time>2021-06-27T18:23:24.000Z</time>
        <extensions>
          <ns3:TrackPointExtension>
            <ns3:atemp>30.0</ns3:atemp>
            <ns3:hr>78</ns3:hr>
          </ns3:TrackPointExtension>
        </extensions>
      </trkpt>
      <trkpt lat="36.82340475730597972869873046875" lon="-118.3915285952389240264892578125">
        <ele>3895.39990234375</ele>
        <time>2021-06-27T18:23:42.000Z</time>
        <extensions>
          <ns3:TrackPointExtension>
            <ns3:atemp>30.0</ns3:atemp>
            <ns3:hr>81</ns3:hr>
          </ns3:TrackPointExtension>
        </extensions>
      </trkpt>
      <trkpt lat="36.8234043382108211517333984375" lon="-118.39153370819985866546630859375">
        <ele>3895.60009765625</ele>
        <time>2021-06-27T18:23:57.000Z</time>
        <extensions>
          <ns3:TrackPointExtension>
            <ns3:atemp>30.0</ns3:atemp>
            <ns3:hr>85</ns3:hr>
          </ns3:TrackPointExtension>
        </extensions>
      </trkpt>
      <trkpt lat="36.823403835296630859375" lon="-118.39153840206563472747802734375">
        <ele>3895.39990234375</ele>
        <time>2021-06-27T18:24:11.000Z</time>
        <extensions>
          <ns3:TrackPointExtension>
            <ns3:atemp>30.0</ns3:atemp>
            <ns3:hr>88</ns3:hr>
          </ns3:TrackPointExtension>
        </extensions>
      </trkpt>
      <trkpt lat="36.823403500020503997802734375" lon="-118.3915399946272373199462890625">
        <ele>3895.199951171875</ele>
        <time>2021-06-27T18:24:16.000Z</time>
        <extensions>
          <ns3:TrackPointExtension>
            <ns3:atemp>30.0</ns3:atemp>
            <ns3:hr>91</ns3:hr>
          </ns3:TrackPointExtension>
        </extensions>
      </trkpt>
      <trkpt lat="36.82340316474437713623046875" lon="-118.3915443532168865203857421875">
        <ele>3895.39990234375</ele>
        <time>2021-06-27T18:24:30.000Z</time>
        <extensions>
          <ns3:TrackPointExtension>
            <ns3:atemp>30.0</ns3:atemp>
            <ns3:hr>88</ns3:hr>
          </ns3:TrackPointExtension>
        </extensions>
      </trkpt>
      <trkpt lat="36.82340308092534542083740234375" lon="-118.391546197235584259033203125">
        <ele>3894.199951171875</ele>
        <time>2021-06-27T18:24:36.000Z</time>
        <extensions>
          <ns3:TrackPointExtension>
            <ns3:atemp>30.0</ns3:atemp>
            <ns3:hr>85</ns3:hr>
          </ns3:TrackPointExtension>
        </extensions>
      </trkpt>
      <trkpt lat="36.82340308092534542083740234375" lon="-118.3915500529110431671142578125">
        <ele>3893.39990234375</ele>
        <time>2021-06-27T18:24:49.000Z</time>
        <extensions>
          <ns3:TrackPointExtension>
            <ns3:atemp>31.0</ns3:atemp>
            <ns3:hr>88</ns3:hr>
          </ns3:TrackPointExtension>
        </extensions>
      </trkpt>
      <trkpt lat="36.82340316474437713623046875" lon="-118.3915512263774871826171875">
        <ele>3893</ele>
        <time>2021-06-27T18:24:53.000Z</time>
        <extensions>
          <ns3:TrackPointExtension>
            <ns3:atemp>31.0</ns3:atemp>
            <ns3:hr>88</ns3:hr>
          </ns3:TrackPointExtension>
        </extensions>
      </trkpt>
      <trkpt lat="36.8234033323824405670166015625" lon="-118.391553573310375213623046875">
        <ele>3892.199951171875</ele>
        <time>2021-06-27T18:25:01.000Z</time>
        <extensions>
          <ns3:TrackPointExtension>
            <ns3:atemp>31.0</ns3:atemp>
            <ns3:hr>91</ns3:hr>
          </ns3:TrackPointExtension>
        </extensions>
      </trkpt>
      <trkpt lat="36.82340341620147228240966796875" lon="-118.39155416004359722137451171875">
        <ele>3892</ele>
        <time>2021-06-27T18:25:03.000Z</time>
        <extensions>
          <ns3:TrackPointExtension>
            <ns3:atemp>31.0</ns3:atemp>
            <ns3:hr>90</ns3:hr>
          </ns3:TrackPointExtension>
        </extensions>
      </trkpt>
      <trkpt lat="36.823403500020503997802734375" lon="-118.39155499823391437530517578125">
        <ele>3891.800048828125</ele>
        <time>2021-06-27T18:25:06.000Z</time>
        <extensions>
          <ns3:TrackPointExtension>
            <ns3:atemp>31.0</ns3:atemp>
            <ns3:hr>87</ns3:hr>
          </ns3:TrackPointExtension>
        </extensions>
      </trkpt>
      <trkpt lat="36.823403500020503997802734375" lon="-118.391555584967136383056640625">
        <ele>3891.800048828125</ele>
        <time>2021-06-27T18:25:08.000Z</time>
        <extensions>
          <ns3:TrackPointExtension>
            <ns3:atemp>31.0</ns3:atemp>
            <ns3:hr>84</ns3:hr>
          </ns3:TrackPointExtension>
        </extensions>
      </trkpt>
      <trkpt lat="36.8234036676585674285888671875" lon="-118.39155617170035839080810546875">
        <ele>3891.800048828125</ele>
        <time>2021-06-27T18:25:10.000Z</time>
        <extensions>
          <ns3:TrackPointExtension>
            <ns3:atemp>31.0</ns3:atemp>
            <ns3:hr>81</ns3:hr>
          </ns3:TrackPointExtension>
        </extensions>
      </trkpt>
      <trkpt lat="36.823405511677265167236328125" lon="-118.39156153611838817596435546875">
        <ele>3892.199951171875</ele>
        <time>2021-06-27T18:25:29.000Z</time>
        <extensions>
          <ns3:TrackPointExtension>
            <ns3:atemp>31.0</ns3:atemp>
            <ns3:hr>84</ns3:hr>
          </ns3:TrackPointExtension>
        </extensions>
      </trkpt>
      <trkpt lat="36.8234060145914554595947265625" lon="-118.39156262576580047607421875">
        <ele>3892.199951171875</ele>
        <time>2021-06-27T18:25:33.000Z</time>
        <extensions>
          <ns3:TrackPointExtension>
            <ns3:atemp>31.0</ns3:atemp>
            <ns3:hr>87</ns3:hr>
          </ns3:TrackPointExtension>
        </extensions>
      </trkpt>
      <trkpt lat="36.82340743951499462127685546875" lon="-118.39156555943191051483154296875">
        <ele>3892.60009765625</ele>
        <time>2021-06-27T18:25:44.000Z</time>
        <extensions>
          <ns3:TrackPointExtension>
            <ns3:atemp>31.0</ns3:atemp>
            <ns3:hr>84</ns3:hr>
          </ns3:TrackPointExtension>
        </extensions>
      </trkpt>
      <trkpt lat="36.82340777479112148284912109375" lon="-118.391566313803195953369140625">
        <ele>3893</ele>
        <time>2021-06-27T18:25:47.000Z</time>
        <extensions>
          <ns3:TrackPointExtension>
            <ns3:atemp>31.0</ns3:atemp>
            <ns3:hr>87</ns3:hr>
          </ns3:TrackPointExtension>
        </extensions>
      </trkpt>
      <trkpt lat="36.8234080262482166290283203125" lon="-118.39156690053641796112060546875">
        <ele>3893.199951171875</ele>
        <time>2021-06-27T18:25:49.000Z</time>
        <extensions>
          <ns3:TrackPointExtension>
            <ns3:atemp>31.0</ns3:atemp>
            <ns3:hr>90</ns3:hr>
          </ns3:TrackPointExtension>
        </extensions>
      </trkpt>
      <trkpt lat="36.82340852916240692138671875" lon="-118.39156799018383026123046875">
        <ele>3893</ele>
        <time>2021-06-27T18:25:53.000Z</time>
        <extensions>
          <ns3:TrackPointExtension>
            <ns3:atemp>30.0</ns3:atemp>
            <ns3:hr>93</ns3:hr>
          </ns3:TrackPointExtension>
        </extensions>
      </trkpt>
      <trkpt lat="36.82340928353369235992431640625" lon="-118.39157025329768657684326171875">
        <ele>3893.39990234375</ele>
        <time>2021-06-27T18:26:00.000Z</time>
        <extensions>
          <ns3:TrackPointExtension>
            <ns3:atemp>30.0</ns3:atemp>
            <ns3:hr>90</ns3:hr>
          </ns3:TrackPointExtension>
        </extensions>
      </trkpt>
      <trkpt lat="36.82341028936207294464111328125" lon="-118.39157260023057460784912109375">
        <ele>3894.199951171875</ele>
        <time>2021-06-27T18:26:08.000Z</time>
        <extensions>
          <ns3:TrackPointExtension>
            <ns3:atemp>30.0</ns3:atemp>
            <ns3:hr>87</ns3:hr>
          </ns3:TrackPointExtension>
        </extensions>
      </trkpt>
      <trkpt lat="36.8234107084572315216064453125" lon="-118.3915735222399234771728515625">
        <ele>3894.60009765625</ele>
        <time>2021-06-27T18:26:11.000Z</time>
        <extensions>
          <ns3:TrackPointExtension>
            <ns3:atemp>30.0</ns3:atemp>
            <ns3:hr>84</ns3:hr>
          </ns3:TrackPointExtension>
        </extensions>
      </trkpt>
      <trkpt lat="36.823411546647548675537109375" lon="-118.39157528243958950042724609375">
        <ele>3894.199951171875</ele>
        <time>2021-06-27T18:26:17.000Z</time>
        <extensions>
          <ns3:TrackPointExtension>
            <ns3:atemp>30.0</ns3:atemp>
            <ns3:hr>81</ns3:hr>
          </ns3:TrackPointExtension>
        </extensions>
      </trkpt>
      <trkpt lat="36.8234123848378658294677734375" lon="-118.39157695882022380828857421875">
        <ele>3894</ele>
        <time>2021-06-27T18:26:23.000Z</time>
        <extensions>
          <ns3:TrackPointExtension>
            <ns3:atemp>30.0</ns3:atemp>
            <ns3:hr>80</ns3:hr>
          </ns3:TrackPointExtension>
        </extensions>
      </trkpt>
      <trkpt lat="36.82341448031365871429443359375" lon="-118.39158081449568271636962890625">
        <ele>3894.60009765625</ele>
        <time>2021-06-27T18:26:37.000Z</time>
        <extensions>
          <ns3:TrackPointExtension>
            <ns3:atemp>30.0</ns3:atemp>
            <ns3:hr>77</ns3:hr>
          </ns3:TrackPointExtension>
        </extensions>
      </trkpt>
      <trkpt lat="36.82341498322784900665283203125" lon="-118.39158198796212673187255859375">
        <ele>3894.60009765625</ele>
        <time>2021-06-27T18:26:41.000Z</time>
        <extensions>
          <ns3:TrackPointExtension>
            <ns3:atemp>30.0</ns3:atemp>
            <ns3:hr>80</ns3:hr>
          </ns3:TrackPointExtension>
        </extensions>
      </trkpt>
      <trkpt lat="36.8234159052371978759765625" lon="-118.39158408343791961669921875">
        <ele>3894.60009765625</ele>
        <time>2021-06-27T18:26:49.000Z</time>
        <extensions>
          <ns3:TrackPointExtension>
            <ns3:atemp>30.0</ns3:atemp>
            <ns3:hr>83</ns3:hr>
          </ns3:TrackPointExtension>
        </extensions>
      </trkpt>
      <trkpt lat="36.823416911065578460693359375" lon="-118.3915860950946807861328125">
        <ele>3894.800048828125</ele>
        <time>2021-06-27T18:26:57.000Z</time>
        <extensions>
          <ns3:TrackPointExtension>
            <ns3:atemp>29.0</ns3:atemp>
            <ns3:hr>86</ns3:hr>
          </ns3:TrackPointExtension>
        </extensions>
      </trkpt>
      <trkpt lat="36.82342018000781536102294921875" lon="-118.3915896154940128326416015625">
        <ele>3895</ele>
        <time>2021-06-27T18:27:14.000Z</time>
        <extensions>
          <ns3:TrackPointExtension>
            <ns3:atemp>29.0</ns3:atemp>
            <ns3:hr>86</ns3:hr>
          </ns3:TrackPointExtension>
        </extensions>
      </trkpt>
      <trkpt lat="36.8234214372932910919189453125" lon="-118.391590453684329986572265625">
        <ele>3895</ele>
        <time>2021-06-27T18:27:19.000Z</time>
        <extensions>
          <ns3:TrackPointExtension>
            <ns3:atemp>29.0</ns3:atemp>
            <ns3:hr>83</ns3:hr>
          </ns3:TrackPointExtension>
        </extensions>
      </trkpt>
      <trkpt lat="36.82342319749295711517333984375" lon="-118.39159171096980571746826171875">
        <ele>3895</ele>
        <time>2021-06-27T18:27:26.000Z</time>
        <extensions>
          <ns3:TrackPointExtension>
            <ns3:atemp>29.0</ns3:atemp>
            <ns3:hr>80</ns3:hr>
          </ns3:TrackPointExtension>
        </extensions>
      </trkpt>
      <trkpt lat="36.8234239518642425537109375" lon="-118.39159221388399600982666015625">
        <ele>3895</ele>
        <time>2021-06-27T18:27:29.000Z</time>
        <extensions>
          <ns3:TrackPointExtension>
            <ns3:atemp>29.0</ns3:atemp>
            <ns3:hr>77</ns3:hr>
          </ns3:TrackPointExtension>
        </extensions>
      </trkpt>
      <trkpt lat="36.8234278075397014617919921875" lon="-118.39159590192139148712158203125">
        <ele>3895</ele>
        <time>2021-06-27T18:27:46.000Z</time>
        <extensions>
          <ns3:TrackPointExtension>
            <ns3:atemp>28.0</ns3:atemp>
            <ns3:hr>80</ns3:hr>
          </ns3:TrackPointExtension>
        </extensions>
      </trkpt>
      <trkpt lat="36.82342805899679660797119140625" lon="-118.39159606955945491790771484375">
        <ele>3895</ele>
        <time>2021-06-27T18:27:47.000Z</time>
        <extensions>
          <ns3:TrackPointExtension>
            <ns3:atemp>28.0</ns3:atemp>
            <ns3:hr>81</ns3:hr>
          </ns3:TrackPointExtension>
        </extensions>
      </trkpt>
      <trkpt lat="36.8234284780919551849365234375" lon="-118.39159657247364521026611328125">
        <ele>3895</ele>
        <time>2021-06-27T18:27:49.000Z</time>
        <extensions>
          <ns3:TrackPointExtension>
            <ns3:atemp>28.0</ns3:atemp>
            <ns3:hr>84</ns3:hr>
          </ns3:TrackPointExtension>
        </extensions>
      </trkpt>
      <trkpt lat="36.82342906482517719268798828125" lon="-118.39159724302589893341064453125">
        <ele>3895</ele>
        <time>2021-06-27T18:27:52.000Z</time>
        <extensions>
          <ns3:TrackPointExtension>
            <ns3:atemp>28.0</ns3:atemp>
            <ns3:hr>87</ns3:hr>
          </ns3:TrackPointExtension>
        </extensions>
      </trkpt>
      <trkpt lat="36.82342973537743091583251953125" lon="-118.391598165035247802734375">
        <ele>3895</ele>
        <time>2021-06-27T18:27:56.000Z</time>
        <extensions>
          <ns3:TrackPointExtension>
            <ns3:atemp>28.0</ns3:atemp>
            <ns3:hr>90</ns3:hr>
          </ns3:TrackPointExtension>
        </extensions>
      </trkpt>
      <trkpt lat="36.82342998683452606201171875" lon="-118.3915986679494380950927734375">
        <ele>3895</ele>
        <time>2021-06-27T18:27:58.000Z</time>
        <extensions>
          <ns3:TrackPointExtension>
            <ns3:atemp>28.0</ns3:atemp>
            <ns3:hr>93</ns3:hr>
          </ns3:TrackPointExtension>
        </extensions>
      </trkpt>
      <trkpt lat="36.8234311603009700775146484375" lon="-118.39160151779651641845703125">
        <ele>3895</ele>
        <time>2021-06-27T18:28:11.000Z</time>
        <extensions>
          <ns3:TrackPointExtension>
            <ns3:atemp>28.0</ns3:atemp>
            <ns3:hr>90</ns3:hr>
          </ns3:TrackPointExtension>
        </extensions>
      </trkpt>
      <trkpt lat="36.82343141175806522369384765625" lon="-118.391601853072643280029296875">
        <ele>3895</ele>
        <time>2021-06-27T18:28:13.000Z</time>
        <extensions>
          <ns3:TrackPointExtension>
            <ns3:atemp>28.0</ns3:atemp>
            <ns3:hr>90</ns3:hr>
          </ns3:TrackPointExtension>
        </extensions>
      </trkpt>
      <trkpt lat="36.8234319984912872314453125" lon="-118.39160344563424587249755859375">
        <ele>3895</ele>
        <time>2021-06-27T18:28:21.000Z</time>
        <extensions>
          <ns3:TrackPointExtension>
            <ns3:atemp>28.0</ns3:atemp>
            <ns3:hr>87</ns3:hr>
          </ns3:TrackPointExtension>
        </extensions>
      </trkpt>
      <trkpt lat="36.82343241758644580841064453125" lon="-118.39160461910068988800048828125">
        <ele>3895</ele>
        <time>2021-06-27T18:28:27.000Z</time>
        <extensions>
          <ns3:TrackPointExtension>
            <ns3:atemp>28.0</ns3:atemp>
            <ns3:hr>84</ns3:hr>
          </ns3:TrackPointExtension>
        </extensions>
      </trkpt>
      <trkpt lat="36.823433004319667816162109375" lon="-118.39161165989935398101806640625">
        <ele>3895</ele>
        <time>2021-06-27T18:28:51.000Z</time>
        <extensions>
          <ns3:TrackPointExtension>
            <ns3:atemp>28.0</ns3:atemp>
            <ns3:hr>87</ns3:hr>
          </ns3:TrackPointExtension>
        </extensions>
      </trkpt>
      <trkpt lat="36.8234321661293506622314453125" lon="-118.3916191197931766510009765625">
        <ele>3883.39990234375</ele>
        <time>2021-06-27T18:29:07.000Z</time>
        <extensions>
          <ns3:TrackPointExtension>
            <ns3:atemp>28.0</ns3:atemp>
            <ns3:hr>87</ns3:hr>
          </ns3:TrackPointExtension>
        </extensions>
      </trkpt>
      <trkpt lat="36.8234319984912872314453125" lon="-118.39162020944058895111083984375">
        <ele>3883.39990234375</ele>
        <time>2021-06-27T18:29:09.000Z</time>
        <extensions>
          <ns3:TrackPointExtension>
            <ns3:atemp>28.0</ns3:atemp>
            <ns3:hr>84</ns3:hr>
          </ns3:TrackPointExtension>
        </extensions>
      </trkpt>
      <trkpt lat="36.82343132793903350830078125" lon="-118.39162590913474559783935546875">
        <ele>3883</ele>
        <time>2021-06-27T18:29:19.000Z</time>
        <extensions>
          <ns3:TrackPointExtension>
            <ns3:atemp>28.0</ns3:atemp>
            <ns3:hr>81</ns3:hr>
          </ns3:TrackPointExtension>
        </extensions>
      </trkpt>
      <trkpt lat="36.8234308250248432159423828125" lon="-118.3916305191814899444580078125">
        <ele>3883.39990234375</ele>
        <time>2021-06-27T18:29:27.000Z</time>
        <extensions>
          <ns3:TrackPointExtension>
            <ns3:atemp>28.0</ns3:atemp>
            <ns3:hr>78</ns3:hr>
          </ns3:TrackPointExtension>
        </extensions>
      </trkpt>
      <trkpt lat="36.823428310453891754150390625" lon="-118.39165675453841686248779296875">
        <ele>3882.199951171875</ele>
        <time>2021-06-27T18:30:14.000Z</time>
        <extensions>
          <ns3:TrackPointExtension>
            <ns3:atemp>28.0</ns3:atemp>
            <ns3:hr>79</ns3:hr>
          </ns3:TrackPointExtension>
        </extensions>
      </trkpt>
      <trkpt lat="36.823427975177764892578125" lon="-118.3916616998612880706787109375">
        <ele>3881.199951171875</ele>
        <time>2021-06-27T18:30:23.000Z</time>
        <extensions>
          <ns3:TrackPointExtension>
            <ns3:atemp>28.0</ns3:atemp>
            <ns3:hr>80</ns3:hr>
          </ns3:TrackPointExtension>
        </extensions>
      </trkpt>
      <trkpt lat="36.823427639901638031005859375" lon="-118.39166832156479358673095703125">
        <ele>3880.800048828125</ele>
        <time>2021-06-27T18:30:34.000Z</time>
        <extensions>
          <ns3:TrackPointExtension>
            <ns3:atemp>28.0</ns3:atemp>
            <ns3:hr>77</ns3:hr>
          </ns3:TrackPointExtension>
        </extensions>
      </trkpt>
      <trkpt lat="36.82342755608260631561279296875" lon="-118.39166949503123760223388671875">
        <ele>3880.39990234375</ele>
        <time>2021-06-27T18:30:36.000Z</time>
        <extensions>
          <ns3:TrackPointExtension>
            <ns3:atemp>28.0</ns3:atemp>
            <ns3:hr>80</ns3:hr>
          </ns3:TrackPointExtension>
        </extensions>
      </trkpt>
      <trkpt lat="36.8234274722635746002197265625" lon="-118.3916720934212207794189453125">
        <ele>3880.199951171875</ele>
        <time>2021-06-27T18:30:40.000Z</time>
        <extensions>
          <ns3:TrackPointExtension>
            <ns3:atemp>28.0</ns3:atemp>
            <ns3:hr>78</ns3:hr>
          </ns3:TrackPointExtension>
        </extensions>
      </trkpt>
      <trkpt lat="36.82342730462551116943359375" lon="-118.39167603291571140289306640625">
        <ele>3879</ele>
        <time>2021-06-27T18:30:46.000Z</time>
        <extensions>
          <ns3:TrackPointExtension>
            <ns3:atemp>28.0</ns3:atemp>
            <ns3:hr>78</ns3:hr>
          </ns3:TrackPointExtension>
        </extensions>
      </trkpt>
      <trkpt lat="36.8234271369874477386474609375" lon="-118.39168005622923374176025390625">
        <ele>3878</ele>
        <time>2021-06-27T18:30:52.000Z</time>
        <extensions>
          <ns3:TrackPointExtension>
            <ns3:atemp>28.0</ns3:atemp>
            <ns3:hr>76</ns3:hr>
          </ns3:TrackPointExtension>
        </extensions>
      </trkpt>
      <trkpt lat="36.8234261311590671539306640625" lon="-118.39169204235076904296875">
        <ele>3878.39990234375</ele>
        <time>2021-06-27T18:31:09.000Z</time>
        <extensions>
          <ns3:TrackPointExtension>
            <ns3:atemp>28.0</ns3:atemp>
            <ns3:hr>79</ns3:hr>
          </ns3:TrackPointExtension>
        </extensions>
      </trkpt>
      <trkpt lat="36.8234257958829402923583984375" lon="-118.3916987478733062744140625">
        <ele>3878.39990234375</ele>
        <time>2021-06-27T18:31:18.000Z</time>
        <extensions>
          <ns3:TrackPointExtension>
            <ns3:atemp>28.0</ns3:atemp>
            <ns3:hr>82</ns3:hr>
          </ns3:TrackPointExtension>
        </extensions>
      </trkpt>
      <trkpt lat="36.82342537678778171539306640625" lon="-118.39170386083424091339111328125">
        <ele>3877.800048828125</ele>
        <time>2021-06-27T18:31:25.000Z</time>
        <extensions>
          <ns3:TrackPointExtension>
            <ns3:atemp>28.0</ns3:atemp>
            <ns3:hr>85</ns3:hr>
          </ns3:TrackPointExtension>
        </extensions>
      </trkpt>
      <trkpt lat="36.82342487387359142303466796875" lon="-118.391709811985492706298828125">
        <ele>3876.800048828125</ele>
        <time>2021-06-27T18:31:33.000Z</time>
        <extensions>
          <ns3:TrackPointExtension>
            <ns3:atemp>28.0</ns3:atemp>
            <ns3:hr>83</ns3:hr>
          </ns3:TrackPointExtension>
        </extensions>
      </trkpt>
      <trkpt lat="36.823424287140369415283203125" lon="-118.39171593077480792999267578125">
        <ele>3875.60009765625</ele>
        <time>2021-06-27T18:31:41.000Z</time>
        <extensions>
          <ns3:TrackPointExtension>
            <ns3:atemp>28.0</ns3:atemp>
            <ns3:hr>85</ns3:hr>
          </ns3:TrackPointExtension>
        </extensions>
      </trkpt>
      <trkpt lat="36.82342386804521083831787109375" lon="-118.391720540821552276611328125">
        <ele>3875</ele>
        <time>2021-06-27T18:31:47.000Z</time>
        <extensions>
          <ns3:TrackPointExtension>
            <ns3:atemp>28.0</ns3:atemp>
            <ns3:hr>88</ns3:hr>
          </ns3:TrackPointExtension>
        </extensions>
      </trkpt>
      <trkpt lat="36.82342194020748138427734375" lon="-118.391733281314373016357421875">
        <ele>3874.199951171875</ele>
        <time>2021-06-27T18:32:04.000Z</time>
        <extensions>
          <ns3:TrackPointExtension>
            <ns3:atemp>28.0</ns3:atemp>
            <ns3:hr>90</ns3:hr>
          </ns3:TrackPointExtension>
        </extensions>
      </trkpt>
      <trkpt lat="36.82342152111232280731201171875" lon="-118.3917354606091976165771484375">
        <ele>3873</ele>
        <time>2021-06-27T18:32:07.000Z</time>
        <extensions>
          <ns3:TrackPointExtension>
            <ns3:atemp>28.0</ns3:atemp>
            <ns3:hr>91</ns3:hr>
          </ns3:TrackPointExtension>
        </extensions>
      </trkpt>
      <trkpt lat="36.82341967709362506866455078125" lon="-118.39174392633140087127685546875">
        <ele>3872.60009765625</ele>
        <time>2021-06-27T18:32:19.000Z</time>
        <extensions>
          <ns3:TrackPointExtension>
            <ns3:atemp>28.0</ns3:atemp>
            <ns3:hr>88</ns3:hr>
          </ns3:TrackPointExtension>
        </extensions>
      </trkpt>
      <trkpt lat="36.82341950945556163787841796875" lon="-118.39174459688365459442138671875">
        <ele>3872</ele>
        <time>2021-06-27T18:32:20.000Z</time>
        <extensions>
          <ns3:TrackPointExtension>
            <ns3:atemp>28.0</ns3:atemp>
            <ns3:hr>87</ns3:hr>
          </ns3:TrackPointExtension>
        </extensions>
      </trkpt>
      <trkpt lat="36.82341900654137134552001953125" lon="-118.39174677617847919464111328125">
        <ele>3872</ele>
        <time>2021-06-27T18:32:23.000Z</time>
        <extensions>
          <ns3:TrackPointExtension>
            <ns3:atemp>28.0</ns3:atemp>
            <ns3:hr>84</ns3:hr>
          </ns3:TrackPointExtension>
        </extensions>
      </trkpt>
      <trkpt lat="36.82341649197041988372802734375" lon="-118.39175901375710964202880859375">
        <ele>3872.800048828125</ele>
        <time>2021-06-27T18:32:40.000Z</time>
        <extensions>
          <ns3:TrackPointExtension>
            <ns3:atemp>28.0</ns3:atemp>
            <ns3:hr>83</ns3:hr>
          </ns3:TrackPointExtension>
        </extensions>
      </trkpt>
      <trkpt lat="36.8234160728752613067626953125" lon="-118.39176110923290252685546875">
        <ele>3872.39990234375</ele>
        <time>2021-06-27T18:32:43.000Z</time>
        <extensions>
          <ns3:TrackPointExtension>
            <ns3:atemp>28.0</ns3:atemp>
            <ns3:hr>86</ns3:hr>
          </ns3:TrackPointExtension>
        </extensions>
      </trkpt>
      <trkpt lat="36.8234157375991344451904296875" lon="-118.39176320470869541168212890625">
        <ele>3872.39990234375</ele>
        <time>2021-06-27T18:32:46.000Z</time>
        <extensions>
          <ns3:TrackPointExtension>
            <ns3:atemp>29.0</ns3:atemp>
            <ns3:hr>89</ns3:hr>
          </ns3:TrackPointExtension>
        </extensions>
      </trkpt>
      <trkpt lat="36.823414899408817291259765625" lon="-118.391768150031566619873046875">
        <ele>3872</ele>
        <time>2021-06-27T18:32:53.000Z</time>
        <extensions>
          <ns3:TrackPointExtension>
            <ns3:atemp>29.0</ns3:atemp>
            <ns3:hr>91</ns3:hr>
          </ns3:TrackPointExtension>
        </extensions>
      </trkpt>
      <trkpt lat="36.8234143964946269989013671875" lon="-118.3917716704308986663818359375">
        <ele>3871.800048828125</ele>
        <time>2021-06-27T18:32:58.000Z</time>
        <extensions>
          <ns3:TrackPointExtension>
            <ns3:atemp>29.0</ns3:atemp>
            <ns3:hr>88</ns3:hr>
          </ns3:TrackPointExtension>
        </extensions>
      </trkpt>
      <trkpt lat="36.82341389358043670654296875" lon="-118.39177452027797698974609375">
        <ele>3871.800048828125</ele>
        <time>2021-06-27T18:33:02.000Z</time>
        <extensions>
          <ns3:TrackPointExtension>
            <ns3:atemp>29.0</ns3:atemp>
            <ns3:hr>87</ns3:hr>
          </ns3:TrackPointExtension>
        </extensions>
      </trkpt>
      <trkpt lat="36.82341213338077068328857421875" lon="-118.39178533293306827545166015625">
        <ele>3871</ele>
        <time>2021-06-27T18:33:18.000Z</time>
        <extensions>
          <ns3:TrackPointExtension>
            <ns3:atemp>30.0</ns3:atemp>
            <ns3:hr>88</ns3:hr>
          </ns3:TrackPointExtension>
        </extensions>
      </trkpt>
      <trkpt lat="36.82341095991432666778564453125" lon="-118.3917924575507640838623046875">
        <ele>3869.39990234375</ele>
        <time>2021-06-27T18:33:29.000Z</time>
        <extensions>
          <ns3:TrackPointExtension>
            <ns3:atemp>29.0</ns3:atemp>
            <ns3:hr>89</ns3:hr>
          </ns3:TrackPointExtension>
        </extensions>
      </trkpt>
      <trkpt lat="36.82341045700013637542724609375" lon="-118.3917953073978424072265625">
        <ele>3869</ele>
        <time>2021-06-27T18:33:33.000Z</time>
        <extensions>
          <ns3:TrackPointExtension>
            <ns3:atemp>29.0</ns3:atemp>
            <ns3:hr>85</ns3:hr>
          </ns3:TrackPointExtension>
        </extensions>
      </trkpt>
      <trkpt lat="36.82340961880981922149658203125" lon="-118.39180025272071361541748046875">
        <ele>3869</ele>
        <time>2021-06-27T18:33:40.000Z</time>
        <extensions>
          <ns3:TrackPointExtension>
            <ns3:atemp>29.0</ns3:atemp>
            <ns3:hr>82</ns3:hr>
          </ns3:TrackPointExtension>
        </extensions>
      </trkpt>
      <trkpt lat="36.82340852916240692138671875" lon="-118.3918068744242191314697265625">
        <ele>3869.60009765625</ele>
        <time>2021-06-27T18:33:49.000Z</time>
        <extensions>
          <ns3:TrackPointExtension>
            <ns3:atemp>29.0</ns3:atemp>
            <ns3:hr>79</ns3:hr>
          </ns3:TrackPointExtension>
        </extensions>
      </trkpt>
      <trkpt lat="36.8234083615243434906005859375" lon="-118.39180829934775829315185546875">
        <ele>3869.60009765625</ele>
        <time>2021-06-27T18:33:51.000Z</time>
        <extensions>
          <ns3:TrackPointExtension>
            <ns3:atemp>29.0</ns3:atemp>
            <ns3:hr>82</ns3:hr>
          </ns3:TrackPointExtension>
        </extensions>
      </trkpt>
      <trkpt lat="36.8234076909720897674560546875" lon="-118.39181207120418548583984375">
        <ele>3870</ele>
        <time>2021-06-27T18:33:56.000Z</time>
        <extensions>
          <ns3:TrackPointExtension>
            <ns3:atemp>29.0</ns3:atemp>
            <ns3:hr>85</ns3:hr>
          </ns3:TrackPointExtension>
        </extensions>
      </trkpt>
      <trkpt lat="36.823406182229518890380859375" lon="-118.39182154275476932525634765625">
        <ele>3870.199951171875</ele>
        <time>2021-06-27T18:34:09.000Z</time>
        <extensions>
          <ns3:TrackPointExtension>
            <ns3:atemp>29.0</ns3:atemp>
            <ns3:hr>88</ns3:hr>
          </ns3:TrackPointExtension>
        </extensions>
      </trkpt>
      <trkpt lat="36.8233949504792690277099609375" lon="-118.3919642865657806396484375">
        <ele>3869.199951171875</ele>
        <time>2021-06-27T18:34:15.000Z</time>
        <extensions>
          <ns3:TrackPointExtension>
            <ns3:atemp>29.0</ns3:atemp>
            <ns3:hr>87</ns3:hr>
          </ns3:TrackPointExtension>
        </extensions>
      </trkpt>
      <trkpt lat="36.82338573038578033447265625" lon="-118.39206059463322162628173828125">
        <ele>3869.39990234375</ele>
        <time>2021-06-27T18:34:18.000Z</time>
        <extensions>
          <ns3:TrackPointExtension>
            <ns3:atemp>29.0</ns3:atemp>
            <ns3:hr>90</ns3:hr>
          </ns3:TrackPointExtension>
        </extensions>
      </trkpt>
      <trkpt lat="36.82338430546224117279052734375" lon="-118.3920928649604320526123046875">
        <ele>3869.39990234375</ele>
        <time>2021-06-27T18:34:19.000Z</time>
        <extensions>
          <ns3:TrackPointExtension>
            <ns3:atemp>29.0</ns3:atemp>
            <ns3:hr>87</ns3:hr>
          </ns3:TrackPointExtension>
        </extensions>
      </trkpt>
      <trkpt lat="36.82338564656674861907958984375" lon="-118.39215405285358428955078125">
        <ele>3869</ele>
        <time>2021-06-27T18:34:22.000Z</time>
        <extensions>
          <ns3:TrackPointExtension>
            <ns3:atemp>29.0</ns3:atemp>
            <ns3:hr>90</ns3:hr>
          </ns3:TrackPointExtension>
        </extensions>
      </trkpt>
      <trkpt lat="36.82338363490998744964599609375" lon="-118.39216553606092929840087890625">
        <ele>3869</ele>
        <time>2021-06-27T18:34:23.000Z</time>
        <extensions>
          <ns3:TrackPointExtension>
            <ns3:atemp>29.0</ns3:atemp>
            <ns3:hr>88</ns3:hr>
          </ns3:TrackPointExtension>
        </extensions>
      </trkpt>
      <trkpt lat="36.82334055192768573760986328125" lon="-118.3922092057764530181884765625">
        <ele>3868.800048828125</ele>
        <time>2021-06-27T18:34:29.000Z</time>
        <extensions>
          <ns3:TrackPointExtension>
            <ns3:atemp>29.0</ns3:atemp>
            <ns3:hr>88</ns3:hr>
          </ns3:TrackPointExtension>
        </extensions>
      </trkpt>
      <trkpt lat="36.823333092033863067626953125" lon="-118.39222420938313007354736328125">
        <ele>3868.199951171875</ele>
        <time>2021-06-27T18:34:31.000Z</time>
        <extensions>
          <ns3:TrackPointExtension>
            <ns3:atemp>29.0</ns3:atemp>
            <ns3:hr>86</ns3:hr>
          </ns3:TrackPointExtension>
        </extensions>
      </trkpt>
      <trkpt lat="36.823315657675266265869140625" lon="-118.39224650524556636810302734375">
        <ele>3866.800048828125</ele>
        <time>2021-06-27T18:34:35.000Z</time>
        <extensions>
          <ns3:TrackPointExtension>
            <ns3:atemp>29.0</ns3:atemp>
            <ns3:hr>84</ns3:hr>
          </ns3:TrackPointExtension>
        </extensions>
      </trkpt>
      <trkpt lat="36.82330015115439891815185546875" lon="-118.39226779527962207794189453125">
        <ele>3866</ele>
        <time>2021-06-27T18:34:39.000Z</time>
        <extensions>
          <ns3:TrackPointExtension>
            <ns3:atemp>29.0</ns3:atemp>
            <ns3:hr>81</ns3:hr>
          </ns3:TrackPointExtension>
        </extensions>
      </trkpt>
      <trkpt lat="36.82329654693603515625" lon="-118.392263352870941162109375">
        <ele>3865.39990234375</ele>
        <time>2021-06-27T18:34:41.000Z</time>
        <extensions>
          <ns3:TrackPointExtension>
            <ns3:atemp>29.0</ns3:atemp>
            <ns3:hr>80</ns3:hr>
          </ns3:TrackPointExtension>
        </extensions>
      </trkpt>
      <trkpt lat="36.82329026050865650177001953125" lon="-118.3922769315540790557861328125">
        <ele>3864.39990234375</ele>
        <time>2021-06-27T18:34:49.000Z</time>
        <extensions>
          <ns3:TrackPointExtension>
            <ns3:atemp>29.0</ns3:atemp>
            <ns3:hr>78</ns3:hr>
          </ns3:TrackPointExtension>
        </extensions>
      </trkpt>
      <trkpt lat="36.8232759274542331695556640625" lon="-118.3922574855387210845947265625">
        <ele>3864</ele>
        <time>2021-06-27T18:34:54.000Z</time>
        <extensions>
          <ns3:TrackPointExtension>
            <ns3:atemp>29.0</ns3:atemp>
            <ns3:hr>79</ns3:hr>
          </ns3:TrackPointExtension>
        </extensions>
      </trkpt>
      <trkpt lat="36.8232710659503936767578125" lon="-118.39225723408162593841552734375">
        <ele>3864</ele>
        <time>2021-06-27T18:34:55.000Z</time>
        <extensions>
          <ns3:TrackPointExtension>
            <ns3:atemp>29.0</ns3:atemp>
            <ns3:hr>78</ns3:hr>
          </ns3:TrackPointExtension>
        </extensions>
      </trkpt>
      <trkpt lat="36.8232648633420467376708984375" lon="-118.39226536452770233154296875">
        <ele>3863</ele>
        <time>2021-06-27T18:35:02.000Z</time>
        <extensions>
          <ns3:TrackPointExtension>
            <ns3:atemp>29.0</ns3:atemp>
            <ns3:hr>79</ns3:hr>
          </ns3:TrackPointExtension>
        </extensions>
      </trkpt>
      <trkpt lat="36.8232685513794422149658203125" lon="-118.39228506200015544891357421875">
        <ele>3862.199951171875</ele>
        <time>2021-06-27T18:35:07.000Z</time>
        <extensions>
          <ns3:TrackPointExtension>
            <ns3:atemp>29.0</ns3:atemp>
            <ns3:hr>76</ns3:hr>
          </ns3:TrackPointExtension>
        </extensions>
      </trkpt>
      <trkpt lat="36.82327366434037685394287109375" lon="-118.3923084475100040435791015625">
        <ele>3861.39990234375</ele>
        <time>2021-06-27T18:35:11.000Z</time>
        <extensions>
          <ns3:TrackPointExtension>
            <ns3:atemp>29.0</ns3:atemp>
            <ns3:hr>78</ns3:hr>
          </ns3:TrackPointExtension>
        </extensions>
      </trkpt>
      <trkpt lat="36.823275424540042877197265625" lon="-118.3923101238906383514404296875">
        <ele>3861</ele>
        <time>2021-06-27T18:35:13.000Z</time>
        <extensions>
          <ns3:TrackPointExtension>
            <ns3:atemp>29.0</ns3:atemp>
            <ns3:hr>79</ns3:hr>
          </ns3:TrackPointExtension>
        </extensions>
      </trkpt>
      <trkpt lat="36.82329109869897365570068359375" lon="-118.39233635924756526947021484375">
        <ele>3860.39990234375</ele>
        <time>2021-06-27T18:35:20.000Z</time>
        <extensions>
          <ns3:TrackPointExtension>
            <ns3:atemp>29.0</ns3:atemp>
            <ns3:hr>78</ns3:hr>
          </ns3:TrackPointExtension>
        </extensions>
      </trkpt>
      <trkpt lat="36.82329227216541767120361328125" lon="-118.39234624989330768585205078125">
        <ele>3860.39990234375</ele>
        <time>2021-06-27T18:35:21.000Z</time>
        <extensions>
          <ns3:TrackPointExtension>
            <ns3:atemp>29.0</ns3:atemp>
            <ns3:hr>79</ns3:hr>
          </ns3:TrackPointExtension>
        </extensions>
      </trkpt>
      <trkpt lat="36.82329327799379825592041015625" lon="-118.3923907577991485595703125">
        <ele>3859.60009765625</ele>
        <time>2021-06-27T18:35:30.000Z</time>
        <extensions>
          <ns3:TrackPointExtension>
            <ns3:atemp>29.0</ns3:atemp>
            <ns3:hr>82</ns3:hr>
          </ns3:TrackPointExtension>
        </extensions>
      </trkpt>
      <trkpt lat="36.82329160161316394805908203125" lon="-118.392395116388797760009765625">
        <ele>3859.60009765625</ele>
        <time>2021-06-27T18:35:31.000Z</time>
        <extensions>
          <ns3:TrackPointExtension>
            <ns3:atemp>28.0</ns3:atemp>
            <ns3:hr>83</ns3:hr>
          </ns3:TrackPointExtension>
        </extensions>
      </trkpt>
      <trkpt lat="36.823288500308990478515625" lon="-118.3924073539674282073974609375">
        <ele>3858.800048828125</ele>
        <time>2021-06-27T18:35:33.000Z</time>
        <extensions>
          <ns3:TrackPointExtension>
            <ns3:atemp>28.0</ns3:atemp>
            <ns3:hr>84</ns3:hr>
          </ns3:TrackPointExtension>
        </extensions>
      </trkpt>
      <trkpt lat="36.8232993967831134796142578125" lon="-118.3924217708408832550048828125">
        <ele>3858.199951171875</ele>
        <time>2021-06-27T18:35:38.000Z</time>
        <extensions>
          <ns3:TrackPointExtension>
            <ns3:atemp>28.0</ns3:atemp>
            <ns3:hr>83</ns3:hr>
          </ns3:TrackPointExtension>
        </extensions>
      </trkpt>
      <trkpt lat="36.8233024142682552337646484375" lon="-118.39242889545857906341552734375">
        <ele>3858.199951171875</ele>
        <time>2021-06-27T18:35:39.000Z</time>
        <extensions>
          <ns3:TrackPointExtension>
            <ns3:atemp>28.0</ns3:atemp>
            <ns3:hr>83</ns3:hr>
          </ns3:TrackPointExtension>
        </extensions>
      </trkpt>
      <trkpt lat="36.8233101256191730499267578125" lon="-118.39244532398879528045654296875">
        <ele>3857.800048828125</ele>
        <time>2021-06-27T18:35:42.000Z</time>
        <extensions>
          <ns3:TrackPointExtension>
            <ns3:atemp>28.0</ns3:atemp>
            <ns3:hr>81</ns3:hr>
          </ns3:TrackPointExtension>
        </extensions>
      </trkpt>
      <trkpt lat="36.8233118019998073577880859375" lon="-118.39243643917143344879150390625">
        <ele>3857.199951171875</ele>
        <time>2021-06-27T18:35:45.000Z</time>
        <extensions>
          <ns3:TrackPointExtension>
            <ns3:atemp>28.0</ns3:atemp>
            <ns3:hr>84</ns3:hr>
          </ns3:TrackPointExtension>
        </extensions>
      </trkpt>
      <trkpt lat="36.82329361326992511749267578125" lon="-118.392427973449230194091796875">
        <ele>3856.800048828125</ele>
        <time>2021-06-27T18:35:53.000Z</time>
        <extensions>
          <ns3:TrackPointExtension>
            <ns3:atemp>28.0</ns3:atemp>
            <ns3:hr>85</ns3:hr>
          </ns3:TrackPointExtension>
        </extensions>
      </trkpt>
      <trkpt lat="36.82329453527927398681640625" lon="-118.39242369867861270904541015625">
        <ele>3856.60009765625</ele>
        <time>2021-06-27T18:35:56.000Z</time>
        <extensions>
          <ns3:TrackPointExtension>
            <ns3:atemp>28.0</ns3:atemp>
            <ns3:hr>85</ns3:hr>
          </ns3:TrackPointExtension>
        </extensions>
      </trkpt>
      <trkpt lat="36.82329453527927398681640625" lon="-118.39242369867861270904541015625">
        <ele>3855.800048828125</ele>
        <time>2021-06-27T18:36:00.000Z</time>
        <extensions>
          <ns3:TrackPointExtension>
            <ns3:atemp>28.0</ns3:atemp>
            <ns3:hr>82</ns3:hr>
          </ns3:TrackPointExtension>
        </extensions>
      </trkpt>
      <trkpt lat="36.82329453527927398681640625" lon="-118.39242369867861270904541015625">
        <ele>3855.60009765625</ele>
        <time>2021-06-27T18:36:01.000Z</time>
        <extensions>
          <ns3:TrackPointExtension>
            <ns3:atemp>28.0</ns3:atemp>
            <ns3:hr>85</ns3:hr>
          </ns3:TrackPointExtension>
        </extensions>
      </trkpt>
      <trkpt lat="36.82329453527927398681640625" lon="-118.39242604561150074005126953125">
        <ele>3855</ele>
        <time>2021-06-27T18:36:04.000Z</time>
        <extensions>
          <ns3:TrackPointExtension>
            <ns3:atemp>28.0</ns3:atemp>
            <ns3:hr>88</ns3:hr>
          </ns3:TrackPointExtension>
        </extensions>
      </trkpt>
      <trkpt lat="36.82329453527927398681640625" lon="-118.3924298174679279327392578125">
        <ele>3854.800048828125</ele>
        <time>2021-06-27T18:36:06.000Z</time>
        <extensions>
          <ns3:TrackPointExtension>
            <ns3:atemp>28.0</ns3:atemp>
            <ns3:hr>90</ns3:hr>
          </ns3:TrackPointExtension>
        </extensions>
      </trkpt>
      <trkpt lat="36.8232936970889568328857421875" lon="-118.39243224821984767913818359375">
        <ele>3854.60009765625</ele>
        <time>2021-06-27T18:36:09.000Z</time>
        <extensions>
          <ns3:TrackPointExtension>
            <ns3:atemp>28.0</ns3:atemp>
            <ns3:hr>91</ns3:hr>
          </ns3:TrackPointExtension>
        </extensions>
      </trkpt>
      <trkpt lat="36.8232910148799419403076171875" lon="-118.39243526570498943328857421875">
        <ele>3853.39990234375</ele>
        <time>2021-06-27T18:36:11.000Z</time>
        <extensions>
          <ns3:TrackPointExtension>
            <ns3:atemp>28.0</ns3:atemp>
            <ns3:hr>91</ns3:hr>
          </ns3:TrackPointExtension>
        </extensions>
      </trkpt>
      <trkpt lat="36.82328355498611927032470703125" lon="-118.39244314469397068023681640625">
        <ele>3853.39990234375</ele>
        <time>2021-06-27T18:36:14.000Z</time>
        <extensions>
          <ns3:TrackPointExtension>
            <ns3:atemp>29.0</ns3:atemp>
            <ns3:hr>94</ns3:hr>
          </ns3:TrackPointExtension>
        </extensions>
      </trkpt>
      <trkpt lat="36.82328246533870697021484375" lon="-118.39245353825390338897705078125">
        <ele>3853.39990234375</ele>
        <time>2021-06-27T18:36:16.000Z</time>
        <extensions>
          <ns3:TrackPointExtension>
            <ns3:atemp>29.0</ns3:atemp>
            <ns3:hr>97</ns3:hr>
          </ns3:TrackPointExtension>
        </extensions>
      </trkpt>
      <trkpt lat="36.8232749216258525848388671875" lon="-118.392458148300647735595703125">
        <ele>3852</ele>
        <time>2021-06-27T18:36:22.000Z</time>
        <extensions>
          <ns3:TrackPointExtension>
            <ns3:atemp>29.0</ns3:atemp>
            <ns3:hr>100</ns3:hr>
          </ns3:TrackPointExtension>
        </extensions>
      </trkpt>
      <trkpt lat="36.8232544697821140289306640625" lon="-118.3924792706966400146484375">
        <ele>3851</ele>
        <time>2021-06-27T18:36:30.000Z</time>
        <extensions>
          <ns3:TrackPointExtension>
            <ns3:atemp>29.0</ns3:atemp>
            <ns3:hr>97</ns3:hr>
          </ns3:TrackPointExtension>
        </extensions>
      </trkpt>
      <trkpt lat="36.82325086556375026702880859375" lon="-118.39249226264655590057373046875">
        <ele>3851</ele>
        <time>2021-06-27T18:36:36.000Z</time>
        <extensions>
          <ns3:TrackPointExtension>
            <ns3:atemp>29.0</ns3:atemp>
            <ns3:hr>97</ns3:hr>
          </ns3:TrackPointExtension>
        </extensions>
      </trkpt>
      <trkpt lat="36.82324826717376708984375" lon="-118.39249226264655590057373046875">
        <ele>3851</ele>
        <time>2021-06-27T18:36:37.000Z</time>
        <extensions>
          <ns3:TrackPointExtension>
            <ns3:atemp>29.0</ns3:atemp>
            <ns3:hr>97</ns3:hr>
          </ns3:TrackPointExtension>
        </extensions>
      </trkpt>
      <trkpt lat="36.82324181310832500457763671875" lon="-118.392494022846221923828125">
        <ele>3850.39990234375</ele>
        <time>2021-06-27T18:36:43.000Z</time>
        <extensions>
          <ns3:TrackPointExtension>
            <ns3:atemp>29.0</ns3:atemp>
            <ns3:hr>94</ns3:hr>
          </ns3:TrackPointExtension>
        </extensions>
      </trkpt>
      <trkpt lat="36.823240220546722412109375" lon="-118.39249460957944393157958984375">
        <ele>3849.800048828125</ele>
        <time>2021-06-27T18:36:47.000Z</time>
        <extensions>
          <ns3:TrackPointExtension>
            <ns3:atemp>29.0</ns3:atemp>
            <ns3:hr>92</ns3:hr>
          </ns3:TrackPointExtension>
        </extensions>
      </trkpt>
      <trkpt lat="36.823239885270595550537109375" lon="-118.39249561540782451629638671875">
        <ele>3849.60009765625</ele>
        <time>2021-06-27T18:36:50.000Z</time>
        <extensions>
          <ns3:TrackPointExtension>
            <ns3:atemp>29.0</ns3:atemp>
            <ns3:hr>89</ns3:hr>
          </ns3:TrackPointExtension>
        </extensions>
      </trkpt>
      <trkpt lat="36.82323946617543697357177734375" lon="-118.39249678887426853179931640625">
        <ele>3848.199951171875</ele>
        <time>2021-06-27T18:36:54.000Z</time>
        <extensions>
          <ns3:TrackPointExtension>
            <ns3:atemp>29.0</ns3:atemp>
            <ns3:hr>87</ns3:hr>
          </ns3:TrackPointExtension>
        </extensions>
      </trkpt>
      <trkpt lat="36.82323695160448551177978515625" lon="-118.3924972079694271087646484375">
        <ele>3848.199951171875</ele>
        <time>2021-06-27T18:36:57.000Z</time>
        <extensions>
          <ns3:TrackPointExtension>
            <ns3:atemp>29.0</ns3:atemp>
            <ns3:hr>86</ns3:hr>
          </ns3:TrackPointExtension>
        </extensions>
      </trkpt>
      <trkpt lat="36.82319219224154949188232421875" lon="-118.3925096131861209869384765625">
        <ele>3847.199951171875</ele>
        <time>2021-06-27T18:37:14.000Z</time>
        <extensions>
          <ns3:TrackPointExtension>
            <ns3:atemp>30.0</ns3:atemp>
            <ns3:hr>87</ns3:hr>
          </ns3:TrackPointExtension>
        </extensions>
      </trkpt>
      <trkpt lat="36.82319202460348606109619140625" lon="-118.392510451376438140869140625">
        <ele>3847.199951171875</ele>
        <time>2021-06-27T18:37:15.000Z</time>
        <extensions>
          <ns3:TrackPointExtension>
            <ns3:atemp>30.0</ns3:atemp>
            <ns3:hr>88</ns3:hr>
          </ns3:TrackPointExtension>
        </extensions>
      </trkpt>
      <trkpt lat="36.82319202460348606109619140625" lon="-118.39251807890832424163818359375">
        <ele>3846.60009765625</ele>
        <time>2021-06-27T18:37:28.000Z</time>
        <extensions>
          <ns3:TrackPointExtension>
            <ns3:atemp>30.0</ns3:atemp>
            <ns3:hr>89</ns3:hr>
          </ns3:TrackPointExtension>
        </extensions>
      </trkpt>
      <trkpt lat="36.8231937848031520843505859375" lon="-118.39252226985991001129150390625">
        <ele>3846.199951171875</ele>
        <time>2021-06-27T18:37:44.000Z</time>
        <extensions>
          <ns3:TrackPointExtension>
            <ns3:atemp>31.0</ns3:atemp>
            <ns3:hr>89</ns3:hr>
          </ns3:TrackPointExtension>
        </extensions>
      </trkpt>
      <trkpt lat="36.8231937848031520843505859375" lon="-118.39252226985991001129150390625">
        <ele>3846.199951171875</ele>
        <time>2021-06-27T18:37:45.000Z</time>
        <extensions>
          <ns3:TrackPointExtension>
            <ns3:atemp>31.0</ns3:atemp>
            <ns3:hr>89</ns3:hr>
          </ns3:TrackPointExtension>
        </extensions>
      </trkpt>
      <trkpt lat="36.823193617165088653564453125" lon="-118.39252210222184658050537109375">
        <ele>3846</ele>
        <time>2021-06-27T18:37:49.000Z</time>
        <extensions>
          <ns3:TrackPointExtension>
            <ns3:atemp>31.0</ns3:atemp>
            <ns3:hr>86</ns3:hr>
          </ns3:TrackPointExtension>
        </extensions>
      </trkpt>
      <trkpt lat="36.82318934239447116851806640625" lon="-118.39252210222184658050537109375">
        <ele>3845</ele>
        <time>2021-06-27T18:37:59.000Z</time>
        <extensions>
          <ns3:TrackPointExtension>
            <ns3:atemp>31.0</ns3:atemp>
            <ns3:hr>87</ns3:hr>
          </ns3:TrackPointExtension>
        </extensions>
      </trkpt>
      <trkpt lat="36.82318850420415401458740234375" lon="-118.39252226985991001129150390625">
        <ele>3844.800048828125</ele>
        <time>2021-06-27T18:38:02.000Z</time>
        <extensions>
          <ns3:TrackPointExtension>
            <ns3:atemp>32.0</ns3:atemp>
            <ns3:hr>89</ns3:hr>
          </ns3:TrackPointExtension>
        </extensions>
      </trkpt>
      <trkpt lat="36.823186576366424560546875" lon="-118.3925235271453857421875">
        <ele>3844.39990234375</ele>
        <time>2021-06-27T18:38:06.000Z</time>
        <extensions>
          <ns3:TrackPointExtension>
            <ns3:atemp>32.0</ns3:atemp>
            <ns3:hr>92</ns3:hr>
          </ns3:TrackPointExtension>
        </extensions>
      </trkpt>
      <trkpt lat="36.82317576371133327484130859375" lon="-118.39253886602818965911865234375">
        <ele>3844</ele>
        <time>2021-06-27T18:38:17.000Z</time>
        <extensions>
          <ns3:TrackPointExtension>
            <ns3:atemp>32.0</ns3:atemp>
            <ns3:hr>94</ns3:hr>
          </ns3:TrackPointExtension>
        </extensions>
      </trkpt>
      <trkpt lat="36.82317224331200122833251953125" lon="-118.3925511874258518218994140625">
        <ele>3843</ele>
        <time>2021-06-27T18:38:26.000Z</time>
        <extensions>
          <ns3:TrackPointExtension>
            <ns3:atemp>32.0</ns3:atemp>
            <ns3:hr>94</ns3:hr>
          </ns3:TrackPointExtension>
        </extensions>
      </trkpt>
      <trkpt lat="36.8231696449220180511474609375" lon="-118.39255948550999164581298828125">
        <ele>3841.60009765625</ele>
        <time>2021-06-27T18:38:36.000Z</time>
        <extensions>
          <ns3:TrackPointExtension>
            <ns3:atemp>32.0</ns3:atemp>
            <ns3:hr>94</ns3:hr>
          </ns3:TrackPointExtension>
        </extensions>
      </trkpt>
      <trkpt lat="36.82316721417009830474853515625" lon="-118.39256585575640201568603515625">
        <ele>3840.60009765625</ele>
        <time>2021-06-27T18:38:43.000Z</time>
        <extensions>
          <ns3:TrackPointExtension>
            <ns3:atemp>32.0</ns3:atemp>
            <ns3:hr>95</ns3:hr>
          </ns3:TrackPointExtension>
        </extensions>
      </trkpt>
      <trkpt lat="36.823166795074939727783203125" lon="-118.3925664424896240234375">
        <ele>3840.39990234375</ele>
        <time>2021-06-27T18:38:44.000Z</time>
        <extensions>
          <ns3:TrackPointExtension>
            <ns3:atemp>32.0</ns3:atemp>
            <ns3:hr>96</ns3:hr>
          </ns3:TrackPointExtension>
        </extensions>
      </trkpt>
      <trkpt lat="36.82315648533403873443603515625" lon="-118.3925733156502246856689453125">
        <ele>3840.199951171875</ele>
        <time>2021-06-27T18:38:53.000Z</time>
        <extensions>
          <ns3:TrackPointExtension>
            <ns3:atemp>32.0</ns3:atemp>
            <ns3:hr>93</ns3:hr>
          </ns3:TrackPointExtension>
        </extensions>
      </trkpt>
      <trkpt lat="36.82314340956509113311767578125" lon="-118.3925785124301910400390625">
        <ele>3839.60009765625</ele>
        <time>2021-06-27T18:39:04.000Z</time>
        <extensions>
          <ns3:TrackPointExtension>
            <ns3:atemp>32.0</ns3:atemp>
            <ns3:hr>93</ns3:hr>
          </ns3:TrackPointExtension>
        </extensions>
      </trkpt>
      <trkpt lat="36.82313905097544193267822265625" lon="-118.39257976971566677093505859375">
        <ele>3838.39990234375</ele>
        <time>2021-06-27T18:39:11.000Z</time>
        <extensions>
          <ns3:TrackPointExtension>
            <ns3:atemp>32.0</ns3:atemp>
            <ns3:hr>91</ns3:hr>
          </ns3:TrackPointExtension>
        </extensions>
      </trkpt>
      <trkpt lat="36.82313762605190277099609375" lon="-118.392580188810825347900390625">
        <ele>3837.39990234375</ele>
        <time>2021-06-27T18:39:19.000Z</time>
        <extensions>
          <ns3:TrackPointExtension>
            <ns3:atemp>32.0</ns3:atemp>
            <ns3:hr>94</ns3:hr>
          </ns3:TrackPointExtension>
        </extensions>
      </trkpt>
      <trkpt lat="36.823137290775775909423828125" lon="-118.3925806917250156402587890625">
        <ele>3837.39990234375</ele>
        <time>2021-06-27T18:39:26.000Z</time>
        <extensions>
          <ns3:TrackPointExtension>
            <ns3:atemp>32.0</ns3:atemp>
            <ns3:hr>92</ns3:hr>
          </ns3:TrackPointExtension>
        </extensions>
      </trkpt>
      <trkpt lat="36.82313703931868076324462890625" lon="-118.3925810270011425018310546875">
        <ele>3837.39990234375</ele>
        <time>2021-06-27T18:39:30.000Z</time>
        <extensions>
          <ns3:TrackPointExtension>
            <ns3:atemp>32.0</ns3:atemp>
            <ns3:hr>89</ns3:hr>
          </ns3:TrackPointExtension>
        </extensions>
      </trkpt>
      <trkpt lat="36.82313687168061733245849609375" lon="-118.39258144609630107879638671875">
        <ele>3837.39990234375</ele>
        <time>2021-06-27T18:39:34.000Z</time>
        <extensions>
          <ns3:TrackPointExtension>
            <ns3:atemp>32.0</ns3:atemp>
            <ns3:hr>86</ns3:hr>
          </ns3:TrackPointExtension>
        </extensions>
      </trkpt>
      <trkpt lat="36.823135949671268463134765625" lon="-118.3925838768482208251953125">
        <ele>3838</ele>
        <time>2021-06-27T18:40:02.000Z</time>
        <extensions>
          <ns3:TrackPointExtension>
            <ns3:atemp>32.0</ns3:atemp>
            <ns3:hr>83</ns3:hr>
          </ns3:TrackPointExtension>
        </extensions>
      </trkpt>
      <trkpt lat="36.8231357820332050323486328125" lon="-118.39258463121950626373291015625">
        <ele>3836.199951171875</ele>
        <time>2021-06-27T18:40:13.000Z</time>
        <extensions>
          <ns3:TrackPointExtension>
            <ns3:atemp>32.0</ns3:atemp>
            <ns3:hr>84</ns3:hr>
          </ns3:TrackPointExtension>
        </extensions>
      </trkpt>
      <trkpt lat="36.8231356143951416015625" lon="-118.39258588850498199462890625">
        <ele>3835</ele>
        <time>2021-06-27T18:40:25.000Z</time>
        <extensions>
          <ns3:TrackPointExtension>
            <ns3:atemp>32.0</ns3:atemp>
            <ns3:hr>81</ns3:hr>
          </ns3:TrackPointExtension>
        </extensions>
      </trkpt>
      <trkpt lat="36.8231351114809513092041015625" lon="-118.3925867266952991485595703125">
        <ele>3833.800048828125</ele>
        <time>2021-06-27T18:40:31.000Z</time>
        <extensions>
          <ns3:TrackPointExtension>
            <ns3:atemp>32.0</ns3:atemp>
            <ns3:hr>79</ns3:hr>
          </ns3:TrackPointExtension>
        </extensions>
      </trkpt>
      <trkpt lat="36.8231344409286975860595703125" lon="-118.3925877325236797332763671875">
        <ele>3832.60009765625</ele>
        <time>2021-06-27T18:40:38.000Z</time>
        <extensions>
          <ns3:TrackPointExtension>
            <ns3:atemp>32.0</ns3:atemp>
            <ns3:hr>80</ns3:hr>
          </ns3:TrackPointExtension>
        </extensions>
      </trkpt>
      <trkpt lat="36.823133938014507293701171875" lon="-118.3925884030759334564208984375">
        <ele>3831.800048828125</ele>
        <time>2021-06-27T18:40:42.000Z</time>
        <extensions>
          <ns3:TrackPointExtension>
            <ns3:atemp>32.0</ns3:atemp>
            <ns3:hr>83</ns3:hr>
          </ns3:TrackPointExtension>
        </extensions>
      </trkpt>
      <trkpt lat="36.82313351891934871673583984375" lon="-118.39258898980915546417236328125">
        <ele>3831.60009765625</ele>
        <time>2021-06-27T18:40:45.000Z</time>
        <extensions>
          <ns3:TrackPointExtension>
            <ns3:atemp>32.0</ns3:atemp>
            <ns3:hr>81</ns3:hr>
          </ns3:TrackPointExtension>
        </extensions>
      </trkpt>
      <trkpt lat="36.82313217781484127044677734375" lon="-118.3925904147326946258544921875">
        <ele>3830.39990234375</ele>
        <time>2021-06-27T18:40:52.000Z</time>
        <extensions>
          <ns3:TrackPointExtension>
            <ns3:atemp>32.0</ns3:atemp>
            <ns3:hr>80</ns3:hr>
          </ns3:TrackPointExtension>
        </extensions>
      </trkpt>
      <trkpt lat="36.823130585253238677978515625" lon="-118.392592258751392364501953125">
        <ele>3830</ele>
        <time>2021-06-27T18:41:00.000Z</time>
        <extensions>
          <ns3:TrackPointExtension>
            <ns3:atemp>32.0</ns3:atemp>
            <ns3:hr>83</ns3:hr>
          </ns3:TrackPointExtension>
        </extensions>
      </trkpt>
      <trkpt lat="36.82312966324388980865478515625" lon="-118.39259326457977294921875">
        <ele>3829.800048828125</ele>
        <time>2021-06-27T18:41:04.000Z</time>
        <extensions>
          <ns3:TrackPointExtension>
            <ns3:atemp>32.0</ns3:atemp>
            <ns3:hr>86</ns3:hr>
          </ns3:TrackPointExtension>
        </extensions>
      </trkpt>
      <trkpt lat="36.8231280706822872161865234375" lon="-118.392594940960407257080078125">
        <ele>3829.199951171875</ele>
        <time>2021-06-27T18:41:10.000Z</time>
        <extensions>
          <ns3:TrackPointExtension>
            <ns3:atemp>32.0</ns3:atemp>
            <ns3:hr>87</ns3:hr>
          </ns3:TrackPointExtension>
        </extensions>
      </trkpt>
      <trkpt lat="36.82312488555908203125" lon="-118.39259854517877101898193359375">
        <ele>3828.199951171875</ele>
        <time>2021-06-27T18:41:22.000Z</time>
        <extensions>
          <ns3:TrackPointExtension>
            <ns3:atemp>32.0</ns3:atemp>
            <ns3:hr>87</ns3:hr>
          </ns3:TrackPointExtension>
        </extensions>
      </trkpt>
      <trkpt lat="36.8231235444545745849609375" lon="-118.3926001377403736114501953125">
        <ele>3826.800048828125</ele>
        <time>2021-06-27T18:41:27.000Z</time>
        <extensions>
          <ns3:TrackPointExtension>
            <ns3:atemp>32.0</ns3:atemp>
            <ns3:hr>88</ns3:hr>
          </ns3:TrackPointExtension>
        </extensions>
      </trkpt>
      <trkpt lat="36.82311893440783023834228515625" lon="-118.3926058374345302581787109375">
        <ele>3826</ele>
        <time>2021-06-27T18:41:44.000Z</time>
        <extensions>
          <ns3:TrackPointExtension>
            <ns3:atemp>32.0</ns3:atemp>
            <ns3:hr>85</ns3:hr>
          </ns3:TrackPointExtension>
        </extensions>
      </trkpt>
      <trkpt lat="36.82311608456075191497802734375" lon="-118.392609693109989166259765625">
        <ele>3826</ele>
        <time>2021-06-27T18:41:54.000Z</time>
        <extensions>
          <ns3:TrackPointExtension>
            <ns3:atemp>32.0</ns3:atemp>
            <ns3:hr>82</ns3:hr>
          </ns3:TrackPointExtension>
        </extensions>
      </trkpt>
      <trkpt lat="36.8231154978275299072265625" lon="-118.392610363662242889404296875">
        <ele>3825.800048828125</ele>
        <time>2021-06-27T18:41:56.000Z</time>
        <extensions>
          <ns3:TrackPointExtension>
            <ns3:atemp>32.0</ns3:atemp>
            <ns3:hr>84</ns3:hr>
          </ns3:TrackPointExtension>
        </extensions>
      </trkpt>
      <trkpt lat="36.82311239652335643768310546875" lon="-118.392614386975765228271484375">
        <ele>3826</ele>
        <time>2021-06-27T18:42:06.000Z</time>
        <extensions>
          <ns3:TrackPointExtension>
            <ns3:atemp>32.0</ns3:atemp>
            <ns3:hr>87</ns3:hr>
          </ns3:TrackPointExtension>
        </extensions>
      </trkpt>
      <trkpt lat="36.82311055250465869903564453125" lon="-118.39261673390865325927734375">
        <ele>3826.39990234375</ele>
        <time>2021-06-27T18:42:12.000Z</time>
        <extensions>
          <ns3:TrackPointExtension>
            <ns3:atemp>32.0</ns3:atemp>
            <ns3:hr>90</ns3:hr>
          </ns3:TrackPointExtension>
        </extensions>
      </trkpt>
      <trkpt lat="36.823108457028865814208984375" lon="-118.3926195837557315826416015625">
        <ele>3827</ele>
        <time>2021-06-27T18:42:19.000Z</time>
        <extensions>
          <ns3:TrackPointExtension>
            <ns3:atemp>32.0</ns3:atemp>
            <ns3:hr>88</ns3:hr>
          </ns3:TrackPointExtension>
        </extensions>
      </trkpt>
      <trkpt lat="36.82310787029564380645751953125" lon="-118.39262033812701702117919921875">
        <ele>3827.199951171875</ele>
        <time>2021-06-27T18:42:21.000Z</time>
        <extensions>
          <ns3:TrackPointExtension>
            <ns3:atemp>32.0</ns3:atemp>
            <ns3:hr>90</ns3:hr>
          </ns3:TrackPointExtension>
        </extensions>
      </trkpt>
      <trkpt lat="36.8231042660772800445556640625" lon="-118.3926252834498882293701171875">
        <ele>3827.199951171875</ele>
        <time>2021-06-27T18:42:33.000Z</time>
        <extensions>
          <ns3:TrackPointExtension>
            <ns3:atemp>31.0</ns3:atemp>
            <ns3:hr>87</ns3:hr>
          </ns3:TrackPointExtension>
        </extensions>
      </trkpt>
      <trkpt lat="36.82310183532536029815673828125" lon="-118.392628468573093414306640625">
        <ele>3826.39990234375</ele>
        <time>2021-06-27T18:42:41.000Z</time>
        <extensions>
          <ns3:TrackPointExtension>
            <ns3:atemp>31.0</ns3:atemp>
            <ns3:hr>84</ns3:hr>
          </ns3:TrackPointExtension>
        </extensions>
      </trkpt>
      <trkpt lat="36.82310007512569427490234375" lon="-118.3926308155059814453125">
        <ele>3826.60009765625</ele>
        <time>2021-06-27T18:42:47.000Z</time>
        <extensions>
          <ns3:TrackPointExtension>
            <ns3:atemp>31.0</ns3:atemp>
            <ns3:hr>81</ns3:hr>
          </ns3:TrackPointExtension>
        </extensions>
      </trkpt>
      <trkpt lat="36.82309814728796482086181640625" lon="-118.392633162438869476318359375">
        <ele>3826</ele>
        <time>2021-06-27T18:42:53.000Z</time>
        <extensions>
          <ns3:TrackPointExtension>
            <ns3:atemp>31.0</ns3:atemp>
            <ns3:hr>81</ns3:hr>
          </ns3:TrackPointExtension>
        </extensions>
      </trkpt>
      <trkpt lat="36.8230972252786159515380859375" lon="-118.39263425208628177642822265625">
        <ele>3825</ele>
        <time>2021-06-27T18:42:56.000Z</time>
        <extensions>
          <ns3:TrackPointExtension>
            <ns3:atemp>31.0</ns3:atemp>
            <ns3:hr>81</ns3:hr>
          </ns3:TrackPointExtension>
        </extensions>
      </trkpt>
      <trkpt lat="36.8230948783457279205322265625" lon="-118.39263676665723323822021484375">
        <ele>3824.199951171875</ele>
        <time>2021-06-27T18:43:03.000Z</time>
        <extensions>
          <ns3:TrackPointExtension>
            <ns3:atemp>31.0</ns3:atemp>
            <ns3:hr>84</ns3:hr>
          </ns3:TrackPointExtension>
        </extensions>
      </trkpt>
      <trkpt lat="36.8230932019650936126708984375" lon="-118.392638526856899261474609375">
        <ele>3823.800048828125</ele>
        <time>2021-06-27T18:43:08.000Z</time>
        <extensions>
          <ns3:TrackPointExtension>
            <ns3:atemp>31.0</ns3:atemp>
            <ns3:hr>84</ns3:hr>
          </ns3:TrackPointExtension>
        </extensions>
      </trkpt>
      <trkpt lat="36.823091022670269012451171875" lon="-118.392640538513660430908203125">
        <ele>3823</ele>
        <time>2021-06-27T18:43:14.000Z</time>
        <extensions>
          <ns3:TrackPointExtension>
            <ns3:atemp>31.0</ns3:atemp>
            <ns3:hr>81</ns3:hr>
          </ns3:TrackPointExtension>
        </extensions>
      </trkpt>
      <trkpt lat="36.82309068739414215087890625" lon="-118.39264095760881900787353515625">
        <ele>3822.60009765625</ele>
        <time>2021-06-27T18:43:15.000Z</time>
        <extensions>
          <ns3:TrackPointExtension>
            <ns3:atemp>31.0</ns3:atemp>
            <ns3:hr>80</ns3:hr>
          </ns3:TrackPointExtension>
        </extensions>
      </trkpt>
      <trkpt lat="36.82308540679514408111572265625" lon="-118.3926464058458805084228515625">
        <ele>3822.199951171875</ele>
        <time>2021-06-27T18:43:29.000Z</time>
        <extensions>
          <ns3:TrackPointExtension>
            <ns3:atemp>31.0</ns3:atemp>
            <ns3:hr>83</ns3:hr>
          </ns3:TrackPointExtension>
        </extensions>
      </trkpt>
      <trkpt lat="36.823084317147731781005859375" lon="-118.39264766313135623931884765625">
        <ele>3822.199951171875</ele>
        <time>2021-06-27T18:43:32.000Z</time>
        <extensions>
          <ns3:TrackPointExtension>
            <ns3:atemp>31.0</ns3:atemp>
            <ns3:hr>86</ns3:hr>
          </ns3:TrackPointExtension>
        </extensions>
      </trkpt>
      <trkpt lat="36.8230831436812877655029296875" lon="-118.39264900423586368560791015625">
        <ele>3822.199951171875</ele>
        <time>2021-06-27T18:43:35.000Z</time>
        <extensions>
          <ns3:TrackPointExtension>
            <ns3:atemp>31.0</ns3:atemp>
            <ns3:hr>89</ns3:hr>
          </ns3:TrackPointExtension>
        </extensions>
      </trkpt>
      <trkpt lat="36.82308205403387546539306640625" lon="-118.39265026152133941650390625">
        <ele>3822.39990234375</ele>
        <time>2021-06-27T18:43:38.000Z</time>
        <extensions>
          <ns3:TrackPointExtension>
            <ns3:atemp>31.0</ns3:atemp>
            <ns3:hr>92</ns3:hr>
          </ns3:TrackPointExtension>
        </extensions>
      </trkpt>
      <trkpt lat="36.823080964386463165283203125" lon="-118.39265160262584686279296875">
        <ele>3823</ele>
        <time>2021-06-27T18:43:41.000Z</time>
        <extensions>
          <ns3:TrackPointExtension>
            <ns3:atemp>31.0</ns3:atemp>
            <ns3:hr>95</ns3:hr>
          </ns3:TrackPointExtension>
        </extensions>
      </trkpt>
      <trkpt lat="36.82307920418679714202880859375" lon="-118.39265369810163974761962890625">
        <ele>3822.800048828125</ele>
        <time>2021-06-27T18:43:46.000Z</time>
        <extensions>
          <ns3:TrackPointExtension>
            <ns3:atemp>31.0</ns3:atemp>
            <ns3:hr>99</ns3:hr>
          </ns3:TrackPointExtension>
        </extensions>
      </trkpt>
      <trkpt lat="36.82307752780616283416748046875" lon="-118.3926557935774326324462890625">
        <ele>3822.800048828125</ele>
        <time>2021-06-27T18:43:51.000Z</time>
        <extensions>
          <ns3:TrackPointExtension>
            <ns3:atemp>31.0</ns3:atemp>
            <ns3:hr>102</ns3:hr>
          </ns3:TrackPointExtension>
        </extensions>
      </trkpt>
      <trkpt lat="36.82307618670165538787841796875" lon="-118.3926574699580669403076171875">
        <ele>3822.800048828125</ele>
        <time>2021-06-27T18:43:55.000Z</time>
        <extensions>
          <ns3:TrackPointExtension>
            <ns3:atemp>31.0</ns3:atemp>
            <ns3:hr>99</ns3:hr>
          </ns3:TrackPointExtension>
        </extensions>
      </trkpt>
      <trkpt lat="36.823070235550403594970703125" lon="-118.39266459457576274871826171875">
        <ele>3822</ele>
        <time>2021-06-27T18:44:13.000Z</time>
        <extensions>
          <ns3:TrackPointExtension>
            <ns3:atemp>31.0</ns3:atemp>
            <ns3:hr>101</ns3:hr>
          </ns3:TrackPointExtension>
        </extensions>
      </trkpt>
      <trkpt lat="36.82306914590299129486083984375" lon="-118.39266576804220676422119140625">
        <ele>3821.39990234375</ele>
        <time>2021-06-27T18:44:16.000Z</time>
        <extensions>
          <ns3:TrackPointExtension>
            <ns3:atemp>31.0</ns3:atemp>
            <ns3:hr>101</ns3:hr>
          </ns3:TrackPointExtension>
        </extensions>
      </trkpt>
      <trkpt lat="36.82306629605591297149658203125" lon="-118.3926688693463802337646484375">
        <ele>3820.39990234375</ele>
        <time>2021-06-27T18:44:24.000Z</time>
        <extensions>
          <ns3:TrackPointExtension>
            <ns3:atemp>31.0</ns3:atemp>
            <ns3:hr>99</ns3:hr>
          </ns3:TrackPointExtension>
        </extensions>
      </trkpt>
      <trkpt lat="36.823064200580120086669921875" lon="-118.39267146773636341094970703125">
        <ele>3820.39990234375</ele>
        <time>2021-06-27T18:44:30.000Z</time>
        <extensions>
          <ns3:TrackPointExtension>
            <ns3:atemp>31.0</ns3:atemp>
            <ns3:hr>96</ns3:hr>
          </ns3:TrackPointExtension>
        </extensions>
      </trkpt>
      <trkpt lat="36.8230610154569149017333984375" lon="-118.39267574250698089599609375">
        <ele>3819.39990234375</ele>
        <time>2021-06-27T18:44:39.000Z</time>
        <extensions>
          <ns3:TrackPointExtension>
            <ns3:atemp>31.0</ns3:atemp>
            <ns3:hr>94</ns3:hr>
          </ns3:TrackPointExtension>
        </extensions>
      </trkpt>
      <trkpt lat="36.82305959053337574005126953125" lon="-118.39267767034471035003662109375">
        <ele>3818.199951171875</ele>
        <time>2021-06-27T18:44:43.000Z</time>
        <extensions>
          <ns3:TrackPointExtension>
            <ns3:atemp>31.0</ns3:atemp>
            <ns3:hr>92</ns3:hr>
          </ns3:TrackPointExtension>
        </extensions>
      </trkpt>
      <trkpt lat="36.823056153953075408935546875" lon="-118.39268269948661327362060546875">
        <ele>3818.199951171875</ele>
        <time>2021-06-27T18:44:53.000Z</time>
        <extensions>
          <ns3:TrackPointExtension>
            <ns3:atemp>31.0</ns3:atemp>
            <ns3:hr>89</ns3:hr>
          </ns3:TrackPointExtension>
        </extensions>
      </trkpt>
      <trkpt lat="36.8230511248111724853515625" lon="-118.3926909975707530975341796875">
        <ele>3818.199951171875</ele>
        <time>2021-06-27T18:45:09.000Z</time>
        <extensions>
          <ns3:TrackPointExtension>
            <ns3:atemp>31.0</ns3:atemp>
            <ns3:hr>92</ns3:hr>
          </ns3:TrackPointExtension>
        </extensions>
      </trkpt>
      <trkpt lat="36.823047101497650146484375" lon="-118.39269778691232204437255859375">
        <ele>3817.60009765625</ele>
        <time>2021-06-27T18:45:23.000Z</time>
        <extensions>
          <ns3:TrackPointExtension>
            <ns3:atemp>31.0</ns3:atemp>
            <ns3:hr>89</ns3:hr>
          </ns3:TrackPointExtension>
        </extensions>
      </trkpt>
      <trkpt lat="36.8230462633073329925537109375" lon="-118.3926992118358612060546875">
        <ele>3817.60009765625</ele>
        <time>2021-06-27T18:45:26.000Z</time>
        <extensions>
          <ns3:TrackPointExtension>
            <ns3:atemp>31.0</ns3:atemp>
            <ns3:hr>88</ns3:hr>
          </ns3:TrackPointExtension>
        </extensions>
      </trkpt>
      <trkpt lat="36.82304567657411098480224609375" lon="-118.392700217664241790771484375">
        <ele>3817.60009765625</ele>
        <time>2021-06-27T18:45:28.000Z</time>
        <extensions>
          <ns3:TrackPointExtension>
            <ns3:atemp>32.0</ns3:atemp>
            <ns3:hr>85</ns3:hr>
          </ns3:TrackPointExtension>
        </extensions>
      </trkpt>
      <trkpt lat="36.8230422399938106536865234375" lon="-118.39270616881549358367919921875">
        <ele>3817.800048828125</ele>
        <time>2021-06-27T18:45:41.000Z</time>
        <extensions>
          <ns3:TrackPointExtension>
            <ns3:atemp>32.0</ns3:atemp>
            <ns3:hr>88</ns3:hr>
          </ns3:TrackPointExtension>
        </extensions>
      </trkpt>
      <trkpt lat="36.8230351991951465606689453125" lon="-118.3927184902131557464599609375">
        <ele>3818.199951171875</ele>
        <time>2021-06-27T18:46:09.000Z</time>
        <extensions>
          <ns3:TrackPointExtension>
            <ns3:atemp>32.0</ns3:atemp>
            <ns3:hr>91</ns3:hr>
          </ns3:TrackPointExtension>
        </extensions>
      </trkpt>
      <trkpt lat="36.823029331862926483154296875" lon="-118.39272796176373958587646484375">
        <ele>3818.39990234375</ele>
        <time>2021-06-27T18:46:33.000Z</time>
        <extensions>
          <ns3:TrackPointExtension>
            <ns3:atemp>31.0</ns3:atemp>
            <ns3:hr>94</ns3:hr>
          </ns3:TrackPointExtension>
        </extensions>
      </trkpt>
      <trkpt lat="36.82302388362586498260498046875" lon="-118.392735756933689117431640625">
        <ele>3818.39990234375</ele>
        <time>2021-06-27T18:46:53.000Z</time>
        <extensions>
          <ns3:TrackPointExtension>
            <ns3:atemp>31.0</ns3:atemp>
            <ns3:hr>91</ns3:hr>
          </ns3:TrackPointExtension>
        </extensions>
      </trkpt>
      <trkpt lat="36.82301784865558147430419921875" lon="-118.3927448093891143798828125">
        <ele>3818.39990234375</ele>
        <time>2021-06-27T18:47:12.000Z</time>
        <extensions>
          <ns3:TrackPointExtension>
            <ns3:atemp>31.0</ns3:atemp>
            <ns3:hr>94</ns3:hr>
          </ns3:TrackPointExtension>
        </extensions>
      </trkpt>
      <trkpt lat="36.82301684282720088958740234375" lon="-118.39274640195071697235107421875">
        <ele>3818.39990234375</ele>
        <time>2021-06-27T18:47:15.000Z</time>
        <extensions>
          <ns3:TrackPointExtension>
            <ns3:atemp>31.0</ns3:atemp>
            <ns3:hr>97</ns3:hr>
          </ns3:TrackPointExtension>
        </extensions>
      </trkpt>
      <trkpt lat="36.8230134062469005584716796875" lon="-118.3927520178258419036865234375">
        <ele>3812.39990234375</ele>
        <time>2021-06-27T18:47:25.000Z</time>
        <extensions>
          <ns3:TrackPointExtension>
            <ns3:atemp>31.0</ns3:atemp>
            <ns3:hr>98</ns3:hr>
          </ns3:TrackPointExtension>
        </extensions>
      </trkpt>
      <trkpt lat="36.82301114313304424285888671875" lon="-118.3927560411393642425537109375">
        <ele>3812.199951171875</ele>
        <time>2021-06-27T18:47:32.000Z</time>
        <extensions>
          <ns3:TrackPointExtension>
            <ns3:atemp>31.0</ns3:atemp>
            <ns3:hr>95</ns3:hr>
          </ns3:TrackPointExtension>
        </extensions>
      </trkpt>
      <trkpt lat="36.823010556399822235107421875" lon="-118.39275713078677654266357421875">
        <ele>3812.199951171875</ele>
        <time>2021-06-27T18:47:34.000Z</time>
        <extensions>
          <ns3:TrackPointExtension>
            <ns3:atemp>31.0</ns3:atemp>
            <ns3:hr>92</ns3:hr>
          </ns3:TrackPointExtension>
        </extensions>
      </trkpt>
      <trkpt lat="36.8230093829333782196044921875" lon="-118.39275947771966457366943359375">
        <ele>3812.39990234375</ele>
        <time>2021-06-27T18:47:38.000Z</time>
        <extensions>
          <ns3:TrackPointExtension>
            <ns3:atemp>31.0</ns3:atemp>
            <ns3:hr>89</ns3:hr>
          </ns3:TrackPointExtension>
        </extensions>
      </trkpt>
      <trkpt lat="36.82300745509564876556396484375" lon="-118.3927634172141551971435546875">
        <ele>3812.800048828125</ele>
        <time>2021-06-27T18:47:45.000Z</time>
        <extensions>
          <ns3:TrackPointExtension>
            <ns3:atemp>31.0</ns3:atemp>
            <ns3:hr>86</ns3:hr>
          </ns3:TrackPointExtension>
        </extensions>
      </trkpt>
      <trkpt lat="36.8230067007243633270263671875" lon="-118.3927650935947895050048828125">
        <ele>3812.800048828125</ele>
        <time>2021-06-27T18:47:48.000Z</time>
        <extensions>
          <ns3:TrackPointExtension>
            <ns3:atemp>31.0</ns3:atemp>
            <ns3:hr>83</ns3:hr>
          </ns3:TrackPointExtension>
        </extensions>
      </trkpt>
      <trkpt lat="36.8230060301721096038818359375" lon="-118.3927667699754238128662109375">
        <ele>3812.800048828125</ele>
        <time>2021-06-27T18:47:51.000Z</time>
        <extensions>
          <ns3:TrackPointExtension>
            <ns3:atemp>31.0</ns3:atemp>
            <ns3:hr>80</ns3:hr>
          </ns3:TrackPointExtension>
        </extensions>
      </trkpt>
      <trkpt lat="36.82300292886793613433837890625" lon="-118.3927744813263416290283203125">
        <ele>3811.60009765625</ele>
        <time>2021-06-27T18:48:05.000Z</time>
        <extensions>
          <ns3:TrackPointExtension>
            <ns3:atemp>30.0</ns3:atemp>
            <ns3:hr>78</ns3:hr>
          </ns3:TrackPointExtension>
        </extensions>
      </trkpt>
      <trkpt lat="36.82300209067761898040771484375" lon="-118.39277674444019794464111328125">
        <ele>3811.39990234375</ele>
        <time>2021-06-27T18:48:09.000Z</time>
        <extensions>
          <ns3:TrackPointExtension>
            <ns3:atemp>30.0</ns3:atemp>
            <ns3:hr>79</ns3:hr>
          </ns3:TrackPointExtension>
        </extensions>
      </trkpt>
      <trkpt lat="36.823000498116016387939453125" lon="-118.39278143830597400665283203125">
        <ele>3810.800048828125</ele>
        <time>2021-06-27T18:48:17.000Z</time>
        <extensions>
          <ns3:TrackPointExtension>
            <ns3:atemp>30.0</ns3:atemp>
            <ns3:hr>82</ns3:hr>
          </ns3:TrackPointExtension>
        </extensions>
      </trkpt>
      <trkpt lat="36.82299924083054065704345703125" lon="-118.39278495870530605316162109375">
        <ele>3811</ele>
        <time>2021-06-27T18:48:23.000Z</time>
        <extensions>
          <ns3:TrackPointExtension>
            <ns3:atemp>30.0</ns3:atemp>
            <ns3:hr>82</ns3:hr>
          </ns3:TrackPointExtension>
        </extensions>
      </trkpt>
      <trkpt lat="36.82299789972603321075439453125" lon="-118.392789401113986968994140625">
        <ele>3810.39990234375</ele>
        <time>2021-06-27T18:48:30.000Z</time>
        <extensions>
          <ns3:TrackPointExtension>
            <ns3:atemp>30.0</ns3:atemp>
            <ns3:hr>79</ns3:hr>
          </ns3:TrackPointExtension>
        </extensions>
      </trkpt>
      <trkpt lat="36.8229973129928112030029296875" lon="-118.392791412770748138427734375">
        <ele>3810.39990234375</ele>
        <time>2021-06-27T18:48:33.000Z</time>
        <extensions>
          <ns3:TrackPointExtension>
            <ns3:atemp>30.0</ns3:atemp>
            <ns3:hr>81</ns3:hr>
          </ns3:TrackPointExtension>
        </extensions>
      </trkpt>
      <trkpt lat="36.82299605570733547210693359375" lon="-118.392796106636524200439453125">
        <ele>3809.199951171875</ele>
        <time>2021-06-27T18:48:40.000Z</time>
        <extensions>
          <ns3:TrackPointExtension>
            <ns3:atemp>30.0</ns3:atemp>
            <ns3:hr>84</ns3:hr>
          </ns3:TrackPointExtension>
        </extensions>
      </trkpt>
      <trkpt lat="36.8229946307837963104248046875" lon="-118.3928016386926174163818359375">
        <ele>3807.800048828125</ele>
        <time>2021-06-27T18:48:48.000Z</time>
        <extensions>
          <ns3:TrackPointExtension>
            <ns3:atemp>30.0</ns3:atemp>
            <ns3:hr>84</ns3:hr>
          </ns3:TrackPointExtension>
        </extensions>
      </trkpt>
      <trkpt lat="36.82299320586025714874267578125" lon="-118.3928080089390277862548828125">
        <ele>3807.60009765625</ele>
        <time>2021-06-27T18:48:57.000Z</time>
        <extensions>
          <ns3:TrackPointExtension>
            <ns3:atemp>30.0</ns3:atemp>
            <ns3:hr>87</ns3:hr>
          </ns3:TrackPointExtension>
        </extensions>
      </trkpt>
      <trkpt lat="36.82299236766993999481201171875" lon="-118.39281161315739154815673828125">
        <ele>3807.39990234375</ele>
        <time>2021-06-27T18:49:02.000Z</time>
        <extensions>
          <ns3:TrackPointExtension>
            <ns3:atemp>30.0</ns3:atemp>
            <ns3:hr>90</ns3:hr>
          </ns3:TrackPointExtension>
        </extensions>
      </trkpt>
      <trkpt lat="36.8229916132986545562744140625" lon="-118.39281521737575531005859375">
        <ele>3807.39990234375</ele>
        <time>2021-06-27T18:49:07.000Z</time>
        <extensions>
          <ns3:TrackPointExtension>
            <ns3:atemp>30.0</ns3:atemp>
            <ns3:hr>87</ns3:hr>
          </ns3:TrackPointExtension>
        </extensions>
      </trkpt>
      <trkpt lat="36.82299144566059112548828125" lon="-118.39281597174704074859619140625">
        <ele>3806.60009765625</ele>
        <time>2021-06-27T18:49:08.000Z</time>
        <extensions>
          <ns3:TrackPointExtension>
            <ns3:atemp>30.0</ns3:atemp>
            <ns3:hr>89</ns3:hr>
          </ns3:TrackPointExtension>
        </extensions>
      </trkpt>
      <trkpt lat="36.82299077510833740234375" lon="-118.39281882159411907196044921875">
        <ele>3806.60009765625</ele>
        <time>2021-06-27T18:49:12.000Z</time>
        <extensions>
          <ns3:TrackPointExtension>
            <ns3:atemp>30.0</ns3:atemp>
            <ns3:hr>92</ns3:hr>
          </ns3:TrackPointExtension>
        </extensions>
      </trkpt>
      <trkpt lat="36.82299018837511539459228515625" lon="-118.39282100088894367218017578125">
        <ele>3806.60009765625</ele>
        <time>2021-06-27T18:49:15.000Z</time>
        <extensions>
          <ns3:TrackPointExtension>
            <ns3:atemp>30.0</ns3:atemp>
            <ns3:hr>95</ns3:hr>
          </ns3:TrackPointExtension>
        </extensions>
      </trkpt>
      <trkpt lat="36.82298985309898853302001953125" lon="-118.3928224258124828338623046875">
        <ele>3806.60009765625</ele>
        <time>2021-06-27T18:49:17.000Z</time>
        <extensions>
          <ns3:TrackPointExtension>
            <ns3:atemp>30.0</ns3:atemp>
            <ns3:hr>92</ns3:hr>
          </ns3:TrackPointExtension>
        </extensions>
      </trkpt>
      <trkpt lat="36.822989098727703094482421875" lon="-118.3928252756595611572265625">
        <ele>3806.800048828125</ele>
        <time>2021-06-27T18:49:21.000Z</time>
        <extensions>
          <ns3:TrackPointExtension>
            <ns3:atemp>30.0</ns3:atemp>
            <ns3:hr>95</ns3:hr>
          </ns3:TrackPointExtension>
        </extensions>
      </trkpt>
      <trkpt lat="36.822986416518688201904296875" lon="-118.39283508248627185821533203125">
        <ele>3805.800048828125</ele>
        <time>2021-06-27T18:49:35.000Z</time>
        <extensions>
          <ns3:TrackPointExtension>
            <ns3:atemp>30.0</ns3:atemp>
            <ns3:hr>98</ns3:hr>
          </ns3:TrackPointExtension>
        </extensions>
      </trkpt>
      <trkpt lat="36.82298608124256134033203125" lon="-118.39283642359077930450439453125">
        <ele>3805</ele>
        <time>2021-06-27T18:49:37.000Z</time>
        <extensions>
          <ns3:TrackPointExtension>
            <ns3:atemp>30.0</ns3:atemp>
            <ns3:hr>99</ns3:hr>
          </ns3:TrackPointExtension>
        </extensions>
      </trkpt>
      <trkpt lat="36.8229698203504085540771484375" lon="-118.39288872666656970977783203125">
        <ele>3803.800048828125</ele>
        <time>2021-06-27T18:49:45.000Z</time>
        <extensions>
          <ns3:TrackPointExtension>
            <ns3:atemp>30.0</ns3:atemp>
            <ns3:hr>98</ns3:hr>
          </ns3:TrackPointExtension>
        </extensions>
      </trkpt>
      <trkpt lat="36.82291223667562007904052734375" lon="-118.39307681657373905181884765625">
        <ele>3803</ele>
        <time>2021-06-27T18:49:51.000Z</time>
        <extensions>
          <ns3:TrackPointExtension>
            <ns3:atemp>30.0</ns3:atemp>
            <ns3:hr>95</ns3:hr>
          </ns3:TrackPointExtension>
        </extensions>
      </trkpt>
      <trkpt lat="36.8228715844452381134033203125" lon="-118.393178991973400115966796875">
        <ele>3802.800048828125</ele>
        <time>2021-06-27T18:49:54.000Z</time>
        <extensions>
          <ns3:TrackPointExtension>
            <ns3:atemp>30.0</ns3:atemp>
            <ns3:hr>94</ns3:hr>
          </ns3:TrackPointExtension>
        </extensions>
      </trkpt>
      <trkpt lat="36.8228544853627681732177734375" lon="-118.39321645908057689666748046875">
        <ele>3802.199951171875</ele>
        <time>2021-06-27T18:49:55.000Z</time>
        <extensions>
          <ns3:TrackPointExtension>
            <ns3:atemp>30.0</ns3:atemp>
            <ns3:hr>94</ns3:hr>
          </ns3:TrackPointExtension>
        </extensions>
      </trkpt>
      <trkpt lat="36.822807379066944122314453125" lon="-118.39331653900444507598876953125">
        <ele>3801.39990234375</ele>
        <time>2021-06-27T18:50:02.000Z</time>
        <extensions>
          <ns3:TrackPointExtension>
            <ns3:atemp>30.0</ns3:atemp>
            <ns3:hr>92</ns3:hr>
          </ns3:TrackPointExtension>
        </extensions>
      </trkpt>
      <trkpt lat="36.82280234992504119873046875" lon="-118.39331813156604766845703125">
        <ele>3801.199951171875</ele>
        <time>2021-06-27T18:50:04.000Z</time>
        <extensions>
          <ns3:TrackPointExtension>
            <ns3:atemp>30.0</ns3:atemp>
            <ns3:hr>92</ns3:hr>
          </ns3:TrackPointExtension>
        </extensions>
      </trkpt>
      <trkpt lat="36.82280075736343860626220703125" lon="-118.39331947267055511474609375">
        <ele>3800.199951171875</ele>
        <time>2021-06-27T18:50:07.000Z</time>
        <extensions>
          <ns3:TrackPointExtension>
            <ns3:atemp>30.0</ns3:atemp>
            <ns3:hr>88</ns3:hr>
          </ns3:TrackPointExtension>
        </extensions>
      </trkpt>
      <trkpt lat="36.82280075736343860626220703125" lon="-118.39331947267055511474609375">
        <ele>3799.39990234375</ele>
        <time>2021-06-27T18:50:11.000Z</time>
        <extensions>
          <ns3:TrackPointExtension>
            <ns3:atemp>30.0</ns3:atemp>
            <ns3:hr>85</ns3:hr>
          </ns3:TrackPointExtension>
        </extensions>
      </trkpt>
      <trkpt lat="36.82280075736343860626220703125" lon="-118.39331947267055511474609375">
        <ele>3799</ele>
        <time>2021-06-27T18:50:12.000Z</time>
        <extensions>
          <ns3:TrackPointExtension>
            <ns3:atemp>30.0</ns3:atemp>
            <ns3:hr>85</ns3:hr>
          </ns3:TrackPointExtension>
        </extensions>
      </trkpt>
      <trkpt lat="36.82280075736343860626220703125" lon="-118.39331947267055511474609375">
        <ele>3798.60009765625</ele>
        <time>2021-06-27T18:50:15.000Z</time>
        <extensions>
          <ns3:TrackPointExtension>
            <ns3:atemp>30.0</ns3:atemp>
            <ns3:hr>85</ns3:hr>
          </ns3:TrackPointExtension>
        </extensions>
      </trkpt>
      <trkpt lat="36.82279924862086772918701171875" lon="-118.39331947267055511474609375">
        <ele>3797.60009765625</ele>
        <time>2021-06-27T18:50:21.000Z</time>
        <extensions>
          <ns3:TrackPointExtension>
            <ns3:atemp>30.0</ns3:atemp>
            <ns3:hr>87</ns3:hr>
          </ns3:TrackPointExtension>
        </extensions>
      </trkpt>
      <trkpt lat="36.8227874301373958587646484375" lon="-118.393326513469219207763671875">
        <ele>3797.39990234375</ele>
        <time>2021-06-27T18:50:30.000Z</time>
        <extensions>
          <ns3:TrackPointExtension>
            <ns3:atemp>30.0</ns3:atemp>
            <ns3:hr>88</ns3:hr>
          </ns3:TrackPointExtension>
        </extensions>
      </trkpt>
      <trkpt lat="36.8227827362716197967529296875" lon="-118.39333422482013702392578125">
        <ele>3797.39990234375</ele>
        <time>2021-06-27T18:50:34.000Z</time>
        <extensions>
          <ns3:TrackPointExtension>
            <ns3:atemp>30.0</ns3:atemp>
            <ns3:hr>85</ns3:hr>
          </ns3:TrackPointExtension>
        </extensions>
      </trkpt>
      <trkpt lat="36.8227803893387317657470703125" lon="-118.39333824813365936279296875">
        <ele>3797.199951171875</ele>
        <time>2021-06-27T18:50:45.000Z</time>
        <extensions>
          <ns3:TrackPointExtension>
            <ns3:atemp>31.0</ns3:atemp>
            <ns3:hr>88</ns3:hr>
          </ns3:TrackPointExtension>
        </extensions>
      </trkpt>
      <trkpt lat="36.8227803893387317657470703125" lon="-118.39333967305719852447509765625">
        <ele>3797.199951171875</ele>
        <time>2021-06-27T18:50:49.000Z</time>
        <extensions>
          <ns3:TrackPointExtension>
            <ns3:atemp>31.0</ns3:atemp>
            <ns3:hr>91</ns3:hr>
          </ns3:TrackPointExtension>
        </extensions>
      </trkpt>
      <trkpt lat="36.82277980260550975799560546875" lon="-118.39333950541913509368896484375">
        <ele>3797</ele>
        <time>2021-06-27T18:50:56.000Z</time>
        <extensions>
          <ns3:TrackPointExtension>
            <ns3:atemp>31.0</ns3:atemp>
            <ns3:hr>88</ns3:hr>
          </ns3:TrackPointExtension>
        </extensions>
      </trkpt>
      <trkpt lat="36.8227763660252094268798828125" lon="-118.39334771968424320220947265625">
        <ele>3796.39990234375</ele>
        <time>2021-06-27T18:51:06.000Z</time>
        <extensions>
          <ns3:TrackPointExtension>
            <ns3:atemp>31.0</ns3:atemp>
            <ns3:hr>85</ns3:hr>
          </ns3:TrackPointExtension>
        </extensions>
      </trkpt>
      <trkpt lat="36.8227703310549259185791015625" lon="-118.39334939606487751007080078125">
        <ele>3796</ele>
        <time>2021-06-27T18:51:09.000Z</time>
        <extensions>
          <ns3:TrackPointExtension>
            <ns3:atemp>31.0</ns3:atemp>
            <ns3:hr>89</ns3:hr>
          </ns3:TrackPointExtension>
        </extensions>
      </trkpt>
      <trkpt lat="36.8227694928646087646484375" lon="-118.393349982798099517822265625">
        <ele>3796</ele>
        <time>2021-06-27T18:51:10.000Z</time>
        <extensions>
          <ns3:TrackPointExtension>
            <ns3:atemp>31.0</ns3:atemp>
            <ns3:hr>92</ns3:hr>
          </ns3:TrackPointExtension>
        </extensions>
      </trkpt>
      <trkpt lat="36.82276773266494274139404296875" lon="-118.39335124008357524871826171875">
        <ele>3796</ele>
        <time>2021-06-27T18:51:11.000Z</time>
        <extensions>
          <ns3:TrackPointExtension>
            <ns3:atemp>31.0</ns3:atemp>
            <ns3:hr>96</ns3:hr>
          </ns3:TrackPointExtension>
        </extensions>
      </trkpt>
      <trkpt lat="36.8227653019130229949951171875" lon="-118.39335274882614612579345703125">
        <ele>3795.800048828125</ele>
        <time>2021-06-27T18:51:12.000Z</time>
        <extensions>
          <ns3:TrackPointExtension>
            <ns3:atemp>31.0</ns3:atemp>
            <ns3:hr>99</ns3:hr>
          </ns3:TrackPointExtension>
        </extensions>
      </trkpt>
      <trkpt lat="36.8227639608085155487060546875" lon="-118.39335501194000244140625">
        <ele>3795.39990234375</ele>
        <time>2021-06-27T18:51:14.000Z</time>
        <extensions>
          <ns3:TrackPointExtension>
            <ns3:atemp>31.0</ns3:atemp>
            <ns3:hr>103</ns3:hr>
          </ns3:TrackPointExtension>
        </extensions>
      </trkpt>
      <trkpt lat="36.82276337407529354095458984375" lon="-118.39336163364350795745849609375">
        <ele>3794.800048828125</ele>
        <time>2021-06-27T18:51:17.000Z</time>
        <extensions>
          <ns3:TrackPointExtension>
            <ns3:atemp>31.0</ns3:atemp>
            <ns3:hr>100</ns3:hr>
          </ns3:TrackPointExtension>
        </extensions>
      </trkpt>
      <trkpt lat="36.82276270352303981781005859375" lon="-118.39336833916604518890380859375">
        <ele>3794.60009765625</ele>
        <time>2021-06-27T18:51:20.000Z</time>
        <extensions>
          <ns3:TrackPointExtension>
            <ns3:atemp>31.0</ns3:atemp>
            <ns3:hr>97</ns3:hr>
          </ns3:TrackPointExtension>
        </extensions>
      </trkpt>
      <trkpt lat="36.822762452065944671630859375" lon="-118.393371105194091796875">
        <ele>3794.39990234375</ele>
        <time>2021-06-27T18:51:21.000Z</time>
        <extensions>
          <ns3:TrackPointExtension>
            <ns3:atemp>31.0</ns3:atemp>
            <ns3:hr>97</ns3:hr>
          </ns3:TrackPointExtension>
        </extensions>
      </trkpt>
      <trkpt lat="36.82276018895208835601806640625" lon="-118.39338694699108600616455078125">
        <ele>3793.60009765625</ele>
        <time>2021-06-27T18:51:27.000Z</time>
        <extensions>
          <ns3:TrackPointExtension>
            <ns3:atemp>31.0</ns3:atemp>
            <ns3:hr>94</ns3:hr>
          </ns3:TrackPointExtension>
        </extensions>
      </trkpt>
      <trkpt lat="36.82275935076177120208740234375" lon="-118.39338845573365688323974609375">
        <ele>3793.39990234375</ele>
        <time>2021-06-27T18:51:31.000Z</time>
        <extensions>
          <ns3:TrackPointExtension>
            <ns3:atemp>31.0</ns3:atemp>
            <ns3:hr>97</ns3:hr>
          </ns3:TrackPointExtension>
        </extensions>
      </trkpt>
      <trkpt lat="36.82275415398180484771728515625" lon="-118.39338962920010089874267578125">
        <ele>3793.39990234375</ele>
        <time>2021-06-27T18:51:33.000Z</time>
        <extensions>
          <ns3:TrackPointExtension>
            <ns3:atemp>31.0</ns3:atemp>
            <ns3:hr>100</ns3:hr>
          </ns3:TrackPointExtension>
        </extensions>
      </trkpt>
      <trkpt lat="36.82275230996310710906982421875" lon="-118.39339029975235462188720703125">
        <ele>3792.800048828125</ele>
        <time>2021-06-27T18:51:34.000Z</time>
        <extensions>
          <ns3:TrackPointExtension>
            <ns3:atemp>31.0</ns3:atemp>
            <ns3:hr>100</ns3:hr>
          </ns3:TrackPointExtension>
        </extensions>
      </trkpt>
      <trkpt lat="36.8227453529834747314453125" lon="-118.39339348487555980682373046875">
        <ele>3792.60009765625</ele>
        <time>2021-06-27T18:51:40.000Z</time>
        <extensions>
          <ns3:TrackPointExtension>
            <ns3:atemp>31.0</ns3:atemp>
            <ns3:hr>97</ns3:hr>
          </ns3:TrackPointExtension>
        </extensions>
      </trkpt>
      <trkpt lat="36.82274510152637958526611328125" lon="-118.39343824423849582672119140625">
        <ele>3792.800048828125</ele>
        <time>2021-06-27T18:51:48.000Z</time>
        <extensions>
          <ns3:TrackPointExtension>
            <ns3:atemp>30.0</ns3:atemp>
            <ns3:hr>100</ns3:hr>
          </ns3:TrackPointExtension>
        </extensions>
      </trkpt>
      <trkpt lat="36.82274661026895046234130859375" lon="-118.393444530665874481201171875">
        <ele>3792</ele>
        <time>2021-06-27T18:52:05.000Z</time>
        <extensions>
          <ns3:TrackPointExtension>
            <ns3:atemp>30.0</ns3:atemp>
            <ns3:hr>97</ns3:hr>
          </ns3:TrackPointExtension>
        </extensions>
      </trkpt>
      <trkpt lat="36.82274661026895046234130859375" lon="-118.39344494976103305816650390625">
        <ele>3791.60009765625</ele>
        <time>2021-06-27T18:52:07.000Z</time>
        <extensions>
          <ns3:TrackPointExtension>
            <ns3:atemp>30.0</ns3:atemp>
            <ns3:hr>97</ns3:hr>
          </ns3:TrackPointExtension>
        </extensions>
      </trkpt>
      <trkpt lat="36.82274510152637958526611328125" lon="-118.39344662614166736602783203125">
        <ele>3791</ele>
        <time>2021-06-27T18:52:12.000Z</time>
        <extensions>
          <ns3:TrackPointExtension>
            <ns3:atemp>30.0</ns3:atemp>
            <ns3:hr>100</ns3:hr>
          </ns3:TrackPointExtension>
        </extensions>
      </trkpt>
      <trkpt lat="36.82274401187896728515625" lon="-118.39344687759876251220703125">
        <ele>3790.60009765625</ele>
        <time>2021-06-27T18:52:14.000Z</time>
        <extensions>
          <ns3:TrackPointExtension>
            <ns3:atemp>30.0</ns3:atemp>
            <ns3:hr>100</ns3:hr>
          </ns3:TrackPointExtension>
        </extensions>
      </trkpt>
      <trkpt lat="36.82273252867162227630615234375" lon="-118.393455930054187774658203125">
        <ele>3789.39990234375</ele>
        <time>2021-06-27T18:52:22.000Z</time>
        <extensions>
          <ns3:TrackPointExtension>
            <ns3:atemp>30.0</ns3:atemp>
            <ns3:hr>101</ns3:hr>
          </ns3:TrackPointExtension>
        </extensions>
      </trkpt>
      <trkpt lat="36.8227294273674488067626953125" lon="-118.3934574387967586517333984375">
        <ele>3789.199951171875</ele>
        <time>2021-06-27T18:52:24.000Z</time>
        <extensions>
          <ns3:TrackPointExtension>
            <ns3:atemp>30.0</ns3:atemp>
            <ns3:hr>98</ns3:hr>
          </ns3:TrackPointExtension>
        </extensions>
      </trkpt>
      <trkpt lat="36.82271777652204036712646484375" lon="-118.39346121065318584442138671875">
        <ele>3788.800048828125</ele>
        <time>2021-06-27T18:52:29.000Z</time>
        <extensions>
          <ns3:TrackPointExtension>
            <ns3:atemp>30.0</ns3:atemp>
            <ns3:hr>97</ns3:hr>
          </ns3:TrackPointExtension>
        </extensions>
      </trkpt>
      <trkpt lat="36.82270579040050506591796875" lon="-118.39348736219108104705810546875">
        <ele>3788.60009765625</ele>
        <time>2021-06-27T18:52:37.000Z</time>
        <extensions>
          <ns3:TrackPointExtension>
            <ns3:atemp>30.0</ns3:atemp>
            <ns3:hr>94</ns3:hr>
          </ns3:TrackPointExtension>
        </extensions>
      </trkpt>
      <trkpt lat="36.82267452590167522430419921875" lon="-118.39353740215301513671875">
        <ele>3788.60009765625</ele>
        <time>2021-06-27T18:52:59.000Z</time>
        <extensions>
          <ns3:TrackPointExtension>
            <ns3:atemp>29.0</ns3:atemp>
            <ns3:hr>91</ns3:hr>
          </ns3:TrackPointExtension>
        </extensions>
      </trkpt>
      <trkpt lat="36.8226731009781360626220703125" lon="-118.3935392461717128753662109375">
        <ele>3788.60009765625</ele>
        <time>2021-06-27T18:53:03.000Z</time>
        <extensions>
          <ns3:TrackPointExtension>
            <ns3:atemp>29.0</ns3:atemp>
            <ns3:hr>89</ns3:hr>
          </ns3:TrackPointExtension>
        </extensions>
      </trkpt>
      <trkpt lat="36.82267368771135807037353515625" lon="-118.39353899471461772918701171875">
        <ele>3788.60009765625</ele>
        <time>2021-06-27T18:53:12.000Z</time>
        <extensions>
          <ns3:TrackPointExtension>
            <ns3:atemp>29.0</ns3:atemp>
            <ns3:hr>86</ns3:hr>
          </ns3:TrackPointExtension>
        </extensions>
      </trkpt>
      <trkpt lat="36.82267762720584869384765625" lon="-118.39353597722947597503662109375">
        <ele>3788.39990234375</ele>
        <time>2021-06-27T18:53:26.000Z</time>
        <extensions>
          <ns3:TrackPointExtension>
            <ns3:atemp>30.0</ns3:atemp>
            <ns3:hr>86</ns3:hr>
          </ns3:TrackPointExtension>
        </extensions>
      </trkpt>
      <trkpt lat="36.82267762720584869384765625" lon="-118.3935358934104442596435546875">
        <ele>3787.199951171875</ele>
        <time>2021-06-27T18:53:31.000Z</time>
        <extensions>
          <ns3:TrackPointExtension>
            <ns3:atemp>30.0</ns3:atemp>
            <ns3:hr>84</ns3:hr>
          </ns3:TrackPointExtension>
        </extensions>
      </trkpt>
      <trkpt lat="36.82267771102488040924072265625" lon="-118.39353580959141254425048828125">
        <ele>3786.199951171875</ele>
        <time>2021-06-27T18:53:36.000Z</time>
        <extensions>
          <ns3:TrackPointExtension>
            <ns3:atemp>30.0</ns3:atemp>
            <ns3:hr>87</ns3:hr>
          </ns3:TrackPointExtension>
        </extensions>
      </trkpt>
      <trkpt lat="36.82267762720584869384765625" lon="-118.3935358934104442596435546875">
        <ele>3785.199951171875</ele>
        <time>2021-06-27T18:53:44.000Z</time>
        <extensions>
          <ns3:TrackPointExtension>
            <ns3:atemp>30.0</ns3:atemp>
            <ns3:hr>89</ns3:hr>
          </ns3:TrackPointExtension>
        </extensions>
      </trkpt>
      <trkpt lat="36.82267754338681697845458984375" lon="-118.3935360610485076904296875">
        <ele>3784.60009765625</ele>
        <time>2021-06-27T18:53:49.000Z</time>
        <extensions>
          <ns3:TrackPointExtension>
            <ns3:atemp>30.0</ns3:atemp>
            <ns3:hr>85</ns3:hr>
          </ns3:TrackPointExtension>
        </extensions>
      </trkpt>
      <trkpt lat="36.8226774595677852630615234375" lon="-118.3935360610485076904296875">
        <ele>3784</ele>
        <time>2021-06-27T18:53:50.000Z</time>
        <extensions>
          <ns3:TrackPointExtension>
            <ns3:atemp>30.0</ns3:atemp>
            <ns3:hr>83</ns3:hr>
          </ns3:TrackPointExtension>
        </extensions>
      </trkpt>
      <trkpt lat="36.8226774595677852630615234375" lon="-118.39353614486753940582275390625">
        <ele>3783.199951171875</ele>
        <time>2021-06-27T18:53:52.000Z</time>
        <extensions>
          <ns3:TrackPointExtension>
            <ns3:atemp>30.0</ns3:atemp>
            <ns3:hr>80</ns3:hr>
          </ns3:TrackPointExtension>
        </extensions>
      </trkpt>
      <trkpt lat="36.82267737574875354766845703125" lon="-118.39353631250560283660888671875">
        <ele>3783</ele>
        <time>2021-06-27T18:53:55.000Z</time>
        <extensions>
          <ns3:TrackPointExtension>
            <ns3:atemp>30.0</ns3:atemp>
            <ns3:hr>81</ns3:hr>
          </ns3:TrackPointExtension>
        </extensions>
      </trkpt>
      <trkpt lat="36.822677291929721832275390625" lon="-118.39353648014366626739501953125">
        <ele>3782.60009765625</ele>
        <time>2021-06-27T18:53:58.000Z</time>
        <extensions>
          <ns3:TrackPointExtension>
            <ns3:atemp>30.0</ns3:atemp>
            <ns3:hr>84</ns3:hr>
          </ns3:TrackPointExtension>
        </extensions>
      </trkpt>
      <trkpt lat="36.82267704047262668609619140625" lon="-118.3935368992388248443603515625">
        <ele>3781.800048828125</ele>
        <time>2021-06-27T18:54:04.000Z</time>
        <extensions>
          <ns3:TrackPointExtension>
            <ns3:atemp>30.0</ns3:atemp>
            <ns3:hr>83</ns3:hr>
          </ns3:TrackPointExtension>
        </extensions>
      </trkpt>
      <trkpt lat="36.82267687283456325531005859375" lon="-118.39353715069591999053955078125">
        <ele>3781.39990234375</ele>
        <time>2021-06-27T18:54:07.000Z</time>
        <extensions>
          <ns3:TrackPointExtension>
            <ns3:atemp>30.0</ns3:atemp>
            <ns3:hr>80</ns3:hr>
          </ns3:TrackPointExtension>
        </extensions>
      </trkpt>
      <trkpt lat="36.822676621377468109130859375" lon="-118.3935375697910785675048828125">
        <ele>3780.800048828125</ele>
        <time>2021-06-27T18:54:12.000Z</time>
        <extensions>
          <ns3:TrackPointExtension>
            <ns3:atemp>30.0</ns3:atemp>
            <ns3:hr>79</ns3:hr>
          </ns3:TrackPointExtension>
        </extensions>
      </trkpt>
      <trkpt lat="36.822675950825214385986328125" lon="-118.39353899471461772918701171875">
        <ele>3779.39990234375</ele>
        <time>2021-06-27T18:54:22.000Z</time>
        <extensions>
          <ns3:TrackPointExtension>
            <ns3:atemp>30.0</ns3:atemp>
            <ns3:hr>81</ns3:hr>
          </ns3:TrackPointExtension>
        </extensions>
      </trkpt>
      <trkpt lat="36.8226757831871509552001953125" lon="-118.39353949762880802154541015625">
        <ele>3778.800048828125</ele>
        <time>2021-06-27T18:54:25.000Z</time>
        <extensions>
          <ns3:TrackPointExtension>
            <ns3:atemp>30.0</ns3:atemp>
            <ns3:hr>84</ns3:hr>
          </ns3:TrackPointExtension>
        </extensions>
      </trkpt>
      <trkpt lat="36.82267553173005580902099609375" lon="-118.3935402520000934600830078125">
        <ele>3778.39990234375</ele>
        <time>2021-06-27T18:54:29.000Z</time>
        <extensions>
          <ns3:TrackPointExtension>
            <ns3:atemp>30.0</ns3:atemp>
            <ns3:hr>86</ns3:hr>
          </ns3:TrackPointExtension>
        </extensions>
      </trkpt>
      <trkpt lat="36.82267536409199237823486328125" lon="-118.39354083873331546783447265625">
        <ele>3778</ele>
        <time>2021-06-27T18:54:32.000Z</time>
        <extensions>
          <ns3:TrackPointExtension>
            <ns3:atemp>30.0</ns3:atemp>
            <ns3:hr>89</ns3:hr>
          </ns3:TrackPointExtension>
        </extensions>
      </trkpt>
      <trkpt lat="36.82267494499683380126953125" lon="-118.39354209601879119873046875">
        <ele>3777.199951171875</ele>
        <time>2021-06-27T18:54:38.000Z</time>
        <extensions>
          <ns3:TrackPointExtension>
            <ns3:atemp>30.0</ns3:atemp>
            <ns3:hr>91</ns3:hr>
          </ns3:TrackPointExtension>
        </extensions>
      </trkpt>
      <trkpt lat="36.822674274444580078125" lon="-118.393543772399425506591796875">
        <ele>3776.199951171875</ele>
        <time>2021-06-27T18:54:46.000Z</time>
        <extensions>
          <ns3:TrackPointExtension>
            <ns3:atemp>30.0</ns3:atemp>
            <ns3:hr>94</ns3:hr>
          </ns3:TrackPointExtension>
        </extensions>
      </trkpt>
      <trkpt lat="36.82267419062554836273193359375" lon="-118.39354402385652065277099609375">
        <ele>3776</ele>
        <time>2021-06-27T18:54:47.000Z</time>
        <extensions>
          <ns3:TrackPointExtension>
            <ns3:atemp>30.0</ns3:atemp>
            <ns3:hr>94</ns3:hr>
          </ns3:TrackPointExtension>
        </extensions>
      </trkpt>
      <trkpt lat="36.82267360389232635498046875" lon="-118.3935456164181232452392578125">
        <ele>3774.800048828125</ele>
        <time>2021-06-27T18:54:53.000Z</time>
        <extensions>
          <ns3:TrackPointExtension>
            <ns3:atemp>30.0</ns3:atemp>
            <ns3:hr>93</ns3:hr>
          </ns3:TrackPointExtension>
        </extensions>
      </trkpt>
      <trkpt lat="36.822673268616199493408203125" lon="-118.39354670606553554534912109375">
        <ele>3773.800048828125</ele>
        <time>2021-06-27T18:54:57.000Z</time>
        <extensions>
          <ns3:TrackPointExtension>
            <ns3:atemp>30.0</ns3:atemp>
            <ns3:hr>92</ns3:hr>
          </ns3:TrackPointExtension>
        </extensions>
      </trkpt>
      <trkpt lat="36.8226727657020092010498046875" lon="-118.39354821480810642242431640625">
        <ele>3773.60009765625</ele>
        <time>2021-06-27T18:55:02.000Z</time>
        <extensions>
          <ns3:TrackPointExtension>
            <ns3:atemp>30.0</ns3:atemp>
            <ns3:hr>89</ns3:hr>
          </ns3:TrackPointExtension>
        </extensions>
      </trkpt>
      <trkpt lat="36.82267251424491405487060546875" lon="-118.39354888536036014556884765625">
        <ele>3773</ele>
        <time>2021-06-27T18:55:04.000Z</time>
        <extensions>
          <ns3:TrackPointExtension>
            <ns3:atemp>30.0</ns3:atemp>
            <ns3:hr>86</ns3:hr>
          </ns3:TrackPointExtension>
        </extensions>
      </trkpt>
      <trkpt lat="36.82267217896878719329833984375" lon="-118.39354989118874073028564453125">
        <ele>3773</ele>
        <time>2021-06-27T18:55:07.000Z</time>
        <extensions>
          <ns3:TrackPointExtension>
            <ns3:atemp>30.0</ns3:atemp>
            <ns3:hr>83</ns3:hr>
          </ns3:TrackPointExtension>
        </extensions>
      </trkpt>
      <trkpt lat="36.8226714245975017547607421875" lon="-118.39355190284550189971923828125">
        <ele>3773</ele>
        <time>2021-06-27T18:55:13.000Z</time>
        <extensions>
          <ns3:TrackPointExtension>
            <ns3:atemp>30.0</ns3:atemp>
            <ns3:hr>80</ns3:hr>
          </ns3:TrackPointExtension>
        </extensions>
      </trkpt>
      <trkpt lat="36.82267083786427974700927734375" lon="-118.3935536630451679229736328125">
        <ele>3773.199951171875</ele>
        <time>2021-06-27T18:55:18.000Z</time>
        <extensions>
          <ns3:TrackPointExtension>
            <ns3:atemp>30.0</ns3:atemp>
            <ns3:hr>84</ns3:hr>
          </ns3:TrackPointExtension>
        </extensions>
      </trkpt>
      <trkpt lat="36.822670586407184600830078125" lon="-118.39355441741645336151123046875">
        <ele>3773.199951171875</ele>
        <time>2021-06-27T18:55:20.000Z</time>
        <extensions>
          <ns3:TrackPointExtension>
            <ns3:atemp>30.0</ns3:atemp>
            <ns3:hr>87</ns3:hr>
          </ns3:TrackPointExtension>
        </extensions>
      </trkpt>
      <trkpt lat="36.82266949675977230072021484375" lon="-118.39355693198740482330322265625">
        <ele>3773.60009765625</ele>
        <time>2021-06-27T18:55:27.000Z</time>
        <extensions>
          <ns3:TrackPointExtension>
            <ns3:atemp>30.0</ns3:atemp>
            <ns3:hr>90</ns3:hr>
          </ns3:TrackPointExtension>
        </extensions>
      </trkpt>
      <trkpt lat="36.82266555726528167724609375" lon="-118.39356757700443267822265625">
        <ele>3774.199951171875</ele>
        <time>2021-06-27T18:55:55.000Z</time>
        <extensions>
          <ns3:TrackPointExtension>
            <ns3:atemp>30.0</ns3:atemp>
            <ns3:hr>87</ns3:hr>
          </ns3:TrackPointExtension>
        </extensions>
      </trkpt>
      <trkpt lat="36.822662539780139923095703125" lon="-118.39357562363147735595703125">
        <ele>3774.199951171875</ele>
        <time>2021-06-27T18:56:17.000Z</time>
        <extensions>
          <ns3:TrackPointExtension>
            <ns3:atemp>30.0</ns3:atemp>
            <ns3:hr>90</ns3:hr>
          </ns3:TrackPointExtension>
        </extensions>
      </trkpt>
      <trkpt lat="36.82266161777079105377197265625" lon="-118.3935781382024288177490234375">
        <ele>3772.800048828125</ele>
        <time>2021-06-27T18:56:24.000Z</time>
        <extensions>
          <ns3:TrackPointExtension>
            <ns3:atemp>30.0</ns3:atemp>
            <ns3:hr>92</ns3:hr>
          </ns3:TrackPointExtension>
        </extensions>
      </trkpt>
      <trkpt lat="36.8226610310375690460205078125" lon="-118.39357956312596797943115234375">
        <ele>3772.39990234375</ele>
        <time>2021-06-27T18:56:28.000Z</time>
        <extensions>
          <ns3:TrackPointExtension>
            <ns3:atemp>30.0</ns3:atemp>
            <ns3:hr>88</ns3:hr>
          </ns3:TrackPointExtension>
        </extensions>
      </trkpt>
      <trkpt lat="36.82266077958047389984130859375" lon="-118.39358023367822170257568359375">
        <ele>3772.199951171875</ele>
        <time>2021-06-27T18:56:30.000Z</time>
        <extensions>
          <ns3:TrackPointExtension>
            <ns3:atemp>30.0</ns3:atemp>
            <ns3:hr>91</ns3:hr>
          </ns3:TrackPointExtension>
        </extensions>
      </trkpt>
      <trkpt lat="36.8226603604853153228759765625" lon="-118.393581323325634002685546875">
        <ele>3771.60009765625</ele>
        <time>2021-06-27T18:56:33.000Z</time>
        <extensions>
          <ns3:TrackPointExtension>
            <ns3:atemp>30.0</ns3:atemp>
            <ns3:hr>91</ns3:hr>
          </ns3:TrackPointExtension>
        </extensions>
      </trkpt>
      <trkpt lat="36.82265960611402988433837890625" lon="-118.39358308352530002593994140625">
        <ele>3771.199951171875</ele>
        <time>2021-06-27T18:56:38.000Z</time>
        <extensions>
          <ns3:TrackPointExtension>
            <ns3:atemp>30.0</ns3:atemp>
            <ns3:hr>94</ns3:hr>
          </ns3:TrackPointExtension>
        </extensions>
      </trkpt>
      <trkpt lat="36.8226593546569347381591796875" lon="-118.3935838378965854644775390625">
        <ele>3770.39990234375</ele>
        <time>2021-06-27T18:56:40.000Z</time>
        <extensions>
          <ns3:TrackPointExtension>
            <ns3:atemp>29.0</ns3:atemp>
            <ns3:hr>94</ns3:hr>
          </ns3:TrackPointExtension>
        </extensions>
      </trkpt>
      <trkpt lat="36.82265843264758586883544921875" lon="-118.39358610101044178009033203125">
        <ele>3770.199951171875</ele>
        <time>2021-06-27T18:56:46.000Z</time>
        <extensions>
          <ns3:TrackPointExtension>
            <ns3:atemp>29.0</ns3:atemp>
            <ns3:hr>91</ns3:hr>
          </ns3:TrackPointExtension>
        </extensions>
      </trkpt>
      <trkpt lat="36.822657845914363861083984375" lon="-118.39358769357204437255859375">
        <ele>3769.39990234375</ele>
        <time>2021-06-27T18:56:50.000Z</time>
        <extensions>
          <ns3:TrackPointExtension>
            <ns3:atemp>29.0</ns3:atemp>
            <ns3:hr>91</ns3:hr>
          </ns3:TrackPointExtension>
        </extensions>
      </trkpt>
      <trkpt lat="36.82263580150902271270751953125" lon="-118.39365206658840179443359375">
        <ele>3768.199951171875</ele>
        <time>2021-06-27T18:56:56.000Z</time>
        <extensions>
          <ns3:TrackPointExtension>
            <ns3:atemp>29.0</ns3:atemp>
            <ns3:hr>91</ns3:hr>
          </ns3:TrackPointExtension>
        </extensions>
      </trkpt>
      <trkpt lat="36.82261727750301361083984375" lon="-118.39371618814766407012939453125">
        <ele>3768</ele>
        <time>2021-06-27T18:56:58.000Z</time>
        <extensions>
          <ns3:TrackPointExtension>
            <ns3:atemp>29.0</ns3:atemp>
            <ns3:hr>91</ns3:hr>
          </ns3:TrackPointExtension>
        </extensions>
      </trkpt>
      <trkpt lat="36.8225896172225475311279296875" lon="-118.39380805380642414093017578125">
        <ele>3767</ele>
        <time>2021-06-27T18:57:03.000Z</time>
        <extensions>
          <ns3:TrackPointExtension>
            <ns3:atemp>29.0</ns3:atemp>
            <ns3:hr>90</ns3:hr>
          </ns3:TrackPointExtension>
        </extensions>
      </trkpt>
      <trkpt lat="36.8225896172225475311279296875" lon="-118.39380805380642414093017578125">
        <ele>3766.39990234375</ele>
        <time>2021-06-27T18:57:07.000Z</time>
        <extensions>
          <ns3:TrackPointExtension>
            <ns3:atemp>29.0</ns3:atemp>
            <ns3:hr>87</ns3:hr>
          </ns3:TrackPointExtension>
        </extensions>
      </trkpt>
      <trkpt lat="36.82256220839917659759521484375" lon="-118.39389271102845668792724609375">
        <ele>3766</ele>
        <time>2021-06-27T18:57:09.000Z</time>
        <extensions>
          <ns3:TrackPointExtension>
            <ns3:atemp>29.0</ns3:atemp>
            <ns3:hr>87</ns3:hr>
          </ns3:TrackPointExtension>
        </extensions>
      </trkpt>
      <trkpt lat="36.8225602805614471435546875" lon="-118.393898494541645050048828125">
        <ele>3765.800048828125</ele>
        <time>2021-06-27T18:57:11.000Z</time>
        <extensions>
          <ns3:TrackPointExtension>
            <ns3:atemp>29.0</ns3:atemp>
            <ns3:hr>90</ns3:hr>
          </ns3:TrackPointExtension>
        </extensions>
      </trkpt>
      <trkpt lat="36.822558939456939697265625" lon="-118.39390126056969165802001953125">
        <ele>3765</ele>
        <time>2021-06-27T18:57:16.000Z</time>
        <extensions>
          <ns3:TrackPointExtension>
            <ns3:atemp>30.0</ns3:atemp>
            <ns3:hr>88</ns3:hr>
          </ns3:TrackPointExtension>
        </extensions>
      </trkpt>
      <trkpt lat="36.82255818508565425872802734375" lon="-118.39392405934631824493408203125">
        <ele>3763.800048828125</ele>
        <time>2021-06-27T18:57:22.000Z</time>
        <extensions>
          <ns3:TrackPointExtension>
            <ns3:atemp>30.0</ns3:atemp>
            <ns3:hr>89</ns3:hr>
          </ns3:TrackPointExtension>
        </extensions>
      </trkpt>
      <trkpt lat="36.82255667634308338165283203125" lon="-118.3939303457736968994140625">
        <ele>3763.39990234375</ele>
        <time>2021-06-27T18:57:24.000Z</time>
        <extensions>
          <ns3:TrackPointExtension>
            <ns3:atemp>30.0</ns3:atemp>
            <ns3:hr>91</ns3:hr>
          </ns3:TrackPointExtension>
        </extensions>
      </trkpt>
      <trkpt lat="36.82255667634308338165283203125" lon="-118.3939412422478199005126953125">
        <ele>3762.60009765625</ele>
        <time>2021-06-27T18:57:27.000Z</time>
        <extensions>
          <ns3:TrackPointExtension>
            <ns3:atemp>30.0</ns3:atemp>
            <ns3:hr>93</ns3:hr>
          </ns3:TrackPointExtension>
        </extensions>
      </trkpt>
      <trkpt lat="36.8225534074008464813232421875" lon="-118.393979631364345550537109375">
        <ele>3761.800048828125</ele>
        <time>2021-06-27T18:57:49.000Z</time>
        <extensions>
          <ns3:TrackPointExtension>
            <ns3:atemp>29.0</ns3:atemp>
            <ns3:hr>96</ns3:hr>
          </ns3:TrackPointExtension>
        </extensions>
      </trkpt>
      <trkpt lat="36.8225527368485927581787109375" lon="-118.39398206211626529693603515625">
        <ele>3761.60009765625</ele>
        <time>2021-06-27T18:57:52.000Z</time>
        <extensions>
          <ns3:TrackPointExtension>
            <ns3:atemp>29.0</ns3:atemp>
            <ns3:hr>97</ns3:hr>
          </ns3:TrackPointExtension>
        </extensions>
      </trkpt>
      <trkpt lat="36.82255147956311702728271484375" lon="-118.3939831517636775970458984375">
        <ele>3760.39990234375</ele>
        <time>2021-06-27T18:57:56.000Z</time>
        <extensions>
          <ns3:TrackPointExtension>
            <ns3:atemp>29.0</ns3:atemp>
            <ns3:hr>98</ns3:hr>
          </ns3:TrackPointExtension>
        </extensions>
      </trkpt>
      <trkpt lat="36.822543852031230926513671875" lon="-118.39398440904915332794189453125">
        <ele>3759.199951171875</ele>
        <time>2021-06-27T18:58:01.000Z</time>
        <extensions>
          <ns3:TrackPointExtension>
            <ns3:atemp>29.0</ns3:atemp>
            <ns3:hr>99</ns3:hr>
          </ns3:TrackPointExtension>
        </extensions>
      </trkpt>
      <trkpt lat="36.8225389905273914337158203125" lon="-118.39399144984781742095947265625">
        <ele>3758.199951171875</ele>
        <time>2021-06-27T18:58:06.000Z</time>
        <extensions>
          <ns3:TrackPointExtension>
            <ns3:atemp>29.0</ns3:atemp>
            <ns3:hr>99</ns3:hr>
          </ns3:TrackPointExtension>
        </extensions>
      </trkpt>
      <trkpt lat="36.8225369788706302642822265625" lon="-118.39402095414698123931884765625">
        <ele>3757</ele>
        <time>2021-06-27T18:58:12.000Z</time>
        <extensions>
          <ns3:TrackPointExtension>
            <ns3:atemp>29.0</ns3:atemp>
            <ns3:hr>99</ns3:hr>
          </ns3:TrackPointExtension>
        </extensions>
      </trkpt>
      <trkpt lat="36.82253689505159854888916015625" lon="-118.39402346871793270111083984375">
        <ele>3756.800048828125</ele>
        <time>2021-06-27T18:58:13.000Z</time>
        <extensions>
          <ns3:TrackPointExtension>
            <ns3:atemp>29.0</ns3:atemp>
            <ns3:hr>99</ns3:hr>
          </ns3:TrackPointExtension>
        </extensions>
      </trkpt>
      <trkpt lat="36.82253555394709110260009765625" lon="-118.3940334431827068328857421875">
        <ele>3755.60009765625</ele>
        <time>2021-06-27T18:58:18.000Z</time>
        <extensions>
          <ns3:TrackPointExtension>
            <ns3:atemp>29.0</ns3:atemp>
            <ns3:hr>97</ns3:hr>
          </ns3:TrackPointExtension>
        </extensions>
      </trkpt>
      <trkpt lat="36.82253421284258365631103515625" lon="-118.39404559694230556488037109375">
        <ele>3755.39990234375</ele>
        <time>2021-06-27T18:58:22.000Z</time>
        <extensions>
          <ns3:TrackPointExtension>
            <ns3:atemp>29.0</ns3:atemp>
            <ns3:hr>94</ns3:hr>
          </ns3:TrackPointExtension>
        </extensions>
      </trkpt>
      <trkpt lat="36.8225326202809810638427734375" lon="-118.39406185783445835113525390625">
        <ele>3754.800048828125</ele>
        <time>2021-06-27T18:58:27.000Z</time>
        <extensions>
          <ns3:TrackPointExtension>
            <ns3:atemp>29.0</ns3:atemp>
            <ns3:hr>91</ns3:hr>
          </ns3:TrackPointExtension>
        </extensions>
      </trkpt>
      <trkpt lat="36.8225275911390781402587890625" lon="-118.39406780898571014404296875">
        <ele>3754.199951171875</ele>
        <time>2021-06-27T18:58:29.000Z</time>
        <extensions>
          <ns3:TrackPointExtension>
            <ns3:atemp>29.0</ns3:atemp>
            <ns3:hr>90</ns3:hr>
          </ns3:TrackPointExtension>
        </extensions>
      </trkpt>
      <trkpt lat="36.8225094862282276153564453125" lon="-118.3941025100648403167724609375">
        <ele>3753</ele>
        <time>2021-06-27T18:58:39.000Z</time>
        <extensions>
          <ns3:TrackPointExtension>
            <ns3:atemp>29.0</ns3:atemp>
            <ns3:hr>87</ns3:hr>
          </ns3:TrackPointExtension>
        </extensions>
      </trkpt>
      <trkpt lat="36.82250604964792728424072265625" lon="-118.39410477317869663238525390625">
        <ele>3752.800048828125</ele>
        <time>2021-06-27T18:58:40.000Z</time>
        <extensions>
          <ns3:TrackPointExtension>
            <ns3:atemp>29.0</ns3:atemp>
            <ns3:hr>90</ns3:hr>
          </ns3:TrackPointExtension>
        </extensions>
      </trkpt>
      <trkpt lat="36.822500936686992645263671875" lon="-118.3941092155873775482177734375">
        <ele>3752.60009765625</ele>
        <time>2021-06-27T18:58:42.000Z</time>
        <extensions>
          <ns3:TrackPointExtension>
            <ns3:atemp>29.0</ns3:atemp>
            <ns3:hr>87</ns3:hr>
          </ns3:TrackPointExtension>
        </extensions>
      </trkpt>
      <trkpt lat="36.82248492725193500518798828125" lon="-118.3941289968788623809814453125">
        <ele>3751.800048828125</ele>
        <time>2021-06-27T18:58:51.000Z</time>
        <extensions>
          <ns3:TrackPointExtension>
            <ns3:atemp>29.0</ns3:atemp>
            <ns3:hr>88</ns3:hr>
          </ns3:TrackPointExtension>
        </extensions>
      </trkpt>
      <trkpt lat="36.8224675767123699188232421875" lon="-118.394164703786373138427734375">
        <ele>3751.800048828125</ele>
        <time>2021-06-27T18:59:06.000Z</time>
        <extensions>
          <ns3:TrackPointExtension>
            <ns3:atemp>29.0</ns3:atemp>
            <ns3:hr>85</ns3:hr>
          </ns3:TrackPointExtension>
        </extensions>
      </trkpt>
      <trkpt lat="36.8224645592272281646728515625" lon="-118.3941702358424663543701171875">
        <ele>3751.800048828125</ele>
        <time>2021-06-27T18:59:12.000Z</time>
        <extensions>
          <ns3:TrackPointExtension>
            <ns3:atemp>29.0</ns3:atemp>
            <ns3:hr>81</ns3:hr>
          </ns3:TrackPointExtension>
        </extensions>
      </trkpt>
      <trkpt lat="36.82245190255343914031982421875" lon="-118.39418984949588775634765625">
        <ele>3750.800048828125</ele>
        <time>2021-06-27T18:59:26.000Z</time>
        <extensions>
          <ns3:TrackPointExtension>
            <ns3:atemp>29.0</ns3:atemp>
            <ns3:hr>80</ns3:hr>
          </ns3:TrackPointExtension>
        </extensions>
      </trkpt>
      <trkpt lat="36.82245089672505855560302734375" lon="-118.3941900171339511871337890625">
        <ele>3750.800048828125</ele>
        <time>2021-06-27T18:59:29.000Z</time>
        <extensions>
          <ns3:TrackPointExtension>
            <ns3:atemp>29.0</ns3:atemp>
            <ns3:hr>83</ns3:hr>
          </ns3:TrackPointExtension>
        </extensions>
      </trkpt>
      <trkpt lat="36.82245072908699512481689453125" lon="-118.39419010095298290252685546875">
        <ele>3751</ele>
        <time>2021-06-27T18:59:30.000Z</time>
        <extensions>
          <ns3:TrackPointExtension>
            <ns3:atemp>29.0</ns3:atemp>
            <ns3:hr>80</ns3:hr>
          </ns3:TrackPointExtension>
        </extensions>
      </trkpt>
      <trkpt lat="36.822450645267963409423828125" lon="-118.39418850839138031005859375">
        <ele>3751</ele>
        <time>2021-06-27T18:59:33.000Z</time>
        <extensions>
          <ns3:TrackPointExtension>
            <ns3:atemp>29.0</ns3:atemp>
            <ns3:hr>76</ns3:hr>
          </ns3:TrackPointExtension>
        </extensions>
      </trkpt>
      <trkpt lat="36.8224508129060268402099609375" lon="-118.39418641291558742523193359375">
        <ele>3751.800048828125</ele>
        <time>2021-06-27T18:59:42.000Z</time>
        <extensions>
          <ns3:TrackPointExtension>
            <ns3:atemp>29.0</ns3:atemp>
            <ns3:hr>78</ns3:hr>
          </ns3:TrackPointExtension>
        </extensions>
      </trkpt>
      <trkpt lat="36.82245098054409027099609375" lon="-118.3941863290965557098388671875">
        <ele>3751.800048828125</ele>
        <time>2021-06-27T18:59:44.000Z</time>
        <extensions>
          <ns3:TrackPointExtension>
            <ns3:atemp>29.0</ns3:atemp>
            <ns3:hr>75</ns3:hr>
          </ns3:TrackPointExtension>
        </extensions>
      </trkpt>
      <trkpt lat="36.8224511481821537017822265625" lon="-118.39418582618236541748046875">
        <ele>3751.60009765625</ele>
        <time>2021-06-27T18:59:50.000Z</time>
        <extensions>
          <ns3:TrackPointExtension>
            <ns3:atemp>29.0</ns3:atemp>
            <ns3:hr>80</ns3:hr>
          </ns3:TrackPointExtension>
        </extensions>
      </trkpt>
      <trkpt lat="36.82245098054409027099609375" lon="-118.39418574236333370208740234375">
        <ele>3751.60009765625</ele>
        <time>2021-06-27T18:59:54.000Z</time>
        <extensions>
          <ns3:TrackPointExtension>
            <ns3:atemp>29.0</ns3:atemp>
            <ns3:hr>83</ns3:hr>
          </ns3:TrackPointExtension>
        </extensions>
      </trkpt>
      <trkpt lat="36.82245056144893169403076171875" lon="-118.39418591000139713287353515625">
        <ele>3750.800048828125</ele>
        <time>2021-06-27T19:00:02.000Z</time>
        <extensions>
          <ns3:TrackPointExtension>
            <ns3:atemp>29.0</ns3:atemp>
            <ns3:hr>86</ns3:hr>
          </ns3:TrackPointExtension>
        </extensions>
      </trkpt>
      <trkpt lat="36.82244963943958282470703125" lon="-118.3941849879920482635498046875">
        <ele>3750.800048828125</ele>
        <time>2021-06-27T19:00:15.000Z</time>
        <extensions>
          <ns3:TrackPointExtension>
            <ns3:atemp>29.0</ns3:atemp>
            <ns3:hr>83</ns3:hr>
          </ns3:TrackPointExtension>
        </extensions>
      </trkpt>
      <trkpt lat="36.82244989089667797088623046875" lon="-118.3941843174397945404052734375">
        <ele>3750.800048828125</ele>
        <time>2021-06-27T19:00:34.000Z</time>
        <extensions>
          <ns3:TrackPointExtension>
            <ns3:atemp>29.0</ns3:atemp>
            <ns3:hr>80</ns3:hr>
          </ns3:TrackPointExtension>
        </extensions>
      </trkpt>
      <trkpt lat="36.82244989089667797088623046875" lon="-118.3941843174397945404052734375">
        <ele>3750.800048828125</ele>
        <time>2021-06-27T19:00:35.000Z</time>
        <extensions>
          <ns3:TrackPointExtension>
            <ns3:atemp>29.0</ns3:atemp>
            <ns3:hr>79</ns3:hr>
          </ns3:TrackPointExtension>
        </extensions>
      </trkpt>
      <trkpt lat="36.822449974715709686279296875" lon="-118.39418423362076282501220703125">
        <ele>3750.800048828125</ele>
        <time>2021-06-27T19:00:38.000Z</time>
        <extensions>
          <ns3:TrackPointExtension>
            <ns3:atemp>29.0</ns3:atemp>
            <ns3:hr>78</ns3:hr>
          </ns3:TrackPointExtension>
        </extensions>
      </trkpt>
      <trkpt lat="36.82245022617280483245849609375" lon="-118.3941839821636676788330078125">
        <ele>3750.800048828125</ele>
        <time>2021-06-27T19:00:46.000Z</time>
        <extensions>
          <ns3:TrackPointExtension>
            <ns3:atemp>30.0</ns3:atemp>
            <ns3:hr>75</ns3:hr>
          </ns3:TrackPointExtension>
        </extensions>
      </trkpt>
      <trkpt lat="36.82245089672505855560302734375" lon="-118.39418339543044567108154296875">
        <ele>3750.800048828125</ele>
        <time>2021-06-27T19:01:00.000Z</time>
        <extensions>
          <ns3:TrackPointExtension>
            <ns3:atemp>30.0</ns3:atemp>
            <ns3:hr>72</ns3:hr>
          </ns3:TrackPointExtension>
        </extensions>
      </trkpt>
      <trkpt lat="36.82245098054409027099609375" lon="-118.3941833116114139556884765625">
        <ele>3750.800048828125</ele>
        <time>2021-06-27T19:01:02.000Z</time>
        <extensions>
          <ns3:TrackPointExtension>
            <ns3:atemp>30.0</ns3:atemp>
            <ns3:hr>75</ns3:hr>
          </ns3:TrackPointExtension>
        </extensions>
      </trkpt>
      <trkpt lat="36.822451315820217132568359375" lon="-118.3941826410591602325439453125">
        <ele>3750.800048828125</ele>
        <time>2021-06-27T19:01:17.000Z</time>
        <extensions>
          <ns3:TrackPointExtension>
            <ns3:atemp>30.0</ns3:atemp>
            <ns3:hr>78</ns3:hr>
          </ns3:TrackPointExtension>
        </extensions>
      </trkpt>
      <trkpt lat="36.822451315820217132568359375" lon="-118.3941824734210968017578125">
        <ele>3750.800048828125</ele>
        <time>2021-06-27T19:01:20.000Z</time>
        <extensions>
          <ns3:TrackPointExtension>
            <ns3:atemp>30.0</ns3:atemp>
            <ns3:hr>74</ns3:hr>
          </ns3:TrackPointExtension>
        </extensions>
      </trkpt>
      <trkpt lat="36.822451315820217132568359375" lon="-118.39418238960206508636474609375">
        <ele>3750.800048828125</ele>
        <time>2021-06-27T19:01:21.000Z</time>
        <extensions>
          <ns3:TrackPointExtension>
            <ns3:atemp>30.0</ns3:atemp>
            <ns3:hr>78</ns3:hr>
          </ns3:TrackPointExtension>
        </extensions>
      </trkpt>
      <trkpt lat="36.82245156727731227874755859375" lon="-118.394182138144969940185546875">
        <ele>3750.800048828125</ele>
        <time>2021-06-27T19:01:33.000Z</time>
        <extensions>
          <ns3:TrackPointExtension>
            <ns3:atemp>30.0</ns3:atemp>
            <ns3:hr>81</ns3:hr>
          </ns3:TrackPointExtension>
        </extensions>
      </trkpt>
      <trkpt lat="36.82245156727731227874755859375" lon="-118.394182138144969940185546875">
        <ele>3750.800048828125</ele>
        <time>2021-06-27T19:01:36.000Z</time>
        <extensions>
          <ns3:TrackPointExtension>
            <ns3:atemp>30.0</ns3:atemp>
            <ns3:hr>78</ns3:hr>
          </ns3:TrackPointExtension>
        </extensions>
      </trkpt>
      <trkpt lat="36.822451651096343994140625" lon="-118.394182138144969940185546875">
        <ele>3744.800048828125</ele>
        <time>2021-06-27T19:01:39.000Z</time>
        <extensions>
          <ns3:TrackPointExtension>
            <ns3:atemp>29.0</ns3:atemp>
            <ns3:hr>78</ns3:hr>
          </ns3:TrackPointExtension>
        </extensions>
      </trkpt>
      <trkpt lat="36.82245190255343914031982421875" lon="-118.3941829763352870941162109375">
        <ele>3744.199951171875</ele>
        <time>2021-06-27T19:01:50.000Z</time>
        <extensions>
          <ns3:TrackPointExtension>
            <ns3:atemp>29.0</ns3:atemp>
            <ns3:hr>81</ns3:hr>
          </ns3:TrackPointExtension>
        </extensions>
      </trkpt>
      <trkpt lat="36.82245190255343914031982421875" lon="-118.39418314397335052490234375">
        <ele>3744.199951171875</ele>
        <time>2021-06-27T19:01:51.000Z</time>
        <extensions>
          <ns3:TrackPointExtension>
            <ns3:atemp>29.0</ns3:atemp>
            <ns3:hr>78</ns3:hr>
          </ns3:TrackPointExtension>
        </extensions>
      </trkpt>
      <trkpt lat="36.822451986372470855712890625" lon="-118.39418339543044567108154296875">
        <ele>3744.199951171875</ele>
        <time>2021-06-27T19:01:53.000Z</time>
        <extensions>
          <ns3:TrackPointExtension>
            <ns3:atemp>29.0</ns3:atemp>
            <ns3:hr>81</ns3:hr>
          </ns3:TrackPointExtension>
        </extensions>
      </trkpt>
      <trkpt lat="36.822451986372470855712890625" lon="-118.39418389834463596343994140625">
        <ele>3743.60009765625</ele>
        <time>2021-06-27T19:01:56.000Z</time>
        <extensions>
          <ns3:TrackPointExtension>
            <ns3:atemp>29.0</ns3:atemp>
            <ns3:hr>81</ns3:hr>
          </ns3:TrackPointExtension>
        </extensions>
      </trkpt>
      <trkpt lat="36.82245207019150257110595703125" lon="-118.39418440125882625579833984375">
        <ele>3742.199951171875</ele>
        <time>2021-06-27T19:01:59.000Z</time>
        <extensions>
          <ns3:TrackPointExtension>
            <ns3:atemp>29.0</ns3:atemp>
            <ns3:hr>81</ns3:hr>
          </ns3:TrackPointExtension>
        </extensions>
      </trkpt>
      <trkpt lat="36.8224521540105342864990234375" lon="-118.39418523944914340972900390625">
        <ele>3741</ele>
        <time>2021-06-27T19:02:03.000Z</time>
        <extensions>
          <ns3:TrackPointExtension>
            <ns3:atemp>29.0</ns3:atemp>
            <ns3:hr>80</ns3:hr>
          </ns3:TrackPointExtension>
        </extensions>
      </trkpt>
      <trkpt lat="36.82245223782956600189208984375" lon="-118.39418641291558742523193359375">
        <ele>3741</ele>
        <time>2021-06-27T19:02:08.000Z</time>
        <extensions>
          <ns3:TrackPointExtension>
            <ns3:atemp>29.0</ns3:atemp>
            <ns3:hr>77</ns3:hr>
          </ns3:TrackPointExtension>
        </extensions>
      </trkpt>
      <trkpt lat="36.8224521540105342864990234375" lon="-118.39418808929622173309326171875">
        <ele>3741</ele>
        <time>2021-06-27T19:02:15.000Z</time>
        <extensions>
          <ns3:TrackPointExtension>
            <ns3:atemp>29.0</ns3:atemp>
            <ns3:hr>73</ns3:hr>
          </ns3:TrackPointExtension>
        </extensions>
      </trkpt>
      <trkpt lat="36.82245207019150257110595703125" lon="-118.394188843667507171630859375">
        <ele>3741</ele>
        <time>2021-06-27T19:02:18.000Z</time>
        <extensions>
          <ns3:TrackPointExtension>
            <ns3:atemp>29.0</ns3:atemp>
            <ns3:hr>77</ns3:hr>
          </ns3:TrackPointExtension>
        </extensions>
      </trkpt>
      <trkpt lat="36.8224518187344074249267578125" lon="-118.39419010095298290252685546875">
        <ele>3740.800048828125</ele>
        <time>2021-06-27T19:02:23.000Z</time>
        <extensions>
          <ns3:TrackPointExtension>
            <ns3:atemp>29.0</ns3:atemp>
            <ns3:hr>80</ns3:hr>
          </ns3:TrackPointExtension>
        </extensions>
      </trkpt>
      <trkpt lat="36.8224223144352436065673828125" lon="-118.39425296522676944732666015625">
        <ele>3739.800048828125</ele>
        <time>2021-06-27T19:02:27.000Z</time>
        <extensions>
          <ns3:TrackPointExtension>
            <ns3:atemp>29.0</ns3:atemp>
            <ns3:hr>81</ns3:hr>
          </ns3:TrackPointExtension>
        </extensions>
      </trkpt>
      <trkpt lat="36.8224132619798183441162109375" lon="-118.39427433907985687255859375">
        <ele>3739.800048828125</ele>
        <time>2021-06-27T19:02:28.000Z</time>
        <extensions>
          <ns3:TrackPointExtension>
            <ns3:atemp>29.0</ns3:atemp>
            <ns3:hr>81</ns3:hr>
          </ns3:TrackPointExtension>
        </extensions>
      </trkpt>
      <trkpt lat="36.82239859364926815032958984375" lon="-118.39430744759738445281982421875">
        <ele>3738</ele>
        <time>2021-06-27T19:02:30.000Z</time>
        <extensions>
          <ns3:TrackPointExtension>
            <ns3:atemp>29.0</ns3:atemp>
            <ns3:hr>81</ns3:hr>
          </ns3:TrackPointExtension>
        </extensions>
      </trkpt>
      <trkpt lat="36.822389625012874603271484375" lon="-118.39434734545648097991943359375">
        <ele>3737.60009765625</ele>
        <time>2021-06-27T19:02:33.000Z</time>
        <extensions>
          <ns3:TrackPointExtension>
            <ns3:atemp>29.0</ns3:atemp>
            <ns3:hr>81</ns3:hr>
          </ns3:TrackPointExtension>
        </extensions>
      </trkpt>
      <trkpt lat="36.82239205576479434967041015625" lon="-118.39436494745314121246337890625">
        <ele>3737</ele>
        <time>2021-06-27T19:02:38.000Z</time>
        <extensions>
          <ns3:TrackPointExtension>
            <ns3:atemp>29.0</ns3:atemp>
            <ns3:hr>80</ns3:hr>
          </ns3:TrackPointExtension>
        </extensions>
      </trkpt>
      <trkpt lat="36.82239465415477752685546875" lon="-118.39436410926282405853271484375">
        <ele>3736.800048828125</ele>
        <time>2021-06-27T19:02:43.000Z</time>
        <extensions>
          <ns3:TrackPointExtension>
            <ns3:atemp>29.0</ns3:atemp>
            <ns3:hr>82</ns3:hr>
          </ns3:TrackPointExtension>
        </extensions>
      </trkpt>
      <trkpt lat="36.82239465415477752685546875" lon="-118.39436410926282405853271484375">
        <ele>3736.800048828125</ele>
        <time>2021-06-27T19:02:45.000Z</time>
        <extensions>
          <ns3:TrackPointExtension>
            <ns3:atemp>29.0</ns3:atemp>
            <ns3:hr>85</ns3:hr>
          </ns3:TrackPointExtension>
        </extensions>
      </trkpt>
      <trkpt lat="36.82239465415477752685546875" lon="-118.39436410926282405853271484375">
        <ele>3736.800048828125</ele>
        <time>2021-06-27T19:02:47.000Z</time>
        <extensions>
          <ns3:TrackPointExtension>
            <ns3:atemp>29.0</ns3:atemp>
            <ns3:hr>88</ns3:hr>
          </ns3:TrackPointExtension>
        </extensions>
      </trkpt>
      <trkpt lat="36.82239465415477752685546875" lon="-118.39436410926282405853271484375">
        <ele>3736.800048828125</ele>
        <time>2021-06-27T19:02:50.000Z</time>
        <extensions>
          <ns3:TrackPointExtension>
            <ns3:atemp>29.0</ns3:atemp>
            <ns3:hr>89</ns3:hr>
          </ns3:TrackPointExtension>
        </extensions>
      </trkpt>
      <trkpt lat="36.82239792309701442718505859375" lon="-118.39436025358736515045166015625">
        <ele>3736.800048828125</ele>
        <time>2021-06-27T19:02:57.000Z</time>
        <extensions>
          <ns3:TrackPointExtension>
            <ns3:atemp>29.0</ns3:atemp>
            <ns3:hr>86</ns3:hr>
          </ns3:TrackPointExtension>
        </extensions>
      </trkpt>
      <trkpt lat="36.82239976711571216583251953125" lon="-118.39436008594930171966552734375">
        <ele>3737.199951171875</ele>
        <time>2021-06-27T19:02:59.000Z</time>
        <extensions>
          <ns3:TrackPointExtension>
            <ns3:atemp>29.0</ns3:atemp>
            <ns3:hr>83</ns3:hr>
          </ns3:TrackPointExtension>
        </extensions>
      </trkpt>
      <trkpt lat="36.82239993475377559661865234375" lon="-118.3943616785109043121337890625">
        <ele>3737.199951171875</ele>
        <time>2021-06-27T19:03:03.000Z</time>
        <extensions>
          <ns3:TrackPointExtension>
            <ns3:atemp>29.0</ns3:atemp>
            <ns3:hr>80</ns3:hr>
          </ns3:TrackPointExtension>
        </extensions>
      </trkpt>
      <trkpt lat="36.82239993475377559661865234375" lon="-118.3943616785109043121337890625">
        <ele>3737</ele>
        <time>2021-06-27T19:03:09.000Z</time>
        <extensions>
          <ns3:TrackPointExtension>
            <ns3:atemp>29.0</ns3:atemp>
            <ns3:hr>77</ns3:hr>
          </ns3:TrackPointExtension>
        </extensions>
      </trkpt>
      <trkpt lat="36.822385601699352264404296875" lon="-118.39440585114061832427978515625">
        <ele>3736.199951171875</ele>
        <time>2021-06-27T19:03:28.000Z</time>
        <extensions>
          <ns3:TrackPointExtension>
            <ns3:atemp>30.0</ns3:atemp>
            <ns3:hr>80</ns3:hr>
          </ns3:TrackPointExtension>
        </extensions>
      </trkpt>
      <trkpt lat="36.82237428613007068634033203125" lon="-118.3944019116461277008056640625">
        <ele>3736</ele>
        <time>2021-06-27T19:03:42.000Z</time>
        <extensions>
          <ns3:TrackPointExtension>
            <ns3:atemp>30.0</ns3:atemp>
            <ns3:hr>77</ns3:hr>
          </ns3:TrackPointExtension>
        </extensions>
      </trkpt>
      <trkpt lat="36.82237395085394382476806640625" lon="-118.39440182782709598541259765625">
        <ele>3735.800048828125</ele>
        <time>2021-06-27T19:03:45.000Z</time>
        <extensions>
          <ns3:TrackPointExtension>
            <ns3:atemp>30.0</ns3:atemp>
            <ns3:hr>74</ns3:hr>
          </ns3:TrackPointExtension>
        </extensions>
      </trkpt>
      <trkpt lat="36.82237395085394382476806640625" lon="-118.39439931325614452362060546875">
        <ele>3735.800048828125</ele>
        <time>2021-06-27T19:03:50.000Z</time>
        <extensions>
          <ns3:TrackPointExtension>
            <ns3:atemp>30.0</ns3:atemp>
            <ns3:hr>72</ns3:hr>
          </ns3:TrackPointExtension>
        </extensions>
      </trkpt>
      <trkpt lat="36.82237395085394382476806640625" lon="-118.39439629577100276947021484375">
        <ele>3735.800048828125</ele>
        <time>2021-06-27T19:03:54.000Z</time>
        <extensions>
          <ns3:TrackPointExtension>
            <ns3:atemp>30.0</ns3:atemp>
            <ns3:hr>72</ns3:hr>
          </ns3:TrackPointExtension>
        </extensions>
      </trkpt>
      <trkpt lat="36.822374872863292694091796875" lon="-118.394395373761653900146484375">
        <ele>3735.39990234375</ele>
        <time>2021-06-27T19:03:57.000Z</time>
        <extensions>
          <ns3:TrackPointExtension>
            <ns3:atemp>30.0</ns3:atemp>
            <ns3:hr>69</ns3:hr>
          </ns3:TrackPointExtension>
        </extensions>
      </trkpt>
      <trkpt lat="36.82237613014876842498779296875" lon="-118.394394032657146453857421875">
        <ele>3735.39990234375</ele>
        <time>2021-06-27T19:03:59.000Z</time>
        <extensions>
          <ns3:TrackPointExtension>
            <ns3:atemp>30.0</ns3:atemp>
            <ns3:hr>72</ns3:hr>
          </ns3:TrackPointExtension>
        </extensions>
      </trkpt>
      <trkpt lat="36.82238082401454448699951171875" lon="-118.39439260773360729217529296875">
        <ele>3735.800048828125</ele>
        <time>2021-06-27T19:04:06.000Z</time>
        <extensions>
          <ns3:TrackPointExtension>
            <ns3:atemp>30.0</ns3:atemp>
            <ns3:hr>75</ns3:hr>
          </ns3:TrackPointExtension>
        </extensions>
      </trkpt>
      <trkpt lat="36.82238283567130565643310546875" lon="-118.39439445175230503082275390625">
        <ele>3735.60009765625</ele>
        <time>2021-06-27T19:04:08.000Z</time>
        <extensions>
          <ns3:TrackPointExtension>
            <ns3:atemp>30.0</ns3:atemp>
            <ns3:hr>78</ns3:hr>
          </ns3:TrackPointExtension>
        </extensions>
      </trkpt>
      <trkpt lat="36.822386272251605987548828125" lon="-118.39438791386783123016357421875">
        <ele>3735.39990234375</ele>
        <time>2021-06-27T19:04:20.000Z</time>
        <extensions>
          <ns3:TrackPointExtension>
            <ns3:atemp>30.0</ns3:atemp>
            <ns3:hr>81</ns3:hr>
          </ns3:TrackPointExtension>
        </extensions>
      </trkpt>
      <trkpt lat="36.82238115929067134857177734375" lon="-118.3943916857242584228515625">
        <ele>3735.39990234375</ele>
        <time>2021-06-27T19:04:34.000Z</time>
        <extensions>
          <ns3:TrackPointExtension>
            <ns3:atemp>30.0</ns3:atemp>
            <ns3:hr>78</ns3:hr>
          </ns3:TrackPointExtension>
        </extensions>
      </trkpt>
      <trkpt lat="36.82237914763391017913818359375" lon="-118.39439109899103641510009765625">
        <ele>3735.39990234375</ele>
        <time>2021-06-27T19:04:36.000Z</time>
        <extensions>
          <ns3:TrackPointExtension>
            <ns3:atemp>30.0</ns3:atemp>
            <ns3:hr>75</ns3:hr>
          </ns3:TrackPointExtension>
        </extensions>
      </trkpt>
      <trkpt lat="36.8223767168819904327392578125" lon="-118.3943881653249263763427734375">
        <ele>3735.199951171875</ele>
        <time>2021-06-27T19:04:39.000Z</time>
        <extensions>
          <ns3:TrackPointExtension>
            <ns3:atemp>31.0</ns3:atemp>
            <ns3:hr>72</ns3:hr>
          </ns3:TrackPointExtension>
        </extensions>
      </trkpt>
      <trkpt lat="36.82237478904426097869873046875" lon="-118.39438699185848236083984375">
        <ele>3735.199951171875</ele>
        <time>2021-06-27T19:04:46.000Z</time>
        <extensions>
          <ns3:TrackPointExtension>
            <ns3:atemp>31.0</ns3:atemp>
            <ns3:hr>69</ns3:hr>
          </ns3:TrackPointExtension>
        </extensions>
      </trkpt>
      <trkpt lat="36.82237478904426097869873046875" lon="-118.39438690803945064544677734375">
        <ele>3735.199951171875</ele>
        <time>2021-06-27T19:04:47.000Z</time>
        <extensions>
          <ns3:TrackPointExtension>
            <ns3:atemp>31.0</ns3:atemp>
            <ns3:hr>72</ns3:hr>
          </ns3:TrackPointExtension>
        </extensions>
      </trkpt>
      <trkpt lat="36.82237478904426097869873046875" lon="-118.394376933574676513671875">
        <ele>3734.39990234375</ele>
        <time>2021-06-27T19:04:51.000Z</time>
        <extensions>
          <ns3:TrackPointExtension>
            <ns3:atemp>31.0</ns3:atemp>
            <ns3:hr>73</ns3:hr>
          </ns3:TrackPointExtension>
        </extensions>
      </trkpt>
      <trkpt lat="36.8223609589040279388427734375" lon="-118.39434734545648097991943359375">
        <ele>3733.199951171875</ele>
        <time>2021-06-27T19:04:57.000Z</time>
        <extensions>
          <ns3:TrackPointExtension>
            <ns3:atemp>31.0</ns3:atemp>
            <ns3:hr>73</ns3:hr>
          </ns3:TrackPointExtension>
        </extensions>
      </trkpt>
      <trkpt lat="36.8223488889634609222412109375" lon="-118.3943487703800201416015625">
        <ele>3733</ele>
        <time>2021-06-27T19:04:58.000Z</time>
        <extensions>
          <ns3:TrackPointExtension>
            <ns3:atemp>31.0</ns3:atemp>
            <ns3:hr>73</ns3:hr>
          </ns3:TrackPointExtension>
        </extensions>
      </trkpt>
      <trkpt lat="36.8223116733133792877197265625" lon="-118.3943113870918750762939453125">
        <ele>3732.800048828125</ele>
        <time>2021-06-27T19:05:02.000Z</time>
        <extensions>
          <ns3:TrackPointExtension>
            <ns3:atemp>31.0</ns3:atemp>
            <ns3:hr>70</ns3:hr>
          </ns3:TrackPointExtension>
        </extensions>
      </trkpt>
      <trkpt lat="36.82228392921388149261474609375" lon="-118.39430191554129123687744140625">
        <ele>3732.60009765625</ele>
        <time>2021-06-27T19:05:06.000Z</time>
        <extensions>
          <ns3:TrackPointExtension>
            <ns3:atemp>31.0</ns3:atemp>
            <ns3:hr>69</ns3:hr>
          </ns3:TrackPointExtension>
        </extensions>
      </trkpt>
      <trkpt lat="36.8222774751484394073486328125" lon="-118.39429051615297794342041015625">
        <ele>3732.199951171875</ele>
        <time>2021-06-27T19:05:08.000Z</time>
        <extensions>
          <ns3:TrackPointExtension>
            <ns3:atemp>31.0</ns3:atemp>
            <ns3:hr>70</ns3:hr>
          </ns3:TrackPointExtension>
        </extensions>
      </trkpt>
      <trkpt lat="36.8222690932452678680419921875" lon="-118.39428012259304523468017578125">
        <ele>3732</ele>
        <time>2021-06-27T19:05:12.000Z</time>
        <extensions>
          <ns3:TrackPointExtension>
            <ns3:atemp>31.0</ns3:atemp>
            <ns3:hr>70</ns3:hr>
          </ns3:TrackPointExtension>
        </extensions>
      </trkpt>
      <trkpt lat="36.82227286510169506072998046875" lon="-118.3942808769643306732177734375">
        <ele>3732.39990234375</ele>
        <time>2021-06-27T19:05:17.000Z</time>
        <extensions>
          <ns3:TrackPointExtension>
            <ns3:atemp>31.0</ns3:atemp>
            <ns3:hr>70</ns3:hr>
          </ns3:TrackPointExtension>
        </extensions>
      </trkpt>
      <trkpt lat="36.8222741223871707916259765625" lon="-118.39427459053695201873779296875">
        <ele>3732</ele>
        <time>2021-06-27T19:05:23.000Z</time>
        <extensions>
          <ns3:TrackPointExtension>
            <ns3:atemp>31.0</ns3:atemp>
            <ns3:hr>66</ns3:hr>
          </ns3:TrackPointExtension>
        </extensions>
      </trkpt>
      <trkpt lat="36.8222741223871707916259765625" lon="-118.39427459053695201873779296875">
        <ele>3732.199951171875</ele>
        <time>2021-06-27T19:05:24.000Z</time>
        <extensions>
          <ns3:TrackPointExtension>
            <ns3:atemp>31.0</ns3:atemp>
            <ns3:hr>69</ns3:hr>
          </ns3:TrackPointExtension>
        </extensions>
      </trkpt>
      <trkpt lat="36.8222741223871707916259765625" lon="-118.39427568018436431884765625">
        <ele>3732.199951171875</ele>
        <time>2021-06-27T19:05:32.000Z</time>
        <extensions>
          <ns3:TrackPointExtension>
            <ns3:atemp>32.0</ns3:atemp>
            <ns3:hr>71</ns3:hr>
          </ns3:TrackPointExtension>
        </extensions>
      </trkpt>
      <trkpt lat="36.82227252982556819915771484375" lon="-118.39428238570690155029296875">
        <ele>3731.800048828125</ele>
        <time>2021-06-27T19:05:46.000Z</time>
        <extensions>
          <ns3:TrackPointExtension>
            <ns3:atemp>32.0</ns3:atemp>
            <ns3:hr>74</ns3:hr>
          </ns3:TrackPointExtension>
        </extensions>
      </trkpt>
      <trkpt lat="36.8222711049020290374755859375" lon="-118.3942835591733455657958984375">
        <ele>3731.199951171875</ele>
        <time>2021-06-27T19:05:49.000Z</time>
        <extensions>
          <ns3:TrackPointExtension>
            <ns3:atemp>32.0</ns3:atemp>
            <ns3:hr>76</ns3:hr>
          </ns3:TrackPointExtension>
        </extensions>
      </trkpt>
      <trkpt lat="36.82226800359785556793212890625" lon="-118.39428448118269443511962890625">
        <ele>3729.800048828125</ele>
        <time>2021-06-27T19:05:53.000Z</time>
        <extensions>
          <ns3:TrackPointExtension>
            <ns3:atemp>32.0</ns3:atemp>
            <ns3:hr>76</ns3:hr>
          </ns3:TrackPointExtension>
        </extensions>
      </trkpt>
      <trkpt lat="36.8222670815885066986083984375" lon="-118.3942872472107410430908203125">
        <ele>3728.800048828125</ele>
        <time>2021-06-27T19:05:57.000Z</time>
        <extensions>
          <ns3:TrackPointExtension>
            <ns3:atemp>32.0</ns3:atemp>
            <ns3:hr>76</ns3:hr>
          </ns3:TrackPointExtension>
        </extensions>
      </trkpt>
      <trkpt lat="36.8222600407898426055908203125" lon="-118.39435120113193988800048828125">
        <ele>3728</ele>
        <time>2021-06-27T19:06:03.000Z</time>
        <extensions>
          <ns3:TrackPointExtension>
            <ns3:atemp>32.0</ns3:atemp>
            <ns3:hr>76</ns3:hr>
          </ns3:TrackPointExtension>
        </extensions>
      </trkpt>
      <trkpt lat="36.8222523294389247894287109375" lon="-118.3943720720708370208740234375">
        <ele>3727.800048828125</ele>
        <time>2021-06-27T19:06:05.000Z</time>
        <extensions>
          <ns3:TrackPointExtension>
            <ns3:atemp>32.0</ns3:atemp>
            <ns3:hr>76</ns3:hr>
          </ns3:TrackPointExtension>
        </extensions>
      </trkpt>
      <trkpt lat="36.822258196771144866943359375" lon="-118.39440249837934970855712890625">
        <ele>3727.199951171875</ele>
        <time>2021-06-27T19:06:12.000Z</time>
        <extensions>
          <ns3:TrackPointExtension>
            <ns3:atemp>31.0</ns3:atemp>
            <ns3:hr>76</ns3:hr>
          </ns3:TrackPointExtension>
        </extensions>
      </trkpt>
      <trkpt lat="36.8222379125654697418212890625" lon="-118.39441272430121898651123046875">
        <ele>3726.39990234375</ele>
        <time>2021-06-27T19:06:17.000Z</time>
        <extensions>
          <ns3:TrackPointExtension>
            <ns3:atemp>31.0</ns3:atemp>
            <ns3:hr>75</ns3:hr>
          </ns3:TrackPointExtension>
        </extensions>
      </trkpt>
      <trkpt lat="36.8222359009087085723876953125" lon="-118.394419848918914794921875">
        <ele>3726.39990234375</ele>
        <time>2021-06-27T19:06:18.000Z</time>
        <extensions>
          <ns3:TrackPointExtension>
            <ns3:atemp>31.0</ns3:atemp>
            <ns3:hr>75</ns3:hr>
          </ns3:TrackPointExtension>
        </extensions>
      </trkpt>
      <trkpt lat="36.82222567498683929443359375" lon="-118.39446268044412136077880859375">
        <ele>3725.39990234375</ele>
        <time>2021-06-27T19:06:23.000Z</time>
        <extensions>
          <ns3:TrackPointExtension>
            <ns3:atemp>31.0</ns3:atemp>
            <ns3:hr>75</ns3:hr>
          </ns3:TrackPointExtension>
        </extensions>
      </trkpt>
      <trkpt lat="36.82222844101488590240478515625" lon="-118.39448489248752593994140625">
        <ele>3724.60009765625</ele>
        <time>2021-06-27T19:06:27.000Z</time>
        <extensions>
          <ns3:TrackPointExtension>
            <ns3:atemp>31.0</ns3:atemp>
            <ns3:hr>76</ns3:hr>
          </ns3:TrackPointExtension>
        </extensions>
      </trkpt>
      <trkpt lat="36.82224310934543609619140625" lon="-118.39449654333293437957763671875">
        <ele>3724.199951171875</ele>
        <time>2021-06-27T19:06:33.000Z</time>
        <extensions>
          <ns3:TrackPointExtension>
            <ns3:atemp>31.0</ns3:atemp>
            <ns3:hr>78</ns3:hr>
          </ns3:TrackPointExtension>
        </extensions>
      </trkpt>
      <trkpt lat="36.82224151678383350372314453125" lon="-118.394516743719577789306640625">
        <ele>3723.199951171875</ele>
        <time>2021-06-27T19:06:39.000Z</time>
        <extensions>
          <ns3:TrackPointExtension>
            <ns3:atemp>31.0</ns3:atemp>
            <ns3:hr>77</ns3:hr>
          </ns3:TrackPointExtension>
        </extensions>
      </trkpt>
      <trkpt lat="36.82224805466830730438232421875" lon="-118.39451431296765804290771484375">
        <ele>3723.199951171875</ele>
        <time>2021-06-27T19:07:04.000Z</time>
        <extensions>
          <ns3:TrackPointExtension>
            <ns3:atemp>31.0</ns3:atemp>
            <ns3:hr>74</ns3:hr>
          </ns3:TrackPointExtension>
        </extensions>
      </trkpt>
      <trkpt lat="36.82224805466830730438232421875" lon="-118.3945135585963726043701171875">
        <ele>3722</ele>
        <time>2021-06-27T19:07:07.000Z</time>
        <extensions>
          <ns3:TrackPointExtension>
            <ns3:atemp>31.0</ns3:atemp>
            <ns3:hr>74</ns3:hr>
          </ns3:TrackPointExtension>
        </extensions>
      </trkpt>
      <trkpt lat="36.82224805466830730438232421875" lon="-118.39451330713927745819091796875">
        <ele>3720.800048828125</ele>
        <time>2021-06-27T19:07:11.000Z</time>
        <extensions>
          <ns3:TrackPointExtension>
            <ns3:atemp>31.0</ns3:atemp>
            <ns3:hr>74</ns3:hr>
          </ns3:TrackPointExtension>
        </extensions>
      </trkpt>
      <trkpt lat="36.82224805466830730438232421875" lon="-118.39451573789119720458984375">
        <ele>3719.800048828125</ele>
        <time>2021-06-27T19:07:16.000Z</time>
        <extensions>
          <ns3:TrackPointExtension>
            <ns3:atemp>31.0</ns3:atemp>
            <ns3:hr>75</ns3:hr>
          </ns3:TrackPointExtension>
        </extensions>
      </trkpt>
      <trkpt lat="36.82223682291805744171142578125" lon="-118.3945159055292606353759765625">
        <ele>3718.60009765625</ele>
        <time>2021-06-27T19:07:21.000Z</time>
        <extensions>
          <ns3:TrackPointExtension>
            <ns3:atemp>31.0</ns3:atemp>
            <ns3:hr>73</ns3:hr>
          </ns3:TrackPointExtension>
        </extensions>
      </trkpt>
      <trkpt lat="36.82223481126129627227783203125" lon="-118.39452168904244899749755859375">
        <ele>3717.800048828125</ele>
        <time>2021-06-27T19:07:24.000Z</time>
        <extensions>
          <ns3:TrackPointExtension>
            <ns3:atemp>31.0</ns3:atemp>
            <ns3:hr>70</ns3:hr>
          </ns3:TrackPointExtension>
        </extensions>
      </trkpt>
      <trkpt lat="36.82222944684326648712158203125" lon="-118.394537530839443206787109375">
        <ele>3717.39990234375</ele>
        <time>2021-06-27T19:07:26.000Z</time>
        <extensions>
          <ns3:TrackPointExtension>
            <ns3:atemp>31.0</ns3:atemp>
            <ns3:hr>69</ns3:hr>
          </ns3:TrackPointExtension>
        </extensions>
      </trkpt>
      <trkpt lat="36.82220262475311756134033203125" lon="-118.39457097463309764862060546875">
        <ele>3716.199951171875</ele>
        <time>2021-06-27T19:07:32.000Z</time>
        <extensions>
          <ns3:TrackPointExtension>
            <ns3:atemp>31.0</ns3:atemp>
            <ns3:hr>71</ns3:hr>
          </ns3:TrackPointExtension>
        </extensions>
      </trkpt>
      <trkpt lat="36.82216658256947994232177734375" lon="-118.39458706788718700408935546875">
        <ele>3715.800048828125</ele>
        <time>2021-06-27T19:07:36.000Z</time>
        <extensions>
          <ns3:TrackPointExtension>
            <ns3:atemp>31.0</ns3:atemp>
            <ns3:hr>71</ns3:hr>
          </ns3:TrackPointExtension>
        </extensions>
      </trkpt>
      <trkpt lat="36.8221396766602993011474609375" lon="-118.3946171589195728302001953125">
        <ele>3714.800048828125</ele>
        <time>2021-06-27T19:07:39.000Z</time>
        <extensions>
          <ns3:TrackPointExtension>
            <ns3:atemp>31.0</ns3:atemp>
            <ns3:hr>71</ns3:hr>
          </ns3:TrackPointExtension>
        </extensions>
      </trkpt>
      <trkpt lat="36.8221364915370941162109375" lon="-118.3946196734905242919921875">
        <ele>3714.39990234375</ele>
        <time>2021-06-27T19:07:41.000Z</time>
        <extensions>
          <ns3:TrackPointExtension>
            <ns3:atemp>31.0</ns3:atemp>
            <ns3:hr>74</ns3:hr>
          </ns3:TrackPointExtension>
        </extensions>
      </trkpt>
      <trkpt lat="36.82213322259485721588134765625" lon="-118.3946196734905242919921875">
        <ele>3714.199951171875</ele>
        <time>2021-06-27T19:07:42.000Z</time>
        <extensions>
          <ns3:TrackPointExtension>
            <ns3:atemp>31.0</ns3:atemp>
            <ns3:hr>72</ns3:hr>
          </ns3:TrackPointExtension>
        </extensions>
      </trkpt>
      <trkpt lat="36.822124756872653961181640625" lon="-118.39461824856698513031005859375">
        <ele>3713.60009765625</ele>
        <time>2021-06-27T19:07:45.000Z</time>
        <extensions>
          <ns3:TrackPointExtension>
            <ns3:atemp>31.0</ns3:atemp>
            <ns3:hr>72</ns3:hr>
          </ns3:TrackPointExtension>
        </extensions>
      </trkpt>
      <trkpt lat="36.82213473133742809295654296875" lon="-118.39461925439536571502685546875">
        <ele>3713.199951171875</ele>
        <time>2021-06-27T19:07:48.000Z</time>
        <extensions>
          <ns3:TrackPointExtension>
            <ns3:atemp>31.0</ns3:atemp>
            <ns3:hr>74</ns3:hr>
          </ns3:TrackPointExtension>
        </extensions>
      </trkpt>
      <trkpt lat="36.82213473133742809295654296875" lon="-118.39461925439536571502685546875">
        <ele>3712.800048828125</ele>
        <time>2021-06-27T19:07:56.000Z</time>
        <extensions>
          <ns3:TrackPointExtension>
            <ns3:atemp>31.0</ns3:atemp>
            <ns3:hr>77</ns3:hr>
          </ns3:TrackPointExtension>
        </extensions>
      </trkpt>
      <trkpt lat="36.82213473133742809295654296875" lon="-118.39461925439536571502685546875">
        <ele>3712.800048828125</ele>
        <time>2021-06-27T19:07:58.000Z</time>
        <extensions>
          <ns3:TrackPointExtension>
            <ns3:atemp>31.0</ns3:atemp>
            <ns3:hr>81</ns3:hr>
          </ns3:TrackPointExtension>
        </extensions>
      </trkpt>
      <trkpt lat="36.82213473133742809295654296875" lon="-118.39461942203342914581298828125">
        <ele>3712.800048828125</ele>
        <time>2021-06-27T19:08:00.000Z</time>
        <extensions>
          <ns3:TrackPointExtension>
            <ns3:atemp>31.0</ns3:atemp>
            <ns3:hr>84</ns3:hr>
          </ns3:TrackPointExtension>
        </extensions>
      </trkpt>
      <trkpt lat="36.82213473133742809295654296875" lon="-118.3946196734905242919921875">
        <ele>3712.60009765625</ele>
        <time>2021-06-27T19:08:02.000Z</time>
        <extensions>
          <ns3:TrackPointExtension>
            <ns3:atemp>31.0</ns3:atemp>
            <ns3:hr>88</ns3:hr>
          </ns3:TrackPointExtension>
        </extensions>
      </trkpt>
      <trkpt lat="36.82213473133742809295654296875" lon="-118.39462026022374629974365234375">
        <ele>3712.39990234375</ele>
        <time>2021-06-27T19:08:03.000Z</time>
        <extensions>
          <ns3:TrackPointExtension>
            <ns3:atemp>31.0</ns3:atemp>
            <ns3:hr>91</ns3:hr>
          </ns3:TrackPointExtension>
        </extensions>
      </trkpt>
      <trkpt lat="36.82213624007999897003173828125" lon="-118.39462931267917156219482421875">
        <ele>3712.39990234375</ele>
        <time>2021-06-27T19:08:05.000Z</time>
        <extensions>
          <ns3:TrackPointExtension>
            <ns3:atemp>31.0</ns3:atemp>
            <ns3:hr>95</ns3:hr>
          </ns3:TrackPointExtension>
        </extensions>
      </trkpt>
      <trkpt lat="36.8221369944512844085693359375" lon="-118.39463350363075733184814453125">
        <ele>3712.39990234375</ele>
        <time>2021-06-27T19:08:08.000Z</time>
        <extensions>
          <ns3:TrackPointExtension>
            <ns3:atemp>31.0</ns3:atemp>
            <ns3:hr>98</ns3:hr>
          </ns3:TrackPointExtension>
        </extensions>
      </trkpt>
      <trkpt lat="36.82213808409869670867919921875" lon="-118.39463618583977222442626953125">
        <ele>3712</ele>
        <time>2021-06-27T19:08:17.000Z</time>
        <extensions>
          <ns3:TrackPointExtension>
            <ns3:atemp>31.0</ns3:atemp>
            <ns3:hr>95</ns3:hr>
          </ns3:TrackPointExtension>
        </extensions>
      </trkpt>
      <trkpt lat="36.82213808409869670867919921875" lon="-118.39463618583977222442626953125">
        <ele>3711.39990234375</ele>
        <time>2021-06-27T19:08:21.000Z</time>
        <extensions>
          <ns3:TrackPointExtension>
            <ns3:atemp>31.0</ns3:atemp>
            <ns3:hr>96</ns3:hr>
          </ns3:TrackPointExtension>
        </extensions>
      </trkpt>
      <trkpt lat="36.82213808409869670867919921875" lon="-118.39463618583977222442626953125">
        <ele>3710.39990234375</ele>
        <time>2021-06-27T19:08:29.000Z</time>
        <extensions>
          <ns3:TrackPointExtension>
            <ns3:atemp>32.0</ns3:atemp>
            <ns3:hr>96</ns3:hr>
          </ns3:TrackPointExtension>
        </extensions>
      </trkpt>
      <trkpt lat="36.82212936691939830780029296875" lon="-118.39463618583977222442626953125">
        <ele>3709.39990234375</ele>
        <time>2021-06-27T19:08:35.000Z</time>
        <extensions>
          <ns3:TrackPointExtension>
            <ns3:atemp>32.0</ns3:atemp>
            <ns3:hr>93</ns3:hr>
          </ns3:TrackPointExtension>
        </extensions>
      </trkpt>
      <trkpt lat="36.82211712934076786041259765625" lon="-118.39463618583977222442626953125">
        <ele>3709</ele>
        <time>2021-06-27T19:08:37.000Z</time>
        <extensions>
          <ns3:TrackPointExtension>
            <ns3:atemp>32.0</ns3:atemp>
            <ns3:hr>92</ns3:hr>
          </ns3:TrackPointExtension>
        </extensions>
      </trkpt>
      <trkpt lat="36.82211159728467464447021484375" lon="-118.39463652111589908599853515625">
        <ele>3708.39990234375</ele>
        <time>2021-06-27T19:08:39.000Z</time>
        <extensions>
          <ns3:TrackPointExtension>
            <ns3:atemp>32.0</ns3:atemp>
            <ns3:hr>89</ns3:hr>
          </ns3:TrackPointExtension>
        </extensions>
      </trkpt>
      <trkpt lat="36.82210640050470829010009765625" lon="-118.39463685639202594757080078125">
        <ele>3708</ele>
        <time>2021-06-27T19:08:41.000Z</time>
        <extensions>
          <ns3:TrackPointExtension>
            <ns3:atemp>32.0</ns3:atemp>
            <ns3:hr>88</ns3:hr>
          </ns3:TrackPointExtension>
        </extensions>
      </trkpt>
      <trkpt lat="36.82209961116313934326171875" lon="-118.394657559692859649658203125">
        <ele>3706.199951171875</ele>
        <time>2021-06-27T19:08:48.000Z</time>
        <extensions>
          <ns3:TrackPointExtension>
            <ns3:atemp>32.0</ns3:atemp>
            <ns3:hr>85</ns3:hr>
          </ns3:TrackPointExtension>
        </extensions>
      </trkpt>
      <trkpt lat="36.822070777416229248046875" lon="-118.3946858905255794525146484375">
        <ele>3705</ele>
        <time>2021-06-27T19:09:05.000Z</time>
        <extensions>
          <ns3:TrackPointExtension>
            <ns3:atemp>31.0</ns3:atemp>
            <ns3:hr>85</ns3:hr>
          </ns3:TrackPointExtension>
        </extensions>
      </trkpt>
      <trkpt lat="36.82206616736948490142822265625" lon="-118.3946932666003704071044921875">
        <ele>3703.800048828125</ele>
        <time>2021-06-27T19:09:10.000Z</time>
        <extensions>
          <ns3:TrackPointExtension>
            <ns3:atemp>31.0</ns3:atemp>
            <ns3:hr>85</ns3:hr>
          </ns3:TrackPointExtension>
        </extensions>
      </trkpt>
      <trkpt lat="36.82206432335078716278076171875" lon="-118.39469368569552898406982421875">
        <ele>3702.60009765625</ele>
        <time>2021-06-27T19:09:13.000Z</time>
        <extensions>
          <ns3:TrackPointExtension>
            <ns3:atemp>31.0</ns3:atemp>
            <ns3:hr>84</ns3:hr>
          </ns3:TrackPointExtension>
        </extensions>
      </trkpt>
      <trkpt lat="36.822015456855297088623046875" lon="-118.39469955302774906158447265625">
        <ele>3701.39990234375</ele>
        <time>2021-06-27T19:09:28.000Z</time>
        <extensions>
          <ns3:TrackPointExtension>
            <ns3:atemp>31.0</ns3:atemp>
            <ns3:hr>84</ns3:hr>
          </ns3:TrackPointExtension>
        </extensions>
      </trkpt>
      <trkpt lat="36.82200581766664981842041015625" lon="-118.39475386776030063629150390625">
        <ele>3700.39990234375</ele>
        <time>2021-06-27T19:09:39.000Z</time>
        <extensions>
          <ns3:TrackPointExtension>
            <ns3:atemp>31.0</ns3:atemp>
            <ns3:hr>82</ns3:hr>
          </ns3:TrackPointExtension>
        </extensions>
      </trkpt>
      <trkpt lat="36.8219857849180698394775390625" lon="-118.39480734430253505706787109375">
        <ele>3700.39990234375</ele>
        <time>2021-06-27T19:09:55.000Z</time>
        <extensions>
          <ns3:TrackPointExtension>
            <ns3:atemp>31.0</ns3:atemp>
            <ns3:hr>84</ns3:hr>
          </ns3:TrackPointExtension>
        </extensions>
      </trkpt>
      <trkpt lat="36.82198519818484783172607421875" lon="-118.39480851776897907257080078125">
        <ele>3701.199951171875</ele>
        <time>2021-06-27T19:10:01.000Z</time>
        <extensions>
          <ns3:TrackPointExtension>
            <ns3:atemp>31.0</ns3:atemp>
            <ns3:hr>88</ns3:hr>
          </ns3:TrackPointExtension>
        </extensions>
      </trkpt>
      <trkpt lat="36.82198620401322841644287109375" lon="-118.3948047459125518798828125">
        <ele>3701</ele>
        <time>2021-06-27T19:10:07.000Z</time>
        <extensions>
          <ns3:TrackPointExtension>
            <ns3:atemp>31.0</ns3:atemp>
            <ns3:hr>91</ns3:hr>
          </ns3:TrackPointExtension>
        </extensions>
      </trkpt>
      <trkpt lat="36.8219891376793384552001953125" lon="-118.39480181224644184112548828125">
        <ele>3700.800048828125</ele>
        <time>2021-06-27T19:10:09.000Z</time>
        <extensions>
          <ns3:TrackPointExtension>
            <ns3:atemp>31.0</ns3:atemp>
            <ns3:hr>94</ns3:hr>
          </ns3:TrackPointExtension>
        </extensions>
      </trkpt>
      <trkpt lat="36.82199223898351192474365234375" lon="-118.39479376561939716339111328125">
        <ele>3699.199951171875</ele>
        <time>2021-06-27T19:10:15.000Z</time>
        <extensions>
          <ns3:TrackPointExtension>
            <ns3:atemp>31.0</ns3:atemp>
            <ns3:hr>95</ns3:hr>
          </ns3:TrackPointExtension>
        </extensions>
      </trkpt>
      <trkpt lat="36.82199257425963878631591796875" lon="-118.394782952964305877685546875">
        <ele>3698.800048828125</ele>
        <time>2021-06-27T19:10:19.000Z</time>
        <extensions>
          <ns3:TrackPointExtension>
            <ns3:atemp>31.0</ns3:atemp>
            <ns3:hr>92</ns3:hr>
          </ns3:TrackPointExtension>
        </extensions>
      </trkpt>
      <trkpt lat="36.82199274189770221710205078125" lon="-118.39477582834661006927490234375">
        <ele>3697.800048828125</ele>
        <time>2021-06-27T19:10:24.000Z</time>
        <extensions>
          <ns3:TrackPointExtension>
            <ns3:atemp>31.0</ns3:atemp>
            <ns3:hr>90</ns3:hr>
          </ns3:TrackPointExtension>
        </extensions>
      </trkpt>
      <trkpt lat="36.82198687456548213958740234375" lon="-118.3947737328708171844482421875">
        <ele>3697.39990234375</ele>
        <time>2021-06-27T19:10:30.000Z</time>
        <extensions>
          <ns3:TrackPointExtension>
            <ns3:atemp>31.0</ns3:atemp>
            <ns3:hr>87</ns3:hr>
          </ns3:TrackPointExtension>
        </extensions>
      </trkpt>
      <trkpt lat="36.82198167778551578521728515625" lon="-118.39477348141372203826904296875">
        <ele>3696.39990234375</ele>
        <time>2021-06-27T19:10:34.000Z</time>
        <extensions>
          <ns3:TrackPointExtension>
            <ns3:atemp>31.0</ns3:atemp>
            <ns3:hr>86</ns3:hr>
          </ns3:TrackPointExtension>
        </extensions>
      </trkpt>
      <trkpt lat="36.82196876965463161468505859375" lon="-118.3947765827178955078125">
        <ele>3695.199951171875</ele>
        <time>2021-06-27T19:10:39.000Z</time>
        <extensions>
          <ns3:TrackPointExtension>
            <ns3:atemp>31.0</ns3:atemp>
            <ns3:hr>87</ns3:hr>
          </ns3:TrackPointExtension>
        </extensions>
      </trkpt>
      <trkpt lat="36.8219556100666522979736328125" lon="-118.39479007758200168609619140625">
        <ele>3693.800048828125</ele>
        <time>2021-06-27T19:10:47.000Z</time>
        <extensions>
          <ns3:TrackPointExtension>
            <ns3:atemp>31.0</ns3:atemp>
            <ns3:hr>89</ns3:hr>
          </ns3:TrackPointExtension>
        </extensions>
      </trkpt>
      <trkpt lat="36.82194664143025875091552734375" lon="-118.39480717666447162628173828125">
        <ele>3692.199951171875</ele>
        <time>2021-06-27T19:10:56.000Z</time>
        <extensions>
          <ns3:TrackPointExtension>
            <ns3:atemp>31.0</ns3:atemp>
            <ns3:hr>87</ns3:hr>
          </ns3:TrackPointExtension>
        </extensions>
      </trkpt>
      <trkpt lat="36.8219405226409435272216796875" lon="-118.3948163129389286041259765625">
        <ele>3691</ele>
        <time>2021-06-27T19:11:03.000Z</time>
        <extensions>
          <ns3:TrackPointExtension>
            <ns3:atemp>31.0</ns3:atemp>
            <ns3:hr>86</ns3:hr>
          </ns3:TrackPointExtension>
        </extensions>
      </trkpt>
      <trkpt lat="36.82193733751773834228515625" lon="-118.3948200009763240814208984375">
        <ele>3690</ele>
        <time>2021-06-27T19:11:08.000Z</time>
        <extensions>
          <ns3:TrackPointExtension>
            <ns3:atemp>31.0</ns3:atemp>
            <ns3:hr>84</ns3:hr>
          </ns3:TrackPointExtension>
        </extensions>
      </trkpt>
      <trkpt lat="36.82193691842257976531982421875" lon="-118.39482042007148265838623046875">
        <ele>3689</ele>
        <time>2021-06-27T19:11:13.000Z</time>
        <extensions>
          <ns3:TrackPointExtension>
            <ns3:atemp>31.0</ns3:atemp>
            <ns3:hr>87</ns3:hr>
          </ns3:TrackPointExtension>
        </extensions>
      </trkpt>
      <trkpt lat="36.8219368346035480499267578125" lon="-118.394820503890514373779296875">
        <ele>3688.60009765625</ele>
        <time>2021-06-27T19:11:14.000Z</time>
        <extensions>
          <ns3:TrackPointExtension>
            <ns3:atemp>31.0</ns3:atemp>
            <ns3:hr>86</ns3:hr>
          </ns3:TrackPointExtension>
        </extensions>
      </trkpt>
      <trkpt lat="36.82193658314645290374755859375" lon="-118.3948206715285778045654296875">
        <ele>3687.60009765625</ele>
        <time>2021-06-27T19:11:16.000Z</time>
        <extensions>
          <ns3:TrackPointExtension>
            <ns3:atemp>31.0</ns3:atemp>
            <ns3:hr>85</ns3:hr>
          </ns3:TrackPointExtension>
        </extensions>
      </trkpt>
      <trkpt lat="36.82193599641323089599609375" lon="-118.39482109062373638153076171875">
        <ele>3686.39990234375</ele>
        <time>2021-06-27T19:11:21.000Z</time>
        <extensions>
          <ns3:TrackPointExtension>
            <ns3:atemp>31.0</ns3:atemp>
            <ns3:hr>86</ns3:hr>
          </ns3:TrackPointExtension>
        </extensions>
      </trkpt>
      <trkpt lat="36.8219328112900257110595703125" lon="-118.39482343755662441253662109375">
        <ele>3685.800048828125</ele>
        <time>2021-06-27T19:11:40.000Z</time>
        <extensions>
          <ns3:TrackPointExtension>
            <ns3:atemp>31.0</ns3:atemp>
            <ns3:hr>89</ns3:hr>
          </ns3:TrackPointExtension>
        </extensions>
      </trkpt>
      <trkpt lat="36.82193222455680370330810546875" lon="-118.394823856651782989501953125">
        <ele>3685.199951171875</ele>
        <time>2021-06-27T19:11:43.000Z</time>
        <extensions>
          <ns3:TrackPointExtension>
            <ns3:atemp>31.0</ns3:atemp>
            <ns3:hr>89</ns3:hr>
          </ns3:TrackPointExtension>
        </extensions>
      </trkpt>
      <trkpt lat="36.82193105109035968780517578125" lon="-118.39482477866113185882568359375">
        <ele>3685.39990234375</ele>
        <time>2021-06-27T19:11:49.000Z</time>
        <extensions>
          <ns3:TrackPointExtension>
            <ns3:atemp>31.0</ns3:atemp>
            <ns3:hr>92</ns3:hr>
          </ns3:TrackPointExtension>
        </extensions>
      </trkpt>
      <trkpt lat="36.8219281174242496490478515625" lon="-118.3948263712227344512939453125">
        <ele>3684.60009765625</ele>
        <time>2021-06-27T19:12:02.000Z</time>
        <extensions>
          <ns3:TrackPointExtension>
            <ns3:atemp>31.0</ns3:atemp>
            <ns3:hr>88</ns3:hr>
          </ns3:TrackPointExtension>
        </extensions>
      </trkpt>
      <trkpt lat="36.82192794978618621826171875" lon="-118.394826538860797882080078125">
        <ele>3684.60009765625</ele>
        <time>2021-06-27T19:12:03.000Z</time>
        <extensions>
          <ns3:TrackPointExtension>
            <ns3:atemp>31.0</ns3:atemp>
            <ns3:hr>91</ns3:hr>
          </ns3:TrackPointExtension>
        </extensions>
      </trkpt>
      <trkpt lat="36.8219272792339324951171875" lon="-118.39482687413692474365234375">
        <ele>3684.800048828125</ele>
        <time>2021-06-27T19:12:06.000Z</time>
        <extensions>
          <ns3:TrackPointExtension>
            <ns3:atemp>31.0</ns3:atemp>
            <ns3:hr>88</ns3:hr>
          </ns3:TrackPointExtension>
        </extensions>
      </trkpt>
      <trkpt lat="36.82192585431039333343505859375" lon="-118.39482762850821018218994140625">
        <ele>3685</ele>
        <time>2021-06-27T19:12:12.000Z</time>
        <extensions>
          <ns3:TrackPointExtension>
            <ns3:atemp>31.0</ns3:atemp>
            <ns3:hr>85</ns3:hr>
          </ns3:TrackPointExtension>
        </extensions>
      </trkpt>
      <trkpt lat="36.82192434556782245635986328125" lon="-118.39482829906046390533447265625">
        <ele>3684.199951171875</ele>
        <time>2021-06-27T19:12:18.000Z</time>
        <extensions>
          <ns3:TrackPointExtension>
            <ns3:atemp>31.0</ns3:atemp>
            <ns3:hr>83</ns3:hr>
          </ns3:TrackPointExtension>
        </extensions>
      </trkpt>
      <trkpt lat="36.8219049833714962005615234375" lon="-118.39483357965946197509765625">
        <ele>3683</ele>
        <time>2021-06-27T19:12:23.000Z</time>
        <extensions>
          <ns3:TrackPointExtension>
            <ns3:atemp>31.0</ns3:atemp>
            <ns3:hr>84</ns3:hr>
          </ns3:TrackPointExtension>
        </extensions>
      </trkpt>
      <trkpt lat="36.82184287346899509429931640625" lon="-118.39484841562807559967041015625">
        <ele>3681.800048828125</ele>
        <time>2021-06-27T19:12:26.000Z</time>
        <extensions>
          <ns3:TrackPointExtension>
            <ns3:atemp>31.0</ns3:atemp>
            <ns3:hr>84</ns3:hr>
          </ns3:TrackPointExtension>
        </extensions>
      </trkpt>
      <trkpt lat="36.82179761119186878204345703125" lon="-118.394852019846439361572265625">
        <ele>3681.39990234375</ele>
        <time>2021-06-27T19:12:28.000Z</time>
        <extensions>
          <ns3:TrackPointExtension>
            <ns3:atemp>31.0</ns3:atemp>
            <ns3:hr>84</ns3:hr>
          </ns3:TrackPointExtension>
        </extensions>
      </trkpt>
      <trkpt lat="36.8217088468372821807861328125" lon="-118.3948853798210620880126953125">
        <ele>3680.60009765625</ele>
        <time>2021-06-27T19:12:32.000Z</time>
        <extensions>
          <ns3:TrackPointExtension>
            <ns3:atemp>31.0</ns3:atemp>
            <ns3:hr>87</ns3:hr>
          </ns3:TrackPointExtension>
        </extensions>
      </trkpt>
      <trkpt lat="36.82170574553310871124267578125" lon="-118.39490105397999286651611328125">
        <ele>3680.39990234375</ele>
        <time>2021-06-27T19:12:34.000Z</time>
        <extensions>
          <ns3:TrackPointExtension>
            <ns3:atemp>31.0</ns3:atemp>
            <ns3:hr>90</ns3:hr>
          </ns3:TrackPointExtension>
        </extensions>
      </trkpt>
      <trkpt lat="36.82170675136148929595947265625" lon="-118.39490692131221294403076171875">
        <ele>3679.39990234375</ele>
        <time>2021-06-27T19:12:35.000Z</time>
        <extensions>
          <ns3:TrackPointExtension>
            <ns3:atemp>31.0</ns3:atemp>
            <ns3:hr>92</ns3:hr>
          </ns3:TrackPointExtension>
        </extensions>
      </trkpt>
      <trkpt lat="36.82171261869370937347412109375" lon="-118.39491270482540130615234375">
        <ele>3679</ele>
        <time>2021-06-27T19:12:38.000Z</time>
        <extensions>
          <ns3:TrackPointExtension>
            <ns3:atemp>31.0</ns3:atemp>
            <ns3:hr>95</ns3:hr>
          </ns3:TrackPointExtension>
        </extensions>
      </trkpt>
      <trkpt lat="36.8217091821134090423583984375" lon="-118.39491345919668674468994140625">
        <ele>3679</ele>
        <time>2021-06-27T19:12:40.000Z</time>
        <extensions>
          <ns3:TrackPointExtension>
            <ns3:atemp>31.0</ns3:atemp>
            <ns3:hr>98</ns3:hr>
          </ns3:TrackPointExtension>
        </extensions>
      </trkpt>
      <trkpt lat="36.8217115290462970733642578125" lon="-118.39491111226379871368408203125">
        <ele>3679</ele>
        <time>2021-06-27T19:12:41.000Z</time>
        <extensions>
          <ns3:TrackPointExtension>
            <ns3:atemp>31.0</ns3:atemp>
            <ns3:hr>101</ns3:hr>
          </ns3:TrackPointExtension>
        </extensions>
      </trkpt>
      <trkpt lat="36.8217115290462970733642578125" lon="-118.39491111226379871368408203125">
        <ele>3678.800048828125</ele>
        <time>2021-06-27T19:12:42.000Z</time>
        <extensions>
          <ns3:TrackPointExtension>
            <ns3:atemp>31.0</ns3:atemp>
            <ns3:hr>104</ns3:hr>
          </ns3:TrackPointExtension>
        </extensions>
      </trkpt>
      <trkpt lat="36.8217115290462970733642578125" lon="-118.39491111226379871368408203125">
        <ele>3678.800048828125</ele>
        <time>2021-06-27T19:12:43.000Z</time>
        <extensions>
          <ns3:TrackPointExtension>
            <ns3:atemp>31.0</ns3:atemp>
            <ns3:hr>107</ns3:hr>
          </ns3:TrackPointExtension>
        </extensions>
      </trkpt>
      <trkpt lat="36.8217115290462970733642578125" lon="-118.39491111226379871368408203125">
        <ele>3678.800048828125</ele>
        <time>2021-06-27T19:12:45.000Z</time>
        <extensions>
          <ns3:TrackPointExtension>
            <ns3:atemp>31.0</ns3:atemp>
            <ns3:hr>111</ns3:hr>
          </ns3:TrackPointExtension>
        </extensions>
      </trkpt>
      <trkpt lat="36.8217115290462970733642578125" lon="-118.39491111226379871368408203125">
        <ele>3678.199951171875</ele>
        <time>2021-06-27T19:12:47.000Z</time>
        <extensions>
          <ns3:TrackPointExtension>
            <ns3:atemp>31.0</ns3:atemp>
            <ns3:hr>113</ns3:hr>
          </ns3:TrackPointExtension>
        </extensions>
      </trkpt>
      <trkpt lat="36.82171010412275791168212890625" lon="-118.39491245336830615997314453125">
        <ele>3676.60009765625</ele>
        <time>2021-06-27T19:12:54.000Z</time>
        <extensions>
          <ns3:TrackPointExtension>
            <ns3:atemp>31.0</ns3:atemp>
            <ns3:hr>111</ns3:hr>
          </ns3:TrackPointExtension>
        </extensions>
      </trkpt>
      <trkpt lat="36.82170675136148929595947265625" lon="-118.39491563849151134490966796875">
        <ele>3675.39990234375</ele>
        <time>2021-06-27T19:12:59.000Z</time>
        <extensions>
          <ns3:TrackPointExtension>
            <ns3:atemp>31.0</ns3:atemp>
            <ns3:hr>110</ns3:hr>
          </ns3:TrackPointExtension>
        </extensions>
      </trkpt>
      <trkpt lat="36.82168881408870220184326171875" lon="-118.39493843726813793182373046875">
        <ele>3674.199951171875</ele>
        <time>2021-06-27T19:13:07.000Z</time>
        <extensions>
          <ns3:TrackPointExtension>
            <ns3:atemp>31.0</ns3:atemp>
            <ns3:hr>108</ns3:hr>
          </ns3:TrackPointExtension>
        </extensions>
      </trkpt>
      <trkpt lat="36.82167171500623226165771484375" lon="-118.39498135261237621307373046875">
        <ele>3673.199951171875</ele>
        <time>2021-06-27T19:13:15.000Z</time>
        <extensions>
          <ns3:TrackPointExtension>
            <ns3:atemp>31.0</ns3:atemp>
            <ns3:hr>105</ns3:hr>
          </ns3:TrackPointExtension>
        </extensions>
      </trkpt>
      <trkpt lat="36.82167154736816883087158203125" lon="-118.39498244225978851318359375">
        <ele>3673</ele>
        <time>2021-06-27T19:13:16.000Z</time>
        <extensions>
          <ns3:TrackPointExtension>
            <ns3:atemp>31.0</ns3:atemp>
            <ns3:hr>105</ns3:hr>
          </ns3:TrackPointExtension>
        </extensions>
      </trkpt>
      <trkpt lat="36.821663416922092437744140625" lon="-118.39499585330486297607421875">
        <ele>3672.199951171875</ele>
        <time>2021-06-27T19:13:21.000Z</time>
        <extensions>
          <ns3:TrackPointExtension>
            <ns3:atemp>31.0</ns3:atemp>
            <ns3:hr>102</ns3:hr>
          </ns3:TrackPointExtension>
        </extensions>
      </trkpt>
      <trkpt lat="36.82165838778018951416015625" lon="-118.39501437731087207794189453125">
        <ele>3672</ele>
        <time>2021-06-27T19:13:33.000Z</time>
        <extensions>
          <ns3:TrackPointExtension>
            <ns3:atemp>31.0</ns3:atemp>
            <ns3:hr>100</ns3:hr>
          </ns3:TrackPointExtension>
        </extensions>
      </trkpt>
      <trkpt lat="36.82165838778018951416015625" lon="-118.39501454494893550872802734375">
        <ele>3672</ele>
        <time>2021-06-27T19:13:36.000Z</time>
        <extensions>
          <ns3:TrackPointExtension>
            <ns3:atemp>31.0</ns3:atemp>
            <ns3:hr>97</ns3:hr>
          </ns3:TrackPointExtension>
        </extensions>
      </trkpt>
      <trkpt lat="36.82165838778018951416015625" lon="-118.39501555077731609344482421875">
        <ele>3672.39990234375</ele>
        <time>2021-06-27T19:13:38.000Z</time>
        <extensions>
          <ns3:TrackPointExtension>
            <ns3:atemp>31.0</ns3:atemp>
            <ns3:hr>93</ns3:hr>
          </ns3:TrackPointExtension>
        </extensions>
      </trkpt>
      <trkpt lat="36.82165780104696750640869140625" lon="-118.395017646253108978271484375">
        <ele>3672.199951171875</ele>
        <time>2021-06-27T19:13:43.000Z</time>
        <extensions>
          <ns3:TrackPointExtension>
            <ns3:atemp>31.0</ns3:atemp>
            <ns3:hr>90</ns3:hr>
          </ns3:TrackPointExtension>
        </extensions>
      </trkpt>
      <trkpt lat="36.8216488324105739593505859375" lon="-118.3950251899659633636474609375">
        <ele>3672.60009765625</ele>
        <time>2021-06-27T19:14:03.000Z</time>
        <extensions>
          <ns3:TrackPointExtension>
            <ns3:atemp>31.0</ns3:atemp>
            <ns3:hr>93</ns3:hr>
          </ns3:TrackPointExtension>
        </extensions>
      </trkpt>
      <trkpt lat="36.8216488324105739593505859375" lon="-118.3950251899659633636474609375">
        <ele>3672.60009765625</ele>
        <time>2021-06-27T19:14:06.000Z</time>
        <extensions>
          <ns3:TrackPointExtension>
            <ns3:atemp>31.0</ns3:atemp>
            <ns3:hr>96</ns3:hr>
          </ns3:TrackPointExtension>
        </extensions>
      </trkpt>
      <trkpt lat="36.8216483294963836669921875" lon="-118.3950241841375827789306640625">
        <ele>3672.39990234375</ele>
        <time>2021-06-27T19:14:12.000Z</time>
        <extensions>
          <ns3:TrackPointExtension>
            <ns3:atemp>31.0</ns3:atemp>
            <ns3:hr>99</ns3:hr>
          </ns3:TrackPointExtension>
        </extensions>
      </trkpt>
      <trkpt lat="36.8216501735150814056396484375" lon="-118.39502359740436077117919921875">
        <ele>3673</ele>
        <time>2021-06-27T19:14:19.000Z</time>
        <extensions>
          <ns3:TrackPointExtension>
            <ns3:atemp>31.0</ns3:atemp>
            <ns3:hr>96</ns3:hr>
          </ns3:TrackPointExtension>
        </extensions>
      </trkpt>
      <trkpt lat="36.82165092788636684417724609375" lon="-118.39502359740436077117919921875">
        <ele>3672.800048828125</ele>
        <time>2021-06-27T19:14:20.000Z</time>
        <extensions>
          <ns3:TrackPointExtension>
            <ns3:atemp>32.0</ns3:atemp>
            <ns3:hr>96</ns3:hr>
          </ns3:TrackPointExtension>
        </extensions>
      </trkpt>
      <trkpt lat="36.82165226899087429046630859375" lon="-118.39502359740436077117919921875">
        <ele>3673</ele>
        <time>2021-06-27T19:14:21.000Z</time>
        <extensions>
          <ns3:TrackPointExtension>
            <ns3:atemp>31.0</ns3:atemp>
            <ns3:hr>95</ns3:hr>
          </ns3:TrackPointExtension>
        </extensions>
      </trkpt>
      <trkpt lat="36.82165528647601604461669921875" lon="-118.395023345947265625">
        <ele>3672.800048828125</ele>
        <time>2021-06-27T19:14:24.000Z</time>
        <extensions>
          <ns3:TrackPointExtension>
            <ns3:atemp>31.0</ns3:atemp>
            <ns3:hr>92</ns3:hr>
          </ns3:TrackPointExtension>
        </extensions>
      </trkpt>
      <trkpt lat="36.8216565437614917755126953125" lon="-118.39502242393791675567626953125">
        <ele>3672</ele>
        <time>2021-06-27T19:14:28.000Z</time>
        <extensions>
          <ns3:TrackPointExtension>
            <ns3:atemp>31.0</ns3:atemp>
            <ns3:hr>89</ns3:hr>
          </ns3:TrackPointExtension>
        </extensions>
      </trkpt>
      <trkpt lat="36.82166417129337787628173828125" lon="-118.3950265310704708099365234375">
        <ele>3670.800048828125</ele>
        <time>2021-06-27T19:14:44.000Z</time>
        <extensions>
          <ns3:TrackPointExtension>
            <ns3:atemp>31.0</ns3:atemp>
            <ns3:hr>90</ns3:hr>
          </ns3:TrackPointExtension>
        </extensions>
      </trkpt>
      <trkpt lat="36.8216645903885364532470703125" lon="-118.3950295485556125640869140625">
        <ele>3670.39990234375</ele>
        <time>2021-06-27T19:14:47.000Z</time>
        <extensions>
          <ns3:TrackPointExtension>
            <ns3:atemp>31.0</ns3:atemp>
            <ns3:hr>91</ns3:hr>
          </ns3:TrackPointExtension>
        </extensions>
      </trkpt>
      <trkpt lat="36.821664758026599884033203125" lon="-118.39504337869584560394287109375">
        <ele>3670.39990234375</ele>
        <time>2021-06-27T19:14:54.000Z</time>
        <extensions>
          <ns3:TrackPointExtension>
            <ns3:atemp>31.0</ns3:atemp>
            <ns3:hr>94</ns3:hr>
          </ns3:TrackPointExtension>
        </extensions>
      </trkpt>
      <trkpt lat="36.821662075817584991455078125" lon="-118.395063243806362152099609375">
        <ele>3669.199951171875</ele>
        <time>2021-06-27T19:15:02.000Z</time>
        <extensions>
          <ns3:TrackPointExtension>
            <ns3:atemp>31.0</ns3:atemp>
            <ns3:hr>95</ns3:hr>
          </ns3:TrackPointExtension>
        </extensions>
      </trkpt>
      <trkpt lat="36.8216605670750141143798828125" lon="-118.3950729668140411376953125">
        <ele>3669.199951171875</ele>
        <time>2021-06-27T19:15:05.000Z</time>
        <extensions>
          <ns3:TrackPointExtension>
            <ns3:atemp>30.0</ns3:atemp>
            <ns3:hr>94</ns3:hr>
          </ns3:TrackPointExtension>
        </extensions>
      </trkpt>
      <trkpt lat="36.821646988391876220703125" lon="-118.39508193545043468475341796875">
        <ele>3669.199951171875</ele>
        <time>2021-06-27T19:15:15.000Z</time>
        <extensions>
          <ns3:TrackPointExtension>
            <ns3:atemp>30.0</ns3:atemp>
            <ns3:hr>91</ns3:hr>
          </ns3:TrackPointExtension>
        </extensions>
      </trkpt>
      <trkpt lat="36.82164388708770275115966796875" lon="-118.3950821869075298309326171875">
        <ele>3668.199951171875</ele>
        <time>2021-06-27T19:15:24.000Z</time>
        <extensions>
          <ns3:TrackPointExtension>
            <ns3:atemp>30.0</ns3:atemp>
            <ns3:hr>94</ns3:hr>
          </ns3:TrackPointExtension>
        </extensions>
      </trkpt>
      <trkpt lat="36.821641288697719573974609375" lon="-118.3950825221836566925048828125">
        <ele>3668</ele>
        <time>2021-06-27T19:15:37.000Z</time>
        <extensions>
          <ns3:TrackPointExtension>
            <ns3:atemp>30.0</ns3:atemp>
            <ns3:hr>94</ns3:hr>
          </ns3:TrackPointExtension>
        </extensions>
      </trkpt>
      <trkpt lat="36.82163936085999011993408203125" lon="-118.39508461765944957733154296875">
        <ele>3668</ele>
        <time>2021-06-27T19:15:40.000Z</time>
        <extensions>
          <ns3:TrackPointExtension>
            <ns3:atemp>30.0</ns3:atemp>
            <ns3:hr>91</ns3:hr>
          </ns3:TrackPointExtension>
        </extensions>
      </trkpt>
      <trkpt lat="36.82163835503160953521728515625" lon="-118.39508562348783016204833984375">
        <ele>3668.39990234375</ele>
        <time>2021-06-27T19:15:42.000Z</time>
        <extensions>
          <ns3:TrackPointExtension>
            <ns3:atemp>30.0</ns3:atemp>
            <ns3:hr>88</ns3:hr>
          </ns3:TrackPointExtension>
        </extensions>
      </trkpt>
      <trkpt lat="36.82162175886332988739013671875" lon="-118.39509584940969944000244140625">
        <ele>3668.60009765625</ele>
        <time>2021-06-27T19:15:53.000Z</time>
        <extensions>
          <ns3:TrackPointExtension>
            <ns3:atemp>30.0</ns3:atemp>
            <ns3:hr>87</ns3:hr>
          </ns3:TrackPointExtension>
        </extensions>
      </trkpt>
      <trkpt lat="36.82161957956850528717041015625" lon="-118.395122252404689788818359375">
        <ele>3667.199951171875</ele>
        <time>2021-06-27T19:16:00.000Z</time>
        <extensions>
          <ns3:TrackPointExtension>
            <ns3:atemp>30.0</ns3:atemp>
            <ns3:hr>87</ns3:hr>
          </ns3:TrackPointExtension>
        </extensions>
      </trkpt>
      <trkpt lat="36.8216203339397907257080078125" lon="-118.39513532817363739013671875">
        <ele>3666</ele>
        <time>2021-06-27T19:16:04.000Z</time>
        <extensions>
          <ns3:TrackPointExtension>
            <ns3:atemp>30.0</ns3:atemp>
            <ns3:hr>87</ns3:hr>
          </ns3:TrackPointExtension>
        </extensions>
      </trkpt>
      <trkpt lat="36.8216203339397907257080078125" lon="-118.39513532817363739013671875">
        <ele>3666.39990234375</ele>
        <time>2021-06-27T19:16:15.000Z</time>
        <extensions>
          <ns3:TrackPointExtension>
            <ns3:atemp>30.0</ns3:atemp>
            <ns3:hr>84</ns3:hr>
          </ns3:TrackPointExtension>
        </extensions>
      </trkpt>
      <trkpt lat="36.82161337696015834808349609375" lon="-118.3951408602297306060791015625">
        <ele>3665.60009765625</ele>
        <time>2021-06-27T19:16:27.000Z</time>
        <extensions>
          <ns3:TrackPointExtension>
            <ns3:atemp>30.0</ns3:atemp>
            <ns3:hr>87</ns3:hr>
          </ns3:TrackPointExtension>
        </extensions>
      </trkpt>
      <trkpt lat="36.82161253876984119415283203125" lon="-118.39514278806746006011962890625">
        <ele>3666</ele>
        <time>2021-06-27T19:16:36.000Z</time>
        <extensions>
          <ns3:TrackPointExtension>
            <ns3:atemp>30.0</ns3:atemp>
            <ns3:hr>90</ns3:hr>
          </ns3:TrackPointExtension>
        </extensions>
      </trkpt>
      <trkpt lat="36.8216032348573207855224609375" lon="-118.3951628208160400390625">
        <ele>3665</ele>
        <time>2021-06-27T19:16:51.000Z</time>
        <extensions>
          <ns3:TrackPointExtension>
            <ns3:atemp>30.0</ns3:atemp>
            <ns3:hr>90</ns3:hr>
          </ns3:TrackPointExtension>
        </extensions>
      </trkpt>
      <trkpt lat="36.82159745134413242340087890625" lon="-118.39517028070986270904541015625">
        <ele>3663.60009765625</ele>
        <time>2021-06-27T19:16:58.000Z</time>
        <extensions>
          <ns3:TrackPointExtension>
            <ns3:atemp>30.0</ns3:atemp>
            <ns3:hr>90</ns3:hr>
          </ns3:TrackPointExtension>
        </extensions>
      </trkpt>
      <trkpt lat="36.8215958587825298309326171875" lon="-118.3951733820140361785888671875">
        <ele>3662.800048828125</ele>
        <time>2021-06-27T19:17:03.000Z</time>
        <extensions>
          <ns3:TrackPointExtension>
            <ns3:atemp>30.0</ns3:atemp>
            <ns3:hr>87</ns3:hr>
          </ns3:TrackPointExtension>
        </extensions>
      </trkpt>
      <trkpt lat="36.82159535586833953857421875" lon="-118.39517480693757534027099609375">
        <ele>3662.39990234375</ele>
        <time>2021-06-27T19:17:04.000Z</time>
        <extensions>
          <ns3:TrackPointExtension>
            <ns3:atemp>30.0</ns3:atemp>
            <ns3:hr>88</ns3:hr>
          </ns3:TrackPointExtension>
        </extensions>
      </trkpt>
      <trkpt lat="36.8215904943645000457763671875" lon="-118.39521369896829128265380859375">
        <ele>3661.199951171875</ele>
        <time>2021-06-27T19:17:09.000Z</time>
        <extensions>
          <ns3:TrackPointExtension>
            <ns3:atemp>30.0</ns3:atemp>
            <ns3:hr>87</ns3:hr>
          </ns3:TrackPointExtension>
        </extensions>
      </trkpt>
      <trkpt lat="36.8215893208980560302734375" lon="-118.39522677473723888397216796875">
        <ele>3661.199951171875</ele>
        <time>2021-06-27T19:17:10.000Z</time>
        <extensions>
          <ns3:TrackPointExtension>
            <ns3:atemp>30.0</ns3:atemp>
            <ns3:hr>86</ns3:hr>
          </ns3:TrackPointExtension>
        </extensions>
      </trkpt>
      <trkpt lat="36.82158135809004306793212890625" lon="-118.39526583440601825714111328125">
        <ele>3660.39990234375</ele>
        <time>2021-06-27T19:17:14.000Z</time>
        <extensions>
          <ns3:TrackPointExtension>
            <ns3:atemp>30.0</ns3:atemp>
            <ns3:hr>83</ns3:hr>
          </ns3:TrackPointExtension>
        </extensions>
      </trkpt>
      <trkpt lat="36.82158529758453369140625" lon="-118.395278491079807281494140625">
        <ele>3659.800048828125</ele>
        <time>2021-06-27T19:17:16.000Z</time>
        <extensions>
          <ns3:TrackPointExtension>
            <ns3:atemp>30.0</ns3:atemp>
            <ns3:hr>85</ns3:hr>
          </ns3:TrackPointExtension>
        </extensions>
      </trkpt>
      <trkpt lat="36.82158387266099452972412109375" lon="-118.395278491079807281494140625">
        <ele>3659.60009765625</ele>
        <time>2021-06-27T19:17:17.000Z</time>
        <extensions>
          <ns3:TrackPointExtension>
            <ns3:atemp>30.0</ns3:atemp>
            <ns3:hr>86</ns3:hr>
          </ns3:TrackPointExtension>
        </extensions>
      </trkpt>
      <trkpt lat="36.821573562920093536376953125" lon="-118.395296595990657806396484375">
        <ele>3658.60009765625</ele>
        <time>2021-06-27T19:17:20.000Z</time>
        <extensions>
          <ns3:TrackPointExtension>
            <ns3:atemp>30.0</ns3:atemp>
            <ns3:hr>89</ns3:hr>
          </ns3:TrackPointExtension>
        </extensions>
      </trkpt>
      <trkpt lat="36.8215858004987239837646484375" lon="-118.39532769285142421722412109375">
        <ele>3657.800048828125</ele>
        <time>2021-06-27T19:17:24.000Z</time>
        <extensions>
          <ns3:TrackPointExtension>
            <ns3:atemp>30.0</ns3:atemp>
            <ns3:hr>92</ns3:hr>
          </ns3:TrackPointExtension>
        </extensions>
      </trkpt>
      <trkpt lat="36.82158923707902431488037109375" lon="-118.3953333087265491485595703125">
        <ele>3657.39990234375</ele>
        <time>2021-06-27T19:17:25.000Z</time>
        <extensions>
          <ns3:TrackPointExtension>
            <ns3:atemp>30.0</ns3:atemp>
            <ns3:hr>92</ns3:hr>
          </ns3:TrackPointExtension>
        </extensions>
      </trkpt>
      <trkpt lat="36.8215764127671718597412109375" lon="-118.39532568119466304779052734375">
        <ele>3656.800048828125</ele>
        <time>2021-06-27T19:17:32.000Z</time>
        <extensions>
          <ns3:TrackPointExtension>
            <ns3:atemp>30.0</ns3:atemp>
            <ns3:hr>91</ns3:hr>
          </ns3:TrackPointExtension>
        </extensions>
      </trkpt>
      <trkpt lat="36.82155772112309932708740234375" lon="-118.395333476364612579345703125">
        <ele>3656.39990234375</ele>
        <time>2021-06-27T19:17:35.000Z</time>
        <extensions>
          <ns3:TrackPointExtension>
            <ns3:atemp>30.0</ns3:atemp>
            <ns3:hr>90</ns3:hr>
          </ns3:TrackPointExtension>
        </extensions>
      </trkpt>
      <trkpt lat="36.821552105247974395751953125" lon="-118.3953443728387355804443359375">
        <ele>3655</ele>
        <time>2021-06-27T19:17:38.000Z</time>
        <extensions>
          <ns3:TrackPointExtension>
            <ns3:atemp>30.0</ns3:atemp>
            <ns3:hr>90</ns3:hr>
          </ns3:TrackPointExtension>
        </extensions>
      </trkpt>
      <trkpt lat="36.821548081934452056884765625" lon="-118.39535602368414402008056640625">
        <ele>3654.199951171875</ele>
        <time>2021-06-27T19:17:40.000Z</time>
        <extensions>
          <ns3:TrackPointExtension>
            <ns3:atemp>30.0</ns3:atemp>
            <ns3:hr>90</ns3:hr>
          </ns3:TrackPointExtension>
        </extensions>
      </trkpt>
      <trkpt lat="36.8215378560125827789306640625" lon="-118.39538611471652984619140625">
        <ele>3653.60009765625</ele>
        <time>2021-06-27T19:17:45.000Z</time>
        <extensions>
          <ns3:TrackPointExtension>
            <ns3:atemp>30.0</ns3:atemp>
            <ns3:hr>91</ns3:hr>
          </ns3:TrackPointExtension>
        </extensions>
      </trkpt>
      <trkpt lat="36.82153877802193164825439453125" lon="-118.39539675973355770111083984375">
        <ele>3653</ele>
        <time>2021-06-27T19:17:47.000Z</time>
        <extensions>
          <ns3:TrackPointExtension>
            <ns3:atemp>30.0</ns3:atemp>
            <ns3:hr>91</ns3:hr>
          </ns3:TrackPointExtension>
        </extensions>
      </trkpt>
      <trkpt lat="36.8215331621468067169189453125" lon="-118.39540832675993442535400390625">
        <ele>3652.39990234375</ele>
        <time>2021-06-27T19:17:51.000Z</time>
        <extensions>
          <ns3:TrackPointExtension>
            <ns3:atemp>30.0</ns3:atemp>
            <ns3:hr>91</ns3:hr>
          </ns3:TrackPointExtension>
        </extensions>
      </trkpt>
      <trkpt lat="36.8215200863778591156005859375" lon="-118.3954131044447422027587890625">
        <ele>3651.800048828125</ele>
        <time>2021-06-27T19:17:55.000Z</time>
        <extensions>
          <ns3:TrackPointExtension>
            <ns3:atemp>30.0</ns3:atemp>
            <ns3:hr>91</ns3:hr>
          </ns3:TrackPointExtension>
        </extensions>
      </trkpt>
      <trkpt lat="36.821515560150146484375" lon="-118.39541561901569366455078125">
        <ele>3651.199951171875</ele>
        <time>2021-06-27T19:17:56.000Z</time>
        <extensions>
          <ns3:TrackPointExtension>
            <ns3:atemp>30.0</ns3:atemp>
            <ns3:hr>92</ns3:hr>
          </ns3:TrackPointExtension>
        </extensions>
      </trkpt>
      <trkpt lat="36.8214992992579936981201171875" lon="-118.3954322151839733123779296875">
        <ele>3649.800048828125</ele>
        <time>2021-06-27T19:18:00.000Z</time>
        <extensions>
          <ns3:TrackPointExtension>
            <ns3:atemp>30.0</ns3:atemp>
            <ns3:hr>95</ns3:hr>
          </ns3:TrackPointExtension>
        </extensions>
      </trkpt>
      <trkpt lat="36.82149133644998073577880859375" lon="-118.39545710943639278411865234375">
        <ele>3648.199951171875</ele>
        <time>2021-06-27T19:18:03.000Z</time>
        <extensions>
          <ns3:TrackPointExtension>
            <ns3:atemp>29.0</ns3:atemp>
            <ns3:hr>96</ns3:hr>
          </ns3:TrackPointExtension>
        </extensions>
      </trkpt>
      <trkpt lat="36.8214892409741878509521484375" lon="-118.395463563501834869384765625">
        <ele>3648</ele>
        <time>2021-06-27T19:18:04.000Z</time>
        <extensions>
          <ns3:TrackPointExtension>
            <ns3:atemp>30.0</ns3:atemp>
            <ns3:hr>96</ns3:hr>
          </ns3:TrackPointExtension>
        </extensions>
      </trkpt>
      <trkpt lat="36.82148328982293605804443359375" lon="-118.3954825066030025482177734375">
        <ele>3646.800048828125</ele>
        <time>2021-06-27T19:18:09.000Z</time>
        <extensions>
          <ns3:TrackPointExtension>
            <ns3:atemp>29.0</ns3:atemp>
            <ns3:hr>96</ns3:hr>
          </ns3:TrackPointExtension>
        </extensions>
      </trkpt>
      <trkpt lat="36.821480356156826019287109375" lon="-118.39548862539231777191162109375">
        <ele>3646.60009765625</ele>
        <time>2021-06-27T19:18:10.000Z</time>
        <extensions>
          <ns3:TrackPointExtension>
            <ns3:atemp>29.0</ns3:atemp>
            <ns3:hr>95</ns3:hr>
          </ns3:TrackPointExtension>
        </extensions>
      </trkpt>
      <trkpt lat="36.82147733867168426513671875" lon="-118.39550538919866085052490234375">
        <ele>3646.199951171875</ele>
        <time>2021-06-27T19:18:13.000Z</time>
        <extensions>
          <ns3:TrackPointExtension>
            <ns3:atemp>29.0</ns3:atemp>
            <ns3:hr>98</ns3:hr>
          </ns3:TrackPointExtension>
        </extensions>
      </trkpt>
      <trkpt lat="36.82147759012877941131591796875" lon="-118.395509161055088043212890625">
        <ele>3646.199951171875</ele>
        <time>2021-06-27T19:18:14.000Z</time>
        <extensions>
          <ns3:TrackPointExtension>
            <ns3:atemp>29.0</ns3:atemp>
            <ns3:hr>95</ns3:hr>
          </ns3:TrackPointExtension>
        </extensions>
      </trkpt>
      <trkpt lat="36.821477673947811126708984375" lon="-118.39551259763538837432861328125">
        <ele>3646</ele>
        <time>2021-06-27T19:18:15.000Z</time>
        <extensions>
          <ns3:TrackPointExtension>
            <ns3:atemp>29.0</ns3:atemp>
            <ns3:hr>95</ns3:hr>
          </ns3:TrackPointExtension>
        </extensions>
      </trkpt>
      <trkpt lat="36.82147490791976451873779296875" lon="-118.395517207682132720947265625">
        <ele>3645.800048828125</ele>
        <time>2021-06-27T19:18:16.000Z</time>
        <extensions>
          <ns3:TrackPointExtension>
            <ns3:atemp>29.0</ns3:atemp>
            <ns3:hr>95</ns3:hr>
          </ns3:TrackPointExtension>
        </extensions>
      </trkpt>
      <trkpt lat="36.8214734829962253570556640625" lon="-118.3955224044620990753173828125">
        <ele>3645.800048828125</ele>
        <time>2021-06-27T19:18:17.000Z</time>
        <extensions>
          <ns3:TrackPointExtension>
            <ns3:atemp>29.0</ns3:atemp>
            <ns3:hr>94</ns3:hr>
          </ns3:TrackPointExtension>
        </extensions>
      </trkpt>
      <trkpt lat="36.8214661069214344024658203125" lon="-118.3955388329923152923583984375">
        <ele>3644.199951171875</ele>
        <time>2021-06-27T19:18:24.000Z</time>
        <extensions>
          <ns3:TrackPointExtension>
            <ns3:atemp>29.0</ns3:atemp>
            <ns3:hr>92</ns3:hr>
          </ns3:TrackPointExtension>
        </extensions>
      </trkpt>
      <trkpt lat="36.821461580693721771240234375" lon="-118.3955450356006622314453125">
        <ele>3644.199951171875</ele>
        <time>2021-06-27T19:18:26.000Z</time>
        <extensions>
          <ns3:TrackPointExtension>
            <ns3:atemp>29.0</ns3:atemp>
            <ns3:hr>91</ns3:hr>
          </ns3:TrackPointExtension>
        </extensions>
      </trkpt>
      <trkpt lat="36.82144255377352237701416015625" lon="-118.39554545469582080841064453125">
        <ele>3643</ele>
        <time>2021-06-27T19:18:30.000Z</time>
        <extensions>
          <ns3:TrackPointExtension>
            <ns3:atemp>29.0</ns3:atemp>
            <ns3:hr>92</ns3:hr>
          </ns3:TrackPointExtension>
        </extensions>
      </trkpt>
      <trkpt lat="36.82143551297485828399658203125" lon="-118.39555232785642147064208984375">
        <ele>3642.199951171875</ele>
        <time>2021-06-27T19:18:33.000Z</time>
        <extensions>
          <ns3:TrackPointExtension>
            <ns3:atemp>29.0</ns3:atemp>
            <ns3:hr>92</ns3:hr>
          </ns3:TrackPointExtension>
        </extensions>
      </trkpt>
      <trkpt lat="36.82143283076584339141845703125" lon="-118.39555819518864154815673828125">
        <ele>3642</ele>
        <time>2021-06-27T19:18:34.000Z</time>
        <extensions>
          <ns3:TrackPointExtension>
            <ns3:atemp>29.0</ns3:atemp>
            <ns3:hr>92</ns3:hr>
          </ns3:TrackPointExtension>
        </extensions>
      </trkpt>
      <trkpt lat="36.8214322440326213836669921875" lon="-118.3955633081495761871337890625">
        <ele>3640.800048828125</ele>
        <time>2021-06-27T19:18:40.000Z</time>
        <extensions>
          <ns3:TrackPointExtension>
            <ns3:atemp>29.0</ns3:atemp>
            <ns3:hr>91</ns3:hr>
          </ns3:TrackPointExtension>
        </extensions>
      </trkpt>
      <trkpt lat="36.8214322440326213836669921875" lon="-118.3955633081495761871337890625">
        <ele>3640.199951171875</ele>
        <time>2021-06-27T19:18:41.000Z</time>
        <extensions>
          <ns3:TrackPointExtension>
            <ns3:atemp>29.0</ns3:atemp>
            <ns3:hr>91</ns3:hr>
          </ns3:TrackPointExtension>
        </extensions>
      </trkpt>
      <trkpt lat="36.8214533664286136627197265625" lon="-118.3955623023211956024169921875">
        <ele>3640.800048828125</ele>
        <time>2021-06-27T19:18:59.000Z</time>
        <extensions>
          <ns3:TrackPointExtension>
            <ns3:atemp>29.0</ns3:atemp>
            <ns3:hr>88</ns3:hr>
          </ns3:TrackPointExtension>
        </extensions>
      </trkpt>
      <trkpt lat="36.8214533664286136627197265625" lon="-118.3955633081495761871337890625">
        <ele>3640.800048828125</ele>
        <time>2021-06-27T19:19:01.000Z</time>
        <extensions>
          <ns3:TrackPointExtension>
            <ns3:atemp>29.0</ns3:atemp>
            <ns3:hr>85</ns3:hr>
          </ns3:TrackPointExtension>
        </extensions>
      </trkpt>
      <trkpt lat="36.8214533664286136627197265625" lon="-118.39556758292019367218017578125">
        <ele>3640.199951171875</ele>
        <time>2021-06-27T19:19:07.000Z</time>
        <extensions>
          <ns3:TrackPointExtension>
            <ns3:atemp>29.0</ns3:atemp>
            <ns3:hr>82</ns3:hr>
          </ns3:TrackPointExtension>
        </extensions>
      </trkpt>
      <trkpt lat="36.82145328260958194732666015625" lon="-118.395572192966938018798828125">
        <ele>3639.800048828125</ele>
        <time>2021-06-27T19:19:13.000Z</time>
        <extensions>
          <ns3:TrackPointExtension>
            <ns3:atemp>29.0</ns3:atemp>
            <ns3:hr>82</ns3:hr>
          </ns3:TrackPointExtension>
        </extensions>
      </trkpt>
      <trkpt lat="36.821422688663005828857421875" lon="-118.39558803476393222808837890625">
        <ele>3638.60009765625</ele>
        <time>2021-06-27T19:19:27.000Z</time>
        <extensions>
          <ns3:TrackPointExtension>
            <ns3:atemp>29.0</ns3:atemp>
            <ns3:hr>82</ns3:hr>
          </ns3:TrackPointExtension>
        </extensions>
      </trkpt>
      <trkpt lat="36.8214218504726886749267578125" lon="-118.39559004642069339752197265625">
        <ele>3637.60009765625</ele>
        <time>2021-06-27T19:19:31.000Z</time>
        <extensions>
          <ns3:TrackPointExtension>
            <ns3:atemp>29.0</ns3:atemp>
            <ns3:hr>83</ns3:hr>
          </ns3:TrackPointExtension>
        </extensions>
      </trkpt>
      <trkpt lat="36.82142159901559352874755859375" lon="-118.39564637281000614166259765625">
        <ele>3636</ele>
        <time>2021-06-27T19:19:35.000Z</time>
        <extensions>
          <ns3:TrackPointExtension>
            <ns3:atemp>29.0</ns3:atemp>
            <ns3:hr>81</ns3:hr>
          </ns3:TrackPointExtension>
        </extensions>
      </trkpt>
      <trkpt lat="36.821421682834625244140625" lon="-118.39566078968346118927001953125">
        <ele>3635.800048828125</ele>
        <time>2021-06-27T19:19:36.000Z</time>
        <extensions>
          <ns3:TrackPointExtension>
            <ns3:atemp>29.0</ns3:atemp>
            <ns3:hr>82</ns3:hr>
          </ns3:TrackPointExtension>
        </extensions>
      </trkpt>
      <trkpt lat="36.8214188329875469207763671875" lon="-118.395692892372608184814453125">
        <ele>3635.39990234375</ele>
        <time>2021-06-27T19:19:38.000Z</time>
        <extensions>
          <ns3:TrackPointExtension>
            <ns3:atemp>29.0</ns3:atemp>
            <ns3:hr>81</ns3:hr>
          </ns3:TrackPointExtension>
        </extensions>
      </trkpt>
      <trkpt lat="36.821422688663005828857421875" lon="-118.39572331868112087249755859375">
        <ele>3634.60009765625</ele>
        <time>2021-06-27T19:19:40.000Z</time>
        <extensions>
          <ns3:TrackPointExtension>
            <ns3:atemp>29.0</ns3:atemp>
            <ns3:hr>81</ns3:hr>
          </ns3:TrackPointExtension>
        </extensions>
      </trkpt>
      <trkpt lat="36.82142545469105243682861328125" lon="-118.39573211967945098876953125">
        <ele>3634.39990234375</ele>
        <time>2021-06-27T19:19:41.000Z</time>
        <extensions>
          <ns3:TrackPointExtension>
            <ns3:atemp>29.0</ns3:atemp>
            <ns3:hr>81</ns3:hr>
          </ns3:TrackPointExtension>
        </extensions>
      </trkpt>
      <trkpt lat="36.8214225210249423980712890625" lon="-118.39573505334556102752685546875">
        <ele>3634.39990234375</ele>
        <time>2021-06-27T19:19:43.000Z</time>
        <extensions>
          <ns3:TrackPointExtension>
            <ns3:atemp>29.0</ns3:atemp>
            <ns3:hr>81</ns3:hr>
          </ns3:TrackPointExtension>
        </extensions>
      </trkpt>
      <trkpt lat="36.8214149773120880126953125" lon="-118.39574309997260570526123046875">
        <ele>3633.800048828125</ele>
        <time>2021-06-27T19:19:46.000Z</time>
        <extensions>
          <ns3:TrackPointExtension>
            <ns3:atemp>29.0</ns3:atemp>
            <ns3:hr>84</ns3:hr>
          </ns3:TrackPointExtension>
        </extensions>
      </trkpt>
      <trkpt lat="36.8214144743978977203369140625" lon="-118.39574511162936687469482421875">
        <ele>3633.39990234375</ele>
        <time>2021-06-27T19:19:47.000Z</time>
        <extensions>
          <ns3:TrackPointExtension>
            <ns3:atemp>29.0</ns3:atemp>
            <ns3:hr>82</ns3:hr>
          </ns3:TrackPointExtension>
        </extensions>
      </trkpt>
      <trkpt lat="36.8214117921888828277587890625" lon="-118.39576707221567630767822265625">
        <ele>3632</ele>
        <time>2021-06-27T19:19:51.000Z</time>
        <extensions>
          <ns3:TrackPointExtension>
            <ns3:atemp>29.0</ns3:atemp>
            <ns3:hr>83</ns3:hr>
          </ns3:TrackPointExtension>
        </extensions>
      </trkpt>
      <trkpt lat="36.82140399701893329620361328125" lon="-118.39578182436525821685791015625">
        <ele>3631.199951171875</ele>
        <time>2021-06-27T19:19:55.000Z</time>
        <extensions>
          <ns3:TrackPointExtension>
            <ns3:atemp>29.0</ns3:atemp>
            <ns3:hr>86</ns3:hr>
          </ns3:TrackPointExtension>
        </extensions>
      </trkpt>
      <trkpt lat="36.82140550576150417327880859375" lon="-118.39578484185039997100830078125">
        <ele>3631</ele>
        <time>2021-06-27T19:19:56.000Z</time>
        <extensions>
          <ns3:TrackPointExtension>
            <ns3:atemp>29.0</ns3:atemp>
            <ns3:hr>87</ns3:hr>
          </ns3:TrackPointExtension>
        </extensions>
      </trkpt>
      <trkpt lat="36.82140349410474300384521484375" lon="-118.3957864344120025634765625">
        <ele>3630.39990234375</ele>
        <time>2021-06-27T19:19:57.000Z</time>
        <extensions>
          <ns3:TrackPointExtension>
            <ns3:atemp>29.0</ns3:atemp>
            <ns3:hr>90</ns3:hr>
          </ns3:TrackPointExtension>
        </extensions>
      </trkpt>
      <trkpt lat="36.8213993869721889495849609375" lon="-118.39578752405941486358642578125">
        <ele>3630</ele>
        <time>2021-06-27T19:19:58.000Z</time>
        <extensions>
          <ns3:TrackPointExtension>
            <ns3:atemp>29.0</ns3:atemp>
            <ns3:hr>90</ns3:hr>
          </ns3:TrackPointExtension>
        </extensions>
      </trkpt>
      <trkpt lat="36.82139142416417598724365234375" lon="-118.3958037011325359344482421875">
        <ele>3629.199951171875</ele>
        <time>2021-06-27T19:20:03.000Z</time>
        <extensions>
          <ns3:TrackPointExtension>
            <ns3:atemp>29.0</ns3:atemp>
            <ns3:hr>87</ns3:hr>
          </ns3:TrackPointExtension>
        </extensions>
      </trkpt>
      <trkpt lat="36.82139393873512744903564453125" lon="-118.3958083949983119964599609375">
        <ele>3629.199951171875</ele>
        <time>2021-06-27T19:20:04.000Z</time>
        <extensions>
          <ns3:TrackPointExtension>
            <ns3:atemp>29.0</ns3:atemp>
            <ns3:hr>87</ns3:hr>
          </ns3:TrackPointExtension>
        </extensions>
      </trkpt>
      <trkpt lat="36.82139419019222259521484375" lon="-118.3958191238343715667724609375">
        <ele>3628.800048828125</ele>
        <time>2021-06-27T19:20:06.000Z</time>
        <extensions>
          <ns3:TrackPointExtension>
            <ns3:atemp>29.0</ns3:atemp>
            <ns3:hr>84</ns3:hr>
          </ns3:TrackPointExtension>
        </extensions>
      </trkpt>
      <trkpt lat="36.82139662094414234161376953125" lon="-118.3958271704614162445068359375">
        <ele>3627.800048828125</ele>
        <time>2021-06-27T19:20:08.000Z</time>
        <extensions>
          <ns3:TrackPointExtension>
            <ns3:atemp>29.0</ns3:atemp>
            <ns3:hr>87</ns3:hr>
          </ns3:TrackPointExtension>
        </extensions>
      </trkpt>
      <trkpt lat="36.82139796204864978790283203125" lon="-118.39583404362201690673828125">
        <ele>3627.60009765625</ele>
        <time>2021-06-27T19:20:10.000Z</time>
        <extensions>
          <ns3:TrackPointExtension>
            <ns3:atemp>29.0</ns3:atemp>
            <ns3:hr>87</ns3:hr>
          </ns3:TrackPointExtension>
        </extensions>
      </trkpt>
      <trkpt lat="36.8213950283825397491455078125" lon="-118.39587301947176456451416015625">
        <ele>3626.60009765625</ele>
        <time>2021-06-27T19:20:14.000Z</time>
        <extensions>
          <ns3:TrackPointExtension>
            <ns3:atemp>29.0</ns3:atemp>
            <ns3:hr>87</ns3:hr>
          </ns3:TrackPointExtension>
        </extensions>
      </trkpt>
      <trkpt lat="36.82138748466968536376953125" lon="-118.395895399153232574462890625">
        <ele>3625.199951171875</ele>
        <time>2021-06-27T19:20:17.000Z</time>
        <extensions>
          <ns3:TrackPointExtension>
            <ns3:atemp>29.0</ns3:atemp>
            <ns3:hr>87</ns3:hr>
          </ns3:TrackPointExtension>
        </extensions>
      </trkpt>
      <trkpt lat="36.82138404808938503265380859375" lon="-118.39590369723737239837646484375">
        <ele>3624.800048828125</ele>
        <time>2021-06-27T19:20:18.000Z</time>
        <extensions>
          <ns3:TrackPointExtension>
            <ns3:atemp>29.0</ns3:atemp>
            <ns3:hr>86</ns3:hr>
          </ns3:TrackPointExtension>
        </extensions>
      </trkpt>
      <trkpt lat="36.821387819945812225341796875" lon="-118.39592431671917438507080078125">
        <ele>3624</ele>
        <time>2021-06-27T19:20:21.000Z</time>
        <extensions>
          <ns3:TrackPointExtension>
            <ns3:atemp>29.0</ns3:atemp>
            <ns3:hr>86</ns3:hr>
          </ns3:TrackPointExtension>
        </extensions>
      </trkpt>
      <trkpt lat="36.8213908374309539794921875" lon="-118.395928256213665008544921875">
        <ele>3623.199951171875</ele>
        <time>2021-06-27T19:20:25.000Z</time>
        <extensions>
          <ns3:TrackPointExtension>
            <ns3:atemp>29.0</ns3:atemp>
            <ns3:hr>84</ns3:hr>
          </ns3:TrackPointExtension>
        </extensions>
      </trkpt>
      <trkpt lat="36.82138589210808277130126953125" lon="-118.39594594202935695648193359375">
        <ele>3622.800048828125</ele>
        <time>2021-06-27T19:20:33.000Z</time>
        <extensions>
          <ns3:TrackPointExtension>
            <ns3:atemp>29.0</ns3:atemp>
            <ns3:hr>81</ns3:hr>
          </ns3:TrackPointExtension>
        </extensions>
      </trkpt>
      <trkpt lat="36.82138639502227306365966796875" lon="-118.3959720097482204437255859375">
        <ele>3622.39990234375</ele>
        <time>2021-06-27T19:20:36.000Z</time>
        <extensions>
          <ns3:TrackPointExtension>
            <ns3:atemp>30.0</ns3:atemp>
            <ns3:hr>80</ns3:hr>
          </ns3:TrackPointExtension>
        </extensions>
      </trkpt>
      <trkpt lat="36.82136560790240764617919921875" lon="-118.3960041962563991546630859375">
        <ele>3621.39990234375</ele>
        <time>2021-06-27T19:20:40.000Z</time>
        <extensions>
          <ns3:TrackPointExtension>
            <ns3:atemp>30.0</ns3:atemp>
            <ns3:hr>82</ns3:hr>
          </ns3:TrackPointExtension>
        </extensions>
      </trkpt>
      <trkpt lat="36.82135957293212413787841796875" lon="-118.3960293419659137725830078125">
        <ele>3619.39990234375</ele>
        <time>2021-06-27T19:20:42.000Z</time>
        <extensions>
          <ns3:TrackPointExtension>
            <ns3:atemp>30.0</ns3:atemp>
            <ns3:hr>81</ns3:hr>
          </ns3:TrackPointExtension>
        </extensions>
      </trkpt>
      <trkpt lat="36.82135907001793384552001953125" lon="-118.39603730477392673492431640625">
        <ele>3618.199951171875</ele>
        <time>2021-06-27T19:20:43.000Z</time>
        <extensions>
          <ns3:TrackPointExtension>
            <ns3:atemp>30.0</ns3:atemp>
            <ns3:hr>81</ns3:hr>
          </ns3:TrackPointExtension>
        </extensions>
      </trkpt>
      <trkpt lat="36.82135798037052154541015625" lon="-118.396059684455394744873046875">
        <ele>3617.39990234375</ele>
        <time>2021-06-27T19:20:46.000Z</time>
        <extensions>
          <ns3:TrackPointExtension>
            <ns3:atemp>30.0</ns3:atemp>
            <ns3:hr>78</ns3:hr>
          </ns3:TrackPointExtension>
        </extensions>
      </trkpt>
      <trkpt lat="36.8213564716279506683349609375" lon="-118.39606446214020252227783203125">
        <ele>3617</ele>
        <time>2021-06-27T19:20:47.000Z</time>
        <extensions>
          <ns3:TrackPointExtension>
            <ns3:atemp>29.0</ns3:atemp>
            <ns3:hr>76</ns3:hr>
          </ns3:TrackPointExtension>
        </extensions>
      </trkpt>
      <trkpt lat="36.8213460780680179595947265625" lon="-118.39607904665172100067138671875">
        <ele>3616.39990234375</ele>
        <time>2021-06-27T19:20:49.000Z</time>
        <extensions>
          <ns3:TrackPointExtension>
            <ns3:atemp>29.0</ns3:atemp>
            <ns3:hr>79</ns3:hr>
          </ns3:TrackPointExtension>
        </extensions>
      </trkpt>
      <trkpt lat="36.8213413842022418975830078125" lon="-118.396084494888782501220703125">
        <ele>3615.800048828125</ele>
        <time>2021-06-27T19:20:50.000Z</time>
        <extensions>
          <ns3:TrackPointExtension>
            <ns3:atemp>30.0</ns3:atemp>
            <ns3:hr>77</ns3:hr>
          </ns3:TrackPointExtension>
        </extensions>
      </trkpt>
      <trkpt lat="36.821335852146148681640625" lon="-118.3960883505642414093017578125">
        <ele>3615.60009765625</ele>
        <time>2021-06-27T19:20:51.000Z</time>
        <extensions>
          <ns3:TrackPointExtension>
            <ns3:atemp>29.0</ns3:atemp>
            <ns3:hr>79</ns3:hr>
          </ns3:TrackPointExtension>
        </extensions>
      </trkpt>
      <trkpt lat="36.8213252909481525421142578125" lon="-118.39609480462968349456787109375">
        <ele>3614.199951171875</ele>
        <time>2021-06-27T19:20:52.000Z</time>
        <extensions>
          <ns3:TrackPointExtension>
            <ns3:atemp>29.0</ns3:atemp>
            <ns3:hr>80</ns3:hr>
          </ns3:TrackPointExtension>
        </extensions>
      </trkpt>
      <trkpt lat="36.821320764720439910888671875" lon="-118.39610134251415729522705078125">
        <ele>3613.60009765625</ele>
        <time>2021-06-27T19:20:55.000Z</time>
        <extensions>
          <ns3:TrackPointExtension>
            <ns3:atemp>29.0</ns3:atemp>
            <ns3:hr>81</ns3:hr>
          </ns3:TrackPointExtension>
        </extensions>
      </trkpt>
      <trkpt lat="36.8213195912539958953857421875" lon="-118.3961034379899501800537109375">
        <ele>3613</ele>
        <time>2021-06-27T19:20:56.000Z</time>
        <extensions>
          <ns3:TrackPointExtension>
            <ns3:atemp>29.0</ns3:atemp>
            <ns3:hr>81</ns3:hr>
          </ns3:TrackPointExtension>
        </extensions>
      </trkpt>
      <trkpt lat="36.82131598703563213348388671875" lon="-118.3961104787886142730712890625">
        <ele>3613</ele>
        <time>2021-06-27T19:20:57.000Z</time>
        <extensions>
          <ns3:TrackPointExtension>
            <ns3:atemp>29.0</ns3:atemp>
            <ns3:hr>81</ns3:hr>
          </ns3:TrackPointExtension>
        </extensions>
      </trkpt>
      <trkpt lat="36.82130835950374603271484375" lon="-118.3961483649909496307373046875">
        <ele>3611.199951171875</ele>
        <time>2021-06-27T19:21:00.000Z</time>
        <extensions>
          <ns3:TrackPointExtension>
            <ns3:atemp>29.0</ns3:atemp>
            <ns3:hr>81</ns3:hr>
          </ns3:TrackPointExtension>
        </extensions>
      </trkpt>
      <trkpt lat="36.82130525819957256317138671875" lon="-118.39616839773952960968017578125">
        <ele>3610.60009765625</ele>
        <time>2021-06-27T19:21:02.000Z</time>
        <extensions>
          <ns3:TrackPointExtension>
            <ns3:atemp>30.0</ns3:atemp>
            <ns3:hr>81</ns3:hr>
          </ns3:TrackPointExtension>
        </extensions>
      </trkpt>
      <trkpt lat="36.82130224071443080902099609375" lon="-118.3962167613208293914794921875">
        <ele>3609</ele>
        <time>2021-06-27T19:21:05.000Z</time>
        <extensions>
          <ns3:TrackPointExtension>
            <ns3:atemp>29.0</ns3:atemp>
            <ns3:hr>87</ns3:hr>
          </ns3:TrackPointExtension>
        </extensions>
      </trkpt>
      <trkpt lat="36.8213028274476528167724609375" lon="-118.3962278254330158233642578125">
        <ele>3608.800048828125</ele>
        <time>2021-06-27T19:21:06.000Z</time>
        <extensions>
          <ns3:TrackPointExtension>
            <ns3:atemp>30.0</ns3:atemp>
            <ns3:hr>87</ns3:hr>
          </ns3:TrackPointExtension>
        </extensions>
      </trkpt>
      <trkpt lat="36.82130358181893825531005859375" lon="-118.3962357044219970703125">
        <ele>3607.800048828125</ele>
        <time>2021-06-27T19:21:07.000Z</time>
        <extensions>
          <ns3:TrackPointExtension>
            <ns3:atemp>29.0</ns3:atemp>
            <ns3:hr>86</ns3:hr>
          </ns3:TrackPointExtension>
        </extensions>
      </trkpt>
      <trkpt lat="36.82130475528538227081298828125" lon="-118.39624467305839061737060546875">
        <ele>3607</ele>
        <time>2021-06-27T19:21:08.000Z</time>
        <extensions>
          <ns3:TrackPointExtension>
            <ns3:atemp>29.0</ns3:atemp>
            <ns3:hr>86</ns3:hr>
          </ns3:TrackPointExtension>
        </extensions>
      </trkpt>
      <trkpt lat="36.8213071860373020172119140625" lon="-118.39625925756990909576416015625">
        <ele>3606.60009765625</ele>
        <time>2021-06-27T19:21:10.000Z</time>
        <extensions>
          <ns3:TrackPointExtension>
            <ns3:atemp>29.0</ns3:atemp>
            <ns3:hr>84</ns3:hr>
          </ns3:TrackPointExtension>
        </extensions>
      </trkpt>
      <trkpt lat="36.821306012570858001708984375" lon="-118.3962740935385227203369140625">
        <ele>3605.800048828125</ele>
        <time>2021-06-27T19:21:13.000Z</time>
        <extensions>
          <ns3:TrackPointExtension>
            <ns3:atemp>29.0</ns3:atemp>
            <ns3:hr>86</ns3:hr>
          </ns3:TrackPointExtension>
        </extensions>
      </trkpt>
      <trkpt lat="36.82130592875182628631591796875" lon="-118.39627769775688648223876953125">
        <ele>3605.60009765625</ele>
        <time>2021-06-27T19:21:14.000Z</time>
        <extensions>
          <ns3:TrackPointExtension>
            <ns3:atemp>30.0</ns3:atemp>
            <ns3:hr>85</ns3:hr>
          </ns3:TrackPointExtension>
        </extensions>
      </trkpt>
      <trkpt lat="36.82130592875182628631591796875" lon="-118.39630686677992343902587890625">
        <ele>3604.39990234375</ele>
        <time>2021-06-27T19:21:18.000Z</time>
        <extensions>
          <ns3:TrackPointExtension>
            <ns3:atemp>29.0</ns3:atemp>
            <ns3:hr>84</ns3:hr>
          </ns3:TrackPointExtension>
        </extensions>
      </trkpt>
      <trkpt lat="36.8213031627237796783447265625" lon="-118.39634223841130733489990234375">
        <ele>3603.39990234375</ele>
        <time>2021-06-27T19:21:21.000Z</time>
        <extensions>
          <ns3:TrackPointExtension>
            <ns3:atemp>29.0</ns3:atemp>
            <ns3:hr>85</ns3:hr>
          </ns3:TrackPointExtension>
        </extensions>
      </trkpt>
      <trkpt lat="36.82130006141960620880126953125" lon="-118.39635598473250865936279296875">
        <ele>3602.800048828125</ele>
        <time>2021-06-27T19:21:22.000Z</time>
        <extensions>
          <ns3:TrackPointExtension>
            <ns3:atemp>29.0</ns3:atemp>
            <ns3:hr>84</ns3:hr>
          </ns3:TrackPointExtension>
        </extensions>
      </trkpt>
      <trkpt lat="36.8212910927832126617431640625" lon="-118.3963944576680660247802734375">
        <ele>3601.60009765625</ele>
        <time>2021-06-27T19:21:25.000Z</time>
        <extensions>
          <ns3:TrackPointExtension>
            <ns3:atemp>29.0</ns3:atemp>
            <ns3:hr>85</ns3:hr>
          </ns3:TrackPointExtension>
        </extensions>
      </trkpt>
      <trkpt lat="36.8212904222309589385986328125" lon="-118.396405018866062164306640625">
        <ele>3600</ele>
        <time>2021-06-27T19:21:26.000Z</time>
        <extensions>
          <ns3:TrackPointExtension>
            <ns3:atemp>29.0</ns3:atemp>
            <ns3:hr>85</ns3:hr>
          </ns3:TrackPointExtension>
        </extensions>
      </trkpt>
      <trkpt lat="36.82128153741359710693359375" lon="-118.39642287231981754302978515625">
        <ele>3598.800048828125</ele>
        <time>2021-06-27T19:21:28.000Z</time>
        <extensions>
          <ns3:TrackPointExtension>
            <ns3:atemp>29.0</ns3:atemp>
            <ns3:hr>86</ns3:hr>
          </ns3:TrackPointExtension>
        </extensions>
      </trkpt>
      <trkpt lat="36.8212796933948993682861328125" lon="-118.396430499851703643798828125">
        <ele>3598.39990234375</ele>
        <time>2021-06-27T19:21:30.000Z</time>
        <extensions>
          <ns3:TrackPointExtension>
            <ns3:atemp>29.0</ns3:atemp>
            <ns3:hr>87</ns3:hr>
          </ns3:TrackPointExtension>
        </extensions>
      </trkpt>
      <trkpt lat="36.82128145359456539154052734375" lon="-118.3964296616613864898681640625">
        <ele>3597.800048828125</ele>
        <time>2021-06-27T19:21:31.000Z</time>
        <extensions>
          <ns3:TrackPointExtension>
            <ns3:atemp>29.0</ns3:atemp>
            <ns3:hr>88</ns3:hr>
          </ns3:TrackPointExtension>
        </extensions>
      </trkpt>
      <trkpt lat="36.82128732092678546905517578125" lon="-118.39644315652549266815185546875">
        <ele>3597</ele>
        <time>2021-06-27T19:21:35.000Z</time>
        <extensions>
          <ns3:TrackPointExtension>
            <ns3:atemp>29.0</ns3:atemp>
            <ns3:hr>91</ns3:hr>
          </ns3:TrackPointExtension>
        </extensions>
      </trkpt>
      <trkpt lat="36.8212910927832126617431640625" lon="-118.3964370377361774444580078125">
        <ele>3597</ele>
        <time>2021-06-27T19:21:38.000Z</time>
        <extensions>
          <ns3:TrackPointExtension>
            <ns3:atemp>29.0</ns3:atemp>
            <ns3:hr>90</ns3:hr>
          </ns3:TrackPointExtension>
        </extensions>
      </trkpt>
      <trkpt lat="36.82129201479256153106689453125" lon="-118.39643393643200397491455078125">
        <ele>3596.60009765625</ele>
        <time>2021-06-27T19:21:42.000Z</time>
        <extensions>
          <ns3:TrackPointExtension>
            <ns3:atemp>30.0</ns3:atemp>
            <ns3:hr>93</ns3:hr>
          </ns3:TrackPointExtension>
        </extensions>
      </trkpt>
      <trkpt lat="36.82129201479256153106689453125" lon="-118.39643393643200397491455078125">
        <ele>3596.39990234375</ele>
        <time>2021-06-27T19:21:45.000Z</time>
        <extensions>
          <ns3:TrackPointExtension>
            <ns3:atemp>30.0</ns3:atemp>
            <ns3:hr>90</ns3:hr>
          </ns3:TrackPointExtension>
        </extensions>
      </trkpt>
      <trkpt lat="36.8212910927832126617431640625" lon="-118.3964370377361774444580078125">
        <ele>3596.199951171875</ele>
        <time>2021-06-27T19:21:53.000Z</time>
        <extensions>
          <ns3:TrackPointExtension>
            <ns3:atemp>30.0</ns3:atemp>
            <ns3:hr>93</ns3:hr>
          </ns3:TrackPointExtension>
        </extensions>
      </trkpt>
      <trkpt lat="36.82129100896418094635009765625" lon="-118.3964370377361774444580078125">
        <ele>3596</ele>
        <time>2021-06-27T19:21:55.000Z</time>
        <extensions>
          <ns3:TrackPointExtension>
            <ns3:atemp>30.0</ns3:atemp>
            <ns3:hr>89</ns3:hr>
          </ns3:TrackPointExtension>
        </extensions>
      </trkpt>
      <trkpt lat="36.82128882966935634613037109375" lon="-118.3964370377361774444580078125">
        <ele>3595.800048828125</ele>
        <time>2021-06-27T19:21:58.000Z</time>
        <extensions>
          <ns3:TrackPointExtension>
            <ns3:atemp>30.0</ns3:atemp>
            <ns3:hr>92</ns3:hr>
          </ns3:TrackPointExtension>
        </extensions>
      </trkpt>
      <trkpt lat="36.82128556072711944580078125" lon="-118.39643460698425769805908203125">
        <ele>3596.39990234375</ele>
        <time>2021-06-27T19:22:06.000Z</time>
        <extensions>
          <ns3:TrackPointExtension>
            <ns3:atemp>29.0</ns3:atemp>
            <ns3:hr>96</ns3:hr>
          </ns3:TrackPointExtension>
        </extensions>
      </trkpt>
      <trkpt lat="36.8212713114917278289794921875" lon="-118.39643008075654506683349609375">
        <ele>3596.199951171875</ele>
        <time>2021-06-27T19:22:20.000Z</time>
        <extensions>
          <ns3:TrackPointExtension>
            <ns3:atemp>29.0</ns3:atemp>
            <ns3:hr>93</ns3:hr>
          </ns3:TrackPointExtension>
        </extensions>
      </trkpt>
      <trkpt lat="36.8212713114917278289794921875" lon="-118.3964299969375133514404296875">
        <ele>3596.199951171875</ele>
        <time>2021-06-27T19:22:23.000Z</time>
        <extensions>
          <ns3:TrackPointExtension>
            <ns3:atemp>29.0</ns3:atemp>
            <ns3:hr>89</ns3:hr>
          </ns3:TrackPointExtension>
        </extensions>
      </trkpt>
      <trkpt lat="36.8212713114917278289794921875" lon="-118.396431170403957366943359375">
        <ele>3596.199951171875</ele>
        <time>2021-06-27T19:22:26.000Z</time>
        <extensions>
          <ns3:TrackPointExtension>
            <ns3:atemp>29.0</ns3:atemp>
            <ns3:hr>86</ns3:hr>
          </ns3:TrackPointExtension>
        </extensions>
      </trkpt>
      <trkpt lat="36.821283884346485137939453125" lon="-118.39643460698425769805908203125">
        <ele>3596.60009765625</ele>
        <time>2021-06-27T19:22:31.000Z</time>
        <extensions>
          <ns3:TrackPointExtension>
            <ns3:atemp>29.0</ns3:atemp>
            <ns3:hr>83</ns3:hr>
          </ns3:TrackPointExtension>
        </extensions>
      </trkpt>
      <trkpt lat="36.82129385881125926971435546875" lon="-118.39644282124936580657958984375">
        <ele>3597</ele>
        <time>2021-06-27T19:22:40.000Z</time>
        <extensions>
          <ns3:TrackPointExtension>
            <ns3:atemp>29.0</ns3:atemp>
            <ns3:hr>80</ns3:hr>
          </ns3:TrackPointExtension>
        </extensions>
      </trkpt>
      <trkpt lat="36.821293942630290985107421875" lon="-118.39644684456288814544677734375">
        <ele>3597</ele>
        <time>2021-06-27T19:22:46.000Z</time>
        <extensions>
          <ns3:TrackPointExtension>
            <ns3:atemp>29.0</ns3:atemp>
            <ns3:hr>77</ns3:hr>
          </ns3:TrackPointExtension>
        </extensions>
      </trkpt>
      <trkpt lat="36.82129360735416412353515625" lon="-118.3964571543037891387939453125">
        <ele>3597</ele>
        <time>2021-06-27T19:22:50.000Z</time>
        <extensions>
          <ns3:TrackPointExtension>
            <ns3:atemp>29.0</ns3:atemp>
            <ns3:hr>74</ns3:hr>
          </ns3:TrackPointExtension>
        </extensions>
      </trkpt>
      <trkpt lat="36.82129318825900554656982421875" lon="-118.3964596688747406005859375">
        <ele>3596.800048828125</ele>
        <time>2021-06-27T19:22:53.000Z</time>
        <extensions>
          <ns3:TrackPointExtension>
            <ns3:atemp>29.0</ns3:atemp>
            <ns3:hr>71</ns3:hr>
          </ns3:TrackPointExtension>
        </extensions>
      </trkpt>
      <trkpt lat="36.82129335589706897735595703125" lon="-118.39648523367941379547119140625">
        <ele>3596.60009765625</ele>
        <time>2021-06-27T19:23:08.000Z</time>
        <extensions>
          <ns3:TrackPointExtension>
            <ns3:atemp>29.0</ns3:atemp>
            <ns3:hr>74</ns3:hr>
          </ns3:TrackPointExtension>
        </extensions>
      </trkpt>
      <trkpt lat="36.82129092514514923095703125" lon="-118.3964859880506992340087890625">
        <ele>3595.60009765625</ele>
        <time>2021-06-27T19:23:22.000Z</time>
        <extensions>
          <ns3:TrackPointExtension>
            <ns3:atemp>30.0</ns3:atemp>
            <ns3:hr>74</ns3:hr>
          </ns3:TrackPointExtension>
        </extensions>
      </trkpt>
      <trkpt lat="36.8212827108800411224365234375" lon="-118.39648473076522350311279296875">
        <ele>3595.39990234375</ele>
        <time>2021-06-27T19:23:33.000Z</time>
        <extensions>
          <ns3:TrackPointExtension>
            <ns3:atemp>30.0</ns3:atemp>
            <ns3:hr>73</ns3:hr>
          </ns3:TrackPointExtension>
        </extensions>
      </trkpt>
      <trkpt lat="36.8212733231484889984130859375" lon="-118.39649478904902935028076171875">
        <ele>3594.39990234375</ele>
        <time>2021-06-27T19:23:49.000Z</time>
        <extensions>
          <ns3:TrackPointExtension>
            <ns3:atemp>30.0</ns3:atemp>
            <ns3:hr>72</ns3:hr>
          </ns3:TrackPointExtension>
        </extensions>
      </trkpt>
      <trkpt lat="36.82125664316117763519287109375" lon="-118.39651423506438732147216796875">
        <ele>3594.199951171875</ele>
        <time>2021-06-27T19:24:01.000Z</time>
        <extensions>
          <ns3:TrackPointExtension>
            <ns3:atemp>30.0</ns3:atemp>
            <ns3:hr>76</ns3:hr>
          </ns3:TrackPointExtension>
        </extensions>
      </trkpt>
      <trkpt lat="36.8212459981441497802734375" lon="-118.3965275622904300689697265625">
        <ele>3594.199951171875</ele>
        <time>2021-06-27T19:24:14.000Z</time>
        <extensions>
          <ns3:TrackPointExtension>
            <ns3:atemp>30.0</ns3:atemp>
            <ns3:hr>73</ns3:hr>
          </ns3:TrackPointExtension>
        </extensions>
      </trkpt>
      <trkpt lat="36.82124574668705463409423828125" lon="-118.39652739465236663818359375">
        <ele>3594.39990234375</ele>
        <time>2021-06-27T19:24:26.000Z</time>
        <extensions>
          <ns3:TrackPointExtension>
            <ns3:atemp>30.0</ns3:atemp>
            <ns3:hr>71</ns3:hr>
          </ns3:TrackPointExtension>
        </extensions>
      </trkpt>
      <trkpt lat="36.82125899009406566619873046875" lon="-118.39650803245604038238525390625">
        <ele>3594</ele>
        <time>2021-06-27T19:24:36.000Z</time>
        <extensions>
          <ns3:TrackPointExtension>
            <ns3:atemp>31.0</ns3:atemp>
            <ns3:hr>68</ns3:hr>
          </ns3:TrackPointExtension>
        </extensions>
      </trkpt>
      <trkpt lat="36.82126804254949092864990234375" lon="-118.39649797417223453521728515625">
        <ele>3594.199951171875</ele>
        <time>2021-06-27T19:24:44.000Z</time>
        <extensions>
          <ns3:TrackPointExtension>
            <ns3:atemp>31.0</ns3:atemp>
            <ns3:hr>71</ns3:hr>
          </ns3:TrackPointExtension>
        </extensions>
      </trkpt>
      <trkpt lat="36.82127240113914012908935546875" lon="-118.39649328030645847320556640625">
        <ele>3593.800048828125</ele>
        <time>2021-06-27T19:24:49.000Z</time>
        <extensions>
          <ns3:TrackPointExtension>
            <ns3:atemp>31.0</ns3:atemp>
            <ns3:hr>73</ns3:hr>
          </ns3:TrackPointExtension>
        </extensions>
      </trkpt>
      <trkpt lat="36.82127349078655242919921875" lon="-118.39649210684001445770263671875">
        <ele>3593.199951171875</ele>
        <time>2021-06-27T19:24:51.000Z</time>
        <extensions>
          <ns3:TrackPointExtension>
            <ns3:atemp>31.0</ns3:atemp>
            <ns3:hr>72</ns3:hr>
          </ns3:TrackPointExtension>
        </extensions>
      </trkpt>
      <trkpt lat="36.82127491571009159088134765625" lon="-118.39649059809744358062744140625">
        <ele>3591.60009765625</ele>
        <time>2021-06-27T19:24:55.000Z</time>
        <extensions>
          <ns3:TrackPointExtension>
            <ns3:atemp>31.0</ns3:atemp>
            <ns3:hr>72</ns3:hr>
          </ns3:TrackPointExtension>
        </extensions>
      </trkpt>
      <trkpt lat="36.8212753348052501678466796875" lon="-118.396490179002285003662109375">
        <ele>3591.199951171875</ele>
        <time>2021-06-27T19:24:57.000Z</time>
        <extensions>
          <ns3:TrackPointExtension>
            <ns3:atemp>31.0</ns3:atemp>
            <ns3:hr>69</ns3:hr>
          </ns3:TrackPointExtension>
        </extensions>
      </trkpt>
      <trkpt lat="36.8212755024433135986328125" lon="-118.3964900113642215728759765625">
        <ele>3591.199951171875</ele>
        <time>2021-06-27T19:24:59.000Z</time>
        <extensions>
          <ns3:TrackPointExtension>
            <ns3:atemp>31.0</ns3:atemp>
            <ns3:hr>72</ns3:hr>
          </ns3:TrackPointExtension>
        </extensions>
      </trkpt>
      <trkpt lat="36.8212755024433135986328125" lon="-118.3964900113642215728759765625">
        <ele>3589.60009765625</ele>
        <time>2021-06-27T19:25:01.000Z</time>
        <extensions>
          <ns3:TrackPointExtension>
            <ns3:atemp>31.0</ns3:atemp>
            <ns3:hr>73</ns3:hr>
          </ns3:TrackPointExtension>
        </extensions>
      </trkpt>
      <trkpt lat="36.82127558626234531402587890625" lon="-118.39648992754518985748291015625">
        <ele>3589.39990234375</ele>
        <time>2021-06-27T19:25:03.000Z</time>
        <extensions>
          <ns3:TrackPointExtension>
            <ns3:atemp>31.0</ns3:atemp>
            <ns3:hr>78</ns3:hr>
          </ns3:TrackPointExtension>
        </extensions>
      </trkpt>
      <trkpt lat="36.82127558626234531402587890625" lon="-118.39648992754518985748291015625">
        <ele>3589</ele>
        <time>2021-06-27T19:25:04.000Z</time>
        <extensions>
          <ns3:TrackPointExtension>
            <ns3:atemp>31.0</ns3:atemp>
            <ns3:hr>81</ns3:hr>
          </ns3:TrackPointExtension>
        </extensions>
      </trkpt>
      <trkpt lat="36.82127558626234531402587890625" lon="-118.39648992754518985748291015625">
        <ele>3588.60009765625</ele>
        <time>2021-06-27T19:25:05.000Z</time>
        <extensions>
          <ns3:TrackPointExtension>
            <ns3:atemp>31.0</ns3:atemp>
            <ns3:hr>84</ns3:hr>
          </ns3:TrackPointExtension>
        </extensions>
      </trkpt>
      <trkpt lat="36.82127558626234531402587890625" lon="-118.39648992754518985748291015625">
        <ele>3588.39990234375</ele>
        <time>2021-06-27T19:25:06.000Z</time>
        <extensions>
          <ns3:TrackPointExtension>
            <ns3:atemp>31.0</ns3:atemp>
            <ns3:hr>86</ns3:hr>
          </ns3:TrackPointExtension>
        </extensions>
      </trkpt>
      <trkpt lat="36.82127575390040874481201171875" lon="-118.396490179002285003662109375">
        <ele>3588.39990234375</ele>
        <time>2021-06-27T19:25:15.000Z</time>
        <extensions>
          <ns3:TrackPointExtension>
            <ns3:atemp>31.0</ns3:atemp>
            <ns3:hr>90</ns3:hr>
          </ns3:TrackPointExtension>
        </extensions>
      </trkpt>
      <trkpt lat="36.82127575390040874481201171875" lon="-118.39649043045938014984130859375">
        <ele>3588.800048828125</ele>
        <time>2021-06-27T19:25:21.000Z</time>
        <extensions>
          <ns3:TrackPointExtension>
            <ns3:atemp>31.0</ns3:atemp>
            <ns3:hr>93</ns3:hr>
          </ns3:TrackPointExtension>
        </extensions>
      </trkpt>
      <trkpt lat="36.82127575390040874481201171875" lon="-118.39649076573550701141357421875">
        <ele>3587.39990234375</ele>
        <time>2021-06-27T19:25:30.000Z</time>
        <extensions>
          <ns3:TrackPointExtension>
            <ns3:atemp>31.0</ns3:atemp>
            <ns3:hr>95</ns3:hr>
          </ns3:TrackPointExtension>
        </extensions>
      </trkpt>
      <trkpt lat="36.82127575390040874481201171875" lon="-118.396490849554538726806640625">
        <ele>3586.199951171875</ele>
        <time>2021-06-27T19:25:33.000Z</time>
        <extensions>
          <ns3:TrackPointExtension>
            <ns3:atemp>31.0</ns3:atemp>
            <ns3:hr>95</ns3:hr>
          </ns3:TrackPointExtension>
        </extensions>
      </trkpt>
      <trkpt lat="36.8212753348052501678466796875" lon="-118.39650996029376983642578125">
        <ele>3585.199951171875</ele>
        <time>2021-06-27T19:25:35.000Z</time>
        <extensions>
          <ns3:TrackPointExtension>
            <ns3:atemp>31.0</ns3:atemp>
            <ns3:hr>94</ns3:hr>
          </ns3:TrackPointExtension>
        </extensions>
      </trkpt>
      <trkpt lat="36.82127038948237895965576171875" lon="-118.3965272270143032073974609375">
        <ele>3584</ele>
        <time>2021-06-27T19:25:37.000Z</time>
        <extensions>
          <ns3:TrackPointExtension>
            <ns3:atemp>31.0</ns3:atemp>
            <ns3:hr>94</ns3:hr>
          </ns3:TrackPointExtension>
        </extensions>
      </trkpt>
      <trkpt lat="36.821267120540142059326171875" lon="-118.3965413086116313934326171875">
        <ele>3583.800048828125</ele>
        <time>2021-06-27T19:25:39.000Z</time>
        <extensions>
          <ns3:TrackPointExtension>
            <ns3:atemp>31.0</ns3:atemp>
            <ns3:hr>94</ns3:hr>
          </ns3:TrackPointExtension>
        </extensions>
      </trkpt>
      <trkpt lat="36.8212505243718624114990234375" lon="-118.39660341851413249969482421875">
        <ele>3584</ele>
        <time>2021-06-27T19:25:44.000Z</time>
        <extensions>
          <ns3:TrackPointExtension>
            <ns3:atemp>31.0</ns3:atemp>
            <ns3:hr>94</ns3:hr>
          </ns3:TrackPointExtension>
        </extensions>
      </trkpt>
      <trkpt lat="36.821250356733798980712890625" lon="-118.396618254482746124267578125">
        <ele>3583</ele>
        <time>2021-06-27T19:25:47.000Z</time>
        <extensions>
          <ns3:TrackPointExtension>
            <ns3:atemp>31.0</ns3:atemp>
            <ns3:hr>95</ns3:hr>
          </ns3:TrackPointExtension>
        </extensions>
      </trkpt>
      <trkpt lat="36.821250356733798980712890625" lon="-118.396618254482746124267578125">
        <ele>3581.60009765625</ele>
        <time>2021-06-27T19:25:53.000Z</time>
        <extensions>
          <ns3:TrackPointExtension>
            <ns3:atemp>31.0</ns3:atemp>
            <ns3:hr>96</ns3:hr>
          </ns3:TrackPointExtension>
        </extensions>
      </trkpt>
      <trkpt lat="36.821250356733798980712890625" lon="-118.396618254482746124267578125">
        <ele>3581.60009765625</ele>
        <time>2021-06-27T19:25:54.000Z</time>
        <extensions>
          <ns3:TrackPointExtension>
            <ns3:atemp>31.0</ns3:atemp>
            <ns3:hr>96</ns3:hr>
          </ns3:TrackPointExtension>
        </extensions>
      </trkpt>
      <trkpt lat="36.821250356733798980712890625" lon="-118.396618254482746124267578125">
        <ele>3581.199951171875</ele>
        <time>2021-06-27T19:25:58.000Z</time>
        <extensions>
          <ns3:TrackPointExtension>
            <ns3:atemp>31.0</ns3:atemp>
            <ns3:hr>97</ns3:hr>
          </ns3:TrackPointExtension>
        </extensions>
      </trkpt>
      <trkpt lat="36.821250356733798980712890625" lon="-118.396618254482746124267578125">
        <ele>3580.199951171875</ele>
        <time>2021-06-27T19:26:01.000Z</time>
        <extensions>
          <ns3:TrackPointExtension>
            <ns3:atemp>31.0</ns3:atemp>
            <ns3:hr>97</ns3:hr>
          </ns3:TrackPointExtension>
        </extensions>
      </trkpt>
      <trkpt lat="36.82124826125800609588623046875" lon="-118.39663258753716945648193359375">
        <ele>3579</ele>
        <time>2021-06-27T19:26:06.000Z</time>
        <extensions>
          <ns3:TrackPointExtension>
            <ns3:atemp>31.0</ns3:atemp>
            <ns3:hr>95</ns3:hr>
          </ns3:TrackPointExtension>
        </extensions>
      </trkpt>
      <trkpt lat="36.82122445665299892425537109375" lon="-118.39665505103766918182373046875">
        <ele>3577.800048828125</ele>
        <time>2021-06-27T19:26:11.000Z</time>
        <extensions>
          <ns3:TrackPointExtension>
            <ns3:atemp>31.0</ns3:atemp>
            <ns3:hr>96</ns3:hr>
          </ns3:TrackPointExtension>
        </extensions>
      </trkpt>
      <trkpt lat="36.8212186731398105621337890625" lon="-118.3966713957488536834716796875">
        <ele>3577.800048828125</ele>
        <time>2021-06-27T19:26:13.000Z</time>
        <extensions>
          <ns3:TrackPointExtension>
            <ns3:atemp>31.0</ns3:atemp>
            <ns3:hr>93</ns3:hr>
          </ns3:TrackPointExtension>
        </extensions>
      </trkpt>
      <trkpt lat="36.82121339254081249237060546875" lon="-118.39669444598257541656494140625">
        <ele>3577.60009765625</ele>
        <time>2021-06-27T19:26:18.000Z</time>
        <extensions>
          <ns3:TrackPointExtension>
            <ns3:atemp>31.0</ns3:atemp>
            <ns3:hr>90</ns3:hr>
          </ns3:TrackPointExtension>
        </extensions>
      </trkpt>
      <trkpt lat="36.821212135255336761474609375" lon="-118.3967015706002712249755859375">
        <ele>3576.199951171875</ele>
        <time>2021-06-27T19:26:20.000Z</time>
        <extensions>
          <ns3:TrackPointExtension>
            <ns3:atemp>31.0</ns3:atemp>
            <ns3:hr>89</ns3:hr>
          </ns3:TrackPointExtension>
        </extensions>
      </trkpt>
      <trkpt lat="36.82121087796986103057861328125" lon="-118.39671825058758258819580078125">
        <ele>3575</ele>
        <time>2021-06-27T19:26:24.000Z</time>
        <extensions>
          <ns3:TrackPointExtension>
            <ns3:atemp>31.0</ns3:atemp>
            <ns3:hr>85</ns3:hr>
          </ns3:TrackPointExtension>
        </extensions>
      </trkpt>
      <trkpt lat="36.82120651938021183013916015625" lon="-118.39673769660294055938720703125">
        <ele>3574.800048828125</ele>
        <time>2021-06-27T19:26:29.000Z</time>
        <extensions>
          <ns3:TrackPointExtension>
            <ns3:atemp>31.0</ns3:atemp>
            <ns3:hr>82</ns3:hr>
          </ns3:TrackPointExtension>
        </extensions>
      </trkpt>
      <trkpt lat="36.8212030827999114990234375" lon="-118.39675630442798137664794921875">
        <ele>3574.39990234375</ele>
        <time>2021-06-27T19:26:36.000Z</time>
        <extensions>
          <ns3:TrackPointExtension>
            <ns3:atemp>31.0</ns3:atemp>
            <ns3:hr>79</ns3:hr>
          </ns3:TrackPointExtension>
        </extensions>
      </trkpt>
      <trkpt lat="36.821202076971530914306640625" lon="-118.39679368771612644195556640625">
        <ele>3575.199951171875</ele>
        <time>2021-06-27T19:26:51.000Z</time>
        <extensions>
          <ns3:TrackPointExtension>
            <ns3:atemp>31.0</ns3:atemp>
            <ns3:hr>83</ns3:hr>
          </ns3:TrackPointExtension>
        </extensions>
      </trkpt>
      <trkpt lat="36.82120216079056262969970703125" lon="-118.39679368771612644195556640625">
        <ele>3574.800048828125</ele>
        <time>2021-06-27T19:26:55.000Z</time>
        <extensions>
          <ns3:TrackPointExtension>
            <ns3:atemp>31.0</ns3:atemp>
            <ns3:hr>86</ns3:hr>
          </ns3:TrackPointExtension>
        </extensions>
      </trkpt>
      <trkpt lat="36.821201741695404052734375" lon="-118.39679502882063388824462890625">
        <ele>3574</ele>
        <time>2021-06-27T19:27:02.000Z</time>
        <extensions>
          <ns3:TrackPointExtension>
            <ns3:atemp>31.0</ns3:atemp>
            <ns3:hr>84</ns3:hr>
          </ns3:TrackPointExtension>
        </extensions>
      </trkpt>
      <trkpt lat="36.82120031677186489105224609375" lon="-118.39679569937288761138916015625">
        <ele>3572.800048828125</ele>
        <time>2021-06-27T19:27:05.000Z</time>
        <extensions>
          <ns3:TrackPointExtension>
            <ns3:atemp>31.0</ns3:atemp>
            <ns3:hr>83</ns3:hr>
          </ns3:TrackPointExtension>
        </extensions>
      </trkpt>
      <trkpt lat="36.8211995624005794525146484375" lon="-118.3967964537441730499267578125">
        <ele>3571.800048828125</ele>
        <time>2021-06-27T19:27:09.000Z</time>
        <extensions>
          <ns3:TrackPointExtension>
            <ns3:atemp>31.0</ns3:atemp>
            <ns3:hr>82</ns3:hr>
          </ns3:TrackPointExtension>
        </extensions>
      </trkpt>
      <trkpt lat="36.8211988918483257293701171875" lon="-118.3967971242964267730712890625">
        <ele>3571</ele>
        <time>2021-06-27T19:27:12.000Z</time>
        <extensions>
          <ns3:TrackPointExtension>
            <ns3:atemp>31.0</ns3:atemp>
            <ns3:hr>85</ns3:hr>
          </ns3:TrackPointExtension>
        </extensions>
      </trkpt>
      <trkpt lat="36.8211975507438182830810546875" lon="-118.3968004770576953887939453125">
        <ele>3570.60009765625</ele>
        <time>2021-06-27T19:27:15.000Z</time>
        <extensions>
          <ns3:TrackPointExtension>
            <ns3:atemp>31.0</ns3:atemp>
            <ns3:hr>85</ns3:hr>
          </ns3:TrackPointExtension>
        </extensions>
      </trkpt>
      <trkpt lat="36.82118841446936130523681640625" lon="-118.39681749232113361358642578125">
        <ele>3569.199951171875</ele>
        <time>2021-06-27T19:27:20.000Z</time>
        <extensions>
          <ns3:TrackPointExtension>
            <ns3:atemp>31.0</ns3:atemp>
            <ns3:hr>88</ns3:hr>
          </ns3:TrackPointExtension>
        </extensions>
      </trkpt>
      <trkpt lat="36.82117466814815998077392578125" lon="-118.39684733189642429351806640625">
        <ele>3568.199951171875</ele>
        <time>2021-06-27T19:27:27.000Z</time>
        <extensions>
          <ns3:TrackPointExtension>
            <ns3:atemp>31.0</ns3:atemp>
            <ns3:hr>90</ns3:hr>
          </ns3:TrackPointExtension>
        </extensions>
      </trkpt>
      <trkpt lat="36.82116695679724216461181640625" lon="-118.39686132967472076416015625">
        <ele>3567.199951171875</ele>
        <time>2021-06-27T19:27:31.000Z</time>
        <extensions>
          <ns3:TrackPointExtension>
            <ns3:atemp>31.0</ns3:atemp>
            <ns3:hr>88</ns3:hr>
          </ns3:TrackPointExtension>
        </extensions>
      </trkpt>
      <trkpt lat="36.82116578333079814910888671875" lon="-118.39687071740627288818359375">
        <ele>3566.199951171875</ele>
        <time>2021-06-27T19:27:33.000Z</time>
        <extensions>
          <ns3:TrackPointExtension>
            <ns3:atemp>31.0</ns3:atemp>
            <ns3:hr>88</ns3:hr>
          </ns3:TrackPointExtension>
        </extensions>
      </trkpt>
      <trkpt lat="36.82116393931210041046142578125" lon="-118.396885804831981658935546875">
        <ele>3565.800048828125</ele>
        <time>2021-06-27T19:27:36.000Z</time>
        <extensions>
          <ns3:TrackPointExtension>
            <ns3:atemp>31.0</ns3:atemp>
            <ns3:hr>85</ns3:hr>
          </ns3:TrackPointExtension>
        </extensions>
      </trkpt>
      <trkpt lat="36.8211630173027515411376953125" lon="-118.39690919034183025360107421875">
        <ele>3565</ele>
        <time>2021-06-27T19:27:40.000Z</time>
        <extensions>
          <ns3:TrackPointExtension>
            <ns3:atemp>31.0</ns3:atemp>
            <ns3:hr>84</ns3:hr>
          </ns3:TrackPointExtension>
        </extensions>
      </trkpt>
      <trkpt lat="36.8211610056459903717041015625" lon="-118.39695252478122711181640625">
        <ele>3563.39990234375</ele>
        <time>2021-06-27T19:27:48.000Z</time>
        <extensions>
          <ns3:TrackPointExtension>
            <ns3:atemp>31.0</ns3:atemp>
            <ns3:hr>83</ns3:hr>
          </ns3:TrackPointExtension>
        </extensions>
      </trkpt>
      <trkpt lat="36.821158491075038909912109375" lon="-118.3969972841441631317138671875">
        <ele>3563.39990234375</ele>
        <time>2021-06-27T19:27:58.000Z</time>
        <extensions>
          <ns3:TrackPointExtension>
            <ns3:atemp>30.0</ns3:atemp>
            <ns3:hr>87</ns3:hr>
          </ns3:TrackPointExtension>
        </extensions>
      </trkpt>
      <trkpt lat="36.82115455158054828643798828125" lon="-118.39700725860893726348876953125">
        <ele>3563.39990234375</ele>
        <time>2021-06-27T19:28:00.000Z</time>
        <extensions>
          <ns3:TrackPointExtension>
            <ns3:atemp>30.0</ns3:atemp>
            <ns3:hr>90</ns3:hr>
          </ns3:TrackPointExtension>
        </extensions>
      </trkpt>
      <trkpt lat="36.82113359682261943817138671875" lon="-118.39704380370676517486572265625">
        <ele>3562.60009765625</ele>
        <time>2021-06-27T19:28:13.000Z</time>
        <extensions>
          <ns3:TrackPointExtension>
            <ns3:atemp>30.0</ns3:atemp>
            <ns3:hr>87</ns3:hr>
          </ns3:TrackPointExtension>
        </extensions>
      </trkpt>
      <trkpt lat="36.8211331777274608612060546875" lon="-118.39704480953514575958251953125">
        <ele>3562.39990234375</ele>
        <time>2021-06-27T19:28:14.000Z</time>
        <extensions>
          <ns3:TrackPointExtension>
            <ns3:atemp>30.0</ns3:atemp>
            <ns3:hr>86</ns3:hr>
          </ns3:TrackPointExtension>
        </extensions>
      </trkpt>
      <trkpt lat="36.82113133370876312255859375" lon="-118.3970475755631923675537109375">
        <ele>3561.199951171875</ele>
        <time>2021-06-27T19:28:17.000Z</time>
        <extensions>
          <ns3:TrackPointExtension>
            <ns3:atemp>30.0</ns3:atemp>
            <ns3:hr>86</ns3:hr>
          </ns3:TrackPointExtension>
        </extensions>
      </trkpt>
      <trkpt lat="36.8211308307945728302001953125" lon="-118.39704799465835094451904296875">
        <ele>3561</ele>
        <time>2021-06-27T19:28:18.000Z</time>
        <extensions>
          <ns3:TrackPointExtension>
            <ns3:atemp>30.0</ns3:atemp>
            <ns3:hr>83</ns3:hr>
          </ns3:TrackPointExtension>
        </extensions>
      </trkpt>
      <trkpt lat="36.8211291544139385223388671875" lon="-118.39704967103898525238037109375">
        <ele>3560</ele>
        <time>2021-06-27T19:28:23.000Z</time>
        <extensions>
          <ns3:TrackPointExtension>
            <ns3:atemp>30.0</ns3:atemp>
            <ns3:hr>85</ns3:hr>
          </ns3:TrackPointExtension>
        </extensions>
      </trkpt>
      <trkpt lat="36.8211278133094310760498046875" lon="-118.39705235324800014495849609375">
        <ele>3558.800048828125</ele>
        <time>2021-06-27T19:28:28.000Z</time>
        <extensions>
          <ns3:TrackPointExtension>
            <ns3:atemp>30.0</ns3:atemp>
            <ns3:hr>85</ns3:hr>
          </ns3:TrackPointExtension>
        </extensions>
      </trkpt>
      <trkpt lat="36.8211264722049236297607421875" lon="-118.39706241153180599212646484375">
        <ele>3557.199951171875</ele>
        <time>2021-06-27T19:28:32.000Z</time>
        <extensions>
          <ns3:TrackPointExtension>
            <ns3:atemp>30.0</ns3:atemp>
            <ns3:hr>88</ns3:hr>
          </ns3:TrackPointExtension>
        </extensions>
      </trkpt>
      <trkpt lat="36.82112487964332103729248046875" lon="-118.397080264985561370849609375">
        <ele>3556.800048828125</ele>
        <time>2021-06-27T19:28:37.000Z</time>
        <extensions>
          <ns3:TrackPointExtension>
            <ns3:atemp>30.0</ns3:atemp>
            <ns3:hr>91</ns3:hr>
          </ns3:TrackPointExtension>
        </extensions>
      </trkpt>
      <trkpt lat="36.82112286798655986785888671875" lon="-118.39710004627704620361328125">
        <ele>3556</ele>
        <time>2021-06-27T19:28:42.000Z</time>
        <extensions>
          <ns3:TrackPointExtension>
            <ns3:atemp>30.0</ns3:atemp>
            <ns3:hr>90</ns3:hr>
          </ns3:TrackPointExtension>
        </extensions>
      </trkpt>
      <trkpt lat="36.8211199343204498291015625" lon="-118.3971156366169452667236328125">
        <ele>3555.199951171875</ele>
        <time>2021-06-27T19:28:46.000Z</time>
        <extensions>
          <ns3:TrackPointExtension>
            <ns3:atemp>30.0</ns3:atemp>
            <ns3:hr>87</ns3:hr>
          </ns3:TrackPointExtension>
        </extensions>
      </trkpt>
      <trkpt lat="36.82111917994916439056396484375" lon="-118.3971194922924041748046875">
        <ele>3555</ele>
        <time>2021-06-27T19:28:47.000Z</time>
        <extensions>
          <ns3:TrackPointExtension>
            <ns3:atemp>30.0</ns3:atemp>
            <ns3:hr>86</ns3:hr>
          </ns3:TrackPointExtension>
        </extensions>
      </trkpt>
      <trkpt lat="36.821116916835308074951171875" lon="-118.39713349007070064544677734375">
        <ele>3553.800048828125</ele>
        <time>2021-06-27T19:28:51.000Z</time>
        <extensions>
          <ns3:TrackPointExtension>
            <ns3:atemp>30.0</ns3:atemp>
            <ns3:hr>86</ns3:hr>
          </ns3:TrackPointExtension>
        </extensions>
      </trkpt>
      <trkpt lat="36.82111498899757862091064453125" lon="-118.3971434645354747772216796875">
        <ele>3553.39990234375</ele>
        <time>2021-06-27T19:28:55.000Z</time>
        <extensions>
          <ns3:TrackPointExtension>
            <ns3:atemp>30.0</ns3:atemp>
            <ns3:hr>83</ns3:hr>
          </ns3:TrackPointExtension>
        </extensions>
      </trkpt>
      <trkpt lat="36.8211127258837223052978515625" lon="-118.39714832603931427001953125">
        <ele>3552.800048828125</ele>
        <time>2021-06-27T19:28:58.000Z</time>
        <extensions>
          <ns3:TrackPointExtension>
            <ns3:atemp>30.0</ns3:atemp>
            <ns3:hr>83</ns3:hr>
          </ns3:TrackPointExtension>
        </extensions>
      </trkpt>
      <trkpt lat="36.82110962457954883575439453125" lon="-118.397154025733470916748046875">
        <ele>3551.60009765625</ele>
        <time>2021-06-27T19:29:02.000Z</time>
        <extensions>
          <ns3:TrackPointExtension>
            <ns3:atemp>30.0</ns3:atemp>
            <ns3:hr>86</ns3:hr>
          </ns3:TrackPointExtension>
        </extensions>
      </trkpt>
      <trkpt lat="36.821076013147830963134765625" lon="-118.39721462689340114593505859375">
        <ele>3550.60009765625</ele>
        <time>2021-06-27T19:29:06.000Z</time>
        <extensions>
          <ns3:TrackPointExtension>
            <ns3:atemp>30.0</ns3:atemp>
            <ns3:hr>89</ns3:hr>
          </ns3:TrackPointExtension>
        </extensions>
      </trkpt>
      <trkpt lat="36.8210597522556781768798828125" lon="-118.39726055972278118133544921875">
        <ele>3550.199951171875</ele>
        <time>2021-06-27T19:29:09.000Z</time>
        <extensions>
          <ns3:TrackPointExtension>
            <ns3:atemp>30.0</ns3:atemp>
            <ns3:hr>92</ns3:hr>
          </ns3:TrackPointExtension>
        </extensions>
      </trkpt>
      <trkpt lat="36.82103955186903476715087890625" lon="-118.39730062521994113922119140625">
        <ele>3550</ele>
        <time>2021-06-27T19:29:16.000Z</time>
        <extensions>
          <ns3:TrackPointExtension>
            <ns3:atemp>30.0</ns3:atemp>
            <ns3:hr>94</ns3:hr>
          </ns3:TrackPointExtension>
        </extensions>
      </trkpt>
      <trkpt lat="36.82103955186903476715087890625" lon="-118.39730062521994113922119140625">
        <ele>3549.800048828125</ele>
        <time>2021-06-27T19:29:25.000Z</time>
        <extensions>
          <ns3:TrackPointExtension>
            <ns3:atemp>30.0</ns3:atemp>
            <ns3:hr>91</ns3:hr>
          </ns3:TrackPointExtension>
        </extensions>
      </trkpt>
      <trkpt lat="36.8210367858409881591796875" lon="-118.39729785919189453125">
        <ele>3549.39990234375</ele>
        <time>2021-06-27T19:29:37.000Z</time>
        <extensions>
          <ns3:TrackPointExtension>
            <ns3:atemp>30.0</ns3:atemp>
            <ns3:hr>90</ns3:hr>
          </ns3:TrackPointExtension>
        </extensions>
      </trkpt>
      <trkpt lat="36.82103586383163928985595703125" lon="-118.39729785919189453125">
        <ele>3548</ele>
        <time>2021-06-27T19:29:42.000Z</time>
        <extensions>
          <ns3:TrackPointExtension>
            <ns3:atemp>30.0</ns3:atemp>
            <ns3:hr>91</ns3:hr>
          </ns3:TrackPointExtension>
        </extensions>
      </trkpt>
      <trkpt lat="36.8210341036319732666015625" lon="-118.39729894883930683135986328125">
        <ele>3546.60009765625</ele>
        <time>2021-06-27T19:29:47.000Z</time>
        <extensions>
          <ns3:TrackPointExtension>
            <ns3:atemp>30.0</ns3:atemp>
            <ns3:hr>90</ns3:hr>
          </ns3:TrackPointExtension>
        </extensions>
      </trkpt>
      <trkpt lat="36.82103301398456096649169921875" lon="-118.3973017148673534393310546875">
        <ele>3545.39990234375</ele>
        <time>2021-06-27T19:29:53.000Z</time>
        <extensions>
          <ns3:TrackPointExtension>
            <ns3:atemp>30.0</ns3:atemp>
            <ns3:hr>91</ns3:hr>
          </ns3:TrackPointExtension>
        </extensions>
      </trkpt>
      <trkpt lat="36.82102228514850139617919921875" lon="-118.3973211608827114105224609375">
        <ele>3544.60009765625</ele>
        <time>2021-06-27T19:29:56.000Z</time>
        <extensions>
          <ns3:TrackPointExtension>
            <ns3:atemp>30.0</ns3:atemp>
            <ns3:hr>87</ns3:hr>
          </ns3:TrackPointExtension>
        </extensions>
      </trkpt>
      <trkpt lat="36.82101809419691562652587890625" lon="-118.39733599685132503509521484375">
        <ele>3544.39990234375</ele>
        <time>2021-06-27T19:29:58.000Z</time>
        <extensions>
          <ns3:TrackPointExtension>
            <ns3:atemp>30.0</ns3:atemp>
            <ns3:hr>89</ns3:hr>
          </ns3:TrackPointExtension>
        </extensions>
      </trkpt>
      <trkpt lat="36.821009628474712371826171875" lon="-118.39735980145633220672607421875">
        <ele>3543.39990234375</ele>
        <time>2021-06-27T19:30:03.000Z</time>
        <extensions>
          <ns3:TrackPointExtension>
            <ns3:atemp>30.0</ns3:atemp>
            <ns3:hr>91</ns3:hr>
          </ns3:TrackPointExtension>
        </extensions>
      </trkpt>
      <trkpt lat="36.82100124657154083251953125" lon="-118.39738109149038791656494140625">
        <ele>3542.39990234375</ele>
        <time>2021-06-27T19:30:07.000Z</time>
        <extensions>
          <ns3:TrackPointExtension>
            <ns3:atemp>30.0</ns3:atemp>
            <ns3:hr>92</ns3:hr>
          </ns3:TrackPointExtension>
        </extensions>
      </trkpt>
      <trkpt lat="36.82100032456219196319580078125" lon="-118.39739768765866756439208984375">
        <ele>3541.199951171875</ele>
        <time>2021-06-27T19:30:10.000Z</time>
        <extensions>
          <ns3:TrackPointExtension>
            <ns3:atemp>30.0</ns3:atemp>
            <ns3:hr>92</ns3:hr>
          </ns3:TrackPointExtension>
        </extensions>
      </trkpt>
      <trkpt lat="36.8209997378289699554443359375" lon="-118.3974291197955608367919921875">
        <ele>3540</ele>
        <time>2021-06-27T19:30:14.000Z</time>
        <extensions>
          <ns3:TrackPointExtension>
            <ns3:atemp>30.0</ns3:atemp>
            <ns3:hr>91</ns3:hr>
          </ns3:TrackPointExtension>
        </extensions>
      </trkpt>
      <trkpt lat="36.82099780999124050140380859375" lon="-118.3974579535424709320068359375">
        <ele>3539</ele>
        <time>2021-06-27T19:30:19.000Z</time>
        <extensions>
          <ns3:TrackPointExtension>
            <ns3:atemp>30.0</ns3:atemp>
            <ns3:hr>93</ns3:hr>
          </ns3:TrackPointExtension>
        </extensions>
      </trkpt>
      <trkpt lat="36.820982806384563446044921875" lon="-118.397507406771183013916015625">
        <ele>3537.800048828125</ele>
        <time>2021-06-27T19:30:25.000Z</time>
        <extensions>
          <ns3:TrackPointExtension>
            <ns3:atemp>30.0</ns3:atemp>
            <ns3:hr>90</ns3:hr>
          </ns3:TrackPointExtension>
        </extensions>
      </trkpt>
      <trkpt lat="36.82097551412880420684814453125" lon="-118.3975233323872089385986328125">
        <ele>3537.39990234375</ele>
        <time>2021-06-27T19:30:26.000Z</time>
        <extensions>
          <ns3:TrackPointExtension>
            <ns3:atemp>30.0</ns3:atemp>
            <ns3:hr>93</ns3:hr>
          </ns3:TrackPointExtension>
        </extensions>
      </trkpt>
      <trkpt lat="36.82096931152045726776123046875" lon="-118.397541604936122894287109375">
        <ele>3536.60009765625</ele>
        <time>2021-06-27T19:30:27.000Z</time>
        <extensions>
          <ns3:TrackPointExtension>
            <ns3:atemp>30.0</ns3:atemp>
            <ns3:hr>92</ns3:hr>
          </ns3:TrackPointExtension>
        </extensions>
      </trkpt>
      <trkpt lat="36.820965372025966644287109375" lon="-118.39755744673311710357666015625">
        <ele>3536.39990234375</ele>
        <time>2021-06-27T19:30:28.000Z</time>
        <extensions>
          <ns3:TrackPointExtension>
            <ns3:atemp>30.0</ns3:atemp>
            <ns3:hr>95</ns3:hr>
          </ns3:TrackPointExtension>
        </extensions>
      </trkpt>
      <trkpt lat="36.82096143253147602081298828125" lon="-118.39757152833044528961181640625">
        <ele>3536</ele>
        <time>2021-06-27T19:30:29.000Z</time>
        <extensions>
          <ns3:TrackPointExtension>
            <ns3:atemp>30.0</ns3:atemp>
            <ns3:hr>92</ns3:hr>
          </ns3:TrackPointExtension>
        </extensions>
      </trkpt>
      <trkpt lat="36.82094600982964038848876953125" lon="-118.39759818278253078460693359375">
        <ele>3535.39990234375</ele>
        <time>2021-06-27T19:30:31.000Z</time>
        <extensions>
          <ns3:TrackPointExtension>
            <ns3:atemp>30.0</ns3:atemp>
            <ns3:hr>91</ns3:hr>
          </ns3:TrackPointExtension>
        </extensions>
      </trkpt>
      <trkpt lat="36.82093150913715362548828125" lon="-118.39764528907835483551025390625">
        <ele>3534.800048828125</ele>
        <time>2021-06-27T19:30:34.000Z</time>
        <extensions>
          <ns3:TrackPointExtension>
            <ns3:atemp>30.0</ns3:atemp>
            <ns3:hr>90</ns3:hr>
          </ns3:TrackPointExtension>
        </extensions>
      </trkpt>
      <trkpt lat="36.82093360461294651031494140625" lon="-118.3976607955992221832275390625">
        <ele>3534.39990234375</ele>
        <time>2021-06-27T19:30:36.000Z</time>
        <extensions>
          <ns3:TrackPointExtension>
            <ns3:atemp>30.0</ns3:atemp>
            <ns3:hr>89</ns3:hr>
          </ns3:TrackPointExtension>
        </extensions>
      </trkpt>
      <trkpt lat="36.82093846611678600311279296875" lon="-118.39766289107501506805419921875">
        <ele>3534.199951171875</ele>
        <time>2021-06-27T19:30:37.000Z</time>
        <extensions>
          <ns3:TrackPointExtension>
            <ns3:atemp>30.0</ns3:atemp>
            <ns3:hr>88</ns3:hr>
          </ns3:TrackPointExtension>
        </extensions>
      </trkpt>
      <trkpt lat="36.82094098068773746490478515625" lon="-118.39766708202660083770751953125">
        <ele>3533.800048828125</ele>
        <time>2021-06-27T19:30:38.000Z</time>
        <extensions>
          <ns3:TrackPointExtension>
            <ns3:atemp>30.0</ns3:atemp>
            <ns3:hr>87</ns3:hr>
          </ns3:TrackPointExtension>
        </extensions>
      </trkpt>
      <trkpt lat="36.82094165123999118804931640625" lon="-118.3976735360920429229736328125">
        <ele>3533</ele>
        <time>2021-06-27T19:30:40.000Z</time>
        <extensions>
          <ns3:TrackPointExtension>
            <ns3:atemp>30.0</ns3:atemp>
            <ns3:hr>87</ns3:hr>
          </ns3:TrackPointExtension>
        </extensions>
      </trkpt>
      <trkpt lat="36.820939891040325164794921875" lon="-118.39769147336483001708984375">
        <ele>3532.39990234375</ele>
        <time>2021-06-27T19:30:43.000Z</time>
        <extensions>
          <ns3:TrackPointExtension>
            <ns3:atemp>30.0</ns3:atemp>
            <ns3:hr>85</ns3:hr>
          </ns3:TrackPointExtension>
        </extensions>
      </trkpt>
      <trkpt lat="36.8209375441074371337890625" lon="-118.3977006934583187103271484375">
        <ele>3532.39990234375</ele>
        <time>2021-06-27T19:30:44.000Z</time>
        <extensions>
          <ns3:TrackPointExtension>
            <ns3:atemp>30.0</ns3:atemp>
            <ns3:hr>85</ns3:hr>
          </ns3:TrackPointExtension>
        </extensions>
      </trkpt>
      <trkpt lat="36.820937208831310272216796875" lon="-118.397709913551807403564453125">
        <ele>3532.199951171875</ele>
        <time>2021-06-27T19:30:45.000Z</time>
        <extensions>
          <ns3:TrackPointExtension>
            <ns3:atemp>30.0</ns3:atemp>
            <ns3:hr>85</ns3:hr>
          </ns3:TrackPointExtension>
        </extensions>
      </trkpt>
      <trkpt lat="36.82093611918389797210693359375" lon="-118.397717289626598358154296875">
        <ele>3531.800048828125</ele>
        <time>2021-06-27T19:30:46.000Z</time>
        <extensions>
          <ns3:TrackPointExtension>
            <ns3:atemp>30.0</ns3:atemp>
            <ns3:hr>85</ns3:hr>
          </ns3:TrackPointExtension>
        </extensions>
      </trkpt>
      <trkpt lat="36.8209413997828960418701171875" lon="-118.39772097766399383544921875">
        <ele>3531.60009765625</ele>
        <time>2021-06-27T19:30:47.000Z</time>
        <extensions>
          <ns3:TrackPointExtension>
            <ns3:atemp>30.0</ns3:atemp>
            <ns3:hr>85</ns3:hr>
          </ns3:TrackPointExtension>
        </extensions>
      </trkpt>
      <trkpt lat="36.82093846611678600311279296875" lon="-118.39772156439721584320068359375">
        <ele>3530.800048828125</ele>
        <time>2021-06-27T19:30:50.000Z</time>
        <extensions>
          <ns3:TrackPointExtension>
            <ns3:atemp>30.0</ns3:atemp>
            <ns3:hr>82</ns3:hr>
          </ns3:TrackPointExtension>
        </extensions>
      </trkpt>
      <trkpt lat="36.82093192823231220245361328125" lon="-118.397718966007232666015625">
        <ele>3530.60009765625</ele>
        <time>2021-06-27T19:30:51.000Z</time>
        <extensions>
          <ns3:TrackPointExtension>
            <ns3:atemp>30.0</ns3:atemp>
            <ns3:hr>82</ns3:hr>
          </ns3:TrackPointExtension>
        </extensions>
      </trkpt>
      <trkpt lat="36.82092572562396526336669921875" lon="-118.39771888218820095062255859375">
        <ele>3530</ele>
        <time>2021-06-27T19:30:53.000Z</time>
        <extensions>
          <ns3:TrackPointExtension>
            <ns3:atemp>30.0</ns3:atemp>
            <ns3:hr>81</ns3:hr>
          </ns3:TrackPointExtension>
        </extensions>
      </trkpt>
      <trkpt lat="36.82092354632914066314697265625" lon="-118.397723324596881866455078125">
        <ele>3529.60009765625</ele>
        <time>2021-06-27T19:30:56.000Z</time>
        <extensions>
          <ns3:TrackPointExtension>
            <ns3:atemp>30.0</ns3:atemp>
            <ns3:hr>81</ns3:hr>
          </ns3:TrackPointExtension>
        </extensions>
      </trkpt>
      <trkpt lat="36.82092354632914066314697265625" lon="-118.397723324596881866455078125">
        <ele>3529.39990234375</ele>
        <time>2021-06-27T19:31:07.000Z</time>
        <extensions>
          <ns3:TrackPointExtension>
            <ns3:atemp>30.0</ns3:atemp>
            <ns3:hr>81</ns3:hr>
          </ns3:TrackPointExtension>
        </extensions>
      </trkpt>
      <trkpt lat="36.8209206126630306243896484375" lon="-118.397717960178852081298828125">
        <ele>3529.199951171875</ele>
        <time>2021-06-27T19:31:24.000Z</time>
        <extensions>
          <ns3:TrackPointExtension>
            <ns3:atemp>31.0</ns3:atemp>
            <ns3:hr>84</ns3:hr>
          </ns3:TrackPointExtension>
        </extensions>
      </trkpt>
      <trkpt lat="36.82092119939625263214111328125" lon="-118.397717960178852081298828125">
        <ele>3528.800048828125</ele>
        <time>2021-06-27T19:31:33.000Z</time>
        <extensions>
          <ns3:TrackPointExtension>
            <ns3:atemp>31.0</ns3:atemp>
            <ns3:hr>87</ns3:hr>
          </ns3:TrackPointExtension>
        </extensions>
      </trkpt>
      <trkpt lat="36.8209216184914112091064453125" lon="-118.3977181278169155120849609375">
        <ele>3528.60009765625</ele>
        <time>2021-06-27T19:31:35.000Z</time>
        <extensions>
          <ns3:TrackPointExtension>
            <ns3:atemp>31.0</ns3:atemp>
            <ns3:hr>90</ns3:hr>
          </ns3:TrackPointExtension>
        </extensions>
      </trkpt>
      <trkpt lat="36.82092186994850635528564453125" lon="-118.39771821163594722747802734375">
        <ele>3528.199951171875</ele>
        <time>2021-06-27T19:31:36.000Z</time>
        <extensions>
          <ns3:TrackPointExtension>
            <ns3:atemp>31.0</ns3:atemp>
            <ns3:hr>91</ns3:hr>
          </ns3:TrackPointExtension>
        </extensions>
      </trkpt>
      <trkpt lat="36.82092212140560150146484375" lon="-118.3977256715297698974609375">
        <ele>3527</ele>
        <time>2021-06-27T19:31:40.000Z</time>
        <extensions>
          <ns3:TrackPointExtension>
            <ns3:atemp>31.0</ns3:atemp>
            <ns3:hr>90</ns3:hr>
          </ns3:TrackPointExtension>
        </extensions>
      </trkpt>
      <trkpt lat="36.8209075368940830230712890625" lon="-118.39774838648736476898193359375">
        <ele>3526</ele>
        <time>2021-06-27T19:31:46.000Z</time>
        <extensions>
          <ns3:TrackPointExtension>
            <ns3:atemp>31.0</ns3:atemp>
            <ns3:hr>90</ns3:hr>
          </ns3:TrackPointExtension>
        </extensions>
      </trkpt>
      <trkpt lat="36.8208991549909114837646484375" lon="-118.39777302928268909454345703125">
        <ele>3525.800048828125</ele>
        <time>2021-06-27T19:31:48.000Z</time>
        <extensions>
          <ns3:TrackPointExtension>
            <ns3:atemp>31.0</ns3:atemp>
            <ns3:hr>89</ns3:hr>
          </ns3:TrackPointExtension>
        </extensions>
      </trkpt>
      <trkpt lat="36.8208864144980907440185546875" lon="-118.397834300994873046875">
        <ele>3524.60009765625</ele>
        <time>2021-06-27T19:31:52.000Z</time>
        <extensions>
          <ns3:TrackPointExtension>
            <ns3:atemp>31.0</ns3:atemp>
            <ns3:hr>90</ns3:hr>
          </ns3:TrackPointExtension>
        </extensions>
      </trkpt>
      <trkpt lat="36.82088281027972698211669921875" lon="-118.3978482149541378021240234375">
        <ele>3524.39990234375</ele>
        <time>2021-06-27T19:31:53.000Z</time>
        <extensions>
          <ns3:TrackPointExtension>
            <ns3:atemp>31.0</ns3:atemp>
            <ns3:hr>90</ns3:hr>
          </ns3:TrackPointExtension>
        </extensions>
      </trkpt>
      <trkpt lat="36.8208750151097774505615234375" lon="-118.39786506257951259613037109375">
        <ele>3523.60009765625</ele>
        <time>2021-06-27T19:31:55.000Z</time>
        <extensions>
          <ns3:TrackPointExtension>
            <ns3:atemp>31.0</ns3:atemp>
            <ns3:hr>90</ns3:hr>
          </ns3:TrackPointExtension>
        </extensions>
      </trkpt>
      <trkpt lat="36.8208731710910797119140625" lon="-118.39787076227366924285888671875">
        <ele>3523</ele>
        <time>2021-06-27T19:31:56.000Z</time>
        <extensions>
          <ns3:TrackPointExtension>
            <ns3:atemp>31.0</ns3:atemp>
            <ns3:hr>90</ns3:hr>
          </ns3:TrackPointExtension>
        </extensions>
      </trkpt>
      <trkpt lat="36.82085716165602207183837890625" lon="-118.39789993129670619964599609375">
        <ele>3522.39990234375</ele>
        <time>2021-06-27T19:32:01.000Z</time>
        <extensions>
          <ns3:TrackPointExtension>
            <ns3:atemp>31.0</ns3:atemp>
            <ns3:hr>90</ns3:hr>
          </ns3:TrackPointExtension>
        </extensions>
      </trkpt>
      <trkpt lat="36.82082631625235080718994140625" lon="-118.39792080223560333251953125">
        <ele>3521.60009765625</ele>
        <time>2021-06-27T19:32:06.000Z</time>
        <extensions>
          <ns3:TrackPointExtension>
            <ns3:atemp>31.0</ns3:atemp>
            <ns3:hr>90</ns3:hr>
          </ns3:TrackPointExtension>
        </extensions>
      </trkpt>
      <trkpt lat="36.82081357575953006744384765625" lon="-118.39792490936815738677978515625">
        <ele>3521.199951171875</ele>
        <time>2021-06-27T19:32:07.000Z</time>
        <extensions>
          <ns3:TrackPointExtension>
            <ns3:atemp>31.0</ns3:atemp>
            <ns3:hr>91</ns3:hr>
          </ns3:TrackPointExtension>
        </extensions>
      </trkpt>
      <trkpt lat="36.820788681507110595703125" lon="-118.39792557992041110992431640625">
        <ele>3520.199951171875</ele>
        <time>2021-06-27T19:32:11.000Z</time>
        <extensions>
          <ns3:TrackPointExtension>
            <ns3:atemp>31.0</ns3:atemp>
            <ns3:hr>93</ns3:hr>
          </ns3:TrackPointExtension>
        </extensions>
      </trkpt>
      <trkpt lat="36.820774935185909271240234375" lon="-118.39793312363326549530029296875">
        <ele>3519.39990234375</ele>
        <time>2021-06-27T19:32:13.000Z</time>
        <extensions>
          <ns3:TrackPointExtension>
            <ns3:atemp>31.0</ns3:atemp>
            <ns3:hr>93</ns3:hr>
          </ns3:TrackPointExtension>
        </extensions>
      </trkpt>
      <trkpt lat="36.820751465857028961181640625" lon="-118.39795005507767200469970703125">
        <ele>3518.39990234375</ele>
        <time>2021-06-27T19:32:17.000Z</time>
        <extensions>
          <ns3:TrackPointExtension>
            <ns3:atemp>31.0</ns3:atemp>
            <ns3:hr>91</ns3:hr>
          </ns3:TrackPointExtension>
        </extensions>
      </trkpt>
      <trkpt lat="36.82073160074651241302490234375" lon="-118.3979938924312591552734375">
        <ele>3517.39990234375</ele>
        <time>2021-06-27T19:32:22.000Z</time>
        <extensions>
          <ns3:TrackPointExtension>
            <ns3:atemp>31.0</ns3:atemp>
            <ns3:hr>88</ns3:hr>
          </ns3:TrackPointExtension>
        </extensions>
      </trkpt>
      <trkpt lat="36.8207251466810703277587890625" lon="-118.3979987539350986480712890625">
        <ele>3517</ele>
        <time>2021-06-27T19:32:23.000Z</time>
        <extensions>
          <ns3:TrackPointExtension>
            <ns3:atemp>31.0</ns3:atemp>
            <ns3:hr>88</ns3:hr>
          </ns3:TrackPointExtension>
        </extensions>
      </trkpt>
      <trkpt lat="36.8206973187625408172607421875" lon="-118.39801258407533168792724609375">
        <ele>3516.39990234375</ele>
        <time>2021-06-27T19:32:27.000Z</time>
        <extensions>
          <ns3:TrackPointExtension>
            <ns3:atemp>31.0</ns3:atemp>
            <ns3:hr>87</ns3:hr>
          </ns3:TrackPointExtension>
        </extensions>
      </trkpt>
      <trkpt lat="36.8206929601728916168212890625" lon="-118.398021049797534942626953125">
        <ele>3515.800048828125</ele>
        <time>2021-06-27T19:32:28.000Z</time>
        <extensions>
          <ns3:TrackPointExtension>
            <ns3:atemp>31.0</ns3:atemp>
            <ns3:hr>87</ns3:hr>
          </ns3:TrackPointExtension>
        </extensions>
      </trkpt>
      <trkpt lat="36.82068466208875179290771484375" lon="-118.3980366401374340057373046875">
        <ele>3515.60009765625</ele>
        <time>2021-06-27T19:32:30.000Z</time>
        <extensions>
          <ns3:TrackPointExtension>
            <ns3:atemp>31.0</ns3:atemp>
            <ns3:hr>83</ns3:hr>
          </ns3:TrackPointExtension>
        </extensions>
      </trkpt>
      <trkpt lat="36.820677034556865692138671875" lon="-118.3980440162122249603271484375">
        <ele>3514.60009765625</ele>
        <time>2021-06-27T19:32:32.000Z</time>
        <extensions>
          <ns3:TrackPointExtension>
            <ns3:atemp>31.0</ns3:atemp>
            <ns3:hr>86</ns3:hr>
          </ns3:TrackPointExtension>
        </extensions>
      </trkpt>
      <trkpt lat="36.82067125104367733001708984375" lon="-118.39804627932608127593994140625">
        <ele>3514.39990234375</ele>
        <time>2021-06-27T19:32:33.000Z</time>
        <extensions>
          <ns3:TrackPointExtension>
            <ns3:atemp>31.0</ns3:atemp>
            <ns3:hr>86</ns3:hr>
          </ns3:TrackPointExtension>
        </extensions>
      </trkpt>
      <trkpt lat="36.82063872925937175750732421875" lon="-118.39805298484861850738525390625">
        <ele>3513.60009765625</ele>
        <time>2021-06-27T19:32:37.000Z</time>
        <extensions>
          <ns3:TrackPointExtension>
            <ns3:atemp>31.0</ns3:atemp>
            <ns3:hr>90</ns3:hr>
          </ns3:TrackPointExtension>
        </extensions>
      </trkpt>
      <trkpt lat="36.82062297128140926361083984375" lon="-118.3980597741901874542236328125">
        <ele>3513</ele>
        <time>2021-06-27T19:32:39.000Z</time>
        <extensions>
          <ns3:TrackPointExtension>
            <ns3:atemp>31.0</ns3:atemp>
            <ns3:hr>90</ns3:hr>
          </ns3:TrackPointExtension>
        </extensions>
      </trkpt>
      <trkpt lat="36.82059732265770435333251953125" lon="-118.39808248914778232574462890625">
        <ele>3511.199951171875</ele>
        <time>2021-06-27T19:32:43.000Z</time>
        <extensions>
          <ns3:TrackPointExtension>
            <ns3:atemp>31.0</ns3:atemp>
            <ns3:hr>89</ns3:hr>
          </ns3:TrackPointExtension>
        </extensions>
      </trkpt>
      <trkpt lat="36.8205910362303256988525390625" lon="-118.3980852551758289337158203125">
        <ele>3511</ele>
        <time>2021-06-27T19:32:44.000Z</time>
        <extensions>
          <ns3:TrackPointExtension>
            <ns3:atemp>31.0</ns3:atemp>
            <ns3:hr>88</ns3:hr>
          </ns3:TrackPointExtension>
        </extensions>
      </trkpt>
      <trkpt lat="36.82058743201196193695068359375" lon="-118.39809036813676357269287109375">
        <ele>3511</ele>
        <time>2021-06-27T19:32:45.000Z</time>
        <extensions>
          <ns3:TrackPointExtension>
            <ns3:atemp>31.0</ns3:atemp>
            <ns3:hr>85</ns3:hr>
          </ns3:TrackPointExtension>
        </extensions>
      </trkpt>
      <trkpt lat="36.8205829896032810211181640625" lon="-118.3980939723551273345947265625">
        <ele>3510.800048828125</ele>
        <time>2021-06-27T19:32:46.000Z</time>
        <extensions>
          <ns3:TrackPointExtension>
            <ns3:atemp>31.0</ns3:atemp>
            <ns3:hr>85</ns3:hr>
          </ns3:TrackPointExtension>
        </extensions>
      </trkpt>
      <trkpt lat="36.820567063987255096435546875" lon="-118.39810897596180438995361328125">
        <ele>3510</ele>
        <time>2021-06-27T19:32:49.000Z</time>
        <extensions>
          <ns3:TrackPointExtension>
            <ns3:atemp>31.0</ns3:atemp>
            <ns3:hr>86</ns3:hr>
          </ns3:TrackPointExtension>
        </extensions>
      </trkpt>
      <trkpt lat="36.82056270539760589599609375" lon="-118.39811853133141994476318359375">
        <ele>3509.39990234375</ele>
        <time>2021-06-27T19:32:51.000Z</time>
        <extensions>
          <ns3:TrackPointExtension>
            <ns3:atemp>31.0</ns3:atemp>
            <ns3:hr>85</ns3:hr>
          </ns3:TrackPointExtension>
        </extensions>
      </trkpt>
      <trkpt lat="36.82056245394051074981689453125" lon="-118.39812322519719600677490234375">
        <ele>3509.199951171875</ele>
        <time>2021-06-27T19:32:52.000Z</time>
        <extensions>
          <ns3:TrackPointExtension>
            <ns3:atemp>31.0</ns3:atemp>
            <ns3:hr>84</ns3:hr>
          </ns3:TrackPointExtension>
        </extensions>
      </trkpt>
      <trkpt lat="36.8205652199685573577880859375" lon="-118.3981298469007015228271484375">
        <ele>3508.800048828125</ele>
        <time>2021-06-27T19:32:53.000Z</time>
        <extensions>
          <ns3:TrackPointExtension>
            <ns3:atemp>31.0</ns3:atemp>
            <ns3:hr>83</ns3:hr>
          </ns3:TrackPointExtension>
        </extensions>
      </trkpt>
      <trkpt lat="36.82056949473917484283447265625" lon="-118.3981412462890148162841796875">
        <ele>3508.60009765625</ele>
        <time>2021-06-27T19:32:55.000Z</time>
        <extensions>
          <ns3:TrackPointExtension>
            <ns3:atemp>31.0</ns3:atemp>
            <ns3:hr>83</ns3:hr>
          </ns3:TrackPointExtension>
        </extensions>
      </trkpt>
      <trkpt lat="36.82056731544435024261474609375" lon="-118.3981499634683132171630859375">
        <ele>3508.199951171875</ele>
        <time>2021-06-27T19:32:57.000Z</time>
        <extensions>
          <ns3:TrackPointExtension>
            <ns3:atemp>31.0</ns3:atemp>
            <ns3:hr>82</ns3:hr>
          </ns3:TrackPointExtension>
        </extensions>
      </trkpt>
      <trkpt lat="36.8205618672072887420654296875" lon="-118.39815038256347179412841796875">
        <ele>3508.199951171875</ele>
        <time>2021-06-27T19:32:58.000Z</time>
        <extensions>
          <ns3:TrackPointExtension>
            <ns3:atemp>31.0</ns3:atemp>
            <ns3:hr>82</ns3:hr>
          </ns3:TrackPointExtension>
        </extensions>
      </trkpt>
      <trkpt lat="36.820550970733165740966796875" lon="-118.39816085994243621826171875">
        <ele>3507.800048828125</ele>
        <time>2021-06-27T19:33:00.000Z</time>
        <extensions>
          <ns3:TrackPointExtension>
            <ns3:atemp>31.0</ns3:atemp>
            <ns3:hr>82</ns3:hr>
          </ns3:TrackPointExtension>
        </extensions>
      </trkpt>
      <trkpt lat="36.8205474503338336944580078125" lon="-118.398181982338428497314453125">
        <ele>3507</ele>
        <time>2021-06-27T19:33:03.000Z</time>
        <extensions>
          <ns3:TrackPointExtension>
            <ns3:atemp>31.0</ns3:atemp>
            <ns3:hr>83</ns3:hr>
          </ns3:TrackPointExtension>
        </extensions>
      </trkpt>
      <trkpt lat="36.82054367847740650177001953125" lon="-118.39819447137415409088134765625">
        <ele>3506.60009765625</ele>
        <time>2021-06-27T19:33:06.000Z</time>
        <extensions>
          <ns3:TrackPointExtension>
            <ns3:atemp>31.0</ns3:atemp>
            <ns3:hr>84</ns3:hr>
          </ns3:TrackPointExtension>
        </extensions>
      </trkpt>
      <trkpt lat="36.82051308453083038330078125" lon="-118.39821760542690753936767578125">
        <ele>3505.60009765625</ele>
        <time>2021-06-27T19:33:12.000Z</time>
        <extensions>
          <ns3:TrackPointExtension>
            <ns3:atemp>31.0</ns3:atemp>
            <ns3:hr>84</ns3:hr>
          </ns3:TrackPointExtension>
        </extensions>
      </trkpt>
      <trkpt lat="36.82050143368542194366455078125" lon="-118.3982321061193943023681640625">
        <ele>3505</ele>
        <time>2021-06-27T19:33:15.000Z</time>
        <extensions>
          <ns3:TrackPointExtension>
            <ns3:atemp>31.0</ns3:atemp>
            <ns3:hr>81</ns3:hr>
          </ns3:TrackPointExtension>
        </extensions>
      </trkpt>
      <trkpt lat="36.82049606926739215850830078125" lon="-118.39824325405061244964599609375">
        <ele>3504.39990234375</ele>
        <time>2021-06-27T19:33:17.000Z</time>
        <extensions>
          <ns3:TrackPointExtension>
            <ns3:atemp>31.0</ns3:atemp>
            <ns3:hr>79</ns3:hr>
          </ns3:TrackPointExtension>
        </extensions>
      </trkpt>
      <trkpt lat="36.820493303239345550537109375" lon="-118.39825498871505260467529296875">
        <ele>3504.39990234375</ele>
        <time>2021-06-27T19:33:19.000Z</time>
        <extensions>
          <ns3:TrackPointExtension>
            <ns3:atemp>31.0</ns3:atemp>
            <ns3:hr>77</ns3:hr>
          </ns3:TrackPointExtension>
        </extensions>
      </trkpt>
      <trkpt lat="36.820497326552867889404296875" lon="-118.3982830680906772613525390625">
        <ele>3502.60009765625</ele>
        <time>2021-06-27T19:33:24.000Z</time>
        <extensions>
          <ns3:TrackPointExtension>
            <ns3:atemp>31.0</ns3:atemp>
            <ns3:hr>78</ns3:hr>
          </ns3:TrackPointExtension>
        </extensions>
      </trkpt>
      <trkpt lat="36.82048232294619083404541015625" lon="-118.39831869117915630340576171875">
        <ele>3501.800048828125</ele>
        <time>2021-06-27T19:33:29.000Z</time>
        <extensions>
          <ns3:TrackPointExtension>
            <ns3:atemp>31.0</ns3:atemp>
            <ns3:hr>77</ns3:hr>
          </ns3:TrackPointExtension>
        </extensions>
      </trkpt>
      <trkpt lat="36.820477209985256195068359375" lon="-118.398325145244598388671875">
        <ele>3501.39990234375</ele>
        <time>2021-06-27T19:33:31.000Z</time>
        <extensions>
          <ns3:TrackPointExtension>
            <ns3:atemp>31.0</ns3:atemp>
            <ns3:hr>78</ns3:hr>
          </ns3:TrackPointExtension>
        </extensions>
      </trkpt>
      <trkpt lat="36.82045835070312023162841796875" lon="-118.398355655372142791748046875">
        <ele>3500.199951171875</ele>
        <time>2021-06-27T19:33:38.000Z</time>
        <extensions>
          <ns3:TrackPointExtension>
            <ns3:atemp>31.0</ns3:atemp>
            <ns3:hr>77</ns3:hr>
          </ns3:TrackPointExtension>
        </extensions>
      </trkpt>
      <trkpt lat="36.82044946588575839996337890625" lon="-118.39835397899150848388671875">
        <ele>3499.800048828125</ele>
        <time>2021-06-27T19:33:40.000Z</time>
        <extensions>
          <ns3:TrackPointExtension>
            <ns3:atemp>31.0</ns3:atemp>
            <ns3:hr>77</ns3:hr>
          </ns3:TrackPointExtension>
        </extensions>
      </trkpt>
      <trkpt lat="36.82043588720262050628662109375" lon="-118.39836613275110721588134765625">
        <ele>3499.199951171875</ele>
        <time>2021-06-27T19:33:43.000Z</time>
        <extensions>
          <ns3:TrackPointExtension>
            <ns3:atemp>31.0</ns3:atemp>
            <ns3:hr>77</ns3:hr>
          </ns3:TrackPointExtension>
        </extensions>
      </trkpt>
      <trkpt lat="36.8204103223979473114013671875" lon="-118.39839731343090534210205078125">
        <ele>3498</ele>
        <time>2021-06-27T19:33:49.000Z</time>
        <extensions>
          <ns3:TrackPointExtension>
            <ns3:atemp>31.0</ns3:atemp>
            <ns3:hr>79</ns3:hr>
          </ns3:TrackPointExtension>
        </extensions>
      </trkpt>
      <trkpt lat="36.82040118612349033355712890625" lon="-118.39841491542756557464599609375">
        <ele>3497</ele>
        <time>2021-06-27T19:33:53.000Z</time>
        <extensions>
          <ns3:TrackPointExtension>
            <ns3:atemp>31.0</ns3:atemp>
            <ns3:hr>78</ns3:hr>
          </ns3:TrackPointExtension>
        </extensions>
      </trkpt>
      <trkpt lat="36.8203989230096340179443359375" lon="-118.3984399773180484771728515625">
        <ele>3496.60009765625</ele>
        <time>2021-06-27T19:33:58.000Z</time>
        <extensions>
          <ns3:TrackPointExtension>
            <ns3:atemp>31.0</ns3:atemp>
            <ns3:hr>80</ns3:hr>
          </ns3:TrackPointExtension>
        </extensions>
      </trkpt>
      <trkpt lat="36.82039196603000164031982421875" lon="-118.39845481328666210174560546875">
        <ele>3496</ele>
        <time>2021-06-27T19:34:02.000Z</time>
        <extensions>
          <ns3:TrackPointExtension>
            <ns3:atemp>31.0</ns3:atemp>
            <ns3:hr>80</ns3:hr>
          </ns3:TrackPointExtension>
        </extensions>
      </trkpt>
      <trkpt lat="36.82038643397390842437744140625" lon="-118.39848540723323822021484375">
        <ele>3494.800048828125</ele>
        <time>2021-06-27T19:34:07.000Z</time>
        <extensions>
          <ns3:TrackPointExtension>
            <ns3:atemp>31.0</ns3:atemp>
            <ns3:hr>80</ns3:hr>
          </ns3:TrackPointExtension>
        </extensions>
      </trkpt>
      <trkpt lat="36.8203690834343433380126953125" lon="-118.39850376360118389129638671875">
        <ele>3493.800048828125</ele>
        <time>2021-06-27T19:34:12.000Z</time>
        <extensions>
          <ns3:TrackPointExtension>
            <ns3:atemp>31.0</ns3:atemp>
            <ns3:hr>77</ns3:hr>
          </ns3:TrackPointExtension>
        </extensions>
      </trkpt>
      <trkpt lat="36.8203670717775821685791015625" lon="-118.3985077030956745147705078125">
        <ele>3493.60009765625</ele>
        <time>2021-06-27T19:34:13.000Z</time>
        <extensions>
          <ns3:TrackPointExtension>
            <ns3:atemp>31.0</ns3:atemp>
            <ns3:hr>76</ns3:hr>
          </ns3:TrackPointExtension>
        </extensions>
      </trkpt>
      <trkpt lat="36.82036329992115497589111328125" lon="-118.398512564599514007568359375">
        <ele>3493</ele>
        <time>2021-06-27T19:34:15.000Z</time>
        <extensions>
          <ns3:TrackPointExtension>
            <ns3:atemp>31.0</ns3:atemp>
            <ns3:hr>77</ns3:hr>
          </ns3:TrackPointExtension>
        </extensions>
      </trkpt>
      <trkpt lat="36.8203593604266643524169921875" lon="-118.39851583354175090789794921875">
        <ele>3492.60009765625</ele>
        <time>2021-06-27T19:34:17.000Z</time>
        <extensions>
          <ns3:TrackPointExtension>
            <ns3:atemp>31.0</ns3:atemp>
            <ns3:hr>77</ns3:hr>
          </ns3:TrackPointExtension>
        </extensions>
      </trkpt>
      <trkpt lat="36.82035223580896854400634765625" lon="-118.39854651130735874176025390625">
        <ele>3491.60009765625</ele>
        <time>2021-06-27T19:34:21.000Z</time>
        <extensions>
          <ns3:TrackPointExtension>
            <ns3:atemp>31.0</ns3:atemp>
            <ns3:hr>77</ns3:hr>
          </ns3:TrackPointExtension>
        </extensions>
      </trkpt>
      <trkpt lat="36.82034955359995365142822265625" lon="-118.39855824597179889678955078125">
        <ele>3490.800048828125</ele>
        <time>2021-06-27T19:34:24.000Z</time>
        <extensions>
          <ns3:TrackPointExtension>
            <ns3:atemp>31.0</ns3:atemp>
            <ns3:hr>77</ns3:hr>
          </ns3:TrackPointExtension>
        </extensions>
      </trkpt>
      <trkpt lat="36.8203368969261646270751953125" lon="-118.39858288876712322235107421875">
        <ele>3490.199951171875</ele>
        <time>2021-06-27T19:34:30.000Z</time>
        <extensions>
          <ns3:TrackPointExtension>
            <ns3:atemp>31.0</ns3:atemp>
            <ns3:hr>77</ns3:hr>
          </ns3:TrackPointExtension>
        </extensions>
      </trkpt>
      <trkpt lat="36.82033731602132320404052734375" lon="-118.39857903309166431427001953125">
        <ele>3490</ele>
        <time>2021-06-27T19:34:32.000Z</time>
        <extensions>
          <ns3:TrackPointExtension>
            <ns3:atemp>31.0</ns3:atemp>
            <ns3:hr>79</ns3:hr>
          </ns3:TrackPointExtension>
        </extensions>
      </trkpt>
      <trkpt lat="36.82033848948776721954345703125" lon="-118.39857500977814197540283203125">
        <ele>3490</ele>
        <time>2021-06-27T19:34:38.000Z</time>
        <extensions>
          <ns3:TrackPointExtension>
            <ns3:atemp>31.0</ns3:atemp>
            <ns3:hr>82</ns3:hr>
          </ns3:TrackPointExtension>
        </extensions>
      </trkpt>
      <trkpt lat="36.82033848948776721954345703125" lon="-118.39857500977814197540283203125">
        <ele>3490</ele>
        <time>2021-06-27T19:34:40.000Z</time>
        <extensions>
          <ns3:TrackPointExtension>
            <ns3:atemp>31.0</ns3:atemp>
            <ns3:hr>85</ns3:hr>
          </ns3:TrackPointExtension>
        </extensions>
      </trkpt>
      <trkpt lat="36.82033848948776721954345703125" lon="-118.39857500977814197540283203125">
        <ele>3490</ele>
        <time>2021-06-27T19:34:42.000Z</time>
        <extensions>
          <ns3:TrackPointExtension>
            <ns3:atemp>31.0</ns3:atemp>
            <ns3:hr>88</ns3:hr>
          </ns3:TrackPointExtension>
        </extensions>
      </trkpt>
      <trkpt lat="36.82033848948776721954345703125" lon="-118.39857500977814197540283203125">
        <ele>3489.199951171875</ele>
        <time>2021-06-27T19:34:45.000Z</time>
        <extensions>
          <ns3:TrackPointExtension>
            <ns3:atemp>31.0</ns3:atemp>
            <ns3:hr>91</ns3:hr>
          </ns3:TrackPointExtension>
        </extensions>
      </trkpt>
      <trkpt lat="36.82033848948776721954345703125" lon="-118.39857517741620540618896484375">
        <ele>3488.199951171875</ele>
        <time>2021-06-27T19:34:49.000Z</time>
        <extensions>
          <ns3:TrackPointExtension>
            <ns3:atemp>31.0</ns3:atemp>
            <ns3:hr>94</ns3:hr>
          </ns3:TrackPointExtension>
        </extensions>
      </trkpt>
      <trkpt lat="36.8203379027545452117919921875" lon="-118.3985812962055206298828125">
        <ele>3487</ele>
        <time>2021-06-27T19:34:55.000Z</time>
        <extensions>
          <ns3:TrackPointExtension>
            <ns3:atemp>31.0</ns3:atemp>
            <ns3:hr>93</ns3:hr>
          </ns3:TrackPointExtension>
        </extensions>
      </trkpt>
      <trkpt lat="36.820337064564228057861328125" lon="-118.3985893428325653076171875">
        <ele>3486.199951171875</ele>
        <time>2021-06-27T19:34:58.000Z</time>
        <extensions>
          <ns3:TrackPointExtension>
            <ns3:atemp>31.0</ns3:atemp>
            <ns3:hr>90</ns3:hr>
          </ns3:TrackPointExtension>
        </extensions>
      </trkpt>
      <trkpt lat="36.82033698074519634246826171875" lon="-118.39859294705092906951904296875">
        <ele>3486</ele>
        <time>2021-06-27T19:34:59.000Z</time>
        <extensions>
          <ns3:TrackPointExtension>
            <ns3:atemp>31.0</ns3:atemp>
            <ns3:hr>89</ns3:hr>
          </ns3:TrackPointExtension>
        </extensions>
      </trkpt>
      <trkpt lat="36.8203275091946125030517578125" lon="-118.3986242115497589111328125">
        <ele>3485</ele>
        <time>2021-06-27T19:35:05.000Z</time>
        <extensions>
          <ns3:TrackPointExtension>
            <ns3:atemp>31.0</ns3:atemp>
            <ns3:hr>87</ns3:hr>
          </ns3:TrackPointExtension>
        </extensions>
      </trkpt>
      <trkpt lat="36.82030714116990566253662109375" lon="-118.398665450513362884521484375">
        <ele>3483.60009765625</ele>
        <time>2021-06-27T19:35:13.000Z</time>
        <extensions>
          <ns3:TrackPointExtension>
            <ns3:atemp>31.0</ns3:atemp>
            <ns3:hr>87</ns3:hr>
          </ns3:TrackPointExtension>
        </extensions>
      </trkpt>
      <trkpt lat="36.82028786279261112213134765625" lon="-118.3986813761293888092041015625">
        <ele>3482.199951171875</ele>
        <time>2021-06-27T19:35:18.000Z</time>
        <extensions>
          <ns3:TrackPointExtension>
            <ns3:atemp>31.0</ns3:atemp>
            <ns3:hr>87</ns3:hr>
          </ns3:TrackPointExtension>
        </extensions>
      </trkpt>
      <trkpt lat="36.82026632130146026611328125" lon="-118.39872085489332675933837890625">
        <ele>3481.60009765625</ele>
        <time>2021-06-27T19:35:24.000Z</time>
        <extensions>
          <ns3:TrackPointExtension>
            <ns3:atemp>31.0</ns3:atemp>
            <ns3:hr>92</ns3:hr>
          </ns3:TrackPointExtension>
        </extensions>
      </trkpt>
      <trkpt lat="36.82025819085538387298583984375" lon="-118.398735523223876953125">
        <ele>3481</ele>
        <time>2021-06-27T19:35:27.000Z</time>
        <extensions>
          <ns3:TrackPointExtension>
            <ns3:atemp>31.0</ns3:atemp>
            <ns3:hr>91</ns3:hr>
          </ns3:TrackPointExtension>
        </extensions>
      </trkpt>
      <trkpt lat="36.82022466324269771575927734375" lon="-118.3987551368772983551025390625">
        <ele>3480</ele>
        <time>2021-06-27T19:35:37.000Z</time>
        <extensions>
          <ns3:TrackPointExtension>
            <ns3:atemp>31.0</ns3:atemp>
            <ns3:hr>92</ns3:hr>
          </ns3:TrackPointExtension>
        </extensions>
      </trkpt>
      <trkpt lat="36.820220388472080230712890625" lon="-118.398796878755092620849609375">
        <ele>3479.800048828125</ele>
        <time>2021-06-27T19:35:53.000Z</time>
        <extensions>
          <ns3:TrackPointExtension>
            <ns3:atemp>31.0</ns3:atemp>
            <ns3:hr>89</ns3:hr>
          </ns3:TrackPointExtension>
        </extensions>
      </trkpt>
      <trkpt lat="36.82022030465304851531982421875" lon="-118.39880282990634441375732421875">
        <ele>3479.800048828125</ele>
        <time>2021-06-27T19:35:54.000Z</time>
        <extensions>
          <ns3:TrackPointExtension>
            <ns3:atemp>31.0</ns3:atemp>
            <ns3:hr>92</ns3:hr>
          </ns3:TrackPointExtension>
        </extensions>
      </trkpt>
      <trkpt lat="36.82021762244403362274169921875" lon="-118.398807942867279052734375">
        <ele>3479</ele>
        <time>2021-06-27T19:36:06.000Z</time>
        <extensions>
          <ns3:TrackPointExtension>
            <ns3:atemp>31.0</ns3:atemp>
            <ns3:hr>91</ns3:hr>
          </ns3:TrackPointExtension>
        </extensions>
      </trkpt>
      <trkpt lat="36.82020957581698894500732421875" lon="-118.39881255291402339935302734375">
        <ele>3477.800048828125</ele>
        <time>2021-06-27T19:36:11.000Z</time>
        <extensions>
          <ns3:TrackPointExtension>
            <ns3:atemp>31.0</ns3:atemp>
            <ns3:hr>89</ns3:hr>
          </ns3:TrackPointExtension>
        </extensions>
      </trkpt>
      <trkpt lat="36.82020672596991062164306640625" lon="-118.39881540276110172271728515625">
        <ele>3477.60009765625</ele>
        <time>2021-06-27T19:36:13.000Z</time>
        <extensions>
          <ns3:TrackPointExtension>
            <ns3:atemp>31.0</ns3:atemp>
            <ns3:hr>86</ns3:hr>
          </ns3:TrackPointExtension>
        </extensions>
      </trkpt>
      <trkpt lat="36.82020672596991062164306640625" lon="-118.39881540276110172271728515625">
        <ele>3477.39990234375</ele>
        <time>2021-06-27T19:36:15.000Z</time>
        <extensions>
          <ns3:TrackPointExtension>
            <ns3:atemp>31.0</ns3:atemp>
            <ns3:hr>83</ns3:hr>
          </ns3:TrackPointExtension>
        </extensions>
      </trkpt>
      <trkpt lat="36.82020672596991062164306640625" lon="-118.39881540276110172271728515625">
        <ele>3477.39990234375</ele>
        <time>2021-06-27T19:36:16.000Z</time>
        <extensions>
          <ns3:TrackPointExtension>
            <ns3:atemp>31.0</ns3:atemp>
            <ns3:hr>82</ns3:hr>
          </ns3:TrackPointExtension>
        </extensions>
      </trkpt>
      <trkpt lat="36.8201957456767559051513671875" lon="-118.39881540276110172271728515625">
        <ele>3476.60009765625</ele>
        <time>2021-06-27T19:36:22.000Z</time>
        <extensions>
          <ns3:TrackPointExtension>
            <ns3:atemp>31.0</ns3:atemp>
            <ns3:hr>81</ns3:hr>
          </ns3:TrackPointExtension>
        </extensions>
      </trkpt>
      <trkpt lat="36.8201876990497112274169921875" lon="-118.39881573803722858428955078125">
        <ele>3475.60009765625</ele>
        <time>2021-06-27T19:36:26.000Z</time>
        <extensions>
          <ns3:TrackPointExtension>
            <ns3:atemp>31.0</ns3:atemp>
            <ns3:hr>81</ns3:hr>
          </ns3:TrackPointExtension>
        </extensions>
      </trkpt>
      <trkpt lat="36.82018451392650604248046875" lon="-118.398825041949748992919921875">
        <ele>3474.60009765625</ele>
        <time>2021-06-27T19:36:30.000Z</time>
        <extensions>
          <ns3:TrackPointExtension>
            <ns3:atemp>31.0</ns3:atemp>
            <ns3:hr>84</ns3:hr>
          </ns3:TrackPointExtension>
        </extensions>
      </trkpt>
      <trkpt lat="36.82018074207007884979248046875" lon="-118.3988253772258758544921875">
        <ele>3474.60009765625</ele>
        <time>2021-06-27T19:36:31.000Z</time>
        <extensions>
          <ns3:TrackPointExtension>
            <ns3:atemp>31.0</ns3:atemp>
            <ns3:hr>84</ns3:hr>
          </ns3:TrackPointExtension>
        </extensions>
      </trkpt>
      <trkpt lat="36.82016749866306781768798828125" lon="-118.398832418024539947509765625">
        <ele>3473.39990234375</ele>
        <time>2021-06-27T19:36:35.000Z</time>
        <extensions>
          <ns3:TrackPointExtension>
            <ns3:atemp>31.0</ns3:atemp>
            <ns3:hr>86</ns3:hr>
          </ns3:TrackPointExtension>
        </extensions>
      </trkpt>
      <trkpt lat="36.82016230188310146331787109375" lon="-118.398864604532718658447265625">
        <ele>3472.39990234375</ele>
        <time>2021-06-27T19:36:41.000Z</time>
        <extensions>
          <ns3:TrackPointExtension>
            <ns3:atemp>31.0</ns3:atemp>
            <ns3:hr>85</ns3:hr>
          </ns3:TrackPointExtension>
        </extensions>
      </trkpt>
      <trkpt lat="36.8201595358550548553466796875" lon="-118.3988698013126850128173828125">
        <ele>3471.800048828125</ele>
        <time>2021-06-27T19:36:44.000Z</time>
        <extensions>
          <ns3:TrackPointExtension>
            <ns3:atemp>31.0</ns3:atemp>
            <ns3:hr>88</ns3:hr>
          </ns3:TrackPointExtension>
        </extensions>
      </trkpt>
      <trkpt lat="36.82015526108443737030029296875" lon="-118.39886988513171672821044921875">
        <ele>3471.39990234375</ele>
        <time>2021-06-27T19:36:49.000Z</time>
        <extensions>
          <ns3:TrackPointExtension>
            <ns3:atemp>31.0</ns3:atemp>
            <ns3:hr>89</ns3:hr>
          </ns3:TrackPointExtension>
        </extensions>
      </trkpt>
      <trkpt lat="36.820153333246707916259765625" lon="-118.39886988513171672821044921875">
        <ele>3471.199951171875</ele>
        <time>2021-06-27T19:36:52.000Z</time>
        <extensions>
          <ns3:TrackPointExtension>
            <ns3:atemp>31.0</ns3:atemp>
            <ns3:hr>92</ns3:hr>
          </ns3:TrackPointExtension>
        </extensions>
      </trkpt>
      <trkpt lat="36.82015140540897846221923828125" lon="-118.39886988513171672821044921875">
        <ele>3471.199951171875</ele>
        <time>2021-06-27T19:36:53.000Z</time>
        <extensions>
          <ns3:TrackPointExtension>
            <ns3:atemp>31.0</ns3:atemp>
            <ns3:hr>96</ns3:hr>
          </ns3:TrackPointExtension>
        </extensions>
      </trkpt>
      <trkpt lat="36.82014721445739269256591796875" lon="-118.39886988513171672821044921875">
        <ele>3470.800048828125</ele>
        <time>2021-06-27T19:36:54.000Z</time>
        <extensions>
          <ns3:TrackPointExtension>
            <ns3:atemp>31.0</ns3:atemp>
            <ns3:hr>99</ns3:hr>
          </ns3:TrackPointExtension>
        </extensions>
      </trkpt>
      <trkpt lat="36.82014503516256809234619140625" lon="-118.39887122623622417449951171875">
        <ele>3470.60009765625</ele>
        <time>2021-06-27T19:36:55.000Z</time>
        <extensions>
          <ns3:TrackPointExtension>
            <ns3:atemp>31.0</ns3:atemp>
            <ns3:hr>102</ns3:hr>
          </ns3:TrackPointExtension>
        </extensions>
      </trkpt>
      <trkpt lat="36.8201404251158237457275390625" lon="-118.39887189678847789764404296875">
        <ele>3469.800048828125</ele>
        <time>2021-06-27T19:36:56.000Z</time>
        <extensions>
          <ns3:TrackPointExtension>
            <ns3:atemp>31.0</ns3:atemp>
            <ns3:hr>105</ns3:hr>
          </ns3:TrackPointExtension>
        </extensions>
      </trkpt>
      <trkpt lat="36.82013262994587421417236328125" lon="-118.3988731540739536285400390625">
        <ele>3469.199951171875</ele>
        <time>2021-06-27T19:36:59.000Z</time>
        <extensions>
          <ns3:TrackPointExtension>
            <ns3:atemp>31.0</ns3:atemp>
            <ns3:hr>102</ns3:hr>
          </ns3:TrackPointExtension>
        </extensions>
      </trkpt>
      <trkpt lat="36.82011586613953113555908203125" lon="-118.39887566864490509033203125">
        <ele>3468.60009765625</ele>
        <time>2021-06-27T19:37:02.000Z</time>
        <extensions>
          <ns3:TrackPointExtension>
            <ns3:atemp>31.0</ns3:atemp>
            <ns3:hr>99</ns3:hr>
          </ns3:TrackPointExtension>
        </extensions>
      </trkpt>
      <trkpt lat="36.8200998567044734954833984375" lon="-118.39887566864490509033203125">
        <ele>3468</ele>
        <time>2021-06-27T19:37:06.000Z</time>
        <extensions>
          <ns3:TrackPointExtension>
            <ns3:atemp>31.0</ns3:atemp>
            <ns3:hr>96</ns3:hr>
          </ns3:TrackPointExtension>
        </extensions>
      </trkpt>
      <trkpt lat="36.8200884573161602020263671875" lon="-118.39887566864490509033203125">
        <ele>3467.39990234375</ele>
        <time>2021-06-27T19:37:09.000Z</time>
        <extensions>
          <ns3:TrackPointExtension>
            <ns3:atemp>31.0</ns3:atemp>
            <ns3:hr>93</ns3:hr>
          </ns3:TrackPointExtension>
        </extensions>
      </trkpt>
      <trkpt lat="36.82006356306374073028564453125" lon="-118.39887675829231739044189453125">
        <ele>3466</ele>
        <time>2021-06-27T19:37:15.000Z</time>
        <extensions>
          <ns3:TrackPointExtension>
            <ns3:atemp>31.0</ns3:atemp>
            <ns3:hr>91</ns3:hr>
          </ns3:TrackPointExtension>
        </extensions>
      </trkpt>
      <trkpt lat="36.82004210539162158966064453125" lon="-118.39888027869164943695068359375">
        <ele>3464.60009765625</ele>
        <time>2021-06-27T19:37:23.000Z</time>
        <extensions>
          <ns3:TrackPointExtension>
            <ns3:atemp>31.0</ns3:atemp>
            <ns3:hr>92</ns3:hr>
          </ns3:TrackPointExtension>
        </extensions>
      </trkpt>
      <trkpt lat="36.8200344778597354888916015625" lon="-118.39888044632971286773681640625">
        <ele>3464</ele>
        <time>2021-06-27T19:37:25.000Z</time>
        <extensions>
          <ns3:TrackPointExtension>
            <ns3:atemp>31.0</ns3:atemp>
            <ns3:hr>95</ns3:hr>
          </ns3:TrackPointExtension>
        </extensions>
      </trkpt>
      <trkpt lat="36.82002819143235683441162109375" lon="-118.3988805301487445831298828125">
        <ele>3463.800048828125</ele>
        <time>2021-06-27T19:37:27.000Z</time>
        <extensions>
          <ns3:TrackPointExtension>
            <ns3:atemp>31.0</ns3:atemp>
            <ns3:hr>98</ns3:hr>
          </ns3:TrackPointExtension>
        </extensions>
      </trkpt>
      <trkpt lat="36.82001863606274127960205078125" lon="-118.398880697786808013916015625">
        <ele>3463.800048828125</ele>
        <time>2021-06-27T19:37:29.000Z</time>
        <extensions>
          <ns3:TrackPointExtension>
            <ns3:atemp>31.0</ns3:atemp>
            <ns3:hr>101</ns3:hr>
          </ns3:TrackPointExtension>
        </extensions>
      </trkpt>
      <trkpt lat="36.82001193054020404815673828125" lon="-118.39888094924390316009521484375">
        <ele>3463.39990234375</ele>
        <time>2021-06-27T19:37:31.000Z</time>
        <extensions>
          <ns3:TrackPointExtension>
            <ns3:atemp>31.0</ns3:atemp>
            <ns3:hr>103</ns3:hr>
          </ns3:TrackPointExtension>
        </extensions>
      </trkpt>
      <trkpt lat="36.819986365735530853271484375" lon="-118.39888262562453746795654296875">
        <ele>3462.199951171875</ele>
        <time>2021-06-27T19:37:38.000Z</time>
        <extensions>
          <ns3:TrackPointExtension>
            <ns3:atemp>31.0</ns3:atemp>
            <ns3:hr>103</ns3:hr>
          </ns3:TrackPointExtension>
        </extensions>
      </trkpt>
      <trkpt lat="36.81998066604137420654296875" lon="-118.39888631366193294525146484375">
        <ele>3461.39990234375</ele>
        <time>2021-06-27T19:37:42.000Z</time>
        <extensions>
          <ns3:TrackPointExtension>
            <ns3:atemp>31.0</ns3:atemp>
            <ns3:hr>100</ns3:hr>
          </ns3:TrackPointExtension>
        </extensions>
      </trkpt>
      <trkpt lat="36.81997974403202533721923828125" lon="-118.398888409137725830078125">
        <ele>3461.199951171875</ele>
        <time>2021-06-27T19:37:43.000Z</time>
        <extensions>
          <ns3:TrackPointExtension>
            <ns3:atemp>31.0</ns3:atemp>
            <ns3:hr>101</ns3:hr>
          </ns3:TrackPointExtension>
        </extensions>
      </trkpt>
      <trkpt lat="36.81997261941432952880859375" lon="-118.3988942764699459075927734375">
        <ele>3460.39990234375</ele>
        <time>2021-06-27T19:37:48.000Z</time>
        <extensions>
          <ns3:TrackPointExtension>
            <ns3:atemp>31.0</ns3:atemp>
            <ns3:hr>98</ns3:hr>
          </ns3:TrackPointExtension>
        </extensions>
      </trkpt>
      <trkpt lat="36.819965578615665435791015625" lon="-118.39889637194573879241943359375">
        <ele>3460</ele>
        <time>2021-06-27T19:37:50.000Z</time>
        <extensions>
          <ns3:TrackPointExtension>
            <ns3:atemp>31.0</ns3:atemp>
            <ns3:hr>97</ns3:hr>
          </ns3:TrackPointExtension>
        </extensions>
      </trkpt>
      <trkpt lat="36.8199422769248485565185546875" lon="-118.39890928007662296295166015625">
        <ele>3459.800048828125</ele>
        <time>2021-06-27T19:37:54.000Z</time>
        <extensions>
          <ns3:TrackPointExtension>
            <ns3:atemp>31.0</ns3:atemp>
            <ns3:hr>94</ns3:hr>
          </ns3:TrackPointExtension>
        </extensions>
      </trkpt>
      <trkpt lat="36.81990883313119411468505859375" lon="-118.3989381976425647735595703125">
        <ele>3458.60009765625</ele>
        <time>2021-06-27T19:38:04.000Z</time>
        <extensions>
          <ns3:TrackPointExtension>
            <ns3:atemp>31.0</ns3:atemp>
            <ns3:hr>93</ns3:hr>
          </ns3:TrackPointExtension>
        </extensions>
      </trkpt>
      <trkpt lat="36.81989944539964199066162109375" lon="-118.39894515462219715118408203125">
        <ele>3457.199951171875</ele>
        <time>2021-06-27T19:38:10.000Z</time>
        <extensions>
          <ns3:TrackPointExtension>
            <ns3:atemp>31.0</ns3:atemp>
            <ns3:hr>96</ns3:hr>
          </ns3:TrackPointExtension>
        </extensions>
      </trkpt>
      <trkpt lat="36.81988410651683807373046875" lon="-118.3989460766315460205078125">
        <ele>3457</ele>
        <time>2021-06-27T19:38:21.000Z</time>
        <extensions>
          <ns3:TrackPointExtension>
            <ns3:atemp>31.0</ns3:atemp>
            <ns3:hr>93</ns3:hr>
          </ns3:TrackPointExtension>
        </extensions>
      </trkpt>
      <trkpt lat="36.81988502852618694305419921875" lon="-118.39896954596042633056640625">
        <ele>3456.800048828125</ele>
        <time>2021-06-27T19:38:40.000Z</time>
        <extensions>
          <ns3:TrackPointExtension>
            <ns3:atemp>31.0</ns3:atemp>
            <ns3:hr>91</ns3:hr>
          </ns3:TrackPointExtension>
        </extensions>
      </trkpt>
      <trkpt lat="36.81987748481333255767822265625" lon="-118.39898320846259593963623046875">
        <ele>3456.39990234375</ele>
        <time>2021-06-27T19:39:04.000Z</time>
        <extensions>
          <ns3:TrackPointExtension>
            <ns3:atemp>32.0</ns3:atemp>
            <ns3:hr>88</ns3:hr>
          </ns3:TrackPointExtension>
        </extensions>
      </trkpt>
      <trkpt lat="36.8198745511472225189208984375" lon="-118.39898387901484966278076171875">
        <ele>3456.39990234375</ele>
        <time>2021-06-27T19:39:07.000Z</time>
        <extensions>
          <ns3:TrackPointExtension>
            <ns3:atemp>32.0</ns3:atemp>
            <ns3:hr>84</ns3:hr>
          </ns3:TrackPointExtension>
        </extensions>
      </trkpt>
      <trkpt lat="36.81987262330949306488037109375" lon="-118.39898421429097652435302734375">
        <ele>3456.39990234375</ele>
        <time>2021-06-27T19:39:09.000Z</time>
        <extensions>
          <ns3:TrackPointExtension>
            <ns3:atemp>32.0</ns3:atemp>
            <ns3:hr>81</ns3:hr>
          </ns3:TrackPointExtension>
        </extensions>
      </trkpt>
      <trkpt lat="36.819871030747890472412109375" lon="-118.39898471720516681671142578125">
        <ele>3456.39990234375</ele>
        <time>2021-06-27T19:39:11.000Z</time>
        <extensions>
          <ns3:TrackPointExtension>
            <ns3:atemp>32.0</ns3:atemp>
            <ns3:hr>77</ns3:hr>
          </ns3:TrackPointExtension>
        </extensions>
      </trkpt>
      <trkpt lat="36.81986910291016101837158203125" lon="-118.39898706413805484771728515625">
        <ele>3456.39990234375</ele>
        <time>2021-06-27T19:39:14.000Z</time>
        <extensions>
          <ns3:TrackPointExtension>
            <ns3:atemp>32.0</ns3:atemp>
            <ns3:hr>74</ns3:hr>
          </ns3:TrackPointExtension>
        </extensions>
      </trkpt>
      <trkpt lat="36.8198661692440509796142578125" lon="-118.39899008162319660186767578125">
        <ele>3456.199951171875</ele>
        <time>2021-06-27T19:39:19.000Z</time>
        <extensions>
          <ns3:TrackPointExtension>
            <ns3:atemp>32.0</ns3:atemp>
            <ns3:hr>72</ns3:hr>
          </ns3:TrackPointExtension>
        </extensions>
      </trkpt>
      <trkpt lat="36.8198648281395435333251953125" lon="-118.398991338908672332763671875">
        <ele>3456</ele>
        <time>2021-06-27T19:39:23.000Z</time>
        <extensions>
          <ns3:TrackPointExtension>
            <ns3:atemp>32.0</ns3:atemp>
            <ns3:hr>75</ns3:hr>
          </ns3:TrackPointExtension>
        </extensions>
      </trkpt>
      <trkpt lat="36.8198646605014801025390625" lon="-118.3989918418228626251220703125">
        <ele>3456</ele>
        <time>2021-06-27T19:39:26.000Z</time>
        <extensions>
          <ns3:TrackPointExtension>
            <ns3:atemp>32.0</ns3:atemp>
            <ns3:hr>78</ns3:hr>
          </ns3:TrackPointExtension>
        </extensions>
      </trkpt>
      <trkpt lat="36.81986474432051181793212890625" lon="-118.39899192564189434051513671875">
        <ele>3455.199951171875</ele>
        <time>2021-06-27T19:39:36.000Z</time>
        <extensions>
          <ns3:TrackPointExtension>
            <ns3:atemp>32.0</ns3:atemp>
            <ns3:hr>79</ns3:hr>
          </ns3:TrackPointExtension>
        </extensions>
      </trkpt>
      <trkpt lat="36.81986491195857524871826171875" lon="-118.39899159036576747894287109375">
        <ele>3455.199951171875</ele>
        <time>2021-06-27T19:39:47.000Z</time>
        <extensions>
          <ns3:TrackPointExtension>
            <ns3:atemp>32.0</ns3:atemp>
            <ns3:hr>79</ns3:hr>
          </ns3:TrackPointExtension>
        </extensions>
      </trkpt>
      <trkpt lat="36.81986491195857524871826171875" lon="-118.39899142272770404815673828125">
        <ele>3455.199951171875</ele>
        <time>2021-06-27T19:39:50.000Z</time>
        <extensions>
          <ns3:TrackPointExtension>
            <ns3:atemp>32.0</ns3:atemp>
            <ns3:hr>82</ns3:hr>
          </ns3:TrackPointExtension>
        </extensions>
      </trkpt>
      <trkpt lat="36.81986507959663867950439453125" lon="-118.3989911712706089019775390625">
        <ele>3455.800048828125</ele>
        <time>2021-06-27T19:39:57.000Z</time>
        <extensions>
          <ns3:TrackPointExtension>
            <ns3:atemp>32.0</ns3:atemp>
            <ns3:hr>79</ns3:hr>
          </ns3:TrackPointExtension>
        </extensions>
      </trkpt>
      <trkpt lat="36.81986524723470211029052734375" lon="-118.39899100363254547119140625">
        <ele>3455.800048828125</ele>
        <time>2021-06-27T19:40:01.000Z</time>
        <extensions>
          <ns3:TrackPointExtension>
            <ns3:atemp>32.0</ns3:atemp>
            <ns3:hr>76</ns3:hr>
          </ns3:TrackPointExtension>
        </extensions>
      </trkpt>
      <trkpt lat="36.81986541487276554107666015625" lon="-118.39899091981351375579833984375">
        <ele>3455.199951171875</ele>
        <time>2021-06-27T19:40:07.000Z</time>
        <extensions>
          <ns3:TrackPointExtension>
            <ns3:atemp>32.0</ns3:atemp>
            <ns3:hr>79</ns3:hr>
          </ns3:TrackPointExtension>
        </extensions>
      </trkpt>
      <trkpt lat="36.81986558251082897186279296875" lon="-118.39899091981351375579833984375">
        <ele>3455.39990234375</ele>
        <time>2021-06-27T19:40:11.000Z</time>
        <extensions>
          <ns3:TrackPointExtension>
            <ns3:atemp>32.0</ns3:atemp>
            <ns3:hr>76</ns3:hr>
          </ns3:TrackPointExtension>
        </extensions>
      </trkpt>
      <trkpt lat="36.819866001605987548828125" lon="-118.39899075217545032501220703125">
        <ele>3454.800048828125</ele>
        <time>2021-06-27T19:40:23.000Z</time>
        <extensions>
          <ns3:TrackPointExtension>
            <ns3:atemp>32.0</ns3:atemp>
            <ns3:hr>73</ns3:hr>
          </ns3:TrackPointExtension>
        </extensions>
      </trkpt>
      <trkpt lat="36.81986608542501926422119140625" lon="-118.3989905007183551788330078125">
        <ele>3454</ele>
        <time>2021-06-27T19:40:29.000Z</time>
        <extensions>
          <ns3:TrackPointExtension>
            <ns3:atemp>32.0</ns3:atemp>
            <ns3:hr>74</ns3:hr>
          </ns3:TrackPointExtension>
        </extensions>
      </trkpt>
      <trkpt lat="36.8198661692440509796142578125" lon="-118.398990333080291748046875">
        <ele>3452.800048828125</ele>
        <time>2021-06-27T19:40:33.000Z</time>
        <extensions>
          <ns3:TrackPointExtension>
            <ns3:atemp>32.0</ns3:atemp>
            <ns3:hr>75</ns3:hr>
          </ns3:TrackPointExtension>
        </extensions>
      </trkpt>
      <trkpt lat="36.819866001605987548828125" lon="-118.3989901654422283172607421875">
        <ele>3452.199951171875</ele>
        <time>2021-06-27T19:40:39.000Z</time>
        <extensions>
          <ns3:TrackPointExtension>
            <ns3:atemp>32.0</ns3:atemp>
            <ns3:hr>78</ns3:hr>
          </ns3:TrackPointExtension>
        </extensions>
      </trkpt>
      <trkpt lat="36.8198658339679241180419921875" lon="-118.39899008162319660186767578125">
        <ele>3451.60009765625</ele>
        <time>2021-06-27T19:40:41.000Z</time>
        <extensions>
          <ns3:TrackPointExtension>
            <ns3:atemp>32.0</ns3:atemp>
            <ns3:hr>77</ns3:hr>
          </ns3:TrackPointExtension>
        </extensions>
      </trkpt>
      <trkpt lat="36.81986558251082897186279296875" lon="-118.39898991398513317108154296875">
        <ele>3451</ele>
        <time>2021-06-27T19:40:46.000Z</time>
        <extensions>
          <ns3:TrackPointExtension>
            <ns3:atemp>32.0</ns3:atemp>
            <ns3:hr>80</ns3:hr>
          </ns3:TrackPointExtension>
        </extensions>
      </trkpt>
      <trkpt lat="36.8198654986917972564697265625" lon="-118.39898991398513317108154296875">
        <ele>3450.60009765625</ele>
        <time>2021-06-27T19:40:48.000Z</time>
        <extensions>
          <ns3:TrackPointExtension>
            <ns3:atemp>32.0</ns3:atemp>
            <ns3:hr>81</ns3:hr>
          </ns3:TrackPointExtension>
        </extensions>
      </trkpt>
      <trkpt lat="36.819864995777606964111328125" lon="-118.39899008162319660186767578125">
        <ele>3449.39990234375</ele>
        <time>2021-06-27T19:40:53.000Z</time>
        <extensions>
          <ns3:TrackPointExtension>
            <ns3:atemp>32.0</ns3:atemp>
            <ns3:hr>83</ns3:hr>
          </ns3:TrackPointExtension>
        </extensions>
      </trkpt>
      <trkpt lat="36.81986424140632152557373046875" lon="-118.39899041689932346343994140625">
        <ele>3448.199951171875</ele>
        <time>2021-06-27T19:41:00.000Z</time>
        <extensions>
          <ns3:TrackPointExtension>
            <ns3:atemp>32.0</ns3:atemp>
            <ns3:hr>83</ns3:hr>
          </ns3:TrackPointExtension>
        </extensions>
      </trkpt>
      <trkpt lat="36.81986331939697265625" lon="-118.398990668356418609619140625">
        <ele>3446.800048828125</ele>
        <time>2021-06-27T19:41:05.000Z</time>
        <extensions>
          <ns3:TrackPointExtension>
            <ns3:atemp>32.0</ns3:atemp>
            <ns3:hr>81</ns3:hr>
          </ns3:TrackPointExtension>
        </extensions>
      </trkpt>
      <trkpt lat="36.8198624812066555023193359375" lon="-118.3989911712706089019775390625">
        <ele>3446</ele>
        <time>2021-06-27T19:41:10.000Z</time>
        <extensions>
          <ns3:TrackPointExtension>
            <ns3:atemp>32.0</ns3:atemp>
            <ns3:hr>85</ns3:hr>
          </ns3:TrackPointExtension>
        </extensions>
      </trkpt>
      <trkpt lat="36.819862313568592071533203125" lon="-118.398991338908672332763671875">
        <ele>3446</ele>
        <time>2021-06-27T19:41:11.000Z</time>
        <extensions>
          <ns3:TrackPointExtension>
            <ns3:atemp>32.0</ns3:atemp>
            <ns3:hr>88</ns3:hr>
          </ns3:TrackPointExtension>
        </extensions>
      </trkpt>
      <trkpt lat="36.8198621459305286407470703125" lon="-118.3989915065467357635498046875">
        <ele>3445.800048828125</ele>
        <time>2021-06-27T19:41:12.000Z</time>
        <extensions>
          <ns3:TrackPointExtension>
            <ns3:atemp>32.0</ns3:atemp>
            <ns3:hr>91</ns3:hr>
          </ns3:TrackPointExtension>
        </extensions>
      </trkpt>
      <trkpt lat="36.81986189447343349456787109375" lon="-118.39899159036576747894287109375">
        <ele>3445.60009765625</ele>
        <time>2021-06-27T19:41:13.000Z</time>
        <extensions>
          <ns3:TrackPointExtension>
            <ns3:atemp>32.0</ns3:atemp>
            <ns3:hr>93</ns3:hr>
          </ns3:TrackPointExtension>
        </extensions>
      </trkpt>
      <trkpt lat="36.81986172683537006378173828125" lon="-118.39899175800383090972900390625">
        <ele>3445.39990234375</ele>
        <time>2021-06-27T19:41:14.000Z</time>
        <extensions>
          <ns3:TrackPointExtension>
            <ns3:atemp>32.0</ns3:atemp>
            <ns3:hr>96</ns3:hr>
          </ns3:TrackPointExtension>
        </extensions>
      </trkpt>
      <trkpt lat="36.81986122392117977142333984375" lon="-118.39899192564189434051513671875">
        <ele>3445</ele>
        <time>2021-06-27T19:41:16.000Z</time>
        <extensions>
          <ns3:TrackPointExtension>
            <ns3:atemp>32.0</ns3:atemp>
            <ns3:hr>101</ns3:hr>
          </ns3:TrackPointExtension>
        </extensions>
      </trkpt>
      <trkpt lat="36.81986105628311634063720703125" lon="-118.3989921770989894866943359375">
        <ele>3444.60009765625</ele>
        <time>2021-06-27T19:41:17.000Z</time>
        <extensions>
          <ns3:TrackPointExtension>
            <ns3:atemp>32.0</ns3:atemp>
            <ns3:hr>101</ns3:hr>
          </ns3:TrackPointExtension>
        </extensions>
      </trkpt>
      <trkpt lat="36.8198269419372081756591796875" lon="-118.39903919957578182220458984375">
        <ele>3444.39990234375</ele>
        <time>2021-06-27T19:41:19.000Z</time>
        <extensions>
          <ns3:TrackPointExtension>
            <ns3:atemp>32.0</ns3:atemp>
            <ns3:hr>101</ns3:hr>
          </ns3:TrackPointExtension>
        </extensions>
      </trkpt>
      <trkpt lat="36.819755025207996368408203125" lon="-118.39913743548095226287841796875">
        <ele>3443.60009765625</ele>
        <time>2021-06-27T19:41:23.000Z</time>
        <extensions>
          <ns3:TrackPointExtension>
            <ns3:atemp>32.0</ns3:atemp>
            <ns3:hr>98</ns3:hr>
          </ns3:TrackPointExtension>
        </extensions>
      </trkpt>
      <trkpt lat="36.8196881376206874847412109375" lon="-118.3991997130215167999267578125">
        <ele>3443.199951171875</ele>
        <time>2021-06-27T19:41:26.000Z</time>
        <extensions>
          <ns3:TrackPointExtension>
            <ns3:atemp>32.0</ns3:atemp>
            <ns3:hr>98</ns3:hr>
          </ns3:TrackPointExtension>
        </extensions>
      </trkpt>
      <trkpt lat="36.8196529336273670196533203125" lon="-118.39924237690865993499755859375">
        <ele>3443</ele>
        <time>2021-06-27T19:41:31.000Z</time>
        <extensions>
          <ns3:TrackPointExtension>
            <ns3:atemp>32.0</ns3:atemp>
            <ns3:hr>98</ns3:hr>
          </ns3:TrackPointExtension>
        </extensions>
      </trkpt>
      <trkpt lat="36.8196452222764492034912109375" lon="-118.39926919899880886077880859375">
        <ele>3441.800048828125</ele>
        <time>2021-06-27T19:41:34.000Z</time>
        <extensions>
          <ns3:TrackPointExtension>
            <ns3:atemp>32.0</ns3:atemp>
            <ns3:hr>97</ns3:hr>
          </ns3:TrackPointExtension>
        </extensions>
      </trkpt>
      <trkpt lat="36.81964480318129062652587890625" lon="-118.39928378351032733917236328125">
        <ele>3440.800048828125</ele>
        <time>2021-06-27T19:41:36.000Z</time>
        <extensions>
          <ns3:TrackPointExtension>
            <ns3:atemp>32.0</ns3:atemp>
            <ns3:hr>98</ns3:hr>
          </ns3:TrackPointExtension>
        </extensions>
      </trkpt>
      <trkpt lat="36.81962954811751842498779296875" lon="-118.39930289424955844879150390625">
        <ele>3440.199951171875</ele>
        <time>2021-06-27T19:41:41.000Z</time>
        <extensions>
          <ns3:TrackPointExtension>
            <ns3:atemp>32.0</ns3:atemp>
            <ns3:hr>97</ns3:hr>
          </ns3:TrackPointExtension>
        </extensions>
      </trkpt>
      <trkpt lat="36.81961395777761936187744140625" lon="-118.399307169020175933837890625">
        <ele>3439.60009765625</ele>
        <time>2021-06-27T19:41:45.000Z</time>
        <extensions>
          <ns3:TrackPointExtension>
            <ns3:atemp>32.0</ns3:atemp>
            <ns3:hr>100</ns3:hr>
          </ns3:TrackPointExtension>
        </extensions>
      </trkpt>
      <trkpt lat="36.819608174264430999755859375" lon="-118.39931555092334747314453125">
        <ele>3439.199951171875</ele>
        <time>2021-06-27T19:41:47.000Z</time>
        <extensions>
          <ns3:TrackPointExtension>
            <ns3:atemp>32.0</ns3:atemp>
            <ns3:hr>96</ns3:hr>
          </ns3:TrackPointExtension>
        </extensions>
      </trkpt>
      <trkpt lat="36.8196066655218601226806640625" lon="-118.399322591722011566162109375">
        <ele>3438.800048828125</ele>
        <time>2021-06-27T19:41:48.000Z</time>
        <extensions>
          <ns3:TrackPointExtension>
            <ns3:atemp>32.0</ns3:atemp>
            <ns3:hr>96</ns3:hr>
          </ns3:TrackPointExtension>
        </extensions>
      </trkpt>
      <trkpt lat="36.81960809044539928436279296875" lon="-118.39933566749095916748046875">
        <ele>3438.60009765625</ele>
        <time>2021-06-27T19:41:50.000Z</time>
        <extensions>
          <ns3:TrackPointExtension>
            <ns3:atemp>32.0</ns3:atemp>
            <ns3:hr>94</ns3:hr>
          </ns3:TrackPointExtension>
        </extensions>
      </trkpt>
      <trkpt lat="36.819596774876117706298828125" lon="-118.39935318566858768463134765625">
        <ele>3437.60009765625</ele>
        <time>2021-06-27T19:41:56.000Z</time>
        <extensions>
          <ns3:TrackPointExtension>
            <ns3:atemp>32.0</ns3:atemp>
            <ns3:hr>93</ns3:hr>
          </ns3:TrackPointExtension>
        </extensions>
      </trkpt>
      <trkpt lat="36.8195922486484050750732421875" lon="-118.39935251511633396148681640625">
        <ele>3437.199951171875</ele>
        <time>2021-06-27T19:41:57.000Z</time>
        <extensions>
          <ns3:TrackPointExtension>
            <ns3:atemp>32.0</ns3:atemp>
            <ns3:hr>93</ns3:hr>
          </ns3:TrackPointExtension>
        </extensions>
      </trkpt>
      <trkpt lat="36.81955461390316486358642578125" lon="-118.39936441741883754730224609375">
        <ele>3436.60009765625</ele>
        <time>2021-06-27T19:42:03.000Z</time>
        <extensions>
          <ns3:TrackPointExtension>
            <ns3:atemp>32.0</ns3:atemp>
            <ns3:hr>93</ns3:hr>
          </ns3:TrackPointExtension>
        </extensions>
      </trkpt>
      <trkpt lat="36.81954153813421726226806640625" lon="-118.39936257340013980865478515625">
        <ele>3436.39990234375</ele>
        <time>2021-06-27T19:42:05.000Z</time>
        <extensions>
          <ns3:TrackPointExtension>
            <ns3:atemp>32.0</ns3:atemp>
            <ns3:hr>92</ns3:hr>
          </ns3:TrackPointExtension>
        </extensions>
      </trkpt>
      <trkpt lat="36.8195258639752864837646484375" lon="-118.3993633277714252471923828125">
        <ele>3435</ele>
        <time>2021-06-27T19:42:08.000Z</time>
        <extensions>
          <ns3:TrackPointExtension>
            <ns3:atemp>32.0</ns3:atemp>
            <ns3:hr>92</ns3:hr>
          </ns3:TrackPointExtension>
        </extensions>
      </trkpt>
      <trkpt lat="36.819513626396656036376953125" lon="-118.39937514625489711761474609375">
        <ele>3434.199951171875</ele>
        <time>2021-06-27T19:42:11.000Z</time>
        <extensions>
          <ns3:TrackPointExtension>
            <ns3:atemp>32.0</ns3:atemp>
            <ns3:hr>92</ns3:hr>
          </ns3:TrackPointExtension>
        </extensions>
      </trkpt>
      <trkpt lat="36.819506920874118804931640625" lon="-118.39938151650130748748779296875">
        <ele>3433.800048828125</ele>
        <time>2021-06-27T19:42:12.000Z</time>
        <extensions>
          <ns3:TrackPointExtension>
            <ns3:atemp>32.0</ns3:atemp>
            <ns3:hr>92</ns3:hr>
          </ns3:TrackPointExtension>
        </extensions>
      </trkpt>
      <trkpt lat="36.8194987066090106964111328125" lon="-118.3993941731750965118408203125">
        <ele>3433.199951171875</ele>
        <time>2021-06-27T19:42:16.000Z</time>
        <extensions>
          <ns3:TrackPointExtension>
            <ns3:atemp>32.0</ns3:atemp>
            <ns3:hr>90</ns3:hr>
          </ns3:TrackPointExtension>
        </extensions>
      </trkpt>
      <trkpt lat="36.81949979625642299652099609375" lon="-118.39940465055406093597412109375">
        <ele>3432.60009765625</ele>
        <time>2021-06-27T19:42:18.000Z</time>
        <extensions>
          <ns3:TrackPointExtension>
            <ns3:atemp>32.0</ns3:atemp>
            <ns3:hr>90</ns3:hr>
          </ns3:TrackPointExtension>
        </extensions>
      </trkpt>
      <trkpt lat="36.8194906599819660186767578125" lon="-118.39944102801382541656494140625">
        <ele>3432.199951171875</ele>
        <time>2021-06-27T19:42:25.000Z</time>
        <extensions>
          <ns3:TrackPointExtension>
            <ns3:atemp>32.0</ns3:atemp>
            <ns3:hr>87</ns3:hr>
          </ns3:TrackPointExtension>
        </extensions>
      </trkpt>
      <trkpt lat="36.81948370300233364105224609375" lon="-118.39945594780147075653076171875">
        <ele>3432.199951171875</ele>
        <time>2021-06-27T19:42:29.000Z</time>
        <extensions>
          <ns3:TrackPointExtension>
            <ns3:atemp>32.0</ns3:atemp>
            <ns3:hr>84</ns3:hr>
          </ns3:TrackPointExtension>
        </extensions>
      </trkpt>
      <trkpt lat="36.81946777738630771636962890625" lon="-118.39946843683719635009765625">
        <ele>3432.39990234375</ele>
        <time>2021-06-27T19:42:36.000Z</time>
        <extensions>
          <ns3:TrackPointExtension>
            <ns3:atemp>32.0</ns3:atemp>
            <ns3:hr>87</ns3:hr>
          </ns3:TrackPointExtension>
        </extensions>
      </trkpt>
      <trkpt lat="36.81946777738630771636962890625" lon="-118.39946843683719635009765625">
        <ele>3431.60009765625</ele>
        <time>2021-06-27T19:42:44.000Z</time>
        <extensions>
          <ns3:TrackPointExtension>
            <ns3:atemp>32.0</ns3:atemp>
            <ns3:hr>88</ns3:hr>
          </ns3:TrackPointExtension>
        </extensions>
      </trkpt>
      <trkpt lat="36.81946777738630771636962890625" lon="-118.39946843683719635009765625">
        <ele>3431.39990234375</ele>
        <time>2021-06-27T19:42:46.000Z</time>
        <extensions>
          <ns3:TrackPointExtension>
            <ns3:atemp>32.0</ns3:atemp>
            <ns3:hr>88</ns3:hr>
          </ns3:TrackPointExtension>
        </extensions>
      </trkpt>
      <trkpt lat="36.819447912275791168212890625" lon="-118.39946902357041835784912109375">
        <ele>3430.60009765625</ele>
        <time>2021-06-27T19:42:54.000Z</time>
        <extensions>
          <ns3:TrackPointExtension>
            <ns3:atemp>32.0</ns3:atemp>
            <ns3:hr>91</ns3:hr>
          </ns3:TrackPointExtension>
        </extensions>
      </trkpt>
      <trkpt lat="36.81944682262837886810302734375" lon="-118.3994691073894500732421875">
        <ele>3430.39990234375</ele>
        <time>2021-06-27T19:42:55.000Z</time>
        <extensions>
          <ns3:TrackPointExtension>
            <ns3:atemp>32.0</ns3:atemp>
            <ns3:hr>94</ns3:hr>
          </ns3:TrackPointExtension>
        </extensions>
      </trkpt>
      <trkpt lat="36.81944648735225200653076171875" lon="-118.399469442665576934814453125">
        <ele>3429.800048828125</ele>
        <time>2021-06-27T19:42:57.000Z</time>
        <extensions>
          <ns3:TrackPointExtension>
            <ns3:atemp>32.0</ns3:atemp>
            <ns3:hr>97</ns3:hr>
          </ns3:TrackPointExtension>
        </extensions>
      </trkpt>
      <trkpt lat="36.81944581679999828338623046875" lon="-118.3994696103036403656005859375">
        <ele>3429.39990234375</ele>
        <time>2021-06-27T19:42:59.000Z</time>
        <extensions>
          <ns3:TrackPointExtension>
            <ns3:atemp>32.0</ns3:atemp>
            <ns3:hr>100</ns3:hr>
          </ns3:TrackPointExtension>
        </extensions>
      </trkpt>
      <trkpt lat="36.81944531388580799102783203125" lon="-118.39946977794170379638671875">
        <ele>3428.39990234375</ele>
        <time>2021-06-27T19:43:01.000Z</time>
        <extensions>
          <ns3:TrackPointExtension>
            <ns3:atemp>32.0</ns3:atemp>
            <ns3:hr>103</ns3:hr>
          </ns3:TrackPointExtension>
        </extensions>
      </trkpt>
      <trkpt lat="36.8194443918764591217041015625" lon="-118.39947044849395751953125">
        <ele>3428.199951171875</ele>
        <time>2021-06-27T19:43:03.000Z</time>
        <extensions>
          <ns3:TrackPointExtension>
            <ns3:atemp>32.0</ns3:atemp>
            <ns3:hr>105</ns3:hr>
          </ns3:TrackPointExtension>
        </extensions>
      </trkpt>
      <trkpt lat="36.819442212581634521484375" lon="-118.39948494918644428253173828125">
        <ele>3427.800048828125</ele>
        <time>2021-06-27T19:43:07.000Z</time>
        <extensions>
          <ns3:TrackPointExtension>
            <ns3:atemp>32.0</ns3:atemp>
            <ns3:hr>102</ns3:hr>
          </ns3:TrackPointExtension>
        </extensions>
      </trkpt>
      <trkpt lat="36.81942335329949855804443359375" lon="-118.39951948262751102447509765625">
        <ele>3427</ele>
        <time>2021-06-27T19:43:10.000Z</time>
        <extensions>
          <ns3:TrackPointExtension>
            <ns3:atemp>32.0</ns3:atemp>
            <ns3:hr>100</ns3:hr>
          </ns3:TrackPointExtension>
        </extensions>
      </trkpt>
      <trkpt lat="36.81941832415759563446044921875" lon="-118.39953557588160037994384765625">
        <ele>3427</ele>
        <time>2021-06-27T19:43:11.000Z</time>
        <extensions>
          <ns3:TrackPointExtension>
            <ns3:atemp>32.0</ns3:atemp>
            <ns3:hr>98</ns3:hr>
          </ns3:TrackPointExtension>
        </extensions>
      </trkpt>
      <trkpt lat="36.81939820758998394012451171875" lon="-118.3996214903891086578369140625">
        <ele>3425.60009765625</ele>
        <time>2021-06-27T19:43:17.000Z</time>
        <extensions>
          <ns3:TrackPointExtension>
            <ns3:atemp>32.0</ns3:atemp>
            <ns3:hr>99</ns3:hr>
          </ns3:TrackPointExtension>
        </extensions>
      </trkpt>
      <trkpt lat="36.8193890713155269622802734375" lon="-118.399627692997455596923828125">
        <ele>3425.60009765625</ele>
        <time>2021-06-27T19:43:19.000Z</time>
        <extensions>
          <ns3:TrackPointExtension>
            <ns3:atemp>32.0</ns3:atemp>
            <ns3:hr>100</ns3:hr>
          </ns3:TrackPointExtension>
        </extensions>
      </trkpt>
      <trkpt lat="36.81936384178698062896728515625" lon="-118.39965082705020904541015625">
        <ele>3424.60009765625</ele>
        <time>2021-06-27T19:43:24.000Z</time>
        <extensions>
          <ns3:TrackPointExtension>
            <ns3:atemp>32.0</ns3:atemp>
            <ns3:hr>98</ns3:hr>
          </ns3:TrackPointExtension>
        </extensions>
      </trkpt>
      <trkpt lat="36.81935680098831653594970703125" lon="-118.39966423809528350830078125">
        <ele>3424</ele>
        <time>2021-06-27T19:43:28.000Z</time>
        <extensions>
          <ns3:TrackPointExtension>
            <ns3:atemp>32.0</ns3:atemp>
            <ns3:hr>93</ns3:hr>
          </ns3:TrackPointExtension>
        </extensions>
      </trkpt>
      <trkpt lat="36.81935361586511135101318359375" lon="-118.3996721170842647552490234375">
        <ele>3423.199951171875</ele>
        <time>2021-06-27T19:43:29.000Z</time>
        <extensions>
          <ns3:TrackPointExtension>
            <ns3:atemp>32.0</ns3:atemp>
            <ns3:hr>95</ns3:hr>
          </ns3:TrackPointExtension>
        </extensions>
      </trkpt>
      <trkpt lat="36.8193578906357288360595703125" lon="-118.39969919063150882720947265625">
        <ele>3422.60009765625</ele>
        <time>2021-06-27T19:43:35.000Z</time>
        <extensions>
          <ns3:TrackPointExtension>
            <ns3:atemp>32.0</ns3:atemp>
            <ns3:hr>96</ns3:hr>
          </ns3:TrackPointExtension>
        </extensions>
      </trkpt>
      <trkpt lat="36.8193350918591022491455078125" lon="-118.399708159267902374267578125">
        <ele>3422.199951171875</ele>
        <time>2021-06-27T19:43:38.000Z</time>
        <extensions>
          <ns3:TrackPointExtension>
            <ns3:atemp>32.0</ns3:atemp>
            <ns3:hr>96</ns3:hr>
          </ns3:TrackPointExtension>
        </extensions>
      </trkpt>
      <trkpt lat="36.819321848452091217041015625" lon="-118.399711512029170989990234375">
        <ele>3420.800048828125</ele>
        <time>2021-06-27T19:43:40.000Z</time>
        <extensions>
          <ns3:TrackPointExtension>
            <ns3:atemp>32.0</ns3:atemp>
            <ns3:hr>95</ns3:hr>
          </ns3:TrackPointExtension>
        </extensions>
      </trkpt>
      <trkpt lat="36.81930868886411190032958984375" lon="-118.39971679262816905975341796875">
        <ele>3420.800048828125</ele>
        <time>2021-06-27T19:43:42.000Z</time>
        <extensions>
          <ns3:TrackPointExtension>
            <ns3:atemp>32.0</ns3:atemp>
            <ns3:hr>95</ns3:hr>
          </ns3:TrackPointExtension>
        </extensions>
      </trkpt>
      <trkpt lat="36.81930298916995525360107421875" lon="-118.3997472189366817474365234375">
        <ele>3419.39990234375</ele>
        <time>2021-06-27T19:43:47.000Z</time>
        <extensions>
          <ns3:TrackPointExtension>
            <ns3:atemp>32.0</ns3:atemp>
            <ns3:hr>93</ns3:hr>
          </ns3:TrackPointExtension>
        </extensions>
      </trkpt>
      <trkpt lat="36.81931204162538051605224609375" lon="-118.39976012706756591796875">
        <ele>3419.39990234375</ele>
        <time>2021-06-27T19:43:49.000Z</time>
        <extensions>
          <ns3:TrackPointExtension>
            <ns3:atemp>32.0</ns3:atemp>
            <ns3:hr>92</ns3:hr>
          </ns3:TrackPointExtension>
        </extensions>
      </trkpt>
      <trkpt lat="36.81929108686745166778564453125" lon="-118.399767838418483734130859375">
        <ele>3418.800048828125</ele>
        <time>2021-06-27T19:43:55.000Z</time>
        <extensions>
          <ns3:TrackPointExtension>
            <ns3:atemp>32.0</ns3:atemp>
            <ns3:hr>90</ns3:hr>
          </ns3:TrackPointExtension>
        </extensions>
      </trkpt>
      <trkpt lat="36.81927683763206005096435546875" lon="-118.3997770585119724273681640625">
        <ele>3417.800048828125</ele>
        <time>2021-06-27T19:43:58.000Z</time>
        <extensions>
          <ns3:TrackPointExtension>
            <ns3:atemp>32.0</ns3:atemp>
            <ns3:hr>90</ns3:hr>
          </ns3:TrackPointExtension>
        </extensions>
      </trkpt>
      <trkpt lat="36.819273568689823150634765625" lon="-118.39979566633701324462890625">
        <ele>3417.199951171875</ele>
        <time>2021-06-27T19:44:01.000Z</time>
        <extensions>
          <ns3:TrackPointExtension>
            <ns3:atemp>32.0</ns3:atemp>
            <ns3:hr>87</ns3:hr>
          </ns3:TrackPointExtension>
        </extensions>
      </trkpt>
      <trkpt lat="36.81926510296761989593505859375" lon="-118.39980346150696277618408203125">
        <ele>3416.800048828125</ele>
        <time>2021-06-27T19:44:03.000Z</time>
        <extensions>
          <ns3:TrackPointExtension>
            <ns3:atemp>32.0</ns3:atemp>
            <ns3:hr>87</ns3:hr>
          </ns3:TrackPointExtension>
        </extensions>
      </trkpt>
      <trkpt lat="36.81922562420368194580078125" lon="-118.3998139388859272003173828125">
        <ele>3415.60009765625</ele>
        <time>2021-06-27T19:44:09.000Z</time>
        <extensions>
          <ns3:TrackPointExtension>
            <ns3:atemp>32.0</ns3:atemp>
            <ns3:hr>88</ns3:hr>
          </ns3:TrackPointExtension>
        </extensions>
      </trkpt>
      <trkpt lat="36.81921062059700489044189453125" lon="-118.39983598329126834869384765625">
        <ele>3415.199951171875</ele>
        <time>2021-06-27T19:44:13.000Z</time>
        <extensions>
          <ns3:TrackPointExtension>
            <ns3:atemp>32.0</ns3:atemp>
            <ns3:hr>85</ns3:hr>
          </ns3:TrackPointExtension>
        </extensions>
      </trkpt>
      <trkpt lat="36.8192048370838165283203125" lon="-118.39984637685120105743408203125">
        <ele>3414.60009765625</ele>
        <time>2021-06-27T19:44:15.000Z</time>
        <extensions>
          <ns3:TrackPointExtension>
            <ns3:atemp>32.0</ns3:atemp>
            <ns3:hr>84</ns3:hr>
          </ns3:TrackPointExtension>
        </extensions>
      </trkpt>
      <trkpt lat="36.81920274160802364349365234375" lon="-118.3998526632785797119140625">
        <ele>3414.39990234375</ele>
        <time>2021-06-27T19:44:16.000Z</time>
        <extensions>
          <ns3:TrackPointExtension>
            <ns3:atemp>32.0</ns3:atemp>
            <ns3:hr>84</ns3:hr>
          </ns3:TrackPointExtension>
        </extensions>
      </trkpt>
      <trkpt lat="36.81919938884675502777099609375" lon="-118.39985693804919719696044921875">
        <ele>3414</ele>
        <time>2021-06-27T19:44:17.000Z</time>
        <extensions>
          <ns3:TrackPointExtension>
            <ns3:atemp>32.0</ns3:atemp>
            <ns3:hr>83</ns3:hr>
          </ns3:TrackPointExtension>
        </extensions>
      </trkpt>
      <trkpt lat="36.81919335387647151947021484375" lon="-118.39985693804919719696044921875">
        <ele>3414</ele>
        <time>2021-06-27T19:44:19.000Z</time>
        <extensions>
          <ns3:TrackPointExtension>
            <ns3:atemp>32.0</ns3:atemp>
            <ns3:hr>82</ns3:hr>
          </ns3:TrackPointExtension>
        </extensions>
      </trkpt>
      <trkpt lat="36.81918866001069545745849609375" lon="-118.399856351315975189208984375">
        <ele>3413.800048828125</ele>
        <time>2021-06-27T19:44:20.000Z</time>
        <extensions>
          <ns3:TrackPointExtension>
            <ns3:atemp>32.0</ns3:atemp>
            <ns3:hr>82</ns3:hr>
          </ns3:TrackPointExtension>
        </extensions>
      </trkpt>
      <trkpt lat="36.819160915911197662353515625" lon="-118.3998682536184787750244140625">
        <ele>3413</ele>
        <time>2021-06-27T19:44:25.000Z</time>
        <extensions>
          <ns3:TrackPointExtension>
            <ns3:atemp>32.0</ns3:atemp>
            <ns3:hr>79</ns3:hr>
          </ns3:TrackPointExtension>
        </extensions>
      </trkpt>
      <trkpt lat="36.81915496475994586944580078125" lon="-118.399870097637176513671875">
        <ele>3413</ele>
        <time>2021-06-27T19:44:26.000Z</time>
        <extensions>
          <ns3:TrackPointExtension>
            <ns3:atemp>32.0</ns3:atemp>
            <ns3:hr>79</ns3:hr>
          </ns3:TrackPointExtension>
        </extensions>
      </trkpt>
      <trkpt lat="36.819147504866123199462890625" lon="-118.39988711290061473846435546875">
        <ele>3411.800048828125</ele>
        <time>2021-06-27T19:44:29.000Z</time>
        <extensions>
          <ns3:TrackPointExtension>
            <ns3:atemp>32.0</ns3:atemp>
            <ns3:hr>78</ns3:hr>
          </ns3:TrackPointExtension>
        </extensions>
      </trkpt>
      <trkpt lat="36.8191404640674591064453125" lon="-118.39991108514368534088134765625">
        <ele>3411.60009765625</ele>
        <time>2021-06-27T19:44:34.000Z</time>
        <extensions>
          <ns3:TrackPointExtension>
            <ns3:atemp>32.0</ns3:atemp>
            <ns3:hr>75</ns3:hr>
          </ns3:TrackPointExtension>
        </extensions>
      </trkpt>
      <trkpt lat="36.8191349320113658905029296875" lon="-118.39991242624819278717041015625">
        <ele>3411.39990234375</ele>
        <time>2021-06-27T19:44:35.000Z</time>
        <extensions>
          <ns3:TrackPointExtension>
            <ns3:atemp>32.0</ns3:atemp>
            <ns3:hr>74</ns3:hr>
          </ns3:TrackPointExtension>
        </extensions>
      </trkpt>
      <trkpt lat="36.8191231973469257354736328125" lon="-118.3999332971870899200439453125">
        <ele>3410.800048828125</ele>
        <time>2021-06-27T19:44:39.000Z</time>
        <extensions>
          <ns3:TrackPointExtension>
            <ns3:atemp>32.0</ns3:atemp>
            <ns3:hr>71</ns3:hr>
          </ns3:TrackPointExtension>
        </extensions>
      </trkpt>
      <trkpt lat="36.8191315792500972747802734375" lon="-118.39998266659677028656005859375">
        <ele>3409.800048828125</ele>
        <time>2021-06-27T19:44:44.000Z</time>
        <extensions>
          <ns3:TrackPointExtension>
            <ns3:atemp>32.0</ns3:atemp>
            <ns3:hr>69</ns3:hr>
          </ns3:TrackPointExtension>
        </extensions>
      </trkpt>
      <trkpt lat="36.8191619217395782470703125" lon="-118.4000134281814098358154296875">
        <ele>3409.60009765625</ele>
        <time>2021-06-27T19:44:49.000Z</time>
        <extensions>
          <ns3:TrackPointExtension>
            <ns3:atemp>32.0</ns3:atemp>
            <ns3:hr>69</ns3:hr>
          </ns3:TrackPointExtension>
        </extensions>
      </trkpt>
      <trkpt lat="36.8191704712808132171630859375" lon="-118.40002901852130889892578125">
        <ele>3409.199951171875</ele>
        <time>2021-06-27T19:44:51.000Z</time>
        <extensions>
          <ns3:TrackPointExtension>
            <ns3:atemp>32.0</ns3:atemp>
            <ns3:hr>71</ns3:hr>
          </ns3:TrackPointExtension>
        </extensions>
      </trkpt>
      <trkpt lat="36.8191667832434177398681640625" lon="-118.4000409208238124847412109375">
        <ele>3409</ele>
        <time>2021-06-27T19:44:53.000Z</time>
        <extensions>
          <ns3:TrackPointExtension>
            <ns3:atemp>32.0</ns3:atemp>
            <ns3:hr>70</ns3:hr>
          </ns3:TrackPointExtension>
        </extensions>
      </trkpt>
      <trkpt lat="36.81916837580502033233642578125" lon="-118.400055505335330963134765625">
        <ele>3408.800048828125</ele>
        <time>2021-06-27T19:44:55.000Z</time>
        <extensions>
          <ns3:TrackPointExtension>
            <ns3:atemp>32.0</ns3:atemp>
            <ns3:hr>71</ns3:hr>
          </ns3:TrackPointExtension>
        </extensions>
      </trkpt>
      <trkpt lat="36.81916938163340091705322265625" lon="-118.4000623784959316253662109375">
        <ele>3408.60009765625</ele>
        <time>2021-06-27T19:44:56.000Z</time>
        <extensions>
          <ns3:TrackPointExtension>
            <ns3:atemp>32.0</ns3:atemp>
            <ns3:hr>71</ns3:hr>
          </ns3:TrackPointExtension>
        </extensions>
      </trkpt>
      <trkpt lat="36.81917105801403522491455078125" lon="-118.4000865183770656585693359375">
        <ele>3408</ele>
        <time>2021-06-27T19:45:00.000Z</time>
        <extensions>
          <ns3:TrackPointExtension>
            <ns3:atemp>32.0</ns3:atemp>
            <ns3:hr>74</ns3:hr>
          </ns3:TrackPointExtension>
        </extensions>
      </trkpt>
      <trkpt lat="36.81916904635727405548095703125" lon="-118.40010236017405986785888671875">
        <ele>3407.60009765625</ele>
        <time>2021-06-27T19:45:02.000Z</time>
        <extensions>
          <ns3:TrackPointExtension>
            <ns3:atemp>32.0</ns3:atemp>
            <ns3:hr>74</ns3:hr>
          </ns3:TrackPointExtension>
        </extensions>
      </trkpt>
      <trkpt lat="36.81916988454759120941162109375" lon="-118.40011375956237316131591796875">
        <ele>3407.60009765625</ele>
        <time>2021-06-27T19:45:04.000Z</time>
        <extensions>
          <ns3:TrackPointExtension>
            <ns3:atemp>32.0</ns3:atemp>
            <ns3:hr>75</ns3:hr>
          </ns3:TrackPointExtension>
        </extensions>
      </trkpt>
      <trkpt lat="36.81916988454759120941162109375" lon="-118.40011417865753173828125">
        <ele>3407.60009765625</ele>
        <time>2021-06-27T19:45:05.000Z</time>
        <extensions>
          <ns3:TrackPointExtension>
            <ns3:atemp>32.0</ns3:atemp>
            <ns3:hr>75</ns3:hr>
          </ns3:TrackPointExtension>
        </extensions>
      </trkpt>
      <trkpt lat="36.81915664114058017730712890625" lon="-118.40012826025485992431640625">
        <ele>3407</ele>
        <time>2021-06-27T19:45:09.000Z</time>
        <extensions>
          <ns3:TrackPointExtension>
            <ns3:atemp>32.0</ns3:atemp>
            <ns3:hr>76</ns3:hr>
          </ns3:TrackPointExtension>
        </extensions>
      </trkpt>
      <trkpt lat="36.81914926506578922271728515625" lon="-118.400143682956695556640625">
        <ele>3406.39990234375</ele>
        <time>2021-06-27T19:45:12.000Z</time>
        <extensions>
          <ns3:TrackPointExtension>
            <ns3:atemp>32.0</ns3:atemp>
            <ns3:hr>76</ns3:hr>
          </ns3:TrackPointExtension>
        </extensions>
      </trkpt>
      <trkpt lat="36.81915110908448696136474609375" lon="-118.40014946646988391876220703125">
        <ele>3405.39990234375</ele>
        <time>2021-06-27T19:45:16.000Z</time>
        <extensions>
          <ns3:TrackPointExtension>
            <ns3:atemp>32.0</ns3:atemp>
            <ns3:hr>76</ns3:hr>
          </ns3:TrackPointExtension>
        </extensions>
      </trkpt>
      <trkpt lat="36.81915664114058017730712890625" lon="-118.40015097521245479583740234375">
        <ele>3404.60009765625</ele>
        <time>2021-06-27T19:45:22.000Z</time>
        <extensions>
          <ns3:TrackPointExtension>
            <ns3:atemp>32.0</ns3:atemp>
            <ns3:hr>77</ns3:hr>
          </ns3:TrackPointExtension>
        </extensions>
      </trkpt>
      <trkpt lat="36.81915362365543842315673828125" lon="-118.40015734545886516571044921875">
        <ele>3404.60009765625</ele>
        <time>2021-06-27T19:45:25.000Z</time>
        <extensions>
          <ns3:TrackPointExtension>
            <ns3:atemp>32.0</ns3:atemp>
            <ns3:hr>80</ns3:hr>
          </ns3:TrackPointExtension>
        </extensions>
      </trkpt>
      <trkpt lat="36.81915362365543842315673828125" lon="-118.40015734545886516571044921875">
        <ele>3404.199951171875</ele>
        <time>2021-06-27T19:45:26.000Z</time>
        <extensions>
          <ns3:TrackPointExtension>
            <ns3:atemp>32.0</ns3:atemp>
            <ns3:hr>81</ns3:hr>
          </ns3:TrackPointExtension>
        </extensions>
      </trkpt>
      <trkpt lat="36.8191480077803134918212890625" lon="-118.4001706726849079132080078125">
        <ele>3404.60009765625</ele>
        <time>2021-06-27T19:45:46.000Z</time>
        <extensions>
          <ns3:TrackPointExtension>
            <ns3:atemp>32.0</ns3:atemp>
            <ns3:hr>84</ns3:hr>
          </ns3:TrackPointExtension>
        </extensions>
      </trkpt>
      <trkpt lat="36.8191480077803134918212890625" lon="-118.4001716785132884979248046875">
        <ele>3404.60009765625</ele>
        <time>2021-06-27T19:45:51.000Z</time>
        <extensions>
          <ns3:TrackPointExtension>
            <ns3:atemp>32.0</ns3:atemp>
            <ns3:hr>83</ns3:hr>
          </ns3:TrackPointExtension>
        </extensions>
      </trkpt>
      <trkpt lat="36.8191473372280597686767578125" lon="-118.40017461217939853668212890625">
        <ele>3404.199951171875</ele>
        <time>2021-06-27T19:45:56.000Z</time>
        <extensions>
          <ns3:TrackPointExtension>
            <ns3:atemp>32.0</ns3:atemp>
            <ns3:hr>80</ns3:hr>
          </ns3:TrackPointExtension>
        </extensions>
      </trkpt>
      <trkpt lat="36.8191463313996791839599609375" lon="-118.40017394162714481353759765625">
        <ele>3404</ele>
        <time>2021-06-27T19:46:00.000Z</time>
        <extensions>
          <ns3:TrackPointExtension>
            <ns3:atemp>32.0</ns3:atemp>
            <ns3:hr>77</ns3:hr>
          </ns3:TrackPointExtension>
        </extensions>
      </trkpt>
      <trkpt lat="36.81914725340902805328369140625" lon="-118.400173522531986236572265625">
        <ele>3404</ele>
        <time>2021-06-27T19:46:02.000Z</time>
        <extensions>
          <ns3:TrackPointExtension>
            <ns3:atemp>32.0</ns3:atemp>
            <ns3:hr>74</ns3:hr>
          </ns3:TrackPointExtension>
        </extensions>
      </trkpt>
      <trkpt lat="36.81913769803941249847412109375" lon="-118.40017377398908138275146484375">
        <ele>3403.199951171875</ele>
        <time>2021-06-27T19:46:23.000Z</time>
        <extensions>
          <ns3:TrackPointExtension>
            <ns3:atemp>32.0</ns3:atemp>
            <ns3:hr>77</ns3:hr>
          </ns3:TrackPointExtension>
        </extensions>
      </trkpt>
      <trkpt lat="36.81911942549049854278564453125" lon="-118.4001706726849079132080078125">
        <ele>3403.800048828125</ele>
        <time>2021-06-27T19:46:39.000Z</time>
        <extensions>
          <ns3:TrackPointExtension>
            <ns3:atemp>32.0</ns3:atemp>
            <ns3:hr>74</ns3:hr>
          </ns3:TrackPointExtension>
        </extensions>
      </trkpt>
      <trkpt lat="36.8191163241863250732421875" lon="-118.4001706726849079132080078125">
        <ele>3403.199951171875</ele>
        <time>2021-06-27T19:46:45.000Z</time>
        <extensions>
          <ns3:TrackPointExtension>
            <ns3:atemp>32.0</ns3:atemp>
            <ns3:hr>71</ns3:hr>
          </ns3:TrackPointExtension>
        </extensions>
      </trkpt>
      <trkpt lat="36.81911372579634189605712890625" lon="-118.4001706726849079132080078125">
        <ele>3401.60009765625</ele>
        <time>2021-06-27T19:46:49.000Z</time>
        <extensions>
          <ns3:TrackPointExtension>
            <ns3:atemp>32.0</ns3:atemp>
            <ns3:hr>72</ns3:hr>
          </ns3:TrackPointExtension>
        </extensions>
      </trkpt>
      <trkpt lat="36.8191081099212169647216796875" lon="-118.400191627442836761474609375">
        <ele>3400</ele>
        <time>2021-06-27T19:46:56.000Z</time>
        <extensions>
          <ns3:TrackPointExtension>
            <ns3:atemp>32.0</ns3:atemp>
            <ns3:hr>74</ns3:hr>
          </ns3:TrackPointExtension>
        </extensions>
      </trkpt>
      <trkpt lat="36.819101907312870025634765625" lon="-118.4002343751490116119384765625">
        <ele>3399</ele>
        <time>2021-06-27T19:47:03.000Z</time>
        <extensions>
          <ns3:TrackPointExtension>
            <ns3:atemp>32.0</ns3:atemp>
            <ns3:hr>75</ns3:hr>
          </ns3:TrackPointExtension>
        </extensions>
      </trkpt>
      <trkpt lat="36.819101236760616302490234375" lon="-118.4002809785306453704833984375">
        <ele>3397.39990234375</ele>
        <time>2021-06-27T19:47:10.000Z</time>
        <extensions>
          <ns3:TrackPointExtension>
            <ns3:atemp>32.0</ns3:atemp>
            <ns3:hr>75</ns3:hr>
          </ns3:TrackPointExtension>
        </extensions>
      </trkpt>
      <trkpt lat="36.81910065002739429473876953125" lon="-118.40029195882380008697509765625">
        <ele>3397.39990234375</ele>
        <time>2021-06-27T19:47:12.000Z</time>
        <extensions>
          <ns3:TrackPointExtension>
            <ns3:atemp>32.0</ns3:atemp>
            <ns3:hr>79</ns3:hr>
          </ns3:TrackPointExtension>
        </extensions>
      </trkpt>
      <trkpt lat="36.8191000632941722869873046875" lon="-118.40030319057404994964599609375">
        <ele>3397.39990234375</ele>
        <time>2021-06-27T19:47:14.000Z</time>
        <extensions>
          <ns3:TrackPointExtension>
            <ns3:atemp>32.0</ns3:atemp>
            <ns3:hr>82</ns3:hr>
          </ns3:TrackPointExtension>
        </extensions>
      </trkpt>
      <trkpt lat="36.81909956037998199462890625" lon="-118.40031065046787261962890625">
        <ele>3397.39990234375</ele>
        <time>2021-06-27T19:47:15.000Z</time>
        <extensions>
          <ns3:TrackPointExtension>
            <ns3:atemp>32.0</ns3:atemp>
            <ns3:hr>88</ns3:hr>
          </ns3:TrackPointExtension>
        </extensions>
      </trkpt>
      <trkpt lat="36.81909914128482341766357421875" lon="-118.4003181941807270050048828125">
        <ele>3397.39990234375</ele>
        <time>2021-06-27T19:47:16.000Z</time>
        <extensions>
          <ns3:TrackPointExtension>
            <ns3:atemp>32.0</ns3:atemp>
            <ns3:hr>91</ns3:hr>
          </ns3:TrackPointExtension>
        </extensions>
      </trkpt>
      <trkpt lat="36.81909863837063312530517578125" lon="-118.4003413282334804534912109375">
        <ele>3396.199951171875</ele>
        <time>2021-06-27T19:47:19.000Z</time>
        <extensions>
          <ns3:TrackPointExtension>
            <ns3:atemp>32.0</ns3:atemp>
            <ns3:hr>97</ns3:hr>
          </ns3:TrackPointExtension>
        </extensions>
      </trkpt>
      <trkpt lat="36.8190953694283962249755859375" lon="-118.400348536670207977294921875">
        <ele>3396.199951171875</ele>
        <time>2021-06-27T19:47:20.000Z</time>
        <extensions>
          <ns3:TrackPointExtension>
            <ns3:atemp>32.0</ns3:atemp>
            <ns3:hr>93</ns3:hr>
          </ns3:TrackPointExtension>
        </extensions>
      </trkpt>
      <trkpt lat="36.81904264725744724273681640625" lon="-118.4003718383610248565673828125">
        <ele>3395.60009765625</ele>
        <time>2021-06-27T19:47:25.000Z</time>
        <extensions>
          <ns3:TrackPointExtension>
            <ns3:atemp>32.0</ns3:atemp>
            <ns3:hr>93</ns3:hr>
          </ns3:TrackPointExtension>
        </extensions>
      </trkpt>
      <trkpt lat="36.81902018375694751739501953125" lon="-118.40038265101611614227294921875">
        <ele>3395.199951171875</ele>
        <time>2021-06-27T19:47:27.000Z</time>
        <extensions>
          <ns3:TrackPointExtension>
            <ns3:atemp>32.0</ns3:atemp>
            <ns3:hr>94</ns3:hr>
          </ns3:TrackPointExtension>
        </extensions>
      </trkpt>
      <trkpt lat="36.81899763643741607666015625" lon="-118.4004057012498378753662109375">
        <ele>3394.199951171875</ele>
        <time>2021-06-27T19:47:30.000Z</time>
        <extensions>
          <ns3:TrackPointExtension>
            <ns3:atemp>32.0</ns3:atemp>
            <ns3:hr>93</ns3:hr>
          </ns3:TrackPointExtension>
        </extensions>
      </trkpt>
      <trkpt lat="36.81899520568549633026123046875" lon="-118.4004137478768825531005859375">
        <ele>3394</ele>
        <time>2021-06-27T19:47:31.000Z</time>
        <extensions>
          <ns3:TrackPointExtension>
            <ns3:atemp>32.0</ns3:atemp>
            <ns3:hr>93</ns3:hr>
          </ns3:TrackPointExtension>
        </extensions>
      </trkpt>
      <trkpt lat="36.818973831832408905029296875" lon="-118.40043512172996997833251953125">
        <ele>3393</ele>
        <time>2021-06-27T19:47:36.000Z</time>
        <extensions>
          <ns3:TrackPointExtension>
            <ns3:atemp>32.0</ns3:atemp>
            <ns3:hr>92</ns3:hr>
          </ns3:TrackPointExtension>
        </extensions>
      </trkpt>
      <trkpt lat="36.818957738578319549560546875" lon="-118.400446437299251556396484375">
        <ele>3393</ele>
        <time>2021-06-27T19:47:38.000Z</time>
        <extensions>
          <ns3:TrackPointExtension>
            <ns3:atemp>32.0</ns3:atemp>
            <ns3:hr>91</ns3:hr>
          </ns3:TrackPointExtension>
        </extensions>
      </trkpt>
      <trkpt lat="36.8189481832087039947509765625" lon="-118.400468565523624420166015625">
        <ele>3392</ele>
        <time>2021-06-27T19:47:42.000Z</time>
        <extensions>
          <ns3:TrackPointExtension>
            <ns3:atemp>32.0</ns3:atemp>
            <ns3:hr>89</ns3:hr>
          </ns3:TrackPointExtension>
        </extensions>
      </trkpt>
      <trkpt lat="36.81894592009484767913818359375" lon="-118.40047216974198818206787109375">
        <ele>3392</ele>
        <time>2021-06-27T19:47:43.000Z</time>
        <extensions>
          <ns3:TrackPointExtension>
            <ns3:atemp>32.0</ns3:atemp>
            <ns3:hr>89</ns3:hr>
          </ns3:TrackPointExtension>
        </extensions>
      </trkpt>
      <trkpt lat="36.81893016211688518524169921875" lon="-118.40050050057470798492431640625">
        <ele>3390.60009765625</ele>
        <time>2021-06-27T19:47:48.000Z</time>
        <extensions>
          <ns3:TrackPointExtension>
            <ns3:atemp>32.0</ns3:atemp>
            <ns3:hr>87</ns3:hr>
          </ns3:TrackPointExtension>
        </extensions>
      </trkpt>
      <trkpt lat="36.81891222484409809112548828125" lon="-118.40052329935133457183837890625">
        <ele>3389.39990234375</ele>
        <time>2021-06-27T19:47:53.000Z</time>
        <extensions>
          <ns3:TrackPointExtension>
            <ns3:atemp>32.0</ns3:atemp>
            <ns3:hr>88</ns3:hr>
          </ns3:TrackPointExtension>
        </extensions>
      </trkpt>
      <trkpt lat="36.81892253458499908447265625" lon="-118.4005445055663585662841796875">
        <ele>3388.800048828125</ele>
        <time>2021-06-27T19:47:56.000Z</time>
        <extensions>
          <ns3:TrackPointExtension>
            <ns3:atemp>32.0</ns3:atemp>
            <ns3:hr>88</ns3:hr>
          </ns3:TrackPointExtension>
        </extensions>
      </trkpt>
      <trkpt lat="36.81892496533691883087158203125" lon="-118.40056068263947963714599609375">
        <ele>3388.39990234375</ele>
        <time>2021-06-27T19:47:58.000Z</time>
        <extensions>
          <ns3:TrackPointExtension>
            <ns3:atemp>32.0</ns3:atemp>
            <ns3:hr>88</ns3:hr>
          </ns3:TrackPointExtension>
        </extensions>
      </trkpt>
      <trkpt lat="36.81893326342105865478515625" lon="-118.40059035457670688629150390625">
        <ele>3387.60009765625</ele>
        <time>2021-06-27T19:48:03.000Z</time>
        <extensions>
          <ns3:TrackPointExtension>
            <ns3:atemp>32.0</ns3:atemp>
            <ns3:hr>89</ns3:hr>
          </ns3:TrackPointExtension>
        </extensions>
      </trkpt>
      <trkpt lat="36.81893452070653438568115234375" lon="-118.40060577727854251861572265625">
        <ele>3387.199951171875</ele>
        <time>2021-06-27T19:48:05.000Z</time>
        <extensions>
          <ns3:TrackPointExtension>
            <ns3:atemp>32.0</ns3:atemp>
            <ns3:hr>89</ns3:hr>
          </ns3:TrackPointExtension>
        </extensions>
      </trkpt>
      <trkpt lat="36.81890903972089290618896484375" lon="-118.4006279893219470977783203125">
        <ele>3386.60009765625</ele>
        <time>2021-06-27T19:48:10.000Z</time>
        <extensions>
          <ns3:TrackPointExtension>
            <ns3:atemp>32.0</ns3:atemp>
            <ns3:hr>88</ns3:hr>
          </ns3:TrackPointExtension>
        </extensions>
      </trkpt>
      <trkpt lat="36.81888959370553493499755859375" lon="-118.40062991715967655181884765625">
        <ele>3386.199951171875</ele>
        <time>2021-06-27T19:48:12.000Z</time>
        <extensions>
          <ns3:TrackPointExtension>
            <ns3:atemp>32.0</ns3:atemp>
            <ns3:hr>89</ns3:hr>
          </ns3:TrackPointExtension>
        </extensions>
      </trkpt>
      <trkpt lat="36.8188526295125484466552734375" lon="-118.40064869262278079986572265625">
        <ele>3385.199951171875</ele>
        <time>2021-06-27T19:48:16.000Z</time>
        <extensions>
          <ns3:TrackPointExtension>
            <ns3:atemp>32.0</ns3:atemp>
            <ns3:hr>90</ns3:hr>
          </ns3:TrackPointExtension>
        </extensions>
      </trkpt>
      <trkpt lat="36.818850450217723846435546875" lon="-118.40065590105950832366943359375">
        <ele>3384.800048828125</ele>
        <time>2021-06-27T19:48:17.000Z</time>
        <extensions>
          <ns3:TrackPointExtension>
            <ns3:atemp>31.0</ns3:atemp>
            <ns3:hr>89</ns3:hr>
          </ns3:TrackPointExtension>
        </extensions>
      </trkpt>
      <trkpt lat="36.81883477605879306793212890625" lon="-118.4006896801292896270751953125">
        <ele>3384.199951171875</ele>
        <time>2021-06-27T19:48:21.000Z</time>
        <extensions>
          <ns3:TrackPointExtension>
            <ns3:atemp>31.0</ns3:atemp>
            <ns3:hr>88</ns3:hr>
          </ns3:TrackPointExtension>
        </extensions>
      </trkpt>
      <trkpt lat="36.8188264779746532440185546875" lon="-118.40070761740207672119140625">
        <ele>3383.800048828125</ele>
        <time>2021-06-27T19:48:24.000Z</time>
        <extensions>
          <ns3:TrackPointExtension>
            <ns3:atemp>32.0</ns3:atemp>
            <ns3:hr>87</ns3:hr>
          </ns3:TrackPointExtension>
        </extensions>
      </trkpt>
      <trkpt lat="36.8188100494444370269775390625" lon="-118.40073435567319393157958984375">
        <ele>3383.39990234375</ele>
        <time>2021-06-27T19:48:27.000Z</time>
        <extensions>
          <ns3:TrackPointExtension>
            <ns3:atemp>31.0</ns3:atemp>
            <ns3:hr>84</ns3:hr>
          </ns3:TrackPointExtension>
        </extensions>
      </trkpt>
      <trkpt lat="36.8188154138624668121337890625" lon="-118.400752209126949310302734375">
        <ele>3382.60009765625</ele>
        <time>2021-06-27T19:48:29.000Z</time>
        <extensions>
          <ns3:TrackPointExtension>
            <ns3:atemp>31.0</ns3:atemp>
            <ns3:hr>83</ns3:hr>
          </ns3:TrackPointExtension>
        </extensions>
      </trkpt>
      <trkpt lat="36.8188227899372577667236328125" lon="-118.40077358298003673553466796875">
        <ele>3382.199951171875</ele>
        <time>2021-06-27T19:48:31.000Z</time>
        <extensions>
          <ns3:TrackPointExtension>
            <ns3:atemp>31.0</ns3:atemp>
            <ns3:hr>83</ns3:hr>
          </ns3:TrackPointExtension>
        </extensions>
      </trkpt>
      <trkpt lat="36.81883712299168109893798828125" lon="-118.40080107562243938446044921875">
        <ele>3381.60009765625</ele>
        <time>2021-06-27T19:48:34.000Z</time>
        <extensions>
          <ns3:TrackPointExtension>
            <ns3:atemp>31.0</ns3:atemp>
            <ns3:hr>83</ns3:hr>
          </ns3:TrackPointExtension>
        </extensions>
      </trkpt>
      <trkpt lat="36.81886780075728893280029296875" lon="-118.40084482915699481964111328125">
        <ele>3381</ele>
        <time>2021-06-27T19:48:39.000Z</time>
        <extensions>
          <ns3:TrackPointExtension>
            <ns3:atemp>31.0</ns3:atemp>
            <ns3:hr>84</ns3:hr>
          </ns3:TrackPointExtension>
        </extensions>
      </trkpt>
      <trkpt lat="36.8188714049756526947021484375" lon="-118.4008713997900485992431640625">
        <ele>3380.800048828125</ele>
        <time>2021-06-27T19:48:42.000Z</time>
        <extensions>
          <ns3:TrackPointExtension>
            <ns3:atemp>31.0</ns3:atemp>
            <ns3:hr>84</ns3:hr>
          </ns3:TrackPointExtension>
        </extensions>
      </trkpt>
      <trkpt lat="36.81886620819568634033203125" lon="-118.40088807977735996246337890625">
        <ele>3380.60009765625</ele>
        <time>2021-06-27T19:48:44.000Z</time>
        <extensions>
          <ns3:TrackPointExtension>
            <ns3:atemp>31.0</ns3:atemp>
            <ns3:hr>85</ns3:hr>
          </ns3:TrackPointExtension>
        </extensions>
      </trkpt>
      <trkpt lat="36.81884885765612125396728515625" lon="-118.40092127211391925811767578125">
        <ele>3379.60009765625</ele>
        <time>2021-06-27T19:48:49.000Z</time>
        <extensions>
          <ns3:TrackPointExtension>
            <ns3:atemp>31.0</ns3:atemp>
            <ns3:hr>85</ns3:hr>
          </ns3:TrackPointExtension>
        </extensions>
      </trkpt>
      <trkpt lat="36.81884064339101314544677734375" lon="-118.4009260497987270355224609375">
        <ele>3379.60009765625</ele>
        <time>2021-06-27T19:48:50.000Z</time>
        <extensions>
          <ns3:TrackPointExtension>
            <ns3:atemp>31.0</ns3:atemp>
            <ns3:hr>85</ns3:hr>
          </ns3:TrackPointExtension>
        </extensions>
      </trkpt>
      <trkpt lat="36.8188264779746532440185546875" lon="-118.4009743295609951019287109375">
        <ele>3378.60009765625</ele>
        <time>2021-06-27T19:48:56.000Z</time>
        <extensions>
          <ns3:TrackPointExtension>
            <ns3:atemp>32.0</ns3:atemp>
            <ns3:hr>88</ns3:hr>
          </ns3:TrackPointExtension>
        </extensions>
      </trkpt>
      <trkpt lat="36.81882731616497039794921875" lon="-118.40098162181675434112548828125">
        <ele>3378</ele>
        <time>2021-06-27T19:48:57.000Z</time>
        <extensions>
          <ns3:TrackPointExtension>
            <ns3:atemp>31.0</ns3:atemp>
            <ns3:hr>84</ns3:hr>
          </ns3:TrackPointExtension>
        </extensions>
      </trkpt>
      <trkpt lat="36.8188308365643024444580078125" lon="-118.4009867347776889801025390625">
        <ele>3378</ele>
        <time>2021-06-27T19:48:58.000Z</time>
        <extensions>
          <ns3:TrackPointExtension>
            <ns3:atemp>32.0</ns3:atemp>
            <ns3:hr>84</ns3:hr>
          </ns3:TrackPointExtension>
        </extensions>
      </trkpt>
      <trkpt lat="36.8188388831913471221923828125" lon="-118.4010051749646663665771484375">
        <ele>3377.60009765625</ele>
        <time>2021-06-27T19:49:01.000Z</time>
        <extensions>
          <ns3:TrackPointExtension>
            <ns3:atemp>31.0</ns3:atemp>
            <ns3:hr>84</ns3:hr>
          </ns3:TrackPointExtension>
        </extensions>
      </trkpt>
      <trkpt lat="36.81883846409618854522705078125" lon="-118.4010269679129123687744140625">
        <ele>3377.39990234375</ele>
        <time>2021-06-27T19:49:03.000Z</time>
        <extensions>
          <ns3:TrackPointExtension>
            <ns3:atemp>32.0</ns3:atemp>
            <ns3:hr>84</ns3:hr>
          </ns3:TrackPointExtension>
        </extensions>
      </trkpt>
      <trkpt lat="36.81883578188717365264892578125" lon="-118.4010464139282703399658203125">
        <ele>3376.800048828125</ele>
        <time>2021-06-27T19:49:05.000Z</time>
        <extensions>
          <ns3:TrackPointExtension>
            <ns3:atemp>32.0</ns3:atemp>
            <ns3:hr>84</ns3:hr>
          </ns3:TrackPointExtension>
        </extensions>
      </trkpt>
      <trkpt lat="36.81883427314460277557373046875" lon="-118.40106544084846973419189453125">
        <ele>3376.199951171875</ele>
        <time>2021-06-27T19:49:07.000Z</time>
        <extensions>
          <ns3:TrackPointExtension>
            <ns3:atemp>32.0</ns3:atemp>
            <ns3:hr>84</ns3:hr>
          </ns3:TrackPointExtension>
        </extensions>
      </trkpt>
      <trkpt lat="36.81883796118199825286865234375" lon="-118.40108538977801799774169921875">
        <ele>3375.60009765625</ele>
        <time>2021-06-27T19:49:10.000Z</time>
        <extensions>
          <ns3:TrackPointExtension>
            <ns3:atemp>32.0</ns3:atemp>
            <ns3:hr>84</ns3:hr>
          </ns3:TrackPointExtension>
        </extensions>
      </trkpt>
      <trkpt lat="36.81883259676396846771240234375" lon="-118.4011164866387844085693359375">
        <ele>3375</ele>
        <time>2021-06-27T19:49:14.000Z</time>
        <extensions>
          <ns3:TrackPointExtension>
            <ns3:atemp>32.0</ns3:atemp>
            <ns3:hr>81</ns3:hr>
          </ns3:TrackPointExtension>
        </extensions>
      </trkpt>
      <trkpt lat="36.8188311718404293060302734375" lon="-118.40112646110355854034423828125">
        <ele>3374.60009765625</ele>
        <time>2021-06-27T19:49:15.000Z</time>
        <extensions>
          <ns3:TrackPointExtension>
            <ns3:atemp>32.0</ns3:atemp>
            <ns3:hr>81</ns3:hr>
          </ns3:TrackPointExtension>
        </extensions>
      </trkpt>
      <trkpt lat="36.8188294954597949981689453125" lon="-118.40113886632025241851806640625">
        <ele>3374.60009765625</ele>
        <time>2021-06-27T19:49:16.000Z</time>
        <extensions>
          <ns3:TrackPointExtension>
            <ns3:atemp>32.0</ns3:atemp>
            <ns3:hr>81</ns3:hr>
          </ns3:TrackPointExtension>
        </extensions>
      </trkpt>
      <trkpt lat="36.81881952099502086639404296875" lon="-118.40118463151156902313232421875">
        <ele>3373.39990234375</ele>
        <time>2021-06-27T19:49:21.000Z</time>
        <extensions>
          <ns3:TrackPointExtension>
            <ns3:atemp>32.0</ns3:atemp>
            <ns3:hr>79</ns3:hr>
          </ns3:TrackPointExtension>
        </extensions>
      </trkpt>
      <trkpt lat="36.81882823817431926727294921875" lon="-118.40121589601039886474609375">
        <ele>3372.39990234375</ele>
        <time>2021-06-27T19:49:25.000Z</time>
        <extensions>
          <ns3:TrackPointExtension>
            <ns3:atemp>32.0</ns3:atemp>
            <ns3:hr>81</ns3:hr>
          </ns3:TrackPointExtension>
        </extensions>
      </trkpt>
      <trkpt lat="36.81884877383708953857421875" lon="-118.4012633375823497772216796875">
        <ele>3371.60009765625</ele>
        <time>2021-06-27T19:49:32.000Z</time>
        <extensions>
          <ns3:TrackPointExtension>
            <ns3:atemp>32.0</ns3:atemp>
            <ns3:hr>82</ns3:hr>
          </ns3:TrackPointExtension>
        </extensions>
      </trkpt>
      <trkpt lat="36.818850450217723846435546875" lon="-118.40127180330455303192138671875">
        <ele>3371.199951171875</ele>
        <time>2021-06-27T19:49:33.000Z</time>
        <extensions>
          <ns3:TrackPointExtension>
            <ns3:atemp>32.0</ns3:atemp>
            <ns3:hr>82</ns3:hr>
          </ns3:TrackPointExtension>
        </extensions>
      </trkpt>
      <trkpt lat="36.8188626877963542938232421875" lon="-118.40130709111690521240234375">
        <ele>3370.199951171875</ele>
        <time>2021-06-27T19:49:37.000Z</time>
        <extensions>
          <ns3:TrackPointExtension>
            <ns3:atemp>32.0</ns3:atemp>
            <ns3:hr>84</ns3:hr>
          </ns3:TrackPointExtension>
        </extensions>
      </trkpt>
      <trkpt lat="36.81886964477598667144775390625" lon="-118.40133181773126125335693359375">
        <ele>3369.60009765625</ele>
        <time>2021-06-27T19:49:40.000Z</time>
        <extensions>
          <ns3:TrackPointExtension>
            <ns3:atemp>32.0</ns3:atemp>
            <ns3:hr>85</ns3:hr>
          </ns3:TrackPointExtension>
        </extensions>
      </trkpt>
      <trkpt lat="36.81887500919401645660400390625" lon="-118.40136635117232799530029296875">
        <ele>3369</ele>
        <time>2021-06-27T19:49:44.000Z</time>
        <extensions>
          <ns3:TrackPointExtension>
            <ns3:atemp>32.0</ns3:atemp>
            <ns3:hr>83</ns3:hr>
          </ns3:TrackPointExtension>
        </extensions>
      </trkpt>
      <trkpt lat="36.81890216656029224395751953125" lon="-118.401392586529254913330078125">
        <ele>3368.39990234375</ele>
        <time>2021-06-27T19:49:49.000Z</time>
        <extensions>
          <ns3:TrackPointExtension>
            <ns3:atemp>32.0</ns3:atemp>
            <ns3:hr>83</ns3:hr>
          </ns3:TrackPointExtension>
        </extensions>
      </trkpt>
      <trkpt lat="36.818918175995349884033203125" lon="-118.40140574611723423004150390625">
        <ele>3367.800048828125</ele>
        <time>2021-06-27T19:49:52.000Z</time>
        <extensions>
          <ns3:TrackPointExtension>
            <ns3:atemp>32.0</ns3:atemp>
            <ns3:hr>85</ns3:hr>
          </ns3:TrackPointExtension>
        </extensions>
      </trkpt>
      <trkpt lat="36.8189183436334133148193359375" lon="-118.40142435394227504730224609375">
        <ele>3367.199951171875</ele>
        <time>2021-06-27T19:49:54.000Z</time>
        <extensions>
          <ns3:TrackPointExtension>
            <ns3:atemp>32.0</ns3:atemp>
            <ns3:hr>82</ns3:hr>
          </ns3:TrackPointExtension>
        </extensions>
      </trkpt>
      <trkpt lat="36.81891851127147674560546875" lon="-118.40143986046314239501953125">
        <ele>3367.199951171875</ele>
        <time>2021-06-27T19:49:56.000Z</time>
        <extensions>
          <ns3:TrackPointExtension>
            <ns3:atemp>32.0</ns3:atemp>
            <ns3:hr>82</ns3:hr>
          </ns3:TrackPointExtension>
        </extensions>
      </trkpt>
      <trkpt lat="36.81892211548984050750732421875" lon="-118.4014673531055450439453125">
        <ele>3366.39990234375</ele>
        <time>2021-06-27T19:50:00.000Z</time>
        <extensions>
          <ns3:TrackPointExtension>
            <ns3:atemp>32.0</ns3:atemp>
            <ns3:hr>82</ns3:hr>
          </ns3:TrackPointExtension>
        </extensions>
      </trkpt>
      <trkpt lat="36.818932257592678070068359375" lon="-118.401499874889850616455078125">
        <ele>3365.60009765625</ele>
        <time>2021-06-27T19:50:05.000Z</time>
        <extensions>
          <ns3:TrackPointExtension>
            <ns3:atemp>32.0</ns3:atemp>
            <ns3:hr>81</ns3:hr>
          </ns3:TrackPointExtension>
        </extensions>
      </trkpt>
      <trkpt lat="36.81893586181104183197021484375" lon="-118.40150884352624416351318359375">
        <ele>3365.199951171875</ele>
        <time>2021-06-27T19:50:06.000Z</time>
        <extensions>
          <ns3:TrackPointExtension>
            <ns3:atemp>32.0</ns3:atemp>
            <ns3:hr>81</ns3:hr>
          </ns3:TrackPointExtension>
        </extensions>
      </trkpt>
      <trkpt lat="36.81894307024776935577392578125" lon="-118.40152703225612640380859375">
        <ele>3364.39990234375</ele>
        <time>2021-06-27T19:50:09.000Z</time>
        <extensions>
          <ns3:TrackPointExtension>
            <ns3:atemp>32.0</ns3:atemp>
            <ns3:hr>78</ns3:hr>
          </ns3:TrackPointExtension>
        </extensions>
      </trkpt>
      <trkpt lat="36.81894994340837001800537109375" lon="-118.401538431644439697265625">
        <ele>3364.199951171875</ele>
        <time>2021-06-27T19:50:11.000Z</time>
        <extensions>
          <ns3:TrackPointExtension>
            <ns3:atemp>32.0</ns3:atemp>
            <ns3:hr>80</ns3:hr>
          </ns3:TrackPointExtension>
        </extensions>
      </trkpt>
      <trkpt lat="36.81895229034125804901123046875" lon="-118.40154572390019893646240234375">
        <ele>3364.199951171875</ele>
        <time>2021-06-27T19:50:12.000Z</time>
        <extensions>
          <ns3:TrackPointExtension>
            <ns3:atemp>32.0</ns3:atemp>
            <ns3:hr>80</ns3:hr>
          </ns3:TrackPointExtension>
        </extensions>
      </trkpt>
      <trkpt lat="36.81894592009484767913818359375" lon="-118.4015677683055400848388671875">
        <ele>3363.199951171875</ele>
        <time>2021-06-27T19:50:17.000Z</time>
        <extensions>
          <ns3:TrackPointExtension>
            <ns3:atemp>32.0</ns3:atemp>
            <ns3:hr>78</ns3:hr>
          </ns3:TrackPointExtension>
        </extensions>
      </trkpt>
      <trkpt lat="36.81894407607614994049072265625" lon="-118.40158059261739253997802734375">
        <ele>3362.800048828125</ele>
        <time>2021-06-27T19:50:19.000Z</time>
        <extensions>
          <ns3:TrackPointExtension>
            <ns3:atemp>32.0</ns3:atemp>
            <ns3:hr>78</ns3:hr>
          </ns3:TrackPointExtension>
        </extensions>
      </trkpt>
      <trkpt lat="36.818951703608036041259765625" lon="-118.40158059261739253997802734375">
        <ele>3362.39990234375</ele>
        <time>2021-06-27T19:50:25.000Z</time>
        <extensions>
          <ns3:TrackPointExtension>
            <ns3:atemp>32.0</ns3:atemp>
            <ns3:hr>77</ns3:hr>
          </ns3:TrackPointExtension>
        </extensions>
      </trkpt>
      <trkpt lat="36.818951703608036041259765625" lon="-118.40158059261739253997802734375">
        <ele>3362.199951171875</ele>
        <time>2021-06-27T19:50:31.000Z</time>
        <extensions>
          <ns3:TrackPointExtension>
            <ns3:atemp>32.0</ns3:atemp>
            <ns3:hr>80</ns3:hr>
          </ns3:TrackPointExtension>
        </extensions>
      </trkpt>
      <trkpt lat="36.818951703608036041259765625" lon="-118.40158059261739253997802734375">
        <ele>3362</ele>
        <time>2021-06-27T19:50:32.000Z</time>
        <extensions>
          <ns3:TrackPointExtension>
            <ns3:atemp>32.0</ns3:atemp>
            <ns3:hr>81</ns3:hr>
          </ns3:TrackPointExtension>
        </extensions>
      </trkpt>
      <trkpt lat="36.818951703608036041259765625" lon="-118.40158059261739253997802734375">
        <ele>3362</ele>
        <time>2021-06-27T19:50:34.000Z</time>
        <extensions>
          <ns3:TrackPointExtension>
            <ns3:atemp>32.0</ns3:atemp>
            <ns3:hr>84</ns3:hr>
          </ns3:TrackPointExtension>
        </extensions>
      </trkpt>
      <trkpt lat="36.818951703608036041259765625" lon="-118.401581682264804840087890625">
        <ele>3362</ele>
        <time>2021-06-27T19:50:39.000Z</time>
        <extensions>
          <ns3:TrackPointExtension>
            <ns3:atemp>32.0</ns3:atemp>
            <ns3:hr>87</ns3:hr>
          </ns3:TrackPointExtension>
        </extensions>
      </trkpt>
      <trkpt lat="36.81896218098700046539306640625" lon="-118.40161462314426898956298828125">
        <ele>3361.800048828125</ele>
        <time>2021-06-27T19:50:54.000Z</time>
        <extensions>
          <ns3:TrackPointExtension>
            <ns3:atemp>32.0</ns3:atemp>
            <ns3:hr>84</ns3:hr>
          </ns3:TrackPointExtension>
        </extensions>
      </trkpt>
      <trkpt lat="36.81896653957664966583251953125" lon="-118.401616550981998443603515625">
        <ele>3361</ele>
        <time>2021-06-27T19:50:59.000Z</time>
        <extensions>
          <ns3:TrackPointExtension>
            <ns3:atemp>32.0</ns3:atemp>
            <ns3:hr>83</ns3:hr>
          </ns3:TrackPointExtension>
        </extensions>
      </trkpt>
      <trkpt lat="36.81896989233791828155517578125" lon="-118.401619233191013336181640625">
        <ele>3360</ele>
        <time>2021-06-27T19:51:04.000Z</time>
        <extensions>
          <ns3:TrackPointExtension>
            <ns3:atemp>32.0</ns3:atemp>
            <ns3:hr>82</ns3:hr>
          </ns3:TrackPointExtension>
        </extensions>
      </trkpt>
      <trkpt lat="36.81897508911788463592529296875" lon="-118.40162551961839199066162109375">
        <ele>3359</ele>
        <time>2021-06-27T19:51:07.000Z</time>
        <extensions>
          <ns3:TrackPointExtension>
            <ns3:atemp>32.0</ns3:atemp>
            <ns3:hr>82</ns3:hr>
          </ns3:TrackPointExtension>
        </extensions>
      </trkpt>
      <trkpt lat="36.81898430921137332916259765625" lon="-118.40164764784276485443115234375">
        <ele>3357.800048828125</ele>
        <time>2021-06-27T19:51:12.000Z</time>
        <extensions>
          <ns3:TrackPointExtension>
            <ns3:atemp>32.0</ns3:atemp>
            <ns3:hr>81</ns3:hr>
          </ns3:TrackPointExtension>
        </extensions>
      </trkpt>
      <trkpt lat="36.81899118237197399139404296875" lon="-118.40166407637298107147216796875">
        <ele>3356.800048828125</ele>
        <time>2021-06-27T19:51:17.000Z</time>
        <extensions>
          <ns3:TrackPointExtension>
            <ns3:atemp>32.0</ns3:atemp>
            <ns3:hr>84</ns3:hr>
          </ns3:TrackPointExtension>
        </extensions>
      </trkpt>
      <trkpt lat="36.8189947865903377532958984375" lon="-118.40168930590152740478515625">
        <ele>3355.60009765625</ele>
        <time>2021-06-27T19:51:22.000Z</time>
        <extensions>
          <ns3:TrackPointExtension>
            <ns3:atemp>32.0</ns3:atemp>
            <ns3:hr>87</ns3:hr>
          </ns3:TrackPointExtension>
        </extensions>
      </trkpt>
      <trkpt lat="36.8189971335232257843017578125" lon="-118.40171989984810352325439453125">
        <ele>3354.39990234375</ele>
        <time>2021-06-27T19:51:27.000Z</time>
        <extensions>
          <ns3:TrackPointExtension>
            <ns3:atemp>32.0</ns3:atemp>
            <ns3:hr>89</ns3:hr>
          </ns3:TrackPointExtension>
        </extensions>
      </trkpt>
      <trkpt lat="36.818997301161289215087890625" lon="-118.4017230011522769927978515625">
        <ele>3354.39990234375</ele>
        <time>2021-06-27T19:51:28.000Z</time>
        <extensions>
          <ns3:TrackPointExtension>
            <ns3:atemp>32.0</ns3:atemp>
            <ns3:hr>87</ns3:hr>
          </ns3:TrackPointExtension>
        </extensions>
      </trkpt>
      <trkpt lat="36.818997301161289215087890625" lon="-118.4017270244657993316650390625">
        <ele>3354.39990234375</ele>
        <time>2021-06-27T19:51:29.000Z</time>
        <extensions>
          <ns3:TrackPointExtension>
            <ns3:atemp>32.0</ns3:atemp>
            <ns3:hr>90</ns3:hr>
          </ns3:TrackPointExtension>
        </extensions>
      </trkpt>
      <trkpt lat="36.818997971713542938232421875" lon="-118.40174906887114048004150390625">
        <ele>3353.39990234375</ele>
        <time>2021-06-27T19:51:33.000Z</time>
        <extensions>
          <ns3:TrackPointExtension>
            <ns3:atemp>32.0</ns3:atemp>
            <ns3:hr>91</ns3:hr>
          </ns3:TrackPointExtension>
        </extensions>
      </trkpt>
      <trkpt lat="36.8190028332173824310302734375" lon="-118.40178628452122211456298828125">
        <ele>3351.800048828125</ele>
        <time>2021-06-27T19:51:39.000Z</time>
        <extensions>
          <ns3:TrackPointExtension>
            <ns3:atemp>32.0</ns3:atemp>
            <ns3:hr>92</ns3:hr>
          </ns3:TrackPointExtension>
        </extensions>
      </trkpt>
      <trkpt lat="36.8190063536167144775390625" lon="-118.40180606581270694732666015625">
        <ele>3351.199951171875</ele>
        <time>2021-06-27T19:51:42.000Z</time>
        <extensions>
          <ns3:TrackPointExtension>
            <ns3:atemp>32.0</ns3:atemp>
            <ns3:hr>97</ns3:hr>
          </ns3:TrackPointExtension>
        </extensions>
      </trkpt>
      <trkpt lat="36.8190065212547779083251953125" lon="-118.40181143023073673248291015625">
        <ele>3351.199951171875</ele>
        <time>2021-06-27T19:51:43.000Z</time>
        <extensions>
          <ns3:TrackPointExtension>
            <ns3:atemp>32.0</ns3:atemp>
            <ns3:hr>100</ns3:hr>
          </ns3:TrackPointExtension>
        </extensions>
      </trkpt>
      <trkpt lat="36.81900660507380962371826171875" lon="-118.40182769112288951873779296875">
        <ele>3351.199951171875</ele>
        <time>2021-06-27T19:51:45.000Z</time>
        <extensions>
          <ns3:TrackPointExtension>
            <ns3:atemp>32.0</ns3:atemp>
            <ns3:hr>104</ns3:hr>
          </ns3:TrackPointExtension>
        </extensions>
      </trkpt>
      <trkpt lat="36.81900660507380962371826171875" lon="-118.4018386714160442352294921875">
        <ele>3351.199951171875</ele>
        <time>2021-06-27T19:51:46.000Z</time>
        <extensions>
          <ns3:TrackPointExtension>
            <ns3:atemp>32.0</ns3:atemp>
            <ns3:hr>101</ns3:hr>
          </ns3:TrackPointExtension>
        </extensions>
      </trkpt>
      <trkpt lat="36.81900660507380962371826171875" lon="-118.4018480591475963592529296875">
        <ele>3350.60009765625</ele>
        <time>2021-06-27T19:51:47.000Z</time>
        <extensions>
          <ns3:TrackPointExtension>
            <ns3:atemp>32.0</ns3:atemp>
            <ns3:hr>99</ns3:hr>
          </ns3:TrackPointExtension>
        </extensions>
      </trkpt>
      <trkpt lat="36.819007694721221923828125" lon="-118.401890136301517486572265625">
        <ele>3349.800048828125</ele>
        <time>2021-06-27T19:51:52.000Z</time>
        <extensions>
          <ns3:TrackPointExtension>
            <ns3:atemp>32.0</ns3:atemp>
            <ns3:hr>96</ns3:hr>
          </ns3:TrackPointExtension>
        </extensions>
      </trkpt>
      <trkpt lat="36.81901096366345882415771484375" lon="-118.4019077382981777191162109375">
        <ele>3349.39990234375</ele>
        <time>2021-06-27T19:51:53.000Z</time>
        <extensions>
          <ns3:TrackPointExtension>
            <ns3:atemp>32.0</ns3:atemp>
            <ns3:hr>96</ns3:hr>
          </ns3:TrackPointExtension>
        </extensions>
      </trkpt>
      <trkpt lat="36.818999983370304107666015625" lon="-118.40198166668415069580078125">
        <ele>3349</ele>
        <time>2021-06-27T19:51:57.000Z</time>
        <extensions>
          <ns3:TrackPointExtension>
            <ns3:atemp>32.0</ns3:atemp>
            <ns3:hr>96</ns3:hr>
          </ns3:TrackPointExtension>
        </extensions>
      </trkpt>
      <trkpt lat="36.8189956247806549072265625" lon="-118.4020198881626129150390625">
        <ele>3348.800048828125</ele>
        <time>2021-06-27T19:51:59.000Z</time>
        <extensions>
          <ns3:TrackPointExtension>
            <ns3:atemp>32.0</ns3:atemp>
            <ns3:hr>93</ns3:hr>
          </ns3:TrackPointExtension>
        </extensions>
      </trkpt>
      <trkpt lat="36.81899302639067173004150390625" lon="-118.40203824453055858612060546875">
        <ele>3348</ele>
        <time>2021-06-27T19:52:00.000Z</time>
        <extensions>
          <ns3:TrackPointExtension>
            <ns3:atemp>32.0</ns3:atemp>
            <ns3:hr>93</ns3:hr>
          </ns3:TrackPointExtension>
        </extensions>
      </trkpt>
      <trkpt lat="36.81897508911788463592529296875" lon="-118.40208518318831920623779296875">
        <ele>3347.39990234375</ele>
        <time>2021-06-27T19:52:04.000Z</time>
        <extensions>
          <ns3:TrackPointExtension>
            <ns3:atemp>32.0</ns3:atemp>
            <ns3:hr>91</ns3:hr>
          </ns3:TrackPointExtension>
        </extensions>
      </trkpt>
      <trkpt lat="36.8189672939479351043701171875" lon="-118.40210328809916973114013671875">
        <ele>3347.199951171875</ele>
        <time>2021-06-27T19:52:06.000Z</time>
        <extensions>
          <ns3:TrackPointExtension>
            <ns3:atemp>32.0</ns3:atemp>
            <ns3:hr>91</ns3:hr>
          </ns3:TrackPointExtension>
        </extensions>
      </trkpt>
      <trkpt lat="36.81896419264376163482666015625" lon="-118.40211041271686553955078125">
        <ele>3347</ele>
        <time>2021-06-27T19:52:07.000Z</time>
        <extensions>
          <ns3:TrackPointExtension>
            <ns3:atemp>32.0</ns3:atemp>
            <ns3:hr>91</ns3:hr>
          </ns3:TrackPointExtension>
        </extensions>
      </trkpt>
      <trkpt lat="36.81895765475928783416748046875" lon="-118.4021417610347270965576171875">
        <ele>3346.199951171875</ele>
        <time>2021-06-27T19:52:10.000Z</time>
        <extensions>
          <ns3:TrackPointExtension>
            <ns3:atemp>32.0</ns3:atemp>
            <ns3:hr>94</ns3:hr>
          </ns3:TrackPointExtension>
        </extensions>
      </trkpt>
      <trkpt lat="36.8189615942537784576416015625" lon="-118.40216900222003459930419921875">
        <ele>3345.60009765625</ele>
        <time>2021-06-27T19:52:13.000Z</time>
        <extensions>
          <ns3:TrackPointExtension>
            <ns3:atemp>32.0</ns3:atemp>
            <ns3:hr>97</ns3:hr>
          </ns3:TrackPointExtension>
        </extensions>
      </trkpt>
      <trkpt lat="36.81897089816629886627197265625" lon="-118.402192555367946624755859375">
        <ele>3345.39990234375</ele>
        <time>2021-06-27T19:52:15.000Z</time>
        <extensions>
          <ns3:TrackPointExtension>
            <ns3:atemp>32.0</ns3:atemp>
            <ns3:hr>96</ns3:hr>
          </ns3:TrackPointExtension>
        </extensions>
      </trkpt>
      <trkpt lat="36.8189756758511066436767578125" lon="-118.40220085345208644866943359375">
        <ele>3345.199951171875</ele>
        <time>2021-06-27T19:52:16.000Z</time>
        <extensions>
          <ns3:TrackPointExtension>
            <ns3:atemp>32.0</ns3:atemp>
            <ns3:hr>96</ns3:hr>
          </ns3:TrackPointExtension>
        </extensions>
      </trkpt>
      <trkpt lat="36.81897659786045551300048828125" lon="-118.40222734026610851287841796875">
        <ele>3344.60009765625</ele>
        <time>2021-06-27T19:52:20.000Z</time>
        <extensions>
          <ns3:TrackPointExtension>
            <ns3:atemp>32.0</ns3:atemp>
            <ns3:hr>97</ns3:hr>
          </ns3:TrackPointExtension>
        </extensions>
      </trkpt>
      <trkpt lat="36.8189795315265655517578125" lon="-118.40227008797228336334228515625">
        <ele>3344</ele>
        <time>2021-06-27T19:52:24.000Z</time>
        <extensions>
          <ns3:TrackPointExtension>
            <ns3:atemp>33.0</ns3:atemp>
            <ns3:hr>97</ns3:hr>
          </ns3:TrackPointExtension>
        </extensions>
      </trkpt>
      <trkpt lat="36.818987242877483367919921875" lon="-118.40229238383471965789794921875">
        <ele>3343.60009765625</ele>
        <time>2021-06-27T19:52:27.000Z</time>
        <extensions>
          <ns3:TrackPointExtension>
            <ns3:atemp>33.0</ns3:atemp>
            <ns3:hr>97</ns3:hr>
          </ns3:TrackPointExtension>
        </extensions>
      </trkpt>
      <trkpt lat="36.819002665579319000244140625" lon="-118.40234267525374889373779296875">
        <ele>3342.60009765625</ele>
        <time>2021-06-27T19:52:33.000Z</time>
        <extensions>
          <ns3:TrackPointExtension>
            <ns3:atemp>33.0</ns3:atemp>
            <ns3:hr>99</ns3:hr>
          </ns3:TrackPointExtension>
        </extensions>
      </trkpt>
      <trkpt lat="36.81901314295828342437744140625" lon="-118.4023539908230304718017578125">
        <ele>3342.39990234375</ele>
        <time>2021-06-27T19:52:35.000Z</time>
        <extensions>
          <ns3:TrackPointExtension>
            <ns3:atemp>33.0</ns3:atemp>
            <ns3:hr>98</ns3:hr>
          </ns3:TrackPointExtension>
        </extensions>
      </trkpt>
      <trkpt lat="36.819032840430736541748046875" lon="-118.40239338576793670654296875">
        <ele>3341.39990234375</ele>
        <time>2021-06-27T19:52:41.000Z</time>
        <extensions>
          <ns3:TrackPointExtension>
            <ns3:atemp>33.0</ns3:atemp>
            <ns3:hr>94</ns3:hr>
          </ns3:TrackPointExtension>
        </extensions>
      </trkpt>
      <trkpt lat="36.8190412223339080810546875" lon="-118.402416519820690155029296875">
        <ele>3341</ele>
        <time>2021-06-27T19:52:43.000Z</time>
        <extensions>
          <ns3:TrackPointExtension>
            <ns3:atemp>33.0</ns3:atemp>
            <ns3:hr>93</ns3:hr>
          </ns3:TrackPointExtension>
        </extensions>
      </trkpt>
      <trkpt lat="36.81903644464910030364990234375" lon="-118.4024606086313724517822265625">
        <ele>3340.199951171875</ele>
        <time>2021-06-27T19:52:47.000Z</time>
        <extensions>
          <ns3:TrackPointExtension>
            <ns3:atemp>33.0</ns3:atemp>
            <ns3:hr>91</ns3:hr>
          </ns3:TrackPointExtension>
        </extensions>
      </trkpt>
      <trkpt lat="36.81902554817497730255126953125" lon="-118.40247728861868381500244140625">
        <ele>3340.199951171875</ele>
        <time>2021-06-27T19:52:49.000Z</time>
        <extensions>
          <ns3:TrackPointExtension>
            <ns3:atemp>33.0</ns3:atemp>
            <ns3:hr>90</ns3:hr>
          </ns3:TrackPointExtension>
        </extensions>
      </trkpt>
      <trkpt lat="36.819020099937915802001953125" lon="-118.402499668300151824951171875">
        <ele>3340</ele>
        <time>2021-06-27T19:52:51.000Z</time>
        <extensions>
          <ns3:TrackPointExtension>
            <ns3:atemp>33.0</ns3:atemp>
            <ns3:hr>87</ns3:hr>
          </ns3:TrackPointExtension>
        </extensions>
      </trkpt>
      <trkpt lat="36.8189984746277332305908203125" lon="-118.40252858586609363555908203125">
        <ele>3340</ele>
        <time>2021-06-27T19:52:54.000Z</time>
        <extensions>
          <ns3:TrackPointExtension>
            <ns3:atemp>33.0</ns3:atemp>
            <ns3:hr>83</ns3:hr>
          </ns3:TrackPointExtension>
        </extensions>
      </trkpt>
      <trkpt lat="36.818987242877483367919921875" lon="-118.40254652313888072967529296875">
        <ele>3339.39990234375</ele>
        <time>2021-06-27T19:52:56.000Z</time>
        <extensions>
          <ns3:TrackPointExtension>
            <ns3:atemp>33.0</ns3:atemp>
            <ns3:hr>80</ns3:hr>
          </ns3:TrackPointExtension>
        </extensions>
      </trkpt>
      <trkpt lat="36.818985901772975921630859375" lon="-118.40255909599363803863525390625">
        <ele>3339</ele>
        <time>2021-06-27T19:52:57.000Z</time>
        <extensions>
          <ns3:TrackPointExtension>
            <ns3:atemp>33.0</ns3:atemp>
            <ns3:hr>80</ns3:hr>
          </ns3:TrackPointExtension>
        </extensions>
      </trkpt>
      <trkpt lat="36.81898565031588077545166015625" lon="-118.40258491225540637969970703125">
        <ele>3338.800048828125</ele>
        <time>2021-06-27T19:52:59.000Z</time>
        <extensions>
          <ns3:TrackPointExtension>
            <ns3:atemp>33.0</ns3:atemp>
            <ns3:hr>80</ns3:hr>
          </ns3:TrackPointExtension>
        </extensions>
      </trkpt>
      <trkpt lat="36.818988583981990814208984375" lon="-118.40259362943470478057861328125">
        <ele>3338.800048828125</ele>
        <time>2021-06-27T19:53:00.000Z</time>
        <extensions>
          <ns3:TrackPointExtension>
            <ns3:atemp>33.0</ns3:atemp>
            <ns3:hr>79</ns3:hr>
          </ns3:TrackPointExtension>
        </extensions>
      </trkpt>
      <trkpt lat="36.81900325231254100799560546875" lon="-118.4026185236871242523193359375">
        <ele>3338.60009765625</ele>
        <time>2021-06-27T19:53:03.000Z</time>
        <extensions>
          <ns3:TrackPointExtension>
            <ns3:atemp>33.0</ns3:atemp>
            <ns3:hr>82</ns3:hr>
          </ns3:TrackPointExtension>
        </extensions>
      </trkpt>
      <trkpt lat="36.81902688927948474884033203125" lon="-118.4026751853525638580322265625">
        <ele>3338.199951171875</ele>
        <time>2021-06-27T19:53:08.000Z</time>
        <extensions>
          <ns3:TrackPointExtension>
            <ns3:atemp>33.0</ns3:atemp>
            <ns3:hr>85</ns3:hr>
          </ns3:TrackPointExtension>
        </extensions>
      </trkpt>
      <trkpt lat="36.81903342716395854949951171875" lon="-118.402683399617671966552734375">
        <ele>3338</ele>
        <time>2021-06-27T19:53:09.000Z</time>
        <extensions>
          <ns3:TrackPointExtension>
            <ns3:atemp>33.0</ns3:atemp>
            <ns3:hr>85</ns3:hr>
          </ns3:TrackPointExtension>
        </extensions>
      </trkpt>
      <trkpt lat="36.81904884986579418182373046875" lon="-118.4026979841291904449462890625">
        <ele>3337.60009765625</ele>
        <time>2021-06-27T19:53:11.000Z</time>
        <extensions>
          <ns3:TrackPointExtension>
            <ns3:atemp>33.0</ns3:atemp>
            <ns3:hr>85</ns3:hr>
          </ns3:TrackPointExtension>
        </extensions>
      </trkpt>
      <trkpt lat="36.81906544603407382965087890625" lon="-118.4027127362787723541259765625">
        <ele>3337.199951171875</ele>
        <time>2021-06-27T19:53:13.000Z</time>
        <extensions>
          <ns3:TrackPointExtension>
            <ns3:atemp>33.0</ns3:atemp>
            <ns3:hr>87</ns3:hr>
          </ns3:TrackPointExtension>
        </extensions>
      </trkpt>
      <trkpt lat="36.8190702237188816070556640625" lon="-118.402719609439373016357421875">
        <ele>3337</ele>
        <time>2021-06-27T19:53:14.000Z</time>
        <extensions>
          <ns3:TrackPointExtension>
            <ns3:atemp>33.0</ns3:atemp>
            <ns3:hr>84</ns3:hr>
          </ns3:TrackPointExtension>
        </extensions>
      </trkpt>
      <trkpt lat="36.81907801888883113861083984375" lon="-118.402761518955230712890625">
        <ele>3336.39990234375</ele>
        <time>2021-06-27T19:53:18.000Z</time>
        <extensions>
          <ns3:TrackPointExtension>
            <ns3:atemp>33.0</ns3:atemp>
            <ns3:hr>82</ns3:hr>
          </ns3:TrackPointExtension>
        </extensions>
      </trkpt>
      <trkpt lat="36.81908204220235347747802734375" lon="-118.40277518145740032196044921875">
        <ele>3336</ele>
        <time>2021-06-27T19:53:19.000Z</time>
        <extensions>
          <ns3:TrackPointExtension>
            <ns3:atemp>33.0</ns3:atemp>
            <ns3:hr>81</ns3:hr>
          </ns3:TrackPointExtension>
        </extensions>
      </trkpt>
      <trkpt lat="36.81908455677330493927001953125" lon="-118.402782641351222991943359375">
        <ele>3336</ele>
        <time>2021-06-27T19:53:20.000Z</time>
        <extensions>
          <ns3:TrackPointExtension>
            <ns3:atemp>33.0</ns3:atemp>
            <ns3:hr>80</ns3:hr>
          </ns3:TrackPointExtension>
        </extensions>
      </trkpt>
      <trkpt lat="36.81908405385911464691162109375" lon="-118.4027915261685848236083984375">
        <ele>3335.39990234375</ele>
        <time>2021-06-27T19:53:22.000Z</time>
        <extensions>
          <ns3:TrackPointExtension>
            <ns3:atemp>33.0</ns3:atemp>
            <ns3:hr>79</ns3:hr>
          </ns3:TrackPointExtension>
        </extensions>
      </trkpt>
      <trkpt lat="36.81906896643340587615966796875" lon="-118.402810804545879364013671875">
        <ele>3335</ele>
        <time>2021-06-27T19:53:25.000Z</time>
        <extensions>
          <ns3:TrackPointExtension>
            <ns3:atemp>33.0</ns3:atemp>
            <ns3:hr>79</ns3:hr>
          </ns3:TrackPointExtension>
        </extensions>
      </trkpt>
      <trkpt lat="36.81902579963207244873046875" lon="-118.40289353393018245697021484375">
        <ele>3334.199951171875</ele>
        <time>2021-06-27T19:53:35.000Z</time>
        <extensions>
          <ns3:TrackPointExtension>
            <ns3:atemp>33.0</ns3:atemp>
            <ns3:hr>79</ns3:hr>
          </ns3:TrackPointExtension>
        </extensions>
      </trkpt>
      <trkpt lat="36.81902538053691387176513671875" lon="-118.4029058553278446197509765625">
        <ele>3333.60009765625</ele>
        <time>2021-06-27T19:53:37.000Z</time>
        <extensions>
          <ns3:TrackPointExtension>
            <ns3:atemp>33.0</ns3:atemp>
            <ns3:hr>78</ns3:hr>
          </ns3:TrackPointExtension>
        </extensions>
      </trkpt>
      <trkpt lat="36.819024123251438140869140625" lon="-118.40291314758360385894775390625">
        <ele>3333.39990234375</ele>
        <time>2021-06-27T19:53:38.000Z</time>
        <extensions>
          <ns3:TrackPointExtension>
            <ns3:atemp>33.0</ns3:atemp>
            <ns3:hr>79</ns3:hr>
          </ns3:TrackPointExtension>
        </extensions>
      </trkpt>
      <trkpt lat="36.8190128915011882781982421875" lon="-118.40292714536190032958984375">
        <ele>3333</ele>
        <time>2021-06-27T19:53:41.000Z</time>
        <extensions>
          <ns3:TrackPointExtension>
            <ns3:atemp>33.0</ns3:atemp>
            <ns3:hr>76</ns3:hr>
          </ns3:TrackPointExtension>
        </extensions>
      </trkpt>
      <trkpt lat="36.81901037693023681640625" lon="-118.40293343178927898406982421875">
        <ele>3332.800048828125</ele>
        <time>2021-06-27T19:53:42.000Z</time>
        <extensions>
          <ns3:TrackPointExtension>
            <ns3:atemp>33.0</ns3:atemp>
            <ns3:hr>78</ns3:hr>
          </ns3:TrackPointExtension>
        </extensions>
      </trkpt>
      <trkpt lat="36.8190045095980167388916015625" lon="-118.402937538921833038330078125">
        <ele>3332.199951171875</ele>
        <time>2021-06-27T19:53:43.000Z</time>
        <extensions>
          <ns3:TrackPointExtension>
            <ns3:atemp>33.0</ns3:atemp>
            <ns3:hr>77</ns3:hr>
          </ns3:TrackPointExtension>
        </extensions>
      </trkpt>
      <trkpt lat="36.81897022761404514312744140625" lon="-118.40295572765171527862548828125">
        <ele>3331</ele>
        <time>2021-06-27T19:53:47.000Z</time>
        <extensions>
          <ns3:TrackPointExtension>
            <ns3:atemp>33.0</ns3:atemp>
            <ns3:hr>78</ns3:hr>
          </ns3:TrackPointExtension>
        </extensions>
      </trkpt>
      <trkpt lat="36.81895514018833637237548828125" lon="-118.4029802866280078887939453125">
        <ele>3330.800048828125</ele>
        <time>2021-06-27T19:53:50.000Z</time>
        <extensions>
          <ns3:TrackPointExtension>
            <ns3:atemp>33.0</ns3:atemp>
            <ns3:hr>78</ns3:hr>
          </ns3:TrackPointExtension>
        </extensions>
      </trkpt>
      <trkpt lat="36.81894206441938877105712890625" lon="-118.4030061028897762298583984375">
        <ele>3330</ele>
        <time>2021-06-27T19:53:53.000Z</time>
        <extensions>
          <ns3:TrackPointExtension>
            <ns3:atemp>33.0</ns3:atemp>
            <ns3:hr>77</ns3:hr>
          </ns3:TrackPointExtension>
        </extensions>
      </trkpt>
      <trkpt lat="36.81892915628850460052490234375" lon="-118.403024040162563323974609375">
        <ele>3329.60009765625</ele>
        <time>2021-06-27T19:53:55.000Z</time>
        <extensions>
          <ns3:TrackPointExtension>
            <ns3:atemp>33.0</ns3:atemp>
            <ns3:hr>80</ns3:hr>
          </ns3:TrackPointExtension>
        </extensions>
      </trkpt>
      <trkpt lat="36.81891859509050846099853515625" lon="-118.4030429832637310028076171875">
        <ele>3329.39990234375</ele>
        <time>2021-06-27T19:53:57.000Z</time>
        <extensions>
          <ns3:TrackPointExtension>
            <ns3:atemp>33.0</ns3:atemp>
            <ns3:hr>76</ns3:hr>
          </ns3:TrackPointExtension>
        </extensions>
      </trkpt>
      <trkpt lat="36.8189045973122119903564453125" lon="-118.40305614285171031951904296875">
        <ele>3329</ele>
        <time>2021-06-27T19:53:59.000Z</time>
        <extensions>
          <ns3:TrackPointExtension>
            <ns3:atemp>33.0</ns3:atemp>
            <ns3:hr>75</ns3:hr>
          </ns3:TrackPointExtension>
        </extensions>
      </trkpt>
      <trkpt lat="36.81889981962740421295166015625" lon="-118.40306486003100872039794921875">
        <ele>3329</ele>
        <time>2021-06-27T19:54:00.000Z</time>
        <extensions>
          <ns3:TrackPointExtension>
            <ns3:atemp>33.0</ns3:atemp>
            <ns3:hr>74</ns3:hr>
          </ns3:TrackPointExtension>
        </extensions>
      </trkpt>
      <trkpt lat="36.8188952095806598663330078125" lon="-118.40307332575321197509765625">
        <ele>3328.800048828125</ele>
        <time>2021-06-27T19:54:01.000Z</time>
        <extensions>
          <ns3:TrackPointExtension>
            <ns3:atemp>33.0</ns3:atemp>
            <ns3:hr>74</ns3:hr>
          </ns3:TrackPointExtension>
        </extensions>
      </trkpt>
      <trkpt lat="36.81886545382440090179443359375" lon="-118.40311062522232532501220703125">
        <ele>3328</ele>
        <time>2021-06-27T19:54:05.000Z</time>
        <extensions>
          <ns3:TrackPointExtension>
            <ns3:atemp>33.0</ns3:atemp>
            <ns3:hr>76</ns3:hr>
          </ns3:TrackPointExtension>
        </extensions>
      </trkpt>
      <trkpt lat="36.8188636936247348785400390625" lon="-118.40313099324703216552734375">
        <ele>3327.800048828125</ele>
        <time>2021-06-27T19:54:07.000Z</time>
        <extensions>
          <ns3:TrackPointExtension>
            <ns3:atemp>33.0</ns3:atemp>
            <ns3:hr>78</ns3:hr>
          </ns3:TrackPointExtension>
        </extensions>
      </trkpt>
      <trkpt lat="36.818846762180328369140625" lon="-118.403199724853038787841796875">
        <ele>3326.800048828125</ele>
        <time>2021-06-27T19:54:14.000Z</time>
        <extensions>
          <ns3:TrackPointExtension>
            <ns3:atemp>33.0</ns3:atemp>
            <ns3:hr>77</ns3:hr>
          </ns3:TrackPointExtension>
        </extensions>
      </trkpt>
      <trkpt lat="36.81884206831455230712890625" lon="-118.40321070514619350433349609375">
        <ele>3326.800048828125</ele>
        <time>2021-06-27T19:54:15.000Z</time>
        <extensions>
          <ns3:TrackPointExtension>
            <ns3:atemp>33.0</ns3:atemp>
            <ns3:hr>77</ns3:hr>
          </ns3:TrackPointExtension>
        </extensions>
      </trkpt>
      <trkpt lat="36.8188090436160564422607421875" lon="-118.40325965546071529388427734375">
        <ele>3325.60009765625</ele>
        <time>2021-06-27T19:54:21.000Z</time>
        <extensions>
          <ns3:TrackPointExtension>
            <ns3:atemp>33.0</ns3:atemp>
            <ns3:hr>76</ns3:hr>
          </ns3:TrackPointExtension>
        </extensions>
      </trkpt>
      <trkpt lat="36.81879387237131595611572265625" lon="-118.403281867504119873046875">
        <ele>3324.800048828125</ele>
        <time>2021-06-27T19:54:24.000Z</time>
        <extensions>
          <ns3:TrackPointExtension>
            <ns3:atemp>33.0</ns3:atemp>
            <ns3:hr>75</ns3:hr>
          </ns3:TrackPointExtension>
        </extensions>
      </trkpt>
      <trkpt lat="36.8187805451452732086181640625" lon="-118.40329653583467006683349609375">
        <ele>3324.60009765625</ele>
        <time>2021-06-27T19:54:26.000Z</time>
        <extensions>
          <ns3:TrackPointExtension>
            <ns3:atemp>33.0</ns3:atemp>
            <ns3:hr>74</ns3:hr>
          </ns3:TrackPointExtension>
        </extensions>
      </trkpt>
      <trkpt lat="36.81877367198467254638671875" lon="-118.40333676896989345550537109375">
        <ele>3323.39990234375</ele>
        <time>2021-06-27T19:54:30.000Z</time>
        <extensions>
          <ns3:TrackPointExtension>
            <ns3:atemp>33.0</ns3:atemp>
            <ns3:hr>72</ns3:hr>
          </ns3:TrackPointExtension>
        </extensions>
      </trkpt>
      <trkpt lat="36.81877794675529003143310546875" lon="-118.40334615670144557952880859375">
        <ele>3323.39990234375</ele>
        <time>2021-06-27T19:54:31.000Z</time>
        <extensions>
          <ns3:TrackPointExtension>
            <ns3:atemp>33.0</ns3:atemp>
            <ns3:hr>72</ns3:hr>
          </ns3:TrackPointExtension>
        </extensions>
      </trkpt>
      <trkpt lat="36.818793118000030517578125" lon="-118.40339058078825473785400390625">
        <ele>3322.800048828125</ele>
        <time>2021-06-27T19:54:35.000Z</time>
        <extensions>
          <ns3:TrackPointExtension>
            <ns3:atemp>33.0</ns3:atemp>
            <ns3:hr>75</ns3:hr>
          </ns3:TrackPointExtension>
        </extensions>
      </trkpt>
      <trkpt lat="36.81879688985645771026611328125" lon="-118.403401561081409454345703125">
        <ele>3322.800048828125</ele>
        <time>2021-06-27T19:54:36.000Z</time>
        <extensions>
          <ns3:TrackPointExtension>
            <ns3:atemp>33.0</ns3:atemp>
            <ns3:hr>71</ns3:hr>
          </ns3:TrackPointExtension>
        </extensions>
      </trkpt>
      <trkpt lat="36.81879781186580657958984375" lon="-118.40341136790812015533447265625">
        <ele>3322.39990234375</ele>
        <time>2021-06-27T19:54:37.000Z</time>
        <extensions>
          <ns3:TrackPointExtension>
            <ns3:atemp>33.0</ns3:atemp>
            <ns3:hr>71</ns3:hr>
          </ns3:TrackPointExtension>
        </extensions>
      </trkpt>
      <trkpt lat="36.81878414936363697052001953125" lon="-118.403431735932826995849609375">
        <ele>3321.60009765625</ele>
        <time>2021-06-27T19:54:41.000Z</time>
        <extensions>
          <ns3:TrackPointExtension>
            <ns3:atemp>33.0</ns3:atemp>
            <ns3:hr>71</ns3:hr>
          </ns3:TrackPointExtension>
        </extensions>
      </trkpt>
      <trkpt lat="36.8187730014324188232421875" lon="-118.403443805873394012451171875">
        <ele>3321.199951171875</ele>
        <time>2021-06-27T19:54:43.000Z</time>
        <extensions>
          <ns3:TrackPointExtension>
            <ns3:atemp>33.0</ns3:atemp>
            <ns3:hr>72</ns3:hr>
          </ns3:TrackPointExtension>
        </extensions>
      </trkpt>
      <trkpt lat="36.8187765218317508697509765625" lon="-118.4034892357885837554931640625">
        <ele>3320.800048828125</ele>
        <time>2021-06-27T19:54:47.000Z</time>
        <extensions>
          <ns3:TrackPointExtension>
            <ns3:atemp>33.0</ns3:atemp>
            <ns3:hr>72</ns3:hr>
          </ns3:TrackPointExtension>
        </extensions>
      </trkpt>
      <trkpt lat="36.81877962313592433929443359375" lon="-118.40353542007505893707275390625">
        <ele>3320.199951171875</ele>
        <time>2021-06-27T19:54:51.000Z</time>
        <extensions>
          <ns3:TrackPointExtension>
            <ns3:atemp>33.0</ns3:atemp>
            <ns3:hr>74</ns3:hr>
          </ns3:TrackPointExtension>
        </extensions>
      </trkpt>
      <trkpt lat="36.8187671341001987457275390625" lon="-118.40356442146003246307373046875">
        <ele>3319.199951171875</ele>
        <time>2021-06-27T19:54:54.000Z</time>
        <extensions>
          <ns3:TrackPointExtension>
            <ns3:atemp>33.0</ns3:atemp>
            <ns3:hr>73</ns3:hr>
          </ns3:TrackPointExtension>
        </extensions>
      </trkpt>
      <trkpt lat="36.81875397451221942901611328125" lon="-118.4035794250667095184326171875">
        <ele>3319</ele>
        <time>2021-06-27T19:54:56.000Z</time>
        <extensions>
          <ns3:TrackPointExtension>
            <ns3:atemp>33.0</ns3:atemp>
            <ns3:hr>75</ns3:hr>
          </ns3:TrackPointExtension>
        </extensions>
      </trkpt>
      <trkpt lat="36.81876319460570812225341796875" lon="-118.403606750071048736572265625">
        <ele>3318.39990234375</ele>
        <time>2021-06-27T19:54:59.000Z</time>
        <extensions>
          <ns3:TrackPointExtension>
            <ns3:atemp>33.0</ns3:atemp>
            <ns3:hr>76</ns3:hr>
          </ns3:TrackPointExtension>
        </extensions>
      </trkpt>
      <trkpt lat="36.81877861730754375457763671875" lon="-118.40362745337188243865966796875">
        <ele>3318.199951171875</ele>
        <time>2021-06-27T19:55:01.000Z</time>
        <extensions>
          <ns3:TrackPointExtension>
            <ns3:atemp>33.0</ns3:atemp>
            <ns3:hr>78</ns3:hr>
          </ns3:TrackPointExtension>
        </extensions>
      </trkpt>
      <trkpt lat="36.8187815509736537933349609375" lon="-118.403635919094085693359375">
        <ele>3317.800048828125</ele>
        <time>2021-06-27T19:55:02.000Z</time>
        <extensions>
          <ns3:TrackPointExtension>
            <ns3:atemp>33.0</ns3:atemp>
            <ns3:hr>76</ns3:hr>
          </ns3:TrackPointExtension>
        </extensions>
      </trkpt>
      <trkpt lat="36.818776689469814300537109375" lon="-118.40366701595485210418701171875">
        <ele>3317</ele>
        <time>2021-06-27T19:55:05.000Z</time>
        <extensions>
          <ns3:TrackPointExtension>
            <ns3:atemp>33.0</ns3:atemp>
            <ns3:hr>76</ns3:hr>
          </ns3:TrackPointExtension>
        </extensions>
      </trkpt>
      <trkpt lat="36.8187684752047061920166015625" lon="-118.4036890603601932525634765625">
        <ele>3316.800048828125</ele>
        <time>2021-06-27T19:55:07.000Z</time>
        <extensions>
          <ns3:TrackPointExtension>
            <ns3:atemp>33.0</ns3:atemp>
            <ns3:hr>76</ns3:hr>
          </ns3:TrackPointExtension>
        </extensions>
      </trkpt>
      <trkpt lat="36.81874827481806278228759765625" lon="-118.40371646918356418609619140625">
        <ele>3316.60009765625</ele>
        <time>2021-06-27T19:55:10.000Z</time>
        <extensions>
          <ns3:TrackPointExtension>
            <ns3:atemp>33.0</ns3:atemp>
            <ns3:hr>76</ns3:hr>
          </ns3:TrackPointExtension>
        </extensions>
      </trkpt>
      <trkpt lat="36.8187329359352588653564453125" lon="-118.4037510864436626434326171875">
        <ele>3316</ele>
        <time>2021-06-27T19:55:13.000Z</time>
        <extensions>
          <ns3:TrackPointExtension>
            <ns3:atemp>33.0</ns3:atemp>
            <ns3:hr>77</ns3:hr>
          </ns3:TrackPointExtension>
        </extensions>
      </trkpt>
      <trkpt lat="36.81872849352657794952392578125" lon="-118.4037896431982517242431640625">
        <ele>3315.39990234375</ele>
        <time>2021-06-27T19:55:16.000Z</time>
        <extensions>
          <ns3:TrackPointExtension>
            <ns3:atemp>33.0</ns3:atemp>
            <ns3:hr>80</ns3:hr>
          </ns3:TrackPointExtension>
        </extensions>
      </trkpt>
      <trkpt lat="36.8187218718230724334716796875" lon="-118.40382090769708156585693359375">
        <ele>3314.60009765625</ele>
        <time>2021-06-27T19:55:19.000Z</time>
        <extensions>
          <ns3:TrackPointExtension>
            <ns3:atemp>33.0</ns3:atemp>
            <ns3:hr>80</ns3:hr>
          </ns3:TrackPointExtension>
        </extensions>
      </trkpt>
      <trkpt lat="36.8187205307185649871826171875" lon="-118.40384454466402530670166015625">
        <ele>3314</ele>
        <time>2021-06-27T19:55:21.000Z</time>
        <extensions>
          <ns3:TrackPointExtension>
            <ns3:atemp>33.0</ns3:atemp>
            <ns3:hr>84</ns3:hr>
          </ns3:TrackPointExtension>
        </extensions>
      </trkpt>
      <trkpt lat="36.8187165074050426483154296875" lon="-118.40388729237020015716552734375">
        <ele>3313.800048828125</ele>
        <time>2021-06-27T19:55:24.000Z</time>
        <extensions>
          <ns3:TrackPointExtension>
            <ns3:atemp>33.0</ns3:atemp>
            <ns3:hr>80</ns3:hr>
          </ns3:TrackPointExtension>
        </extensions>
      </trkpt>
      <trkpt lat="36.81870996952056884765625" lon="-118.40391285717487335205078125">
        <ele>3313.60009765625</ele>
        <time>2021-06-27T19:55:26.000Z</time>
        <extensions>
          <ns3:TrackPointExtension>
            <ns3:atemp>33.0</ns3:atemp>
            <ns3:hr>82</ns3:hr>
          </ns3:TrackPointExtension>
        </extensions>
      </trkpt>
      <trkpt lat="36.81870887987315654754638671875" lon="-118.4039344824850559234619140625">
        <ele>3313.39990234375</ele>
        <time>2021-06-27T19:55:28.000Z</time>
        <extensions>
          <ns3:TrackPointExtension>
            <ns3:atemp>33.0</ns3:atemp>
            <ns3:hr>81</ns3:hr>
          </ns3:TrackPointExtension>
        </extensions>
      </trkpt>
      <trkpt lat="36.81871206499636173248291015625" lon="-118.40395510196685791015625">
        <ele>3312.60009765625</ele>
        <time>2021-06-27T19:55:35.000Z</time>
        <extensions>
          <ns3:TrackPointExtension>
            <ns3:atemp>33.0</ns3:atemp>
            <ns3:hr>80</ns3:hr>
          </ns3:TrackPointExtension>
        </extensions>
      </trkpt>
      <trkpt lat="36.8186913616955280303955078125" lon="-118.40398251079022884368896484375">
        <ele>3312.60009765625</ele>
        <time>2021-06-27T19:55:41.000Z</time>
        <extensions>
          <ns3:TrackPointExtension>
            <ns3:atemp>33.0</ns3:atemp>
            <ns3:hr>76</ns3:hr>
          </ns3:TrackPointExtension>
        </extensions>
      </trkpt>
      <trkpt lat="36.8186886794865131378173828125" lon="-118.4039931558072566986083984375">
        <ele>3312.60009765625</ele>
        <time>2021-06-27T19:55:43.000Z</time>
        <extensions>
          <ns3:TrackPointExtension>
            <ns3:atemp>33.0</ns3:atemp>
            <ns3:hr>78</ns3:hr>
          </ns3:TrackPointExtension>
        </extensions>
      </trkpt>
      <trkpt lat="36.81866462342441082000732421875" lon="-118.40403229929506778717041015625">
        <ele>3312.800048828125</ele>
        <time>2021-06-27T19:55:49.000Z</time>
        <extensions>
          <ns3:TrackPointExtension>
            <ns3:atemp>33.0</ns3:atemp>
            <ns3:hr>81</ns3:hr>
          </ns3:TrackPointExtension>
        </extensions>
      </trkpt>
      <trkpt lat="36.81867669336497783660888671875" lon="-118.40404319576919078826904296875">
        <ele>3312.60009765625</ele>
        <time>2021-06-27T19:55:51.000Z</time>
        <extensions>
          <ns3:TrackPointExtension>
            <ns3:atemp>33.0</ns3:atemp>
            <ns3:hr>84</ns3:hr>
          </ns3:TrackPointExtension>
        </extensions>
      </trkpt>
      <trkpt lat="36.81868591345846652984619140625" lon="-118.4040467999875545501708984375">
        <ele>3312.39990234375</ele>
        <time>2021-06-27T19:55:52.000Z</time>
        <extensions>
          <ns3:TrackPointExtension>
            <ns3:atemp>33.0</ns3:atemp>
            <ns3:hr>86</ns3:hr>
          </ns3:TrackPointExtension>
        </extensions>
      </trkpt>
      <trkpt lat="36.81869898922741413116455078125" lon="-118.40404453687369823455810546875">
        <ele>3312.39990234375</ele>
        <time>2021-06-27T19:55:54.000Z</time>
        <extensions>
          <ns3:TrackPointExtension>
            <ns3:atemp>33.0</ns3:atemp>
            <ns3:hr>90</ns3:hr>
          </ns3:TrackPointExtension>
        </extensions>
      </trkpt>
      <trkpt lat="36.81869798339903354644775390625" lon="-118.40404487214982509613037109375">
        <ele>3312.39990234375</ele>
        <time>2021-06-27T19:55:55.000Z</time>
        <extensions>
          <ns3:TrackPointExtension>
            <ns3:atemp>33.0</ns3:atemp>
            <ns3:hr>91</ns3:hr>
          </ns3:TrackPointExtension>
        </extensions>
      </trkpt>
      <trkpt lat="36.818694882094860076904296875" lon="-118.40404369868338108062744140625">
        <ele>3312.199951171875</ele>
        <time>2021-06-27T19:55:57.000Z</time>
        <extensions>
          <ns3:TrackPointExtension>
            <ns3:atemp>33.0</ns3:atemp>
            <ns3:hr>94</ns3:hr>
          </ns3:TrackPointExtension>
        </extensions>
      </trkpt>
      <trkpt lat="36.81870385073125362396240234375" lon="-118.4040655754506587982177734375">
        <ele>3312</ele>
        <time>2021-06-27T19:56:00.000Z</time>
        <extensions>
          <ns3:TrackPointExtension>
            <ns3:atemp>33.0</ns3:atemp>
            <ns3:hr>97</ns3:hr>
          </ns3:TrackPointExtension>
        </extensions>
      </trkpt>
      <trkpt lat="36.81870125234127044677734375" lon="-118.40408443473279476165771484375">
        <ele>3311.800048828125</ele>
        <time>2021-06-27T19:56:03.000Z</time>
        <extensions>
          <ns3:TrackPointExtension>
            <ns3:atemp>33.0</ns3:atemp>
            <ns3:hr>96</ns3:hr>
          </ns3:TrackPointExtension>
        </extensions>
      </trkpt>
      <trkpt lat="36.8186819739639759063720703125" lon="-118.40415316633880138397216796875">
        <ele>3311.800048828125</ele>
        <time>2021-06-27T19:56:11.000Z</time>
        <extensions>
          <ns3:TrackPointExtension>
            <ns3:atemp>33.0</ns3:atemp>
            <ns3:hr>96</ns3:hr>
          </ns3:TrackPointExtension>
        </extensions>
      </trkpt>
      <trkpt lat="36.8186923675239086151123046875" lon="-118.40420295484364032745361328125">
        <ele>3311.199951171875</ele>
        <time>2021-06-27T19:56:16.000Z</time>
        <extensions>
          <ns3:TrackPointExtension>
            <ns3:atemp>33.0</ns3:atemp>
            <ns3:hr>98</ns3:hr>
          </ns3:TrackPointExtension>
        </extensions>
      </trkpt>
      <trkpt lat="36.81870301254093647003173828125" lon="-118.4042449481785297393798828125">
        <ele>3310.60009765625</ele>
        <time>2021-06-27T19:56:20.000Z</time>
        <extensions>
          <ns3:TrackPointExtension>
            <ns3:atemp>33.0</ns3:atemp>
            <ns3:hr>98</ns3:hr>
          </ns3:TrackPointExtension>
        </extensions>
      </trkpt>
      <trkpt lat="36.81869924068450927734375" lon="-118.4042664058506488800048828125">
        <ele>3310</ele>
        <time>2021-06-27T19:56:23.000Z</time>
        <extensions>
          <ns3:TrackPointExtension>
            <ns3:atemp>33.0</ns3:atemp>
            <ns3:hr>99</ns3:hr>
          </ns3:TrackPointExtension>
        </extensions>
      </trkpt>
      <trkpt lat="36.818694211542606353759765625" lon="-118.40428828261792659759521484375">
        <ele>3309.39990234375</ele>
        <time>2021-06-27T19:56:26.000Z</time>
        <extensions>
          <ns3:TrackPointExtension>
            <ns3:atemp>33.0</ns3:atemp>
            <ns3:hr>98</ns3:hr>
          </ns3:TrackPointExtension>
        </extensions>
      </trkpt>
      <trkpt lat="36.8187165074050426483154296875" lon="-118.404332958161830902099609375">
        <ele>3308.800048828125</ele>
        <time>2021-06-27T19:56:31.000Z</time>
        <extensions>
          <ns3:TrackPointExtension>
            <ns3:atemp>33.0</ns3:atemp>
            <ns3:hr>98</ns3:hr>
          </ns3:TrackPointExtension>
        </extensions>
      </trkpt>
      <trkpt lat="36.8187336064875125885009765625" lon="-118.4043668210506439208984375">
        <ele>3308.39990234375</ele>
        <time>2021-06-27T19:56:35.000Z</time>
        <extensions>
          <ns3:TrackPointExtension>
            <ns3:atemp>33.0</ns3:atemp>
            <ns3:hr>98</ns3:hr>
          </ns3:TrackPointExtension>
        </extensions>
      </trkpt>
      <trkpt lat="36.81873972527682781219482421875" lon="-118.40439456515014171600341796875">
        <ele>3307.800048828125</ele>
        <time>2021-06-27T19:56:38.000Z</time>
        <extensions>
          <ns3:TrackPointExtension>
            <ns3:atemp>33.0</ns3:atemp>
            <ns3:hr>96</ns3:hr>
          </ns3:TrackPointExtension>
        </extensions>
      </trkpt>
      <trkpt lat="36.81872983463108539581298828125" lon="-118.40444259345531463623046875">
        <ele>3306.39990234375</ele>
        <time>2021-06-27T19:56:43.000Z</time>
        <extensions>
          <ns3:TrackPointExtension>
            <ns3:atemp>33.0</ns3:atemp>
            <ns3:hr>94</ns3:hr>
          </ns3:TrackPointExtension>
        </extensions>
      </trkpt>
      <trkpt lat="36.8187369592487812042236328125" lon="-118.4044682420790195465087890625">
        <ele>3305.800048828125</ele>
        <time>2021-06-27T19:56:46.000Z</time>
        <extensions>
          <ns3:TrackPointExtension>
            <ns3:atemp>33.0</ns3:atemp>
            <ns3:hr>91</ns3:hr>
          </ns3:TrackPointExtension>
        </extensions>
      </trkpt>
      <trkpt lat="36.8187305890023708343505859375" lon="-118.40447939001023769378662109375">
        <ele>3305.199951171875</ele>
        <time>2021-06-27T19:56:48.000Z</time>
        <extensions>
          <ns3:TrackPointExtension>
            <ns3:atemp>33.0</ns3:atemp>
            <ns3:hr>90</ns3:hr>
          </ns3:TrackPointExtension>
        </extensions>
      </trkpt>
      <trkpt lat="36.81871273554861545562744140625" lon="-118.40450051240622997283935546875">
        <ele>3304.39990234375</ele>
        <time>2021-06-27T19:56:51.000Z</time>
        <extensions>
          <ns3:TrackPointExtension>
            <ns3:atemp>33.0</ns3:atemp>
            <ns3:hr>89</ns3:hr>
          </ns3:TrackPointExtension>
        </extensions>
      </trkpt>
      <trkpt lat="36.81871189735829830169677734375" lon="-118.4045373089611530303955078125">
        <ele>3303.800048828125</ele>
        <time>2021-06-27T19:56:55.000Z</time>
        <extensions>
          <ns3:TrackPointExtension>
            <ns3:atemp>33.0</ns3:atemp>
            <ns3:hr>88</ns3:hr>
          </ns3:TrackPointExtension>
        </extensions>
      </trkpt>
      <trkpt lat="36.8187041021883487701416015625" lon="-118.40456153266131877899169921875">
        <ele>3303.199951171875</ele>
        <time>2021-06-27T19:56:58.000Z</time>
        <extensions>
          <ns3:TrackPointExtension>
            <ns3:atemp>33.0</ns3:atemp>
            <ns3:hr>87</ns3:hr>
          </ns3:TrackPointExtension>
        </extensions>
      </trkpt>
      <trkpt lat="36.8187000788748264312744140625" lon="-118.4045694954693317413330078125">
        <ele>3302.39990234375</ele>
        <time>2021-06-27T19:56:59.000Z</time>
        <extensions>
          <ns3:TrackPointExtension>
            <ns3:atemp>33.0</ns3:atemp>
            <ns3:hr>86</ns3:hr>
          </ns3:TrackPointExtension>
        </extensions>
      </trkpt>
      <trkpt lat="36.8186910264194011688232421875" lon="-118.40459547936916351318359375">
        <ele>3301.60009765625</ele>
        <time>2021-06-27T19:57:03.000Z</time>
        <extensions>
          <ns3:TrackPointExtension>
            <ns3:atemp>33.0</ns3:atemp>
            <ns3:hr>82</ns3:hr>
          </ns3:TrackPointExtension>
        </extensions>
      </trkpt>
      <trkpt lat="36.8186890147626399993896484375" lon="-118.4046046994626522064208984375">
        <ele>3301.39990234375</ele>
        <time>2021-06-27T19:57:04.000Z</time>
        <extensions>
          <ns3:TrackPointExtension>
            <ns3:atemp>33.0</ns3:atemp>
            <ns3:hr>82</ns3:hr>
          </ns3:TrackPointExtension>
        </extensions>
      </trkpt>
      <trkpt lat="36.81868918240070343017578125" lon="-118.4046110697090625762939453125">
        <ele>3301</ele>
        <time>2021-06-27T19:57:05.000Z</time>
        <extensions>
          <ns3:TrackPointExtension>
            <ns3:atemp>33.0</ns3:atemp>
            <ns3:hr>81</ns3:hr>
          </ns3:TrackPointExtension>
        </extensions>
      </trkpt>
      <trkpt lat="36.81868306361138820648193359375" lon="-118.40462900698184967041015625">
        <ele>3300.199951171875</ele>
        <time>2021-06-27T19:57:08.000Z</time>
        <extensions>
          <ns3:TrackPointExtension>
            <ns3:atemp>33.0</ns3:atemp>
            <ns3:hr>80</ns3:hr>
          </ns3:TrackPointExtension>
        </extensions>
      </trkpt>
      <trkpt lat="36.81865339167416095733642578125" lon="-118.404665552079677581787109375">
        <ele>3298.800048828125</ele>
        <time>2021-06-27T19:57:14.000Z</time>
        <extensions>
          <ns3:TrackPointExtension>
            <ns3:atemp>33.0</ns3:atemp>
            <ns3:hr>79</ns3:hr>
          </ns3:TrackPointExtension>
        </extensions>
      </trkpt>
      <trkpt lat="36.81866101920604705810546875" lon="-118.404701761901378631591796875">
        <ele>3298.199951171875</ele>
        <time>2021-06-27T19:57:19.000Z</time>
        <extensions>
          <ns3:TrackPointExtension>
            <ns3:atemp>33.0</ns3:atemp>
            <ns3:hr>78</ns3:hr>
          </ns3:TrackPointExtension>
        </extensions>
      </trkpt>
      <trkpt lat="36.81867116130888462066650390625" lon="-118.40471710078418254852294921875">
        <ele>3297.800048828125</ele>
        <time>2021-06-27T19:57:21.000Z</time>
        <extensions>
          <ns3:TrackPointExtension>
            <ns3:atemp>33.0</ns3:atemp>
            <ns3:hr>78</ns3:hr>
          </ns3:TrackPointExtension>
        </extensions>
      </trkpt>
      <trkpt lat="36.81866780854761600494384765625" lon="-118.4047418273985385894775390625">
        <ele>3296.60009765625</ele>
        <time>2021-06-27T19:57:26.000Z</time>
        <extensions>
          <ns3:TrackPointExtension>
            <ns3:atemp>33.0</ns3:atemp>
            <ns3:hr>77</ns3:hr>
          </ns3:TrackPointExtension>
        </extensions>
      </trkpt>
      <trkpt lat="36.81866101920604705810546875" lon="-118.404746018350124359130859375">
        <ele>3296.60009765625</ele>
        <time>2021-06-27T19:57:27.000Z</time>
        <extensions>
          <ns3:TrackPointExtension>
            <ns3:atemp>33.0</ns3:atemp>
            <ns3:hr>77</ns3:hr>
          </ns3:TrackPointExtension>
        </extensions>
      </trkpt>
      <trkpt lat="36.8186675570905208587646484375" lon="-118.4047991596162319183349609375">
        <ele>3296</ele>
        <time>2021-06-27T19:57:33.000Z</time>
        <extensions>
          <ns3:TrackPointExtension>
            <ns3:atemp>33.0</ns3:atemp>
            <ns3:hr>77</ns3:hr>
          </ns3:TrackPointExtension>
        </extensions>
      </trkpt>
      <trkpt lat="36.81866705417633056640625" lon="-118.4048065356910228729248046875">
        <ele>3295.39990234375</ele>
        <time>2021-06-27T19:57:35.000Z</time>
        <extensions>
          <ns3:TrackPointExtension>
            <ns3:atemp>33.0</ns3:atemp>
            <ns3:hr>79</ns3:hr>
          </ns3:TrackPointExtension>
        </extensions>
      </trkpt>
      <trkpt lat="36.81865456514060497283935546875" lon="-118.4048216231167316436767578125">
        <ele>3294.199951171875</ele>
        <time>2021-06-27T19:57:38.000Z</time>
        <extensions>
          <ns3:TrackPointExtension>
            <ns3:atemp>33.0</ns3:atemp>
            <ns3:hr>80</ns3:hr>
          </ns3:TrackPointExtension>
        </extensions>
      </trkpt>
      <trkpt lat="36.81864484213292598724365234375" lon="-118.404834531247615814208984375">
        <ele>3294.199951171875</ele>
        <time>2021-06-27T19:57:40.000Z</time>
        <extensions>
          <ns3:TrackPointExtension>
            <ns3:atemp>33.0</ns3:atemp>
            <ns3:hr>81</ns3:hr>
          </ns3:TrackPointExtension>
        </extensions>
      </trkpt>
      <trkpt lat="36.8186119012534618377685546875" lon="-118.40485724620521068572998046875">
        <ele>3292.800048828125</ele>
        <time>2021-06-27T19:57:45.000Z</time>
        <extensions>
          <ns3:TrackPointExtension>
            <ns3:atemp>33.0</ns3:atemp>
            <ns3:hr>81</ns3:hr>
          </ns3:TrackPointExtension>
        </extensions>
      </trkpt>
      <trkpt lat="36.818615086376667022705078125" lon="-118.40488515794277191162109375">
        <ele>3292</ele>
        <time>2021-06-27T19:57:48.000Z</time>
        <extensions>
          <ns3:TrackPointExtension>
            <ns3:atemp>33.0</ns3:atemp>
            <ns3:hr>81</ns3:hr>
          </ns3:TrackPointExtension>
        </extensions>
      </trkpt>
      <trkpt lat="36.8186201155185699462890625" lon="-118.4048947133123874664306640625">
        <ele>3291.800048828125</ele>
        <time>2021-06-27T19:57:49.000Z</time>
        <extensions>
          <ns3:TrackPointExtension>
            <ns3:atemp>33.0</ns3:atemp>
            <ns3:hr>81</ns3:hr>
          </ns3:TrackPointExtension>
        </extensions>
      </trkpt>
      <trkpt lat="36.818642579019069671630859375" lon="-118.40494391508400440216064453125">
        <ele>3290.800048828125</ele>
        <time>2021-06-27T19:57:55.000Z</time>
        <extensions>
          <ns3:TrackPointExtension>
            <ns3:atemp>33.0</ns3:atemp>
            <ns3:hr>83</ns3:hr>
          </ns3:TrackPointExtension>
        </extensions>
      </trkpt>
      <trkpt lat="36.81864685378968715667724609375" lon="-118.40496771968901157379150390625">
        <ele>3290.199951171875</ele>
        <time>2021-06-27T19:57:59.000Z</time>
        <extensions>
          <ns3:TrackPointExtension>
            <ns3:atemp>33.0</ns3:atemp>
            <ns3:hr>83</ns3:hr>
          </ns3:TrackPointExtension>
        </extensions>
      </trkpt>
      <trkpt lat="36.81863428093492984771728515625" lon="-118.4049959667026996612548828125">
        <ele>3289.39990234375</ele>
        <time>2021-06-27T19:58:02.000Z</time>
        <extensions>
          <ns3:TrackPointExtension>
            <ns3:atemp>33.0</ns3:atemp>
            <ns3:hr>84</ns3:hr>
          </ns3:TrackPointExtension>
        </extensions>
      </trkpt>
      <trkpt lat="36.81864048354327678680419921875" lon="-118.40502999722957611083984375">
        <ele>3288.800048828125</ele>
        <time>2021-06-27T19:58:06.000Z</time>
        <extensions>
          <ns3:TrackPointExtension>
            <ns3:atemp>33.0</ns3:atemp>
            <ns3:hr>87</ns3:hr>
          </ns3:TrackPointExtension>
        </extensions>
      </trkpt>
      <trkpt lat="36.8186474405229091644287109375" lon="-118.40505505912005901336669921875">
        <ele>3288</ele>
        <time>2021-06-27T19:58:09.000Z</time>
        <extensions>
          <ns3:TrackPointExtension>
            <ns3:atemp>33.0</ns3:atemp>
            <ns3:hr>85</ns3:hr>
          </ns3:TrackPointExtension>
        </extensions>
      </trkpt>
      <trkpt lat="36.818630509078502655029296875" lon="-118.4051052667200565338134765625">
        <ele>3287</ele>
        <time>2021-06-27T19:58:14.000Z</time>
        <extensions>
          <ns3:TrackPointExtension>
            <ns3:atemp>33.0</ns3:atemp>
            <ns3:hr>87</ns3:hr>
          </ns3:TrackPointExtension>
        </extensions>
      </trkpt>
      <trkpt lat="36.8186276592314243316650390625" lon="-118.40512387454509735107421875">
        <ele>3286.60009765625</ele>
        <time>2021-06-27T19:58:16.000Z</time>
        <extensions>
          <ns3:TrackPointExtension>
            <ns3:atemp>33.0</ns3:atemp>
            <ns3:hr>88</ns3:hr>
          </ns3:TrackPointExtension>
        </extensions>
      </trkpt>
      <trkpt lat="36.81862891651690006256103515625" lon="-118.40517156757414340972900390625">
        <ele>3285.800048828125</ele>
        <time>2021-06-27T19:58:21.000Z</time>
        <extensions>
          <ns3:TrackPointExtension>
            <ns3:atemp>33.0</ns3:atemp>
            <ns3:hr>90</ns3:hr>
          </ns3:TrackPointExtension>
        </extensions>
      </trkpt>
      <trkpt lat="36.81863042525947093963623046875" lon="-118.4051780216395854949951171875">
        <ele>3285.800048828125</ele>
        <time>2021-06-27T19:58:22.000Z</time>
        <extensions>
          <ns3:TrackPointExtension>
            <ns3:atemp>33.0</ns3:atemp>
            <ns3:hr>89</ns3:hr>
          </ns3:TrackPointExtension>
        </extensions>
      </trkpt>
      <trkpt lat="36.8186330236494541168212890625" lon="-118.4052209369838237762451171875">
        <ele>3284.800048828125</ele>
        <time>2021-06-27T19:58:26.000Z</time>
        <extensions>
          <ns3:TrackPointExtension>
            <ns3:atemp>33.0</ns3:atemp>
            <ns3:hr>88</ns3:hr>
          </ns3:TrackPointExtension>
        </extensions>
      </trkpt>
      <trkpt lat="36.81862707249820232391357421875" lon="-118.40524566359817981719970703125">
        <ele>3284</ele>
        <time>2021-06-27T19:58:29.000Z</time>
        <extensions>
          <ns3:TrackPointExtension>
            <ns3:atemp>33.0</ns3:atemp>
            <ns3:hr>88</ns3:hr>
          </ns3:TrackPointExtension>
        </extensions>
      </trkpt>
      <trkpt lat="36.818621456623077392578125" lon="-118.405269719660282135009765625">
        <ele>3283.60009765625</ele>
        <time>2021-06-27T19:58:31.000Z</time>
        <extensions>
          <ns3:TrackPointExtension>
            <ns3:atemp>33.0</ns3:atemp>
            <ns3:hr>88</ns3:hr>
          </ns3:TrackPointExtension>
        </extensions>
      </trkpt>
      <trkpt lat="36.818629838526248931884765625" lon="-118.405316658318042755126953125">
        <ele>3282.60009765625</ele>
        <time>2021-06-27T19:58:36.000Z</time>
        <extensions>
          <ns3:TrackPointExtension>
            <ns3:atemp>33.0</ns3:atemp>
            <ns3:hr>87</ns3:hr>
          </ns3:TrackPointExtension>
        </extensions>
      </trkpt>
      <trkpt lat="36.81863361038267612457275390625" lon="-118.4053252078592777252197265625">
        <ele>3282.39990234375</ele>
        <time>2021-06-27T19:58:37.000Z</time>
        <extensions>
          <ns3:TrackPointExtension>
            <ns3:atemp>33.0</ns3:atemp>
            <ns3:hr>88</ns3:hr>
          </ns3:TrackPointExtension>
        </extensions>
      </trkpt>
      <trkpt lat="36.81865473277866840362548828125" lon="-118.40537373907864093780517578125">
        <ele>3281.39990234375</ele>
        <time>2021-06-27T19:58:43.000Z</time>
        <extensions>
          <ns3:TrackPointExtension>
            <ns3:atemp>33.0</ns3:atemp>
            <ns3:hr>87</ns3:hr>
          </ns3:TrackPointExtension>
        </extensions>
      </trkpt>
      <trkpt lat="36.8186528049409389495849609375" lon="-118.4053815342485904693603515625">
        <ele>3281.39990234375</ele>
        <time>2021-06-27T19:58:44.000Z</time>
        <extensions>
          <ns3:TrackPointExtension>
            <ns3:atemp>33.0</ns3:atemp>
            <ns3:hr>88</ns3:hr>
          </ns3:TrackPointExtension>
        </extensions>
      </trkpt>
      <trkpt lat="36.81863361038267612457275390625" lon="-118.4054160676896572113037109375">
        <ele>3280.199951171875</ele>
        <time>2021-06-27T19:58:49.000Z</time>
        <extensions>
          <ns3:TrackPointExtension>
            <ns3:atemp>33.0</ns3:atemp>
            <ns3:hr>86</ns3:hr>
          </ns3:TrackPointExtension>
        </extensions>
      </trkpt>
      <trkpt lat="36.81863545440137386322021484375" lon="-118.40544305741786956787109375">
        <ele>3279.39990234375</ele>
        <time>2021-06-27T19:58:53.000Z</time>
        <extensions>
          <ns3:TrackPointExtension>
            <ns3:atemp>33.0</ns3:atemp>
            <ns3:hr>85</ns3:hr>
          </ns3:TrackPointExtension>
        </extensions>
      </trkpt>
      <trkpt lat="36.81863126344978809356689453125" lon="-118.405458815395832061767578125">
        <ele>3278.800048828125</ele>
        <time>2021-06-27T19:58:55.000Z</time>
        <extensions>
          <ns3:TrackPointExtension>
            <ns3:atemp>33.0</ns3:atemp>
            <ns3:hr>85</ns3:hr>
          </ns3:TrackPointExtension>
        </extensions>
      </trkpt>
      <trkpt lat="36.81861148215830326080322265625" lon="-118.40548463165760040283203125">
        <ele>3278.199951171875</ele>
        <time>2021-06-27T19:59:00.000Z</time>
        <extensions>
          <ns3:TrackPointExtension>
            <ns3:atemp>33.0</ns3:atemp>
            <ns3:hr>84</ns3:hr>
          </ns3:TrackPointExtension>
        </extensions>
      </trkpt>
      <trkpt lat="36.81860812939703464508056640625" lon="-118.4054915048182010650634765625">
        <ele>3277.800048828125</ele>
        <time>2021-06-27T19:59:01.000Z</time>
        <extensions>
          <ns3:TrackPointExtension>
            <ns3:atemp>33.0</ns3:atemp>
            <ns3:hr>83</ns3:hr>
          </ns3:TrackPointExtension>
        </extensions>
      </trkpt>
      <trkpt lat="36.81859128177165985107421875" lon="-118.40552444569766521453857421875">
        <ele>3276.800048828125</ele>
        <time>2021-06-27T19:59:06.000Z</time>
        <extensions>
          <ns3:TrackPointExtension>
            <ns3:atemp>33.0</ns3:atemp>
            <ns3:hr>80</ns3:hr>
          </ns3:TrackPointExtension>
        </extensions>
      </trkpt>
      <trkpt lat="36.81858784519135951995849609375" lon="-118.4055300615727901458740234375">
        <ele>3276.60009765625</ele>
        <time>2021-06-27T19:59:07.000Z</time>
        <extensions>
          <ns3:TrackPointExtension>
            <ns3:atemp>33.0</ns3:atemp>
            <ns3:hr>80</ns3:hr>
          </ns3:TrackPointExtension>
        </extensions>
      </trkpt>
      <trkpt lat="36.8185850791633129119873046875" lon="-118.405537940561771392822265625">
        <ele>3276.39990234375</ele>
        <time>2021-06-27T19:59:08.000Z</time>
        <extensions>
          <ns3:TrackPointExtension>
            <ns3:atemp>33.0</ns3:atemp>
            <ns3:hr>80</ns3:hr>
          </ns3:TrackPointExtension>
        </extensions>
      </trkpt>
      <trkpt lat="36.81856169365346431732177734375" lon="-118.40556618757545948028564453125">
        <ele>3275.39990234375</ele>
        <time>2021-06-27T19:59:13.000Z</time>
        <extensions>
          <ns3:TrackPointExtension>
            <ns3:atemp>33.0</ns3:atemp>
            <ns3:hr>79</ns3:hr>
          </ns3:TrackPointExtension>
        </extensions>
      </trkpt>
      <trkpt lat="36.81853403337299823760986328125" lon="-118.405594937503337860107421875">
        <ele>3274.39990234375</ele>
        <time>2021-06-27T19:59:18.000Z</time>
        <extensions>
          <ns3:TrackPointExtension>
            <ns3:atemp>33.0</ns3:atemp>
            <ns3:hr>79</ns3:hr>
          </ns3:TrackPointExtension>
        </extensions>
      </trkpt>
      <trkpt lat="36.81850276887416839599609375" lon="-118.40560306794941425323486328125">
        <ele>3273</ele>
        <time>2021-06-27T19:59:23.000Z</time>
        <extensions>
          <ns3:TrackPointExtension>
            <ns3:atemp>33.0</ns3:atemp>
            <ns3:hr>78</ns3:hr>
          </ns3:TrackPointExtension>
        </extensions>
      </trkpt>
      <trkpt lat="36.81848323903977870941162109375" lon="-118.40560290031135082244873046875">
        <ele>3272.60009765625</ele>
        <time>2021-06-27T19:59:26.000Z</time>
        <extensions>
          <ns3:TrackPointExtension>
            <ns3:atemp>33.0</ns3:atemp>
            <ns3:hr>77</ns3:hr>
          </ns3:TrackPointExtension>
        </extensions>
      </trkpt>
      <trkpt lat="36.81845155544579029083251953125" lon="-118.40561329387128353118896484375">
        <ele>3272</ele>
        <time>2021-06-27T19:59:30.000Z</time>
        <extensions>
          <ns3:TrackPointExtension>
            <ns3:atemp>33.0</ns3:atemp>
            <ns3:hr>79</ns3:hr>
          </ns3:TrackPointExtension>
        </extensions>
      </trkpt>
      <trkpt lat="36.8184392340481281280517578125" lon="-118.40565168298780918121337890625">
        <ele>3271</ele>
        <time>2021-06-27T19:59:34.000Z</time>
        <extensions>
          <ns3:TrackPointExtension>
            <ns3:atemp>33.0</ns3:atemp>
            <ns3:hr>81</ns3:hr>
          </ns3:TrackPointExtension>
        </extensions>
      </trkpt>
      <trkpt lat="36.8184377253055572509765625" lon="-118.40566056780517101287841796875">
        <ele>3271</ele>
        <time>2021-06-27T19:59:35.000Z</time>
        <extensions>
          <ns3:TrackPointExtension>
            <ns3:atemp>33.0</ns3:atemp>
            <ns3:hr>86</ns3:hr>
          </ns3:TrackPointExtension>
        </extensions>
      </trkpt>
      <trkpt lat="36.818436048924922943115234375" lon="-118.40566928498446941375732421875">
        <ele>3270.60009765625</ele>
        <time>2021-06-27T19:59:36.000Z</time>
        <extensions>
          <ns3:TrackPointExtension>
            <ns3:atemp>33.0</ns3:atemp>
            <ns3:hr>88</ns3:hr>
          </ns3:TrackPointExtension>
        </extensions>
      </trkpt>
      <trkpt lat="36.8184281699359416961669921875" lon="-118.40568973682820796966552734375">
        <ele>3270</ele>
        <time>2021-06-27T19:59:38.000Z</time>
        <extensions>
          <ns3:TrackPointExtension>
            <ns3:atemp>33.0</ns3:atemp>
            <ns3:hr>92</ns3:hr>
          </ns3:TrackPointExtension>
        </extensions>
      </trkpt>
      <trkpt lat="36.81842657737433910369873046875" lon="-118.405710943043231964111328125">
        <ele>3270</ele>
        <time>2021-06-27T19:59:40.000Z</time>
        <extensions>
          <ns3:TrackPointExtension>
            <ns3:atemp>33.0</ns3:atemp>
            <ns3:hr>96</ns3:hr>
          </ns3:TrackPointExtension>
        </extensions>
      </trkpt>
      <trkpt lat="36.81843294762074947357177734375" lon="-118.40573944151401519775390625">
        <ele>3269.60009765625</ele>
        <time>2021-06-27T19:59:43.000Z</time>
        <extensions>
          <ns3:TrackPointExtension>
            <ns3:atemp>33.0</ns3:atemp>
            <ns3:hr>100</ns3:hr>
          </ns3:TrackPointExtension>
        </extensions>
      </trkpt>
      <trkpt lat="36.818435378372669219970703125" lon="-118.40575964190065860748291015625">
        <ele>3269</ele>
        <time>2021-06-27T19:59:45.000Z</time>
        <extensions>
          <ns3:TrackPointExtension>
            <ns3:atemp>33.0</ns3:atemp>
            <ns3:hr>102</ns3:hr>
          </ns3:TrackPointExtension>
        </extensions>
      </trkpt>
      <trkpt lat="36.81843034923076629638671875" lon="-118.405778668820858001708984375">
        <ele>3268.800048828125</ele>
        <time>2021-06-27T19:59:47.000Z</time>
        <extensions>
          <ns3:TrackPointExtension>
            <ns3:atemp>33.0</ns3:atemp>
            <ns3:hr>99</ns3:hr>
          </ns3:TrackPointExtension>
        </extensions>
      </trkpt>
      <trkpt lat="36.81842775084078311920166015625" lon="-118.40579350478947162628173828125">
        <ele>3268</ele>
        <time>2021-06-27T19:59:50.000Z</time>
        <extensions>
          <ns3:TrackPointExtension>
            <ns3:atemp>34.0</ns3:atemp>
            <ns3:hr>100</ns3:hr>
          </ns3:TrackPointExtension>
        </extensions>
      </trkpt>
      <trkpt lat="36.8184399046003818511962890625" lon="-118.40580792166292667388916015625">
        <ele>3267.60009765625</ele>
        <time>2021-06-27T20:00:00.000Z</time>
        <extensions>
          <ns3:TrackPointExtension>
            <ns3:atemp>34.0</ns3:atemp>
            <ns3:hr>97</ns3:hr>
          </ns3:TrackPointExtension>
        </extensions>
      </trkpt>
      <trkpt lat="36.81843571364879608154296875" lon="-118.40580859221518039703369140625">
        <ele>3266.800048828125</ele>
        <time>2021-06-27T20:00:25.000Z</time>
        <extensions>
          <ns3:TrackPointExtension>
            <ns3:atemp>34.0</ns3:atemp>
            <ns3:hr>94</ns3:hr>
          </ns3:TrackPointExtension>
        </extensions>
      </trkpt>
      <trkpt lat="36.81843663565814495086669921875" lon="-118.40581119060516357421875">
        <ele>3265.800048828125</ele>
        <time>2021-06-27T20:00:34.000Z</time>
        <extensions>
          <ns3:TrackPointExtension>
            <ns3:atemp>34.0</ns3:atemp>
            <ns3:hr>95</ns3:hr>
          </ns3:TrackPointExtension>
        </extensions>
      </trkpt>
      <trkpt lat="36.81843437254428863525390625" lon="-118.40582258999347686767578125">
        <ele>3265</ele>
        <time>2021-06-27T20:00:36.000Z</time>
        <extensions>
          <ns3:TrackPointExtension>
            <ns3:atemp>34.0</ns3:atemp>
            <ns3:hr>95</ns3:hr>
          </ns3:TrackPointExtension>
        </extensions>
      </trkpt>
      <trkpt lat="36.81841199286282062530517578125" lon="-118.40592593885958194732666015625">
        <ele>3264.39990234375</ele>
        <time>2021-06-27T20:00:41.000Z</time>
        <extensions>
          <ns3:TrackPointExtension>
            <ns3:atemp>33.0</ns3:atemp>
            <ns3:hr>94</ns3:hr>
          </ns3:TrackPointExtension>
        </extensions>
      </trkpt>
      <trkpt lat="36.81840059347450733184814453125" lon="-118.40600741095840930938720703125">
        <ele>3263.800048828125</ele>
        <time>2021-06-27T20:00:45.000Z</time>
        <extensions>
          <ns3:TrackPointExtension>
            <ns3:atemp>33.0</ns3:atemp>
            <ns3:hr>93</ns3:hr>
          </ns3:TrackPointExtension>
        </extensions>
      </trkpt>
      <trkpt lat="36.81839942000806331634521484375" lon="-118.40604655444622039794921875">
        <ele>3262.800048828125</ele>
        <time>2021-06-27T20:00:49.000Z</time>
        <extensions>
          <ns3:TrackPointExtension>
            <ns3:atemp>33.0</ns3:atemp>
            <ns3:hr>93</ns3:hr>
          </ns3:TrackPointExtension>
        </extensions>
      </trkpt>
      <trkpt lat="36.81839472614228725433349609375" lon="-118.40609508566558361053466796875">
        <ele>3261.800048828125</ele>
        <time>2021-06-27T20:00:54.000Z</time>
        <extensions>
          <ns3:TrackPointExtension>
            <ns3:atemp>33.0</ns3:atemp>
            <ns3:hr>93</ns3:hr>
          </ns3:TrackPointExtension>
        </extensions>
      </trkpt>
      <trkpt lat="36.8183933012187480926513671875" lon="-118.406143449246883392333984375">
        <ele>3261.39990234375</ele>
        <time>2021-06-27T20:00:58.000Z</time>
        <extensions>
          <ns3:TrackPointExtension>
            <ns3:atemp>33.0</ns3:atemp>
            <ns3:hr>95</ns3:hr>
          </ns3:TrackPointExtension>
        </extensions>
      </trkpt>
      <trkpt lat="36.81838735006749629974365234375" lon="-118.40618561021983623504638671875">
        <ele>3260.60009765625</ele>
        <time>2021-06-27T20:01:02.000Z</time>
        <extensions>
          <ns3:TrackPointExtension>
            <ns3:atemp>33.0</ns3:atemp>
            <ns3:hr>96</ns3:hr>
          </ns3:TrackPointExtension>
        </extensions>
      </trkpt>
      <trkpt lat="36.81835449300706386566162109375" lon="-118.406260795891284942626953125">
        <ele>3259.60009765625</ele>
        <time>2021-06-27T20:01:10.000Z</time>
        <extensions>
          <ns3:TrackPointExtension>
            <ns3:atemp>33.0</ns3:atemp>
            <ns3:hr>93</ns3:hr>
          </ns3:TrackPointExtension>
        </extensions>
      </trkpt>
      <trkpt lat="36.81832347996532917022705078125" lon="-118.40629809536039829254150390625">
        <ele>3258.199951171875</ele>
        <time>2021-06-27T20:01:15.000Z</time>
        <extensions>
          <ns3:TrackPointExtension>
            <ns3:atemp>33.0</ns3:atemp>
            <ns3:hr>93</ns3:hr>
          </ns3:TrackPointExtension>
        </extensions>
      </trkpt>
      <trkpt lat="36.8183165229856967926025390625" lon="-118.4063301980495452880859375">
        <ele>3258</ele>
        <time>2021-06-27T20:01:18.000Z</time>
        <extensions>
          <ns3:TrackPointExtension>
            <ns3:atemp>33.0</ns3:atemp>
            <ns3:hr>92</ns3:hr>
          </ns3:TrackPointExtension>
        </extensions>
      </trkpt>
      <trkpt lat="36.81828542612493038177490234375" lon="-118.40635945089161396026611328125">
        <ele>3257.39990234375</ele>
        <time>2021-06-27T20:01:24.000Z</time>
        <extensions>
          <ns3:TrackPointExtension>
            <ns3:atemp>33.0</ns3:atemp>
            <ns3:hr>94</ns3:hr>
          </ns3:TrackPointExtension>
        </extensions>
      </trkpt>
      <trkpt lat="36.8182779662311077117919921875" lon="-118.4063635580241680145263671875">
        <ele>3257.199951171875</ele>
        <time>2021-06-27T20:01:25.000Z</time>
        <extensions>
          <ns3:TrackPointExtension>
            <ns3:atemp>33.0</ns3:atemp>
            <ns3:hr>92</ns3:hr>
          </ns3:TrackPointExtension>
        </extensions>
      </trkpt>
      <trkpt lat="36.818255670368671417236328125" lon="-118.40639951638877391815185546875">
        <ele>3255.39990234375</ele>
        <time>2021-06-27T20:01:29.000Z</time>
        <extensions>
          <ns3:TrackPointExtension>
            <ns3:atemp>33.0</ns3:atemp>
            <ns3:hr>91</ns3:hr>
          </ns3:TrackPointExtension>
        </extensions>
      </trkpt>
      <trkpt lat="36.81822960264980792999267578125" lon="-118.40642700903117656707763671875">
        <ele>3254.60009765625</ele>
        <time>2021-06-27T20:01:33.000Z</time>
        <extensions>
          <ns3:TrackPointExtension>
            <ns3:atemp>33.0</ns3:atemp>
            <ns3:hr>90</ns3:hr>
          </ns3:TrackPointExtension>
        </extensions>
      </trkpt>
      <trkpt lat="36.81822189129889011383056640625" lon="-118.40643220581114292144775390625">
        <ele>3254.199951171875</ele>
        <time>2021-06-27T20:01:34.000Z</time>
        <extensions>
          <ns3:TrackPointExtension>
            <ns3:atemp>33.0</ns3:atemp>
            <ns3:hr>90</ns3:hr>
          </ns3:TrackPointExtension>
        </extensions>
      </trkpt>
      <trkpt lat="36.8181954883038997650146484375" lon="-118.4064530767500400543212890625">
        <ele>3253.39990234375</ele>
        <time>2021-06-27T20:01:37.000Z</time>
        <extensions>
          <ns3:TrackPointExtension>
            <ns3:atemp>33.0</ns3:atemp>
            <ns3:hr>90</ns3:hr>
          </ns3:TrackPointExtension>
        </extensions>
      </trkpt>
      <trkpt lat="36.81818895041942596435546875" lon="-118.4064624644815921783447265625">
        <ele>3253.199951171875</ele>
        <time>2021-06-27T20:01:38.000Z</time>
        <extensions>
          <ns3:TrackPointExtension>
            <ns3:atemp>33.0</ns3:atemp>
            <ns3:hr>90</ns3:hr>
          </ns3:TrackPointExtension>
        </extensions>
      </trkpt>
      <trkpt lat="36.81817042641341686248779296875" lon="-118.40649875812232494354248046875">
        <ele>3252.60009765625</ele>
        <time>2021-06-27T20:01:41.000Z</time>
        <extensions>
          <ns3:TrackPointExtension>
            <ns3:atemp>33.0</ns3:atemp>
            <ns3:hr>91</ns3:hr>
          </ns3:TrackPointExtension>
        </extensions>
      </trkpt>
      <trkpt lat="36.81810806505382061004638671875" lon="-118.40655139647424221038818359375">
        <ele>3252.60009765625</ele>
        <time>2021-06-27T20:01:49.000Z</time>
        <extensions>
          <ns3:TrackPointExtension>
            <ns3:atemp>34.0</ns3:atemp>
            <ns3:hr>91</ns3:hr>
          </ns3:TrackPointExtension>
        </extensions>
      </trkpt>
      <trkpt lat="36.81808090768754482269287109375" lon="-118.40656413696706295013427734375">
        <ele>3252.39990234375</ele>
        <time>2021-06-27T20:01:52.000Z</time>
        <extensions>
          <ns3:TrackPointExtension>
            <ns3:atemp>34.0</ns3:atemp>
            <ns3:hr>90</ns3:hr>
          </ns3:TrackPointExtension>
        </extensions>
      </trkpt>
      <trkpt lat="36.8180717714130878448486328125" lon="-118.40660453774034976959228515625">
        <ele>3251.800048828125</ele>
        <time>2021-06-27T20:01:55.000Z</time>
        <extensions>
          <ns3:TrackPointExtension>
            <ns3:atemp>34.0</ns3:atemp>
            <ns3:hr>92</ns3:hr>
          </ns3:TrackPointExtension>
        </extensions>
      </trkpt>
      <trkpt lat="36.81807369925081729888916015625" lon="-118.40663555078208446502685546875">
        <ele>3251.39990234375</ele>
        <time>2021-06-27T20:01:58.000Z</time>
        <extensions>
          <ns3:TrackPointExtension>
            <ns3:atemp>34.0</ns3:atemp>
            <ns3:hr>94</ns3:hr>
          </ns3:TrackPointExtension>
        </extensions>
      </trkpt>
      <trkpt lat="36.8180529959499835968017578125" lon="-118.40665214695036411285400390625">
        <ele>3251.199951171875</ele>
        <time>2021-06-27T20:02:01.000Z</time>
        <extensions>
          <ns3:TrackPointExtension>
            <ns3:atemp>34.0</ns3:atemp>
            <ns3:hr>97</ns3:hr>
          </ns3:TrackPointExtension>
        </extensions>
      </trkpt>
      <trkpt lat="36.818043775856494903564453125" lon="-118.40667293407022953033447265625">
        <ele>3250.800048828125</ele>
        <time>2021-06-27T20:02:04.000Z</time>
        <extensions>
          <ns3:TrackPointExtension>
            <ns3:atemp>34.0</ns3:atemp>
            <ns3:hr>100</ns3:hr>
          </ns3:TrackPointExtension>
        </extensions>
      </trkpt>
      <trkpt lat="36.8180412612855434417724609375" lon="-118.406681902706623077392578125">
        <ele>3249.60009765625</ele>
        <time>2021-06-27T20:02:06.000Z</time>
        <extensions>
          <ns3:TrackPointExtension>
            <ns3:atemp>34.0</ns3:atemp>
            <ns3:hr>99</ns3:hr>
          </ns3:TrackPointExtension>
        </extensions>
      </trkpt>
      <trkpt lat="36.8180392496287822723388671875" lon="-118.406685926020145416259765625">
        <ele>3249.39990234375</ele>
        <time>2021-06-27T20:02:08.000Z</time>
        <extensions>
          <ns3:TrackPointExtension>
            <ns3:atemp>34.0</ns3:atemp>
            <ns3:hr>97</ns3:hr>
          </ns3:TrackPointExtension>
        </extensions>
      </trkpt>
      <trkpt lat="36.8180369026958942413330078125" lon="-118.40669355355203151702880859375">
        <ele>3248.39990234375</ele>
        <time>2021-06-27T20:02:13.000Z</time>
        <extensions>
          <ns3:TrackPointExtension>
            <ns3:atemp>34.0</ns3:atemp>
            <ns3:hr>95</ns3:hr>
          </ns3:TrackPointExtension>
        </extensions>
      </trkpt>
      <trkpt lat="36.81804033927619457244873046875" lon="-118.40669640339910984039306640625">
        <ele>3248.39990234375</ele>
        <time>2021-06-27T20:02:16.000Z</time>
        <extensions>
          <ns3:TrackPointExtension>
            <ns3:atemp>34.0</ns3:atemp>
            <ns3:hr>94</ns3:hr>
          </ns3:TrackPointExtension>
        </extensions>
      </trkpt>
      <trkpt lat="36.81804033927619457244873046875" lon="-118.40669640339910984039306640625">
        <ele>3248.199951171875</ele>
        <time>2021-06-27T20:02:21.000Z</time>
        <extensions>
          <ns3:TrackPointExtension>
            <ns3:atemp>34.0</ns3:atemp>
            <ns3:hr>91</ns3:hr>
          </ns3:TrackPointExtension>
        </extensions>
      </trkpt>
      <trkpt lat="36.81804033927619457244873046875" lon="-118.40669640339910984039306640625">
        <ele>3248.39990234375</ele>
        <time>2021-06-27T20:02:23.000Z</time>
        <extensions>
          <ns3:TrackPointExtension>
            <ns3:atemp>34.0</ns3:atemp>
            <ns3:hr>88</ns3:hr>
          </ns3:TrackPointExtension>
        </extensions>
      </trkpt>
      <trkpt lat="36.81804033927619457244873046875" lon="-118.40669640339910984039306640625">
        <ele>3248.39990234375</ele>
        <time>2021-06-27T20:02:24.000Z</time>
        <extensions>
          <ns3:TrackPointExtension>
            <ns3:atemp>34.0</ns3:atemp>
            <ns3:hr>87</ns3:hr>
          </ns3:TrackPointExtension>
        </extensions>
      </trkpt>
      <trkpt lat="36.81804084219038486480712890625" lon="-118.40669640339910984039306640625">
        <ele>3249</ele>
        <time>2021-06-27T20:02:30.000Z</time>
        <extensions>
          <ns3:TrackPointExtension>
            <ns3:atemp>34.0</ns3:atemp>
            <ns3:hr>84</ns3:hr>
          </ns3:TrackPointExtension>
        </extensions>
      </trkpt>
      <trkpt lat="36.81804989464581012725830078125" lon="-118.40673982165753841400146484375">
        <ele>3249</ele>
        <time>2021-06-27T20:02:43.000Z</time>
        <extensions>
          <ns3:TrackPointExtension>
            <ns3:atemp>34.0</ns3:atemp>
            <ns3:hr>84</ns3:hr>
          </ns3:TrackPointExtension>
        </extensions>
      </trkpt>
      <trkpt lat="36.8180332146584987640380859375" lon="-118.4067595191299915313720703125">
        <ele>3248.60009765625</ele>
        <time>2021-06-27T20:02:45.000Z</time>
        <extensions>
          <ns3:TrackPointExtension>
            <ns3:atemp>34.0</ns3:atemp>
            <ns3:hr>81</ns3:hr>
          </ns3:TrackPointExtension>
        </extensions>
      </trkpt>
      <trkpt lat="36.81801167316734790802001953125" lon="-118.40679564513266086578369140625">
        <ele>3247.800048828125</ele>
        <time>2021-06-27T20:02:48.000Z</time>
        <extensions>
          <ns3:TrackPointExtension>
            <ns3:atemp>34.0</ns3:atemp>
            <ns3:hr>77</ns3:hr>
          </ns3:TrackPointExtension>
        </extensions>
      </trkpt>
      <trkpt lat="36.81800815276801586151123046875" lon="-118.4068145044147968292236328125">
        <ele>3247.800048828125</ele>
        <time>2021-06-27T20:02:49.000Z</time>
        <extensions>
          <ns3:TrackPointExtension>
            <ns3:atemp>34.0</ns3:atemp>
            <ns3:hr>79</ns3:hr>
          </ns3:TrackPointExtension>
        </extensions>
      </trkpt>
      <trkpt lat="36.81800245307385921478271484375" lon="-118.406832106411457061767578125">
        <ele>3247.39990234375</ele>
        <time>2021-06-27T20:02:51.000Z</time>
        <extensions>
          <ns3:TrackPointExtension>
            <ns3:atemp>34.0</ns3:atemp>
            <ns3:hr>81</ns3:hr>
          </ns3:TrackPointExtension>
        </extensions>
      </trkpt>
      <trkpt lat="36.81798954494297504425048828125" lon="-118.40684761293232440948486328125">
        <ele>3247.39990234375</ele>
        <time>2021-06-27T20:02:53.000Z</time>
        <extensions>
          <ns3:TrackPointExtension>
            <ns3:atemp>34.0</ns3:atemp>
            <ns3:hr>80</ns3:hr>
          </ns3:TrackPointExtension>
        </extensions>
      </trkpt>
      <trkpt lat="36.8179849348962306976318359375" lon="-118.40685264207422733306884765625">
        <ele>3247</ele>
        <time>2021-06-27T20:02:54.000Z</time>
        <extensions>
          <ns3:TrackPointExtension>
            <ns3:atemp>34.0</ns3:atemp>
            <ns3:hr>85</ns3:hr>
          </ns3:TrackPointExtension>
        </extensions>
      </trkpt>
      <trkpt lat="36.81797169148921966552734375" lon="-118.4068634547293186187744140625">
        <ele>3246.199951171875</ele>
        <time>2021-06-27T20:02:56.000Z</time>
        <extensions>
          <ns3:TrackPointExtension>
            <ns3:atemp>34.0</ns3:atemp>
            <ns3:hr>86</ns3:hr>
          </ns3:TrackPointExtension>
        </extensions>
      </trkpt>
      <trkpt lat="36.8179618008434772491455078125" lon="-118.406866304576396942138671875">
        <ele>3246.199951171875</ele>
        <time>2021-06-27T20:02:57.000Z</time>
        <extensions>
          <ns3:TrackPointExtension>
            <ns3:atemp>34.0</ns3:atemp>
            <ns3:hr>87</ns3:hr>
          </ns3:TrackPointExtension>
        </extensions>
      </trkpt>
      <trkpt lat="36.8178846873342990875244140625" lon="-118.406901173293590545654296875">
        <ele>3246</ele>
        <time>2021-06-27T20:03:04.000Z</time>
        <extensions>
          <ns3:TrackPointExtension>
            <ns3:atemp>34.0</ns3:atemp>
            <ns3:hr>90</ns3:hr>
          </ns3:TrackPointExtension>
        </extensions>
      </trkpt>
      <trkpt lat="36.81787110865116119384765625" lon="-118.40692137368023395538330078125">
        <ele>3245.60009765625</ele>
        <time>2021-06-27T20:03:06.000Z</time>
        <extensions>
          <ns3:TrackPointExtension>
            <ns3:atemp>34.0</ns3:atemp>
            <ns3:hr>90</ns3:hr>
          </ns3:TrackPointExtension>
        </extensions>
      </trkpt>
      <trkpt lat="36.8178588710725307464599609375" lon="-118.40695121325552463531494140625">
        <ele>3245.199951171875</ele>
        <time>2021-06-27T20:03:09.000Z</time>
        <extensions>
          <ns3:TrackPointExtension>
            <ns3:atemp>34.0</ns3:atemp>
            <ns3:hr>91</ns3:hr>
          </ns3:TrackPointExtension>
        </extensions>
      </trkpt>
      <trkpt lat="36.81782693602144718170166015625" lon="-118.40698407031595706939697265625">
        <ele>3244.199951171875</ele>
        <time>2021-06-27T20:03:14.000Z</time>
        <extensions>
          <ns3:TrackPointExtension>
            <ns3:atemp>34.0</ns3:atemp>
            <ns3:hr>91</ns3:hr>
          </ns3:TrackPointExtension>
        </extensions>
      </trkpt>
      <trkpt lat="36.81782291270792484283447265625" lon="-118.4069928713142871856689453125">
        <ele>3244</ele>
        <time>2021-06-27T20:03:15.000Z</time>
        <extensions>
          <ns3:TrackPointExtension>
            <ns3:atemp>34.0</ns3:atemp>
            <ns3:hr>91</ns3:hr>
          </ns3:TrackPointExtension>
        </extensions>
      </trkpt>
      <trkpt lat="36.8177928216755390167236328125" lon="-118.40703838504850864410400390625">
        <ele>3243</ele>
        <time>2021-06-27T20:03:19.000Z</time>
        <extensions>
          <ns3:TrackPointExtension>
            <ns3:atemp>34.0</ns3:atemp>
            <ns3:hr>92</ns3:hr>
          </ns3:TrackPointExtension>
        </extensions>
      </trkpt>
      <trkpt lat="36.81778217665851116180419921875" lon="-118.40704576112329959869384765625">
        <ele>3243</ele>
        <time>2021-06-27T20:03:20.000Z</time>
        <extensions>
          <ns3:TrackPointExtension>
            <ns3:atemp>34.0</ns3:atemp>
            <ns3:hr>92</ns3:hr>
          </ns3:TrackPointExtension>
        </extensions>
      </trkpt>
      <trkpt lat="36.8177591264247894287109375" lon="-118.4070490300655364990234375">
        <ele>3242.800048828125</ele>
        <time>2021-06-27T20:03:22.000Z</time>
        <extensions>
          <ns3:TrackPointExtension>
            <ns3:atemp>34.0</ns3:atemp>
            <ns3:hr>91</ns3:hr>
          </ns3:TrackPointExtension>
        </extensions>
      </trkpt>
      <trkpt lat="36.8176945857703685760498046875" lon="-118.40702430345118045806884765625">
        <ele>3241.800048828125</ele>
        <time>2021-06-27T20:03:29.000Z</time>
        <extensions>
          <ns3:TrackPointExtension>
            <ns3:atemp>34.0</ns3:atemp>
            <ns3:hr>91</ns3:hr>
          </ns3:TrackPointExtension>
        </extensions>
      </trkpt>
      <trkpt lat="36.817656867206096649169921875" lon="-118.4070087969303131103515625">
        <ele>3241.199951171875</ele>
        <time>2021-06-27T20:03:32.000Z</time>
        <extensions>
          <ns3:TrackPointExtension>
            <ns3:atemp>34.0</ns3:atemp>
            <ns3:hr>94</ns3:hr>
          </ns3:TrackPointExtension>
        </extensions>
      </trkpt>
      <trkpt lat="36.81762577034533023834228515625" lon="-118.4069927036762237548828125">
        <ele>3241.199951171875</ele>
        <time>2021-06-27T20:03:35.000Z</time>
        <extensions>
          <ns3:TrackPointExtension>
            <ns3:atemp>34.0</ns3:atemp>
            <ns3:hr>98</ns3:hr>
          </ns3:TrackPointExtension>
        </extensions>
      </trkpt>
      <trkpt lat="36.81756458245217800140380859375" lon="-118.40694467537105083465576171875">
        <ele>3241</ele>
        <time>2021-06-27T20:03:41.000Z</time>
        <extensions>
          <ns3:TrackPointExtension>
            <ns3:atemp>34.0</ns3:atemp>
            <ns3:hr>101</ns3:hr>
          </ns3:TrackPointExtension>
        </extensions>
      </trkpt>
      <trkpt lat="36.81751437485218048095703125" lon="-118.40690025128424167633056640625">
        <ele>3241.199951171875</ele>
        <time>2021-06-27T20:03:46.000Z</time>
        <extensions>
          <ns3:TrackPointExtension>
            <ns3:atemp>34.0</ns3:atemp>
            <ns3:hr>103</ns3:hr>
          </ns3:TrackPointExtension>
        </extensions>
      </trkpt>
      <trkpt lat="36.8174820207059383392333984375" lon="-118.4068741835653781890869140625">
        <ele>3241.39990234375</ele>
        <time>2021-06-27T20:03:49.000Z</time>
        <extensions>
          <ns3:TrackPointExtension>
            <ns3:atemp>34.0</ns3:atemp>
            <ns3:hr>106</ns3:hr>
          </ns3:TrackPointExtension>
        </extensions>
      </trkpt>
      <trkpt lat="36.81741856969892978668212890625" lon="-118.406784832477569580078125">
        <ele>3240.800048828125</ele>
        <time>2021-06-27T20:03:59.000Z</time>
        <extensions>
          <ns3:TrackPointExtension>
            <ns3:atemp>34.0</ns3:atemp>
            <ns3:hr>107</ns3:hr>
          </ns3:TrackPointExtension>
        </extensions>
      </trkpt>
      <trkpt lat="36.81741069070994853973388671875" lon="-118.406777121126651763916015625">
        <ele>3240.800048828125</ele>
        <time>2021-06-27T20:04:00.000Z</time>
        <extensions>
          <ns3:TrackPointExtension>
            <ns3:atemp>34.0</ns3:atemp>
            <ns3:hr>106</ns3:hr>
          </ns3:TrackPointExtension>
        </extensions>
      </trkpt>
      <trkpt lat="36.81732972152531147003173828125" lon="-118.40668500401079654693603515625">
        <ele>3239.800048828125</ele>
        <time>2021-06-27T20:04:09.000Z</time>
        <extensions>
          <ns3:TrackPointExtension>
            <ns3:atemp>34.0</ns3:atemp>
            <ns3:hr>103</ns3:hr>
          </ns3:TrackPointExtension>
        </extensions>
      </trkpt>
      <trkpt lat="36.8173174001276493072509765625" lon="-118.40667829848825931549072265625">
        <ele>3239.60009765625</ele>
        <time>2021-06-27T20:04:10.000Z</time>
        <extensions>
          <ns3:TrackPointExtension>
            <ns3:atemp>34.0</ns3:atemp>
            <ns3:hr>104</ns3:hr>
          </ns3:TrackPointExtension>
        </extensions>
      </trkpt>
      <trkpt lat="36.81719913147389888763427734375" lon="-118.4066230617463588714599609375">
        <ele>3238.800048828125</ele>
        <time>2021-06-27T20:04:20.000Z</time>
        <extensions>
          <ns3:TrackPointExtension>
            <ns3:atemp>34.0</ns3:atemp>
            <ns3:hr>102</ns3:hr>
          </ns3:TrackPointExtension>
        </extensions>
      </trkpt>
      <trkpt lat="36.81709033437073230743408203125" lon="-118.406586349010467529296875">
        <ele>3238.800048828125</ele>
        <time>2021-06-27T20:04:30.000Z</time>
        <extensions>
          <ns3:TrackPointExtension>
            <ns3:atemp>34.0</ns3:atemp>
            <ns3:hr>101</ns3:hr>
          </ns3:TrackPointExtension>
        </extensions>
      </trkpt>
      <trkpt lat="36.81703090667724609375" lon="-118.4065742790699005126953125">
        <ele>3238.800048828125</ele>
        <time>2021-06-27T20:04:36.000Z</time>
        <extensions>
          <ns3:TrackPointExtension>
            <ns3:atemp>34.0</ns3:atemp>
            <ns3:hr>97</ns3:hr>
          </ns3:TrackPointExtension>
        </extensions>
      </trkpt>
      <trkpt lat="36.817021183669567108154296875" lon="-118.406570591032505035400390625">
        <ele>3238.39990234375</ele>
        <time>2021-06-27T20:04:37.000Z</time>
        <extensions>
          <ns3:TrackPointExtension>
            <ns3:atemp>34.0</ns3:atemp>
            <ns3:hr>97</ns3:hr>
          </ns3:TrackPointExtension>
        </extensions>
      </trkpt>
      <trkpt lat="36.81698740459978580474853515625" lon="-118.40655977837741374969482421875">
        <ele>3238.39990234375</ele>
        <time>2021-06-27T20:04:40.000Z</time>
        <extensions>
          <ns3:TrackPointExtension>
            <ns3:atemp>34.0</ns3:atemp>
            <ns3:hr>94</ns3:hr>
          </ns3:TrackPointExtension>
        </extensions>
      </trkpt>
      <trkpt lat="36.81696041487157344818115234375" lon="-118.4065513126552104949951171875">
        <ele>3238.39990234375</ele>
        <time>2021-06-27T20:04:42.000Z</time>
        <extensions>
          <ns3:TrackPointExtension>
            <ns3:atemp>34.0</ns3:atemp>
            <ns3:hr>93</ns3:hr>
          </ns3:TrackPointExtension>
        </extensions>
      </trkpt>
      <trkpt lat="36.8169330060482025146484375" lon="-118.40655885636806488037109375">
        <ele>3238.199951171875</ele>
        <time>2021-06-27T20:04:45.000Z</time>
        <extensions>
          <ns3:TrackPointExtension>
            <ns3:atemp>34.0</ns3:atemp>
            <ns3:hr>91</ns3:hr>
          </ns3:TrackPointExtension>
        </extensions>
      </trkpt>
      <trkpt lat="36.81691682897508144378662109375" lon="-118.4065838344395160675048828125">
        <ele>3238</ele>
        <time>2021-06-27T20:04:48.000Z</time>
        <extensions>
          <ns3:TrackPointExtension>
            <ns3:atemp>34.0</ns3:atemp>
            <ns3:hr>90</ns3:hr>
          </ns3:TrackPointExtension>
        </extensions>
      </trkpt>
      <trkpt lat="36.8168659508228302001953125" lon="-118.406594730913639068603515625">
        <ele>3237.39990234375</ele>
        <time>2021-06-27T20:04:53.000Z</time>
        <extensions>
          <ns3:TrackPointExtension>
            <ns3:atemp>34.0</ns3:atemp>
            <ns3:hr>91</ns3:hr>
          </ns3:TrackPointExtension>
        </extensions>
      </trkpt>
      <trkpt lat="36.81683334521949291229248046875" lon="-118.406620211899280548095703125">
        <ele>3236.60009765625</ele>
        <time>2021-06-27T20:04:56.000Z</time>
        <extensions>
          <ns3:TrackPointExtension>
            <ns3:atemp>34.0</ns3:atemp>
            <ns3:hr>90</ns3:hr>
          </ns3:TrackPointExtension>
        </extensions>
      </trkpt>
      <trkpt lat="36.81679780595004558563232421875" lon="-118.40664477087557315826416015625">
        <ele>3236.39990234375</ele>
        <time>2021-06-27T20:05:00.000Z</time>
        <extensions>
          <ns3:TrackPointExtension>
            <ns3:atemp>34.0</ns3:atemp>
            <ns3:hr>94</ns3:hr>
          </ns3:TrackPointExtension>
        </extensions>
      </trkpt>
      <trkpt lat="36.816776432096958160400390625" lon="-118.4066575951874256134033203125">
        <ele>3236.39990234375</ele>
        <time>2021-06-27T20:05:02.000Z</time>
        <extensions>
          <ns3:TrackPointExtension>
            <ns3:atemp>34.0</ns3:atemp>
            <ns3:hr>95</ns3:hr>
          </ns3:TrackPointExtension>
        </extensions>
      </trkpt>
      <trkpt lat="36.8167719058692455291748046875" lon="-118.40666455216705799102783203125">
        <ele>3236.39990234375</ele>
        <time>2021-06-27T20:05:03.000Z</time>
        <extensions>
          <ns3:TrackPointExtension>
            <ns3:atemp>34.0</ns3:atemp>
            <ns3:hr>96</ns3:hr>
          </ns3:TrackPointExtension>
        </extensions>
      </trkpt>
      <trkpt lat="36.81674055755138397216796875" lon="-118.4066891111433506011962890625">
        <ele>3236.800048828125</ele>
        <time>2021-06-27T20:05:07.000Z</time>
        <extensions>
          <ns3:TrackPointExtension>
            <ns3:atemp>34.0</ns3:atemp>
            <ns3:hr>97</ns3:hr>
          </ns3:TrackPointExtension>
        </extensions>
      </trkpt>
      <trkpt lat="36.81674734689295291900634765625" lon="-118.40670579113066196441650390625">
        <ele>3237</ele>
        <time>2021-06-27T20:05:09.000Z</time>
        <extensions>
          <ns3:TrackPointExtension>
            <ns3:atemp>34.0</ns3:atemp>
            <ns3:hr>97</ns3:hr>
          </ns3:TrackPointExtension>
        </extensions>
      </trkpt>
      <trkpt lat="36.81676067411899566650390625" lon="-118.40672221966087818145751953125">
        <ele>3237.39990234375</ele>
        <time>2021-06-27T20:05:12.000Z</time>
        <extensions>
          <ns3:TrackPointExtension>
            <ns3:atemp>34.0</ns3:atemp>
            <ns3:hr>98</ns3:hr>
          </ns3:TrackPointExtension>
        </extensions>
      </trkpt>
      <trkpt lat="36.81675128638744354248046875" lon="-118.406764380633831024169921875">
        <ele>3238.199951171875</ele>
        <time>2021-06-27T20:05:16.000Z</time>
        <extensions>
          <ns3:TrackPointExtension>
            <ns3:atemp>34.0</ns3:atemp>
            <ns3:hr>101</ns3:hr>
          </ns3:TrackPointExtension>
        </extensions>
      </trkpt>
      <trkpt lat="36.81673930026590824127197265625" lon="-118.40678089298307895660400390625">
        <ele>3238.199951171875</ele>
        <time>2021-06-27T20:05:18.000Z</time>
        <extensions>
          <ns3:TrackPointExtension>
            <ns3:atemp>34.0</ns3:atemp>
            <ns3:hr>105</ns3:hr>
          </ns3:TrackPointExtension>
        </extensions>
      </trkpt>
      <trkpt lat="36.816722452640533447265625" lon="-118.40680017136037349700927734375">
        <ele>3238.39990234375</ele>
        <time>2021-06-27T20:05:20.000Z</time>
        <extensions>
          <ns3:TrackPointExtension>
            <ns3:atemp>34.0</ns3:atemp>
            <ns3:hr>109</ns3:hr>
          </ns3:TrackPointExtension>
        </extensions>
      </trkpt>
      <trkpt lat="36.81638826616108417510986328125" lon="-118.4066636301577091217041015625">
        <ele>3230</ele>
        <time>2021-06-27T21:14:29.000Z</time>
        <extensions>
          <ns3:TrackPointExtension>
            <ns3:atemp>32.0</ns3:atemp>
            <ns3:hr>89</ns3:hr>
          </ns3:TrackPointExtension>
        </extensions>
      </trkpt>
      <trkpt lat="36.816388182342052459716796875" lon="-118.406662456691265106201171875">
        <ele>3230</ele>
        <time>2021-06-27T21:14:31.000Z</time>
        <extensions>
          <ns3:TrackPointExtension>
            <ns3:atemp>32.0</ns3:atemp>
            <ns3:hr>86</ns3:hr>
          </ns3:TrackPointExtension>
        </extensions>
      </trkpt>
      <trkpt lat="36.816388182342052459716796875" lon="-118.40666212141513824462890625">
        <ele>3230</ele>
        <time>2021-06-27T21:14:32.000Z</time>
        <extensions>
          <ns3:TrackPointExtension>
            <ns3:atemp>32.0</ns3:atemp>
            <ns3:hr>85</ns3:hr>
          </ns3:TrackPointExtension>
        </extensions>
      </trkpt>
      <trkpt lat="36.8163880147039890289306640625" lon="-118.4066602773964405059814453125">
        <ele>3230.199951171875</ele>
        <time>2021-06-27T21:14:37.000Z</time>
        <extensions>
          <ns3:TrackPointExtension>
            <ns3:atemp>32.0</ns3:atemp>
            <ns3:hr>82</ns3:hr>
          </ns3:TrackPointExtension>
        </extensions>
      </trkpt>
      <trkpt lat="36.81640603579580783843994140625" lon="-118.4066361375153064727783203125">
        <ele>3230.39990234375</ele>
        <time>2021-06-27T21:14:46.000Z</time>
        <extensions>
          <ns3:TrackPointExtension>
            <ns3:atemp>32.0</ns3:atemp>
            <ns3:hr>87</ns3:hr>
          </ns3:TrackPointExtension>
        </extensions>
      </trkpt>
      <trkpt lat="36.8164195306599140167236328125" lon="-118.40662850998342037200927734375">
        <ele>3230.60009765625</ele>
        <time>2021-06-27T21:14:47.000Z</time>
        <extensions>
          <ns3:TrackPointExtension>
            <ns3:atemp>32.0</ns3:atemp>
            <ns3:hr>84</ns3:hr>
          </ns3:TrackPointExtension>
        </extensions>
      </trkpt>
      <trkpt lat="36.81644777767360210418701171875" lon="-118.40661208145320415496826171875">
        <ele>3230.60009765625</ele>
        <time>2021-06-27T21:14:49.000Z</time>
        <extensions>
          <ns3:TrackPointExtension>
            <ns3:atemp>32.0</ns3:atemp>
            <ns3:hr>84</ns3:hr>
          </ns3:TrackPointExtension>
        </extensions>
      </trkpt>
      <trkpt lat="36.8165288306772708892822265625" lon="-118.40657888911664485931396484375">
        <ele>3231</ele>
        <time>2021-06-27T21:14:56.000Z</time>
        <extensions>
          <ns3:TrackPointExtension>
            <ns3:atemp>32.0</ns3:atemp>
            <ns3:hr>81</ns3:hr>
          </ns3:TrackPointExtension>
        </extensions>
      </trkpt>
      <trkpt lat="36.8165455944836139678955078125" lon="-118.4065714292228221893310546875">
        <ele>3231</ele>
        <time>2021-06-27T21:14:58.000Z</time>
        <extensions>
          <ns3:TrackPointExtension>
            <ns3:atemp>32.0</ns3:atemp>
            <ns3:hr>81</ns3:hr>
          </ns3:TrackPointExtension>
        </extensions>
      </trkpt>
      <trkpt lat="36.81656177155673503875732421875" lon="-118.40657033957540988922119140625">
        <ele>3231.39990234375</ele>
        <time>2021-06-27T21:14:59.000Z</time>
        <extensions>
          <ns3:TrackPointExtension>
            <ns3:atemp>32.0</ns3:atemp>
            <ns3:hr>82</ns3:hr>
          </ns3:TrackPointExtension>
        </extensions>
      </trkpt>
      <trkpt lat="36.81660368107259273529052734375" lon="-118.40662649832665920257568359375">
        <ele>3231.60009765625</ele>
        <time>2021-06-27T21:15:06.000Z</time>
        <extensions>
          <ns3:TrackPointExtension>
            <ns3:atemp>32.0</ns3:atemp>
            <ns3:hr>84</ns3:hr>
          </ns3:TrackPointExtension>
        </extensions>
      </trkpt>
      <trkpt lat="36.81664374656975269317626953125" lon="-118.40662599541246891021728515625">
        <ele>3231.39990234375</ele>
        <time>2021-06-27T21:15:12.000Z</time>
        <extensions>
          <ns3:TrackPointExtension>
            <ns3:atemp>32.0</ns3:atemp>
            <ns3:hr>84</ns3:hr>
          </ns3:TrackPointExtension>
        </extensions>
      </trkpt>
      <trkpt lat="36.81673041544854640960693359375" lon="-118.40656061656773090362548828125">
        <ele>3231.199951171875</ele>
        <time>2021-06-27T21:15:22.000Z</time>
        <extensions>
          <ns3:TrackPointExtension>
            <ns3:atemp>33.0</ns3:atemp>
            <ns3:hr>85</ns3:hr>
          </ns3:TrackPointExtension>
        </extensions>
      </trkpt>
      <trkpt lat="36.8168235383927822113037109375" lon="-118.40654083527624607086181640625">
        <ele>3231.199951171875</ele>
        <time>2021-06-27T21:15:31.000Z</time>
        <extensions>
          <ns3:TrackPointExtension>
            <ns3:atemp>33.0</ns3:atemp>
            <ns3:hr>82</ns3:hr>
          </ns3:TrackPointExtension>
        </extensions>
      </trkpt>
      <trkpt lat="36.8168537132441997528076171875" lon="-118.406510911881923675537109375">
        <ele>3231.60009765625</ele>
        <time>2021-06-27T21:15:35.000Z</time>
        <extensions>
          <ns3:TrackPointExtension>
            <ns3:atemp>33.0</ns3:atemp>
            <ns3:hr>80</ns3:hr>
          </ns3:TrackPointExtension>
        </extensions>
      </trkpt>
      <trkpt lat="36.8168657831847667694091796875" lon="-118.406520299613475799560546875">
        <ele>3231.39990234375</ele>
        <time>2021-06-27T21:15:37.000Z</time>
        <extensions>
          <ns3:TrackPointExtension>
            <ns3:atemp>33.0</ns3:atemp>
            <ns3:hr>81</ns3:hr>
          </ns3:TrackPointExtension>
        </extensions>
      </trkpt>
      <trkpt lat="36.8168798647820949554443359375" lon="-118.40654787607491016387939453125">
        <ele>3231.60009765625</ele>
        <time>2021-06-27T21:15:40.000Z</time>
        <extensions>
          <ns3:TrackPointExtension>
            <ns3:atemp>33.0</ns3:atemp>
            <ns3:hr>84</ns3:hr>
          </ns3:TrackPointExtension>
        </extensions>
      </trkpt>
      <trkpt lat="36.81690744124352931976318359375" lon="-118.40657168067991733551025390625">
        <ele>3231.60009765625</ele>
        <time>2021-06-27T21:15:43.000Z</time>
        <extensions>
          <ns3:TrackPointExtension>
            <ns3:atemp>33.0</ns3:atemp>
            <ns3:hr>87</ns3:hr>
          </ns3:TrackPointExtension>
        </extensions>
      </trkpt>
      <trkpt lat="36.816917918622493743896484375" lon="-118.40657738037407398223876953125">
        <ele>3231.800048828125</ele>
        <time>2021-06-27T21:15:44.000Z</time>
        <extensions>
          <ns3:TrackPointExtension>
            <ns3:atemp>33.0</ns3:atemp>
            <ns3:hr>89</ns3:hr>
          </ns3:TrackPointExtension>
        </extensions>
      </trkpt>
      <trkpt lat="36.8169395439326763153076171875" lon="-118.40658341534435749053955078125">
        <ele>3232</ele>
        <time>2021-06-27T21:15:46.000Z</time>
        <extensions>
          <ns3:TrackPointExtension>
            <ns3:atemp>33.0</ns3:atemp>
            <ns3:hr>92</ns3:hr>
          </ns3:TrackPointExtension>
        </extensions>
      </trkpt>
      <trkpt lat="36.81695915758609771728515625" lon="-118.406590037047863006591796875">
        <ele>3232.199951171875</ele>
        <time>2021-06-27T21:15:48.000Z</time>
        <extensions>
          <ns3:TrackPointExtension>
            <ns3:atemp>33.0</ns3:atemp>
            <ns3:hr>95</ns3:hr>
          </ns3:TrackPointExtension>
        </extensions>
      </trkpt>
      <trkpt lat="36.817017160356044769287109375" lon="-118.40663488022983074188232421875">
        <ele>3232.39990234375</ele>
        <time>2021-06-27T21:15:54.000Z</time>
        <extensions>
          <ns3:TrackPointExtension>
            <ns3:atemp>33.0</ns3:atemp>
            <ns3:hr>97</ns3:hr>
          </ns3:TrackPointExtension>
        </extensions>
      </trkpt>
      <trkpt lat="36.81704104878008365631103515625" lon="-118.4066415019333362579345703125">
        <ele>3232.199951171875</ele>
        <time>2021-06-27T21:15:56.000Z</time>
        <extensions>
          <ns3:TrackPointExtension>
            <ns3:atemp>33.0</ns3:atemp>
            <ns3:hr>102</ns3:hr>
          </ns3:TrackPointExtension>
        </extensions>
      </trkpt>
      <trkpt lat="36.81705228053033351898193359375" lon="-118.40664468705654144287109375">
        <ele>3232.199951171875</ele>
        <time>2021-06-27T21:15:57.000Z</time>
        <extensions>
          <ns3:TrackPointExtension>
            <ns3:atemp>33.0</ns3:atemp>
            <ns3:hr>98</ns3:hr>
          </ns3:TrackPointExtension>
        </extensions>
      </trkpt>
      <trkpt lat="36.8171068467199802398681640625" lon="-118.40665407478809356689453125">
        <ele>3232.60009765625</ele>
        <time>2021-06-27T21:16:02.000Z</time>
        <extensions>
          <ns3:TrackPointExtension>
            <ns3:atemp>33.0</ns3:atemp>
            <ns3:hr>95</ns3:hr>
          </ns3:TrackPointExtension>
        </extensions>
      </trkpt>
      <trkpt lat="36.817113719880580902099609375" lon="-118.40665700845420360565185546875">
        <ele>3232.60009765625</ele>
        <time>2021-06-27T21:16:03.000Z</time>
        <extensions>
          <ns3:TrackPointExtension>
            <ns3:atemp>33.0</ns3:atemp>
            <ns3:hr>94</ns3:hr>
          </ns3:TrackPointExtension>
        </extensions>
      </trkpt>
      <trkpt lat="36.81723542511463165283203125" lon="-118.40669204480946063995361328125">
        <ele>3232.60009765625</ele>
        <time>2021-06-27T21:16:14.000Z</time>
        <extensions>
          <ns3:TrackPointExtension>
            <ns3:atemp>33.0</ns3:atemp>
            <ns3:hr>92</ns3:hr>
          </ns3:TrackPointExtension>
        </extensions>
      </trkpt>
      <trkpt lat="36.8173029832541942596435546875" lon="-118.40671635232865810394287109375">
        <ele>3232.800048828125</ele>
        <time>2021-06-27T21:16:20.000Z</time>
        <extensions>
          <ns3:TrackPointExtension>
            <ns3:atemp>33.0</ns3:atemp>
            <ns3:hr>93</ns3:hr>
          </ns3:TrackPointExtension>
        </extensions>
      </trkpt>
      <trkpt lat="36.817323602735996246337890625" lon="-118.4067239798605442047119140625">
        <ele>3232.800048828125</ele>
        <time>2021-06-27T21:16:22.000Z</time>
        <extensions>
          <ns3:TrackPointExtension>
            <ns3:atemp>33.0</ns3:atemp>
            <ns3:hr>96</ns3:hr>
          </ns3:TrackPointExtension>
        </extensions>
      </trkpt>
      <trkpt lat="36.81733424775302410125732421875" lon="-118.40673110447824001312255859375">
        <ele>3232.800048828125</ele>
        <time>2021-06-27T21:16:23.000Z</time>
        <extensions>
          <ns3:TrackPointExtension>
            <ns3:atemp>33.0</ns3:atemp>
            <ns3:hr>93</ns3:hr>
          </ns3:TrackPointExtension>
        </extensions>
      </trkpt>
      <trkpt lat="36.81737079285085201263427734375" lon="-118.40675440616905689239501953125">
        <ele>3233</ele>
        <time>2021-06-27T21:16:27.000Z</time>
        <extensions>
          <ns3:TrackPointExtension>
            <ns3:atemp>33.0</ns3:atemp>
            <ns3:hr>96</ns3:hr>
          </ns3:TrackPointExtension>
        </extensions>
      </trkpt>
      <trkpt lat="36.81738051585853099822998046875" lon="-118.40675692074000835418701171875">
        <ele>3233</ele>
        <time>2021-06-27T21:16:28.000Z</time>
        <extensions>
          <ns3:TrackPointExtension>
            <ns3:atemp>33.0</ns3:atemp>
            <ns3:hr>97</ns3:hr>
          </ns3:TrackPointExtension>
        </extensions>
      </trkpt>
      <trkpt lat="36.8173955194652080535888671875" lon="-118.4067417494952678680419921875">
        <ele>3233.199951171875</ele>
        <time>2021-06-27T21:16:32.000Z</time>
        <extensions>
          <ns3:TrackPointExtension>
            <ns3:atemp>33.0</ns3:atemp>
            <ns3:hr>98</ns3:hr>
          </ns3:TrackPointExtension>
        </extensions>
      </trkpt>
      <trkpt lat="36.81741588748991489410400390625" lon="-118.40678810141980648040771484375">
        <ele>3233.199951171875</ele>
        <time>2021-06-27T21:16:40.000Z</time>
        <extensions>
          <ns3:TrackPointExtension>
            <ns3:atemp>33.0</ns3:atemp>
            <ns3:hr>99</ns3:hr>
          </ns3:TrackPointExtension>
        </extensions>
      </trkpt>
      <trkpt lat="36.81747204624116420745849609375" lon="-118.4068666398525238037109375">
        <ele>3234.199951171875</ele>
        <time>2021-06-27T21:16:48.000Z</time>
        <extensions>
          <ns3:TrackPointExtension>
            <ns3:atemp>33.0</ns3:atemp>
            <ns3:hr>99</ns3:hr>
          </ns3:TrackPointExtension>
        </extensions>
      </trkpt>
      <trkpt lat="36.81748612783849239349365234375" lon="-118.40690611861646175384521484375">
        <ele>3234.199951171875</ele>
        <time>2021-06-27T21:16:51.000Z</time>
        <extensions>
          <ns3:TrackPointExtension>
            <ns3:atemp>33.0</ns3:atemp>
            <ns3:hr>97</ns3:hr>
          </ns3:TrackPointExtension>
        </extensions>
      </trkpt>
      <trkpt lat="36.8175096809864044189453125" lon="-118.40694484300911426544189453125">
        <ele>3234.199951171875</ele>
        <time>2021-06-27T21:16:54.000Z</time>
        <extensions>
          <ns3:TrackPointExtension>
            <ns3:atemp>33.0</ns3:atemp>
            <ns3:hr>100</ns3:hr>
          </ns3:TrackPointExtension>
        </extensions>
      </trkpt>
      <trkpt lat="36.81752242147922515869140625" lon="-118.40695506893098354339599609375">
        <ele>3234</ele>
        <time>2021-06-27T21:16:55.000Z</time>
        <extensions>
          <ns3:TrackPointExtension>
            <ns3:atemp>33.0</ns3:atemp>
            <ns3:hr>97</ns3:hr>
          </ns3:TrackPointExtension>
        </extensions>
      </trkpt>
      <trkpt lat="36.81758117862045764923095703125" lon="-118.407000415027141571044921875">
        <ele>3233.800048828125</ele>
        <time>2021-06-27T21:17:01.000Z</time>
        <extensions>
          <ns3:TrackPointExtension>
            <ns3:atemp>33.0</ns3:atemp>
            <ns3:hr>99</ns3:hr>
          </ns3:TrackPointExtension>
        </extensions>
      </trkpt>
      <trkpt lat="36.817665584385395050048828125" lon="-118.40707006864249706268310546875">
        <ele>3233.60009765625</ele>
        <time>2021-06-27T21:17:10.000Z</time>
        <extensions>
          <ns3:TrackPointExtension>
            <ns3:atemp>33.0</ns3:atemp>
            <ns3:hr>99</ns3:hr>
          </ns3:TrackPointExtension>
        </extensions>
      </trkpt>
      <trkpt lat="36.81771277450025081634521484375" lon="-118.4070921130478382110595703125">
        <ele>3233.800048828125</ele>
        <time>2021-06-27T21:17:14.000Z</time>
        <extensions>
          <ns3:TrackPointExtension>
            <ns3:atemp>33.0</ns3:atemp>
            <ns3:hr>102</ns3:hr>
          </ns3:TrackPointExtension>
        </extensions>
      </trkpt>
      <trkpt lat="36.81775954551994800567626953125" lon="-118.4071172587573528289794921875">
        <ele>3234.800048828125</ele>
        <time>2021-06-27T21:17:19.000Z</time>
        <extensions>
          <ns3:TrackPointExtension>
            <ns3:atemp>33.0</ns3:atemp>
            <ns3:hr>99</ns3:hr>
          </ns3:TrackPointExtension>
        </extensions>
      </trkpt>
      <trkpt lat="36.81783548556268215179443359375" lon="-118.40711231343448162078857421875">
        <ele>3235.199951171875</ele>
        <time>2021-06-27T21:17:26.000Z</time>
        <extensions>
          <ns3:TrackPointExtension>
            <ns3:atemp>33.0</ns3:atemp>
            <ns3:hr>97</ns3:hr>
          </ns3:TrackPointExtension>
        </extensions>
      </trkpt>
      <trkpt lat="36.8178556859493255615234375" lon="-118.4071196056902408599853515625">
        <ele>3235.199951171875</ele>
        <time>2021-06-27T21:17:28.000Z</time>
        <extensions>
          <ns3:TrackPointExtension>
            <ns3:atemp>33.0</ns3:atemp>
            <ns3:hr>96</ns3:hr>
          </ns3:TrackPointExtension>
        </extensions>
      </trkpt>
      <trkpt lat="36.81786431930959224700927734375" lon="-118.40711943805217742919921875">
        <ele>3235.39990234375</ele>
        <time>2021-06-27T21:17:29.000Z</time>
        <extensions>
          <ns3:TrackPointExtension>
            <ns3:atemp>33.0</ns3:atemp>
            <ns3:hr>96</ns3:hr>
          </ns3:TrackPointExtension>
        </extensions>
      </trkpt>
      <trkpt lat="36.81793170981109142303466796875" lon="-118.40709798038005828857421875">
        <ele>3235.60009765625</ele>
        <time>2021-06-27T21:17:36.000Z</time>
        <extensions>
          <ns3:TrackPointExtension>
            <ns3:atemp>33.0</ns3:atemp>
            <ns3:hr>92</ns3:hr>
          </ns3:TrackPointExtension>
        </extensions>
      </trkpt>
      <trkpt lat="36.81794218719005584716796875" lon="-118.407101668417453765869140625">
        <ele>3235.800048828125</ele>
        <time>2021-06-27T21:17:37.000Z</time>
        <extensions>
          <ns3:TrackPointExtension>
            <ns3:atemp>33.0</ns3:atemp>
            <ns3:hr>92</ns3:hr>
          </ns3:TrackPointExtension>
        </extensions>
      </trkpt>
      <trkpt lat="36.81796054355800151824951171875" lon="-118.4071189351379871368408203125">
        <ele>3235.800048828125</ele>
        <time>2021-06-27T21:17:39.000Z</time>
        <extensions>
          <ns3:TrackPointExtension>
            <ns3:atemp>33.0</ns3:atemp>
            <ns3:hr>95</ns3:hr>
          </ns3:TrackPointExtension>
        </extensions>
      </trkpt>
      <trkpt lat="36.8179986812174320220947265625" lon="-118.40718238614499568939208984375">
        <ele>3236.199951171875</ele>
        <time>2021-06-27T21:17:45.000Z</time>
        <extensions>
          <ns3:TrackPointExtension>
            <ns3:atemp>33.0</ns3:atemp>
            <ns3:hr>91</ns3:hr>
          </ns3:TrackPointExtension>
        </extensions>
      </trkpt>
      <trkpt lat="36.818004213273525238037109375" lon="-118.4071911871433258056640625">
        <ele>3236.199951171875</ele>
        <time>2021-06-27T21:17:46.000Z</time>
        <extensions>
          <ns3:TrackPointExtension>
            <ns3:atemp>33.0</ns3:atemp>
            <ns3:hr>94</ns3:hr>
          </ns3:TrackPointExtension>
        </extensions>
      </trkpt>
      <trkpt lat="36.8180194683372974395751953125" lon="-118.4072144888341426849365234375">
        <ele>3236</ele>
        <time>2021-06-27T21:17:48.000Z</time>
        <extensions>
          <ns3:TrackPointExtension>
            <ns3:atemp>33.0</ns3:atemp>
            <ns3:hr>97</ns3:hr>
          </ns3:TrackPointExtension>
        </extensions>
      </trkpt>
      <trkpt lat="36.8180540017783641815185546875" lon="-118.407249860465526580810546875">
        <ele>3235.800048828125</ele>
        <time>2021-06-27T21:17:52.000Z</time>
        <extensions>
          <ns3:TrackPointExtension>
            <ns3:atemp>33.0</ns3:atemp>
            <ns3:hr>100</ns3:hr>
          </ns3:TrackPointExtension>
        </extensions>
      </trkpt>
      <trkpt lat="36.81809817440807819366455078125" lon="-118.4072731621563434600830078125">
        <ele>3235.800048828125</ele>
        <time>2021-06-27T21:17:56.000Z</time>
        <extensions>
          <ns3:TrackPointExtension>
            <ns3:atemp>33.0</ns3:atemp>
            <ns3:hr>99</ns3:hr>
          </ns3:TrackPointExtension>
        </extensions>
      </trkpt>
      <trkpt lat="36.8181311152875423431396484375" lon="-118.407281376421451568603515625">
        <ele>3236.39990234375</ele>
        <time>2021-06-27T21:17:59.000Z</time>
        <extensions>
          <ns3:TrackPointExtension>
            <ns3:atemp>33.0</ns3:atemp>
            <ns3:hr>100</ns3:hr>
          </ns3:TrackPointExtension>
        </extensions>
      </trkpt>
      <trkpt lat="36.818216107785701751708984375" lon="-118.407312892377376556396484375">
        <ele>3236.60009765625</ele>
        <time>2021-06-27T21:18:06.000Z</time>
        <extensions>
          <ns3:TrackPointExtension>
            <ns3:atemp>33.0</ns3:atemp>
            <ns3:hr>103</ns3:hr>
          </ns3:TrackPointExtension>
        </extensions>
      </trkpt>
      <trkpt lat="36.818235553801059722900390625" lon="-118.40732336975634098052978515625">
        <ele>3236.60009765625</ele>
        <time>2021-06-27T21:18:08.000Z</time>
        <extensions>
          <ns3:TrackPointExtension>
            <ns3:atemp>33.0</ns3:atemp>
            <ns3:hr>106</ns3:hr>
          </ns3:TrackPointExtension>
        </extensions>
      </trkpt>
      <trkpt lat="36.81825994513928890228271484375" lon="-118.407337367534637451171875">
        <ele>3236.60009765625</ele>
        <time>2021-06-27T21:18:10.000Z</time>
        <extensions>
          <ns3:TrackPointExtension>
            <ns3:atemp>33.0</ns3:atemp>
            <ns3:hr>109</ns3:hr>
          </ns3:TrackPointExtension>
        </extensions>
      </trkpt>
      <trkpt lat="36.81829154491424560546875" lon="-118.40734415687620639801025390625">
        <ele>3236.60009765625</ele>
        <time>2021-06-27T21:18:13.000Z</time>
        <extensions>
          <ns3:TrackPointExtension>
            <ns3:atemp>33.0</ns3:atemp>
            <ns3:hr>112</ns3:hr>
          </ns3:TrackPointExtension>
        </extensions>
      </trkpt>
      <trkpt lat="36.818347871303558349609375" lon="-118.4073574841022491455078125">
        <ele>3236.199951171875</ele>
        <time>2021-06-27T21:18:18.000Z</time>
        <extensions>
          <ns3:TrackPointExtension>
            <ns3:atemp>33.0</ns3:atemp>
            <ns3:hr>114</ns3:hr>
          </ns3:TrackPointExtension>
        </extensions>
      </trkpt>
      <trkpt lat="36.8184291757643222808837890625" lon="-118.40735823847353458404541015625">
        <ele>3236</ele>
        <time>2021-06-27T21:18:25.000Z</time>
        <extensions>
          <ns3:TrackPointExtension>
            <ns3:atemp>33.0</ns3:atemp>
            <ns3:hr>118</ns3:hr>
          </ns3:TrackPointExtension>
        </extensions>
      </trkpt>
      <trkpt lat="36.81844099424779415130615234375" lon="-118.40735522098839282989501953125">
        <ele>3236</ele>
        <time>2021-06-27T21:18:26.000Z</time>
        <extensions>
          <ns3:TrackPointExtension>
            <ns3:atemp>33.0</ns3:atemp>
            <ns3:hr>115</ns3:hr>
          </ns3:TrackPointExtension>
        </extensions>
      </trkpt>
      <trkpt lat="36.818464882671833038330078125" lon="-118.40734801255166530609130859375">
        <ele>3236</ele>
        <time>2021-06-27T21:18:28.000Z</time>
        <extensions>
          <ns3:TrackPointExtension>
            <ns3:atemp>33.0</ns3:atemp>
            <ns3:hr>113</ns3:hr>
          </ns3:TrackPointExtension>
        </extensions>
      </trkpt>
      <trkpt lat="36.8185807205736637115478515625" lon="-118.40730995871126651763916015625">
        <ele>3236.39990234375</ele>
        <time>2021-06-27T21:18:38.000Z</time>
        <extensions>
          <ns3:TrackPointExtension>
            <ns3:atemp>33.0</ns3:atemp>
            <ns3:hr>109</ns3:hr>
          </ns3:TrackPointExtension>
        </extensions>
      </trkpt>
      <trkpt lat="36.8186323530972003936767578125" lon="-118.40730342082679271697998046875">
        <ele>3236.199951171875</ele>
        <time>2021-06-27T21:18:42.000Z</time>
        <extensions>
          <ns3:TrackPointExtension>
            <ns3:atemp>33.0</ns3:atemp>
            <ns3:hr>109</ns3:hr>
          </ns3:TrackPointExtension>
        </extensions>
      </trkpt>
      <trkpt lat="36.8186816386878490447998046875" lon="-118.4072971343994140625">
        <ele>3236.39990234375</ele>
        <time>2021-06-27T21:18:46.000Z</time>
        <extensions>
          <ns3:TrackPointExtension>
            <ns3:atemp>33.0</ns3:atemp>
            <ns3:hr>106</ns3:hr>
          </ns3:TrackPointExtension>
        </extensions>
      </trkpt>
      <trkpt lat="36.81871374137699604034423828125" lon="-118.4072993136942386627197265625">
        <ele>3236.39990234375</ele>
        <time>2021-06-27T21:18:49.000Z</time>
        <extensions>
          <ns3:TrackPointExtension>
            <ns3:atemp>33.0</ns3:atemp>
            <ns3:hr>103</ns3:hr>
          </ns3:TrackPointExtension>
        </extensions>
      </trkpt>
      <trkpt lat="36.8187461793422698974609375" lon="-118.4073093719780445098876953125">
        <ele>3235.60009765625</ele>
        <time>2021-06-27T21:18:52.000Z</time>
        <extensions>
          <ns3:TrackPointExtension>
            <ns3:atemp>33.0</ns3:atemp>
            <ns3:hr>99</ns3:hr>
          </ns3:TrackPointExtension>
        </extensions>
      </trkpt>
      <trkpt lat="36.81875498034060001373291015625" lon="-118.40731347911059856414794921875">
        <ele>3235.199951171875</ele>
        <time>2021-06-27T21:18:53.000Z</time>
        <extensions>
          <ns3:TrackPointExtension>
            <ns3:atemp>33.0</ns3:atemp>
            <ns3:hr>99</ns3:hr>
          </ns3:TrackPointExtension>
        </extensions>
      </trkpt>
      <trkpt lat="36.81882186792790889739990234375" lon="-118.40734298340976238250732421875">
        <ele>3234.199951171875</ele>
        <time>2021-06-27T21:18:59.000Z</time>
        <extensions>
          <ns3:TrackPointExtension>
            <ns3:atemp>33.0</ns3:atemp>
            <ns3:hr>98</ns3:hr>
          </ns3:TrackPointExtension>
        </extensions>
      </trkpt>
      <trkpt lat="36.81883293204009532928466796875" lon="-118.4073440730571746826171875">
        <ele>3234</ele>
        <time>2021-06-27T21:19:00.000Z</time>
        <extensions>
          <ns3:TrackPointExtension>
            <ns3:atemp>33.0</ns3:atemp>
            <ns3:hr>98</ns3:hr>
          </ns3:TrackPointExtension>
        </extensions>
      </trkpt>
      <trkpt lat="36.81891825981438159942626953125" lon="-118.407308869063854217529296875">
        <ele>3234.39990234375</ele>
        <time>2021-06-27T21:19:08.000Z</time>
        <extensions>
          <ns3:TrackPointExtension>
            <ns3:atemp>33.0</ns3:atemp>
            <ns3:hr>98</ns3:hr>
          </ns3:TrackPointExtension>
        </extensions>
      </trkpt>
      <trkpt lat="36.81894156150519847869873046875" lon="-118.40728967450559139251708984375">
        <ele>3234.39990234375</ele>
        <time>2021-06-27T21:19:10.000Z</time>
        <extensions>
          <ns3:TrackPointExtension>
            <ns3:atemp>33.0</ns3:atemp>
            <ns3:hr>101</ns3:hr>
          </ns3:TrackPointExtension>
        </extensions>
      </trkpt>
      <trkpt lat="36.81899302639067173004150390625" lon="-118.4072540514171123504638671875">
        <ele>3234.199951171875</ele>
        <time>2021-06-27T21:19:15.000Z</time>
        <extensions>
          <ns3:TrackPointExtension>
            <ns3:atemp>33.0</ns3:atemp>
            <ns3:hr>104</ns3:hr>
          </ns3:TrackPointExtension>
        </extensions>
      </trkpt>
      <trkpt lat="36.819024123251438140869140625" lon="-118.4072475135326385498046875">
        <ele>3234.39990234375</ele>
        <time>2021-06-27T21:19:18.000Z</time>
        <extensions>
          <ns3:TrackPointExtension>
            <ns3:atemp>33.0</ns3:atemp>
            <ns3:hr>105</ns3:hr>
          </ns3:TrackPointExtension>
        </extensions>
      </trkpt>
      <trkpt lat="36.81910685263574123382568359375" lon="-118.407246172428131103515625">
        <ele>3234.60009765625</ele>
        <time>2021-06-27T21:19:25.000Z</time>
        <extensions>
          <ns3:TrackPointExtension>
            <ns3:atemp>33.0</ns3:atemp>
            <ns3:hr>102</ns3:hr>
          </ns3:TrackPointExtension>
        </extensions>
      </trkpt>
      <trkpt lat="36.819136440753936767578125" lon="-118.40725581161677837371826171875">
        <ele>3234</ele>
        <time>2021-06-27T21:19:28.000Z</time>
        <extensions>
          <ns3:TrackPointExtension>
            <ns3:atemp>33.0</ns3:atemp>
            <ns3:hr>99</ns3:hr>
          </ns3:TrackPointExtension>
        </extensions>
      </trkpt>
      <trkpt lat="36.819156222045421600341796875" lon="-118.4072688035666942596435546875">
        <ele>3234</ele>
        <time>2021-06-27T21:19:30.000Z</time>
        <extensions>
          <ns3:TrackPointExtension>
            <ns3:atemp>33.0</ns3:atemp>
            <ns3:hr>96</ns3:hr>
          </ns3:TrackPointExtension>
        </extensions>
      </trkpt>
      <trkpt lat="36.81918270885944366455078125" lon="-118.40729839168488979339599609375">
        <ele>3233.800048828125</ele>
        <time>2021-06-27T21:19:34.000Z</time>
        <extensions>
          <ns3:TrackPointExtension>
            <ns3:atemp>33.0</ns3:atemp>
            <ns3:hr>95</ns3:hr>
          </ns3:TrackPointExtension>
        </extensions>
      </trkpt>
      <trkpt lat="36.8191941082477569580078125" lon="-118.40730249881744384765625">
        <ele>3233.60009765625</ele>
        <time>2021-06-27T21:19:35.000Z</time>
        <extensions>
          <ns3:TrackPointExtension>
            <ns3:atemp>33.0</ns3:atemp>
            <ns3:hr>96</ns3:hr>
          </ns3:TrackPointExtension>
        </extensions>
      </trkpt>
      <trkpt lat="36.81924666278064250946044921875" lon="-118.40732672251760959625244140625">
        <ele>3233.60009765625</ele>
        <time>2021-06-27T21:19:40.000Z</time>
        <extensions>
          <ns3:TrackPointExtension>
            <ns3:atemp>33.0</ns3:atemp>
            <ns3:hr>92</ns3:hr>
          </ns3:TrackPointExtension>
        </extensions>
      </trkpt>
      <trkpt lat="36.819255463778972625732421875" lon="-118.40732890181243419647216796875">
        <ele>3233.60009765625</ele>
        <time>2021-06-27T21:19:41.000Z</time>
        <extensions>
          <ns3:TrackPointExtension>
            <ns3:atemp>33.0</ns3:atemp>
            <ns3:hr>95</ns3:hr>
          </ns3:TrackPointExtension>
        </extensions>
      </trkpt>
      <trkpt lat="36.81926493532955646514892578125" lon="-118.40732705779373645782470703125">
        <ele>3233.60009765625</ele>
        <time>2021-06-27T21:19:43.000Z</time>
        <extensions>
          <ns3:TrackPointExtension>
            <ns3:atemp>33.0</ns3:atemp>
            <ns3:hr>95</ns3:hr>
          </ns3:TrackPointExtension>
        </extensions>
      </trkpt>
      <trkpt lat="36.81926451623439788818359375" lon="-118.407324962317943572998046875">
        <ele>3233.60009765625</ele>
        <time>2021-06-27T21:19:45.000Z</time>
        <extensions>
          <ns3:TrackPointExtension>
            <ns3:atemp>33.0</ns3:atemp>
            <ns3:hr>93</ns3:hr>
          </ns3:TrackPointExtension>
        </extensions>
      </trkpt>
      <trkpt lat="36.819269545376300811767578125" lon="-118.40732689015567302703857421875">
        <ele>3233.800048828125</ele>
        <time>2021-06-27T21:19:48.000Z</time>
        <extensions>
          <ns3:TrackPointExtension>
            <ns3:atemp>33.0</ns3:atemp>
            <ns3:hr>94</ns3:hr>
          </ns3:TrackPointExtension>
        </extensions>
      </trkpt>
      <trkpt lat="36.81926862336695194244384765625" lon="-118.40731968171894550323486328125">
        <ele>3233.800048828125</ele>
        <time>2021-06-27T21:19:50.000Z</time>
        <extensions>
          <ns3:TrackPointExtension>
            <ns3:atemp>32.0</ns3:atemp>
            <ns3:hr>91</ns3:hr>
          </ns3:TrackPointExtension>
        </extensions>
      </trkpt>
      <trkpt lat="36.8192747421562671661376953125" lon="-118.4073180891573429107666015625">
        <ele>3233.60009765625</ele>
        <time>2021-06-27T21:20:10.000Z</time>
        <extensions>
          <ns3:TrackPointExtension>
            <ns3:atemp>32.0</ns3:atemp>
            <ns3:hr>94</ns3:hr>
          </ns3:TrackPointExtension>
        </extensions>
      </trkpt>
      <trkpt lat="36.81927658617496490478515625" lon="-118.407306857407093048095703125">
        <ele>3233.60009765625</ele>
        <time>2021-06-27T21:20:13.000Z</time>
        <extensions>
          <ns3:TrackPointExtension>
            <ns3:atemp>32.0</ns3:atemp>
            <ns3:hr>97</ns3:hr>
          </ns3:TrackPointExtension>
        </extensions>
      </trkpt>
      <trkpt lat="36.81927658617496490478515625" lon="-118.407294452190399169921875">
        <ele>3233.60009765625</ele>
        <time>2021-06-27T21:20:19.000Z</time>
        <extensions>
          <ns3:TrackPointExtension>
            <ns3:atemp>32.0</ns3:atemp>
            <ns3:hr>97</ns3:hr>
          </ns3:TrackPointExtension>
        </extensions>
      </trkpt>
      <trkpt lat="36.8192757479846477508544921875" lon="-118.4072922728955745697021484375">
        <ele>3233.60009765625</ele>
        <time>2021-06-27T21:20:27.000Z</time>
        <extensions>
          <ns3:TrackPointExtension>
            <ns3:atemp>32.0</ns3:atemp>
            <ns3:hr>94</ns3:hr>
          </ns3:TrackPointExtension>
        </extensions>
      </trkpt>
      <trkpt lat="36.819274909794330596923828125" lon="-118.40729151852428913116455078125">
        <ele>3233.39990234375</ele>
        <time>2021-06-27T21:20:30.000Z</time>
        <extensions>
          <ns3:TrackPointExtension>
            <ns3:atemp>32.0</ns3:atemp>
            <ns3:hr>91</ns3:hr>
          </ns3:TrackPointExtension>
        </extensions>
      </trkpt>
      <trkpt lat="36.81927415542304515838623046875" lon="-118.40729118324816226959228515625">
        <ele>3233.199951171875</ele>
        <time>2021-06-27T21:20:35.000Z</time>
        <extensions>
          <ns3:TrackPointExtension>
            <ns3:atemp>32.0</ns3:atemp>
            <ns3:hr>88</ns3:hr>
          </ns3:TrackPointExtension>
        </extensions>
      </trkpt>
      <trkpt lat="36.81927398778498172760009765625" lon="-118.407290764153003692626953125">
        <ele>3233</ele>
        <time>2021-06-27T21:20:40.000Z</time>
        <extensions>
          <ns3:TrackPointExtension>
            <ns3:atemp>32.0</ns3:atemp>
            <ns3:hr>88</ns3:hr>
          </ns3:TrackPointExtension>
        </extensions>
      </trkpt>
      <trkpt lat="36.81927465833723545074462890625" lon="-118.40729034505784511566162109375">
        <ele>3233.199951171875</ele>
        <time>2021-06-27T21:20:46.000Z</time>
        <extensions>
          <ns3:TrackPointExtension>
            <ns3:atemp>32.0</ns3:atemp>
            <ns3:hr>91</ns3:hr>
          </ns3:TrackPointExtension>
        </extensions>
      </trkpt>
      <trkpt lat="36.81931891478598117828369140625" lon="-118.4073365293443202972412109375">
        <ele>3233.199951171875</ele>
        <time>2021-06-27T21:20:58.000Z</time>
        <extensions>
          <ns3:TrackPointExtension>
            <ns3:atemp>32.0</ns3:atemp>
            <ns3:hr>94</ns3:hr>
          </ns3:TrackPointExtension>
        </extensions>
      </trkpt>
      <trkpt lat="36.81933182291686534881591796875" lon="-118.40735270641744136810302734375">
        <ele>3233.199951171875</ele>
        <time>2021-06-27T21:20:59.000Z</time>
        <extensions>
          <ns3:TrackPointExtension>
            <ns3:atemp>32.0</ns3:atemp>
            <ns3:hr>95</ns3:hr>
          </ns3:TrackPointExtension>
        </extensions>
      </trkpt>
      <trkpt lat="36.81943441741168498992919921875" lon="-118.40744976885616779327392578125">
        <ele>3233.199951171875</ele>
        <time>2021-06-27T21:21:07.000Z</time>
        <extensions>
          <ns3:TrackPointExtension>
            <ns3:atemp>32.0</ns3:atemp>
            <ns3:hr>97</ns3:hr>
          </ns3:TrackPointExtension>
        </extensions>
      </trkpt>
      <trkpt lat="36.81950164027512073516845703125" lon="-118.407487235963344573974609375">
        <ele>3233.199951171875</ele>
        <time>2021-06-27T21:21:13.000Z</time>
        <extensions>
          <ns3:TrackPointExtension>
            <ns3:atemp>32.0</ns3:atemp>
            <ns3:hr>94</ns3:hr>
          </ns3:TrackPointExtension>
        </extensions>
      </trkpt>
      <trkpt lat="36.81952611543238162994384765625" lon="-118.40749821625649929046630859375">
        <ele>3233.199951171875</ele>
        <time>2021-06-27T21:21:15.000Z</time>
        <extensions>
          <ns3:TrackPointExtension>
            <ns3:atemp>32.0</ns3:atemp>
            <ns3:hr>94</ns3:hr>
          </ns3:TrackPointExtension>
        </extensions>
      </trkpt>
      <trkpt lat="36.8195637501776218414306640625" lon="-118.40751104056835174560546875">
        <ele>3233.39990234375</ele>
        <time>2021-06-27T21:21:18.000Z</time>
        <extensions>
          <ns3:TrackPointExtension>
            <ns3:atemp>32.0</ns3:atemp>
            <ns3:hr>91</ns3:hr>
          </ns3:TrackPointExtension>
        </extensions>
      </trkpt>
      <trkpt lat="36.81957607157528400421142578125" lon="-118.4075132198631763458251953125">
        <ele>3233.39990234375</ele>
        <time>2021-06-27T21:21:19.000Z</time>
        <extensions>
          <ns3:TrackPointExtension>
            <ns3:atemp>32.0</ns3:atemp>
            <ns3:hr>91</ns3:hr>
          </ns3:TrackPointExtension>
        </extensions>
      </trkpt>
      <trkpt lat="36.819653771817684173583984375" lon="-118.40753090567886829376220703125">
        <ele>3233.800048828125</ele>
        <time>2021-06-27T21:21:26.000Z</time>
        <extensions>
          <ns3:TrackPointExtension>
            <ns3:atemp>32.0</ns3:atemp>
            <ns3:hr>94</ns3:hr>
          </ns3:TrackPointExtension>
        </extensions>
      </trkpt>
      <trkpt lat="36.81971353478729724884033203125" lon="-118.40753576718270778656005859375">
        <ele>3233.800048828125</ele>
        <time>2021-06-27T21:21:31.000Z</time>
        <extensions>
          <ns3:TrackPointExtension>
            <ns3:atemp>32.0</ns3:atemp>
            <ns3:hr>94</ns3:hr>
          </ns3:TrackPointExtension>
        </extensions>
      </trkpt>
      <trkpt lat="36.81976885534822940826416015625" lon="-118.40753677301108837127685546875">
        <ele>3234.199951171875</ele>
        <time>2021-06-27T21:21:36.000Z</time>
        <extensions>
          <ns3:TrackPointExtension>
            <ns3:atemp>32.0</ns3:atemp>
            <ns3:hr>94</ns3:hr>
          </ns3:TrackPointExtension>
        </extensions>
      </trkpt>
      <trkpt lat="36.8198138661682605743408203125" lon="-118.4075534529983997344970703125">
        <ele>3234.199951171875</ele>
        <time>2021-06-27T21:21:40.000Z</time>
        <extensions>
          <ns3:TrackPointExtension>
            <ns3:atemp>32.0</ns3:atemp>
            <ns3:hr>94</ns3:hr>
          </ns3:TrackPointExtension>
        </extensions>
      </trkpt>
      <trkpt lat="36.81986759416759014129638671875" lon="-118.40760366059839725494384765625">
        <ele>3234.199951171875</ele>
        <time>2021-06-27T21:21:45.000Z</time>
        <extensions>
          <ns3:TrackPointExtension>
            <ns3:atemp>32.0</ns3:atemp>
            <ns3:hr>97</ns3:hr>
          </ns3:TrackPointExtension>
        </extensions>
      </trkpt>
      <trkpt lat="36.8199151195585727691650390625" lon="-118.40763333253562450408935546875">
        <ele>3234.199951171875</ele>
        <time>2021-06-27T21:21:49.000Z</time>
        <extensions>
          <ns3:TrackPointExtension>
            <ns3:atemp>32.0</ns3:atemp>
            <ns3:hr>98</ns3:hr>
          </ns3:TrackPointExtension>
        </extensions>
      </trkpt>
      <trkpt lat="36.8199835158884525299072265625" lon="-118.40766250155866146087646484375">
        <ele>3234.39990234375</ele>
        <time>2021-06-27T21:21:55.000Z</time>
        <extensions>
          <ns3:TrackPointExtension>
            <ns3:atemp>32.0</ns3:atemp>
            <ns3:hr>101</ns3:hr>
          </ns3:TrackPointExtension>
        </extensions>
      </trkpt>
      <trkpt lat="36.820009164512157440185546875" lon="-118.4076647646725177764892578125">
        <ele>3234.199951171875</ele>
        <time>2021-06-27T21:21:58.000Z</time>
        <extensions>
          <ns3:TrackPointExtension>
            <ns3:atemp>32.0</ns3:atemp>
            <ns3:hr>104</ns3:hr>
          </ns3:TrackPointExtension>
        </extensions>
      </trkpt>
      <trkpt lat="36.82003171183168888092041015625" lon="-118.4076594002544879913330078125">
        <ele>3233.800048828125</ele>
        <time>2021-06-27T21:22:00.000Z</time>
        <extensions>
          <ns3:TrackPointExtension>
            <ns3:atemp>32.0</ns3:atemp>
            <ns3:hr>105</ns3:hr>
          </ns3:TrackPointExtension>
        </extensions>
      </trkpt>
      <trkpt lat="36.8201286904513835906982421875" lon="-118.40767708607017993927001953125">
        <ele>3234.199951171875</ele>
        <time>2021-06-27T21:22:09.000Z</time>
        <extensions>
          <ns3:TrackPointExtension>
            <ns3:atemp>32.0</ns3:atemp>
            <ns3:hr>105</ns3:hr>
          </ns3:TrackPointExtension>
        </extensions>
      </trkpt>
      <trkpt lat="36.82022466324269771575927734375" lon="-118.407697118818759918212890625">
        <ele>3234.199951171875</ele>
        <time>2021-06-27T21:22:17.000Z</time>
        <extensions>
          <ns3:TrackPointExtension>
            <ns3:atemp>32.0</ns3:atemp>
            <ns3:hr>108</ns3:hr>
          </ns3:TrackPointExtension>
        </extensions>
      </trkpt>
      <trkpt lat="36.82025316171348094940185546875" lon="-118.40770776383578777313232421875">
        <ele>3233.800048828125</ele>
        <time>2021-06-27T21:22:20.000Z</time>
        <extensions>
          <ns3:TrackPointExtension>
            <ns3:atemp>32.0</ns3:atemp>
            <ns3:hr>109</ns3:hr>
          </ns3:TrackPointExtension>
        </extensions>
      </trkpt>
      <trkpt lat="36.82026355527341365814208984375" lon="-118.4077103622257709503173828125">
        <ele>3233.60009765625</ele>
        <time>2021-06-27T21:22:21.000Z</time>
        <extensions>
          <ns3:TrackPointExtension>
            <ns3:atemp>32.0</ns3:atemp>
            <ns3:hr>106</ns3:hr>
          </ns3:TrackPointExtension>
        </extensions>
      </trkpt>
      <trkpt lat="36.82029289193451404571533203125" lon="-118.4077288024127483367919921875">
        <ele>3233.39990234375</ele>
        <time>2021-06-27T21:22:24.000Z</time>
        <extensions>
          <ns3:TrackPointExtension>
            <ns3:atemp>32.0</ns3:atemp>
            <ns3:hr>103</ns3:hr>
          </ns3:TrackPointExtension>
        </extensions>
      </trkpt>
      <trkpt lat="36.8203130923211574554443359375" lon="-118.407744057476520538330078125">
        <ele>3233</ele>
        <time>2021-06-27T21:22:26.000Z</time>
        <extensions>
          <ns3:TrackPointExtension>
            <ns3:atemp>32.0</ns3:atemp>
            <ns3:hr>104</ns3:hr>
          </ns3:TrackPointExtension>
        </extensions>
      </trkpt>
      <trkpt lat="36.8203281797468662261962890625" lon="-118.4077562950551509857177734375">
        <ele>3232.800048828125</ele>
        <time>2021-06-27T21:22:28.000Z</time>
        <extensions>
          <ns3:TrackPointExtension>
            <ns3:atemp>32.0</ns3:atemp>
            <ns3:hr>101</ns3:hr>
          </ns3:TrackPointExtension>
        </extensions>
      </trkpt>
      <trkpt lat="36.82036162354052066802978515625" lon="-118.40779091231524944305419921875">
        <ele>3232.199951171875</ele>
        <time>2021-06-27T21:22:32.000Z</time>
        <extensions>
          <ns3:TrackPointExtension>
            <ns3:atemp>32.0</ns3:atemp>
            <ns3:hr>98</ns3:hr>
          </ns3:TrackPointExtension>
        </extensions>
      </trkpt>
      <trkpt lat="36.8203721009194850921630859375" lon="-118.40779803693294525146484375">
        <ele>3232</ele>
        <time>2021-06-27T21:22:33.000Z</time>
        <extensions>
          <ns3:TrackPointExtension>
            <ns3:atemp>32.0</ns3:atemp>
            <ns3:hr>97</ns3:hr>
          </ns3:TrackPointExtension>
        </extensions>
      </trkpt>
      <trkpt lat="36.82040370069444179534912109375" lon="-118.4078102745115756988525390625">
        <ele>3231.800048828125</ele>
        <time>2021-06-27T21:22:36.000Z</time>
        <extensions>
          <ns3:TrackPointExtension>
            <ns3:atemp>32.0</ns3:atemp>
            <ns3:hr>96</ns3:hr>
          </ns3:TrackPointExtension>
        </extensions>
      </trkpt>
      <trkpt lat="36.82048215530812740325927734375" lon="-118.4078800119459629058837890625">
        <ele>3231.39990234375</ele>
        <time>2021-06-27T21:22:44.000Z</time>
        <extensions>
          <ns3:TrackPointExtension>
            <ns3:atemp>32.0</ns3:atemp>
            <ns3:hr>96</ns3:hr>
          </ns3:TrackPointExtension>
        </extensions>
      </trkpt>
      <trkpt lat="36.8205692432820796966552734375" lon="-118.40791798196732997894287109375">
        <ele>3230.800048828125</ele>
        <time>2021-06-27T21:22:52.000Z</time>
        <extensions>
          <ns3:TrackPointExtension>
            <ns3:atemp>32.0</ns3:atemp>
            <ns3:hr>95</ns3:hr>
          </ns3:TrackPointExtension>
        </extensions>
      </trkpt>
      <trkpt lat="36.82059497572481632232666015625" lon="-118.40791647322475910186767578125">
        <ele>3231</ele>
        <time>2021-06-27T21:22:54.000Z</time>
        <extensions>
          <ns3:TrackPointExtension>
            <ns3:atemp>32.0</ns3:atemp>
            <ns3:hr>94</ns3:hr>
          </ns3:TrackPointExtension>
        </extensions>
      </trkpt>
      <trkpt lat="36.82062665931880474090576171875" lon="-118.407935164868831634521484375">
        <ele>3230.800048828125</ele>
        <time>2021-06-27T21:22:58.000Z</time>
        <extensions>
          <ns3:TrackPointExtension>
            <ns3:atemp>32.0</ns3:atemp>
            <ns3:hr>91</ns3:hr>
          </ns3:TrackPointExtension>
        </extensions>
      </trkpt>
      <trkpt lat="36.82065415196120738983154296875" lon="-118.4079591371119022369384765625">
        <ele>3230.800048828125</ele>
        <time>2021-06-27T21:23:01.000Z</time>
        <extensions>
          <ns3:TrackPointExtension>
            <ns3:atemp>32.0</ns3:atemp>
            <ns3:hr>93</ns3:hr>
          </ns3:TrackPointExtension>
        </extensions>
      </trkpt>
      <trkpt lat="36.820674352347850799560546875" lon="-118.40796927921473979949951171875">
        <ele>3230.60009765625</ele>
        <time>2021-06-27T21:23:03.000Z</time>
        <extensions>
          <ns3:TrackPointExtension>
            <ns3:atemp>32.0</ns3:atemp>
            <ns3:hr>94</ns3:hr>
          </ns3:TrackPointExtension>
        </extensions>
      </trkpt>
      <trkpt lat="36.82072724215686321258544921875" lon="-118.40797481127083301544189453125">
        <ele>3230.39990234375</ele>
        <time>2021-06-27T21:23:08.000Z</time>
        <extensions>
          <ns3:TrackPointExtension>
            <ns3:atemp>32.0</ns3:atemp>
            <ns3:hr>93</ns3:hr>
          </ns3:TrackPointExtension>
        </extensions>
      </trkpt>
      <trkpt lat="36.82077535428106784820556640625" lon="-118.4080065786838531494140625">
        <ele>3229.60009765625</ele>
        <time>2021-06-27T21:23:13.000Z</time>
        <extensions>
          <ns3:TrackPointExtension>
            <ns3:atemp>32.0</ns3:atemp>
            <ns3:hr>95</ns3:hr>
          </ns3:TrackPointExtension>
        </extensions>
      </trkpt>
      <trkpt lat="36.8208180181682109832763671875" lon="-118.40802443213760852813720703125">
        <ele>3229.60009765625</ele>
        <time>2021-06-27T21:23:17.000Z</time>
        <extensions>
          <ns3:TrackPointExtension>
            <ns3:atemp>32.0</ns3:atemp>
            <ns3:hr>94</ns3:hr>
          </ns3:TrackPointExtension>
        </extensions>
      </trkpt>
      <trkpt lat="36.82087778113782405853271484375" lon="-118.4080736339092254638671875">
        <ele>3228.800048828125</ele>
        <time>2021-06-27T21:23:24.000Z</time>
        <extensions>
          <ns3:TrackPointExtension>
            <ns3:atemp>32.0</ns3:atemp>
            <ns3:hr>97</ns3:hr>
          </ns3:TrackPointExtension>
        </extensions>
      </trkpt>
      <trkpt lat="36.82088431902229785919189453125" lon="-118.40808235108852386474609375">
        <ele>3228.39990234375</ele>
        <time>2021-06-27T21:23:25.000Z</time>
        <extensions>
          <ns3:TrackPointExtension>
            <ns3:atemp>32.0</ns3:atemp>
            <ns3:hr>97</ns3:hr>
          </ns3:TrackPointExtension>
        </extensions>
      </trkpt>
      <trkpt lat="36.820890605449676513671875" lon="-118.408092074096202850341796875">
        <ele>3228.199951171875</ele>
        <time>2021-06-27T21:23:26.000Z</time>
        <extensions>
          <ns3:TrackPointExtension>
            <ns3:atemp>32.0</ns3:atemp>
            <ns3:hr>97</ns3:hr>
          </ns3:TrackPointExtension>
        </extensions>
      </trkpt>
      <trkpt lat="36.8209621869027614593505859375" lon="-118.40814538300037384033203125">
        <ele>3227.199951171875</ele>
        <time>2021-06-27T21:23:33.000Z</time>
        <extensions>
          <ns3:TrackPointExtension>
            <ns3:atemp>32.0</ns3:atemp>
            <ns3:hr>98</ns3:hr>
          </ns3:TrackPointExtension>
        </extensions>
      </trkpt>
      <trkpt lat="36.82099445722997188568115234375" lon="-118.4081686846911907196044921875">
        <ele>3227.199951171875</ele>
        <time>2021-06-27T21:23:36.000Z</time>
        <extensions>
          <ns3:TrackPointExtension>
            <ns3:atemp>32.0</ns3:atemp>
            <ns3:hr>97</ns3:hr>
          </ns3:TrackPointExtension>
        </extensions>
      </trkpt>
      <trkpt lat="36.82103938423097133636474609375" lon="-118.40818536467850208282470703125">
        <ele>3226.800048828125</ele>
        <time>2021-06-27T21:23:40.000Z</time>
        <extensions>
          <ns3:TrackPointExtension>
            <ns3:atemp>32.0</ns3:atemp>
            <ns3:hr>94</ns3:hr>
          </ns3:TrackPointExtension>
        </extensions>
      </trkpt>
      <trkpt lat="36.821064613759517669677734375" lon="-118.4081861190497875213623046875">
        <ele>3226.199951171875</ele>
        <time>2021-06-27T21:23:42.000Z</time>
        <extensions>
          <ns3:TrackPointExtension>
            <ns3:atemp>32.0</ns3:atemp>
            <ns3:hr>92</ns3:hr>
          </ns3:TrackPointExtension>
        </extensions>
      </trkpt>
      <trkpt lat="36.82109788991510868072509765625" lon="-118.40819793753325939178466796875">
        <ele>3226</ele>
        <time>2021-06-27T21:23:45.000Z</time>
        <extensions>
          <ns3:TrackPointExtension>
            <ns3:atemp>32.0</ns3:atemp>
            <ns3:hr>91</ns3:hr>
          </ns3:TrackPointExtension>
        </extensions>
      </trkpt>
      <trkpt lat="36.82116427458822727203369140625" lon="-118.40822392143309116363525390625">
        <ele>3226</ele>
        <time>2021-06-27T21:23:51.000Z</time>
        <extensions>
          <ns3:TrackPointExtension>
            <ns3:atemp>31.0</ns3:atemp>
            <ns3:hr>88</ns3:hr>
          </ns3:TrackPointExtension>
        </extensions>
      </trkpt>
      <trkpt lat="36.82120953686535358428955078125" lon="-118.40823515318334102630615234375">
        <ele>3226</ele>
        <time>2021-06-27T21:23:55.000Z</time>
        <extensions>
          <ns3:TrackPointExtension>
            <ns3:atemp>31.0</ns3:atemp>
            <ns3:hr>87</ns3:hr>
          </ns3:TrackPointExtension>
        </extensions>
      </trkpt>
      <trkpt lat="36.8212377838790416717529296875" lon="-118.4082451276481151580810546875">
        <ele>3226</ele>
        <time>2021-06-27T21:23:59.000Z</time>
        <extensions>
          <ns3:TrackPointExtension>
            <ns3:atemp>31.0</ns3:atemp>
            <ns3:hr>85</ns3:hr>
          </ns3:TrackPointExtension>
        </extensions>
      </trkpt>
      <trkpt lat="36.8212545476853847503662109375" lon="-118.40825577266514301300048828125">
        <ele>3225.800048828125</ele>
        <time>2021-06-27T21:24:01.000Z</time>
        <extensions>
          <ns3:TrackPointExtension>
            <ns3:atemp>31.0</ns3:atemp>
            <ns3:hr>87</ns3:hr>
          </ns3:TrackPointExtension>
        </extensions>
      </trkpt>
      <trkpt lat="36.82125899009406566619873046875" lon="-118.40826029889285564422607421875">
        <ele>3225.800048828125</ele>
        <time>2021-06-27T21:24:02.000Z</time>
        <extensions>
          <ns3:TrackPointExtension>
            <ns3:atemp>31.0</ns3:atemp>
            <ns3:hr>88</ns3:hr>
          </ns3:TrackPointExtension>
        </extensions>
      </trkpt>
      <trkpt lat="36.82126183994114398956298828125" lon="-118.4082689322531223297119140625">
        <ele>3225.60009765625</ele>
        <time>2021-06-27T21:24:04.000Z</time>
        <extensions>
          <ns3:TrackPointExtension>
            <ns3:atemp>31.0</ns3:atemp>
            <ns3:hr>90</ns3:hr>
          </ns3:TrackPointExtension>
        </extensions>
      </trkpt>
      <trkpt lat="36.82126544415950775146484375" lon="-118.40824269689619541168212890625">
        <ele>3225.39990234375</ele>
        <time>2021-06-27T21:24:09.000Z</time>
        <extensions>
          <ns3:TrackPointExtension>
            <ns3:atemp>31.0</ns3:atemp>
            <ns3:hr>92</ns3:hr>
          </ns3:TrackPointExtension>
        </extensions>
      </trkpt>
      <trkpt lat="36.82125044055283069610595703125" lon="-118.40821922756731510162353515625">
        <ele>3225.199951171875</ele>
        <time>2021-06-27T21:24:15.000Z</time>
        <extensions>
          <ns3:TrackPointExtension>
            <ns3:atemp>31.0</ns3:atemp>
            <ns3:hr>93</ns3:hr>
          </ns3:TrackPointExtension>
        </extensions>
      </trkpt>
      <trkpt lat="36.82125270366668701171875" lon="-118.408230207860469818115234375">
        <ele>3225.60009765625</ele>
        <time>2021-06-27T21:24:20.000Z</time>
        <extensions>
          <ns3:TrackPointExtension>
            <ns3:atemp>31.0</ns3:atemp>
            <ns3:hr>90</ns3:hr>
          </ns3:TrackPointExtension>
        </extensions>
      </trkpt>
      <trkpt lat="36.82127240113914012908935546875" lon="-118.40823649428784847259521484375">
        <ele>3225</ele>
        <time>2021-06-27T21:24:27.000Z</time>
        <extensions>
          <ns3:TrackPointExtension>
            <ns3:atemp>31.0</ns3:atemp>
            <ns3:hr>87</ns3:hr>
          </ns3:TrackPointExtension>
        </extensions>
      </trkpt>
      <trkpt lat="36.821287572383880615234375" lon="-118.40824873186647891998291015625">
        <ele>3225</ele>
        <time>2021-06-27T21:24:28.000Z</time>
        <extensions>
          <ns3:TrackPointExtension>
            <ns3:atemp>31.0</ns3:atemp>
            <ns3:hr>87</ns3:hr>
          </ns3:TrackPointExtension>
        </extensions>
      </trkpt>
      <trkpt lat="36.8214064277708530426025390625" lon="-118.4082967601716518402099609375">
        <ele>3224.39990234375</ele>
        <time>2021-06-27T21:24:36.000Z</time>
        <extensions>
          <ns3:TrackPointExtension>
            <ns3:atemp>31.0</ns3:atemp>
            <ns3:hr>84</ns3:hr>
          </ns3:TrackPointExtension>
        </extensions>
      </trkpt>
      <trkpt lat="36.821418665349483489990234375" lon="-118.40829198248684406280517578125">
        <ele>3224.39990234375</ele>
        <time>2021-06-27T21:24:37.000Z</time>
        <extensions>
          <ns3:TrackPointExtension>
            <ns3:atemp>31.0</ns3:atemp>
            <ns3:hr>84</ns3:hr>
          </ns3:TrackPointExtension>
        </extensions>
      </trkpt>
      <trkpt lat="36.8214620836079120635986328125" lon="-118.40828326530754566192626953125">
        <ele>3224.39990234375</ele>
        <time>2021-06-27T21:24:41.000Z</time>
        <extensions>
          <ns3:TrackPointExtension>
            <ns3:atemp>31.0</ns3:atemp>
            <ns3:hr>81</ns3:hr>
          </ns3:TrackPointExtension>
        </extensions>
      </trkpt>
      <trkpt lat="36.8215573020279407501220703125" lon="-118.40827681124210357666015625">
        <ele>3224.199951171875</ele>
        <time>2021-06-27T21:24:49.000Z</time>
        <extensions>
          <ns3:TrackPointExtension>
            <ns3:atemp>31.0</ns3:atemp>
            <ns3:hr>81</ns3:hr>
          </ns3:TrackPointExtension>
        </extensions>
      </trkpt>
      <trkpt lat="36.8216320686042308807373046875" lon="-118.4082642383873462677001953125">
        <ele>3224</ele>
        <time>2021-06-27T21:24:56.000Z</time>
        <extensions>
          <ns3:TrackPointExtension>
            <ns3:atemp>31.0</ns3:atemp>
            <ns3:hr>80</ns3:hr>
          </ns3:TrackPointExtension>
        </extensions>
      </trkpt>
      <trkpt lat="36.8216417916119098663330078125" lon="-118.4082662500441074371337890625">
        <ele>3223.800048828125</ele>
        <time>2021-06-27T21:24:57.000Z</time>
        <extensions>
          <ns3:TrackPointExtension>
            <ns3:atemp>31.0</ns3:atemp>
            <ns3:hr>80</ns3:hr>
          </ns3:TrackPointExtension>
        </extensions>
      </trkpt>
      <trkpt lat="36.82171546854078769683837890625" lon="-118.4082935750484466552734375">
        <ele>3222.800048828125</ele>
        <time>2021-06-27T21:25:04.000Z</time>
        <extensions>
          <ns3:TrackPointExtension>
            <ns3:atemp>31.0</ns3:atemp>
            <ns3:hr>82</ns3:hr>
          </ns3:TrackPointExtension>
        </extensions>
      </trkpt>
      <trkpt lat="36.82172653265297412872314453125" lon="-118.40829667635262012481689453125">
        <ele>3222.60009765625</ele>
        <time>2021-06-27T21:25:05.000Z</time>
        <extensions>
          <ns3:TrackPointExtension>
            <ns3:atemp>31.0</ns3:atemp>
            <ns3:hr>80</ns3:hr>
          </ns3:TrackPointExtension>
        </extensions>
      </trkpt>
      <trkpt lat="36.82182242162525653839111328125" lon="-118.40834445320069789886474609375">
        <ele>3222.199951171875</ele>
        <time>2021-06-27T21:25:14.000Z</time>
        <extensions>
          <ns3:TrackPointExtension>
            <ns3:atemp>31.0</ns3:atemp>
            <ns3:hr>80</ns3:hr>
          </ns3:TrackPointExtension>
        </extensions>
      </trkpt>
      <trkpt lat="36.8218526802957057952880859375" lon="-118.40835065580904483795166015625">
        <ele>3222.39990234375</ele>
        <time>2021-06-27T21:25:17.000Z</time>
        <extensions>
          <ns3:TrackPointExtension>
            <ns3:atemp>31.0</ns3:atemp>
            <ns3:hr>79</ns3:hr>
          </ns3:TrackPointExtension>
        </extensions>
      </trkpt>
      <trkpt lat="36.8219043128192424774169921875" lon="-118.4083500690758228302001953125">
        <ele>3222</ele>
        <time>2021-06-27T21:25:22.000Z</time>
        <extensions>
          <ns3:TrackPointExtension>
            <ns3:atemp>31.0</ns3:atemp>
            <ns3:hr>80</ns3:hr>
          </ns3:TrackPointExtension>
        </extensions>
      </trkpt>
      <trkpt lat="36.821912862360477447509765625" lon="-118.408346883952617645263671875">
        <ele>3221.39990234375</ele>
        <time>2021-06-27T21:25:23.000Z</time>
        <extensions>
          <ns3:TrackPointExtension>
            <ns3:atemp>31.0</ns3:atemp>
            <ns3:hr>81</ns3:hr>
          </ns3:TrackPointExtension>
        </extensions>
      </trkpt>
      <trkpt lat="36.8219636566936969757080078125" lon="-118.408367671072483062744140625">
        <ele>3220.800048828125</ele>
        <time>2021-06-27T21:25:28.000Z</time>
        <extensions>
          <ns3:TrackPointExtension>
            <ns3:atemp>31.0</ns3:atemp>
            <ns3:hr>82</ns3:hr>
          </ns3:TrackPointExtension>
        </extensions>
      </trkpt>
      <trkpt lat="36.8220193125307559967041015625" lon="-118.4084161184728145599365234375">
        <ele>3220.39990234375</ele>
        <time>2021-06-27T21:25:34.000Z</time>
        <extensions>
          <ns3:TrackPointExtension>
            <ns3:atemp>31.0</ns3:atemp>
            <ns3:hr>85</ns3:hr>
          </ns3:TrackPointExtension>
        </extensions>
      </trkpt>
      <trkpt lat="36.82206549681723117828369140625" lon="-118.4084657393395900726318359375">
        <ele>3220.199951171875</ele>
        <time>2021-06-27T21:25:40.000Z</time>
        <extensions>
          <ns3:TrackPointExtension>
            <ns3:atemp>31.0</ns3:atemp>
            <ns3:hr>86</ns3:hr>
          </ns3:TrackPointExtension>
        </extensions>
      </trkpt>
      <trkpt lat="36.8221537582576274871826171875" lon="-118.40854863636195659637451171875">
        <ele>3219.800048828125</ele>
        <time>2021-06-27T21:25:49.000Z</time>
        <extensions>
          <ns3:TrackPointExtension>
            <ns3:atemp>31.0</ns3:atemp>
            <ns3:hr>88</ns3:hr>
          </ns3:TrackPointExtension>
        </extensions>
      </trkpt>
      <trkpt lat="36.82216557674109935760498046875" lon="-118.408583588898181915283203125">
        <ele>3219.800048828125</ele>
        <time>2021-06-27T21:25:53.000Z</time>
        <extensions>
          <ns3:TrackPointExtension>
            <ns3:atemp>31.0</ns3:atemp>
            <ns3:hr>89</ns3:hr>
          </ns3:TrackPointExtension>
        </extensions>
      </trkpt>
      <trkpt lat="36.82216825895011425018310546875" lon="-118.4085938148200511932373046875">
        <ele>3219.199951171875</ele>
        <time>2021-06-27T21:25:54.000Z</time>
        <extensions>
          <ns3:TrackPointExtension>
            <ns3:atemp>31.0</ns3:atemp>
            <ns3:hr>90</ns3:hr>
          </ns3:TrackPointExtension>
        </extensions>
      </trkpt>
      <trkpt lat="36.822175718843936920166015625" lon="-118.4086226485669612884521484375">
        <ele>3218.60009765625</ele>
        <time>2021-06-27T21:25:57.000Z</time>
        <extensions>
          <ns3:TrackPointExtension>
            <ns3:atemp>31.0</ns3:atemp>
            <ns3:hr>90</ns3:hr>
          </ns3:TrackPointExtension>
        </extensions>
      </trkpt>
      <trkpt lat="36.82218250818550586700439453125" lon="-118.40864988975226879119873046875">
        <ele>3218.199951171875</ele>
        <time>2021-06-27T21:26:00.000Z</time>
        <extensions>
          <ns3:TrackPointExtension>
            <ns3:atemp>31.0</ns3:atemp>
            <ns3:hr>88</ns3:hr>
          </ns3:TrackPointExtension>
        </extensions>
      </trkpt>
      <trkpt lat="36.82219759561121463775634765625" lon="-118.4086799807846546173095703125">
        <ele>3217.800048828125</ele>
        <time>2021-06-27T21:26:03.000Z</time>
        <extensions>
          <ns3:TrackPointExtension>
            <ns3:atemp>31.0</ns3:atemp>
            <ns3:hr>89</ns3:hr>
          </ns3:TrackPointExtension>
        </extensions>
      </trkpt>
      <trkpt lat="36.8222208134829998016357421875" lon="-118.4086957387626171112060546875">
        <ele>3217.199951171875</ele>
        <time>2021-06-27T21:26:05.000Z</time>
        <extensions>
          <ns3:TrackPointExtension>
            <ns3:atemp>31.0</ns3:atemp>
            <ns3:hr>87</ns3:hr>
          </ns3:TrackPointExtension>
        </extensions>
      </trkpt>
      <trkpt lat="36.8222355656325817108154296875" lon="-118.40869867242872714996337890625">
        <ele>3217</ele>
        <time>2021-06-27T21:26:06.000Z</time>
        <extensions>
          <ns3:TrackPointExtension>
            <ns3:atemp>31.0</ns3:atemp>
            <ns3:hr>87</ns3:hr>
          </ns3:TrackPointExtension>
        </extensions>
      </trkpt>
      <trkpt lat="36.82226984761655330657958984375" lon="-118.408715017139911651611328125">
        <ele>3216.39990234375</ele>
        <time>2021-06-27T21:26:10.000Z</time>
        <extensions>
          <ns3:TrackPointExtension>
            <ns3:atemp>31.0</ns3:atemp>
            <ns3:hr>90</ns3:hr>
          </ns3:TrackPointExtension>
        </extensions>
      </trkpt>
      <trkpt lat="36.822293736040592193603515625" lon="-118.40874007903039455413818359375">
        <ele>3216.199951171875</ele>
        <time>2021-06-27T21:26:14.000Z</time>
        <extensions>
          <ns3:TrackPointExtension>
            <ns3:atemp>31.0</ns3:atemp>
            <ns3:hr>94</ns3:hr>
          </ns3:TrackPointExtension>
        </extensions>
      </trkpt>
      <trkpt lat="36.82230002246797084808349609375" lon="-118.40874862857162952423095703125">
        <ele>3216</ele>
        <time>2021-06-27T21:26:15.000Z</time>
        <extensions>
          <ns3:TrackPointExtension>
            <ns3:atemp>31.0</ns3:atemp>
            <ns3:hr>93</ns3:hr>
          </ns3:TrackPointExtension>
        </extensions>
      </trkpt>
      <trkpt lat="36.82232533581554889678955078125" lon="-118.40877746231853961944580078125">
        <ele>3215.800048828125</ele>
        <time>2021-06-27T21:26:18.000Z</time>
        <extensions>
          <ns3:TrackPointExtension>
            <ns3:atemp>31.0</ns3:atemp>
            <ns3:hr>90</ns3:hr>
          </ns3:TrackPointExtension>
        </extensions>
      </trkpt>
      <trkpt lat="36.822360455989837646484375" lon="-118.40879942290484905242919921875">
        <ele>3215.60009765625</ele>
        <time>2021-06-27T21:26:21.000Z</time>
        <extensions>
          <ns3:TrackPointExtension>
            <ns3:atemp>31.0</ns3:atemp>
            <ns3:hr>85</ns3:hr>
          </ns3:TrackPointExtension>
        </extensions>
      </trkpt>
      <trkpt lat="36.82238115929067134857177734375" lon="-118.408803530037403106689453125">
        <ele>3215.199951171875</ele>
        <time>2021-06-27T21:26:23.000Z</time>
        <extensions>
          <ns3:TrackPointExtension>
            <ns3:atemp>31.0</ns3:atemp>
            <ns3:hr>87</ns3:hr>
          </ns3:TrackPointExtension>
        </extensions>
      </trkpt>
      <trkpt lat="36.82243430055677890777587890625" lon="-118.408778049051761627197265625">
        <ele>3214.800048828125</ele>
        <time>2021-06-27T21:26:28.000Z</time>
        <extensions>
          <ns3:TrackPointExtension>
            <ns3:atemp>31.0</ns3:atemp>
            <ns3:hr>88</ns3:hr>
          </ns3:TrackPointExtension>
        </extensions>
      </trkpt>
      <trkpt lat="36.8224628828465938568115234375" lon="-118.408764302730560302734375">
        <ele>3214.60009765625</ele>
        <time>2021-06-27T21:26:31.000Z</time>
        <extensions>
          <ns3:TrackPointExtension>
            <ns3:atemp>31.0</ns3:atemp>
            <ns3:hr>88</ns3:hr>
          </ns3:TrackPointExtension>
        </extensions>
      </trkpt>
      <trkpt lat="36.8224897049367427825927734375" lon="-118.40876053087413311004638671875">
        <ele>3214.800048828125</ele>
        <time>2021-06-27T21:26:34.000Z</time>
        <extensions>
          <ns3:TrackPointExtension>
            <ns3:atemp>31.0</ns3:atemp>
            <ns3:hr>88</ns3:hr>
          </ns3:TrackPointExtension>
        </extensions>
      </trkpt>
      <trkpt lat="36.8225285969674587249755859375" lon="-118.40878265909850597381591796875">
        <ele>3215.199951171875</ele>
        <time>2021-06-27T21:26:38.000Z</time>
        <extensions>
          <ns3:TrackPointExtension>
            <ns3:atemp>31.0</ns3:atemp>
            <ns3:hr>88</ns3:hr>
          </ns3:TrackPointExtension>
        </extensions>
      </trkpt>
      <trkpt lat="36.822585426270961761474609375" lon="-118.40883747674524784088134765625">
        <ele>3215.60009765625</ele>
        <time>2021-06-27T21:26:45.000Z</time>
        <extensions>
          <ns3:TrackPointExtension>
            <ns3:atemp>31.0</ns3:atemp>
            <ns3:hr>88</ns3:hr>
          </ns3:TrackPointExtension>
        </extensions>
      </trkpt>
      <trkpt lat="36.82261727750301361083984375" lon="-118.4088809788227081298828125">
        <ele>3215.39990234375</ele>
        <time>2021-06-27T21:26:50.000Z</time>
        <extensions>
          <ns3:TrackPointExtension>
            <ns3:atemp>31.0</ns3:atemp>
            <ns3:hr>85</ns3:hr>
          </ns3:TrackPointExtension>
        </extensions>
      </trkpt>
      <trkpt lat="36.82265290059149265289306640625" lon="-118.408908806741237640380859375">
        <ele>3215.60009765625</ele>
        <time>2021-06-27T21:26:53.000Z</time>
        <extensions>
          <ns3:TrackPointExtension>
            <ns3:atemp>31.0</ns3:atemp>
            <ns3:hr>83</ns3:hr>
          </ns3:TrackPointExtension>
        </extensions>
      </trkpt>
      <trkpt lat="36.82266228832304477691650390625" lon="-118.40891475789248943328857421875">
        <ele>3216</ele>
        <time>2021-06-27T21:26:54.000Z</time>
        <extensions>
          <ns3:TrackPointExtension>
            <ns3:atemp>31.0</ns3:atemp>
            <ns3:hr>83</ns3:hr>
          </ns3:TrackPointExtension>
        </extensions>
      </trkpt>
      <trkpt lat="36.822692714631557464599609375" lon="-118.4089404903352260589599609375">
        <ele>3216.60009765625</ele>
        <time>2021-06-27T21:26:58.000Z</time>
        <extensions>
          <ns3:TrackPointExtension>
            <ns3:atemp>31.0</ns3:atemp>
            <ns3:hr>87</ns3:hr>
          </ns3:TrackPointExtension>
        </extensions>
      </trkpt>
      <trkpt lat="36.8227140046656131744384765625" lon="-118.40896077454090118408203125">
        <ele>3216.60009765625</ele>
        <time>2021-06-27T21:27:01.000Z</time>
        <extensions>
          <ns3:TrackPointExtension>
            <ns3:atemp>31.0</ns3:atemp>
            <ns3:hr>90</ns3:hr>
          </ns3:TrackPointExtension>
        </extensions>
      </trkpt>
      <trkpt lat="36.8227264098823070526123046875" lon="-118.4089693240821361541748046875">
        <ele>3216.800048828125</ele>
        <time>2021-06-27T21:27:02.000Z</time>
        <extensions>
          <ns3:TrackPointExtension>
            <ns3:atemp>31.0</ns3:atemp>
            <ns3:hr>93</ns3:hr>
          </ns3:TrackPointExtension>
        </extensions>
      </trkpt>
      <trkpt lat="36.8227445147931575775146484375" lon="-118.40899354778230190277099609375">
        <ele>3217</ele>
        <time>2021-06-27T21:27:05.000Z</time>
        <extensions>
          <ns3:TrackPointExtension>
            <ns3:atemp>31.0</ns3:atemp>
            <ns3:hr>94</ns3:hr>
          </ns3:TrackPointExtension>
        </extensions>
      </trkpt>
      <trkpt lat="36.82275465689599514007568359375" lon="-118.40899564325809478759765625">
        <ele>3217.199951171875</ele>
        <time>2021-06-27T21:27:06.000Z</time>
        <extensions>
          <ns3:TrackPointExtension>
            <ns3:atemp>31.0</ns3:atemp>
            <ns3:hr>96</ns3:hr>
          </ns3:TrackPointExtension>
        </extensions>
      </trkpt>
      <trkpt lat="36.82276437990367412567138671875" lon="-118.40899438597261905670166015625">
        <ele>3217.39990234375</ele>
        <time>2021-06-27T21:27:07.000Z</time>
        <extensions>
          <ns3:TrackPointExtension>
            <ns3:atemp>31.0</ns3:atemp>
            <ns3:hr>97</ns3:hr>
          </ns3:TrackPointExtension>
        </extensions>
      </trkpt>
      <trkpt lat="36.82280461303889751434326171875" lon="-118.409005701541900634765625">
        <ele>3217.60009765625</ele>
        <time>2021-06-27T21:27:11.000Z</time>
        <extensions>
          <ns3:TrackPointExtension>
            <ns3:atemp>31.0</ns3:atemp>
            <ns3:hr>100</ns3:hr>
          </ns3:TrackPointExtension>
        </extensions>
      </trkpt>
      <trkpt lat="36.82284216396510601043701171875" lon="-118.40901978313922882080078125">
        <ele>3218</ele>
        <time>2021-06-27T21:27:14.000Z</time>
        <extensions>
          <ns3:TrackPointExtension>
            <ns3:atemp>31.0</ns3:atemp>
            <ns3:hr>103</ns3:hr>
          </ns3:TrackPointExtension>
        </extensions>
      </trkpt>
      <trkpt lat="36.822884492576122283935546875" lon="-118.4090172685682773590087890625">
        <ele>3218.39990234375</ele>
        <time>2021-06-27T21:27:18.000Z</time>
        <extensions>
          <ns3:TrackPointExtension>
            <ns3:atemp>31.0</ns3:atemp>
            <ns3:hr>106</ns3:hr>
          </ns3:TrackPointExtension>
        </extensions>
      </trkpt>
      <trkpt lat="36.82291341014206409454345703125" lon="-118.4090192802250385284423828125">
        <ele>3218.39990234375</ele>
        <time>2021-06-27T21:27:21.000Z</time>
        <extensions>
          <ns3:TrackPointExtension>
            <ns3:atemp>31.0</ns3:atemp>
            <ns3:hr>109</ns3:hr>
          </ns3:TrackPointExtension>
        </extensions>
      </trkpt>
      <trkpt lat="36.8229356221854686737060546875" lon="-118.4090253151953220367431640625">
        <ele>3218.39990234375</ele>
        <time>2021-06-27T21:27:23.000Z</time>
        <extensions>
          <ns3:TrackPointExtension>
            <ns3:atemp>31.0</ns3:atemp>
            <ns3:hr>110</ns3:hr>
          </ns3:TrackPointExtension>
        </extensions>
      </trkpt>
      <trkpt lat="36.82300494052469730377197265625" lon="-118.40904987417161464691162109375">
        <ele>3218.39990234375</ele>
        <time>2021-06-27T21:27:29.000Z</time>
        <extensions>
          <ns3:TrackPointExtension>
            <ns3:atemp>31.0</ns3:atemp>
            <ns3:hr>112</ns3:hr>
          </ns3:TrackPointExtension>
        </extensions>
      </trkpt>
      <trkpt lat="36.82308305986225605010986328125" lon="-118.40904124081134796142578125">
        <ele>3219.199951171875</ele>
        <time>2021-06-27T21:27:36.000Z</time>
        <extensions>
          <ns3:TrackPointExtension>
            <ns3:atemp>31.0</ns3:atemp>
            <ns3:hr>112</ns3:hr>
          </ns3:TrackPointExtension>
        </extensions>
      </trkpt>
      <trkpt lat="36.82310820557177066802978515625" lon="-118.4090253151953220367431640625">
        <ele>3219.199951171875</ele>
        <time>2021-06-27T21:27:38.000Z</time>
        <extensions>
          <ns3:TrackPointExtension>
            <ns3:atemp>31.0</ns3:atemp>
            <ns3:hr>112</ns3:hr>
          </ns3:TrackPointExtension>
        </extensions>
      </trkpt>
      <trkpt lat="36.8231206946074962615966796875" lon="-118.40901869349181652069091796875">
        <ele>3219.199951171875</ele>
        <time>2021-06-27T21:27:39.000Z</time>
        <extensions>
          <ns3:TrackPointExtension>
            <ns3:atemp>31.0</ns3:atemp>
            <ns3:hr>113</ns3:hr>
          </ns3:TrackPointExtension>
        </extensions>
      </trkpt>
      <trkpt lat="36.82313896715641021728515625" lon="-118.40901911258697509765625">
        <ele>3219.39990234375</ele>
        <time>2021-06-27T21:27:41.000Z</time>
        <extensions>
          <ns3:TrackPointExtension>
            <ns3:atemp>31.0</ns3:atemp>
            <ns3:hr>112</ns3:hr>
          </ns3:TrackPointExtension>
        </extensions>
      </trkpt>
      <trkpt lat="36.82316981256008148193359375" lon="-118.40902942232787609100341796875">
        <ele>3219.199951171875</ele>
        <time>2021-06-27T21:27:44.000Z</time>
        <extensions>
          <ns3:TrackPointExtension>
            <ns3:atemp>31.0</ns3:atemp>
            <ns3:hr>113</ns3:hr>
          </ns3:TrackPointExtension>
        </extensions>
      </trkpt>
      <trkpt lat="36.8231914378702640533447265625" lon="-118.409028165042400360107421875">
        <ele>3219</ele>
        <time>2021-06-27T21:27:46.000Z</time>
        <extensions>
          <ns3:TrackPointExtension>
            <ns3:atemp>31.0</ns3:atemp>
            <ns3:hr>110</ns3:hr>
          </ns3:TrackPointExtension>
        </extensions>
      </trkpt>
      <trkpt lat="36.823229826986789703369140625" lon="-118.409030176699161529541015625">
        <ele>3218.60009765625</ele>
        <time>2021-06-27T21:27:49.000Z</time>
        <extensions>
          <ns3:TrackPointExtension>
            <ns3:atemp>31.0</ns3:atemp>
            <ns3:hr>107</ns3:hr>
          </ns3:TrackPointExtension>
        </extensions>
      </trkpt>
      <trkpt lat="36.823280118405818939208984375" lon="-118.40904149226844310760498046875">
        <ele>3218.39990234375</ele>
        <time>2021-06-27T21:27:53.000Z</time>
        <extensions>
          <ns3:TrackPointExtension>
            <ns3:atemp>31.0</ns3:atemp>
            <ns3:hr>105</ns3:hr>
          </ns3:TrackPointExtension>
        </extensions>
      </trkpt>
      <trkpt lat="36.82331389747560024261474609375" lon="-118.40905188582837581634521484375">
        <ele>3218.39990234375</ele>
        <time>2021-06-27T21:27:56.000Z</time>
        <extensions>
          <ns3:TrackPointExtension>
            <ns3:atemp>31.0</ns3:atemp>
            <ns3:hr>102</ns3:hr>
          </ns3:TrackPointExtension>
        </extensions>
      </trkpt>
      <trkpt lat="36.82335899211466312408447265625" lon="-118.40906261466443538665771484375">
        <ele>3218.39990234375</ele>
        <time>2021-06-27T21:28:00.000Z</time>
        <extensions>
          <ns3:TrackPointExtension>
            <ns3:atemp>31.0</ns3:atemp>
            <ns3:hr>99</ns3:hr>
          </ns3:TrackPointExtension>
        </extensions>
      </trkpt>
      <trkpt lat="36.82341749779880046844482421875" lon="-118.40906362049281597137451171875">
        <ele>3218.199951171875</ele>
        <time>2021-06-27T21:28:05.000Z</time>
        <extensions>
          <ns3:TrackPointExtension>
            <ns3:atemp>31.0</ns3:atemp>
            <ns3:hr>97</ns3:hr>
          </ns3:TrackPointExtension>
        </extensions>
      </trkpt>
      <trkpt lat="36.82344147004187107086181640625" lon="-118.409063033759593963623046875">
        <ele>3218</ele>
        <time>2021-06-27T21:28:07.000Z</time>
        <extensions>
          <ns3:TrackPointExtension>
            <ns3:atemp>31.0</ns3:atemp>
            <ns3:hr>97</ns3:hr>
          </ns3:TrackPointExtension>
        </extensions>
      </trkpt>
      <trkpt lat="36.8235206790268421173095703125" lon="-118.40905272401869297027587890625">
        <ele>3217.60009765625</ele>
        <time>2021-06-27T21:28:14.000Z</time>
        <extensions>
          <ns3:TrackPointExtension>
            <ns3:atemp>31.0</ns3:atemp>
            <ns3:hr>100</ns3:hr>
          </ns3:TrackPointExtension>
        </extensions>
      </trkpt>
      <trkpt lat="36.8235290609300136566162109375" lon="-118.40904836542904376983642578125">
        <ele>3217.39990234375</ele>
        <time>2021-06-27T21:28:15.000Z</time>
        <extensions>
          <ns3:TrackPointExtension>
            <ns3:atemp>31.0</ns3:atemp>
            <ns3:hr>101</ns3:hr>
          </ns3:TrackPointExtension>
        </extensions>
      </trkpt>
      <trkpt lat="36.823539622128009796142578125" lon="-118.40905171819031238555908203125">
        <ele>3217.39990234375</ele>
        <time>2021-06-27T21:28:17.000Z</time>
        <extensions>
          <ns3:TrackPointExtension>
            <ns3:atemp>31.0</ns3:atemp>
            <ns3:hr>104</ns3:hr>
          </ns3:TrackPointExtension>
        </extensions>
      </trkpt>
      <trkpt lat="36.82354934513568878173828125" lon="-118.4090719185769557952880859375">
        <ele>3217</ele>
        <time>2021-06-27T21:28:20.000Z</time>
        <extensions>
          <ns3:TrackPointExtension>
            <ns3:atemp>31.0</ns3:atemp>
            <ns3:hr>109</ns3:hr>
          </ns3:TrackPointExtension>
        </extensions>
      </trkpt>
      <trkpt lat="36.82356015779078006744384765625" lon="-118.40908323414623737335205078125">
        <ele>3216.60009765625</ele>
        <time>2021-06-27T21:28:22.000Z</time>
        <extensions>
          <ns3:TrackPointExtension>
            <ns3:atemp>31.0</ns3:atemp>
            <ns3:hr>106</ns3:hr>
          </ns3:TrackPointExtension>
        </extensions>
      </trkpt>
      <trkpt lat="36.82359016500413417816162109375" lon="-118.4091027639806270599365234375">
        <ele>3215.800048828125</ele>
        <time>2021-06-27T21:28:25.000Z</time>
        <extensions>
          <ns3:TrackPointExtension>
            <ns3:atemp>31.0</ns3:atemp>
            <ns3:hr>106</ns3:hr>
          </ns3:TrackPointExtension>
        </extensions>
      </trkpt>
      <trkpt lat="36.8236179091036319732666015625" lon="-118.409111313521862030029296875">
        <ele>3215.800048828125</ele>
        <time>2021-06-27T21:28:27.000Z</time>
        <extensions>
          <ns3:TrackPointExtension>
            <ns3:atemp>31.0</ns3:atemp>
            <ns3:hr>106</ns3:hr>
          </ns3:TrackPointExtension>
        </extensions>
      </trkpt>
      <trkpt lat="36.82369074784219264984130859375" lon="-118.4091295860707759857177734375">
        <ele>3215</ele>
        <time>2021-06-27T21:28:34.000Z</time>
        <extensions>
          <ns3:TrackPointExtension>
            <ns3:atemp>31.0</ns3:atemp>
            <ns3:hr>103</ns3:hr>
          </ns3:TrackPointExtension>
        </extensions>
      </trkpt>
      <trkpt lat="36.8237003870308399200439453125" lon="-118.4091326035559177398681640625">
        <ele>3214.800048828125</ele>
        <time>2021-06-27T21:28:35.000Z</time>
        <extensions>
          <ns3:TrackPointExtension>
            <ns3:atemp>31.0</ns3:atemp>
            <ns3:hr>103</ns3:hr>
          </ns3:TrackPointExtension>
        </extensions>
      </trkpt>
      <trkpt lat="36.82375830598175525665283203125" lon="-118.409151546657085418701171875">
        <ele>3213.800048828125</ele>
        <time>2021-06-27T21:28:41.000Z</time>
        <extensions>
          <ns3:TrackPointExtension>
            <ns3:atemp>31.0</ns3:atemp>
            <ns3:hr>100</ns3:hr>
          </ns3:TrackPointExtension>
        </extensions>
      </trkpt>
      <trkpt lat="36.823768280446529388427734375" lon="-118.40915733017027378082275390625">
        <ele>3213.800048828125</ele>
        <time>2021-06-27T21:28:42.000Z</time>
        <extensions>
          <ns3:TrackPointExtension>
            <ns3:atemp>31.0</ns3:atemp>
            <ns3:hr>100</ns3:hr>
          </ns3:TrackPointExtension>
        </extensions>
      </trkpt>
      <trkpt lat="36.82377993129193782806396484375" lon="-118.40916135348379611968994140625">
        <ele>3213.800048828125</ele>
        <time>2021-06-27T21:28:43.000Z</time>
        <extensions>
          <ns3:TrackPointExtension>
            <ns3:atemp>31.0</ns3:atemp>
            <ns3:hr>100</ns3:hr>
          </ns3:TrackPointExtension>
        </extensions>
      </trkpt>
      <trkpt lat="36.82380122132599353790283203125" lon="-118.40915800072252750396728515625">
        <ele>3213.60009765625</ele>
        <time>2021-06-27T21:28:45.000Z</time>
        <extensions>
          <ns3:TrackPointExtension>
            <ns3:atemp>31.0</ns3:atemp>
            <ns3:hr>98</ns3:hr>
          </ns3:TrackPointExtension>
        </extensions>
      </trkpt>
      <trkpt lat="36.8238294683396816253662109375" lon="-118.40914048254489898681640625">
        <ele>3212.60009765625</ele>
        <time>2021-06-27T21:28:48.000Z</time>
        <extensions>
          <ns3:TrackPointExtension>
            <ns3:atemp>31.0</ns3:atemp>
            <ns3:hr>99</ns3:hr>
          </ns3:TrackPointExtension>
        </extensions>
      </trkpt>
      <trkpt lat="36.82383877225220203399658203125" lon="-118.40914140455424785614013671875">
        <ele>3212.60009765625</ele>
        <time>2021-06-27T21:28:49.000Z</time>
        <extensions>
          <ns3:TrackPointExtension>
            <ns3:atemp>31.0</ns3:atemp>
            <ns3:hr>99</ns3:hr>
          </ns3:TrackPointExtension>
        </extensions>
      </trkpt>
      <trkpt lat="36.82388068176805973052978515625" lon="-118.40915095992386341094970703125">
        <ele>3211.60009765625</ele>
        <time>2021-06-27T21:28:54.000Z</time>
        <extensions>
          <ns3:TrackPointExtension>
            <ns3:atemp>31.0</ns3:atemp>
            <ns3:hr>99</ns3:hr>
          </ns3:TrackPointExtension>
        </extensions>
      </trkpt>
      <trkpt lat="36.82388755492866039276123046875" lon="-118.40915397740900516510009765625">
        <ele>3211.39990234375</ele>
        <time>2021-06-27T21:28:55.000Z</time>
        <extensions>
          <ns3:TrackPointExtension>
            <ns3:atemp>31.0</ns3:atemp>
            <ns3:hr>97</ns3:hr>
          </ns3:TrackPointExtension>
        </extensions>
      </trkpt>
      <trkpt lat="36.82391135953366756439208984375" lon="-118.40917543508112430572509765625">
        <ele>3210.800048828125</ele>
        <time>2021-06-27T21:28:58.000Z</time>
        <extensions>
          <ns3:TrackPointExtension>
            <ns3:atemp>31.0</ns3:atemp>
            <ns3:hr>96</ns3:hr>
          </ns3:TrackPointExtension>
        </extensions>
      </trkpt>
      <trkpt lat="36.82392259128391742706298828125" lon="-118.40920192189514636993408203125">
        <ele>3210.199951171875</ele>
        <time>2021-06-27T21:29:01.000Z</time>
        <extensions>
          <ns3:TrackPointExtension>
            <ns3:atemp>30.0</ns3:atemp>
            <ns3:hr>97</ns3:hr>
          </ns3:TrackPointExtension>
        </extensions>
      </trkpt>
      <trkpt lat="36.82394756935536861419677734375" lon="-118.40925623662769794464111328125">
        <ele>3209.60009765625</ele>
        <time>2021-06-27T21:29:08.000Z</time>
        <extensions>
          <ns3:TrackPointExtension>
            <ns3:atemp>30.0</ns3:atemp>
            <ns3:hr>96</ns3:hr>
          </ns3:TrackPointExtension>
        </extensions>
      </trkpt>
      <trkpt lat="36.8239501677453517913818359375" lon="-118.40926931239664554595947265625">
        <ele>3209.39990234375</ele>
        <time>2021-06-27T21:29:09.000Z</time>
        <extensions>
          <ns3:TrackPointExtension>
            <ns3:atemp>30.0</ns3:atemp>
            <ns3:hr>96</ns3:hr>
          </ns3:TrackPointExtension>
        </extensions>
      </trkpt>
      <trkpt lat="36.8239535205066204071044921875" lon="-118.40929068624973297119140625">
        <ele>3209.199951171875</ele>
        <time>2021-06-27T21:29:11.000Z</time>
        <extensions>
          <ns3:TrackPointExtension>
            <ns3:atemp>30.0</ns3:atemp>
            <ns3:hr>96</ns3:hr>
          </ns3:TrackPointExtension>
        </extensions>
      </trkpt>
      <trkpt lat="36.82396642863750457763671875" lon="-118.40930652804672718048095703125">
        <ele>3209</ele>
        <time>2021-06-27T21:29:13.000Z</time>
        <extensions>
          <ns3:TrackPointExtension>
            <ns3:atemp>30.0</ns3:atemp>
            <ns3:hr>98</ns3:hr>
          </ns3:TrackPointExtension>
        </extensions>
      </trkpt>
      <trkpt lat="36.82399618439376354217529296875" lon="-118.40931239537894725799560546875">
        <ele>3208.800048828125</ele>
        <time>2021-06-27T21:29:16.000Z</time>
        <extensions>
          <ns3:TrackPointExtension>
            <ns3:atemp>30.0</ns3:atemp>
            <ns3:hr>97</ns3:hr>
          </ns3:TrackPointExtension>
        </extensions>
      </trkpt>
      <trkpt lat="36.8240220844745635986328125" lon="-118.40932597406208515167236328125">
        <ele>3208.800048828125</ele>
        <time>2021-06-27T21:29:19.000Z</time>
        <extensions>
          <ns3:TrackPointExtension>
            <ns3:atemp>30.0</ns3:atemp>
            <ns3:hr>98</ns3:hr>
          </ns3:TrackPointExtension>
        </extensions>
      </trkpt>
      <trkpt lat="36.82402652688324451446533203125" lon="-118.4093589149415493011474609375">
        <ele>3208</ele>
        <time>2021-06-27T21:29:22.000Z</time>
        <extensions>
          <ns3:TrackPointExtension>
            <ns3:atemp>30.0</ns3:atemp>
            <ns3:hr>100</ns3:hr>
          </ns3:TrackPointExtension>
        </extensions>
      </trkpt>
      <trkpt lat="36.82404295541346073150634765625" lon="-118.40943644754588603973388671875">
        <ele>3207.39990234375</ele>
        <time>2021-06-27T21:29:30.000Z</time>
        <extensions>
          <ns3:TrackPointExtension>
            <ns3:atemp>30.0</ns3:atemp>
            <ns3:hr>99</ns3:hr>
          </ns3:TrackPointExtension>
        </extensions>
      </trkpt>
      <trkpt lat="36.8240420334041118621826171875" lon="-118.40943418443202972412109375">
        <ele>3207.39990234375</ele>
        <time>2021-06-27T21:29:32.000Z</time>
        <extensions>
          <ns3:TrackPointExtension>
            <ns3:atemp>30.0</ns3:atemp>
            <ns3:hr>98</ns3:hr>
          </ns3:TrackPointExtension>
        </extensions>
      </trkpt>
      <trkpt lat="36.824057288467884063720703125" lon="-118.40940878726541996002197265625">
        <ele>3207.199951171875</ele>
        <time>2021-06-27T21:29:42.000Z</time>
        <extensions>
          <ns3:TrackPointExtension>
            <ns3:atemp>30.0</ns3:atemp>
            <ns3:hr>101</ns3:hr>
          </ns3:TrackPointExtension>
        </extensions>
      </trkpt>
      <trkpt lat="36.82405536063015460968017578125" lon="-118.4094065241515636444091796875">
        <ele>3207</ele>
        <time>2021-06-27T21:29:43.000Z</time>
        <extensions>
          <ns3:TrackPointExtension>
            <ns3:atemp>30.0</ns3:atemp>
            <ns3:hr>103</ns3:hr>
          </ns3:TrackPointExtension>
        </extensions>
      </trkpt>
      <trkpt lat="36.82405536063015460968017578125" lon="-118.4094065241515636444091796875">
        <ele>3207</ele>
        <time>2021-06-27T21:29:47.000Z</time>
        <extensions>
          <ns3:TrackPointExtension>
            <ns3:atemp>30.0</ns3:atemp>
            <ns3:hr>104</ns3:hr>
          </ns3:TrackPointExtension>
        </extensions>
      </trkpt>
      <trkpt lat="36.82405536063015460968017578125" lon="-118.40940870344638824462890625">
        <ele>3207.199951171875</ele>
        <time>2021-06-27T21:29:53.000Z</time>
        <extensions>
          <ns3:TrackPointExtension>
            <ns3:atemp>30.0</ns3:atemp>
            <ns3:hr>101</ns3:hr>
          </ns3:TrackPointExtension>
        </extensions>
      </trkpt>
      <trkpt lat="36.82406994514167308807373046875" lon="-118.4094155766069889068603515625">
        <ele>3207.199951171875</ele>
        <time>2021-06-27T21:30:13.000Z</time>
        <extensions>
          <ns3:TrackPointExtension>
            <ns3:atemp>30.0</ns3:atemp>
            <ns3:hr>104</ns3:hr>
          </ns3:TrackPointExtension>
        </extensions>
      </trkpt>
      <trkpt lat="36.8240701965987682342529296875" lon="-118.4094159118831157684326171875">
        <ele>3206.800048828125</ele>
        <time>2021-06-27T21:30:14.000Z</time>
        <extensions>
          <ns3:TrackPointExtension>
            <ns3:atemp>30.0</ns3:atemp>
            <ns3:hr>101</ns3:hr>
          </ns3:TrackPointExtension>
        </extensions>
      </trkpt>
      <trkpt lat="36.824070699512958526611328125" lon="-118.4094162471592426300048828125">
        <ele>3206.800048828125</ele>
        <time>2021-06-27T21:30:15.000Z</time>
        <extensions>
          <ns3:TrackPointExtension>
            <ns3:atemp>30.0</ns3:atemp>
            <ns3:hr>104</ns3:hr>
          </ns3:TrackPointExtension>
        </extensions>
      </trkpt>
      <trkpt lat="36.82408402673900127410888671875" lon="-118.40942085720598697662353515625">
        <ele>3207</ele>
        <time>2021-06-27T21:30:25.000Z</time>
        <extensions>
          <ns3:TrackPointExtension>
            <ns3:atemp>30.0</ns3:atemp>
            <ns3:hr>107</ns3:hr>
          </ns3:TrackPointExtension>
        </extensions>
      </trkpt>
      <trkpt lat="36.8240923248231410980224609375" lon="-118.40941968373954296112060546875">
        <ele>3206.800048828125</ele>
        <time>2021-06-27T21:30:36.000Z</time>
        <extensions>
          <ns3:TrackPointExtension>
            <ns3:atemp>30.0</ns3:atemp>
            <ns3:hr>104</ns3:hr>
          </ns3:TrackPointExtension>
        </extensions>
      </trkpt>
      <trkpt lat="36.8240940012037754058837890625" lon="-118.40941398404538631439208984375">
        <ele>3207</ele>
        <time>2021-06-27T21:30:42.000Z</time>
        <extensions>
          <ns3:TrackPointExtension>
            <ns3:atemp>30.0</ns3:atemp>
            <ns3:hr>101</ns3:hr>
          </ns3:TrackPointExtension>
        </extensions>
      </trkpt>
      <trkpt lat="36.82409492321312427520751953125" lon="-118.40941138565540313720703125">
        <ele>3207</ele>
        <time>2021-06-27T21:30:47.000Z</time>
        <extensions>
          <ns3:TrackPointExtension>
            <ns3:atemp>30.0</ns3:atemp>
            <ns3:hr>98</ns3:hr>
          </ns3:TrackPointExtension>
        </extensions>
      </trkpt>
      <trkpt lat="36.8241047300398349761962890625" lon="-118.40937291271984577178955078125">
        <ele>3207</ele>
        <time>2021-06-27T21:30:54.000Z</time>
        <extensions>
          <ns3:TrackPointExtension>
            <ns3:atemp>31.0</ns3:atemp>
            <ns3:hr>95</ns3:hr>
          </ns3:TrackPointExtension>
        </extensions>
      </trkpt>
      <trkpt lat="36.824121661484241485595703125" lon="-118.4093465097248554229736328125">
        <ele>3207</ele>
        <time>2021-06-27T21:30:56.000Z</time>
        <extensions>
          <ns3:TrackPointExtension>
            <ns3:atemp>31.0</ns3:atemp>
            <ns3:hr>96</ns3:hr>
          </ns3:TrackPointExtension>
        </extensions>
      </trkpt>
      <trkpt lat="36.82418528012931346893310546875" lon="-118.409285657107830047607421875">
        <ele>3207</ele>
        <time>2021-06-27T21:31:03.000Z</time>
        <extensions>
          <ns3:TrackPointExtension>
            <ns3:atemp>31.0</ns3:atemp>
            <ns3:hr>95</ns3:hr>
          </ns3:TrackPointExtension>
        </extensions>
      </trkpt>
      <trkpt lat="36.8242442049086093902587890625" lon="-118.4092536382377147674560546875">
        <ele>3205.800048828125</ele>
        <time>2021-06-27T21:31:08.000Z</time>
        <extensions>
          <ns3:TrackPointExtension>
            <ns3:atemp>31.0</ns3:atemp>
            <ns3:hr>96</ns3:hr>
          </ns3:TrackPointExtension>
        </extensions>
      </trkpt>
      <trkpt lat="36.8242777325212955474853515625" lon="-118.40924835763871669769287109375">
        <ele>3205.199951171875</ele>
        <time>2021-06-27T21:31:12.000Z</time>
        <extensions>
          <ns3:TrackPointExtension>
            <ns3:atemp>31.0</ns3:atemp>
            <ns3:hr>97</ns3:hr>
          </ns3:TrackPointExtension>
        </extensions>
      </trkpt>
      <trkpt lat="36.82429231703281402587890625" lon="-118.4092291630804538726806640625">
        <ele>3205.199951171875</ele>
        <time>2021-06-27T21:31:15.000Z</time>
        <extensions>
          <ns3:TrackPointExtension>
            <ns3:atemp>31.0</ns3:atemp>
            <ns3:hr>96</ns3:hr>
          </ns3:TrackPointExtension>
        </extensions>
      </trkpt>
      <trkpt lat="36.82429156266152858734130859375" lon="-118.40922321192920207977294921875">
        <ele>3205.199951171875</ele>
        <time>2021-06-27T21:31:17.000Z</time>
        <extensions>
          <ns3:TrackPointExtension>
            <ns3:atemp>31.0</ns3:atemp>
            <ns3:hr>96</ns3:hr>
          </ns3:TrackPointExtension>
        </extensions>
      </trkpt>
      <trkpt lat="36.824291311204433441162109375" lon="-118.409223966300487518310546875">
        <ele>3205.199951171875</ele>
        <time>2021-06-27T21:31:18.000Z</time>
        <extensions>
          <ns3:TrackPointExtension>
            <ns3:atemp>31.0</ns3:atemp>
            <ns3:hr>96</ns3:hr>
          </ns3:TrackPointExtension>
        </extensions>
      </trkpt>
      <trkpt lat="36.8243099190294742584228515625" lon="-118.4092281572520732879638671875">
        <ele>3205</ele>
        <time>2021-06-27T21:31:27.000Z</time>
        <extensions>
          <ns3:TrackPointExtension>
            <ns3:atemp>31.0</ns3:atemp>
            <ns3:hr>99</ns3:hr>
          </ns3:TrackPointExtension>
        </extensions>
      </trkpt>
      <trkpt lat="36.82431989349424839019775390625" lon="-118.40922555886209011077880859375">
        <ele>3204.60009765625</ele>
        <time>2021-06-27T21:31:28.000Z</time>
        <extensions>
          <ns3:TrackPointExtension>
            <ns3:atemp>31.0</ns3:atemp>
            <ns3:hr>99</ns3:hr>
          </ns3:TrackPointExtension>
        </extensions>
      </trkpt>
      <trkpt lat="36.82434151880443096160888671875" lon="-118.40921424329280853271484375">
        <ele>3204.60009765625</ele>
        <time>2021-06-27T21:31:30.000Z</time>
        <extensions>
          <ns3:TrackPointExtension>
            <ns3:atemp>31.0</ns3:atemp>
            <ns3:hr>100</ns3:hr>
          </ns3:TrackPointExtension>
        </extensions>
      </trkpt>
      <trkpt lat="36.82443355210125446319580078125" lon="-118.40920393355190753936767578125">
        <ele>3203.800048828125</ele>
        <time>2021-06-27T21:31:39.000Z</time>
        <extensions>
          <ns3:TrackPointExtension>
            <ns3:atemp>31.0</ns3:atemp>
            <ns3:hr>101</ns3:hr>
          </ns3:TrackPointExtension>
        </extensions>
      </trkpt>
      <trkpt lat="36.824442856013774871826171875" lon="-118.40920276008546352386474609375">
        <ele>3203.60009765625</ele>
        <time>2021-06-27T21:31:40.000Z</time>
        <extensions>
          <ns3:TrackPointExtension>
            <ns3:atemp>31.0</ns3:atemp>
            <ns3:hr>101</ns3:hr>
          </ns3:TrackPointExtension>
        </extensions>
      </trkpt>
      <trkpt lat="36.82450295425951480865478515625" lon="-118.40917945839464664459228515625">
        <ele>3203</ele>
        <time>2021-06-27T21:31:47.000Z</time>
        <extensions>
          <ns3:TrackPointExtension>
            <ns3:atemp>31.0</ns3:atemp>
            <ns3:hr>98</ns3:hr>
          </ns3:TrackPointExtension>
        </extensions>
      </trkpt>
      <trkpt lat="36.8245102465152740478515625" lon="-118.40917392633855342864990234375">
        <ele>3202.800048828125</ele>
        <time>2021-06-27T21:31:48.000Z</time>
        <extensions>
          <ns3:TrackPointExtension>
            <ns3:atemp>31.0</ns3:atemp>
            <ns3:hr>97</ns3:hr>
          </ns3:TrackPointExtension>
        </extensions>
      </trkpt>
      <trkpt lat="36.8245182931423187255859375" lon="-118.409168981015682220458984375">
        <ele>3202.39990234375</ele>
        <time>2021-06-27T21:31:49.000Z</time>
        <extensions>
          <ns3:TrackPointExtension>
            <ns3:atemp>31.0</ns3:atemp>
            <ns3:hr>96</ns3:hr>
          </ns3:TrackPointExtension>
        </extensions>
      </trkpt>
      <trkpt lat="36.82458476163446903228759765625" lon="-118.40915699489414691925048828125">
        <ele>3201.39990234375</ele>
        <time>2021-06-27T21:31:55.000Z</time>
        <extensions>
          <ns3:TrackPointExtension>
            <ns3:atemp>31.0</ns3:atemp>
            <ns3:hr>94</ns3:hr>
          </ns3:TrackPointExtension>
        </extensions>
      </trkpt>
      <trkpt lat="36.8245955742895603179931640625" lon="-118.409156240522861480712890625">
        <ele>3201.199951171875</ele>
        <time>2021-06-27T21:31:56.000Z</time>
        <extensions>
          <ns3:TrackPointExtension>
            <ns3:atemp>31.0</ns3:atemp>
            <ns3:hr>94</ns3:hr>
          </ns3:TrackPointExtension>
        </extensions>
      </trkpt>
      <trkpt lat="36.82463203556835651397705078125" lon="-118.4091436676681041717529296875">
        <ele>3200.39990234375</ele>
        <time>2021-06-27T21:32:00.000Z</time>
        <extensions>
          <ns3:TrackPointExtension>
            <ns3:atemp>31.0</ns3:atemp>
            <ns3:hr>92</ns3:hr>
          </ns3:TrackPointExtension>
        </extensions>
      </trkpt>
      <trkpt lat="36.82464100420475006103515625" lon="-118.40914249420166015625">
        <ele>3200.39990234375</ele>
        <time>2021-06-27T21:32:01.000Z</time>
        <extensions>
          <ns3:TrackPointExtension>
            <ns3:atemp>31.0</ns3:atemp>
            <ns3:hr>91</ns3:hr>
          </ns3:TrackPointExtension>
        </extensions>
      </trkpt>
      <trkpt lat="36.8246679939329624176025390625" lon="-118.40913888998329639434814453125">
        <ele>3199.800048828125</ele>
        <time>2021-06-27T21:32:04.000Z</time>
        <extensions>
          <ns3:TrackPointExtension>
            <ns3:atemp>31.0</ns3:atemp>
            <ns3:hr>89</ns3:hr>
          </ns3:TrackPointExtension>
        </extensions>
      </trkpt>
      <trkpt lat="36.8246860988438129425048828125" lon="-118.40913134627044200897216796875">
        <ele>3199.39990234375</ele>
        <time>2021-06-27T21:32:09.000Z</time>
        <extensions>
          <ns3:TrackPointExtension>
            <ns3:atemp>31.0</ns3:atemp>
            <ns3:hr>89</ns3:hr>
          </ns3:TrackPointExtension>
        </extensions>
      </trkpt>
      <trkpt lat="36.82468601502478122711181640625" lon="-118.40912581421434879302978515625">
        <ele>3199.39990234375</ele>
        <time>2021-06-27T21:32:12.000Z</time>
        <extensions>
          <ns3:TrackPointExtension>
            <ns3:atemp>31.0</ns3:atemp>
            <ns3:hr>90</ns3:hr>
          </ns3:TrackPointExtension>
        </extensions>
      </trkpt>
      <trkpt lat="36.8246891163289546966552734375" lon="-118.4091265685856342315673828125">
        <ele>3199</ele>
        <time>2021-06-27T21:32:25.000Z</time>
        <extensions>
          <ns3:TrackPointExtension>
            <ns3:atemp>31.0</ns3:atemp>
            <ns3:hr>93</ns3:hr>
          </ns3:TrackPointExtension>
        </extensions>
      </trkpt>
      <trkpt lat="36.824689619243144989013671875" lon="-118.4091258980333805084228515625">
        <ele>3198.800048828125</ele>
        <time>2021-06-27T21:32:40.000Z</time>
        <extensions>
          <ns3:TrackPointExtension>
            <ns3:atemp>31.0</ns3:atemp>
            <ns3:hr>96</ns3:hr>
          </ns3:TrackPointExtension>
        </extensions>
      </trkpt>
      <trkpt lat="36.8247112445533275604248046875" lon="-118.409118689596652984619140625">
        <ele>3198.800048828125</ele>
        <time>2021-06-27T21:32:44.000Z</time>
        <extensions>
          <ns3:TrackPointExtension>
            <ns3:atemp>31.0</ns3:atemp>
            <ns3:hr>99</ns3:hr>
          </ns3:TrackPointExtension>
        </extensions>
      </trkpt>
      <trkpt lat="36.824715100228786468505859375" lon="-118.40911122970283031463623046875">
        <ele>3198.39990234375</ele>
        <time>2021-06-27T21:32:57.000Z</time>
        <extensions>
          <ns3:TrackPointExtension>
            <ns3:atemp>31.0</ns3:atemp>
            <ns3:hr>99</ns3:hr>
          </ns3:TrackPointExtension>
        </extensions>
      </trkpt>
      <trkpt lat="36.824765391647815704345703125" lon="-118.40909890830516815185546875">
        <ele>3198</ele>
        <time>2021-06-27T21:33:04.000Z</time>
        <extensions>
          <ns3:TrackPointExtension>
            <ns3:atemp>31.0</ns3:atemp>
            <ns3:hr>99</ns3:hr>
          </ns3:TrackPointExtension>
        </extensions>
      </trkpt>
      <trkpt lat="36.82478978298604488372802734375" lon="-118.40909714810550212860107421875">
        <ele>3197.199951171875</ele>
        <time>2021-06-27T21:33:06.000Z</time>
        <extensions>
          <ns3:TrackPointExtension>
            <ns3:atemp>31.0</ns3:atemp>
            <ns3:hr>99</ns3:hr>
          </ns3:TrackPointExtension>
        </extensions>
      </trkpt>
      <trkpt lat="36.82484644465148448944091796875" lon="-118.40909597463905811309814453125">
        <ele>3196.199951171875</ele>
        <time>2021-06-27T21:33:13.000Z</time>
        <extensions>
          <ns3:TrackPointExtension>
            <ns3:atemp>31.0</ns3:atemp>
            <ns3:hr>97</ns3:hr>
          </ns3:TrackPointExtension>
        </extensions>
      </trkpt>
      <trkpt lat="36.82485315017402172088623046875" lon="-118.40909128077328205108642578125">
        <ele>3196</ele>
        <time>2021-06-27T21:33:14.000Z</time>
        <extensions>
          <ns3:TrackPointExtension>
            <ns3:atemp>31.0</ns3:atemp>
            <ns3:hr>97</ns3:hr>
          </ns3:TrackPointExtension>
        </extensions>
      </trkpt>
      <trkpt lat="36.82491081766784191131591796875" lon="-118.409055657684803009033203125">
        <ele>3195.199951171875</ele>
        <time>2021-06-27T21:33:21.000Z</time>
        <extensions>
          <ns3:TrackPointExtension>
            <ns3:atemp>31.0</ns3:atemp>
            <ns3:hr>94</ns3:hr>
          </ns3:TrackPointExtension>
        </extensions>
      </trkpt>
      <trkpt lat="36.82493738830089569091796875" lon="-118.40903914533555507659912109375">
        <ele>3194.800048828125</ele>
        <time>2021-06-27T21:33:24.000Z</time>
        <extensions>
          <ns3:TrackPointExtension>
            <ns3:atemp>31.0</ns3:atemp>
            <ns3:hr>95</ns3:hr>
          </ns3:TrackPointExtension>
        </extensions>
      </trkpt>
      <trkpt lat="36.8249715864658355712890625" lon="-118.409017436206340789794921875">
        <ele>3194</ele>
        <time>2021-06-27T21:33:28.000Z</time>
        <extensions>
          <ns3:TrackPointExtension>
            <ns3:atemp>31.0</ns3:atemp>
            <ns3:hr>97</ns3:hr>
          </ns3:TrackPointExtension>
        </extensions>
      </trkpt>
      <trkpt lat="36.8249958939850330352783203125" lon="-118.4089820645749568939208984375">
        <ele>3193.60009765625</ele>
        <time>2021-06-27T21:33:32.000Z</time>
        <extensions>
          <ns3:TrackPointExtension>
            <ns3:atemp>31.0</ns3:atemp>
            <ns3:hr>95</ns3:hr>
          </ns3:TrackPointExtension>
        </extensions>
      </trkpt>
      <trkpt lat="36.82501626200973987579345703125" lon="-118.4089592657983303070068359375">
        <ele>3193.60009765625</ele>
        <time>2021-06-27T21:33:35.000Z</time>
        <extensions>
          <ns3:TrackPointExtension>
            <ns3:atemp>31.0</ns3:atemp>
            <ns3:hr>92</ns3:hr>
          </ns3:TrackPointExtension>
        </extensions>
      </trkpt>
      <trkpt lat="36.825053058564662933349609375" lon="-118.40893185697495937347412109375">
        <ele>3193</ele>
        <time>2021-06-27T21:33:39.000Z</time>
        <extensions>
          <ns3:TrackPointExtension>
            <ns3:atemp>31.0</ns3:atemp>
            <ns3:hr>89</ns3:hr>
          </ns3:TrackPointExtension>
        </extensions>
      </trkpt>
      <trkpt lat="36.82506076991558074951171875" lon="-118.40892598964273929595947265625">
        <ele>3193</ele>
        <time>2021-06-27T21:33:40.000Z</time>
        <extensions>
          <ns3:TrackPointExtension>
            <ns3:atemp>31.0</ns3:atemp>
            <ns3:hr>90</ns3:hr>
          </ns3:TrackPointExtension>
        </extensions>
      </trkpt>
      <trkpt lat="36.82506873272359371185302734375" lon="-118.40891861356794834136962890625">
        <ele>3192.800048828125</ele>
        <time>2021-06-27T21:33:41.000Z</time>
        <extensions>
          <ns3:TrackPointExtension>
            <ns3:atemp>31.0</ns3:atemp>
            <ns3:hr>90</ns3:hr>
          </ns3:TrackPointExtension>
        </extensions>
      </trkpt>
      <trkpt lat="36.82511064223945140838623046875" lon="-118.408881984651088714599609375">
        <ele>3191.800048828125</ele>
        <time>2021-06-27T21:33:47.000Z</time>
        <extensions>
          <ns3:TrackPointExtension>
            <ns3:atemp>31.0</ns3:atemp>
            <ns3:hr>92</ns3:hr>
          </ns3:TrackPointExtension>
        </extensions>
      </trkpt>
      <trkpt lat="36.8251182697713375091552734375" lon="-118.4088764525949954986572265625">
        <ele>3191.60009765625</ele>
        <time>2021-06-27T21:33:48.000Z</time>
        <extensions>
          <ns3:TrackPointExtension>
            <ns3:atemp>31.0</ns3:atemp>
            <ns3:hr>91</ns3:hr>
          </ns3:TrackPointExtension>
        </extensions>
      </trkpt>
      <trkpt lat="36.82515867054462432861328125" lon="-118.40885616838932037353515625">
        <ele>3190.800048828125</ele>
        <time>2021-06-27T21:33:54.000Z</time>
        <extensions>
          <ns3:TrackPointExtension>
            <ns3:atemp>31.0</ns3:atemp>
            <ns3:hr>89</ns3:hr>
          </ns3:TrackPointExtension>
        </extensions>
      </trkpt>
      <trkpt lat="36.8251658789813518524169921875" lon="-118.40884543955326080322265625">
        <ele>3190.60009765625</ele>
        <time>2021-06-27T21:33:55.000Z</time>
        <extensions>
          <ns3:TrackPointExtension>
            <ns3:atemp>31.0</ns3:atemp>
            <ns3:hr>88</ns3:hr>
          </ns3:TrackPointExtension>
        </extensions>
      </trkpt>
      <trkpt lat="36.8252263963222503662109375" lon="-118.40880126692354679107666015625">
        <ele>3189.800048828125</ele>
        <time>2021-06-27T21:34:02.000Z</time>
        <extensions>
          <ns3:TrackPointExtension>
            <ns3:atemp>31.0</ns3:atemp>
            <ns3:hr>89</ns3:hr>
          </ns3:TrackPointExtension>
        </extensions>
      </trkpt>
      <trkpt lat="36.825244165956974029541015625" lon="-118.408797495067119598388671875">
        <ele>3189.39990234375</ele>
        <time>2021-06-27T21:34:05.000Z</time>
        <extensions>
          <ns3:TrackPointExtension>
            <ns3:atemp>31.0</ns3:atemp>
            <ns3:hr>89</ns3:hr>
          </ns3:TrackPointExtension>
        </extensions>
      </trkpt>
      <trkpt lat="36.82524559088051319122314453125" lon="-118.4087951481342315673828125">
        <ele>3189.39990234375</ele>
        <time>2021-06-27T21:34:06.000Z</time>
        <extensions>
          <ns3:TrackPointExtension>
            <ns3:atemp>31.0</ns3:atemp>
            <ns3:hr>89</ns3:hr>
          </ns3:TrackPointExtension>
        </extensions>
      </trkpt>
      <trkpt lat="36.82524240575730800628662109375" lon="-118.40878567658364772796630859375">
        <ele>3189.199951171875</ele>
        <time>2021-06-27T21:34:11.000Z</time>
        <extensions>
          <ns3:TrackPointExtension>
            <ns3:atemp>31.0</ns3:atemp>
            <ns3:hr>89</ns3:hr>
          </ns3:TrackPointExtension>
        </extensions>
      </trkpt>
      <trkpt lat="36.82524257339537143707275390625" lon="-118.40878752060234546661376953125">
        <ele>3189.199951171875</ele>
        <time>2021-06-27T21:34:12.000Z</time>
        <extensions>
          <ns3:TrackPointExtension>
            <ns3:atemp>31.0</ns3:atemp>
            <ns3:hr>91</ns3:hr>
          </ns3:TrackPointExtension>
        </extensions>
      </trkpt>
      <trkpt lat="36.825241148471832275390625" lon="-118.4087876044213771820068359375">
        <ele>3189</ele>
        <time>2021-06-27T21:34:14.000Z</time>
        <extensions>
          <ns3:TrackPointExtension>
            <ns3:atemp>31.0</ns3:atemp>
            <ns3:hr>90</ns3:hr>
          </ns3:TrackPointExtension>
        </extensions>
      </trkpt>
      <trkpt lat="36.82524072937667369842529296875" lon="-118.40878785587847232818603515625">
        <ele>3189</ele>
        <time>2021-06-27T21:34:16.000Z</time>
        <extensions>
          <ns3:TrackPointExtension>
            <ns3:atemp>31.0</ns3:atemp>
            <ns3:hr>93</ns3:hr>
          </ns3:TrackPointExtension>
        </extensions>
      </trkpt>
      <trkpt lat="36.8252384662628173828125" lon="-118.4087871015071868896484375">
        <ele>3188.60009765625</ele>
        <time>2021-06-27T21:34:32.000Z</time>
        <extensions>
          <ns3:TrackPointExtension>
            <ns3:atemp>31.0</ns3:atemp>
            <ns3:hr>92</ns3:hr>
          </ns3:TrackPointExtension>
        </extensions>
      </trkpt>
      <trkpt lat="36.82528682984411716461181640625" lon="-118.4087316133081912994384765625">
        <ele>3188.199951171875</ele>
        <time>2021-06-27T21:34:38.000Z</time>
        <extensions>
          <ns3:TrackPointExtension>
            <ns3:atemp>31.0</ns3:atemp>
            <ns3:hr>94</ns3:hr>
          </ns3:TrackPointExtension>
        </extensions>
      </trkpt>
      <trkpt lat="36.8253502808511257171630859375" lon="-118.40870923362672328948974609375">
        <ele>3187.800048828125</ele>
        <time>2021-06-27T21:34:43.000Z</time>
        <extensions>
          <ns3:TrackPointExtension>
            <ns3:atemp>31.0</ns3:atemp>
            <ns3:hr>94</ns3:hr>
          </ns3:TrackPointExtension>
        </extensions>
      </trkpt>
      <trkpt lat="36.825368218123912811279296875" lon="-118.40870386920869350433349609375">
        <ele>3187.199951171875</ele>
        <time>2021-06-27T21:34:45.000Z</time>
        <extensions>
          <ns3:TrackPointExtension>
            <ns3:atemp>31.0</ns3:atemp>
            <ns3:hr>94</ns3:hr>
          </ns3:TrackPointExtension>
        </extensions>
      </trkpt>
      <trkpt lat="36.82538338936865329742431640625" lon="-118.4086932241916656494140625">
        <ele>3187.199951171875</ele>
        <time>2021-06-27T21:34:47.000Z</time>
        <extensions>
          <ns3:TrackPointExtension>
            <ns3:atemp>31.0</ns3:atemp>
            <ns3:hr>93</ns3:hr>
          </ns3:TrackPointExtension>
        </extensions>
      </trkpt>
      <trkpt lat="36.82544524781405925750732421875" lon="-118.40870135463774204254150390625">
        <ele>3186.39990234375</ele>
        <time>2021-06-27T21:34:53.000Z</time>
        <extensions>
          <ns3:TrackPointExtension>
            <ns3:atemp>31.0</ns3:atemp>
            <ns3:hr>90</ns3:hr>
          </ns3:TrackPointExtension>
        </extensions>
      </trkpt>
      <trkpt lat="36.82546821422874927520751953125" lon="-118.4087000973522663116455078125">
        <ele>3185.39990234375</ele>
        <time>2021-06-27T21:34:55.000Z</time>
        <extensions>
          <ns3:TrackPointExtension>
            <ns3:atemp>31.0</ns3:atemp>
            <ns3:hr>90</ns3:hr>
          </ns3:TrackPointExtension>
        </extensions>
      </trkpt>
      <trkpt lat="36.82550861500203609466552734375" lon="-118.4087026119232177734375">
        <ele>3184.800048828125</ele>
        <time>2021-06-27T21:34:59.000Z</time>
        <extensions>
          <ns3:TrackPointExtension>
            <ns3:atemp>31.0</ns3:atemp>
            <ns3:hr>89</ns3:hr>
          </ns3:TrackPointExtension>
        </extensions>
      </trkpt>
      <trkpt lat="36.82551850564777851104736328125" lon="-118.4087014384567737579345703125">
        <ele>3184.800048828125</ele>
        <time>2021-06-27T21:35:00.000Z</time>
        <extensions>
          <ns3:TrackPointExtension>
            <ns3:atemp>31.0</ns3:atemp>
            <ns3:hr>92</ns3:hr>
          </ns3:TrackPointExtension>
        </extensions>
      </trkpt>
      <trkpt lat="36.82553024031221866607666015625" lon="-118.4086994268000125885009765625">
        <ele>3184.60009765625</ele>
        <time>2021-06-27T21:35:01.000Z</time>
        <extensions>
          <ns3:TrackPointExtension>
            <ns3:atemp>31.0</ns3:atemp>
            <ns3:hr>89</ns3:hr>
          </ns3:TrackPointExtension>
        </extensions>
      </trkpt>
      <trkpt lat="36.82554080151021480560302734375" lon="-118.40869925916194915771484375">
        <ele>3184.60009765625</ele>
        <time>2021-06-27T21:35:02.000Z</time>
        <extensions>
          <ns3:TrackPointExtension>
            <ns3:atemp>31.0</ns3:atemp>
            <ns3:hr>90</ns3:hr>
          </ns3:TrackPointExtension>
        </extensions>
      </trkpt>
      <trkpt lat="36.82555085979402065277099609375" lon="-118.408700264990329742431640625">
        <ele>3184.199951171875</ele>
        <time>2021-06-27T21:35:03.000Z</time>
        <extensions>
          <ns3:TrackPointExtension>
            <ns3:atemp>31.0</ns3:atemp>
            <ns3:hr>89</ns3:hr>
          </ns3:TrackPointExtension>
        </extensions>
      </trkpt>
      <trkpt lat="36.8256260454654693603515625" lon="-118.4087195433676242828369140625">
        <ele>3183.800048828125</ele>
        <time>2021-06-27T21:35:10.000Z</time>
        <extensions>
          <ns3:TrackPointExtension>
            <ns3:atemp>31.0</ns3:atemp>
            <ns3:hr>90</ns3:hr>
          </ns3:TrackPointExtension>
        </extensions>
      </trkpt>
      <trkpt lat="36.82564691640436649322509765625" lon="-118.4087198786437511444091796875">
        <ele>3183.39990234375</ele>
        <time>2021-06-27T21:35:12.000Z</time>
        <extensions>
          <ns3:TrackPointExtension>
            <ns3:atemp>31.0</ns3:atemp>
            <ns3:hr>91</ns3:hr>
          </ns3:TrackPointExtension>
        </extensions>
      </trkpt>
      <trkpt lat="36.8256563879549503326416015625" lon="-118.40871862135827541351318359375">
        <ele>3183</ele>
        <time>2021-06-27T21:35:13.000Z</time>
        <extensions>
          <ns3:TrackPointExtension>
            <ns3:atemp>31.0</ns3:atemp>
            <ns3:hr>92</ns3:hr>
          </ns3:TrackPointExtension>
        </extensions>
      </trkpt>
      <trkpt lat="36.8256781809031963348388671875" lon="-118.40872733853757381439208984375">
        <ele>3182.800048828125</ele>
        <time>2021-06-27T21:35:16.000Z</time>
        <extensions>
          <ns3:TrackPointExtension>
            <ns3:atemp>31.0</ns3:atemp>
            <ns3:hr>94</ns3:hr>
          </ns3:TrackPointExtension>
        </extensions>
      </trkpt>
      <trkpt lat="36.82571925222873687744140625" lon="-118.40877209790050983428955078125">
        <ele>3182.60009765625</ele>
        <time>2021-06-27T21:35:21.000Z</time>
        <extensions>
          <ns3:TrackPointExtension>
            <ns3:atemp>31.0</ns3:atemp>
            <ns3:hr>97</ns3:hr>
          </ns3:TrackPointExtension>
        </extensions>
      </trkpt>
      <trkpt lat="36.82579829357564449310302734375" lon="-118.40881048701703548431396484375">
        <ele>3182.199951171875</ele>
        <time>2021-06-27T21:35:28.000Z</time>
        <extensions>
          <ns3:TrackPointExtension>
            <ns3:atemp>32.0</ns3:atemp>
            <ns3:hr>98</ns3:hr>
          </ns3:TrackPointExtension>
        </extensions>
      </trkpt>
      <trkpt lat="36.825818158686161041259765625" lon="-118.40882356278598308563232421875">
        <ele>3181.800048828125</ele>
        <time>2021-06-27T21:35:30.000Z</time>
        <extensions>
          <ns3:TrackPointExtension>
            <ns3:atemp>32.0</ns3:atemp>
            <ns3:hr>98</ns3:hr>
          </ns3:TrackPointExtension>
        </extensions>
      </trkpt>
      <trkpt lat="36.825880520045757293701171875" lon="-118.4088476188480854034423828125">
        <ele>3180.800048828125</ele>
        <time>2021-06-27T21:35:37.000Z</time>
        <extensions>
          <ns3:TrackPointExtension>
            <ns3:atemp>32.0</ns3:atemp>
            <ns3:hr>99</ns3:hr>
          </ns3:TrackPointExtension>
        </extensions>
      </trkpt>
      <trkpt lat="36.82589585892856121063232421875" lon="-118.40885876677930355072021484375">
        <ele>3180.800048828125</ele>
        <time>2021-06-27T21:35:39.000Z</time>
        <extensions>
          <ns3:TrackPointExtension>
            <ns3:atemp>32.0</ns3:atemp>
            <ns3:hr>99</ns3:hr>
          </ns3:TrackPointExtension>
        </extensions>
      </trkpt>
      <trkpt lat="36.82592418976128101348876953125" lon="-118.40889497660100460052490234375">
        <ele>3180.60009765625</ele>
        <time>2021-06-27T21:35:42.000Z</time>
        <extensions>
          <ns3:TrackPointExtension>
            <ns3:atemp>32.0</ns3:atemp>
            <ns3:hr>105</ns3:hr>
          </ns3:TrackPointExtension>
        </extensions>
      </trkpt>
      <trkpt lat="36.82593517005443572998046875" lon="-118.4088969044387340545654296875">
        <ele>3180.60009765625</ele>
        <time>2021-06-27T21:35:43.000Z</time>
        <extensions>
          <ns3:TrackPointExtension>
            <ns3:atemp>32.0</ns3:atemp>
            <ns3:hr>100</ns3:hr>
          </ns3:TrackPointExtension>
        </extensions>
      </trkpt>
      <trkpt lat="36.8259665183722972869873046875" lon="-118.4089166857302188873291015625">
        <ele>3180.60009765625</ele>
        <time>2021-06-27T21:35:46.000Z</time>
        <extensions>
          <ns3:TrackPointExtension>
            <ns3:atemp>32.0</ns3:atemp>
            <ns3:hr>98</ns3:hr>
          </ns3:TrackPointExtension>
        </extensions>
      </trkpt>
      <trkpt lat="36.82598336599767208099365234375" lon="-118.4089227207005023956298828125">
        <ele>3180.199951171875</ele>
        <time>2021-06-27T21:35:48.000Z</time>
        <extensions>
          <ns3:TrackPointExtension>
            <ns3:atemp>32.0</ns3:atemp>
            <ns3:hr>97</ns3:hr>
          </ns3:TrackPointExtension>
        </extensions>
      </trkpt>
      <trkpt lat="36.826011277735233306884765625" lon="-118.40893520973622798919677734375">
        <ele>3180</ele>
        <time>2021-06-27T21:35:51.000Z</time>
        <extensions>
          <ns3:TrackPointExtension>
            <ns3:atemp>32.0</ns3:atemp>
            <ns3:hr>94</ns3:hr>
          </ns3:TrackPointExtension>
        </extensions>
      </trkpt>
      <trkpt lat="36.82603483088314533233642578125" lon="-118.40894736349582672119140625">
        <ele>3180</ele>
        <time>2021-06-27T21:35:53.000Z</time>
        <extensions>
          <ns3:TrackPointExtension>
            <ns3:atemp>32.0</ns3:atemp>
            <ns3:hr>93</ns3:hr>
          </ns3:TrackPointExtension>
        </extensions>
      </trkpt>
      <trkpt lat="36.82604505680501461029052734375" lon="-118.408950380980968475341796875">
        <ele>3179.800048828125</ele>
        <time>2021-06-27T21:35:54.000Z</time>
        <extensions>
          <ns3:TrackPointExtension>
            <ns3:atemp>32.0</ns3:atemp>
            <ns3:hr>95</ns3:hr>
          </ns3:TrackPointExtension>
        </extensions>
      </trkpt>
      <trkpt lat="36.82611764408648014068603515625" lon="-118.40896219946444034576416015625">
        <ele>3179.800048828125</ele>
        <time>2021-06-27T21:36:00.000Z</time>
        <extensions>
          <ns3:TrackPointExtension>
            <ns3:atemp>32.0</ns3:atemp>
            <ns3:hr>95</ns3:hr>
          </ns3:TrackPointExtension>
        </extensions>
      </trkpt>
      <trkpt lat="36.82613977231085300445556640625" lon="-118.408964462578296661376953125">
        <ele>3179.800048828125</ele>
        <time>2021-06-27T21:36:02.000Z</time>
        <extensions>
          <ns3:TrackPointExtension>
            <ns3:atemp>32.0</ns3:atemp>
            <ns3:hr>91</ns3:hr>
          </ns3:TrackPointExtension>
        </extensions>
      </trkpt>
      <trkpt lat="36.82614916004240512847900390625" lon="-118.4089599363505840301513671875">
        <ele>3180</ele>
        <time>2021-06-27T21:36:03.000Z</time>
        <extensions>
          <ns3:TrackPointExtension>
            <ns3:atemp>32.0</ns3:atemp>
            <ns3:hr>94</ns3:hr>
          </ns3:TrackPointExtension>
        </extensions>
      </trkpt>
      <trkpt lat="36.82624722830951213836669921875" lon="-118.40897577814757823944091796875">
        <ele>3179.60009765625</ele>
        <time>2021-06-27T21:36:11.000Z</time>
        <extensions>
          <ns3:TrackPointExtension>
            <ns3:atemp>32.0</ns3:atemp>
            <ns3:hr>93</ns3:hr>
          </ns3:TrackPointExtension>
        </extensions>
      </trkpt>
      <trkpt lat="36.82627522386610507965087890625" lon="-118.40900511480867862701416015625">
        <ele>3179.39990234375</ele>
        <time>2021-06-27T21:36:14.000Z</time>
        <extensions>
          <ns3:TrackPointExtension>
            <ns3:atemp>32.0</ns3:atemp>
            <ns3:hr>97</ns3:hr>
          </ns3:TrackPointExtension>
        </extensions>
      </trkpt>
      <trkpt lat="36.82633071206510066986083984375" lon="-118.409039564430713653564453125">
        <ele>3179</ele>
        <time>2021-06-27T21:36:19.000Z</time>
        <extensions>
          <ns3:TrackPointExtension>
            <ns3:atemp>32.0</ns3:atemp>
            <ns3:hr>98</ns3:hr>
          </ns3:TrackPointExtension>
        </extensions>
      </trkpt>
      <trkpt lat="36.8263745494186878204345703125" lon="-118.40905289165675640106201171875">
        <ele>3178.60009765625</ele>
        <time>2021-06-27T21:36:23.000Z</time>
        <extensions>
          <ns3:TrackPointExtension>
            <ns3:atemp>32.0</ns3:atemp>
            <ns3:hr>99</ns3:hr>
          </ns3:TrackPointExtension>
        </extensions>
      </trkpt>
      <trkpt lat="36.8264074064791202545166015625" lon="-118.40906496159732341766357421875">
        <ele>3178.60009765625</ele>
        <time>2021-06-27T21:36:26.000Z</time>
        <extensions>
          <ns3:TrackPointExtension>
            <ns3:atemp>32.0</ns3:atemp>
            <ns3:hr>99</ns3:hr>
          </ns3:TrackPointExtension>
        </extensions>
      </trkpt>
      <trkpt lat="36.82645149528980255126953125" lon="-118.40908323414623737335205078125">
        <ele>3177.39990234375</ele>
        <time>2021-06-27T21:36:30.000Z</time>
        <extensions>
          <ns3:TrackPointExtension>
            <ns3:atemp>32.0</ns3:atemp>
            <ns3:hr>100</ns3:hr>
          </ns3:TrackPointExtension>
        </extensions>
      </trkpt>
      <trkpt lat="36.826483346521854400634765625" lon="-118.40909622609615325927734375">
        <ele>3177.199951171875</ele>
        <time>2021-06-27T21:36:34.000Z</time>
        <extensions>
          <ns3:TrackPointExtension>
            <ns3:atemp>32.0</ns3:atemp>
            <ns3:hr>103</ns3:hr>
          </ns3:TrackPointExtension>
        </extensions>
      </trkpt>
      <trkpt lat="36.82649147696793079376220703125" lon="-118.40910469181835651397705078125">
        <ele>3177.199951171875</ele>
        <time>2021-06-27T21:36:35.000Z</time>
        <extensions>
          <ns3:TrackPointExtension>
            <ns3:atemp>32.0</ns3:atemp>
            <ns3:hr>104</ns3:hr>
          </ns3:TrackPointExtension>
        </extensions>
      </trkpt>
      <trkpt lat="36.82652031071484088897705078125" lon="-118.40911542065441608428955078125">
        <ele>3176.800048828125</ele>
        <time>2021-06-27T21:36:38.000Z</time>
        <extensions>
          <ns3:TrackPointExtension>
            <ns3:atemp>32.0</ns3:atemp>
            <ns3:hr>104</ns3:hr>
          </ns3:TrackPointExtension>
        </extensions>
      </trkpt>
      <trkpt lat="36.82656439952552318572998046875" lon="-118.4091238863766193389892578125">
        <ele>3176.60009765625</ele>
        <time>2021-06-27T21:36:42.000Z</time>
        <extensions>
          <ns3:TrackPointExtension>
            <ns3:atemp>32.0</ns3:atemp>
            <ns3:hr>105</ns3:hr>
          </ns3:TrackPointExtension>
        </extensions>
      </trkpt>
      <trkpt lat="36.8265837617218494415283203125" lon="-118.40912816114723682403564453125">
        <ele>3176.39990234375</ele>
        <time>2021-06-27T21:36:44.000Z</time>
        <extensions>
          <ns3:TrackPointExtension>
            <ns3:atemp>32.0</ns3:atemp>
            <ns3:hr>102</ns3:hr>
          </ns3:TrackPointExtension>
        </extensions>
      </trkpt>
      <trkpt lat="36.8265908025205135345458984375" lon="-118.40913184918463230133056640625">
        <ele>3176.39990234375</ele>
        <time>2021-06-27T21:36:45.000Z</time>
        <extensions>
          <ns3:TrackPointExtension>
            <ns3:atemp>32.0</ns3:atemp>
            <ns3:hr>104</ns3:hr>
          </ns3:TrackPointExtension>
        </extensions>
      </trkpt>
      <trkpt lat="36.82663832791149616241455078125" lon="-118.40914090164005756378173828125">
        <ele>3175.60009765625</ele>
        <time>2021-06-27T21:36:49.000Z</time>
        <extensions>
          <ns3:TrackPointExtension>
            <ns3:atemp>32.0</ns3:atemp>
            <ns3:hr>102</ns3:hr>
          </ns3:TrackPointExtension>
        </extensions>
      </trkpt>
      <trkpt lat="36.8266819976270198822021484375" lon="-118.4091349504888057708740234375">
        <ele>3175.39990234375</ele>
        <time>2021-06-27T21:36:53.000Z</time>
        <extensions>
          <ns3:TrackPointExtension>
            <ns3:atemp>32.0</ns3:atemp>
            <ns3:hr>100</ns3:hr>
          </ns3:TrackPointExtension>
        </extensions>
      </trkpt>
      <trkpt lat="36.8267235718667507171630859375" lon="-118.40914475731551647186279296875">
        <ele>3175</ele>
        <time>2021-06-27T21:36:57.000Z</time>
        <extensions>
          <ns3:TrackPointExtension>
            <ns3:atemp>32.0</ns3:atemp>
            <ns3:hr>103</ns3:hr>
          </ns3:TrackPointExtension>
        </extensions>
      </trkpt>
      <trkpt lat="36.82673337869346141815185546875" lon="-118.409146182239055633544921875">
        <ele>3174.800048828125</ele>
        <time>2021-06-27T21:36:58.000Z</time>
        <extensions>
          <ns3:TrackPointExtension>
            <ns3:atemp>32.0</ns3:atemp>
            <ns3:hr>99</ns3:hr>
          </ns3:TrackPointExtension>
        </extensions>
      </trkpt>
      <trkpt lat="36.82678568176925182342529296875" lon="-118.4091332741081714630126953125">
        <ele>3174.60009765625</ele>
        <time>2021-06-27T21:37:02.000Z</time>
        <extensions>
          <ns3:TrackPointExtension>
            <ns3:atemp>32.0</ns3:atemp>
            <ns3:hr>95</ns3:hr>
          </ns3:TrackPointExtension>
        </extensions>
      </trkpt>
      <trkpt lat="36.82679171673953533172607421875" lon="-118.40913352556526660919189453125">
        <ele>3174.39990234375</ele>
        <time>2021-06-27T21:37:03.000Z</time>
        <extensions>
          <ns3:TrackPointExtension>
            <ns3:atemp>32.0</ns3:atemp>
            <ns3:hr>98</ns3:hr>
          </ns3:TrackPointExtension>
        </extensions>
      </trkpt>
      <trkpt lat="36.826811246573925018310546875" lon="-118.40916554443538188934326171875">
        <ele>3173.800048828125</ele>
        <time>2021-06-27T21:37:06.000Z</time>
        <extensions>
          <ns3:TrackPointExtension>
            <ns3:atemp>32.0</ns3:atemp>
            <ns3:hr>98</ns3:hr>
          </ns3:TrackPointExtension>
        </extensions>
      </trkpt>
      <trkpt lat="36.8268379010260105133056640625" lon="-118.40917794965207576751708984375">
        <ele>3173.199951171875</ele>
        <time>2021-06-27T21:37:09.000Z</time>
        <extensions>
          <ns3:TrackPointExtension>
            <ns3:atemp>32.0</ns3:atemp>
            <ns3:hr>98</ns3:hr>
          </ns3:TrackPointExtension>
        </extensions>
      </trkpt>
      <trkpt lat="36.82686095125973224639892578125" lon="-118.40919085778295993804931640625">
        <ele>3172.60009765625</ele>
        <time>2021-06-27T21:37:13.000Z</time>
        <extensions>
          <ns3:TrackPointExtension>
            <ns3:atemp>32.0</ns3:atemp>
            <ns3:hr>97</ns3:hr>
          </ns3:TrackPointExtension>
        </extensions>
      </trkpt>
      <trkpt lat="36.8268774636089801788330078125" lon="-118.40920007787644863128662109375">
        <ele>3172.199951171875</ele>
        <time>2021-06-27T21:37:15.000Z</time>
        <extensions>
          <ns3:TrackPointExtension>
            <ns3:atemp>32.0</ns3:atemp>
            <ns3:hr>96</ns3:hr>
          </ns3:TrackPointExtension>
        </extensions>
      </trkpt>
      <trkpt lat="36.82689364068210124969482421875" lon="-118.4091902710497379302978515625">
        <ele>3172</ele>
        <time>2021-06-27T21:37:17.000Z</time>
        <extensions>
          <ns3:TrackPointExtension>
            <ns3:atemp>32.0</ns3:atemp>
            <ns3:hr>93</ns3:hr>
          </ns3:TrackPointExtension>
        </extensions>
      </trkpt>
      <trkpt lat="36.8269135057926177978515625" lon="-118.409182727336883544921875">
        <ele>3171.39990234375</ele>
        <time>2021-06-27T21:37:20.000Z</time>
        <extensions>
          <ns3:TrackPointExtension>
            <ns3:atemp>32.0</ns3:atemp>
            <ns3:hr>91</ns3:hr>
          </ns3:TrackPointExtension>
        </extensions>
      </trkpt>
      <trkpt lat="36.8269166909158229827880859375" lon="-118.4091862477362155914306640625">
        <ele>3171</ele>
        <time>2021-06-27T21:37:21.000Z</time>
        <extensions>
          <ns3:TrackPointExtension>
            <ns3:atemp>32.0</ns3:atemp>
            <ns3:hr>90</ns3:hr>
          </ns3:TrackPointExtension>
        </extensions>
      </trkpt>
      <trkpt lat="36.8269220553338527679443359375" lon="-118.40920141898095607757568359375">
        <ele>3170.39990234375</ele>
        <time>2021-06-27T21:37:24.000Z</time>
        <extensions>
          <ns3:TrackPointExtension>
            <ns3:atemp>32.0</ns3:atemp>
            <ns3:hr>89</ns3:hr>
          </ns3:TrackPointExtension>
        </extensions>
      </trkpt>
      <trkpt lat="36.82692230679094791412353515625" lon="-118.409203179180622100830078125">
        <ele>3170</ele>
        <time>2021-06-27T21:37:25.000Z</time>
        <extensions>
          <ns3:TrackPointExtension>
            <ns3:atemp>32.0</ns3:atemp>
            <ns3:hr>89</ns3:hr>
          </ns3:TrackPointExtension>
        </extensions>
      </trkpt>
      <trkpt lat="36.826920211315155029296875" lon="-118.40920309536159038543701171875">
        <ele>3170</ele>
        <time>2021-06-27T21:37:26.000Z</time>
        <extensions>
          <ns3:TrackPointExtension>
            <ns3:atemp>32.0</ns3:atemp>
            <ns3:hr>89</ns3:hr>
          </ns3:TrackPointExtension>
        </extensions>
      </trkpt>
      <trkpt lat="36.82691895402967929840087890625" lon="-118.40919957496225833892822265625">
        <ele>3170</ele>
        <time>2021-06-27T21:37:27.000Z</time>
        <extensions>
          <ns3:TrackPointExtension>
            <ns3:atemp>32.0</ns3:atemp>
            <ns3:hr>90</ns3:hr>
          </ns3:TrackPointExtension>
        </extensions>
      </trkpt>
      <trkpt lat="36.82692750357091426849365234375" lon="-118.409247100353240966796875">
        <ele>3169.800048828125</ele>
        <time>2021-06-27T21:37:32.000Z</time>
        <extensions>
          <ns3:TrackPointExtension>
            <ns3:atemp>32.0</ns3:atemp>
            <ns3:hr>90</ns3:hr>
          </ns3:TrackPointExtension>
        </extensions>
      </trkpt>
      <trkpt lat="36.82694971561431884765625" lon="-118.40925707481801509857177734375">
        <ele>3168.800048828125</ele>
        <time>2021-06-27T21:37:35.000Z</time>
        <extensions>
          <ns3:TrackPointExtension>
            <ns3:atemp>32.0</ns3:atemp>
            <ns3:hr>90</ns3:hr>
          </ns3:TrackPointExtension>
        </extensions>
      </trkpt>
      <trkpt lat="36.8269777111709117889404296875" lon="-118.40927484445273876190185546875">
        <ele>3167.800048828125</ele>
        <time>2021-06-27T21:37:39.000Z</time>
        <extensions>
          <ns3:TrackPointExtension>
            <ns3:atemp>32.0</ns3:atemp>
            <ns3:hr>89</ns3:hr>
          </ns3:TrackPointExtension>
        </extensions>
      </trkpt>
      <trkpt lat="36.82698718272149562835693359375" lon="-118.4092814661562442779541015625">
        <ele>3167.60009765625</ele>
        <time>2021-06-27T21:37:40.000Z</time>
        <extensions>
          <ns3:TrackPointExtension>
            <ns3:atemp>32.0</ns3:atemp>
            <ns3:hr>89</ns3:hr>
          </ns3:TrackPointExtension>
        </extensions>
      </trkpt>
      <trkpt lat="36.82704485021531581878662109375" lon="-118.4093069471418857574462890625">
        <ele>3167.39990234375</ele>
        <time>2021-06-27T21:37:46.000Z</time>
        <extensions>
          <ns3:TrackPointExtension>
            <ns3:atemp>32.0</ns3:atemp>
            <ns3:hr>92</ns3:hr>
          </ns3:TrackPointExtension>
        </extensions>
      </trkpt>
      <trkpt lat="36.82706899009644985198974609375" lon="-118.409319855272769927978515625">
        <ele>3167</ele>
        <time>2021-06-27T21:37:49.000Z</time>
        <extensions>
          <ns3:TrackPointExtension>
            <ns3:atemp>32.0</ns3:atemp>
            <ns3:hr>92</ns3:hr>
          </ns3:TrackPointExtension>
        </extensions>
      </trkpt>
      <trkpt lat="36.82706999592483043670654296875" lon="-118.40932027436792850494384765625">
        <ele>3166.60009765625</ele>
        <time>2021-06-27T21:37:50.000Z</time>
        <extensions>
          <ns3:TrackPointExtension>
            <ns3:atemp>32.0</ns3:atemp>
            <ns3:hr>93</ns3:hr>
          </ns3:TrackPointExtension>
        </extensions>
      </trkpt>
      <trkpt lat="36.827121712267398834228515625" lon="-118.4094018302857875823974609375">
        <ele>3166.199951171875</ele>
        <time>2021-06-27T21:37:56.000Z</time>
        <extensions>
          <ns3:TrackPointExtension>
            <ns3:atemp>32.0</ns3:atemp>
            <ns3:hr>94</ns3:hr>
          </ns3:TrackPointExtension>
        </extensions>
      </trkpt>
      <trkpt lat="36.82720477692782878875732421875" lon="-118.40944826602935791015625">
        <ele>3166.39990234375</ele>
        <time>2021-06-27T21:38:03.000Z</time>
        <extensions>
          <ns3:TrackPointExtension>
            <ns3:atemp>32.0</ns3:atemp>
            <ns3:hr>97</ns3:hr>
          </ns3:TrackPointExtension>
        </extensions>
      </trkpt>
      <trkpt lat="36.82723495177924633026123046875" lon="-118.409460000693798065185546875">
        <ele>3166.60009765625</ele>
        <time>2021-06-27T21:38:06.000Z</time>
        <extensions>
          <ns3:TrackPointExtension>
            <ns3:atemp>32.0</ns3:atemp>
            <ns3:hr>97</ns3:hr>
          </ns3:TrackPointExtension>
        </extensions>
      </trkpt>
      <trkpt lat="36.82731457985937595367431640625" lon="-118.4094802848994731903076171875">
        <ele>3166.39990234375</ele>
        <time>2021-06-27T21:38:14.000Z</time>
        <extensions>
          <ns3:TrackPointExtension>
            <ns3:atemp>32.0</ns3:atemp>
            <ns3:hr>95</ns3:hr>
          </ns3:TrackPointExtension>
        </extensions>
      </trkpt>
      <trkpt lat="36.82733167894184589385986328125" lon="-118.40948254801332950592041015625">
        <ele>3166</ele>
        <time>2021-06-27T21:38:17.000Z</time>
        <extensions>
          <ns3:TrackPointExtension>
            <ns3:atemp>32.0</ns3:atemp>
            <ns3:hr>95</ns3:hr>
          </ns3:TrackPointExtension>
        </extensions>
      </trkpt>
      <trkpt lat="36.8273381330072879791259765625" lon="-118.40949076227843761444091796875">
        <ele>3166</ele>
        <time>2021-06-27T21:38:20.000Z</time>
        <extensions>
          <ns3:TrackPointExtension>
            <ns3:atemp>32.0</ns3:atemp>
            <ns3:hr>95</ns3:hr>
          </ns3:TrackPointExtension>
        </extensions>
      </trkpt>
      <trkpt lat="36.82733788155019283294677734375" lon="-118.4094886668026447296142578125">
        <ele>3165.800048828125</ele>
        <time>2021-06-27T21:38:28.000Z</time>
        <extensions>
          <ns3:TrackPointExtension>
            <ns3:atemp>32.0</ns3:atemp>
            <ns3:hr>98</ns3:hr>
          </ns3:TrackPointExtension>
        </extensions>
      </trkpt>
      <trkpt lat="36.82732849381864070892333984375" lon="-118.409495539963245391845703125">
        <ele>3165.60009765625</ele>
        <time>2021-06-27T21:38:39.000Z</time>
        <extensions>
          <ns3:TrackPointExtension>
            <ns3:atemp>32.0</ns3:atemp>
            <ns3:hr>95</ns3:hr>
          </ns3:TrackPointExtension>
        </extensions>
      </trkpt>
      <trkpt lat="36.82732849381864070892333984375" lon="-118.409495539963245391845703125">
        <ele>3165.60009765625</ele>
        <time>2021-06-27T21:38:40.000Z</time>
        <extensions>
          <ns3:TrackPointExtension>
            <ns3:atemp>32.0</ns3:atemp>
            <ns3:hr>95</ns3:hr>
          </ns3:TrackPointExtension>
        </extensions>
      </trkpt>
      <trkpt lat="36.82732212357223033905029296875" lon="-118.409483470022678375244140625">
        <ele>3165.60009765625</ele>
        <time>2021-06-27T21:38:58.000Z</time>
        <extensions>
          <ns3:TrackPointExtension>
            <ns3:atemp>32.0</ns3:atemp>
            <ns3:hr>98</ns3:hr>
          </ns3:TrackPointExtension>
        </extensions>
      </trkpt>
      <trkpt lat="36.8273250572383403778076171875" lon="-118.40945899486541748046875">
        <ele>3165.800048828125</ele>
        <time>2021-06-27T21:39:08.000Z</time>
        <extensions>
          <ns3:TrackPointExtension>
            <ns3:atemp>32.0</ns3:atemp>
            <ns3:hr>95</ns3:hr>
          </ns3:TrackPointExtension>
        </extensions>
      </trkpt>
      <trkpt lat="36.8273294158279895782470703125" lon="-118.40945891104638576507568359375">
        <ele>3165.39990234375</ele>
        <time>2021-06-27T21:39:11.000Z</time>
        <extensions>
          <ns3:TrackPointExtension>
            <ns3:atemp>32.0</ns3:atemp>
            <ns3:hr>92</ns3:hr>
          </ns3:TrackPointExtension>
        </extensions>
      </trkpt>
      <trkpt lat="36.82733721099793910980224609375" lon="-118.40945891104638576507568359375">
        <ele>3165.199951171875</ele>
        <time>2021-06-27T21:39:16.000Z</time>
        <extensions>
          <ns3:TrackPointExtension>
            <ns3:atemp>32.0</ns3:atemp>
            <ns3:hr>89</ns3:hr>
          </ns3:TrackPointExtension>
        </extensions>
      </trkpt>
      <trkpt lat="36.82734123431146144866943359375" lon="-118.409474752843379974365234375">
        <ele>3165.199951171875</ele>
        <time>2021-06-27T21:39:26.000Z</time>
        <extensions>
          <ns3:TrackPointExtension>
            <ns3:atemp>32.0</ns3:atemp>
            <ns3:hr>92</ns3:hr>
          </ns3:TrackPointExtension>
        </extensions>
      </trkpt>
      <trkpt lat="36.82734358124434947967529296875" lon="-118.40947550721466541290283203125">
        <ele>3165.199951171875</ele>
        <time>2021-06-27T21:39:34.000Z</time>
        <extensions>
          <ns3:TrackPointExtension>
            <ns3:atemp>32.0</ns3:atemp>
            <ns3:hr>89</ns3:hr>
          </ns3:TrackPointExtension>
        </extensions>
      </trkpt>
      <trkpt lat="36.82734358124434947967529296875" lon="-118.40947550721466541290283203125">
        <ele>3165</ele>
        <time>2021-06-27T21:39:39.000Z</time>
        <extensions>
          <ns3:TrackPointExtension>
            <ns3:atemp>32.0</ns3:atemp>
            <ns3:hr>86</ns3:hr>
          </ns3:TrackPointExtension>
        </extensions>
      </trkpt>
      <trkpt lat="36.82733754627406597137451171875" lon="-118.4094702266156673431396484375">
        <ele>3165</ele>
        <time>2021-06-27T21:40:11.000Z</time>
        <extensions>
          <ns3:TrackPointExtension>
            <ns3:atemp>32.0</ns3:atemp>
            <ns3:hr>89</ns3:hr>
          </ns3:TrackPointExtension>
        </extensions>
      </trkpt>
      <trkpt lat="36.82731038890779018402099609375" lon="-118.40950660407543182373046875">
        <ele>3165</ele>
        <time>2021-06-27T21:40:42.000Z</time>
        <extensions>
          <ns3:TrackPointExtension>
            <ns3:atemp>32.0</ns3:atemp>
            <ns3:hr>90</ns3:hr>
          </ns3:TrackPointExtension>
        </extensions>
      </trkpt>
      <trkpt lat="36.82735514827072620391845703125" lon="-118.40953300707042217254638671875">
        <ele>3165</ele>
        <time>2021-06-27T21:40:46.000Z</time>
        <extensions>
          <ns3:TrackPointExtension>
            <ns3:atemp>32.0</ns3:atemp>
            <ns3:hr>89</ns3:hr>
          </ns3:TrackPointExtension>
        </extensions>
      </trkpt>
      <trkpt lat="36.82737576775252819061279296875" lon="-118.409563265740871429443359375">
        <ele>3165</ele>
        <time>2021-06-27T21:40:48.000Z</time>
        <extensions>
          <ns3:TrackPointExtension>
            <ns3:atemp>32.0</ns3:atemp>
            <ns3:hr>89</ns3:hr>
          </ns3:TrackPointExtension>
        </extensions>
      </trkpt>
      <trkpt lat="36.8273867480456829071044921875" lon="-118.4095795266330242156982421875">
        <ele>3164.60009765625</ele>
        <time>2021-06-27T21:40:49.000Z</time>
        <extensions>
          <ns3:TrackPointExtension>
            <ns3:atemp>32.0</ns3:atemp>
            <ns3:hr>88</ns3:hr>
          </ns3:TrackPointExtension>
        </extensions>
      </trkpt>
      <trkpt lat="36.8274172581732273101806640625" lon="-118.409604839980602264404296875">
        <ele>3164.60009765625</ele>
        <time>2021-06-27T21:40:51.000Z</time>
        <extensions>
          <ns3:TrackPointExtension>
            <ns3:atemp>32.0</ns3:atemp>
            <ns3:hr>87</ns3:hr>
          </ns3:TrackPointExtension>
        </extensions>
      </trkpt>
      <trkpt lat="36.82743209414184093475341796875" lon="-118.4096120484173297882080078125">
        <ele>3164.39990234375</ele>
        <time>2021-06-27T21:40:52.000Z</time>
        <extensions>
          <ns3:TrackPointExtension>
            <ns3:atemp>32.0</ns3:atemp>
            <ns3:hr>86</ns3:hr>
          </ns3:TrackPointExtension>
        </extensions>
      </trkpt>
      <trkpt lat="36.82744734920561313629150390625" lon="-118.4096194244921207427978515625">
        <ele>3164.39990234375</ele>
        <time>2021-06-27T21:40:53.000Z</time>
        <extensions>
          <ns3:TrackPointExtension>
            <ns3:atemp>32.0</ns3:atemp>
            <ns3:hr>85</ns3:hr>
          </ns3:TrackPointExtension>
        </extensions>
      </trkpt>
      <trkpt lat="36.827462352812290191650390625" lon="-118.4096294827759265899658203125">
        <ele>3163.800048828125</ele>
        <time>2021-06-27T21:40:54.000Z</time>
        <extensions>
          <ns3:TrackPointExtension>
            <ns3:atemp>32.0</ns3:atemp>
            <ns3:hr>85</ns3:hr>
          </ns3:TrackPointExtension>
        </extensions>
      </trkpt>
      <trkpt lat="36.82752060703933238983154296875" lon="-118.40967885218560695648193359375">
        <ele>3163.39990234375</ele>
        <time>2021-06-27T21:40:58.000Z</time>
        <extensions>
          <ns3:TrackPointExtension>
            <ns3:atemp>32.0</ns3:atemp>
            <ns3:hr>85</ns3:hr>
          </ns3:TrackPointExtension>
        </extensions>
      </trkpt>
      <trkpt lat="36.8275698088109493255615234375" lon="-118.40970315970480442047119140625">
        <ele>3163</ele>
        <time>2021-06-27T21:41:02.000Z</time>
        <extensions>
          <ns3:TrackPointExtension>
            <ns3:atemp>32.0</ns3:atemp>
            <ns3:hr>86</ns3:hr>
          </ns3:TrackPointExtension>
        </extensions>
      </trkpt>
      <trkpt lat="36.8276355229318141937255859375" lon="-118.4097277186810970306396484375">
        <ele>3162.39990234375</ele>
        <time>2021-06-27T21:41:07.000Z</time>
        <extensions>
          <ns3:TrackPointExtension>
            <ns3:atemp>32.0</ns3:atemp>
            <ns3:hr>85</ns3:hr>
          </ns3:TrackPointExtension>
        </extensions>
      </trkpt>
      <trkpt lat="36.82767936028540134429931640625" lon="-118.40973995625972747802734375">
        <ele>3162.800048828125</ele>
        <time>2021-06-27T21:41:10.000Z</time>
        <extensions>
          <ns3:TrackPointExtension>
            <ns3:atemp>32.0</ns3:atemp>
            <ns3:hr>86</ns3:hr>
          </ns3:TrackPointExtension>
        </extensions>
      </trkpt>
      <trkpt lat="36.82775848545134067535400390625" lon="-118.40969511307775974273681640625">
        <ele>3161.800048828125</ele>
        <time>2021-06-27T21:41:17.000Z</time>
        <extensions>
          <ns3:TrackPointExtension>
            <ns3:atemp>32.0</ns3:atemp>
            <ns3:hr>85</ns3:hr>
          </ns3:TrackPointExtension>
        </extensions>
      </trkpt>
      <trkpt lat="36.8277652747929096221923828125" lon="-118.40968136675655841827392578125">
        <ele>3161.800048828125</ele>
        <time>2021-06-27T21:41:18.000Z</time>
        <extensions>
          <ns3:TrackPointExtension>
            <ns3:atemp>32.0</ns3:atemp>
            <ns3:hr>85</ns3:hr>
          </ns3:TrackPointExtension>
        </extensions>
      </trkpt>
      <trkpt lat="36.82780106551945209503173828125" lon="-118.4096385352313518524169921875">
        <ele>3161.199951171875</ele>
        <time>2021-06-27T21:41:23.000Z</time>
        <extensions>
          <ns3:TrackPointExtension>
            <ns3:atemp>32.0</ns3:atemp>
            <ns3:hr>84</ns3:hr>
          </ns3:TrackPointExtension>
        </extensions>
      </trkpt>
      <trkpt lat="36.827820427715778350830078125" lon="-118.409626968204975128173828125">
        <ele>3161</ele>
        <time>2021-06-27T21:41:25.000Z</time>
        <extensions>
          <ns3:TrackPointExtension>
            <ns3:atemp>32.0</ns3:atemp>
            <ns3:hr>85</ns3:hr>
          </ns3:TrackPointExtension>
        </extensions>
      </trkpt>
      <trkpt lat="36.827840544283390045166015625" lon="-118.40961012057960033416748046875">
        <ele>3160.800048828125</ele>
        <time>2021-06-27T21:41:27.000Z</time>
        <extensions>
          <ns3:TrackPointExtension>
            <ns3:atemp>32.0</ns3:atemp>
            <ns3:hr>85</ns3:hr>
          </ns3:TrackPointExtension>
        </extensions>
      </trkpt>
      <trkpt lat="36.8279003910720348358154296875" lon="-118.4096023254096508026123046875">
        <ele>3160.60009765625</ele>
        <time>2021-06-27T21:41:32.000Z</time>
        <extensions>
          <ns3:TrackPointExtension>
            <ns3:atemp>32.0</ns3:atemp>
            <ns3:hr>86</ns3:hr>
          </ns3:TrackPointExtension>
        </extensions>
      </trkpt>
      <trkpt lat="36.8279885686933994293212890625" lon="-118.409570641815662384033203125">
        <ele>3160.60009765625</ele>
        <time>2021-06-27T21:41:39.000Z</time>
        <extensions>
          <ns3:TrackPointExtension>
            <ns3:atemp>32.0</ns3:atemp>
            <ns3:hr>83</ns3:hr>
          </ns3:TrackPointExtension>
        </extensions>
      </trkpt>
      <trkpt lat="36.82802335359156131744384765625" lon="-118.40955354273319244384765625">
        <ele>3160.60009765625</ele>
        <time>2021-06-27T21:41:42.000Z</time>
        <extensions>
          <ns3:TrackPointExtension>
            <ns3:atemp>32.0</ns3:atemp>
            <ns3:hr>81</ns3:hr>
          </ns3:TrackPointExtension>
        </extensions>
      </trkpt>
      <trkpt lat="36.82811991311609745025634765625" lon="-118.40955220162868499755859375">
        <ele>3161.199951171875</ele>
        <time>2021-06-27T21:41:52.000Z</time>
        <extensions>
          <ns3:TrackPointExtension>
            <ns3:atemp>32.0</ns3:atemp>
            <ns3:hr>81</ns3:hr>
          </ns3:TrackPointExtension>
        </extensions>
      </trkpt>
      <trkpt lat="36.82816869579255580902099609375" lon="-118.409539125859737396240234375">
        <ele>3161.199951171875</ele>
        <time>2021-06-27T21:41:56.000Z</time>
        <extensions>
          <ns3:TrackPointExtension>
            <ns3:atemp>32.0</ns3:atemp>
            <ns3:hr>84</ns3:hr>
          </ns3:TrackPointExtension>
        </extensions>
      </trkpt>
      <trkpt lat="36.82818017899990081787109375" lon="-118.40953476727008819580078125">
        <ele>3161</ele>
        <time>2021-06-27T21:41:57.000Z</time>
        <extensions>
          <ns3:TrackPointExtension>
            <ns3:atemp>32.0</ns3:atemp>
            <ns3:hr>87</ns3:hr>
          </ns3:TrackPointExtension>
        </extensions>
      </trkpt>
      <trkpt lat="36.82819065637886524200439453125" lon="-118.4095335938036441802978515625">
        <ele>3161</ele>
        <time>2021-06-27T21:41:58.000Z</time>
        <extensions>
          <ns3:TrackPointExtension>
            <ns3:atemp>32.0</ns3:atemp>
            <ns3:hr>83</ns3:hr>
          </ns3:TrackPointExtension>
        </extensions>
      </trkpt>
      <trkpt lat="36.82821513153612613677978515625" lon="-118.409535773098468780517578125">
        <ele>3161</ele>
        <time>2021-06-27T21:42:00.000Z</time>
        <extensions>
          <ns3:TrackPointExtension>
            <ns3:atemp>32.0</ns3:atemp>
            <ns3:hr>86</ns3:hr>
          </ns3:TrackPointExtension>
        </extensions>
      </trkpt>
      <trkpt lat="36.8283198215067386627197265625" lon="-118.4095372818410396575927734375">
        <ele>3160.39990234375</ele>
        <time>2021-06-27T21:42:08.000Z</time>
        <extensions>
          <ns3:TrackPointExtension>
            <ns3:atemp>32.0</ns3:atemp>
            <ns3:hr>90</ns3:hr>
          </ns3:TrackPointExtension>
        </extensions>
      </trkpt>
      <trkpt lat="36.82834379374980926513671875" lon="-118.40953166596591472625732421875">
        <ele>3160.39990234375</ele>
        <time>2021-06-27T21:42:10.000Z</time>
        <extensions>
          <ns3:TrackPointExtension>
            <ns3:atemp>32.0</ns3:atemp>
            <ns3:hr>91</ns3:hr>
          </ns3:TrackPointExtension>
        </extensions>
      </trkpt>
      <trkpt lat="36.8284237571060657501220703125" lon="-118.40948238037526607513427734375">
        <ele>3160.800048828125</ele>
        <time>2021-06-27T21:42:19.000Z</time>
        <extensions>
          <ns3:TrackPointExtension>
            <ns3:atemp>32.0</ns3:atemp>
            <ns3:hr>94</ns3:hr>
          </ns3:TrackPointExtension>
        </extensions>
      </trkpt>
      <trkpt lat="36.82846541516482830047607421875" lon="-118.40946310199797153472900390625">
        <ele>3161.39990234375</ele>
        <time>2021-06-27T21:42:24.000Z</time>
        <extensions>
          <ns3:TrackPointExtension>
            <ns3:atemp>32.0</ns3:atemp>
            <ns3:hr>98</ns3:hr>
          </ns3:TrackPointExtension>
        </extensions>
      </trkpt>
      <trkpt lat="36.82847765274345874786376953125" lon="-118.40944533236324787139892578125">
        <ele>3161.39990234375</ele>
        <time>2021-06-27T21:42:27.000Z</time>
        <extensions>
          <ns3:TrackPointExtension>
            <ns3:atemp>32.0</ns3:atemp>
            <ns3:hr>101</ns3:hr>
          </ns3:TrackPointExtension>
        </extensions>
      </trkpt>
      <trkpt lat="36.828478239476680755615234375" lon="-118.409445248544216156005859375">
        <ele>3161.39990234375</ele>
        <time>2021-06-27T21:42:28.000Z</time>
        <extensions>
          <ns3:TrackPointExtension>
            <ns3:atemp>32.0</ns3:atemp>
            <ns3:hr>102</ns3:hr>
          </ns3:TrackPointExtension>
        </extensions>
      </trkpt>
      <trkpt lat="36.82853825390338897705078125" lon="-118.4094484336674213409423828125">
        <ele>3161.199951171875</ele>
        <time>2021-06-27T21:42:39.000Z</time>
        <extensions>
          <ns3:TrackPointExtension>
            <ns3:atemp>32.0</ns3:atemp>
            <ns3:hr>101</ns3:hr>
          </ns3:TrackPointExtension>
        </extensions>
      </trkpt>
      <trkpt lat="36.8286192230880260467529296875" lon="-118.40940057300031185150146484375">
        <ele>3161.199951171875</ele>
        <time>2021-06-27T21:42:47.000Z</time>
        <extensions>
          <ns3:TrackPointExtension>
            <ns3:atemp>32.0</ns3:atemp>
            <ns3:hr>98</ns3:hr>
          </ns3:TrackPointExtension>
        </extensions>
      </trkpt>
      <trkpt lat="36.82862919755280017852783203125" lon="-118.40939336456358432769775390625">
        <ele>3161.199951171875</ele>
        <time>2021-06-27T21:42:48.000Z</time>
        <extensions>
          <ns3:TrackPointExtension>
            <ns3:atemp>32.0</ns3:atemp>
            <ns3:hr>97</ns3:hr>
          </ns3:TrackPointExtension>
        </extensions>
      </trkpt>
      <trkpt lat="36.82872273959219455718994140625" lon="-118.40936235152184963226318359375">
        <ele>3160.60009765625</ele>
        <time>2021-06-27T21:42:57.000Z</time>
        <extensions>
          <ns3:TrackPointExtension>
            <ns3:atemp>32.0</ns3:atemp>
            <ns3:hr>95</ns3:hr>
          </ns3:TrackPointExtension>
        </extensions>
      </trkpt>
      <trkpt lat="36.8287576921284198760986328125" lon="-118.409337289631366729736328125">
        <ele>3160.60009765625</ele>
        <time>2021-06-27T21:43:01.000Z</time>
        <extensions>
          <ns3:TrackPointExtension>
            <ns3:atemp>32.0</ns3:atemp>
            <ns3:hr>98</ns3:hr>
          </ns3:TrackPointExtension>
        </extensions>
      </trkpt>
      <trkpt lat="36.828829944133758544921875" lon="-118.4092573262751102447509765625">
        <ele>3160.60009765625</ele>
        <time>2021-06-27T21:43:09.000Z</time>
        <extensions>
          <ns3:TrackPointExtension>
            <ns3:atemp>32.0</ns3:atemp>
            <ns3:hr>99</ns3:hr>
          </ns3:TrackPointExtension>
        </extensions>
      </trkpt>
      <trkpt lat="36.8288985081017017364501953125" lon="-118.4092445857822895050048828125">
        <ele>3160.800048828125</ele>
        <time>2021-06-27T21:43:16.000Z</time>
        <extensions>
          <ns3:TrackPointExtension>
            <ns3:atemp>32.0</ns3:atemp>
            <ns3:hr>98</ns3:hr>
          </ns3:TrackPointExtension>
        </extensions>
      </trkpt>
      <trkpt lat="36.8290068022906780242919921875" lon="-118.40918817557394504547119140625">
        <ele>3160.39990234375</ele>
        <time>2021-06-27T21:43:26.000Z</time>
        <extensions>
          <ns3:TrackPointExtension>
            <ns3:atemp>32.0</ns3:atemp>
            <ns3:hr>94</ns3:hr>
          </ns3:TrackPointExtension>
        </extensions>
      </trkpt>
      <trkpt lat="36.8291224725544452667236328125" lon="-118.40913989581167697906494140625">
        <ele>3160.39990234375</ele>
        <time>2021-06-27T21:43:37.000Z</time>
        <extensions>
          <ns3:TrackPointExtension>
            <ns3:atemp>32.0</ns3:atemp>
            <ns3:hr>95</ns3:hr>
          </ns3:TrackPointExtension>
        </extensions>
      </trkpt>
      <trkpt lat="36.82915222831070423126220703125" lon="-118.40912682004272937774658203125">
        <ele>3160.199951171875</ele>
        <time>2021-06-27T21:43:40.000Z</time>
        <extensions>
          <ns3:TrackPointExtension>
            <ns3:atemp>32.0</ns3:atemp>
            <ns3:hr>94</ns3:hr>
          </ns3:TrackPointExtension>
        </extensions>
      </trkpt>
      <trkpt lat="36.8291969038546085357666015625" lon="-118.4091223776340484619140625">
        <ele>3160.39990234375</ele>
        <time>2021-06-27T21:43:44.000Z</time>
        <extensions>
          <ns3:TrackPointExtension>
            <ns3:atemp>32.0</ns3:atemp>
            <ns3:hr>91</ns3:hr>
          </ns3:TrackPointExtension>
        </extensions>
      </trkpt>
      <trkpt lat="36.82925398461520671844482421875" lon="-118.4091285802423954010009765625">
        <ele>3159.800048828125</ele>
        <time>2021-06-27T21:43:50.000Z</time>
        <extensions>
          <ns3:TrackPointExtension>
            <ns3:atemp>32.0</ns3:atemp>
            <ns3:hr>90</ns3:hr>
          </ns3:TrackPointExtension>
        </extensions>
      </trkpt>
      <trkpt lat="36.82925515808165073394775390625" lon="-118.4091315977275371551513671875">
        <ele>3159.800048828125</ele>
        <time>2021-06-27T21:43:52.000Z</time>
        <extensions>
          <ns3:TrackPointExtension>
            <ns3:atemp>32.0</ns3:atemp>
            <ns3:hr>91</ns3:hr>
          </ns3:TrackPointExtension>
        </extensions>
      </trkpt>
      <trkpt lat="36.82927913032472133636474609375" lon="-118.4091383032500743865966796875">
        <ele>3159.800048828125</ele>
        <time>2021-06-27T21:43:55.000Z</time>
        <extensions>
          <ns3:TrackPointExtension>
            <ns3:atemp>32.0</ns3:atemp>
            <ns3:hr>91</ns3:hr>
          </ns3:TrackPointExtension>
        </extensions>
      </trkpt>
      <trkpt lat="36.82928885333240032196044921875" lon="-118.4091406501829624176025390625">
        <ele>3159.800048828125</ele>
        <time>2021-06-27T21:43:56.000Z</time>
        <extensions>
          <ns3:TrackPointExtension>
            <ns3:atemp>32.0</ns3:atemp>
            <ns3:hr>86</ns3:hr>
          </ns3:TrackPointExtension>
        </extensions>
      </trkpt>
      <trkpt lat="36.8293005041778087615966796875" lon="-118.40913972817361354827880859375">
        <ele>3160</ele>
        <time>2021-06-27T21:43:57.000Z</time>
        <extensions>
          <ns3:TrackPointExtension>
            <ns3:atemp>32.0</ns3:atemp>
            <ns3:hr>90</ns3:hr>
          </ns3:TrackPointExtension>
        </extensions>
      </trkpt>
      <trkpt lat="36.82939429767429828643798828125" lon="-118.4091336093842983245849609375">
        <ele>3160.199951171875</ele>
        <time>2021-06-27T21:44:06.000Z</time>
        <extensions>
          <ns3:TrackPointExtension>
            <ns3:atemp>32.0</ns3:atemp>
            <ns3:hr>88</ns3:hr>
          </ns3:TrackPointExtension>
        </extensions>
      </trkpt>
      <trkpt lat="36.8294336088001728057861328125" lon="-118.40914023108780384063720703125">
        <ele>3160.199951171875</ele>
        <time>2021-06-27T21:44:10.000Z</time>
        <extensions>
          <ns3:TrackPointExtension>
            <ns3:atemp>32.0</ns3:atemp>
            <ns3:hr>85</ns3:hr>
          </ns3:TrackPointExtension>
        </extensions>
      </trkpt>
      <trkpt lat="36.829442493617534637451171875" lon="-118.40914324857294559478759765625">
        <ele>3160.199951171875</ele>
        <time>2021-06-27T21:44:11.000Z</time>
        <extensions>
          <ns3:TrackPointExtension>
            <ns3:atemp>32.0</ns3:atemp>
            <ns3:hr>88</ns3:hr>
          </ns3:TrackPointExtension>
        </extensions>
      </trkpt>
      <trkpt lat="36.82949001900851726531982421875" lon="-118.40916152112185955047607421875">
        <ele>3160.199951171875</ele>
        <time>2021-06-27T21:44:16.000Z</time>
        <extensions>
          <ns3:TrackPointExtension>
            <ns3:atemp>32.0</ns3:atemp>
            <ns3:hr>89</ns3:hr>
          </ns3:TrackPointExtension>
        </extensions>
      </trkpt>
      <trkpt lat="36.82951030321419239044189453125" lon="-118.409161269664764404296875">
        <ele>3160.199951171875</ele>
        <time>2021-06-27T21:44:18.000Z</time>
        <extensions>
          <ns3:TrackPointExtension>
            <ns3:atemp>32.0</ns3:atemp>
            <ns3:hr>90</ns3:hr>
          </ns3:TrackPointExtension>
        </extensions>
      </trkpt>
      <trkpt lat="36.82955372147262096405029296875" lon="-118.40917560271918773651123046875">
        <ele>3160</ele>
        <time>2021-06-27T21:44:22.000Z</time>
        <extensions>
          <ns3:TrackPointExtension>
            <ns3:atemp>32.0</ns3:atemp>
            <ns3:hr>93</ns3:hr>
          </ns3:TrackPointExtension>
        </extensions>
      </trkpt>
      <trkpt lat="36.82965279556810855865478515625" lon="-118.4091939590871334075927734375">
        <ele>3160.199951171875</ele>
        <time>2021-06-27T21:44:31.000Z</time>
        <extensions>
          <ns3:TrackPointExtension>
            <ns3:atemp>32.0</ns3:atemp>
            <ns3:hr>93</ns3:hr>
          </ns3:TrackPointExtension>
        </extensions>
      </trkpt>
      <trkpt lat="36.82975186966359615325927734375" lon="-118.40917644090950489044189453125">
        <ele>3161.199951171875</ele>
        <time>2021-06-27T21:44:42.000Z</time>
        <extensions>
          <ns3:TrackPointExtension>
            <ns3:atemp>32.0</ns3:atemp>
            <ns3:hr>95</ns3:hr>
          </ns3:TrackPointExtension>
        </extensions>
      </trkpt>
      <trkpt lat="36.82979444973170757293701171875" lon="-118.40917124412953853607177734375">
        <ele>3161.39990234375</ele>
        <time>2021-06-27T21:44:46.000Z</time>
        <extensions>
          <ns3:TrackPointExtension>
            <ns3:atemp>32.0</ns3:atemp>
            <ns3:hr>97</ns3:hr>
          </ns3:TrackPointExtension>
        </extensions>
      </trkpt>
      <trkpt lat="36.82982948608696460723876953125" lon="-118.40917459689080715179443359375">
        <ele>3161.199951171875</ele>
        <time>2021-06-27T21:44:49.000Z</time>
        <extensions>
          <ns3:TrackPointExtension>
            <ns3:atemp>32.0</ns3:atemp>
            <ns3:hr>100</ns3:hr>
          </ns3:TrackPointExtension>
        </extensions>
      </trkpt>
      <trkpt lat="36.82984205894172191619873046875" lon="-118.4091758541762828826904296875">
        <ele>3161.39990234375</ele>
        <time>2021-06-27T21:44:50.000Z</time>
        <extensions>
          <ns3:TrackPointExtension>
            <ns3:atemp>32.0</ns3:atemp>
            <ns3:hr>102</ns3:hr>
          </ns3:TrackPointExtension>
        </extensions>
      </trkpt>
      <trkpt lat="36.82985396124422550201416015625" lon="-118.4091771952807903289794921875">
        <ele>3161.199951171875</ele>
        <time>2021-06-27T21:44:51.000Z</time>
        <extensions>
          <ns3:TrackPointExtension>
            <ns3:atemp>32.0</ns3:atemp>
            <ns3:hr>99</ns3:hr>
          </ns3:TrackPointExtension>
        </extensions>
      </trkpt>
      <trkpt lat="36.82992269285023212432861328125" lon="-118.40919689275324344635009765625">
        <ele>3160.800048828125</ele>
        <time>2021-06-27T21:44:57.000Z</time>
        <extensions>
          <ns3:TrackPointExtension>
            <ns3:atemp>32.0</ns3:atemp>
            <ns3:hr>102</ns3:hr>
          </ns3:TrackPointExtension>
        </extensions>
      </trkpt>
      <trkpt lat="36.82996460236608982086181640625" lon="-118.4092160873115062713623046875">
        <ele>3160.39990234375</ele>
        <time>2021-06-27T21:45:01.000Z</time>
        <extensions>
          <ns3:TrackPointExtension>
            <ns3:atemp>32.0</ns3:atemp>
            <ns3:hr>101</ns3:hr>
          </ns3:TrackPointExtension>
        </extensions>
      </trkpt>
      <trkpt lat="36.83009284548461437225341796875" lon="-118.40926595963537693023681640625">
        <ele>3160.60009765625</ele>
        <time>2021-06-27T21:45:13.000Z</time>
        <extensions>
          <ns3:TrackPointExtension>
            <ns3:atemp>32.0</ns3:atemp>
            <ns3:hr>99</ns3:hr>
          </ns3:TrackPointExtension>
        </extensions>
      </trkpt>
      <trkpt lat="36.83016476221382617950439453125" lon="-118.4092784486711025238037109375">
        <ele>3160.39990234375</ele>
        <time>2021-06-27T21:45:20.000Z</time>
        <extensions>
          <ns3:TrackPointExtension>
            <ns3:atemp>32.0</ns3:atemp>
            <ns3:hr>99</ns3:hr>
          </ns3:TrackPointExtension>
        </extensions>
      </trkpt>
      <trkpt lat="36.8301712162792682647705078125" lon="-118.40928590856492519378662109375">
        <ele>3160.199951171875</ele>
        <time>2021-06-27T21:45:21.000Z</time>
        <extensions>
          <ns3:TrackPointExtension>
            <ns3:atemp>32.0</ns3:atemp>
            <ns3:hr>101</ns3:hr>
          </ns3:TrackPointExtension>
        </extensions>
      </trkpt>
      <trkpt lat="36.8302144668996334075927734375" lon="-118.409298397600650787353515625">
        <ele>3159.60009765625</ele>
        <time>2021-06-27T21:45:25.000Z</time>
        <extensions>
          <ns3:TrackPointExtension>
            <ns3:atemp>32.0</ns3:atemp>
            <ns3:hr>98</ns3:hr>
          </ns3:TrackPointExtension>
        </extensions>
      </trkpt>
      <trkpt lat="36.83026014827191829681396484375" lon="-118.4092978946864604949951171875">
        <ele>3159.39990234375</ele>
        <time>2021-06-27T21:45:29.000Z</time>
        <extensions>
          <ns3:TrackPointExtension>
            <ns3:atemp>32.0</ns3:atemp>
            <ns3:hr>96</ns3:hr>
          </ns3:TrackPointExtension>
        </extensions>
      </trkpt>
      <trkpt lat="36.83026886545121669769287109375" lon="-118.4092995710670948028564453125">
        <ele>3159.199951171875</ele>
        <time>2021-06-27T21:45:30.000Z</time>
        <extensions>
          <ns3:TrackPointExtension>
            <ns3:atemp>32.0</ns3:atemp>
            <ns3:hr>96</ns3:hr>
          </ns3:TrackPointExtension>
        </extensions>
      </trkpt>
      <trkpt lat="36.8303036503493785858154296875" lon="-118.40930820442736148834228515625">
        <ele>3159.199951171875</ele>
        <time>2021-06-27T21:45:34.000Z</time>
        <extensions>
          <ns3:TrackPointExtension>
            <ns3:atemp>32.0</ns3:atemp>
            <ns3:hr>99</ns3:hr>
          </ns3:TrackPointExtension>
        </extensions>
      </trkpt>
      <trkpt lat="36.83031094260513782501220703125" lon="-118.40931055136024951934814453125">
        <ele>3159.199951171875</ele>
        <time>2021-06-27T21:45:35.000Z</time>
        <extensions>
          <ns3:TrackPointExtension>
            <ns3:atemp>32.0</ns3:atemp>
            <ns3:hr>96</ns3:hr>
          </ns3:TrackPointExtension>
        </extensions>
      </trkpt>
      <trkpt lat="36.83031865395605564117431640625" lon="-118.4093099646270275115966796875">
        <ele>3159.199951171875</ele>
        <time>2021-06-27T21:45:36.000Z</time>
        <extensions>
          <ns3:TrackPointExtension>
            <ns3:atemp>32.0</ns3:atemp>
            <ns3:hr>95</ns3:hr>
          </ns3:TrackPointExtension>
        </extensions>
      </trkpt>
      <trkpt lat="36.83033441193401813507080078125" lon="-118.4093042649328708648681640625">
        <ele>3158.60009765625</ele>
        <time>2021-06-27T21:45:38.000Z</time>
        <extensions>
          <ns3:TrackPointExtension>
            <ns3:atemp>32.0</ns3:atemp>
            <ns3:hr>96</ns3:hr>
          </ns3:TrackPointExtension>
        </extensions>
      </trkpt>
      <trkpt lat="36.83039995841681957244873046875" lon="-118.4093062765896320343017578125">
        <ele>3158</ele>
        <time>2021-06-27T21:45:46.000Z</time>
        <extensions>
          <ns3:TrackPointExtension>
            <ns3:atemp>32.0</ns3:atemp>
            <ns3:hr>93</ns3:hr>
          </ns3:TrackPointExtension>
        </extensions>
      </trkpt>
      <trkpt lat="36.8304179795086383819580078125" lon="-118.4093180112540721893310546875">
        <ele>3157.60009765625</ele>
        <time>2021-06-27T21:45:48.000Z</time>
        <extensions>
          <ns3:TrackPointExtension>
            <ns3:atemp>32.0</ns3:atemp>
            <ns3:hr>92</ns3:hr>
          </ns3:TrackPointExtension>
        </extensions>
      </trkpt>
      <trkpt lat="36.8304344080388545989990234375" lon="-118.40933494269847869873046875">
        <ele>3157.60009765625</ele>
        <time>2021-06-27T21:45:51.000Z</time>
        <extensions>
          <ns3:TrackPointExtension>
            <ns3:atemp>32.0</ns3:atemp>
            <ns3:hr>92</ns3:hr>
          </ns3:TrackPointExtension>
        </extensions>
      </trkpt>
      <trkpt lat="36.83044371195137500762939453125" lon="-118.40934122912585735321044921875">
        <ele>3156.800048828125</ele>
        <time>2021-06-27T21:45:52.000Z</time>
        <extensions>
          <ns3:TrackPointExtension>
            <ns3:atemp>32.0</ns3:atemp>
            <ns3:hr>90</ns3:hr>
          </ns3:TrackPointExtension>
        </extensions>
      </trkpt>
      <trkpt lat="36.83046382851898670196533203125" lon="-118.40934089384973049163818359375">
        <ele>3156.39990234375</ele>
        <time>2021-06-27T21:45:54.000Z</time>
        <extensions>
          <ns3:TrackPointExtension>
            <ns3:atemp>32.0</ns3:atemp>
            <ns3:hr>88</ns3:hr>
          </ns3:TrackPointExtension>
        </extensions>
      </trkpt>
      <trkpt lat="36.83047405444085597991943359375" lon="-118.40934039093554019927978515625">
        <ele>3156.39990234375</ele>
        <time>2021-06-27T21:45:55.000Z</time>
        <extensions>
          <ns3:TrackPointExtension>
            <ns3:atemp>32.0</ns3:atemp>
            <ns3:hr>89</ns3:hr>
          </ns3:TrackPointExtension>
        </extensions>
      </trkpt>
      <trkpt lat="36.8305534310638904571533203125" lon="-118.4093408100306987762451171875">
        <ele>3155.39990234375</ele>
        <time>2021-06-27T21:46:03.000Z</time>
        <extensions>
          <ns3:TrackPointExtension>
            <ns3:atemp>32.0</ns3:atemp>
            <ns3:hr>89</ns3:hr>
          </ns3:TrackPointExtension>
        </extensions>
      </trkpt>
      <trkpt lat="36.8305939994752407073974609375" lon="-118.40935028158128261566162109375">
        <ele>3154.39990234375</ele>
        <time>2021-06-27T21:46:07.000Z</time>
        <extensions>
          <ns3:TrackPointExtension>
            <ns3:atemp>32.0</ns3:atemp>
            <ns3:hr>89</ns3:hr>
          </ns3:TrackPointExtension>
        </extensions>
      </trkpt>
      <trkpt lat="36.83060615323483943939208984375" lon="-118.40935061685740947723388671875">
        <ele>3154.199951171875</ele>
        <time>2021-06-27T21:46:08.000Z</time>
        <extensions>
          <ns3:TrackPointExtension>
            <ns3:atemp>32.0</ns3:atemp>
            <ns3:hr>89</ns3:hr>
          </ns3:TrackPointExtension>
        </extensions>
      </trkpt>
      <trkpt lat="36.83067706413567066192626953125" lon="-118.4093180112540721893310546875">
        <ele>3153.800048828125</ele>
        <time>2021-06-27T21:46:15.000Z</time>
        <extensions>
          <ns3:TrackPointExtension>
            <ns3:atemp>33.0</ns3:atemp>
            <ns3:hr>92</ns3:hr>
          </ns3:TrackPointExtension>
        </extensions>
      </trkpt>
      <trkpt lat="36.830685697495937347412109375" lon="-118.4093109704554080963134765625">
        <ele>3153.800048828125</ele>
        <time>2021-06-27T21:46:16.000Z</time>
        <extensions>
          <ns3:TrackPointExtension>
            <ns3:atemp>33.0</ns3:atemp>
            <ns3:hr>92</ns3:hr>
          </ns3:TrackPointExtension>
        </extensions>
      </trkpt>
      <trkpt lat="36.8307157047092914581298828125" lon="-118.40930250473320484161376953125">
        <ele>3153.800048828125</ele>
        <time>2021-06-27T21:46:19.000Z</time>
        <extensions>
          <ns3:TrackPointExtension>
            <ns3:atemp>33.0</ns3:atemp>
            <ns3:hr>95</ns3:hr>
          </ns3:TrackPointExtension>
        </extensions>
      </trkpt>
      <trkpt lat="36.8307760544121265411376953125" lon="-118.4093170054256916046142578125">
        <ele>3154</ele>
        <time>2021-06-27T21:46:25.000Z</time>
        <extensions>
          <ns3:TrackPointExtension>
            <ns3:atemp>33.0</ns3:atemp>
            <ns3:hr>96</ns3:hr>
          </ns3:TrackPointExtension>
        </extensions>
      </trkpt>
      <trkpt lat="36.8308410979807376861572265625" lon="-118.409345336258411407470703125">
        <ele>3153.800048828125</ele>
        <time>2021-06-27T21:46:32.000Z</time>
        <extensions>
          <ns3:TrackPointExtension>
            <ns3:atemp>33.0</ns3:atemp>
            <ns3:hr>94</ns3:hr>
          </ns3:TrackPointExtension>
        </extensions>
      </trkpt>
      <trkpt lat="36.830843277275562286376953125" lon="-118.40935505926609039306640625">
        <ele>3154</ele>
        <time>2021-06-27T21:46:33.000Z</time>
        <extensions>
          <ns3:TrackPointExtension>
            <ns3:atemp>33.0</ns3:atemp>
            <ns3:hr>93</ns3:hr>
          </ns3:TrackPointExtension>
        </extensions>
      </trkpt>
      <trkpt lat="36.8308429419994354248046875" lon="-118.40936671011149883270263671875">
        <ele>3154</ele>
        <time>2021-06-27T21:46:34.000Z</time>
        <extensions>
          <ns3:TrackPointExtension>
            <ns3:atemp>33.0</ns3:atemp>
            <ns3:hr>93</ns3:hr>
          </ns3:TrackPointExtension>
        </extensions>
      </trkpt>
      <trkpt lat="36.830839253962039947509765625" lon="-118.40939118526875972747802734375">
        <ele>3153.800048828125</ele>
        <time>2021-06-27T21:46:38.000Z</time>
        <extensions>
          <ns3:TrackPointExtension>
            <ns3:atemp>33.0</ns3:atemp>
            <ns3:hr>94</ns3:hr>
          </ns3:TrackPointExtension>
        </extensions>
      </trkpt>
      <trkpt lat="36.83083632029592990875244140625" lon="-118.40938867069780826568603515625">
        <ele>3153.60009765625</ele>
        <time>2021-06-27T21:46:39.000Z</time>
        <extensions>
          <ns3:TrackPointExtension>
            <ns3:atemp>33.0</ns3:atemp>
            <ns3:hr>95</ns3:hr>
          </ns3:TrackPointExtension>
        </extensions>
      </trkpt>
      <trkpt lat="36.83083179406821727752685546875" lon="-118.40938934125006198883056640625">
        <ele>3153.39990234375</ele>
        <time>2021-06-27T21:46:44.000Z</time>
        <extensions>
          <ns3:TrackPointExtension>
            <ns3:atemp>33.0</ns3:atemp>
            <ns3:hr>98</ns3:hr>
          </ns3:TrackPointExtension>
        </extensions>
      </trkpt>
      <trkpt lat="36.83083690702915191650390625" lon="-118.4093904308974742889404296875">
        <ele>3153.39990234375</ele>
        <time>2021-06-27T21:46:46.000Z</time>
        <extensions>
          <ns3:TrackPointExtension>
            <ns3:atemp>33.0</ns3:atemp>
            <ns3:hr>101</ns3:hr>
          </ns3:TrackPointExtension>
        </extensions>
      </trkpt>
      <trkpt lat="36.83083690702915191650390625" lon="-118.4093904308974742889404296875">
        <ele>3153.199951171875</ele>
        <time>2021-06-27T21:46:48.000Z</time>
        <extensions>
          <ns3:TrackPointExtension>
            <ns3:atemp>33.0</ns3:atemp>
            <ns3:hr>104</ns3:hr>
          </ns3:TrackPointExtension>
        </extensions>
      </trkpt>
      <trkpt lat="36.83083690702915191650390625" lon="-118.4093904308974742889404296875">
        <ele>3153.199951171875</ele>
        <time>2021-06-27T21:46:49.000Z</time>
        <extensions>
          <ns3:TrackPointExtension>
            <ns3:atemp>33.0</ns3:atemp>
            <ns3:hr>105</ns3:hr>
          </ns3:TrackPointExtension>
        </extensions>
      </trkpt>
      <trkpt lat="36.83083690702915191650390625" lon="-118.4093904308974742889404296875">
        <ele>3153</ele>
        <time>2021-06-27T21:46:51.000Z</time>
        <extensions>
          <ns3:TrackPointExtension>
            <ns3:atemp>33.0</ns3:atemp>
            <ns3:hr>105</ns3:hr>
          </ns3:TrackPointExtension>
        </extensions>
      </trkpt>
      <trkpt lat="36.83083690702915191650390625" lon="-118.4093904308974742889404296875">
        <ele>3153</ele>
        <time>2021-06-27T21:46:52.000Z</time>
        <extensions>
          <ns3:TrackPointExtension>
            <ns3:atemp>33.0</ns3:atemp>
            <ns3:hr>105</ns3:hr>
          </ns3:TrackPointExtension>
        </extensions>
      </trkpt>
      <trkpt lat="36.83083849959075450897216796875" lon="-118.4093817137181758880615234375">
        <ele>3152.60009765625</ele>
        <time>2021-06-27T21:47:10.000Z</time>
        <extensions>
          <ns3:TrackPointExtension>
            <ns3:atemp>33.0</ns3:atemp>
            <ns3:hr>108</ns3:hr>
          </ns3:TrackPointExtension>
        </extensions>
      </trkpt>
      <trkpt lat="36.8308402597904205322265625" lon="-118.4093833900988101959228515625">
        <ele>3152.800048828125</ele>
        <time>2021-06-27T21:47:30.000Z</time>
        <extensions>
          <ns3:TrackPointExtension>
            <ns3:atemp>33.0</ns3:atemp>
            <ns3:hr>105</ns3:hr>
          </ns3:TrackPointExtension>
        </extensions>
      </trkpt>
      <trkpt lat="36.83084185235202312469482421875" lon="-118.40939126908779144287109375">
        <ele>3152.60009765625</ele>
        <time>2021-06-27T21:47:33.000Z</time>
        <extensions>
          <ns3:TrackPointExtension>
            <ns3:atemp>33.0</ns3:atemp>
            <ns3:hr>101</ns3:hr>
          </ns3:TrackPointExtension>
        </extensions>
      </trkpt>
      <trkpt lat="36.8308447860181331634521484375" lon="-118.4093924425542354583740234375">
        <ele>3152.60009765625</ele>
        <time>2021-06-27T21:47:41.000Z</time>
        <extensions>
          <ns3:TrackPointExtension>
            <ns3:atemp>33.0</ns3:atemp>
            <ns3:hr>98</ns3:hr>
          </ns3:TrackPointExtension>
        </extensions>
      </trkpt>
      <trkpt lat="36.8308987654745578765869140625" lon="-118.40935715474188327789306640625">
        <ele>3152.800048828125</ele>
        <time>2021-06-27T21:48:03.000Z</time>
        <extensions>
          <ns3:TrackPointExtension>
            <ns3:atemp>33.0</ns3:atemp>
            <ns3:hr>97</ns3:hr>
          </ns3:TrackPointExtension>
        </extensions>
      </trkpt>
      <trkpt lat="36.83096992783248424530029296875" lon="-118.4094145707786083221435546875">
        <ele>3153</ele>
        <time>2021-06-27T21:48:11.000Z</time>
        <extensions>
          <ns3:TrackPointExtension>
            <ns3:atemp>33.0</ns3:atemp>
            <ns3:hr>99</ns3:hr>
          </ns3:TrackPointExtension>
        </extensions>
      </trkpt>
      <trkpt lat="36.8310526572167873382568359375" lon="-118.40945472009479999542236328125">
        <ele>3152.39990234375</ele>
        <time>2021-06-27T21:48:20.000Z</time>
        <extensions>
          <ns3:TrackPointExtension>
            <ns3:atemp>33.0</ns3:atemp>
            <ns3:hr>101</ns3:hr>
          </ns3:TrackPointExtension>
        </extensions>
      </trkpt>
      <trkpt lat="36.83106598444283008575439453125" lon="-118.40946192853152751922607421875">
        <ele>3152.39990234375</ele>
        <time>2021-06-27T21:48:22.000Z</time>
        <extensions>
          <ns3:TrackPointExtension>
            <ns3:atemp>33.0</ns3:atemp>
            <ns3:hr>102</ns3:hr>
          </ns3:TrackPointExtension>
        </extensions>
      </trkpt>
      <trkpt lat="36.83109029196202754974365234375" lon="-118.409470058977603912353515625">
        <ele>3152</ele>
        <time>2021-06-27T21:48:25.000Z</time>
        <extensions>
          <ns3:TrackPointExtension>
            <ns3:atemp>33.0</ns3:atemp>
            <ns3:hr>103</ns3:hr>
          </ns3:TrackPointExtension>
        </extensions>
      </trkpt>
      <trkpt lat="36.83110512793064117431640625" lon="-118.409480787813663482666015625">
        <ele>3151.800048828125</ele>
        <time>2021-06-27T21:48:27.000Z</time>
        <extensions>
          <ns3:TrackPointExtension>
            <ns3:atemp>33.0</ns3:atemp>
            <ns3:hr>101</ns3:hr>
          </ns3:TrackPointExtension>
        </extensions>
      </trkpt>
      <trkpt lat="36.83113790117204189300537109375" lon="-118.4095059335231781005859375">
        <ele>3151.60009765625</ele>
        <time>2021-06-27T21:48:33.000Z</time>
        <extensions>
          <ns3:TrackPointExtension>
            <ns3:atemp>33.0</ns3:atemp>
            <ns3:hr>102</ns3:hr>
          </ns3:TrackPointExtension>
        </extensions>
      </trkpt>
      <trkpt lat="36.83113371022045612335205078125" lon="-118.409517668187618255615234375">
        <ele>3151.60009765625</ele>
        <time>2021-06-27T21:48:35.000Z</time>
        <extensions>
          <ns3:TrackPointExtension>
            <ns3:atemp>33.0</ns3:atemp>
            <ns3:hr>102</ns3:hr>
          </ns3:TrackPointExtension>
        </extensions>
      </trkpt>
      <trkpt lat="36.83113069273531436920166015625" lon="-118.4095258824527263641357421875">
        <ele>3151.60009765625</ele>
        <time>2021-06-27T21:48:36.000Z</time>
        <extensions>
          <ns3:TrackPointExtension>
            <ns3:atemp>33.0</ns3:atemp>
            <ns3:hr>103</ns3:hr>
          </ns3:TrackPointExtension>
        </extensions>
      </trkpt>
      <trkpt lat="36.8311438523232936859130859375" lon="-118.40956351719796657562255859375">
        <ele>3151.800048828125</ele>
        <time>2021-06-27T21:48:42.000Z</time>
        <extensions>
          <ns3:TrackPointExtension>
            <ns3:atemp>33.0</ns3:atemp>
            <ns3:hr>100</ns3:hr>
          </ns3:TrackPointExtension>
        </extensions>
      </trkpt>
      <trkpt lat="36.831155754625797271728515625" lon="-118.4095863997936248779296875">
        <ele>3152</ele>
        <time>2021-06-27T21:48:48.000Z</time>
        <extensions>
          <ns3:TrackPointExtension>
            <ns3:atemp>33.0</ns3:atemp>
            <ns3:hr>98</ns3:hr>
          </ns3:TrackPointExtension>
        </extensions>
      </trkpt>
      <trkpt lat="36.83114980347454547882080078125" lon="-118.40955396182835102081298828125">
        <ele>3151.39990234375</ele>
        <time>2021-06-27T21:48:55.000Z</time>
        <extensions>
          <ns3:TrackPointExtension>
            <ns3:atemp>33.0</ns3:atemp>
            <ns3:hr>100</ns3:hr>
          </ns3:TrackPointExtension>
        </extensions>
      </trkpt>
      <trkpt lat="36.83114980347454547882080078125" lon="-118.40955396182835102081298828125">
        <ele>3151.800048828125</ele>
        <time>2021-06-27T21:49:01.000Z</time>
        <extensions>
          <ns3:TrackPointExtension>
            <ns3:atemp>33.0</ns3:atemp>
            <ns3:hr>103</ns3:hr>
          </ns3:TrackPointExtension>
        </extensions>
      </trkpt>
      <trkpt lat="36.83115650899708271026611328125" lon="-118.409564606845378875732421875">
        <ele>3151.60009765625</ele>
        <time>2021-06-27T21:49:15.000Z</time>
        <extensions>
          <ns3:TrackPointExtension>
            <ns3:atemp>33.0</ns3:atemp>
            <ns3:hr>106</ns3:hr>
          </ns3:TrackPointExtension>
        </extensions>
      </trkpt>
      <trkpt lat="36.83115751482546329498291015625" lon="-118.4095649421215057373046875">
        <ele>3151.60009765625</ele>
        <time>2021-06-27T21:49:23.000Z</time>
        <extensions>
          <ns3:TrackPointExtension>
            <ns3:atemp>33.0</ns3:atemp>
            <ns3:hr>103</ns3:hr>
          </ns3:TrackPointExtension>
        </extensions>
      </trkpt>
      <trkpt lat="36.83115969412028789520263671875" lon="-118.409567289054393768310546875">
        <ele>3151.800048828125</ele>
        <time>2021-06-27T21:49:28.000Z</time>
        <extensions>
          <ns3:TrackPointExtension>
            <ns3:atemp>33.0</ns3:atemp>
            <ns3:hr>100</ns3:hr>
          </ns3:TrackPointExtension>
        </extensions>
      </trkpt>
      <trkpt lat="36.83109439909458160400390625" lon="-118.409602157771587371826171875">
        <ele>3152</ele>
        <time>2021-06-27T21:49:42.000Z</time>
        <extensions>
          <ns3:TrackPointExtension>
            <ns3:atemp>33.0</ns3:atemp>
            <ns3:hr>100</ns3:hr>
          </ns3:TrackPointExtension>
        </extensions>
      </trkpt>
      <trkpt lat="36.83107302524149417877197265625" lon="-118.4096663631498813629150390625">
        <ele>3152.39990234375</ele>
        <time>2021-06-27T21:49:47.000Z</time>
        <extensions>
          <ns3:TrackPointExtension>
            <ns3:atemp>33.0</ns3:atemp>
            <ns3:hr>99</ns3:hr>
          </ns3:TrackPointExtension>
        </extensions>
      </trkpt>
      <trkpt lat="36.83107956312596797943115234375" lon="-118.40967047028243541717529296875">
        <ele>3152.39990234375</ele>
        <time>2021-06-27T21:49:48.000Z</time>
        <extensions>
          <ns3:TrackPointExtension>
            <ns3:atemp>33.0</ns3:atemp>
            <ns3:hr>100</ns3:hr>
          </ns3:TrackPointExtension>
        </extensions>
      </trkpt>
      <trkpt lat="36.831122227013111114501953125" lon="-118.4097151458263397216796875">
        <ele>3152.39990234375</ele>
        <time>2021-06-27T21:49:55.000Z</time>
        <extensions>
          <ns3:TrackPointExtension>
            <ns3:atemp>33.0</ns3:atemp>
            <ns3:hr>97</ns3:hr>
          </ns3:TrackPointExtension>
        </extensions>
      </trkpt>
      <trkpt lat="36.83114561252295970916748046875" lon="-118.40973769314587116241455078125">
        <ele>3152.60009765625</ele>
        <time>2021-06-27T21:49:58.000Z</time>
        <extensions>
          <ns3:TrackPointExtension>
            <ns3:atemp>33.0</ns3:atemp>
            <ns3:hr>99</ns3:hr>
          </ns3:TrackPointExtension>
        </extensions>
      </trkpt>
      <trkpt lat="36.83115986175835132598876953125" lon="-118.409751690924167633056640625">
        <ele>3152.39990234375</ele>
        <time>2021-06-27T21:50:00.000Z</time>
        <extensions>
          <ns3:TrackPointExtension>
            <ns3:atemp>33.0</ns3:atemp>
            <ns3:hr>103</ns3:hr>
          </ns3:TrackPointExtension>
        </extensions>
      </trkpt>
      <trkpt lat="36.83119573630392551422119140625" lon="-118.40976971201598644256591796875">
        <ele>3152.39990234375</ele>
        <time>2021-06-27T21:50:04.000Z</time>
        <extensions>
          <ns3:TrackPointExtension>
            <ns3:atemp>33.0</ns3:atemp>
            <ns3:hr>106</ns3:hr>
          </ns3:TrackPointExtension>
        </extensions>
      </trkpt>
      <trkpt lat="36.8312125839293003082275390625" lon="-118.40977348387241363525390625">
        <ele>3152.60009765625</ele>
        <time>2021-06-27T21:50:06.000Z</time>
        <extensions>
          <ns3:TrackPointExtension>
            <ns3:atemp>33.0</ns3:atemp>
            <ns3:hr>109</ns3:hr>
          </ns3:TrackPointExtension>
        </extensions>
      </trkpt>
      <trkpt lat="36.8312206305563449859619140625" lon="-118.40977708809077739715576171875">
        <ele>3152.60009765625</ele>
        <time>2021-06-27T21:50:07.000Z</time>
        <extensions>
          <ns3:TrackPointExtension>
            <ns3:atemp>33.0</ns3:atemp>
            <ns3:hr>112</ns3:hr>
          </ns3:TrackPointExtension>
        </extensions>
      </trkpt>
      <trkpt lat="36.8312461115419864654541015625" lon="-118.4097977913916110992431640625">
        <ele>3152.60009765625</ele>
        <time>2021-06-27T21:50:10.000Z</time>
        <extensions>
          <ns3:TrackPointExtension>
            <ns3:atemp>33.0</ns3:atemp>
            <ns3:hr>110</ns3:hr>
          </ns3:TrackPointExtension>
        </extensions>
      </trkpt>
      <trkpt lat="36.83130654506385326385498046875" lon="-118.4098863042891025543212890625">
        <ele>3151.60009765625</ele>
        <time>2021-06-27T21:50:18.000Z</time>
        <extensions>
          <ns3:TrackPointExtension>
            <ns3:atemp>33.0</ns3:atemp>
            <ns3:hr>107</ns3:hr>
          </ns3:TrackPointExtension>
        </extensions>
      </trkpt>
      <trkpt lat="36.83132565580308437347412109375" lon="-118.40989820659160614013671875">
        <ele>3151.60009765625</ele>
        <time>2021-06-27T21:50:20.000Z</time>
        <extensions>
          <ns3:TrackPointExtension>
            <ns3:atemp>33.0</ns3:atemp>
            <ns3:hr>107</ns3:hr>
          </ns3:TrackPointExtension>
        </extensions>
      </trkpt>
      <trkpt lat="36.831400506198406219482421875" lon="-118.40992712415754795074462890625">
        <ele>3151.800048828125</ele>
        <time>2021-06-27T21:50:28.000Z</time>
        <extensions>
          <ns3:TrackPointExtension>
            <ns3:atemp>33.0</ns3:atemp>
            <ns3:hr>105</ns3:hr>
          </ns3:TrackPointExtension>
        </extensions>
      </trkpt>
      <trkpt lat="36.8314774520695209503173828125" lon="-118.40991052798926830291748046875">
        <ele>3152.199951171875</ele>
        <time>2021-06-27T21:50:36.000Z</time>
        <extensions>
          <ns3:TrackPointExtension>
            <ns3:atemp>33.0</ns3:atemp>
            <ns3:hr>106</ns3:hr>
          </ns3:TrackPointExtension>
        </extensions>
      </trkpt>
      <trkpt lat="36.83154911734163761138916015625" lon="-118.409892506897449493408203125">
        <ele>3152.39990234375</ele>
        <time>2021-06-27T21:50:43.000Z</time>
        <extensions>
          <ns3:TrackPointExtension>
            <ns3:atemp>33.0</ns3:atemp>
            <ns3:hr>103</ns3:hr>
          </ns3:TrackPointExtension>
        </extensions>
      </trkpt>
      <trkpt lat="36.831576861441135406494140625" lon="-118.40988303534686565399169921875">
        <ele>3152.39990234375</ele>
        <time>2021-06-27T21:50:46.000Z</time>
        <extensions>
          <ns3:TrackPointExtension>
            <ns3:atemp>33.0</ns3:atemp>
            <ns3:hr>100</ns3:hr>
          </ns3:TrackPointExtension>
        </extensions>
      </trkpt>
      <trkpt lat="36.83159538544714450836181640625" lon="-118.4098732285201549530029296875">
        <ele>3152</ele>
        <time>2021-06-27T21:50:48.000Z</time>
        <extensions>
          <ns3:TrackPointExtension>
            <ns3:atemp>33.0</ns3:atemp>
            <ns3:hr>98</ns3:hr>
          </ns3:TrackPointExtension>
        </extensions>
      </trkpt>
      <trkpt lat="36.83162857778370380401611328125" lon="-118.409849591553211212158203125">
        <ele>3152</ele>
        <time>2021-06-27T21:50:51.000Z</time>
        <extensions>
          <ns3:TrackPointExtension>
            <ns3:atemp>33.0</ns3:atemp>
            <ns3:hr>100</ns3:hr>
          </ns3:TrackPointExtension>
        </extensions>
      </trkpt>
      <trkpt lat="36.83165774680674076080322265625" lon="-118.40978957712650299072265625">
        <ele>3152</ele>
        <time>2021-06-27T21:50:56.000Z</time>
        <extensions>
          <ns3:TrackPointExtension>
            <ns3:atemp>33.0</ns3:atemp>
            <ns3:hr>101</ns3:hr>
          </ns3:TrackPointExtension>
        </extensions>
      </trkpt>
      <trkpt lat="36.83168046176433563232421875" lon="-118.40973727405071258544921875">
        <ele>3152</ele>
        <time>2021-06-27T21:51:00.000Z</time>
        <extensions>
          <ns3:TrackPointExtension>
            <ns3:atemp>33.0</ns3:atemp>
            <ns3:hr>98</ns3:hr>
          </ns3:TrackPointExtension>
        </extensions>
      </trkpt>
      <trkpt lat="36.83170418255031108856201171875" lon="-118.4096958674490451812744140625">
        <ele>3152</ele>
        <time>2021-06-27T21:51:04.000Z</time>
        <extensions>
          <ns3:TrackPointExtension>
            <ns3:atemp>33.0</ns3:atemp>
            <ns3:hr>94</ns3:hr>
          </ns3:TrackPointExtension>
        </extensions>
      </trkpt>
      <trkpt lat="36.8317131511867046356201171875" lon="-118.409685976803302764892578125">
        <ele>3152.199951171875</ele>
        <time>2021-06-27T21:51:05.000Z</time>
        <extensions>
          <ns3:TrackPointExtension>
            <ns3:atemp>33.0</ns3:atemp>
            <ns3:hr>96</ns3:hr>
          </ns3:TrackPointExtension>
        </extensions>
      </trkpt>
      <trkpt lat="36.8317463435232639312744140625" lon="-118.40966284275054931640625">
        <ele>3153.199951171875</ele>
        <time>2021-06-27T21:51:10.000Z</time>
        <extensions>
          <ns3:TrackPointExtension>
            <ns3:atemp>33.0</ns3:atemp>
            <ns3:hr>95</ns3:hr>
          </ns3:TrackPointExtension>
        </extensions>
      </trkpt>
      <trkpt lat="36.83177073486149311065673828125" lon="-118.40965404175221920013427734375">
        <ele>3153.60009765625</ele>
        <time>2021-06-27T21:51:13.000Z</time>
        <extensions>
          <ns3:TrackPointExtension>
            <ns3:atemp>33.0</ns3:atemp>
            <ns3:hr>99</ns3:hr>
          </ns3:TrackPointExtension>
        </extensions>
      </trkpt>
      <trkpt lat="36.8317775242030620574951171875" lon="-118.40965420939028263092041015625">
        <ele>3153.60009765625</ele>
        <time>2021-06-27T21:51:14.000Z</time>
        <extensions>
          <ns3:TrackPointExtension>
            <ns3:atemp>33.0</ns3:atemp>
            <ns3:hr>103</ns3:hr>
          </ns3:TrackPointExtension>
        </extensions>
      </trkpt>
      <trkpt lat="36.83181859552860260009765625" lon="-118.40963803231716156005859375">
        <ele>3153.60009765625</ele>
        <time>2021-06-27T21:51:18.000Z</time>
        <extensions>
          <ns3:TrackPointExtension>
            <ns3:atemp>33.0</ns3:atemp>
            <ns3:hr>106</ns3:hr>
          </ns3:TrackPointExtension>
        </extensions>
      </trkpt>
      <trkpt lat="36.831834353506565093994140625" lon="-118.4096234478056430816650390625">
        <ele>3153.199951171875</ele>
        <time>2021-06-27T21:51:20.000Z</time>
        <extensions>
          <ns3:TrackPointExtension>
            <ns3:atemp>33.0</ns3:atemp>
            <ns3:hr>108</ns3:hr>
          </ns3:TrackPointExtension>
        </extensions>
      </trkpt>
      <trkpt lat="36.8319185078144073486328125" lon="-118.409579694271087646484375">
        <ele>3152.39990234375</ele>
        <time>2021-06-27T21:51:29.000Z</time>
        <extensions>
          <ns3:TrackPointExtension>
            <ns3:atemp>33.0</ns3:atemp>
            <ns3:hr>108</ns3:hr>
          </ns3:TrackPointExtension>
        </extensions>
      </trkpt>
      <trkpt lat="36.8319280631840229034423828125" lon="-118.40957391075789928436279296875">
        <ele>3151.800048828125</ele>
        <time>2021-06-27T21:51:30.000Z</time>
        <extensions>
          <ns3:TrackPointExtension>
            <ns3:atemp>33.0</ns3:atemp>
            <ns3:hr>107</ns3:hr>
          </ns3:TrackPointExtension>
        </extensions>
      </trkpt>
      <trkpt lat="36.832011044025421142578125" lon="-118.4095097891986370086669921875">
        <ele>3152.199951171875</ele>
        <time>2021-06-27T21:51:40.000Z</time>
        <extensions>
          <ns3:TrackPointExtension>
            <ns3:atemp>33.0</ns3:atemp>
            <ns3:hr>108</ns3:hr>
          </ns3:TrackPointExtension>
        </extensions>
      </trkpt>
      <trkpt lat="36.83206544257700443267822265625" lon="-118.40948003344237804412841796875">
        <ele>3152.60009765625</ele>
        <time>2021-06-27T21:51:46.000Z</time>
        <extensions>
          <ns3:TrackPointExtension>
            <ns3:atemp>33.0</ns3:atemp>
            <ns3:hr>109</ns3:hr>
          </ns3:TrackPointExtension>
        </extensions>
      </trkpt>
      <trkpt lat="36.8321143090724945068359375" lon="-118.4094605036079883575439453125">
        <ele>3152.199951171875</ele>
        <time>2021-06-27T21:51:51.000Z</time>
        <extensions>
          <ns3:TrackPointExtension>
            <ns3:atemp>33.0</ns3:atemp>
            <ns3:hr>107</ns3:hr>
          </ns3:TrackPointExtension>
        </extensions>
      </trkpt>
      <trkpt lat="36.83218781836330890655517578125" lon="-118.4094092063605785369873046875">
        <ele>3151.60009765625</ele>
        <time>2021-06-27T21:51:59.000Z</time>
        <extensions>
          <ns3:TrackPointExtension>
            <ns3:atemp>33.0</ns3:atemp>
            <ns3:hr>107</ns3:hr>
          </ns3:TrackPointExtension>
        </extensions>
      </trkpt>
      <trkpt lat="36.8322485871613025665283203125" lon="-118.40938632376492023468017578125">
        <ele>3151.39990234375</ele>
        <time>2021-06-27T21:52:06.000Z</time>
        <extensions>
          <ns3:TrackPointExtension>
            <ns3:atemp>33.0</ns3:atemp>
            <ns3:hr>108</ns3:hr>
          </ns3:TrackPointExtension>
        </extensions>
      </trkpt>
      <trkpt lat="36.83234254829585552215576171875" lon="-118.4093558974564075469970703125">
        <ele>3151</ele>
        <time>2021-06-27T21:52:15.000Z</time>
        <extensions>
          <ns3:TrackPointExtension>
            <ns3:atemp>33.0</ns3:atemp>
            <ns3:hr>108</ns3:hr>
          </ns3:TrackPointExtension>
        </extensions>
      </trkpt>
      <trkpt lat="36.8323689512908458709716796875" lon="-118.409352712333202362060546875">
        <ele>3151</ele>
        <time>2021-06-27T21:52:17.000Z</time>
        <extensions>
          <ns3:TrackPointExtension>
            <ns3:atemp>33.0</ns3:atemp>
            <ns3:hr>111</ns3:hr>
          </ns3:TrackPointExtension>
        </extensions>
      </trkpt>
      <trkpt lat="36.8323813565075397491455078125" lon="-118.40935179032385349273681640625">
        <ele>3150.800048828125</ele>
        <time>2021-06-27T21:52:18.000Z</time>
        <extensions>
          <ns3:TrackPointExtension>
            <ns3:atemp>33.0</ns3:atemp>
            <ns3:hr>108</ns3:hr>
          </ns3:TrackPointExtension>
        </extensions>
      </trkpt>
      <trkpt lat="36.8324604816734790802001953125" lon="-118.40932463295757770538330078125">
        <ele>3150.199951171875</ele>
        <time>2021-06-27T21:52:25.000Z</time>
        <extensions>
          <ns3:TrackPointExtension>
            <ns3:atemp>33.0</ns3:atemp>
            <ns3:hr>108</ns3:hr>
          </ns3:TrackPointExtension>
        </extensions>
      </trkpt>
      <trkpt lat="36.83254086412489414215087890625" lon="-118.409342654049396514892578125">
        <ele>3149.800048828125</ele>
        <time>2021-06-27T21:52:33.000Z</time>
        <extensions>
          <ns3:TrackPointExtension>
            <ns3:atemp>33.0</ns3:atemp>
            <ns3:hr>108</ns3:hr>
          </ns3:TrackPointExtension>
        </extensions>
      </trkpt>
      <trkpt lat="36.8325568735599517822265625" lon="-118.409343324601650238037109375">
        <ele>3149.39990234375</ele>
        <time>2021-06-27T21:52:34.000Z</time>
        <extensions>
          <ns3:TrackPointExtension>
            <ns3:atemp>33.0</ns3:atemp>
            <ns3:hr>108</ns3:hr>
          </ns3:TrackPointExtension>
        </extensions>
      </trkpt>
      <trkpt lat="36.8325734697282314300537109375" lon="-118.4093351103365421295166015625">
        <ele>3149.39990234375</ele>
        <time>2021-06-27T21:52:36.000Z</time>
        <extensions>
          <ns3:TrackPointExtension>
            <ns3:atemp>33.0</ns3:atemp>
            <ns3:hr>108</ns3:hr>
          </ns3:TrackPointExtension>
        </extensions>
      </trkpt>
      <trkpt lat="36.8326103501021862030029296875" lon="-118.40930082835257053375244140625">
        <ele>3149.60009765625</ele>
        <time>2021-06-27T21:52:40.000Z</time>
        <extensions>
          <ns3:TrackPointExtension>
            <ns3:atemp>33.0</ns3:atemp>
            <ns3:hr>108</ns3:hr>
          </ns3:TrackPointExtension>
        </extensions>
      </trkpt>
      <trkpt lat="36.8326730467379093170166015625" lon="-118.40923477895557880401611328125">
        <ele>3148.60009765625</ele>
        <time>2021-06-27T21:52:47.000Z</time>
        <extensions>
          <ns3:TrackPointExtension>
            <ns3:atemp>33.0</ns3:atemp>
            <ns3:hr>105</ns3:hr>
          </ns3:TrackPointExtension>
        </extensions>
      </trkpt>
      <trkpt lat="36.8326802551746368408203125" lon="-118.40922270901501178741455078125">
        <ele>3148</ele>
        <time>2021-06-27T21:52:48.000Z</time>
        <extensions>
          <ns3:TrackPointExtension>
            <ns3:atemp>33.0</ns3:atemp>
            <ns3:hr>105</ns3:hr>
          </ns3:TrackPointExtension>
        </extensions>
      </trkpt>
      <trkpt lat="36.8326881341636180877685546875" lon="-118.40921348892152309417724609375">
        <ele>3147.800048828125</ele>
        <time>2021-06-27T21:52:49.000Z</time>
        <extensions>
          <ns3:TrackPointExtension>
            <ns3:atemp>33.0</ns3:atemp>
            <ns3:hr>104</ns3:hr>
          </ns3:TrackPointExtension>
        </extensions>
      </trkpt>
      <trkpt lat="36.83271654881536960601806640625" lon="-118.40917644090950489044189453125">
        <ele>3147.39990234375</ele>
        <time>2021-06-27T21:52:53.000Z</time>
        <extensions>
          <ns3:TrackPointExtension>
            <ns3:atemp>33.0</ns3:atemp>
            <ns3:hr>103</ns3:hr>
          </ns3:TrackPointExtension>
        </extensions>
      </trkpt>
      <trkpt lat="36.8327491544187068939208984375" lon="-118.4091463498771190643310546875">
        <ele>3147.199951171875</ele>
        <time>2021-06-27T21:52:57.000Z</time>
        <extensions>
          <ns3:TrackPointExtension>
            <ns3:atemp>33.0</ns3:atemp>
            <ns3:hr>102</ns3:hr>
          </ns3:TrackPointExtension>
        </extensions>
      </trkpt>
      <trkpt lat="36.8327660858631134033203125" lon="-118.4091322682797908782958984375">
        <ele>3147</ele>
        <time>2021-06-27T21:52:59.000Z</time>
        <extensions>
          <ns3:TrackPointExtension>
            <ns3:atemp>33.0</ns3:atemp>
            <ns3:hr>103</ns3:hr>
          </ns3:TrackPointExtension>
        </extensions>
      </trkpt>
      <trkpt lat="36.8328242562711238861083984375" lon="-118.4090994112193584442138671875">
        <ele>3146.199951171875</ele>
        <time>2021-06-27T21:53:05.000Z</time>
        <extensions>
          <ns3:TrackPointExtension>
            <ns3:atemp>33.0</ns3:atemp>
            <ns3:hr>101</ns3:hr>
          </ns3:TrackPointExtension>
        </extensions>
      </trkpt>
      <trkpt lat="36.8328329734504222869873046875" lon="-118.40909094549715518951416015625">
        <ele>3146.199951171875</ele>
        <time>2021-06-27T21:53:06.000Z</time>
        <extensions>
          <ns3:TrackPointExtension>
            <ns3:atemp>33.0</ns3:atemp>
            <ns3:hr>98</ns3:hr>
          </ns3:TrackPointExtension>
        </extensions>
      </trkpt>
      <trkpt lat="36.832842193543910980224609375" lon="-118.40908147394657135009765625">
        <ele>3146</ele>
        <time>2021-06-27T21:53:07.000Z</time>
        <extensions>
          <ns3:TrackPointExtension>
            <ns3:atemp>33.0</ns3:atemp>
            <ns3:hr>100</ns3:hr>
          </ns3:TrackPointExtension>
        </extensions>
      </trkpt>
      <trkpt lat="36.83291293680667877197265625" lon="-118.409026823937892913818359375">
        <ele>3144.800048828125</ele>
        <time>2021-06-27T21:53:15.000Z</time>
        <extensions>
          <ns3:TrackPointExtension>
            <ns3:atemp>33.0</ns3:atemp>
            <ns3:hr>101</ns3:hr>
          </ns3:TrackPointExtension>
        </extensions>
      </trkpt>
      <trkpt lat="36.8329278565943241119384765625" lon="-118.40898147784173488616943359375">
        <ele>3143.60009765625</ele>
        <time>2021-06-27T21:53:19.000Z</time>
        <extensions>
          <ns3:TrackPointExtension>
            <ns3:atemp>33.0</ns3:atemp>
            <ns3:hr>103</ns3:hr>
          </ns3:TrackPointExtension>
        </extensions>
      </trkpt>
      <trkpt lat="36.832944788038730621337890625" lon="-118.40892179869115352630615234375">
        <ele>3143</ele>
        <time>2021-06-27T21:53:24.000Z</time>
        <extensions>
          <ns3:TrackPointExtension>
            <ns3:atemp>33.0</ns3:atemp>
            <ns3:hr>104</ns3:hr>
          </ns3:TrackPointExtension>
        </extensions>
      </trkpt>
      <trkpt lat="36.83295878581702709197998046875" lon="-118.4088972397148609161376953125">
        <ele>3142.39990234375</ele>
        <time>2021-06-27T21:53:26.000Z</time>
        <extensions>
          <ns3:TrackPointExtension>
            <ns3:atemp>33.0</ns3:atemp>
            <ns3:hr>102</ns3:hr>
          </ns3:TrackPointExtension>
        </extensions>
      </trkpt>
      <trkpt lat="36.8329791538417339324951171875" lon="-118.40885658748447895050048828125">
        <ele>3141.39990234375</ele>
        <time>2021-06-27T21:53:30.000Z</time>
        <extensions>
          <ns3:TrackPointExtension>
            <ns3:atemp>33.0</ns3:atemp>
            <ns3:hr>99</ns3:hr>
          </ns3:TrackPointExtension>
        </extensions>
      </trkpt>
      <trkpt lat="36.83298560790717601776123046875" lon="-118.408843763172626495361328125">
        <ele>3141.199951171875</ele>
        <time>2021-06-27T21:53:31.000Z</time>
        <extensions>
          <ns3:TrackPointExtension>
            <ns3:atemp>33.0</ns3:atemp>
            <ns3:hr>99</ns3:hr>
          </ns3:TrackPointExtension>
        </extensions>
      </trkpt>
      <trkpt lat="36.8329962529242038726806640625" lon="-118.4088254906237125396728515625">
        <ele>3141.199951171875</ele>
        <time>2021-06-27T21:53:33.000Z</time>
        <extensions>
          <ns3:TrackPointExtension>
            <ns3:atemp>33.0</ns3:atemp>
            <ns3:hr>99</ns3:hr>
          </ns3:TrackPointExtension>
        </extensions>
      </trkpt>
      <trkpt lat="36.83300773613154888153076171875" lon="-118.4088000096380710601806640625">
        <ele>3140.199951171875</ele>
        <time>2021-06-27T21:53:36.000Z</time>
        <extensions>
          <ns3:TrackPointExtension>
            <ns3:atemp>33.0</ns3:atemp>
            <ns3:hr>100</ns3:hr>
          </ns3:TrackPointExtension>
        </extensions>
      </trkpt>
      <trkpt lat="36.83299348689615726470947265625" lon="-118.40877930633723735809326171875">
        <ele>3140</ele>
        <time>2021-06-27T21:53:38.000Z</time>
        <extensions>
          <ns3:TrackPointExtension>
            <ns3:atemp>33.0</ns3:atemp>
            <ns3:hr>103</ns3:hr>
          </ns3:TrackPointExtension>
        </extensions>
      </trkpt>
      <trkpt lat="36.8329297006130218505859375" lon="-118.408767320215702056884765625">
        <ele>3139.199951171875</ele>
        <time>2021-06-27T21:53:44.000Z</time>
        <extensions>
          <ns3:TrackPointExtension>
            <ns3:atemp>33.0</ns3:atemp>
            <ns3:hr>104</ns3:hr>
          </ns3:TrackPointExtension>
        </extensions>
      </trkpt>
      <trkpt lat="36.832923330366611480712890625" lon="-118.40876421891152858734130859375">
        <ele>3139.199951171875</ele>
        <time>2021-06-27T21:53:45.000Z</time>
        <extensions>
          <ns3:TrackPointExtension>
            <ns3:atemp>33.0</ns3:atemp>
            <ns3:hr>104</ns3:hr>
          </ns3:TrackPointExtension>
        </extensions>
      </trkpt>
      <trkpt lat="36.83292089961469173431396484375" lon="-118.408757261931896209716796875">
        <ele>3139</ele>
        <time>2021-06-27T21:53:46.000Z</time>
        <extensions>
          <ns3:TrackPointExtension>
            <ns3:atemp>33.0</ns3:atemp>
            <ns3:hr>103</ns3:hr>
          </ns3:TrackPointExtension>
        </extensions>
      </trkpt>
      <trkpt lat="36.832940094172954559326171875" lon="-118.40871962718665599822998046875">
        <ele>3138.199951171875</ele>
        <time>2021-06-27T21:53:50.000Z</time>
        <extensions>
          <ns3:TrackPointExtension>
            <ns3:atemp>33.0</ns3:atemp>
            <ns3:hr>100</ns3:hr>
          </ns3:TrackPointExtension>
        </extensions>
      </trkpt>
      <trkpt lat="36.83295761235058307647705078125" lon="-118.4086947329342365264892578125">
        <ele>3138</ele>
        <time>2021-06-27T21:53:53.000Z</time>
        <extensions>
          <ns3:TrackPointExtension>
            <ns3:atemp>33.0</ns3:atemp>
            <ns3:hr>99</ns3:hr>
          </ns3:TrackPointExtension>
        </extensions>
      </trkpt>
      <trkpt lat="36.8330029584467411041259765625" lon="-118.40862893499433994293212890625">
        <ele>3137.800048828125</ele>
        <time>2021-06-27T21:54:00.000Z</time>
        <extensions>
          <ns3:TrackPointExtension>
            <ns3:atemp>33.0</ns3:atemp>
            <ns3:hr>102</ns3:hr>
          </ns3:TrackPointExtension>
        </extensions>
      </trkpt>
      <trkpt lat="36.8330130167305469512939453125" lon="-118.4086162783205509185791015625">
        <ele>3137.60009765625</ele>
        <time>2021-06-27T21:54:02.000Z</time>
        <extensions>
          <ns3:TrackPointExtension>
            <ns3:atemp>33.0</ns3:atemp>
            <ns3:hr>102</ns3:hr>
          </ns3:TrackPointExtension>
        </extensions>
      </trkpt>
      <trkpt lat="36.833020560443401336669921875" lon="-118.408610410988330841064453125">
        <ele>3137.39990234375</ele>
        <time>2021-06-27T21:54:03.000Z</time>
        <extensions>
          <ns3:TrackPointExtension>
            <ns3:atemp>33.0</ns3:atemp>
            <ns3:hr>102</ns3:hr>
          </ns3:TrackPointExtension>
        </extensions>
      </trkpt>
      <trkpt lat="36.83303103782236576080322265625" lon="-118.4086048789322376251220703125">
        <ele>3137.199951171875</ele>
        <time>2021-06-27T21:54:04.000Z</time>
        <extensions>
          <ns3:TrackPointExtension>
            <ns3:atemp>33.0</ns3:atemp>
            <ns3:hr>102</ns3:hr>
          </ns3:TrackPointExtension>
        </extensions>
      </trkpt>
      <trkpt lat="36.833081580698490142822265625" lon="-118.4085814096033573150634765625">
        <ele>3136</ele>
        <time>2021-06-27T21:54:10.000Z</time>
        <extensions>
          <ns3:TrackPointExtension>
            <ns3:atemp>33.0</ns3:atemp>
            <ns3:hr>100</ns3:hr>
          </ns3:TrackPointExtension>
        </extensions>
      </trkpt>
      <trkpt lat="36.83309658430516719818115234375" lon="-118.4085752069950103759765625">
        <ele>3135.800048828125</ele>
        <time>2021-06-27T21:54:12.000Z</time>
        <extensions>
          <ns3:TrackPointExtension>
            <ns3:atemp>33.0</ns3:atemp>
            <ns3:hr>101</ns3:hr>
          </ns3:TrackPointExtension>
        </extensions>
      </trkpt>
      <trkpt lat="36.83311385102570056915283203125" lon="-118.40856070630252361297607421875">
        <ele>3135</ele>
        <time>2021-06-27T21:54:15.000Z</time>
        <extensions>
          <ns3:TrackPointExtension>
            <ns3:atemp>33.0</ns3:atemp>
            <ns3:hr>100</ns3:hr>
          </ns3:TrackPointExtension>
        </extensions>
      </trkpt>
      <trkpt lat="36.833141930401325225830078125" lon="-118.4085348062217235565185546875">
        <ele>3133.800048828125</ele>
        <time>2021-06-27T21:54:19.000Z</time>
        <extensions>
          <ns3:TrackPointExtension>
            <ns3:atemp>33.0</ns3:atemp>
            <ns3:hr>99</ns3:hr>
          </ns3:TrackPointExtension>
        </extensions>
      </trkpt>
      <trkpt lat="36.8331474624574184417724609375" lon="-118.408528268337249755859375">
        <ele>3133.800048828125</ele>
        <time>2021-06-27T21:54:20.000Z</time>
        <extensions>
          <ns3:TrackPointExtension>
            <ns3:atemp>33.0</ns3:atemp>
            <ns3:hr>99</ns3:hr>
          </ns3:TrackPointExtension>
        </extensions>
      </trkpt>
      <trkpt lat="36.83315525762736797332763671875" lon="-118.408519215881824493408203125">
        <ele>3133.199951171875</ele>
        <time>2021-06-27T21:54:23.000Z</time>
        <extensions>
          <ns3:TrackPointExtension>
            <ns3:atemp>33.0</ns3:atemp>
            <ns3:hr>95</ns3:hr>
          </ns3:TrackPointExtension>
        </extensions>
      </trkpt>
      <trkpt lat="36.83316213078796863555908203125" lon="-118.40851041488349437713623046875">
        <ele>3133.199951171875</ele>
        <time>2021-06-27T21:54:26.000Z</time>
        <extensions>
          <ns3:TrackPointExtension>
            <ns3:atemp>33.0</ns3:atemp>
            <ns3:hr>92</ns3:hr>
          </ns3:TrackPointExtension>
        </extensions>
      </trkpt>
      <trkpt lat="36.833169758319854736328125" lon="-118.4084962494671344757080078125">
        <ele>3132.39990234375</ele>
        <time>2021-06-27T21:54:28.000Z</time>
        <extensions>
          <ns3:TrackPointExtension>
            <ns3:atemp>33.0</ns3:atemp>
            <ns3:hr>91</ns3:hr>
          </ns3:TrackPointExtension>
        </extensions>
      </trkpt>
      <trkpt lat="36.83321275748312473297119140625" lon="-118.40846615843474864959716796875">
        <ele>3131.39990234375</ele>
        <time>2021-06-27T21:54:35.000Z</time>
        <extensions>
          <ns3:TrackPointExtension>
            <ns3:atemp>33.0</ns3:atemp>
            <ns3:hr>89</ns3:hr>
          </ns3:TrackPointExtension>
        </extensions>
      </trkpt>
      <trkpt lat="36.8332255817949771881103515625" lon="-118.4084714390337467193603515625">
        <ele>3131.199951171875</ele>
        <time>2021-06-27T21:54:37.000Z</time>
        <extensions>
          <ns3:TrackPointExtension>
            <ns3:atemp>33.0</ns3:atemp>
            <ns3:hr>88</ns3:hr>
          </ns3:TrackPointExtension>
        </extensions>
      </trkpt>
      <trkpt lat="36.83325584046542644500732421875" lon="-118.4085281006991863250732421875">
        <ele>3130</ele>
        <time>2021-06-27T21:54:42.000Z</time>
        <extensions>
          <ns3:TrackPointExtension>
            <ns3:atemp>33.0</ns3:atemp>
            <ns3:hr>87</ns3:hr>
          </ns3:TrackPointExtension>
        </extensions>
      </trkpt>
      <trkpt lat="36.833270676434040069580078125" lon="-118.408548049628734588623046875">
        <ele>3129.800048828125</ele>
        <time>2021-06-27T21:54:44.000Z</time>
        <extensions>
          <ns3:TrackPointExtension>
            <ns3:atemp>33.0</ns3:atemp>
            <ns3:hr>87</ns3:hr>
          </ns3:TrackPointExtension>
        </extensions>
      </trkpt>
      <trkpt lat="36.8333107419312000274658203125" lon="-118.40859607793390750885009765625">
        <ele>3129.800048828125</ele>
        <time>2021-06-27T21:54:50.000Z</time>
        <extensions>
          <ns3:TrackPointExtension>
            <ns3:atemp>33.0</ns3:atemp>
            <ns3:hr>88</ns3:hr>
          </ns3:TrackPointExtension>
        </extensions>
      </trkpt>
      <trkpt lat="36.8333318643271923065185546875" lon="-118.40860663913190364837646484375">
        <ele>3130.199951171875</ele>
        <time>2021-06-27T21:54:52.000Z</time>
        <extensions>
          <ns3:TrackPointExtension>
            <ns3:atemp>33.0</ns3:atemp>
            <ns3:hr>88</ns3:hr>
          </ns3:TrackPointExtension>
        </extensions>
      </trkpt>
      <trkpt lat="36.83335441164672374725341796875" lon="-118.40863279066979885101318359375">
        <ele>3131</ele>
        <time>2021-06-27T21:54:56.000Z</time>
        <extensions>
          <ns3:TrackPointExtension>
            <ns3:atemp>33.0</ns3:atemp>
            <ns3:hr>88</ns3:hr>
          </ns3:TrackPointExtension>
        </extensions>
      </trkpt>
      <trkpt lat="36.8333613686263561248779296875" lon="-118.4086457826197147369384765625">
        <ele>3131.60009765625</ele>
        <time>2021-06-27T21:54:59.000Z</time>
        <extensions>
          <ns3:TrackPointExtension>
            <ns3:atemp>33.0</ns3:atemp>
            <ns3:hr>88</ns3:hr>
          </ns3:TrackPointExtension>
        </extensions>
      </trkpt>
      <trkpt lat="36.8333969078958034515380859375" lon="-118.408652655780315399169921875">
        <ele>3131.800048828125</ele>
        <time>2021-06-27T21:55:03.000Z</time>
        <extensions>
          <ns3:TrackPointExtension>
            <ns3:atemp>33.0</ns3:atemp>
            <ns3:hr>90</ns3:hr>
          </ns3:TrackPointExtension>
        </extensions>
      </trkpt>
      <trkpt lat="36.83339917100965976715087890625" lon="-118.4086655639111995697021484375">
        <ele>3132.39990234375</ele>
        <time>2021-06-27T21:55:04.000Z</time>
        <extensions>
          <ns3:TrackPointExtension>
            <ns3:atemp>33.0</ns3:atemp>
            <ns3:hr>91</ns3:hr>
          </ns3:TrackPointExtension>
        </extensions>
      </trkpt>
      <trkpt lat="36.833402775228023529052734375" lon="-118.40867704711854457855224609375">
        <ele>3132.39990234375</ele>
        <time>2021-06-27T21:55:05.000Z</time>
        <extensions>
          <ns3:TrackPointExtension>
            <ns3:atemp>33.0</ns3:atemp>
            <ns3:hr>91</ns3:hr>
          </ns3:TrackPointExtension>
        </extensions>
      </trkpt>
      <trkpt lat="36.8334130011498928070068359375" lon="-118.40869146399199962615966796875">
        <ele>3132.800048828125</ele>
        <time>2021-06-27T21:55:07.000Z</time>
        <extensions>
          <ns3:TrackPointExtension>
            <ns3:atemp>33.0</ns3:atemp>
            <ns3:hr>94</ns3:hr>
          </ns3:TrackPointExtension>
        </extensions>
      </trkpt>
      <trkpt lat="36.83342834003269672393798828125" lon="-118.4087007679045200347900390625">
        <ele>3133</ele>
        <time>2021-06-27T21:55:09.000Z</time>
        <extensions>
          <ns3:TrackPointExtension>
            <ns3:atemp>33.0</ns3:atemp>
            <ns3:hr>97</ns3:hr>
          </ns3:TrackPointExtension>
        </extensions>
      </trkpt>
      <trkpt lat="36.833454072475433349609375" lon="-118.4087222255766391754150390625">
        <ele>3133.199951171875</ele>
        <time>2021-06-27T21:55:12.000Z</time>
        <extensions>
          <ns3:TrackPointExtension>
            <ns3:atemp>33.0</ns3:atemp>
            <ns3:hr>102</ns3:hr>
          </ns3:TrackPointExtension>
        </extensions>
      </trkpt>
      <trkpt lat="36.833454407751560211181640625" lon="-118.40872700326144695281982421875">
        <ele>3133.199951171875</ele>
        <time>2021-06-27T21:55:13.000Z</time>
        <extensions>
          <ns3:TrackPointExtension>
            <ns3:atemp>33.0</ns3:atemp>
            <ns3:hr>103</ns3:hr>
          </ns3:TrackPointExtension>
        </extensions>
      </trkpt>
      <trkpt lat="36.83345851488411426544189453125" lon="-118.4087329544126987457275390625">
        <ele>3133.199951171875</ele>
        <time>2021-06-27T21:55:14.000Z</time>
        <extensions>
          <ns3:TrackPointExtension>
            <ns3:atemp>33.0</ns3:atemp>
            <ns3:hr>100</ns3:hr>
          </ns3:TrackPointExtension>
        </extensions>
      </trkpt>
      <trkpt lat="36.83346211910247802734375" lon="-118.40873924084007740020751953125">
        <ele>3133.199951171875</ele>
        <time>2021-06-27T21:55:15.000Z</time>
        <extensions>
          <ns3:TrackPointExtension>
            <ns3:atemp>33.0</ns3:atemp>
            <ns3:hr>105</ns3:hr>
          </ns3:TrackPointExtension>
        </extensions>
      </trkpt>
      <trkpt lat="36.8335041962563991546630859375" lon="-118.40881057083606719970703125">
        <ele>3133.199951171875</ele>
        <time>2021-06-27T21:55:21.000Z</time>
        <extensions>
          <ns3:TrackPointExtension>
            <ns3:atemp>33.0</ns3:atemp>
            <ns3:hr>107</ns3:hr>
          </ns3:TrackPointExtension>
        </extensions>
      </trkpt>
      <trkpt lat="36.8335551582276821136474609375" lon="-118.4088794700801372528076171875">
        <ele>3132.800048828125</ele>
        <time>2021-06-27T21:55:26.000Z</time>
        <extensions>
          <ns3:TrackPointExtension>
            <ns3:atemp>33.0</ns3:atemp>
            <ns3:hr>110</ns3:hr>
          </ns3:TrackPointExtension>
        </extensions>
      </trkpt>
      <trkpt lat="36.83356446214020252227783203125" lon="-118.40890201739966869354248046875">
        <ele>3132.800048828125</ele>
        <time>2021-06-27T21:55:28.000Z</time>
        <extensions>
          <ns3:TrackPointExtension>
            <ns3:atemp>33.0</ns3:atemp>
            <ns3:hr>109</ns3:hr>
          </ns3:TrackPointExtension>
        </extensions>
      </trkpt>
      <trkpt lat="36.8336373008787631988525390625" lon="-118.40901098214089870452880859375">
        <ele>3132.199951171875</ele>
        <time>2021-06-27T21:55:38.000Z</time>
        <extensions>
          <ns3:TrackPointExtension>
            <ns3:atemp>33.0</ns3:atemp>
            <ns3:hr>108</ns3:hr>
          </ns3:TrackPointExtension>
        </extensions>
      </trkpt>
      <trkpt lat="36.833682395517826080322265625" lon="-118.40907267294824123382568359375">
        <ele>3132</ele>
        <time>2021-06-27T21:55:44.000Z</time>
        <extensions>
          <ns3:TrackPointExtension>
            <ns3:atemp>33.0</ns3:atemp>
            <ns3:hr>105</ns3:hr>
          </ns3:TrackPointExtension>
        </extensions>
      </trkpt>
      <trkpt lat="36.83369345963001251220703125" lon="-118.40907719917595386505126953125">
        <ele>3131.800048828125</ele>
        <time>2021-06-27T21:55:45.000Z</time>
        <extensions>
          <ns3:TrackPointExtension>
            <ns3:atemp>33.0</ns3:atemp>
            <ns3:hr>105</ns3:hr>
          </ns3:TrackPointExtension>
        </extensions>
      </trkpt>
      <trkpt lat="36.8336956389248371124267578125" lon="-118.4090829826891422271728515625">
        <ele>3131.60009765625</ele>
        <time>2021-06-27T21:55:46.000Z</time>
        <extensions>
          <ns3:TrackPointExtension>
            <ns3:atemp>33.0</ns3:atemp>
            <ns3:hr>108</ns3:hr>
          </ns3:TrackPointExtension>
        </extensions>
      </trkpt>
      <trkpt lat="36.833721958100795745849609375" lon="-118.40912011452019214630126953125">
        <ele>3131.199951171875</ele>
        <time>2021-06-27T21:55:51.000Z</time>
        <extensions>
          <ns3:TrackPointExtension>
            <ns3:atemp>33.0</ns3:atemp>
            <ns3:hr>105</ns3:hr>
          </ns3:TrackPointExtension>
        </extensions>
      </trkpt>
      <trkpt lat="36.8337331898510456085205078125" lon="-118.40914182364940643310546875">
        <ele>3131</ele>
        <time>2021-06-27T21:55:53.000Z</time>
        <extensions>
          <ns3:TrackPointExtension>
            <ns3:atemp>33.0</ns3:atemp>
            <ns3:hr>108</ns3:hr>
          </ns3:TrackPointExtension>
        </extensions>
      </trkpt>
      <trkpt lat="36.83374844491481781005859375" lon="-118.40914274565875530242919921875">
        <ele>3131</ele>
        <time>2021-06-27T21:55:54.000Z</time>
        <extensions>
          <ns3:TrackPointExtension>
            <ns3:atemp>33.0</ns3:atemp>
            <ns3:hr>106</ns3:hr>
          </ns3:TrackPointExtension>
        </extensions>
      </trkpt>
      <trkpt lat="36.8337767757475376129150390625" lon="-118.40914911590516567230224609375">
        <ele>3130.800048828125</ele>
        <time>2021-06-27T21:55:57.000Z</time>
        <extensions>
          <ns3:TrackPointExtension>
            <ns3:atemp>33.0</ns3:atemp>
            <ns3:hr>109</ns3:hr>
          </ns3:TrackPointExtension>
        </extensions>
      </trkpt>
      <trkpt lat="36.83380133472383022308349609375" lon="-118.40915967710316181182861328125">
        <ele>3130.800048828125</ele>
        <time>2021-06-27T21:56:00.000Z</time>
        <extensions>
          <ns3:TrackPointExtension>
            <ns3:atemp>33.0</ns3:atemp>
            <ns3:hr>107</ns3:hr>
          </ns3:TrackPointExtension>
        </extensions>
      </trkpt>
      <trkpt lat="36.8338108062744140625" lon="-118.40916319750249385833740234375">
        <ele>3130.800048828125</ele>
        <time>2021-06-27T21:56:01.000Z</time>
        <extensions>
          <ns3:TrackPointExtension>
            <ns3:atemp>33.0</ns3:atemp>
            <ns3:hr>110</ns3:hr>
          </ns3:TrackPointExtension>
        </extensions>
      </trkpt>
      <trkpt lat="36.83385598473250865936279296875" lon="-118.4091567434370517730712890625">
        <ele>3131.199951171875</ele>
        <time>2021-06-27T21:56:06.000Z</time>
        <extensions>
          <ns3:TrackPointExtension>
            <ns3:atemp>33.0</ns3:atemp>
            <ns3:hr>109</ns3:hr>
          </ns3:TrackPointExtension>
        </extensions>
      </trkpt>
      <trkpt lat="36.833864785730838775634765625" lon="-118.40914945118129253387451171875">
        <ele>3131.199951171875</ele>
        <time>2021-06-27T21:56:07.000Z</time>
        <extensions>
          <ns3:TrackPointExtension>
            <ns3:atemp>33.0</ns3:atemp>
            <ns3:hr>109</ns3:hr>
          </ns3:TrackPointExtension>
        </extensions>
      </trkpt>
      <trkpt lat="36.8338979780673980712890625" lon="-118.4091168455779552459716796875">
        <ele>3130.39990234375</ele>
        <time>2021-06-27T21:56:11.000Z</time>
        <extensions>
          <ns3:TrackPointExtension>
            <ns3:atemp>33.0</ns3:atemp>
            <ns3:hr>106</ns3:hr>
          </ns3:TrackPointExtension>
        </extensions>
      </trkpt>
      <trkpt lat="36.83393946848809719085693359375" lon="-118.40907384641468524932861328125">
        <ele>3130.39990234375</ele>
        <time>2021-06-27T21:56:15.000Z</time>
        <extensions>
          <ns3:TrackPointExtension>
            <ns3:atemp>33.0</ns3:atemp>
            <ns3:hr>105</ns3:hr>
          </ns3:TrackPointExtension>
        </extensions>
      </trkpt>
      <trkpt lat="36.833972744643688201904296875" lon="-118.40903051197528839111328125">
        <ele>3130.39990234375</ele>
        <time>2021-06-27T21:56:18.000Z</time>
        <extensions>
          <ns3:TrackPointExtension>
            <ns3:atemp>33.0</ns3:atemp>
            <ns3:hr>102</ns3:hr>
          </ns3:TrackPointExtension>
        </extensions>
      </trkpt>
      <trkpt lat="36.83404575102031230926513671875" lon="-118.40894677676260471343994140625">
        <ele>3130.60009765625</ele>
        <time>2021-06-27T21:56:24.000Z</time>
        <extensions>
          <ns3:TrackPointExtension>
            <ns3:atemp>33.0</ns3:atemp>
            <ns3:hr>102</ns3:hr>
          </ns3:TrackPointExtension>
        </extensions>
      </trkpt>
      <trkpt lat="36.83411498554050922393798828125" lon="-118.408866226673126220703125">
        <ele>3130.800048828125</ele>
        <time>2021-06-27T21:56:32.000Z</time>
        <extensions>
          <ns3:TrackPointExtension>
            <ns3:atemp>33.0</ns3:atemp>
            <ns3:hr>103</ns3:hr>
          </ns3:TrackPointExtension>
        </extensions>
      </trkpt>
      <trkpt lat="36.8341447412967681884765625" lon="-118.4087902866303920745849609375">
        <ele>3130.800048828125</ele>
        <time>2021-06-27T21:56:41.000Z</time>
        <extensions>
          <ns3:TrackPointExtension>
            <ns3:atemp>33.0</ns3:atemp>
            <ns3:hr>105</ns3:hr>
          </ns3:TrackPointExtension>
        </extensions>
      </trkpt>
      <trkpt lat="36.83415077626705169677734375" lon="-118.40878601185977458953857421875">
        <ele>3130.60009765625</ele>
        <time>2021-06-27T21:56:42.000Z</time>
        <extensions>
          <ns3:TrackPointExtension>
            <ns3:atemp>33.0</ns3:atemp>
            <ns3:hr>101</ns3:hr>
          </ns3:TrackPointExtension>
        </extensions>
      </trkpt>
      <trkpt lat="36.83415924198925495147705078125" lon="-118.40878232382237911224365234375">
        <ele>3130.60009765625</ele>
        <time>2021-06-27T21:56:43.000Z</time>
        <extensions>
          <ns3:TrackPointExtension>
            <ns3:atemp>33.0</ns3:atemp>
            <ns3:hr>103</ns3:hr>
          </ns3:TrackPointExtension>
        </extensions>
      </trkpt>
      <trkpt lat="36.83420383371412754058837890625" lon="-118.40874351561069488525390625">
        <ele>3130.60009765625</ele>
        <time>2021-06-27T21:56:48.000Z</time>
        <extensions>
          <ns3:TrackPointExtension>
            <ns3:atemp>33.0</ns3:atemp>
            <ns3:hr>100</ns3:hr>
          </ns3:TrackPointExtension>
        </extensions>
      </trkpt>
      <trkpt lat="36.83427239768207073211669921875" lon="-118.40868894942104816436767578125">
        <ele>3130.800048828125</ele>
        <time>2021-06-27T21:56:56.000Z</time>
        <extensions>
          <ns3:TrackPointExtension>
            <ns3:atemp>33.0</ns3:atemp>
            <ns3:hr>99</ns3:hr>
          </ns3:TrackPointExtension>
        </extensions>
      </trkpt>
      <trkpt lat="36.8343056738376617431640625" lon="-118.40867453254759311676025390625">
        <ele>3131</ele>
        <time>2021-06-27T21:57:01.000Z</time>
        <extensions>
          <ns3:TrackPointExtension>
            <ns3:atemp>33.0</ns3:atemp>
            <ns3:hr>102</ns3:hr>
          </ns3:TrackPointExtension>
        </extensions>
      </trkpt>
      <trkpt lat="36.8343239463865756988525390625" lon="-118.40869062580168247222900390625">
        <ele>3131</ele>
        <time>2021-06-27T21:57:04.000Z</time>
        <extensions>
          <ns3:TrackPointExtension>
            <ns3:atemp>33.0</ns3:atemp>
            <ns3:hr>103</ns3:hr>
          </ns3:TrackPointExtension>
        </extensions>
      </trkpt>
      <trkpt lat="36.83439007960259914398193359375" lon="-118.4086541645228862762451171875">
        <ele>3131.199951171875</ele>
        <time>2021-06-27T21:57:10.000Z</time>
        <extensions>
          <ns3:TrackPointExtension>
            <ns3:atemp>33.0</ns3:atemp>
            <ns3:hr>106</ns3:hr>
          </ns3:TrackPointExtension>
        </extensions>
      </trkpt>
      <trkpt lat="36.83439862914383411407470703125" lon="-118.40864988975226879119873046875">
        <ele>3131.199951171875</ele>
        <time>2021-06-27T21:57:11.000Z</time>
        <extensions>
          <ns3:TrackPointExtension>
            <ns3:atemp>33.0</ns3:atemp>
            <ns3:hr>102</ns3:hr>
          </ns3:TrackPointExtension>
        </extensions>
      </trkpt>
      <trkpt lat="36.83446082286536693572998046875" lon="-118.40860127471387386322021484375">
        <ele>3131.199951171875</ele>
        <time>2021-06-27T21:57:17.000Z</time>
        <extensions>
          <ns3:TrackPointExtension>
            <ns3:atemp>33.0</ns3:atemp>
            <ns3:hr>105</ns3:hr>
          </ns3:TrackPointExtension>
        </extensions>
      </trkpt>
      <trkpt lat="36.83446736074984073638916015625" lon="-118.4085913002490997314453125">
        <ele>3131</ele>
        <time>2021-06-27T21:57:18.000Z</time>
        <extensions>
          <ns3:TrackPointExtension>
            <ns3:atemp>33.0</ns3:atemp>
            <ns3:hr>102</ns3:hr>
          </ns3:TrackPointExtension>
        </extensions>
      </trkpt>
      <trkpt lat="36.83449267409741878509521484375" lon="-118.40855986811220645904541015625">
        <ele>3131</ele>
        <time>2021-06-27T21:57:20.000Z</time>
        <extensions>
          <ns3:TrackPointExtension>
            <ns3:atemp>33.0</ns3:atemp>
            <ns3:hr>103</ns3:hr>
          </ns3:TrackPointExtension>
        </extensions>
      </trkpt>
      <trkpt lat="36.8345489166676998138427734375" lon="-118.40849465690553188323974609375">
        <ele>3131</ele>
        <time>2021-06-27T21:57:26.000Z</time>
        <extensions>
          <ns3:TrackPointExtension>
            <ns3:atemp>33.0</ns3:atemp>
            <ns3:hr>104</ns3:hr>
          </ns3:TrackPointExtension>
        </extensions>
      </trkpt>
      <trkpt lat="36.834583617746829986572265625" lon="-118.4083785675466060638427734375">
        <ele>3130.60009765625</ele>
        <time>2021-06-27T21:57:35.000Z</time>
        <extensions>
          <ns3:TrackPointExtension>
            <ns3:atemp>33.0</ns3:atemp>
            <ns3:hr>104</ns3:hr>
          </ns3:TrackPointExtension>
        </extensions>
      </trkpt>
      <trkpt lat="36.834621839225292205810546875" lon="-118.40830086730420589447021484375">
        <ele>3130.39990234375</ele>
        <time>2021-06-27T21:57:42.000Z</time>
        <extensions>
          <ns3:TrackPointExtension>
            <ns3:atemp>33.0</ns3:atemp>
            <ns3:hr>101</ns3:hr>
          </ns3:TrackPointExtension>
        </extensions>
      </trkpt>
      <trkpt lat="36.8346267007291316986083984375" lon="-118.40828443877398967742919921875">
        <ele>3130.39990234375</ele>
        <time>2021-06-27T21:57:43.000Z</time>
        <extensions>
          <ns3:TrackPointExtension>
            <ns3:atemp>33.0</ns3:atemp>
            <ns3:hr>100</ns3:hr>
          </ns3:TrackPointExtension>
        </extensions>
      </trkpt>
      <trkpt lat="36.83462846092879772186279296875" lon="-118.40827404521405696868896484375">
        <ele>3130.199951171875</ele>
        <time>2021-06-27T21:57:44.000Z</time>
        <extensions>
          <ns3:TrackPointExtension>
            <ns3:atemp>33.0</ns3:atemp>
            <ns3:hr>100</ns3:hr>
          </ns3:TrackPointExtension>
        </extensions>
      </trkpt>
      <trkpt lat="36.83464203961193561553955078125" lon="-118.40825761668384075164794921875">
        <ele>3130.199951171875</ele>
        <time>2021-06-27T21:57:46.000Z</time>
        <extensions>
          <ns3:TrackPointExtension>
            <ns3:atemp>33.0</ns3:atemp>
            <ns3:hr>99</ns3:hr>
          </ns3:TrackPointExtension>
        </extensions>
      </trkpt>
      <trkpt lat="36.8346464820206165313720703125" lon="-118.40824202634394168853759765625">
        <ele>3130.39990234375</ele>
        <time>2021-06-27T21:57:48.000Z</time>
        <extensions>
          <ns3:TrackPointExtension>
            <ns3:atemp>33.0</ns3:atemp>
            <ns3:hr>98</ns3:hr>
          </ns3:TrackPointExtension>
        </extensions>
      </trkpt>
      <trkpt lat="36.8346516788005828857421875" lon="-118.40822358615696430206298828125">
        <ele>3130.199951171875</ele>
        <time>2021-06-27T21:57:50.000Z</time>
        <extensions>
          <ns3:TrackPointExtension>
            <ns3:atemp>33.0</ns3:atemp>
            <ns3:hr>98</ns3:hr>
          </ns3:TrackPointExtension>
        </extensions>
      </trkpt>
      <trkpt lat="36.8346615694463253021240234375" lon="-118.4082139469683170318603515625">
        <ele>3130.199951171875</ele>
        <time>2021-06-27T21:57:51.000Z</time>
        <extensions>
          <ns3:TrackPointExtension>
            <ns3:atemp>33.0</ns3:atemp>
            <ns3:hr>98</ns3:hr>
          </ns3:TrackPointExtension>
        </extensions>
      </trkpt>
      <trkpt lat="36.8346826918423175811767578125" lon="-118.4081948362290859222412109375">
        <ele>3130.199951171875</ele>
        <time>2021-06-27T21:57:53.000Z</time>
        <extensions>
          <ns3:TrackPointExtension>
            <ns3:atemp>33.0</ns3:atemp>
            <ns3:hr>97</ns3:hr>
          </ns3:TrackPointExtension>
        </extensions>
      </trkpt>
      <trkpt lat="36.8346833623945713043212890625" lon="-118.40818838216364383697509765625">
        <ele>3130.199951171875</ele>
        <time>2021-06-27T21:57:56.000Z</time>
        <extensions>
          <ns3:TrackPointExtension>
            <ns3:atemp>33.0</ns3:atemp>
            <ns3:hr>96</ns3:hr>
          </ns3:TrackPointExtension>
        </extensions>
      </trkpt>
      <trkpt lat="36.83469903655350208282470703125" lon="-118.4081509150564670562744140625">
        <ele>3130.800048828125</ele>
        <time>2021-06-27T21:58:02.000Z</time>
        <extensions>
          <ns3:TrackPointExtension>
            <ns3:atemp>33.0</ns3:atemp>
            <ns3:hr>94</ns3:hr>
          </ns3:TrackPointExtension>
        </extensions>
      </trkpt>
      <trkpt lat="36.8346920795738697052001953125" lon="-118.4081031382083892822265625">
        <ele>3131</ele>
        <time>2021-06-27T21:58:07.000Z</time>
        <extensions>
          <ns3:TrackPointExtension>
            <ns3:atemp>33.0</ns3:atemp>
            <ns3:hr>97</ns3:hr>
          </ns3:TrackPointExtension>
        </extensions>
      </trkpt>
      <trkpt lat="36.834682188928127288818359375" lon="-118.40808176435530185699462890625">
        <ele>3131</ele>
        <time>2021-06-27T21:58:09.000Z</time>
        <extensions>
          <ns3:TrackPointExtension>
            <ns3:atemp>33.0</ns3:atemp>
            <ns3:hr>96</ns3:hr>
          </ns3:TrackPointExtension>
        </extensions>
      </trkpt>
      <trkpt lat="36.83463969267904758453369140625" lon="-118.4080657549202442169189453125">
        <ele>3130.800048828125</ele>
        <time>2021-06-27T21:58:15.000Z</time>
        <extensions>
          <ns3:TrackPointExtension>
            <ns3:atemp>33.0</ns3:atemp>
            <ns3:hr>96</ns3:hr>
          </ns3:TrackPointExtension>
        </extensions>
      </trkpt>
      <trkpt lat="36.8346364237368106842041015625" lon="-118.408148400485515594482421875">
        <ele>3130.39990234375</ele>
        <time>2021-06-27T21:58:22.000Z</time>
        <extensions>
          <ns3:TrackPointExtension>
            <ns3:atemp>33.0</ns3:atemp>
            <ns3:hr>97</ns3:hr>
          </ns3:TrackPointExtension>
        </extensions>
      </trkpt>
      <trkpt lat="36.83468294329941272735595703125" lon="-118.4081717021763324737548828125">
        <ele>3131</ele>
        <time>2021-06-27T21:58:29.000Z</time>
        <extensions>
          <ns3:TrackPointExtension>
            <ns3:atemp>33.0</ns3:atemp>
            <ns3:hr>97</ns3:hr>
          </ns3:TrackPointExtension>
        </extensions>
      </trkpt>
      <trkpt lat="36.834704987704753875732421875" lon="-118.408163823187351226806640625">
        <ele>3131.199951171875</ele>
        <time>2021-06-27T21:58:31.000Z</time>
        <extensions>
          <ns3:TrackPointExtension>
            <ns3:atemp>33.0</ns3:atemp>
            <ns3:hr>97</ns3:hr>
          </ns3:TrackPointExtension>
        </extensions>
      </trkpt>
      <trkpt lat="36.83473507873713970184326171875" lon="-118.4081435389816761016845703125">
        <ele>3131.199951171875</ele>
        <time>2021-06-27T21:58:33.000Z</time>
        <extensions>
          <ns3:TrackPointExtension>
            <ns3:atemp>33.0</ns3:atemp>
            <ns3:hr>95</ns3:hr>
          </ns3:TrackPointExtension>
        </extensions>
      </trkpt>
      <trkpt lat="36.83476634323596954345703125" lon="-118.4081147052347660064697265625">
        <ele>3131.60009765625</ele>
        <time>2021-06-27T21:58:37.000Z</time>
        <extensions>
          <ns3:TrackPointExtension>
            <ns3:atemp>33.0</ns3:atemp>
            <ns3:hr>90</ns3:hr>
          </ns3:TrackPointExtension>
        </extensions>
      </trkpt>
      <trkpt lat="36.83477749116718769073486328125" lon="-118.40810791589319705963134765625">
        <ele>3131.39990234375</ele>
        <time>2021-06-27T21:58:38.000Z</time>
        <extensions>
          <ns3:TrackPointExtension>
            <ns3:atemp>33.0</ns3:atemp>
            <ns3:hr>91</ns3:hr>
          </ns3:TrackPointExtension>
        </extensions>
      </trkpt>
      <trkpt lat="36.83479928411543369293212890625" lon="-118.40808503329753875732421875">
        <ele>3131.199951171875</ele>
        <time>2021-06-27T21:58:40.000Z</time>
        <extensions>
          <ns3:TrackPointExtension>
            <ns3:atemp>33.0</ns3:atemp>
            <ns3:hr>96</ns3:hr>
          </ns3:TrackPointExtension>
        </extensions>
      </trkpt>
      <trkpt lat="36.83482208289206027984619140625" lon="-118.40803365223109722137451171875">
        <ele>3130.60009765625</ele>
        <time>2021-06-27T21:58:44.000Z</time>
        <extensions>
          <ns3:TrackPointExtension>
            <ns3:atemp>33.0</ns3:atemp>
            <ns3:hr>93</ns3:hr>
          </ns3:TrackPointExtension>
        </extensions>
      </trkpt>
      <trkpt lat="36.83482811786234378814697265625" lon="-118.408020995557308197021484375">
        <ele>3130.39990234375</ele>
        <time>2021-06-27T21:58:45.000Z</time>
        <extensions>
          <ns3:TrackPointExtension>
            <ns3:atemp>33.0</ns3:atemp>
            <ns3:hr>97</ns3:hr>
          </ns3:TrackPointExtension>
        </extensions>
      </trkpt>
      <trkpt lat="36.834838427603244781494140625" lon="-118.40801085345447063446044921875">
        <ele>3130.39990234375</ele>
        <time>2021-06-27T21:58:46.000Z</time>
        <extensions>
          <ns3:TrackPointExtension>
            <ns3:atemp>33.0</ns3:atemp>
            <ns3:hr>97</ns3:hr>
          </ns3:TrackPointExtension>
        </extensions>
      </trkpt>
      <trkpt lat="36.8348805047571659088134765625" lon="-118.4079368412494659423828125">
        <ele>3130.199951171875</ele>
        <time>2021-06-27T21:58:53.000Z</time>
        <extensions>
          <ns3:TrackPointExtension>
            <ns3:atemp>33.0</ns3:atemp>
            <ns3:hr>97</ns3:hr>
          </ns3:TrackPointExtension>
        </extensions>
      </trkpt>
      <trkpt lat="36.834888048470020294189453125" lon="-118.40792904607951641082763671875">
        <ele>3130.199951171875</ele>
        <time>2021-06-27T21:58:54.000Z</time>
        <extensions>
          <ns3:TrackPointExtension>
            <ns3:atemp>33.0</ns3:atemp>
            <ns3:hr>97</ns3:hr>
          </ns3:TrackPointExtension>
        </extensions>
      </trkpt>
      <trkpt lat="36.83490606956183910369873046875" lon="-118.40789065696299076080322265625">
        <ele>3130</ele>
        <time>2021-06-27T21:58:58.000Z</time>
        <extensions>
          <ns3:TrackPointExtension>
            <ns3:atemp>33.0</ns3:atemp>
            <ns3:hr>100</ns3:hr>
          </ns3:TrackPointExtension>
        </extensions>
      </trkpt>
      <trkpt lat="36.83494269847869873046875" lon="-118.40787959285080432891845703125">
        <ele>3129.39990234375</ele>
        <time>2021-06-27T21:59:02.000Z</time>
        <extensions>
          <ns3:TrackPointExtension>
            <ns3:atemp>33.0</ns3:atemp>
            <ns3:hr>103</ns3:hr>
          </ns3:TrackPointExtension>
        </extensions>
      </trkpt>
      <trkpt lat="36.834951750934123992919921875" lon="-118.40788026340305805206298828125">
        <ele>3129.39990234375</ele>
        <time>2021-06-27T21:59:03.000Z</time>
        <extensions>
          <ns3:TrackPointExtension>
            <ns3:atemp>33.0</ns3:atemp>
            <ns3:hr>102</ns3:hr>
          </ns3:TrackPointExtension>
        </extensions>
      </trkpt>
      <trkpt lat="36.834972202777862548828125" lon="-118.40788478963077068328857421875">
        <ele>3129.199951171875</ele>
        <time>2021-06-27T21:59:05.000Z</time>
        <extensions>
          <ns3:TrackPointExtension>
            <ns3:atemp>33.0</ns3:atemp>
            <ns3:hr>103</ns3:hr>
          </ns3:TrackPointExtension>
        </extensions>
      </trkpt>
      <trkpt lat="36.835034228861331939697265625" lon="-118.40790239162743091583251953125">
        <ele>3129.199951171875</ele>
        <time>2021-06-27T21:59:11.000Z</time>
        <extensions>
          <ns3:TrackPointExtension>
            <ns3:atemp>32.0</ns3:atemp>
            <ns3:hr>106</ns3:hr>
          </ns3:TrackPointExtension>
        </extensions>
      </trkpt>
      <trkpt lat="36.83504068292677402496337890625" lon="-118.407905660569667816162109375">
        <ele>3129.199951171875</ele>
        <time>2021-06-27T21:59:12.000Z</time>
        <extensions>
          <ns3:TrackPointExtension>
            <ns3:atemp>32.0</ns3:atemp>
            <ns3:hr>108</ns3:hr>
          </ns3:TrackPointExtension>
        </extensions>
      </trkpt>
      <trkpt lat="36.83506675064563751220703125" lon="-118.40790825895965099334716796875">
        <ele>3129</ele>
        <time>2021-06-27T21:59:15.000Z</time>
        <extensions>
          <ns3:TrackPointExtension>
            <ns3:atemp>32.0</ns3:atemp>
            <ns3:hr>104</ns3:hr>
          </ns3:TrackPointExtension>
        </extensions>
      </trkpt>
      <trkpt lat="36.83512433432042598724365234375" lon="-118.407898284494876861572265625">
        <ele>3129</ele>
        <time>2021-06-27T21:59:20.000Z</time>
        <extensions>
          <ns3:TrackPointExtension>
            <ns3:atemp>32.0</ns3:atemp>
            <ns3:hr>107</ns3:hr>
          </ns3:TrackPointExtension>
        </extensions>
      </trkpt>
      <trkpt lat="36.83514595963060855865478515625" lon="-118.40789937414228916168212890625">
        <ele>3128.800048828125</ele>
        <time>2021-06-27T21:59:22.000Z</time>
        <extensions>
          <ns3:TrackPointExtension>
            <ns3:atemp>32.0</ns3:atemp>
            <ns3:hr>107</ns3:hr>
          </ns3:TrackPointExtension>
        </extensions>
      </trkpt>
      <trkpt lat="36.835160292685031890869140625" lon="-118.40790708549320697784423828125">
        <ele>3128.800048828125</ele>
        <time>2021-06-27T21:59:24.000Z</time>
        <extensions>
          <ns3:TrackPointExtension>
            <ns3:atemp>32.0</ns3:atemp>
            <ns3:hr>107</ns3:hr>
          </ns3:TrackPointExtension>
        </extensions>
      </trkpt>
      <trkpt lat="36.83520630933344364166259765625" lon="-118.407949246466159820556640625">
        <ele>3128.39990234375</ele>
        <time>2021-06-27T21:59:29.000Z</time>
        <extensions>
          <ns3:TrackPointExtension>
            <ns3:atemp>32.0</ns3:atemp>
            <ns3:hr>105</ns3:hr>
          </ns3:TrackPointExtension>
        </extensions>
      </trkpt>
      <trkpt lat="36.83523715473711490631103515625" lon="-118.40799358673393726348876953125">
        <ele>3128.39990234375</ele>
        <time>2021-06-27T21:59:34.000Z</time>
        <extensions>
          <ns3:TrackPointExtension>
            <ns3:atemp>32.0</ns3:atemp>
            <ns3:hr>102</ns3:hr>
          </ns3:TrackPointExtension>
        </extensions>
      </trkpt>
      <trkpt lat="36.83527789078652858734130859375" lon="-118.408007919788360595703125">
        <ele>3128.39990234375</ele>
        <time>2021-06-27T21:59:38.000Z</time>
        <extensions>
          <ns3:TrackPointExtension>
            <ns3:atemp>32.0</ns3:atemp>
            <ns3:hr>101</ns3:hr>
          </ns3:TrackPointExtension>
        </extensions>
      </trkpt>
      <trkpt lat="36.8353235721588134765625" lon="-118.4080074168741703033447265625">
        <ele>3127.800048828125</ele>
        <time>2021-06-27T21:59:42.000Z</time>
        <extensions>
          <ns3:TrackPointExtension>
            <ns3:atemp>32.0</ns3:atemp>
            <ns3:hr>102</ns3:hr>
          </ns3:TrackPointExtension>
        </extensions>
      </trkpt>
      <trkpt lat="36.835335977375507354736328125" lon="-118.4080188162624835968017578125">
        <ele>3127.39990234375</ele>
        <time>2021-06-27T21:59:43.000Z</time>
        <extensions>
          <ns3:TrackPointExtension>
            <ns3:atemp>32.0</ns3:atemp>
            <ns3:hr>102</ns3:hr>
          </ns3:TrackPointExtension>
        </extensions>
      </trkpt>
      <trkpt lat="36.8353569321334362030029296875" lon="-118.40803214348852634429931640625">
        <ele>3127.39990234375</ele>
        <time>2021-06-27T21:59:45.000Z</time>
        <extensions>
          <ns3:TrackPointExtension>
            <ns3:atemp>32.0</ns3:atemp>
            <ns3:hr>100</ns3:hr>
          </ns3:TrackPointExtension>
        </extensions>
      </trkpt>
      <trkpt lat="36.8354082293808460235595703125" lon="-118.40801705606281757354736328125">
        <ele>3126.800048828125</ele>
        <time>2021-06-27T21:59:49.000Z</time>
        <extensions>
          <ns3:TrackPointExtension>
            <ns3:atemp>32.0</ns3:atemp>
            <ns3:hr>103</ns3:hr>
          </ns3:TrackPointExtension>
        </extensions>
      </trkpt>
      <trkpt lat="36.8354806490242481231689453125" lon="-118.40800884179770946502685546875">
        <ele>3127.199951171875</ele>
        <time>2021-06-27T21:59:56.000Z</time>
        <extensions>
          <ns3:TrackPointExtension>
            <ns3:atemp>32.0</ns3:atemp>
            <ns3:hr>103</ns3:hr>
          </ns3:TrackPointExtension>
        </extensions>
      </trkpt>
      <trkpt lat="36.83558098040521144866943359375" lon="-118.40798688121140003204345703125">
        <ele>3126.800048828125</ele>
        <time>2021-06-27T22:00:05.000Z</time>
        <extensions>
          <ns3:TrackPointExtension>
            <ns3:atemp>32.0</ns3:atemp>
            <ns3:hr>103</ns3:hr>
          </ns3:TrackPointExtension>
        </extensions>
      </trkpt>
      <trkpt lat="36.83566463179886341094970703125" lon="-118.40798570774495601654052734375">
        <ele>3126.60009765625</ele>
        <time>2021-06-27T22:00:13.000Z</time>
        <extensions>
          <ns3:TrackPointExtension>
            <ns3:atemp>32.0</ns3:atemp>
            <ns3:hr>104</ns3:hr>
          </ns3:TrackPointExtension>
        </extensions>
      </trkpt>
      <trkpt lat="36.83570235036313533782958984375" lon="-118.408009596168994903564453125">
        <ele>3126.39990234375</ele>
        <time>2021-06-27T22:00:17.000Z</time>
        <extensions>
          <ns3:TrackPointExtension>
            <ns3:atemp>32.0</ns3:atemp>
            <ns3:hr>101</ns3:hr>
          </ns3:TrackPointExtension>
        </extensions>
      </trkpt>
      <trkpt lat="36.83575331233441829681396484375" lon="-118.40802669525146484375">
        <ele>3126.199951171875</ele>
        <time>2021-06-27T22:00:22.000Z</time>
        <extensions>
          <ns3:TrackPointExtension>
            <ns3:atemp>32.0</ns3:atemp>
            <ns3:hr>102</ns3:hr>
          </ns3:TrackPointExtension>
        </extensions>
      </trkpt>
      <trkpt lat="36.83581299148499965667724609375" lon="-118.40803650207817554473876953125">
        <ele>3126</ele>
        <time>2021-06-27T22:00:27.000Z</time>
        <extensions>
          <ns3:TrackPointExtension>
            <ns3:atemp>32.0</ns3:atemp>
            <ns3:hr>98</ns3:hr>
          </ns3:TrackPointExtension>
        </extensions>
      </trkpt>
      <trkpt lat="36.83583612553775310516357421875" lon="-118.4080362506210803985595703125">
        <ele>3126</ele>
        <time>2021-06-27T22:00:29.000Z</time>
        <extensions>
          <ns3:TrackPointExtension>
            <ns3:atemp>32.0</ns3:atemp>
            <ns3:hr>98</ns3:hr>
          </ns3:TrackPointExtension>
        </extensions>
      </trkpt>
      <trkpt lat="36.83584718964993953704833984375" lon="-118.4080335684120655059814453125">
        <ele>3126.199951171875</ele>
        <time>2021-06-27T22:00:30.000Z</time>
        <extensions>
          <ns3:TrackPointExtension>
            <ns3:atemp>32.0</ns3:atemp>
            <ns3:hr>98</ns3:hr>
          </ns3:TrackPointExtension>
        </extensions>
      </trkpt>
      <trkpt lat="36.8359034322202205657958984375" lon="-118.40803415514528751373291015625">
        <ele>3126</ele>
        <time>2021-06-27T22:00:35.000Z</time>
        <extensions>
          <ns3:TrackPointExtension>
            <ns3:atemp>32.0</ns3:atemp>
            <ns3:hr>95</ns3:hr>
          </ns3:TrackPointExtension>
        </extensions>
      </trkpt>
      <trkpt lat="36.8359349481761455535888671875" lon="-118.40802979655563831329345703125">
        <ele>3125.800048828125</ele>
        <time>2021-06-27T22:00:38.000Z</time>
        <extensions>
          <ns3:TrackPointExtension>
            <ns3:atemp>32.0</ns3:atemp>
            <ns3:hr>92</ns3:hr>
          </ns3:TrackPointExtension>
        </extensions>
      </trkpt>
      <trkpt lat="36.83595665730535984039306640625" lon="-118.4080352447926998138427734375">
        <ele>3125.800048828125</ele>
        <time>2021-06-27T22:00:40.000Z</time>
        <extensions>
          <ns3:TrackPointExtension>
            <ns3:atemp>32.0</ns3:atemp>
            <ns3:hr>89</ns3:hr>
          </ns3:TrackPointExtension>
        </extensions>
      </trkpt>
      <trkpt lat="36.83598113246262073516845703125" lon="-118.408039100468158721923828125">
        <ele>3125.60009765625</ele>
        <time>2021-06-27T22:00:42.000Z</time>
        <extensions>
          <ns3:TrackPointExtension>
            <ns3:atemp>32.0</ns3:atemp>
            <ns3:hr>86</ns3:hr>
          </ns3:TrackPointExtension>
        </extensions>
      </trkpt>
      <trkpt lat="36.83599102310836315155029296875" lon="-118.4080429561436176300048828125">
        <ele>3125.39990234375</ele>
        <time>2021-06-27T22:00:43.000Z</time>
        <extensions>
          <ns3:TrackPointExtension>
            <ns3:atemp>32.0</ns3:atemp>
            <ns3:hr>89</ns3:hr>
          </ns3:TrackPointExtension>
        </extensions>
      </trkpt>
      <trkpt lat="36.836062185466289520263671875" lon="-118.40806617401540279388427734375">
        <ele>3125.199951171875</ele>
        <time>2021-06-27T22:00:50.000Z</time>
        <extensions>
          <ns3:TrackPointExtension>
            <ns3:atemp>32.0</ns3:atemp>
            <ns3:hr>89</ns3:hr>
          </ns3:TrackPointExtension>
        </extensions>
      </trkpt>
      <trkpt lat="36.83612513355910778045654296875" lon="-118.40809349901974201202392578125">
        <ele>3125.199951171875</ele>
        <time>2021-06-27T22:00:56.000Z</time>
        <extensions>
          <ns3:TrackPointExtension>
            <ns3:atemp>32.0</ns3:atemp>
            <ns3:hr>92</ns3:hr>
          </ns3:TrackPointExtension>
        </extensions>
      </trkpt>
      <trkpt lat="36.83616117574274539947509765625" lon="-118.40809785760939121246337890625">
        <ele>3125.199951171875</ele>
        <time>2021-06-27T22:00:59.000Z</time>
        <extensions>
          <ns3:TrackPointExtension>
            <ns3:atemp>32.0</ns3:atemp>
            <ns3:hr>95</ns3:hr>
          </ns3:TrackPointExtension>
        </extensions>
      </trkpt>
      <trkpt lat="36.83617475442588329315185546875" lon="-118.40810037218034267425537109375">
        <ele>3125.199951171875</ele>
        <time>2021-06-27T22:01:00.000Z</time>
        <extensions>
          <ns3:TrackPointExtension>
            <ns3:atemp>32.0</ns3:atemp>
            <ns3:hr>96</ns3:hr>
          </ns3:TrackPointExtension>
        </extensions>
      </trkpt>
      <trkpt lat="36.83623124845325946807861328125" lon="-118.4081086702644824981689453125">
        <ele>3125.199951171875</ele>
        <time>2021-06-27T22:01:05.000Z</time>
        <extensions>
          <ns3:TrackPointExtension>
            <ns3:atemp>32.0</ns3:atemp>
            <ns3:hr>99</ns3:hr>
          </ns3:TrackPointExtension>
        </extensions>
      </trkpt>
      <trkpt lat="36.83624750934541225433349609375" lon="-118.40811076574027538299560546875">
        <ele>3125</ele>
        <time>2021-06-27T22:01:07.000Z</time>
        <extensions>
          <ns3:TrackPointExtension>
            <ns3:atemp>32.0</ns3:atemp>
            <ns3:hr>101</ns3:hr>
          </ns3:TrackPointExtension>
        </extensions>
      </trkpt>
      <trkpt lat="36.83629159815609455108642578125" lon="-118.40811277739703655242919921875">
        <ele>3125.199951171875</ele>
        <time>2021-06-27T22:01:11.000Z</time>
        <extensions>
          <ns3:TrackPointExtension>
            <ns3:atemp>32.0</ns3:atemp>
            <ns3:hr>101</ns3:hr>
          </ns3:TrackPointExtension>
        </extensions>
      </trkpt>
      <trkpt lat="36.83630115352571010589599609375" lon="-118.40811177156865596771240234375">
        <ele>3125</ele>
        <time>2021-06-27T22:01:12.000Z</time>
        <extensions>
          <ns3:TrackPointExtension>
            <ns3:atemp>32.0</ns3:atemp>
            <ns3:hr>104</ns3:hr>
          </ns3:TrackPointExtension>
        </extensions>
      </trkpt>
      <trkpt lat="36.83641565032303333282470703125" lon="-118.4080774895846843719482421875">
        <ele>3125</ele>
        <time>2021-06-27T22:01:24.000Z</time>
        <extensions>
          <ns3:TrackPointExtension>
            <ns3:atemp>32.0</ns3:atemp>
            <ns3:hr>102</ns3:hr>
          </ns3:TrackPointExtension>
        </extensions>
      </trkpt>
      <trkpt lat="36.83646393008530139923095703125" lon="-118.40804035775363445281982421875">
        <ele>3124.39990234375</ele>
        <time>2021-06-27T22:01:29.000Z</time>
        <extensions>
          <ns3:TrackPointExtension>
            <ns3:atemp>32.0</ns3:atemp>
            <ns3:hr>102</ns3:hr>
          </ns3:TrackPointExtension>
        </extensions>
      </trkpt>
      <trkpt lat="36.8365032412111759185791015625" lon="-118.40802309103310108184814453125">
        <ele>3123.800048828125</ele>
        <time>2021-06-27T22:01:33.000Z</time>
        <extensions>
          <ns3:TrackPointExtension>
            <ns3:atemp>32.0</ns3:atemp>
            <ns3:hr>102</ns3:hr>
          </ns3:TrackPointExtension>
        </extensions>
      </trkpt>
      <trkpt lat="36.8365451507270336151123046875" lon="-118.40800481848418712615966796875">
        <ele>3123.199951171875</ele>
        <time>2021-06-27T22:01:37.000Z</time>
        <extensions>
          <ns3:TrackPointExtension>
            <ns3:atemp>32.0</ns3:atemp>
            <ns3:hr>99</ns3:hr>
          </ns3:TrackPointExtension>
        </extensions>
      </trkpt>
      <trkpt lat="36.8365991301834583282470703125" lon="-118.40799308381974697113037109375">
        <ele>3123</ele>
        <time>2021-06-27T22:01:44.000Z</time>
        <extensions>
          <ns3:TrackPointExtension>
            <ns3:atemp>32.0</ns3:atemp>
            <ns3:hr>100</ns3:hr>
          </ns3:TrackPointExtension>
        </extensions>
      </trkpt>
      <trkpt lat="36.83666761033236980438232421875" lon="-118.40797372162342071533203125">
        <ele>3122.39990234375</ele>
        <time>2021-06-27T22:01:51.000Z</time>
        <extensions>
          <ns3:TrackPointExtension>
            <ns3:atemp>32.0</ns3:atemp>
            <ns3:hr>97</ns3:hr>
          </ns3:TrackPointExtension>
        </extensions>
      </trkpt>
      <trkpt lat="36.8366928398609161376953125" lon="-118.40796106494963169097900390625">
        <ele>3122</ele>
        <time>2021-06-27T22:01:54.000Z</time>
        <extensions>
          <ns3:TrackPointExtension>
            <ns3:atemp>32.0</ns3:atemp>
            <ns3:hr>96</ns3:hr>
          </ns3:TrackPointExtension>
        </extensions>
      </trkpt>
      <trkpt lat="36.8367114476859569549560546875" lon="-118.40794530697166919708251953125">
        <ele>3121.60009765625</ele>
        <time>2021-06-27T22:01:56.000Z</time>
        <extensions>
          <ns3:TrackPointExtension>
            <ns3:atemp>32.0</ns3:atemp>
            <ns3:hr>95</ns3:hr>
          </ns3:TrackPointExtension>
        </extensions>
      </trkpt>
      <trkpt lat="36.83671873994171619415283203125" lon="-118.40793491341173648834228515625">
        <ele>3121.60009765625</ele>
        <time>2021-06-27T22:01:57.000Z</time>
        <extensions>
          <ns3:TrackPointExtension>
            <ns3:atemp>32.0</ns3:atemp>
            <ns3:hr>95</ns3:hr>
          </ns3:TrackPointExtension>
        </extensions>
      </trkpt>
      <trkpt lat="36.8367706239223480224609375" lon="-118.40792083181440830230712890625">
        <ele>3121</ele>
        <time>2021-06-27T22:02:03.000Z</time>
        <extensions>
          <ns3:TrackPointExtension>
            <ns3:atemp>32.0</ns3:atemp>
            <ns3:hr>93</ns3:hr>
          </ns3:TrackPointExtension>
        </extensions>
      </trkpt>
      <trkpt lat="36.8367811851203441619873046875" lon="-118.407920412719249725341796875">
        <ele>3121</ele>
        <time>2021-06-27T22:02:04.000Z</time>
        <extensions>
          <ns3:TrackPointExtension>
            <ns3:atemp>32.0</ns3:atemp>
            <ns3:hr>91</ns3:hr>
          </ns3:TrackPointExtension>
        </extensions>
      </trkpt>
      <trkpt lat="36.8367899022996425628662109375" lon="-118.40791831724345684051513671875">
        <ele>3121</ele>
        <time>2021-06-27T22:02:05.000Z</time>
        <extensions>
          <ns3:TrackPointExtension>
            <ns3:atemp>32.0</ns3:atemp>
            <ns3:hr>95</ns3:hr>
          </ns3:TrackPointExtension>
        </extensions>
      </trkpt>
      <trkpt lat="36.83686492033302783966064453125" lon="-118.4079064987599849700927734375">
        <ele>3120.39990234375</ele>
        <time>2021-06-27T22:02:13.000Z</time>
        <extensions>
          <ns3:TrackPointExtension>
            <ns3:atemp>32.0</ns3:atemp>
            <ns3:hr>97</ns3:hr>
          </ns3:TrackPointExtension>
        </extensions>
      </trkpt>
      <trkpt lat="36.83692459948360919952392578125" lon="-118.4079306386411190032958984375">
        <ele>3119.60009765625</ele>
        <time>2021-06-27T22:02:20.000Z</time>
        <extensions>
          <ns3:TrackPointExtension>
            <ns3:atemp>32.0</ns3:atemp>
            <ns3:hr>95</ns3:hr>
          </ns3:TrackPointExtension>
        </extensions>
      </trkpt>
      <trkpt lat="36.8369551934301853179931640625" lon="-118.4079215861856937408447265625">
        <ele>3119.39990234375</ele>
        <time>2021-06-27T22:02:23.000Z</time>
        <extensions>
          <ns3:TrackPointExtension>
            <ns3:atemp>32.0</ns3:atemp>
            <ns3:hr>94</ns3:hr>
          </ns3:TrackPointExtension>
        </extensions>
      </trkpt>
      <trkpt lat="36.83704244904220104217529296875" lon="-118.40792669914662837982177734375">
        <ele>3119</ele>
        <time>2021-06-27T22:02:31.000Z</time>
        <extensions>
          <ns3:TrackPointExtension>
            <ns3:atemp>32.0</ns3:atemp>
            <ns3:hr>93</ns3:hr>
          </ns3:TrackPointExtension>
        </extensions>
      </trkpt>
      <trkpt lat="36.8370899744331836700439453125" lon="-118.40790540911257266998291015625">
        <ele>3118.39990234375</ele>
        <time>2021-06-27T22:02:37.000Z</time>
        <extensions>
          <ns3:TrackPointExtension>
            <ns3:atemp>32.0</ns3:atemp>
            <ns3:hr>91</ns3:hr>
          </ns3:TrackPointExtension>
        </extensions>
      </trkpt>
      <trkpt lat="36.83712157420814037322998046875" lon="-118.4078790061175823211669921875">
        <ele>3117.800048828125</ele>
        <time>2021-06-27T22:02:40.000Z</time>
        <extensions>
          <ns3:TrackPointExtension>
            <ns3:atemp>32.0</ns3:atemp>
            <ns3:hr>91</ns3:hr>
          </ns3:TrackPointExtension>
        </extensions>
      </trkpt>
      <trkpt lat="36.83720086701214313507080078125" lon="-118.4078407846391201019287109375">
        <ele>3117.60009765625</ele>
        <time>2021-06-27T22:02:50.000Z</time>
        <extensions>
          <ns3:TrackPointExtension>
            <ns3:atemp>32.0</ns3:atemp>
            <ns3:hr>93</ns3:hr>
          </ns3:TrackPointExtension>
        </extensions>
      </trkpt>
      <trkpt lat="36.83727286756038665771484375" lon="-118.4077894873917102813720703125">
        <ele>3117.39990234375</ele>
        <time>2021-06-27T22:02:58.000Z</time>
        <extensions>
          <ns3:TrackPointExtension>
            <ns3:atemp>32.0</ns3:atemp>
            <ns3:hr>94</ns3:hr>
          </ns3:TrackPointExtension>
        </extensions>
      </trkpt>
      <trkpt lat="36.83731041848659515380859375" lon="-118.40777699835598468780517578125">
        <ele>3117</ele>
        <time>2021-06-27T22:03:02.000Z</time>
        <extensions>
          <ns3:TrackPointExtension>
            <ns3:atemp>32.0</ns3:atemp>
            <ns3:hr>97</ns3:hr>
          </ns3:TrackPointExtension>
        </extensions>
      </trkpt>
      <trkpt lat="36.837368421256542205810546875" lon="-118.4077606536448001861572265625">
        <ele>3116.60009765625</ele>
        <time>2021-06-27T22:03:07.000Z</time>
        <extensions>
          <ns3:TrackPointExtension>
            <ns3:atemp>32.0</ns3:atemp>
            <ns3:hr>96</ns3:hr>
          </ns3:TrackPointExtension>
        </extensions>
      </trkpt>
      <trkpt lat="36.837418712675571441650390625" lon="-118.40773793868720531463623046875">
        <ele>3116.39990234375</ele>
        <time>2021-06-27T22:03:12.000Z</time>
        <extensions>
          <ns3:TrackPointExtension>
            <ns3:atemp>32.0</ns3:atemp>
            <ns3:hr>94</ns3:hr>
          </ns3:TrackPointExtension>
        </extensions>
      </trkpt>
      <trkpt lat="36.837450899183750152587890625" lon="-118.40774950571358203887939453125">
        <ele>3116.199951171875</ele>
        <time>2021-06-27T22:03:15.000Z</time>
        <extensions>
          <ns3:TrackPointExtension>
            <ns3:atemp>32.0</ns3:atemp>
            <ns3:hr>92</ns3:hr>
          </ns3:TrackPointExtension>
        </extensions>
      </trkpt>
      <trkpt lat="36.83748065494000911712646484375" lon="-118.4077499248087406158447265625">
        <ele>3115.800048828125</ele>
        <time>2021-06-27T22:03:18.000Z</time>
        <extensions>
          <ns3:TrackPointExtension>
            <ns3:atemp>32.0</ns3:atemp>
            <ns3:hr>91</ns3:hr>
          </ns3:TrackPointExtension>
        </extensions>
      </trkpt>
      <trkpt lat="36.8375342153012752532958984375" lon="-118.4077244438230991363525390625">
        <ele>3115.39990234375</ele>
        <time>2021-06-27T22:03:23.000Z</time>
        <extensions>
          <ns3:TrackPointExtension>
            <ns3:atemp>32.0</ns3:atemp>
            <ns3:hr>90</ns3:hr>
          </ns3:TrackPointExtension>
        </extensions>
      </trkpt>
      <trkpt lat="36.8375529907643795013427734375" lon="-118.407721258699893951416015625">
        <ele>3115.199951171875</ele>
        <time>2021-06-27T22:03:25.000Z</time>
        <extensions>
          <ns3:TrackPointExtension>
            <ns3:atemp>32.0</ns3:atemp>
            <ns3:hr>91</ns3:hr>
          </ns3:TrackPointExtension>
        </extensions>
      </trkpt>
      <trkpt lat="36.8376458622515201568603515625" lon="-118.407706506550312042236328125">
        <ele>3114.60009765625</ele>
        <time>2021-06-27T22:03:34.000Z</time>
        <extensions>
          <ns3:TrackPointExtension>
            <ns3:atemp>32.0</ns3:atemp>
            <ns3:hr>92</ns3:hr>
          </ns3:TrackPointExtension>
        </extensions>
      </trkpt>
      <trkpt lat="36.83765617199242115020751953125" lon="-118.40770407579839229583740234375">
        <ele>3114.199951171875</ele>
        <time>2021-06-27T22:03:35.000Z</time>
        <extensions>
          <ns3:TrackPointExtension>
            <ns3:atemp>32.0</ns3:atemp>
            <ns3:hr>92</ns3:hr>
          </ns3:TrackPointExtension>
        </extensions>
      </trkpt>
      <trkpt lat="36.83770210482180118560791015625" lon="-118.407684378325939178466796875">
        <ele>3113.39990234375</ele>
        <time>2021-06-27T22:03:40.000Z</time>
        <extensions>
          <ns3:TrackPointExtension>
            <ns3:atemp>32.0</ns3:atemp>
            <ns3:hr>89</ns3:hr>
          </ns3:TrackPointExtension>
        </extensions>
      </trkpt>
      <trkpt lat="36.83773999102413654327392578125" lon="-118.40767775662243366241455078125">
        <ele>3113.199951171875</ele>
        <time>2021-06-27T22:03:44.000Z</time>
        <extensions>
          <ns3:TrackPointExtension>
            <ns3:atemp>32.0</ns3:atemp>
            <ns3:hr>86</ns3:hr>
          </ns3:TrackPointExtension>
        </extensions>
      </trkpt>
      <trkpt lat="36.8377477861940860748291015625" lon="-118.407679684460163116455078125">
        <ele>3113.199951171875</ele>
        <time>2021-06-27T22:03:45.000Z</time>
        <extensions>
          <ns3:TrackPointExtension>
            <ns3:atemp>32.0</ns3:atemp>
            <ns3:hr>86</ns3:hr>
          </ns3:TrackPointExtension>
        </extensions>
      </trkpt>
      <trkpt lat="36.83784124441444873809814453125" lon="-118.4077106975018978118896484375">
        <ele>3112.60009765625</ele>
        <time>2021-06-27T22:03:54.000Z</time>
        <extensions>
          <ns3:TrackPointExtension>
            <ns3:atemp>32.0</ns3:atemp>
            <ns3:hr>86</ns3:hr>
          </ns3:TrackPointExtension>
        </extensions>
      </trkpt>
      <trkpt lat="36.8378946371376514434814453125" lon="-118.4077049978077411651611328125">
        <ele>3112</ele>
        <time>2021-06-27T22:03:59.000Z</time>
        <extensions>
          <ns3:TrackPointExtension>
            <ns3:atemp>32.0</ns3:atemp>
            <ns3:hr>87</ns3:hr>
          </ns3:TrackPointExtension>
        </extensions>
      </trkpt>
      <trkpt lat="36.83792523108422756195068359375" lon="-118.40769133530557155609130859375">
        <ele>3112</ele>
        <time>2021-06-27T22:04:03.000Z</time>
        <extensions>
          <ns3:TrackPointExtension>
            <ns3:atemp>32.0</ns3:atemp>
            <ns3:hr>90</ns3:hr>
          </ns3:TrackPointExtension>
        </extensions>
      </trkpt>
      <trkpt lat="36.83793461881577968597412109375" lon="-118.40769183821976184844970703125">
        <ele>3111.800048828125</ele>
        <time>2021-06-27T22:04:04.000Z</time>
        <extensions>
          <ns3:TrackPointExtension>
            <ns3:atemp>32.0</ns3:atemp>
            <ns3:hr>90</ns3:hr>
          </ns3:TrackPointExtension>
        </extensions>
      </trkpt>
      <trkpt lat="36.83799094520509243011474609375" lon="-118.40766392648220062255859375">
        <ele>3111.39990234375</ele>
        <time>2021-06-27T22:04:10.000Z</time>
        <extensions>
          <ns3:TrackPointExtension>
            <ns3:atemp>32.0</ns3:atemp>
            <ns3:hr>93</ns3:hr>
          </ns3:TrackPointExtension>
        </extensions>
      </trkpt>
      <trkpt lat="36.83799530379474163055419921875" lon="-118.407655544579029083251953125">
        <ele>3111</ele>
        <time>2021-06-27T22:04:11.000Z</time>
        <extensions>
          <ns3:TrackPointExtension>
            <ns3:atemp>32.0</ns3:atemp>
            <ns3:hr>96</ns3:hr>
          </ns3:TrackPointExtension>
        </extensions>
      </trkpt>
      <trkpt lat="36.8379995785653591156005859375" lon="-118.40764607302844524383544921875">
        <ele>3110.60009765625</ele>
        <time>2021-06-27T22:04:12.000Z</time>
        <extensions>
          <ns3:TrackPointExtension>
            <ns3:atemp>32.0</ns3:atemp>
            <ns3:hr>93</ns3:hr>
          </ns3:TrackPointExtension>
        </extensions>
      </trkpt>
      <trkpt lat="36.838018186390399932861328125" lon="-118.407622016966342926025390625">
        <ele>3110</ele>
        <time>2021-06-27T22:04:15.000Z</time>
        <extensions>
          <ns3:TrackPointExtension>
            <ns3:atemp>32.0</ns3:atemp>
            <ns3:hr>94</ns3:hr>
          </ns3:TrackPointExtension>
        </extensions>
      </trkpt>
      <trkpt lat="36.83805942535400390625" lon="-118.40759360231459140777587890625">
        <ele>3109.39990234375</ele>
        <time>2021-06-27T22:04:20.000Z</time>
        <extensions>
          <ns3:TrackPointExtension>
            <ns3:atemp>32.0</ns3:atemp>
            <ns3:hr>95</ns3:hr>
          </ns3:TrackPointExtension>
        </extensions>
      </trkpt>
      <trkpt lat="36.83808046393096446990966796875" lon="-118.40757683850824832916259765625">
        <ele>3108.800048828125</ele>
        <time>2021-06-27T22:04:23.000Z</time>
        <extensions>
          <ns3:TrackPointExtension>
            <ns3:atemp>32.0</ns3:atemp>
            <ns3:hr>94</ns3:hr>
          </ns3:TrackPointExtension>
        </extensions>
      </trkpt>
      <trkpt lat="36.83811298571527004241943359375" lon="-118.40755973942577838897705078125">
        <ele>3108.199951171875</ele>
        <time>2021-06-27T22:04:27.000Z</time>
        <extensions>
          <ns3:TrackPointExtension>
            <ns3:atemp>32.0</ns3:atemp>
            <ns3:hr>92</ns3:hr>
          </ns3:TrackPointExtension>
        </extensions>
      </trkpt>
      <trkpt lat="36.83814525604248046875" lon="-118.407549597322940826416015625">
        <ele>3108.199951171875</ele>
        <time>2021-06-27T22:04:31.000Z</time>
        <extensions>
          <ns3:TrackPointExtension>
            <ns3:atemp>32.0</ns3:atemp>
            <ns3:hr>89</ns3:hr>
          </ns3:TrackPointExtension>
        </extensions>
      </trkpt>
      <trkpt lat="36.83815154246985912322998046875" lon="-118.4075447358191013336181640625">
        <ele>3107.199951171875</ele>
        <time>2021-06-27T22:04:32.000Z</time>
        <extensions>
          <ns3:TrackPointExtension>
            <ns3:atemp>32.0</ns3:atemp>
            <ns3:hr>88</ns3:hr>
          </ns3:TrackPointExtension>
        </extensions>
      </trkpt>
      <trkpt lat="36.838177777826786041259765625" lon="-118.40754264034330844879150390625">
        <ele>3106.60009765625</ele>
        <time>2021-06-27T22:04:35.000Z</time>
        <extensions>
          <ns3:TrackPointExtension>
            <ns3:atemp>32.0</ns3:atemp>
            <ns3:hr>85</ns3:hr>
          </ns3:TrackPointExtension>
        </extensions>
      </trkpt>
      <trkpt lat="36.83818959631025791168212890625" lon="-118.40753576718270778656005859375">
        <ele>3106</ele>
        <time>2021-06-27T22:04:37.000Z</time>
        <extensions>
          <ns3:TrackPointExtension>
            <ns3:atemp>32.0</ns3:atemp>
            <ns3:hr>88</ns3:hr>
          </ns3:TrackPointExtension>
        </extensions>
      </trkpt>
      <trkpt lat="36.83823301456868648529052734375" lon="-118.40751145966351032257080078125">
        <ele>3105.199951171875</ele>
        <time>2021-06-27T22:04:42.000Z</time>
        <extensions>
          <ns3:TrackPointExtension>
            <ns3:atemp>32.0</ns3:atemp>
            <ns3:hr>88</ns3:hr>
          </ns3:TrackPointExtension>
        </extensions>
      </trkpt>
      <trkpt lat="36.83824256993830204010009765625" lon="-118.40750911273062229156494140625">
        <ele>3104.800048828125</ele>
        <time>2021-06-27T22:04:43.000Z</time>
        <extensions>
          <ns3:TrackPointExtension>
            <ns3:atemp>32.0</ns3:atemp>
            <ns3:hr>89</ns3:hr>
          </ns3:TrackPointExtension>
        </extensions>
      </trkpt>
      <trkpt lat="36.8382885865867137908935546875" lon="-118.40749050490558147430419921875">
        <ele>3103.60009765625</ele>
        <time>2021-06-27T22:04:49.000Z</time>
        <extensions>
          <ns3:TrackPointExtension>
            <ns3:atemp>32.0</ns3:atemp>
            <ns3:hr>90</ns3:hr>
          </ns3:TrackPointExtension>
        </extensions>
      </trkpt>
      <trkpt lat="36.83829671703279018402099609375" lon="-118.40748430229723453521728515625">
        <ele>3103.60009765625</ele>
        <time>2021-06-27T22:04:50.000Z</time>
        <extensions>
          <ns3:TrackPointExtension>
            <ns3:atemp>32.0</ns3:atemp>
            <ns3:hr>90</ns3:hr>
          </ns3:TrackPointExtension>
        </extensions>
      </trkpt>
      <trkpt lat="36.838384978473186492919921875" lon="-118.4074290655553340911865234375">
        <ele>3102.199951171875</ele>
        <time>2021-06-27T22:05:01.000Z</time>
        <extensions>
          <ns3:TrackPointExtension>
            <ns3:atemp>32.0</ns3:atemp>
            <ns3:hr>89</ns3:hr>
          </ns3:TrackPointExtension>
        </extensions>
      </trkpt>
      <trkpt lat="36.83843032456934452056884765625" lon="-118.40738589875400066375732421875">
        <ele>3101.39990234375</ele>
        <time>2021-06-27T22:05:09.000Z</time>
        <extensions>
          <ns3:TrackPointExtension>
            <ns3:atemp>32.0</ns3:atemp>
            <ns3:hr>92</ns3:hr>
          </ns3:TrackPointExtension>
        </extensions>
      </trkpt>
      <trkpt lat="36.8384340964257717132568359375" lon="-118.407377935945987701416015625">
        <ele>3100.60009765625</ele>
        <time>2021-06-27T22:05:10.000Z</time>
        <extensions>
          <ns3:TrackPointExtension>
            <ns3:atemp>32.0</ns3:atemp>
            <ns3:hr>90</ns3:hr>
          </ns3:TrackPointExtension>
        </extensions>
      </trkpt>
      <trkpt lat="36.8384920991957187652587890625" lon="-118.4073398821055889129638671875">
        <ele>3099.800048828125</ele>
        <time>2021-06-27T22:05:19.000Z</time>
        <extensions>
          <ns3:TrackPointExtension>
            <ns3:atemp>32.0</ns3:atemp>
            <ns3:hr>88</ns3:hr>
          </ns3:TrackPointExtension>
        </extensions>
      </trkpt>
      <trkpt lat="36.838507354259490966796875" lon="-118.40733476914465427398681640625">
        <ele>3099.199951171875</ele>
        <time>2021-06-27T22:05:21.000Z</time>
        <extensions>
          <ns3:TrackPointExtension>
            <ns3:atemp>32.0</ns3:atemp>
            <ns3:hr>89</ns3:hr>
          </ns3:TrackPointExtension>
        </extensions>
      </trkpt>
      <trkpt lat="36.83855772949755191802978515625" lon="-118.407352454960346221923828125">
        <ele>3098.199951171875</ele>
        <time>2021-06-27T22:05:27.000Z</time>
        <extensions>
          <ns3:TrackPointExtension>
            <ns3:atemp>32.0</ns3:atemp>
            <ns3:hr>90</ns3:hr>
          </ns3:TrackPointExtension>
        </extensions>
      </trkpt>
      <trkpt lat="36.83861724101006984710693359375" lon="-118.407363854348659515380859375">
        <ele>3097.60009765625</ele>
        <time>2021-06-27T22:05:33.000Z</time>
        <extensions>
          <ns3:TrackPointExtension>
            <ns3:atemp>32.0</ns3:atemp>
            <ns3:hr>89</ns3:hr>
          </ns3:TrackPointExtension>
        </extensions>
      </trkpt>
      <trkpt lat="36.838667951524257659912109375" lon="-118.4073522873222827911376953125">
        <ele>3096.800048828125</ele>
        <time>2021-06-27T22:05:39.000Z</time>
        <extensions>
          <ns3:TrackPointExtension>
            <ns3:atemp>32.0</ns3:atemp>
            <ns3:hr>90</ns3:hr>
          </ns3:TrackPointExtension>
        </extensions>
      </trkpt>
      <trkpt lat="36.83867675252258777618408203125" lon="-118.4073512814939022064208984375">
        <ele>3096.60009765625</ele>
        <time>2021-06-27T22:05:40.000Z</time>
        <extensions>
          <ns3:TrackPointExtension>
            <ns3:atemp>32.0</ns3:atemp>
            <ns3:hr>89</ns3:hr>
          </ns3:TrackPointExtension>
        </extensions>
      </trkpt>
      <trkpt lat="36.8387036584317684173583984375" lon="-118.40735052712261676788330078125">
        <ele>3096.60009765625</ele>
        <time>2021-06-27T22:05:43.000Z</time>
        <extensions>
          <ns3:TrackPointExtension>
            <ns3:atemp>32.0</ns3:atemp>
            <ns3:hr>86</ns3:hr>
          </ns3:TrackPointExtension>
        </extensions>
      </trkpt>
      <trkpt lat="36.83874950744211673736572265625" lon="-118.40733409859240055084228515625">
        <ele>3095.60009765625</ele>
        <time>2021-06-27T22:05:48.000Z</time>
        <extensions>
          <ns3:TrackPointExtension>
            <ns3:atemp>32.0</ns3:atemp>
            <ns3:hr>90</ns3:hr>
          </ns3:TrackPointExtension>
        </extensions>
      </trkpt>
      <trkpt lat="36.83875738643109798431396484375" lon="-118.4073331765830516815185546875">
        <ele>3095.60009765625</ele>
        <time>2021-06-27T22:05:49.000Z</time>
        <extensions>
          <ns3:TrackPointExtension>
            <ns3:atemp>32.0</ns3:atemp>
            <ns3:hr>86</ns3:hr>
          </ns3:TrackPointExtension>
        </extensions>
      </trkpt>
      <trkpt lat="36.8387770839035511016845703125" lon="-118.4073361940681934356689453125">
        <ele>3095</ele>
        <time>2021-06-27T22:05:51.000Z</time>
        <extensions>
          <ns3:TrackPointExtension>
            <ns3:atemp>32.0</ns3:atemp>
            <ns3:hr>87</ns3:hr>
          </ns3:TrackPointExtension>
        </extensions>
      </trkpt>
      <trkpt lat="36.8388062529265880584716796875" lon="-118.40732906945049762725830078125">
        <ele>3094.60009765625</ele>
        <time>2021-06-27T22:05:55.000Z</time>
        <extensions>
          <ns3:TrackPointExtension>
            <ns3:atemp>32.0</ns3:atemp>
            <ns3:hr>88</ns3:hr>
          </ns3:TrackPointExtension>
        </extensions>
      </trkpt>
      <trkpt lat="36.8388250283896923065185546875" lon="-118.40731616131961345672607421875">
        <ele>3093.800048828125</ele>
        <time>2021-06-27T22:05:58.000Z</time>
        <extensions>
          <ns3:TrackPointExtension>
            <ns3:atemp>32.0</ns3:atemp>
            <ns3:hr>87</ns3:hr>
          </ns3:TrackPointExtension>
        </extensions>
      </trkpt>
      <trkpt lat="36.8388347513973712921142578125" lon="-118.4073073603212833404541015625">
        <ele>3093.60009765625</ele>
        <time>2021-06-27T22:06:00.000Z</time>
        <extensions>
          <ns3:TrackPointExtension>
            <ns3:atemp>32.0</ns3:atemp>
            <ns3:hr>86</ns3:hr>
          </ns3:TrackPointExtension>
        </extensions>
      </trkpt>
      <trkpt lat="36.83888965286314487457275390625" lon="-118.4072808735072612762451171875">
        <ele>3093</ele>
        <time>2021-06-27T22:06:07.000Z</time>
        <extensions>
          <ns3:TrackPointExtension>
            <ns3:atemp>32.0</ns3:atemp>
            <ns3:hr>86</ns3:hr>
          </ns3:TrackPointExtension>
        </extensions>
      </trkpt>
      <trkpt lat="36.83892250992357730865478515625" lon="-118.40727374888956546783447265625">
        <ele>3092.39990234375</ele>
        <time>2021-06-27T22:06:10.000Z</time>
        <extensions>
          <ns3:TrackPointExtension>
            <ns3:atemp>32.0</ns3:atemp>
            <ns3:hr>86</ns3:hr>
          </ns3:TrackPointExtension>
        </extensions>
      </trkpt>
      <trkpt lat="36.83894631452858448028564453125" lon="-118.4072721563279628753662109375">
        <ele>3092.39990234375</ele>
        <time>2021-06-27T22:06:12.000Z</time>
        <extensions>
          <ns3:TrackPointExtension>
            <ns3:atemp>32.0</ns3:atemp>
            <ns3:hr>86</ns3:hr>
          </ns3:TrackPointExtension>
        </extensions>
      </trkpt>
      <trkpt lat="36.83896358124911785125732421875" lon="-118.4072778560221195220947265625">
        <ele>3092.199951171875</ele>
        <time>2021-06-27T22:06:14.000Z</time>
        <extensions>
          <ns3:TrackPointExtension>
            <ns3:atemp>32.0</ns3:atemp>
            <ns3:hr>87</ns3:hr>
          </ns3:TrackPointExtension>
        </extensions>
      </trkpt>
      <trkpt lat="36.8389779143035411834716796875" lon="-118.407279364764690399169921875">
        <ele>3092.199951171875</ele>
        <time>2021-06-27T22:06:16.000Z</time>
        <extensions>
          <ns3:TrackPointExtension>
            <ns3:atemp>32.0</ns3:atemp>
            <ns3:hr>88</ns3:hr>
          </ns3:TrackPointExtension>
        </extensions>
      </trkpt>
      <trkpt lat="36.83900549076497554779052734375" lon="-118.407295458018779754638671875">
        <ele>3091.800048828125</ele>
        <time>2021-06-27T22:06:20.000Z</time>
        <extensions>
          <ns3:TrackPointExtension>
            <ns3:atemp>32.0</ns3:atemp>
            <ns3:hr>88</ns3:hr>
          </ns3:TrackPointExtension>
        </extensions>
      </trkpt>
      <trkpt lat="36.839009262621402740478515625" lon="-118.407302834093570709228515625">
        <ele>3091.800048828125</ele>
        <time>2021-06-27T22:06:21.000Z</time>
        <extensions>
          <ns3:TrackPointExtension>
            <ns3:atemp>32.0</ns3:atemp>
            <ns3:hr>87</ns3:hr>
          </ns3:TrackPointExtension>
        </extensions>
      </trkpt>
      <trkpt lat="36.83903935365378856658935546875" lon="-118.40733845718204975128173828125">
        <ele>3091.39990234375</ele>
        <time>2021-06-27T22:06:25.000Z</time>
        <extensions>
          <ns3:TrackPointExtension>
            <ns3:atemp>32.0</ns3:atemp>
            <ns3:hr>86</ns3:hr>
          </ns3:TrackPointExtension>
        </extensions>
      </trkpt>
      <trkpt lat="36.83908738195896148681640625" lon="-118.40734985657036304473876953125">
        <ele>3090.800048828125</ele>
        <time>2021-06-27T22:06:31.000Z</time>
        <extensions>
          <ns3:TrackPointExtension>
            <ns3:atemp>32.0</ns3:atemp>
            <ns3:hr>87</ns3:hr>
          </ns3:TrackPointExtension>
        </extensions>
      </trkpt>
      <trkpt lat="36.83911018073558807373046875" lon="-118.4073475934565067291259765625">
        <ele>3090.199951171875</ele>
        <time>2021-06-27T22:06:34.000Z</time>
        <extensions>
          <ns3:TrackPointExtension>
            <ns3:atemp>32.0</ns3:atemp>
            <ns3:hr>86</ns3:hr>
          </ns3:TrackPointExtension>
        </extensions>
      </trkpt>
      <trkpt lat="36.83912853710353374481201171875" lon="-118.40734482742846012115478515625">
        <ele>3090</ele>
        <time>2021-06-27T22:06:36.000Z</time>
        <extensions>
          <ns3:TrackPointExtension>
            <ns3:atemp>32.0</ns3:atemp>
            <ns3:hr>83</ns3:hr>
          </ns3:TrackPointExtension>
        </extensions>
      </trkpt>
      <trkpt lat="36.8391351588070392608642578125" lon="-118.4073415584862232208251953125">
        <ele>3089.800048828125</ele>
        <time>2021-06-27T22:06:37.000Z</time>
        <extensions>
          <ns3:TrackPointExtension>
            <ns3:atemp>32.0</ns3:atemp>
            <ns3:hr>87</ns3:hr>
          </ns3:TrackPointExtension>
        </extensions>
      </trkpt>
      <trkpt lat="36.83914362452924251556396484375" lon="-118.4073418937623500823974609375">
        <ele>3089.60009765625</ele>
        <time>2021-06-27T22:06:38.000Z</time>
        <extensions>
          <ns3:TrackPointExtension>
            <ns3:atemp>32.0</ns3:atemp>
            <ns3:hr>87</ns3:hr>
          </ns3:TrackPointExtension>
        </extensions>
      </trkpt>
      <trkpt lat="36.83917748741805553436279296875" lon="-118.407332003116607666015625">
        <ele>3088.800048828125</ele>
        <time>2021-06-27T22:06:42.000Z</time>
        <extensions>
          <ns3:TrackPointExtension>
            <ns3:atemp>32.0</ns3:atemp>
            <ns3:hr>87</ns3:hr>
          </ns3:TrackPointExtension>
        </extensions>
      </trkpt>
      <trkpt lat="36.83922828175127506256103515625" lon="-118.40732588432729244232177734375">
        <ele>3088</ele>
        <time>2021-06-27T22:06:47.000Z</time>
        <extensions>
          <ns3:TrackPointExtension>
            <ns3:atemp>32.0</ns3:atemp>
            <ns3:hr>87</ns3:hr>
          </ns3:TrackPointExtension>
        </extensions>
      </trkpt>
      <trkpt lat="36.83924605138599872589111328125" lon="-118.40732395648956298828125">
        <ele>3087.800048828125</ele>
        <time>2021-06-27T22:06:49.000Z</time>
        <extensions>
          <ns3:TrackPointExtension>
            <ns3:atemp>32.0</ns3:atemp>
            <ns3:hr>85</ns3:hr>
          </ns3:TrackPointExtension>
        </extensions>
      </trkpt>
      <trkpt lat="36.83930329978466033935546875" lon="-118.40728950686752796173095703125">
        <ele>3086.60009765625</ele>
        <time>2021-06-27T22:06:56.000Z</time>
        <extensions>
          <ns3:TrackPointExtension>
            <ns3:atemp>32.0</ns3:atemp>
            <ns3:hr>83</ns3:hr>
          </ns3:TrackPointExtension>
        </extensions>
      </trkpt>
      <trkpt lat="36.83934227563440799713134765625" lon="-118.40729151852428913116455078125">
        <ele>3085.800048828125</ele>
        <time>2021-06-27T22:07:00.000Z</time>
        <extensions>
          <ns3:TrackPointExtension>
            <ns3:atemp>32.0</ns3:atemp>
            <ns3:hr>86</ns3:hr>
          </ns3:TrackPointExtension>
        </extensions>
      </trkpt>
      <trkpt lat="36.839362643659114837646484375" lon="-118.40729034505784511566162109375">
        <ele>3085.199951171875</ele>
        <time>2021-06-27T22:07:03.000Z</time>
        <extensions>
          <ns3:TrackPointExtension>
            <ns3:atemp>32.0</ns3:atemp>
            <ns3:hr>87</ns3:hr>
          </ns3:TrackPointExtension>
        </extensions>
      </trkpt>
      <trkpt lat="36.83936893008649349212646484375" lon="-118.40728833340108394622802734375">
        <ele>3085.199951171875</ele>
        <time>2021-06-27T22:07:04.000Z</time>
        <extensions>
          <ns3:TrackPointExtension>
            <ns3:atemp>32.0</ns3:atemp>
            <ns3:hr>85</ns3:hr>
          </ns3:TrackPointExtension>
        </extensions>
      </trkpt>
      <trkpt lat="36.8393777310848236083984375" lon="-118.4072926081717014312744140625">
        <ele>3084.60009765625</ele>
        <time>2021-06-27T22:07:07.000Z</time>
        <extensions>
          <ns3:TrackPointExtension>
            <ns3:atemp>32.0</ns3:atemp>
            <ns3:hr>86</ns3:hr>
          </ns3:TrackPointExtension>
        </extensions>
      </trkpt>
      <trkpt lat="36.8393812514841556549072265625" lon="-118.40729218907654285430908203125">
        <ele>3084.60009765625</ele>
        <time>2021-06-27T22:07:11.000Z</time>
        <extensions>
          <ns3:TrackPointExtension>
            <ns3:atemp>32.0</ns3:atemp>
            <ns3:hr>87</ns3:hr>
          </ns3:TrackPointExtension>
        </extensions>
      </trkpt>
      <trkpt lat="36.83940363116562366485595703125" lon="-118.4072993136942386627197265625">
        <ele>3084</ele>
        <time>2021-06-27T22:07:16.000Z</time>
        <extensions>
          <ns3:TrackPointExtension>
            <ns3:atemp>32.0</ns3:atemp>
            <ns3:hr>87</ns3:hr>
          </ns3:TrackPointExtension>
        </extensions>
      </trkpt>
      <trkpt lat="36.83942995034158229827880859375" lon="-118.40729646384716033935546875">
        <ele>3083.60009765625</ele>
        <time>2021-06-27T22:07:20.000Z</time>
        <extensions>
          <ns3:TrackPointExtension>
            <ns3:atemp>32.0</ns3:atemp>
            <ns3:hr>84</ns3:hr>
          </ns3:TrackPointExtension>
        </extensions>
      </trkpt>
      <trkpt lat="36.83943799696862697601318359375" lon="-118.407300822436809539794921875">
        <ele>3083.199951171875</ele>
        <time>2021-06-27T22:07:22.000Z</time>
        <extensions>
          <ns3:TrackPointExtension>
            <ns3:atemp>32.0</ns3:atemp>
            <ns3:hr>86</ns3:hr>
          </ns3:TrackPointExtension>
        </extensions>
      </trkpt>
      <trkpt lat="36.839451827108860015869140625" lon="-118.40731867589056491851806640625">
        <ele>3082.800048828125</ele>
        <time>2021-06-27T22:07:24.000Z</time>
        <extensions>
          <ns3:TrackPointExtension>
            <ns3:atemp>32.0</ns3:atemp>
            <ns3:hr>87</ns3:hr>
          </ns3:TrackPointExtension>
        </extensions>
      </trkpt>
      <trkpt lat="36.839479319751262664794921875" lon="-118.407350443303585052490234375">
        <ele>3082.39990234375</ele>
        <time>2021-06-27T22:07:28.000Z</time>
        <extensions>
          <ns3:TrackPointExtension>
            <ns3:atemp>32.0</ns3:atemp>
            <ns3:hr>90</ns3:hr>
          </ns3:TrackPointExtension>
        </extensions>
      </trkpt>
      <trkpt lat="36.83949641883373260498046875" lon="-118.40735404752194881439208984375">
        <ele>3082.39990234375</ele>
        <time>2021-06-27T22:07:31.000Z</time>
        <extensions>
          <ns3:TrackPointExtension>
            <ns3:atemp>32.0</ns3:atemp>
            <ns3:hr>90</ns3:hr>
          </ns3:TrackPointExtension>
        </extensions>
      </trkpt>
      <trkpt lat="36.83953153900802135467529296875" lon="-118.4073787741363048553466796875">
        <ele>3081.800048828125</ele>
        <time>2021-06-27T22:07:36.000Z</time>
        <extensions>
          <ns3:TrackPointExtension>
            <ns3:atemp>32.0</ns3:atemp>
            <ns3:hr>89</ns3:hr>
          </ns3:TrackPointExtension>
        </extensions>
      </trkpt>
      <trkpt lat="36.839553751051425933837890625" lon="-118.40739008970558643341064453125">
        <ele>3081.39990234375</ele>
        <time>2021-06-27T22:07:39.000Z</time>
        <extensions>
          <ns3:TrackPointExtension>
            <ns3:atemp>32.0</ns3:atemp>
            <ns3:hr>88</ns3:hr>
          </ns3:TrackPointExtension>
        </extensions>
      </trkpt>
      <trkpt lat="36.8395690061151981353759765625" lon="-118.4073918499052524566650390625">
        <ele>3080.800048828125</ele>
        <time>2021-06-27T22:07:41.000Z</time>
        <extensions>
          <ns3:TrackPointExtension>
            <ns3:atemp>32.0</ns3:atemp>
            <ns3:hr>89</ns3:hr>
          </ns3:TrackPointExtension>
        </extensions>
      </trkpt>
      <trkpt lat="36.8396015278995037078857421875" lon="-118.4073843061923980712890625">
        <ele>3080.800048828125</ele>
        <time>2021-06-27T22:07:45.000Z</time>
        <extensions>
          <ns3:TrackPointExtension>
            <ns3:atemp>32.0</ns3:atemp>
            <ns3:hr>87</ns3:hr>
          </ns3:TrackPointExtension>
        </extensions>
      </trkpt>
      <trkpt lat="36.83961804024875164031982421875" lon="-118.4073898382484912872314453125">
        <ele>3080</ele>
        <time>2021-06-27T22:07:49.000Z</time>
        <extensions>
          <ns3:TrackPointExtension>
            <ns3:atemp>32.0</ns3:atemp>
            <ns3:hr>84</ns3:hr>
          </ns3:TrackPointExtension>
        </extensions>
      </trkpt>
      <trkpt lat="36.83961653150618076324462890625" lon="-118.40739076025784015655517578125">
        <ele>3080</ele>
        <time>2021-06-27T22:07:50.000Z</time>
        <extensions>
          <ns3:TrackPointExtension>
            <ns3:atemp>32.0</ns3:atemp>
            <ns3:hr>83</ns3:hr>
          </ns3:TrackPointExtension>
        </extensions>
      </trkpt>
      <trkpt lat="36.83962558396160602569580078125" lon="-118.4073851443827152252197265625">
        <ele>3079.60009765625</ele>
        <time>2021-06-27T22:07:55.000Z</time>
        <extensions>
          <ns3:TrackPointExtension>
            <ns3:atemp>33.0</ns3:atemp>
            <ns3:hr>80</ns3:hr>
          </ns3:TrackPointExtension>
        </extensions>
      </trkpt>
      <trkpt lat="36.83962189592421054840087890625" lon="-118.40738723985850811004638671875">
        <ele>3079.60009765625</ele>
        <time>2021-06-27T22:08:00.000Z</time>
        <extensions>
          <ns3:TrackPointExtension>
            <ns3:atemp>33.0</ns3:atemp>
            <ns3:hr>79</ns3:hr>
          </ns3:TrackPointExtension>
        </extensions>
      </trkpt>
      <trkpt lat="36.83962189592421054840087890625" lon="-118.40738723985850811004638671875">
        <ele>3079.800048828125</ele>
        <time>2021-06-27T22:08:06.000Z</time>
        <extensions>
          <ns3:TrackPointExtension>
            <ns3:atemp>33.0</ns3:atemp>
            <ns3:hr>83</ns3:hr>
          </ns3:TrackPointExtension>
        </extensions>
      </trkpt>
      <trkpt lat="36.83962189592421054840087890625" lon="-118.40738723985850811004638671875">
        <ele>3079.800048828125</ele>
        <time>2021-06-27T22:08:08.000Z</time>
        <extensions>
          <ns3:TrackPointExtension>
            <ns3:atemp>33.0</ns3:atemp>
            <ns3:hr>86</ns3:hr>
          </ns3:TrackPointExtension>
        </extensions>
      </trkpt>
      <trkpt lat="36.83962189592421054840087890625" lon="-118.4073871560394763946533203125">
        <ele>3079.800048828125</ele>
        <time>2021-06-27T22:08:10.000Z</time>
        <extensions>
          <ns3:TrackPointExtension>
            <ns3:atemp>33.0</ns3:atemp>
            <ns3:hr>89</ns3:hr>
          </ns3:TrackPointExtension>
        </extensions>
      </trkpt>
      <trkpt lat="36.8396209739148616790771484375" lon="-118.4073869884014129638671875">
        <ele>3080</ele>
        <time>2021-06-27T22:08:12.000Z</time>
        <extensions>
          <ns3:TrackPointExtension>
            <ns3:atemp>33.0</ns3:atemp>
            <ns3:hr>92</ns3:hr>
          </ns3:TrackPointExtension>
        </extensions>
      </trkpt>
      <trkpt lat="36.83961267583072185516357421875" lon="-118.40737424790859222412109375">
        <ele>3079.39990234375</ele>
        <time>2021-06-27T22:08:27.000Z</time>
        <extensions>
          <ns3:TrackPointExtension>
            <ns3:atemp>33.0</ns3:atemp>
            <ns3:hr>89</ns3:hr>
          </ns3:TrackPointExtension>
        </extensions>
      </trkpt>
      <trkpt lat="36.8396343849599361419677734375" lon="-118.40736494399607181549072265625">
        <ele>3078.800048828125</ele>
        <time>2021-06-27T22:08:36.000Z</time>
        <extensions>
          <ns3:TrackPointExtension>
            <ns3:atemp>32.0</ns3:atemp>
            <ns3:hr>85</ns3:hr>
          </ns3:TrackPointExtension>
        </extensions>
      </trkpt>
      <trkpt lat="36.8396819941699504852294921875" lon="-118.40737366117537021636962890625">
        <ele>3078.800048828125</ele>
        <time>2021-06-27T22:08:39.000Z</time>
        <extensions>
          <ns3:TrackPointExtension>
            <ns3:atemp>32.0</ns3:atemp>
            <ns3:hr>86</ns3:hr>
          </ns3:TrackPointExtension>
        </extensions>
      </trkpt>
      <trkpt lat="36.83970856480300426483154296875" lon="-118.407375924289226531982421875">
        <ele>3078.199951171875</ele>
        <time>2021-06-27T22:08:41.000Z</time>
        <extensions>
          <ns3:TrackPointExtension>
            <ns3:atemp>32.0</ns3:atemp>
            <ns3:hr>86</ns3:hr>
          </ns3:TrackPointExtension>
        </extensions>
      </trkpt>
      <trkpt lat="36.8398006819188594818115234375" lon="-118.407376594841480255126953125">
        <ele>3078.199951171875</ele>
        <time>2021-06-27T22:08:49.000Z</time>
        <extensions>
          <ns3:TrackPointExtension>
            <ns3:atemp>32.0</ns3:atemp>
            <ns3:hr>84</ns3:hr>
          </ns3:TrackPointExtension>
        </extensions>
      </trkpt>
      <trkpt lat="36.839854158461093902587890625" lon="-118.40738891623914241790771484375">
        <ele>3078.39990234375</ele>
        <time>2021-06-27T22:08:55.000Z</time>
        <extensions>
          <ns3:TrackPointExtension>
            <ns3:atemp>32.0</ns3:atemp>
            <ns3:hr>87</ns3:hr>
          </ns3:TrackPointExtension>
        </extensions>
      </trkpt>
      <trkpt lat="36.83987997472286224365234375" lon="-118.40740568004548549652099609375">
        <ele>3077.800048828125</ele>
        <time>2021-06-27T22:08:59.000Z</time>
        <extensions>
          <ns3:TrackPointExtension>
            <ns3:atemp>32.0</ns3:atemp>
            <ns3:hr>90</ns3:hr>
          </ns3:TrackPointExtension>
        </extensions>
      </trkpt>
      <trkpt lat="36.83989883400499820709228515625" lon="-118.4074106253683567047119140625">
        <ele>3077.199951171875</ele>
        <time>2021-06-27T22:09:01.000Z</time>
        <extensions>
          <ns3:TrackPointExtension>
            <ns3:atemp>32.0</ns3:atemp>
            <ns3:hr>90</ns3:hr>
          </ns3:TrackPointExtension>
        </extensions>
      </trkpt>
      <trkpt lat="36.83997343294322490692138671875" lon="-118.4074565581977367401123046875">
        <ele>3076.199951171875</ele>
        <time>2021-06-27T22:09:10.000Z</time>
        <extensions>
          <ns3:TrackPointExtension>
            <ns3:atemp>32.0</ns3:atemp>
            <ns3:hr>92</ns3:hr>
          </ns3:TrackPointExtension>
        </extensions>
      </trkpt>
      <trkpt lat="36.84007049538195133209228515625" lon="-118.407492935657501220703125">
        <ele>3075.800048828125</ele>
        <time>2021-06-27T22:09:20.000Z</time>
        <extensions>
          <ns3:TrackPointExtension>
            <ns3:atemp>32.0</ns3:atemp>
            <ns3:hr>91</ns3:hr>
          </ns3:TrackPointExtension>
        </extensions>
      </trkpt>
      <trkpt lat="36.8400977365672588348388671875" lon="-118.4074746631085872650146484375">
        <ele>3075.199951171875</ele>
        <time>2021-06-27T22:09:23.000Z</time>
        <extensions>
          <ns3:TrackPointExtension>
            <ns3:atemp>32.0</ns3:atemp>
            <ns3:hr>90</ns3:hr>
          </ns3:TrackPointExtension>
        </extensions>
      </trkpt>
      <trkpt lat="36.84011240489780902862548828125" lon="-118.40745270252227783203125">
        <ele>3075.199951171875</ele>
        <time>2021-06-27T22:09:25.000Z</time>
        <extensions>
          <ns3:TrackPointExtension>
            <ns3:atemp>32.0</ns3:atemp>
            <ns3:hr>89</ns3:hr>
          </ns3:TrackPointExtension>
        </extensions>
      </trkpt>
      <trkpt lat="36.84011374600231647491455078125" lon="-118.4074116311967372894287109375">
        <ele>3075</ele>
        <time>2021-06-27T22:09:28.000Z</time>
        <extensions>
          <ns3:TrackPointExtension>
            <ns3:atemp>32.0</ns3:atemp>
            <ns3:hr>88</ns3:hr>
          </ns3:TrackPointExtension>
        </extensions>
      </trkpt>
      <trkpt lat="36.840129084885120391845703125" lon="-118.40730048716068267822265625">
        <ele>3074.199951171875</ele>
        <time>2021-06-27T22:09:37.000Z</time>
        <extensions>
          <ns3:TrackPointExtension>
            <ns3:atemp>32.0</ns3:atemp>
            <ns3:hr>87</ns3:hr>
          </ns3:TrackPointExtension>
        </extensions>
      </trkpt>
      <trkpt lat="36.8401399813592433929443359375" lon="-118.40726972557604312896728515625">
        <ele>3073.800048828125</ele>
        <time>2021-06-27T22:09:40.000Z</time>
        <extensions>
          <ns3:TrackPointExtension>
            <ns3:atemp>32.0</ns3:atemp>
            <ns3:hr>87</ns3:hr>
          </ns3:TrackPointExtension>
        </extensions>
      </trkpt>
      <trkpt lat="36.84015758335590362548828125" lon="-118.40721323154866695404052734375">
        <ele>3072.60009765625</ele>
        <time>2021-06-27T22:09:45.000Z</time>
        <extensions>
          <ns3:TrackPointExtension>
            <ns3:atemp>32.0</ns3:atemp>
            <ns3:hr>86</ns3:hr>
          </ns3:TrackPointExtension>
        </extensions>
      </trkpt>
      <trkpt lat="36.84016319923102855682373046875" lon="-118.40720283798873424530029296875">
        <ele>3072.60009765625</ele>
        <time>2021-06-27T22:09:46.000Z</time>
        <extensions>
          <ns3:TrackPointExtension>
            <ns3:atemp>32.0</ns3:atemp>
            <ns3:hr>87</ns3:hr>
          </ns3:TrackPointExtension>
        </extensions>
      </trkpt>
      <trkpt lat="36.84021416120231151580810546875" lon="-118.40714366175234317779541015625">
        <ele>3072</ele>
        <time>2021-06-27T22:09:54.000Z</time>
        <extensions>
          <ns3:TrackPointExtension>
            <ns3:atemp>32.0</ns3:atemp>
            <ns3:hr>88</ns3:hr>
          </ns3:TrackPointExtension>
        </extensions>
      </trkpt>
      <trkpt lat="36.84022371657192707061767578125" lon="-118.40713947080075740814208984375">
        <ele>3071.60009765625</ele>
        <time>2021-06-27T22:09:55.000Z</time>
        <extensions>
          <ns3:TrackPointExtension>
            <ns3:atemp>32.0</ns3:atemp>
            <ns3:hr>87</ns3:hr>
          </ns3:TrackPointExtension>
        </extensions>
      </trkpt>
      <trkpt lat="36.84025950729846954345703125" lon="-118.4071286581456661224365234375">
        <ele>3070.60009765625</ele>
        <time>2021-06-27T22:10:01.000Z</time>
        <extensions>
          <ns3:TrackPointExtension>
            <ns3:atemp>32.0</ns3:atemp>
            <ns3:hr>87</ns3:hr>
          </ns3:TrackPointExtension>
        </extensions>
      </trkpt>
      <trkpt lat="36.84025707654654979705810546875" lon="-118.4071289934217929840087890625">
        <ele>3070.60009765625</ele>
        <time>2021-06-27T22:10:03.000Z</time>
        <extensions>
          <ns3:TrackPointExtension>
            <ns3:atemp>32.0</ns3:atemp>
            <ns3:hr>86</ns3:hr>
          </ns3:TrackPointExtension>
        </extensions>
      </trkpt>
      <trkpt lat="36.8402573280036449432373046875" lon="-118.4071310050785541534423828125">
        <ele>3070.60009765625</ele>
        <time>2021-06-27T22:10:06.000Z</time>
        <extensions>
          <ns3:TrackPointExtension>
            <ns3:atemp>32.0</ns3:atemp>
            <ns3:hr>85</ns3:hr>
          </ns3:TrackPointExtension>
        </extensions>
      </trkpt>
      <trkpt lat="36.84026445262134075164794921875" lon="-118.40713846497237682342529296875">
        <ele>3070.39990234375</ele>
        <time>2021-06-27T22:10:10.000Z</time>
        <extensions>
          <ns3:TrackPointExtension>
            <ns3:atemp>32.0</ns3:atemp>
            <ns3:hr>89</ns3:hr>
          </ns3:TrackPointExtension>
        </extensions>
      </trkpt>
      <trkpt lat="36.84026445262134075164794921875" lon="-118.40713846497237682342529296875">
        <ele>3070.39990234375</ele>
        <time>2021-06-27T22:10:12.000Z</time>
        <extensions>
          <ns3:TrackPointExtension>
            <ns3:atemp>32.0</ns3:atemp>
            <ns3:hr>92</ns3:hr>
          </ns3:TrackPointExtension>
        </extensions>
      </trkpt>
      <trkpt lat="36.84026445262134075164794921875" lon="-118.40713846497237682342529296875">
        <ele>3070.199951171875</ele>
        <time>2021-06-27T22:10:16.000Z</time>
        <extensions>
          <ns3:TrackPointExtension>
            <ns3:atemp>32.0</ns3:atemp>
            <ns3:hr>95</ns3:hr>
          </ns3:TrackPointExtension>
        </extensions>
      </trkpt>
      <trkpt lat="36.84029362164437770843505859375" lon="-118.4071289934217929840087890625">
        <ele>3069.800048828125</ele>
        <time>2021-06-27T22:10:29.000Z</time>
        <extensions>
          <ns3:TrackPointExtension>
            <ns3:atemp>32.0</ns3:atemp>
            <ns3:hr>94</ns3:hr>
          </ns3:TrackPointExtension>
        </extensions>
      </trkpt>
      <trkpt lat="36.84030988253653049468994140625" lon="-118.407116420567035675048828125">
        <ele>3069.199951171875</ele>
        <time>2021-06-27T22:10:36.000Z</time>
        <extensions>
          <ns3:TrackPointExtension>
            <ns3:atemp>32.0</ns3:atemp>
            <ns3:hr>94</ns3:hr>
          </ns3:TrackPointExtension>
        </extensions>
      </trkpt>
      <trkpt lat="36.84031256474554538726806640625" lon="-118.40711331926286220550537109375">
        <ele>3068.60009765625</ele>
        <time>2021-06-27T22:10:40.000Z</time>
        <extensions>
          <ns3:TrackPointExtension>
            <ns3:atemp>32.0</ns3:atemp>
            <ns3:hr>91</ns3:hr>
          </ns3:TrackPointExtension>
        </extensions>
      </trkpt>
      <trkpt lat="36.8403217010200023651123046875" lon="-118.40711080469191074371337890625">
        <ele>3068.199951171875</ele>
        <time>2021-06-27T22:10:42.000Z</time>
        <extensions>
          <ns3:TrackPointExtension>
            <ns3:atemp>32.0</ns3:atemp>
            <ns3:hr>90</ns3:hr>
          </ns3:TrackPointExtension>
        </extensions>
      </trkpt>
      <trkpt lat="36.84039521031081676483154296875" lon="-118.40710225515067577362060546875">
        <ele>3067.39990234375</ele>
        <time>2021-06-27T22:10:47.000Z</time>
        <extensions>
          <ns3:TrackPointExtension>
            <ns3:atemp>32.0</ns3:atemp>
            <ns3:hr>92</ns3:hr>
          </ns3:TrackPointExtension>
        </extensions>
      </trkpt>
      <trkpt lat="36.84043209068477153778076171875" lon="-118.40709437616169452667236328125">
        <ele>3067.199951171875</ele>
        <time>2021-06-27T22:10:49.000Z</time>
        <extensions>
          <ns3:TrackPointExtension>
            <ns3:atemp>32.0</ns3:atemp>
            <ns3:hr>92</ns3:hr>
          </ns3:TrackPointExtension>
        </extensions>
      </trkpt>
      <trkpt lat="36.84047031216323375701904296875" lon="-118.40709286741912364959716796875">
        <ele>3066.39990234375</ele>
        <time>2021-06-27T22:10:53.000Z</time>
        <extensions>
          <ns3:TrackPointExtension>
            <ns3:atemp>32.0</ns3:atemp>
            <ns3:hr>92</ns3:hr>
          </ns3:TrackPointExtension>
        </extensions>
      </trkpt>
      <trkpt lat="36.84048724360764026641845703125" lon="-118.40712455101311206817626953125">
        <ele>3066</ele>
        <time>2021-06-27T22:10:57.000Z</time>
        <extensions>
          <ns3:TrackPointExtension>
            <ns3:atemp>32.0</ns3:atemp>
            <ns3:hr>92</ns3:hr>
          </ns3:TrackPointExtension>
        </extensions>
      </trkpt>
      <trkpt lat="36.84052077122032642364501953125" lon="-118.40713561512529850006103515625">
        <ele>3065</ele>
        <time>2021-06-27T22:11:01.000Z</time>
        <extensions>
          <ns3:TrackPointExtension>
            <ns3:atemp>32.0</ns3:atemp>
            <ns3:hr>92</ns3:hr>
          </ns3:TrackPointExtension>
        </extensions>
      </trkpt>
      <trkpt lat="36.8405292369425296783447265625" lon="-118.407134525477886199951171875">
        <ele>3065</ele>
        <time>2021-06-27T22:11:02.000Z</time>
        <extensions>
          <ns3:TrackPointExtension>
            <ns3:atemp>32.0</ns3:atemp>
            <ns3:hr>91</ns3:hr>
          </ns3:TrackPointExtension>
        </extensions>
      </trkpt>
      <trkpt lat="36.84055144898593425750732421875" lon="-118.40710644610226154327392578125">
        <ele>3063.800048828125</ele>
        <time>2021-06-27T22:11:06.000Z</time>
        <extensions>
          <ns3:TrackPointExtension>
            <ns3:atemp>32.0</ns3:atemp>
            <ns3:hr>92</ns3:hr>
          </ns3:TrackPointExtension>
        </extensions>
      </trkpt>
      <trkpt lat="36.84057089500129222869873046875" lon="-118.40708113275468349456787109375">
        <ele>3063.800048828125</ele>
        <time>2021-06-27T22:11:09.000Z</time>
        <extensions>
          <ns3:TrackPointExtension>
            <ns3:atemp>32.0</ns3:atemp>
            <ns3:hr>93</ns3:hr>
          </ns3:TrackPointExtension>
        </extensions>
      </trkpt>
      <trkpt lat="36.8406046740710735321044921875" lon="-118.407044671475887298583984375">
        <ele>3062.800048828125</ele>
        <time>2021-06-27T22:11:15.000Z</time>
        <extensions>
          <ns3:TrackPointExtension>
            <ns3:atemp>32.0</ns3:atemp>
            <ns3:hr>94</ns3:hr>
          </ns3:TrackPointExtension>
        </extensions>
      </trkpt>
      <trkpt lat="36.84062001295387744903564453125" lon="-118.4070401452481746673583984375">
        <ele>3062.199951171875</ele>
        <time>2021-06-27T22:11:17.000Z</time>
        <extensions>
          <ns3:TrackPointExtension>
            <ns3:atemp>32.0</ns3:atemp>
            <ns3:hr>93</ns3:hr>
          </ns3:TrackPointExtension>
        </extensions>
      </trkpt>
      <trkpt lat="36.84064700268208980560302734375" lon="-118.40703436173498630523681640625">
        <ele>3061.39990234375</ele>
        <time>2021-06-27T22:11:22.000Z</time>
        <extensions>
          <ns3:TrackPointExtension>
            <ns3:atemp>32.0</ns3:atemp>
            <ns3:hr>95</ns3:hr>
          </ns3:TrackPointExtension>
        </extensions>
      </trkpt>
      <trkpt lat="36.84067516587674617767333984375" lon="-118.4070156700909137725830078125">
        <ele>3060.800048828125</ele>
        <time>2021-06-27T22:11:26.000Z</time>
        <extensions>
          <ns3:TrackPointExtension>
            <ns3:atemp>32.0</ns3:atemp>
            <ns3:hr>95</ns3:hr>
          </ns3:TrackPointExtension>
        </extensions>
      </trkpt>
      <trkpt lat="36.840690337121486663818359375" lon="-118.4070072881877422332763671875">
        <ele>3060.39990234375</ele>
        <time>2021-06-27T22:11:28.000Z</time>
        <extensions>
          <ns3:TrackPointExtension>
            <ns3:atemp>32.0</ns3:atemp>
            <ns3:hr>95</ns3:hr>
          </ns3:TrackPointExtension>
        </extensions>
      </trkpt>
      <trkpt lat="36.84072579257190227508544921875" lon="-118.4069801308214664459228515625">
        <ele>3059.199951171875</ele>
        <time>2021-06-27T22:11:33.000Z</time>
        <extensions>
          <ns3:TrackPointExtension>
            <ns3:atemp>32.0</ns3:atemp>
            <ns3:hr>95</ns3:hr>
          </ns3:TrackPointExtension>
        </extensions>
      </trkpt>
      <trkpt lat="36.8407327495515346527099609375" lon="-118.4069791249930858612060546875">
        <ele>3058.800048828125</ele>
        <time>2021-06-27T22:11:34.000Z</time>
        <extensions>
          <ns3:TrackPointExtension>
            <ns3:atemp>32.0</ns3:atemp>
            <ns3:hr>94</ns3:hr>
          </ns3:TrackPointExtension>
        </extensions>
      </trkpt>
      <trkpt lat="36.84075412340462207794189453125" lon="-118.40698138810694217681884765625">
        <ele>3058.39990234375</ele>
        <time>2021-06-27T22:11:36.000Z</time>
        <extensions>
          <ns3:TrackPointExtension>
            <ns3:atemp>32.0</ns3:atemp>
            <ns3:hr>94</ns3:hr>
          </ns3:TrackPointExtension>
        </extensions>
      </trkpt>
      <trkpt lat="36.8407585658133029937744140625" lon="-118.4070007503032684326171875">
        <ele>3058.199951171875</ele>
        <time>2021-06-27T22:11:39.000Z</time>
        <extensions>
          <ns3:TrackPointExtension>
            <ns3:atemp>32.0</ns3:atemp>
            <ns3:hr>94</ns3:hr>
          </ns3:TrackPointExtension>
        </extensions>
      </trkpt>
      <trkpt lat="36.840757392346858978271484375" lon="-118.40701189823448657989501953125">
        <ele>3058</ele>
        <time>2021-06-27T22:11:40.000Z</time>
        <extensions>
          <ns3:TrackPointExtension>
            <ns3:atemp>32.0</ns3:atemp>
            <ns3:hr>93</ns3:hr>
          </ns3:TrackPointExtension>
        </extensions>
      </trkpt>
      <trkpt lat="36.8407545424997806549072265625" lon="-118.40702262707054615020751953125">
        <ele>3058</ele>
        <time>2021-06-27T22:11:41.000Z</time>
        <extensions>
          <ns3:TrackPointExtension>
            <ns3:atemp>32.0</ns3:atemp>
            <ns3:hr>91</ns3:hr>
          </ns3:TrackPointExtension>
        </extensions>
      </trkpt>
      <trkpt lat="36.84075680561363697052001953125" lon="-118.40705716051161289215087890625">
        <ele>3057.60009765625</ele>
        <time>2021-06-27T22:11:44.000Z</time>
        <extensions>
          <ns3:TrackPointExtension>
            <ns3:atemp>32.0</ns3:atemp>
            <ns3:hr>88</ns3:hr>
          </ns3:TrackPointExtension>
        </extensions>
      </trkpt>
      <trkpt lat="36.84075596742331981658935546875" lon="-118.40707543306052684783935546875">
        <ele>3057</ele>
        <time>2021-06-27T22:11:46.000Z</time>
        <extensions>
          <ns3:TrackPointExtension>
            <ns3:atemp>32.0</ns3:atemp>
            <ns3:hr>87</ns3:hr>
          </ns3:TrackPointExtension>
        </extensions>
      </trkpt>
      <trkpt lat="36.84076376259326934814453125" lon="-118.4071283228695392608642578125">
        <ele>3056.39990234375</ele>
        <time>2021-06-27T22:11:51.000Z</time>
        <extensions>
          <ns3:TrackPointExtension>
            <ns3:atemp>32.0</ns3:atemp>
            <ns3:hr>90</ns3:hr>
          </ns3:TrackPointExtension>
        </extensions>
      </trkpt>
      <trkpt lat="36.84076887555420398712158203125" lon="-118.40713812969624996185302734375">
        <ele>3055.800048828125</ele>
        <time>2021-06-27T22:11:52.000Z</time>
        <extensions>
          <ns3:TrackPointExtension>
            <ns3:atemp>32.0</ns3:atemp>
            <ns3:hr>88</ns3:hr>
          </ns3:TrackPointExtension>
        </extensions>
      </trkpt>
      <trkpt lat="36.84081011451780796051025390625" lon="-118.4071903489530086517333984375">
        <ele>3055.199951171875</ele>
        <time>2021-06-27T22:11:58.000Z</time>
        <extensions>
          <ns3:TrackPointExtension>
            <ns3:atemp>32.0</ns3:atemp>
            <ns3:hr>87</ns3:hr>
          </ns3:TrackPointExtension>
        </extensions>
      </trkpt>
      <trkpt lat="36.8408180773258209228515625" lon="-118.40719722211360931396484375">
        <ele>3055</ele>
        <time>2021-06-27T22:11:59.000Z</time>
        <extensions>
          <ns3:TrackPointExtension>
            <ns3:atemp>32.0</ns3:atemp>
            <ns3:hr>88</ns3:hr>
          </ns3:TrackPointExtension>
        </extensions>
      </trkpt>
      <trkpt lat="36.8408269621431827545166015625" lon="-118.40719990432262420654296875">
        <ele>3054.800048828125</ele>
        <time>2021-06-27T22:12:00.000Z</time>
        <extensions>
          <ns3:TrackPointExtension>
            <ns3:atemp>32.0</ns3:atemp>
            <ns3:hr>86</ns3:hr>
          </ns3:TrackPointExtension>
        </extensions>
      </trkpt>
      <trkpt lat="36.84086074121296405792236328125" lon="-118.4072154946625232696533203125">
        <ele>3054.199951171875</ele>
        <time>2021-06-27T22:12:03.000Z</time>
        <extensions>
          <ns3:TrackPointExtension>
            <ns3:atemp>32.0</ns3:atemp>
            <ns3:hr>89</ns3:hr>
          </ns3:TrackPointExtension>
        </extensions>
      </trkpt>
      <trkpt lat="36.84090860188007354736328125" lon="-118.40723921544849872589111328125">
        <ele>3054.800048828125</ele>
        <time>2021-06-27T22:12:09.000Z</time>
        <extensions>
          <ns3:TrackPointExtension>
            <ns3:atemp>32.0</ns3:atemp>
            <ns3:hr>91</ns3:hr>
          </ns3:TrackPointExtension>
        </extensions>
      </trkpt>
      <trkpt lat="36.8410049937665462493896484375" lon="-118.40724684298038482666015625">
        <ele>3054.800048828125</ele>
        <time>2021-06-27T22:12:18.000Z</time>
        <extensions>
          <ns3:TrackPointExtension>
            <ns3:atemp>32.0</ns3:atemp>
            <ns3:hr>91</ns3:hr>
          </ns3:TrackPointExtension>
        </extensions>
      </trkpt>
      <trkpt lat="36.84107900597155094146728515625" lon="-118.40725078247487545013427734375">
        <ele>3054.800048828125</ele>
        <time>2021-06-27T22:12:25.000Z</time>
        <extensions>
          <ns3:TrackPointExtension>
            <ns3:atemp>32.0</ns3:atemp>
            <ns3:hr>92</ns3:hr>
          </ns3:TrackPointExtension>
        </extensions>
      </trkpt>
      <trkpt lat="36.84110482223331928253173828125" lon="-118.4072636067867279052734375">
        <ele>3054.800048828125</ele>
        <time>2021-06-27T22:12:28.000Z</time>
        <extensions>
          <ns3:TrackPointExtension>
            <ns3:atemp>32.0</ns3:atemp>
            <ns3:hr>92</ns3:hr>
          </ns3:TrackPointExtension>
        </extensions>
      </trkpt>
      <trkpt lat="36.8411672674119472503662109375" lon="-118.40730945579707622528076171875">
        <ele>3054.39990234375</ele>
        <time>2021-06-27T22:12:36.000Z</time>
        <extensions>
          <ns3:TrackPointExtension>
            <ns3:atemp>32.0</ns3:atemp>
            <ns3:hr>94</ns3:hr>
          </ns3:TrackPointExtension>
        </extensions>
      </trkpt>
      <trkpt lat="36.84119953773915767669677734375" lon="-118.4073734097182750701904296875">
        <ele>3053.39990234375</ele>
        <time>2021-06-27T22:12:43.000Z</time>
        <extensions>
          <ns3:TrackPointExtension>
            <ns3:atemp>32.0</ns3:atemp>
            <ns3:hr>95</ns3:hr>
          </ns3:TrackPointExtension>
        </extensions>
      </trkpt>
      <trkpt lat="36.84120590798556804656982421875" lon="-118.40737751685082912445068359375">
        <ele>3053.199951171875</ele>
        <time>2021-06-27T22:12:44.000Z</time>
        <extensions>
          <ns3:TrackPointExtension>
            <ns3:atemp>32.0</ns3:atemp>
            <ns3:hr>96</ns3:hr>
          </ns3:TrackPointExtension>
        </extensions>
      </trkpt>
      <trkpt lat="36.8412383459508419036865234375" lon="-118.4074015729129314422607421875">
        <ele>3052.199951171875</ele>
        <time>2021-06-27T22:12:50.000Z</time>
        <extensions>
          <ns3:TrackPointExtension>
            <ns3:atemp>32.0</ns3:atemp>
            <ns3:hr>93</ns3:hr>
          </ns3:TrackPointExtension>
        </extensions>
      </trkpt>
      <trkpt lat="36.84125385247170925140380859375" lon="-118.40741448104381561279296875">
        <ele>3051.800048828125</ele>
        <time>2021-06-27T22:12:52.000Z</time>
        <extensions>
          <ns3:TrackPointExtension>
            <ns3:atemp>32.0</ns3:atemp>
            <ns3:hr>90</ns3:hr>
          </ns3:TrackPointExtension>
        </extensions>
      </trkpt>
      <trkpt lat="36.84126240201294422149658203125" lon="-118.40742059983313083648681640625">
        <ele>3051.199951171875</ele>
        <time>2021-06-27T22:12:53.000Z</time>
        <extensions>
          <ns3:TrackPointExtension>
            <ns3:atemp>32.0</ns3:atemp>
            <ns3:hr>89</ns3:hr>
          </ns3:TrackPointExtension>
        </extensions>
      </trkpt>
      <trkpt lat="36.8412913195788860321044921875" lon="-118.4074454940855503082275390625">
        <ele>3051</ele>
        <time>2021-06-27T22:12:57.000Z</time>
        <extensions>
          <ns3:TrackPointExtension>
            <ns3:atemp>32.0</ns3:atemp>
            <ns3:hr>86</ns3:hr>
          </ns3:TrackPointExtension>
        </extensions>
      </trkpt>
      <trkpt lat="36.8413157947361469268798828125" lon="-118.40746485628187656402587890625">
        <ele>3050.60009765625</ele>
        <time>2021-06-27T22:13:00.000Z</time>
        <extensions>
          <ns3:TrackPointExtension>
            <ns3:atemp>32.0</ns3:atemp>
            <ns3:hr>85</ns3:hr>
          </ns3:TrackPointExtension>
        </extensions>
      </trkpt>
      <trkpt lat="36.841323338449001312255859375" lon="-118.40746871195733547210693359375">
        <ele>3050</ele>
        <time>2021-06-27T22:13:01.000Z</time>
        <extensions>
          <ns3:TrackPointExtension>
            <ns3:atemp>32.0</ns3:atemp>
            <ns3:hr>84</ns3:hr>
          </ns3:TrackPointExtension>
        </extensions>
      </trkpt>
      <trkpt lat="36.8413644097745418548583984375" lon="-118.4075157344341278076171875">
        <ele>3048.800048828125</ele>
        <time>2021-06-27T22:13:08.000Z</time>
        <extensions>
          <ns3:TrackPointExtension>
            <ns3:atemp>32.0</ns3:atemp>
            <ns3:hr>83</ns3:hr>
          </ns3:TrackPointExtension>
        </extensions>
      </trkpt>
      <trkpt lat="36.84142752550542354583740234375" lon="-118.4075668640434741973876953125">
        <ele>3048</ele>
        <time>2021-06-27T22:13:16.000Z</time>
        <extensions>
          <ns3:TrackPointExtension>
            <ns3:atemp>32.0</ns3:atemp>
            <ns3:hr>83</ns3:hr>
          </ns3:TrackPointExtension>
        </extensions>
      </trkpt>
      <trkpt lat="36.8414515815675258636474609375" lon="-118.40758019126951694488525390625">
        <ele>3047.60009765625</ele>
        <time>2021-06-27T22:13:19.000Z</time>
        <extensions>
          <ns3:TrackPointExtension>
            <ns3:atemp>32.0</ns3:atemp>
            <ns3:hr>82</ns3:hr>
          </ns3:TrackPointExtension>
        </extensions>
      </trkpt>
      <trkpt lat="36.84150245971977710723876953125" lon="-118.40761371888220310211181640625">
        <ele>3046.800048828125</ele>
        <time>2021-06-27T22:13:25.000Z</time>
        <extensions>
          <ns3:TrackPointExtension>
            <ns3:atemp>32.0</ns3:atemp>
            <ns3:hr>84</ns3:hr>
          </ns3:TrackPointExtension>
        </extensions>
      </trkpt>
      <trkpt lat="36.841527186334133148193359375" lon="-118.40761807747185230255126953125">
        <ele>3046.39990234375</ele>
        <time>2021-06-27T22:13:28.000Z</time>
        <extensions>
          <ns3:TrackPointExtension>
            <ns3:atemp>32.0</ns3:atemp>
            <ns3:hr>84</ns3:hr>
          </ns3:TrackPointExtension>
        </extensions>
      </trkpt>
      <trkpt lat="36.84153146110475063323974609375" lon="-118.4076074324548244476318359375">
        <ele>3046.39990234375</ele>
        <time>2021-06-27T22:13:31.000Z</time>
        <extensions>
          <ns3:TrackPointExtension>
            <ns3:atemp>32.0</ns3:atemp>
            <ns3:hr>87</ns3:hr>
          </ns3:TrackPointExtension>
        </extensions>
      </trkpt>
      <trkpt lat="36.84153095819056034088134765625" lon="-118.4076070971786975860595703125">
        <ele>3046.39990234375</ele>
        <time>2021-06-27T22:13:32.000Z</time>
        <extensions>
          <ns3:TrackPointExtension>
            <ns3:atemp>32.0</ns3:atemp>
            <ns3:hr>88</ns3:hr>
          </ns3:TrackPointExtension>
        </extensions>
      </trkpt>
      <trkpt lat="36.841548644006252288818359375" lon="-118.4076201729476451873779296875">
        <ele>3046</ele>
        <time>2021-06-27T22:13:36.000Z</time>
        <extensions>
          <ns3:TrackPointExtension>
            <ns3:atemp>32.0</ns3:atemp>
            <ns3:hr>91</ns3:hr>
          </ns3:TrackPointExtension>
        </extensions>
      </trkpt>
      <trkpt lat="36.84156683273613452911376953125" lon="-118.40762629173696041107177734375">
        <ele>3045.60009765625</ele>
        <time>2021-06-27T22:13:38.000Z</time>
        <extensions>
          <ns3:TrackPointExtension>
            <ns3:atemp>32.0</ns3:atemp>
            <ns3:hr>93</ns3:hr>
          </ns3:TrackPointExtension>
        </extensions>
      </trkpt>
      <trkpt lat="36.84159767813980579376220703125" lon="-118.407637439668178558349609375">
        <ele>3045.800048828125</ele>
        <time>2021-06-27T22:13:46.000Z</time>
        <extensions>
          <ns3:TrackPointExtension>
            <ns3:atemp>32.0</ns3:atemp>
            <ns3:hr>91</ns3:hr>
          </ns3:TrackPointExtension>
        </extensions>
      </trkpt>
      <trkpt lat="36.8415991030633449554443359375" lon="-118.40762763284146785736083984375">
        <ele>3045.199951171875</ele>
        <time>2021-06-27T22:13:50.000Z</time>
        <extensions>
          <ns3:TrackPointExtension>
            <ns3:atemp>32.0</ns3:atemp>
            <ns3:hr>92</ns3:hr>
          </ns3:TrackPointExtension>
        </extensions>
      </trkpt>
      <trkpt lat="36.84160119853913784027099609375" lon="-118.4076042473316192626953125">
        <ele>3045.199951171875</ele>
        <time>2021-06-27T22:13:54.000Z</time>
        <extensions>
          <ns3:TrackPointExtension>
            <ns3:atemp>32.0</ns3:atemp>
            <ns3:hr>94</ns3:hr>
          </ns3:TrackPointExtension>
        </extensions>
      </trkpt>
      <trkpt lat="36.8416091613471508026123046875" lon="-118.40760885737836360931396484375">
        <ele>3045.39990234375</ele>
        <time>2021-06-27T22:14:24.000Z</time>
        <extensions>
          <ns3:TrackPointExtension>
            <ns3:atemp>32.0</ns3:atemp>
            <ns3:hr>94</ns3:hr>
          </ns3:TrackPointExtension>
        </extensions>
      </trkpt>
      <trkpt lat="36.84161134064197540283203125" lon="-118.40761271305382251739501953125">
        <ele>3046</ele>
        <time>2021-06-27T22:14:29.000Z</time>
        <extensions>
          <ns3:TrackPointExtension>
            <ns3:atemp>32.0</ns3:atemp>
            <ns3:hr>97</ns3:hr>
          </ns3:TrackPointExtension>
        </extensions>
      </trkpt>
      <trkpt lat="36.84161310084164142608642578125" lon="-118.4076127968728542327880859375">
        <ele>3046</ele>
        <time>2021-06-27T22:14:31.000Z</time>
        <extensions>
          <ns3:TrackPointExtension>
            <ns3:atemp>32.0</ns3:atemp>
            <ns3:hr>97</ns3:hr>
          </ns3:TrackPointExtension>
        </extensions>
      </trkpt>
      <trkpt lat="36.84159457683563232421875" lon="-118.40762629173696041107177734375">
        <ele>3043</ele>
        <time>2021-06-27T22:23:02.000Z</time>
        <extensions>
          <ns3:TrackPointExtension>
            <ns3:atemp>33.0</ns3:atemp>
            <ns3:hr>80</ns3:hr>
          </ns3:TrackPointExtension>
        </extensions>
      </trkpt>
      <trkpt lat="36.84159449301660060882568359375" lon="-118.40762629173696041107177734375">
        <ele>3043</ele>
        <time>2021-06-27T22:23:03.000Z</time>
        <extensions>
          <ns3:TrackPointExtension>
            <ns3:atemp>33.0</ns3:atemp>
            <ns3:hr>80</ns3:hr>
          </ns3:TrackPointExtension>
        </extensions>
      </trkpt>
      <trkpt lat="36.841594241559505462646484375" lon="-118.40762578882277011871337890625">
        <ele>3043</ele>
        <time>2021-06-27T22:23:19.000Z</time>
        <extensions>
          <ns3:TrackPointExtension>
            <ns3:atemp>33.0</ns3:atemp>
            <ns3:hr>77</ns3:hr>
          </ns3:TrackPointExtension>
        </extensions>
      </trkpt>
      <trkpt lat="36.841594241559505462646484375" lon="-118.40762578882277011871337890625">
        <ele>3043</ele>
        <time>2021-06-27T22:23:21.000Z</time>
        <extensions>
          <ns3:TrackPointExtension>
            <ns3:atemp>33.0</ns3:atemp>
            <ns3:hr>74</ns3:hr>
          </ns3:TrackPointExtension>
        </extensions>
      </trkpt>
      <trkpt lat="36.8415987677872180938720703125" lon="-118.40763266198337078094482421875">
        <ele>3041.800048828125</ele>
        <time>2021-06-27T22:23:39.000Z</time>
        <extensions>
          <ns3:TrackPointExtension>
            <ns3:atemp>33.0</ns3:atemp>
            <ns3:hr>72</ns3:hr>
          </ns3:TrackPointExtension>
        </extensions>
      </trkpt>
      <trkpt lat="36.84166104532778263092041015625" lon="-118.40770206414163112640380859375">
        <ele>3041.199951171875</ele>
        <time>2021-06-27T22:23:44.000Z</time>
        <extensions>
          <ns3:TrackPointExtension>
            <ns3:atemp>33.0</ns3:atemp>
            <ns3:hr>71</ns3:hr>
          </ns3:TrackPointExtension>
        </extensions>
      </trkpt>
      <trkpt lat="36.84169792570173740386962890625" lon="-118.4077512659132480621337890625">
        <ele>3040.39990234375</ele>
        <time>2021-06-27T22:23:47.000Z</time>
        <extensions>
          <ns3:TrackPointExtension>
            <ns3:atemp>33.0</ns3:atemp>
            <ns3:hr>70</ns3:hr>
          </ns3:TrackPointExtension>
        </extensions>
      </trkpt>
      <trkpt lat="36.84171770699322223663330078125" lon="-118.40777833946049213409423828125">
        <ele>3040.39990234375</ele>
        <time>2021-06-27T22:23:49.000Z</time>
        <extensions>
          <ns3:TrackPointExtension>
            <ns3:atemp>33.0</ns3:atemp>
            <ns3:hr>70</ns3:hr>
          </ns3:TrackPointExtension>
        </extensions>
      </trkpt>
      <trkpt lat="36.8417405895888805389404296875" lon="-118.4077841229736804962158203125">
        <ele>3040.800048828125</ele>
        <time>2021-06-27T22:23:51.000Z</time>
        <extensions>
          <ns3:TrackPointExtension>
            <ns3:atemp>33.0</ns3:atemp>
            <ns3:hr>74</ns3:hr>
          </ns3:TrackPointExtension>
        </extensions>
      </trkpt>
      <trkpt lat="36.84175240807235240936279296875" lon="-118.40778370387852191925048828125">
        <ele>3041</ele>
        <time>2021-06-27T22:23:52.000Z</time>
        <extensions>
          <ns3:TrackPointExtension>
            <ns3:atemp>33.0</ns3:atemp>
            <ns3:hr>71</ns3:hr>
          </ns3:TrackPointExtension>
        </extensions>
      </trkpt>
      <trkpt lat="36.84181711636483669281005859375" lon="-118.40778286568820476531982421875">
        <ele>3040.60009765625</ele>
        <time>2021-06-27T22:23:58.000Z</time>
        <extensions>
          <ns3:TrackPointExtension>
            <ns3:atemp>33.0</ns3:atemp>
            <ns3:hr>73</ns3:hr>
          </ns3:TrackPointExtension>
        </extensions>
      </trkpt>
      <trkpt lat="36.84189406223595142364501953125" lon="-118.407833240926265716552734375">
        <ele>3040.39990234375</ele>
        <time>2021-06-27T22:24:07.000Z</time>
        <extensions>
          <ns3:TrackPointExtension>
            <ns3:atemp>33.0</ns3:atemp>
            <ns3:hr>73</ns3:hr>
          </ns3:TrackPointExtension>
        </extensions>
      </trkpt>
      <trkpt lat="36.8419142626225948333740234375" lon="-118.40786031447350978851318359375">
        <ele>3039.800048828125</ele>
        <time>2021-06-27T22:24:10.000Z</time>
        <extensions>
          <ns3:TrackPointExtension>
            <ns3:atemp>33.0</ns3:atemp>
            <ns3:hr>70</ns3:hr>
          </ns3:TrackPointExtension>
        </extensions>
      </trkpt>
      <trkpt lat="36.84194116853177547454833984375" lon="-118.40788654983043670654296875">
        <ele>3039.60009765625</ele>
        <time>2021-06-27T22:24:13.000Z</time>
        <extensions>
          <ns3:TrackPointExtension>
            <ns3:atemp>33.0</ns3:atemp>
            <ns3:hr>72</ns3:hr>
          </ns3:TrackPointExtension>
        </extensions>
      </trkpt>
      <trkpt lat="36.8419524841010570526123046875" lon="-118.40790398418903350830078125">
        <ele>3039.39990234375</ele>
        <time>2021-06-27T22:24:15.000Z</time>
        <extensions>
          <ns3:TrackPointExtension>
            <ns3:atemp>33.0</ns3:atemp>
            <ns3:hr>72</ns3:hr>
          </ns3:TrackPointExtension>
        </extensions>
      </trkpt>
      <trkpt lat="36.8419848382472991943359375" lon="-118.407938182353973388671875">
        <ele>3038.800048828125</ele>
        <time>2021-06-27T22:24:19.000Z</time>
        <extensions>
          <ns3:TrackPointExtension>
            <ns3:atemp>33.0</ns3:atemp>
            <ns3:hr>71</ns3:hr>
          </ns3:TrackPointExtension>
        </extensions>
      </trkpt>
      <trkpt lat="36.8420309387147426605224609375" lon="-118.40796433389186859130859375">
        <ele>3039</ele>
        <time>2021-06-27T22:24:23.000Z</time>
        <extensions>
          <ns3:TrackPointExtension>
            <ns3:atemp>33.0</ns3:atemp>
            <ns3:hr>71</ns3:hr>
          </ns3:TrackPointExtension>
        </extensions>
      </trkpt>
      <trkpt lat="36.84208986349403858184814453125" lon="-118.40800431556999683380126953125">
        <ele>3039.39990234375</ele>
        <time>2021-06-27T22:24:29.000Z</time>
        <extensions>
          <ns3:TrackPointExtension>
            <ns3:atemp>33.0</ns3:atemp>
            <ns3:hr>74</ns3:hr>
          </ns3:TrackPointExtension>
        </extensions>
      </trkpt>
      <trkpt lat="36.84211266227066516876220703125" lon="-118.40803205966949462890625">
        <ele>3039.60009765625</ele>
        <time>2021-06-27T22:24:32.000Z</time>
        <extensions>
          <ns3:TrackPointExtension>
            <ns3:atemp>33.0</ns3:atemp>
            <ns3:hr>77</ns3:hr>
          </ns3:TrackPointExtension>
        </extensions>
      </trkpt>
      <trkpt lat="36.842170916497707366943359375" lon="-118.40807103551924228668212890625">
        <ele>3039.199951171875</ele>
        <time>2021-06-27T22:24:38.000Z</time>
        <extensions>
          <ns3:TrackPointExtension>
            <ns3:atemp>32.0</ns3:atemp>
            <ns3:hr>78</ns3:hr>
          </ns3:TrackPointExtension>
        </extensions>
      </trkpt>
      <trkpt lat="36.8421844951808452606201171875" lon="-118.40809500776231288909912109375">
        <ele>3038.60009765625</ele>
        <time>2021-06-27T22:24:40.000Z</time>
        <extensions>
          <ns3:TrackPointExtension>
            <ns3:atemp>32.0</ns3:atemp>
            <ns3:hr>79</ns3:hr>
          </ns3:TrackPointExtension>
        </extensions>
      </trkpt>
      <trkpt lat="36.8422181904315948486328125" lon="-118.4081354923546314239501953125">
        <ele>3038</ele>
        <time>2021-06-27T22:24:44.000Z</time>
        <extensions>
          <ns3:TrackPointExtension>
            <ns3:atemp>32.0</ns3:atemp>
            <ns3:hr>78</ns3:hr>
          </ns3:TrackPointExtension>
        </extensions>
      </trkpt>
      <trkpt lat="36.8422545678913593292236328125" lon="-118.4081686846911907196044921875">
        <ele>3037.39990234375</ele>
        <time>2021-06-27T22:24:48.000Z</time>
        <extensions>
          <ns3:TrackPointExtension>
            <ns3:atemp>32.0</ns3:atemp>
            <ns3:hr>79</ns3:hr>
          </ns3:TrackPointExtension>
        </extensions>
      </trkpt>
      <trkpt lat="36.84226504527032375335693359375" lon="-118.4081727080047130584716796875">
        <ele>3037.199951171875</ele>
        <time>2021-06-27T22:24:49.000Z</time>
        <extensions>
          <ns3:TrackPointExtension>
            <ns3:atemp>32.0</ns3:atemp>
            <ns3:hr>78</ns3:hr>
          </ns3:TrackPointExtension>
        </extensions>
      </trkpt>
      <trkpt lat="36.8422746844589710235595703125" lon="-118.408178575336933135986328125">
        <ele>3037</ele>
        <time>2021-06-27T22:24:50.000Z</time>
        <extensions>
          <ns3:TrackPointExtension>
            <ns3:atemp>32.0</ns3:atemp>
            <ns3:hr>79</ns3:hr>
          </ns3:TrackPointExtension>
        </extensions>
      </trkpt>
      <trkpt lat="36.84234584681689739227294921875" lon="-118.4082233346998691558837890625">
        <ele>3036.800048828125</ele>
        <time>2021-06-27T22:24:57.000Z</time>
        <extensions>
          <ns3:TrackPointExtension>
            <ns3:atemp>32.0</ns3:atemp>
            <ns3:hr>79</ns3:hr>
          </ns3:TrackPointExtension>
        </extensions>
      </trkpt>
      <trkpt lat="36.84235556982457637786865234375" lon="-118.408230207860469818115234375">
        <ele>3036.60009765625</ele>
        <time>2021-06-27T22:24:58.000Z</time>
        <extensions>
          <ns3:TrackPointExtension>
            <ns3:atemp>32.0</ns3:atemp>
            <ns3:hr>79</ns3:hr>
          </ns3:TrackPointExtension>
        </extensions>
      </trkpt>
      <trkpt lat="36.84239345602691173553466796875" lon="-118.40825225226581096649169921875">
        <ele>3036.60009765625</ele>
        <time>2021-06-27T22:25:03.000Z</time>
        <extensions>
          <ns3:TrackPointExtension>
            <ns3:atemp>32.0</ns3:atemp>
            <ns3:hr>79</ns3:hr>
          </ns3:TrackPointExtension>
        </extensions>
      </trkpt>
      <trkpt lat="36.84240250848233699798583984375" lon="-118.40825627557933330535888671875">
        <ele>3036.39990234375</ele>
        <time>2021-06-27T22:25:04.000Z</time>
        <extensions>
          <ns3:TrackPointExtension>
            <ns3:atemp>32.0</ns3:atemp>
            <ns3:hr>78</ns3:hr>
          </ns3:TrackPointExtension>
        </extensions>
      </trkpt>
      <trkpt lat="36.84242245741188526153564453125" lon="-118.40827278792858123779296875">
        <ele>3035.800048828125</ele>
        <time>2021-06-27T22:25:06.000Z</time>
        <extensions>
          <ns3:TrackPointExtension>
            <ns3:atemp>32.0</ns3:atemp>
            <ns3:hr>79</ns3:hr>
          </ns3:TrackPointExtension>
        </extensions>
      </trkpt>
      <trkpt lat="36.84248448349535465240478515625" lon="-118.408306650817394256591796875">
        <ele>3035</ele>
        <time>2021-06-27T22:25:13.000Z</time>
        <extensions>
          <ns3:TrackPointExtension>
            <ns3:atemp>32.0</ns3:atemp>
            <ns3:hr>78</ns3:hr>
          </ns3:TrackPointExtension>
        </extensions>
      </trkpt>
      <trkpt lat="36.84249320067465305328369140625" lon="-118.40830774046480655670166015625">
        <ele>3034.60009765625</ele>
        <time>2021-06-27T22:25:14.000Z</time>
        <extensions>
          <ns3:TrackPointExtension>
            <ns3:atemp>32.0</ns3:atemp>
            <ns3:hr>78</ns3:hr>
          </ns3:TrackPointExtension>
        </extensions>
      </trkpt>
      <trkpt lat="36.8425641953945159912109375" lon="-118.40832601301372051239013671875">
        <ele>3033.800048828125</ele>
        <time>2021-06-27T22:25:21.000Z</time>
        <extensions>
          <ns3:TrackPointExtension>
            <ns3:atemp>32.0</ns3:atemp>
            <ns3:hr>81</ns3:hr>
          </ns3:TrackPointExtension>
        </extensions>
      </trkpt>
      <trkpt lat="36.84258389286696910858154296875" lon="-118.408332802355289459228515625">
        <ele>3033.60009765625</ele>
        <time>2021-06-27T22:25:23.000Z</time>
        <extensions>
          <ns3:TrackPointExtension>
            <ns3:atemp>32.0</ns3:atemp>
            <ns3:hr>78</ns3:hr>
          </ns3:TrackPointExtension>
        </extensions>
      </trkpt>
      <trkpt lat="36.842595040798187255859375" lon="-118.4083383344113826751708984375">
        <ele>3033.199951171875</ele>
        <time>2021-06-27T22:25:24.000Z</time>
        <extensions>
          <ns3:TrackPointExtension>
            <ns3:atemp>32.0</ns3:atemp>
            <ns3:hr>77</ns3:hr>
          </ns3:TrackPointExtension>
        </extensions>
      </trkpt>
      <trkpt lat="36.8426421470940113067626953125" lon="-118.4083426930010318756103515625">
        <ele>3032.800048828125</ele>
        <time>2021-06-27T22:25:28.000Z</time>
        <extensions>
          <ns3:TrackPointExtension>
            <ns3:atemp>32.0</ns3:atemp>
            <ns3:hr>73</ns3:hr>
          </ns3:TrackPointExtension>
        </extensions>
      </trkpt>
      <trkpt lat="36.84266452677547931671142578125" lon="-118.40834009461104869842529296875">
        <ele>3032.800048828125</ele>
        <time>2021-06-27T22:25:30.000Z</time>
        <extensions>
          <ns3:TrackPointExtension>
            <ns3:atemp>32.0</ns3:atemp>
            <ns3:hr>74</ns3:hr>
          </ns3:TrackPointExtension>
        </extensions>
      </trkpt>
      <trkpt lat="36.8427031673491001129150390625" lon="-118.40834562666714191436767578125">
        <ele>3032.60009765625</ele>
        <time>2021-06-27T22:25:34.000Z</time>
        <extensions>
          <ns3:TrackPointExtension>
            <ns3:atemp>32.0</ns3:atemp>
            <ns3:hr>71</ns3:hr>
          </ns3:TrackPointExtension>
        </extensions>
      </trkpt>
      <trkpt lat="36.84271775186061859130859375" lon="-118.40835534967482089996337890625">
        <ele>3032.39990234375</ele>
        <time>2021-06-27T22:25:36.000Z</time>
        <extensions>
          <ns3:TrackPointExtension>
            <ns3:atemp>32.0</ns3:atemp>
            <ns3:hr>68</ns3:hr>
          </ns3:TrackPointExtension>
        </extensions>
      </trkpt>
      <trkpt lat="36.84272470884025096893310546875" lon="-118.40836440213024616241455078125">
        <ele>3032.199951171875</ele>
        <time>2021-06-27T22:25:37.000Z</time>
        <extensions>
          <ns3:TrackPointExtension>
            <ns3:atemp>32.0</ns3:atemp>
            <ns3:hr>67</ns3:hr>
          </ns3:TrackPointExtension>
        </extensions>
      </trkpt>
      <trkpt lat="36.84273158200085163116455078125" lon="-118.40837211348116397857666015625">
        <ele>3032</ele>
        <time>2021-06-27T22:25:38.000Z</time>
        <extensions>
          <ns3:TrackPointExtension>
            <ns3:atemp>32.0</ns3:atemp>
            <ns3:hr>70</ns3:hr>
          </ns3:TrackPointExtension>
        </extensions>
      </trkpt>
      <trkpt lat="36.84273845516145229339599609375" lon="-118.40837814845144748687744140625">
        <ele>3031.60009765625</ele>
        <time>2021-06-27T22:25:39.000Z</time>
        <extensions>
          <ns3:TrackPointExtension>
            <ns3:atemp>32.0</ns3:atemp>
            <ns3:hr>69</ns3:hr>
          </ns3:TrackPointExtension>
        </extensions>
      </trkpt>
      <trkpt lat="36.84275404550135135650634765625" lon="-118.40839021839201450347900390625">
        <ele>3031.199951171875</ele>
        <time>2021-06-27T22:25:41.000Z</time>
        <extensions>
          <ns3:TrackPointExtension>
            <ns3:atemp>32.0</ns3:atemp>
            <ns3:hr>71</ns3:hr>
          </ns3:TrackPointExtension>
        </extensions>
      </trkpt>
      <trkpt lat="36.8427715636789798736572265625" lon="-118.40840798802673816680908203125">
        <ele>3031</ele>
        <time>2021-06-27T22:25:43.000Z</time>
        <extensions>
          <ns3:TrackPointExtension>
            <ns3:atemp>32.0</ns3:atemp>
            <ns3:hr>71</ns3:hr>
          </ns3:TrackPointExtension>
        </extensions>
      </trkpt>
      <trkpt lat="36.8428074382245540618896484375" lon="-118.4084312058985233306884765625">
        <ele>3029.39990234375</ele>
        <time>2021-06-27T22:25:47.000Z</time>
        <extensions>
          <ns3:TrackPointExtension>
            <ns3:atemp>32.0</ns3:atemp>
            <ns3:hr>72</ns3:hr>
          </ns3:TrackPointExtension>
        </extensions>
      </trkpt>
      <trkpt lat="36.84282638132572174072265625" lon="-118.40843866579234600067138671875">
        <ele>3029.199951171875</ele>
        <time>2021-06-27T22:25:49.000Z</time>
        <extensions>
          <ns3:TrackPointExtension>
            <ns3:atemp>32.0</ns3:atemp>
            <ns3:hr>72</ns3:hr>
          </ns3:TrackPointExtension>
        </extensions>
      </trkpt>
      <trkpt lat="36.84286032803356647491455078125" lon="-118.40846850536763668060302734375">
        <ele>3028.199951171875</ele>
        <time>2021-06-27T22:25:54.000Z</time>
        <extensions>
          <ns3:TrackPointExtension>
            <ns3:atemp>32.0</ns3:atemp>
            <ns3:hr>72</ns3:hr>
          </ns3:TrackPointExtension>
        </extensions>
      </trkpt>
      <trkpt lat="36.84289720840752124786376953125" lon="-118.408504463732242584228515625">
        <ele>3027.800048828125</ele>
        <time>2021-06-27T22:25:58.000Z</time>
        <extensions>
          <ns3:TrackPointExtension>
            <ns3:atemp>32.0</ns3:atemp>
            <ns3:hr>71</ns3:hr>
          </ns3:TrackPointExtension>
        </extensions>
      </trkpt>
      <trkpt lat="36.84293861500918865203857421875" lon="-118.4085408411920070648193359375">
        <ele>3027.199951171875</ele>
        <time>2021-06-27T22:26:02.000Z</time>
        <extensions>
          <ns3:TrackPointExtension>
            <ns3:atemp>31.0</ns3:atemp>
            <ns3:hr>73</ns3:hr>
          </ns3:TrackPointExtension>
        </extensions>
      </trkpt>
      <trkpt lat="36.84298404492437839508056640625" lon="-118.40855173766613006591796875">
        <ele>3026.39990234375</ele>
        <time>2021-06-27T22:26:07.000Z</time>
        <extensions>
          <ns3:TrackPointExtension>
            <ns3:atemp>31.0</ns3:atemp>
            <ns3:hr>76</ns3:hr>
          </ns3:TrackPointExtension>
        </extensions>
      </trkpt>
      <trkpt lat="36.84301220811903476715087890625" lon="-118.40856757946312427520751953125">
        <ele>3026</ele>
        <time>2021-06-27T22:26:11.000Z</time>
        <extensions>
          <ns3:TrackPointExtension>
            <ns3:atemp>31.0</ns3:atemp>
            <ns3:hr>76</ns3:hr>
          </ns3:TrackPointExtension>
        </extensions>
      </trkpt>
      <trkpt lat="36.84303182177245616912841796875" lon="-118.4085716865956783294677734375">
        <ele>3025.800048828125</ele>
        <time>2021-06-27T22:26:13.000Z</time>
        <extensions>
          <ns3:TrackPointExtension>
            <ns3:atemp>31.0</ns3:atemp>
            <ns3:hr>79</ns3:hr>
          </ns3:TrackPointExtension>
        </extensions>
      </trkpt>
      <trkpt lat="36.84305981732904911041259765625" lon="-118.40857562609016895294189453125">
        <ele>3025.60009765625</ele>
        <time>2021-06-27T22:26:15.000Z</time>
        <extensions>
          <ns3:TrackPointExtension>
            <ns3:atemp>31.0</ns3:atemp>
            <ns3:hr>80</ns3:hr>
          </ns3:TrackPointExtension>
        </extensions>
      </trkpt>
      <trkpt lat="36.843108348548412322998046875" lon="-118.40858618728816509246826171875">
        <ele>3025.800048828125</ele>
        <time>2021-06-27T22:26:20.000Z</time>
        <extensions>
          <ns3:TrackPointExtension>
            <ns3:atemp>31.0</ns3:atemp>
            <ns3:hr>77</ns3:hr>
          </ns3:TrackPointExtension>
        </extensions>
      </trkpt>
      <trkpt lat="36.8431355059146881103515625" lon="-118.40860177762806415557861328125">
        <ele>3025.60009765625</ele>
        <time>2021-06-27T22:26:23.000Z</time>
        <extensions>
          <ns3:TrackPointExtension>
            <ns3:atemp>31.0</ns3:atemp>
            <ns3:hr>75</ns3:hr>
          </ns3:TrackPointExtension>
        </extensions>
      </trkpt>
      <trkpt lat="36.84314413927495479583740234375" lon="-118.40860362164676189422607421875">
        <ele>3025.39990234375</ele>
        <time>2021-06-27T22:26:24.000Z</time>
        <extensions>
          <ns3:TrackPointExtension>
            <ns3:atemp>31.0</ns3:atemp>
            <ns3:hr>79</ns3:hr>
          </ns3:TrackPointExtension>
        </extensions>
      </trkpt>
      <trkpt lat="36.84320834465324878692626953125" lon="-118.4086575172841548919677734375">
        <ele>3025</ele>
        <time>2021-06-27T22:26:31.000Z</time>
        <extensions>
          <ns3:TrackPointExtension>
            <ns3:atemp>31.0</ns3:atemp>
            <ns3:hr>78</ns3:hr>
          </ns3:TrackPointExtension>
        </extensions>
      </trkpt>
      <trkpt lat="36.843255199491977691650390625" lon="-118.4087200462818145751953125">
        <ele>3023.800048828125</ele>
        <time>2021-06-27T22:26:38.000Z</time>
        <extensions>
          <ns3:TrackPointExtension>
            <ns3:atemp>31.0</ns3:atemp>
            <ns3:hr>79</ns3:hr>
          </ns3:TrackPointExtension>
        </extensions>
      </trkpt>
      <trkpt lat="36.84327288530766963958740234375" lon="-118.40875013731420040130615234375">
        <ele>3023.60009765625</ele>
        <time>2021-06-27T22:26:41.000Z</time>
        <extensions>
          <ns3:TrackPointExtension>
            <ns3:atemp>31.0</ns3:atemp>
            <ns3:hr>82</ns3:hr>
          </ns3:TrackPointExtension>
        </extensions>
      </trkpt>
      <trkpt lat="36.8433056585490703582763671875" lon="-118.4088010154664516448974609375">
        <ele>3023.199951171875</ele>
        <time>2021-06-27T22:26:46.000Z</time>
        <extensions>
          <ns3:TrackPointExtension>
            <ns3:atemp>31.0</ns3:atemp>
            <ns3:hr>85</ns3:hr>
          </ns3:TrackPointExtension>
        </extensions>
      </trkpt>
      <trkpt lat="36.84332300908863544464111328125" lon="-118.40885072015225887298583984375">
        <ele>3022.800048828125</ele>
        <time>2021-06-27T22:26:50.000Z</time>
        <extensions>
          <ns3:TrackPointExtension>
            <ns3:atemp>31.0</ns3:atemp>
            <ns3:hr>83</ns3:hr>
          </ns3:TrackPointExtension>
        </extensions>
      </trkpt>
      <trkpt lat="36.8433331511914730072021484375" lon="-118.40887092053890228271484375">
        <ele>3022.39990234375</ele>
        <time>2021-06-27T22:26:52.000Z</time>
        <extensions>
          <ns3:TrackPointExtension>
            <ns3:atemp>31.0</ns3:atemp>
            <ns3:hr>79</ns3:hr>
          </ns3:TrackPointExtension>
        </extensions>
      </trkpt>
      <trkpt lat="36.8433381803333759307861328125" lon="-118.40889229439198970794677734375">
        <ele>3022.199951171875</ele>
        <time>2021-06-27T22:26:54.000Z</time>
        <extensions>
          <ns3:TrackPointExtension>
            <ns3:atemp>31.0</ns3:atemp>
            <ns3:hr>74</ns3:hr>
          </ns3:TrackPointExtension>
        </extensions>
      </trkpt>
      <trkpt lat="36.84334949590265750885009765625" lon="-118.40893470682203769683837890625">
        <ele>3021.60009765625</ele>
        <time>2021-06-27T22:26:57.000Z</time>
        <extensions>
          <ns3:TrackPointExtension>
            <ns3:atemp>31.0</ns3:atemp>
            <ns3:hr>71</ns3:hr>
          </ns3:TrackPointExtension>
        </extensions>
      </trkpt>
      <trkpt lat="36.8433723784983158111572265625" lon="-118.408964462578296661376953125">
        <ele>3021</ele>
        <time>2021-06-27T22:27:00.000Z</time>
        <extensions>
          <ns3:TrackPointExtension>
            <ns3:atemp>31.0</ns3:atemp>
            <ns3:hr>70</ns3:hr>
          </ns3:TrackPointExtension>
        </extensions>
      </trkpt>
      <trkpt lat="36.8434421159327030181884765625" lon="-118.40899824164807796478271484375">
        <ele>3020.800048828125</ele>
        <time>2021-06-27T22:27:07.000Z</time>
        <extensions>
          <ns3:TrackPointExtension>
            <ns3:atemp>31.0</ns3:atemp>
            <ns3:hr>71</ns3:hr>
          </ns3:TrackPointExtension>
        </extensions>
      </trkpt>
      <trkpt lat="36.84345309622585773468017578125" lon="-118.40900427661836147308349609375">
        <ele>3020.60009765625</ele>
        <time>2021-06-27T22:27:08.000Z</time>
        <extensions>
          <ns3:TrackPointExtension>
            <ns3:atemp>31.0</ns3:atemp>
            <ns3:hr>71</ns3:hr>
          </ns3:TrackPointExtension>
        </extensions>
      </trkpt>
      <trkpt lat="36.84353716671466827392578125" lon="-118.4090625308454036712646484375">
        <ele>3020.199951171875</ele>
        <time>2021-06-27T22:27:18.000Z</time>
        <extensions>
          <ns3:TrackPointExtension>
            <ns3:atemp>31.0</ns3:atemp>
            <ns3:hr>73</ns3:hr>
          </ns3:TrackPointExtension>
        </extensions>
      </trkpt>
      <trkpt lat="36.84359592385590076446533203125" lon="-118.409095220267772674560546875">
        <ele>3020.39990234375</ele>
        <time>2021-06-27T22:27:24.000Z</time>
        <extensions>
          <ns3:TrackPointExtension>
            <ns3:atemp>31.0</ns3:atemp>
            <ns3:hr>76</ns3:hr>
          </ns3:TrackPointExtension>
        </extensions>
      </trkpt>
      <trkpt lat="36.8436637334525585174560546875" lon="-118.409112654626369476318359375">
        <ele>3019.800048828125</ele>
        <time>2021-06-27T22:27:31.000Z</time>
        <extensions>
          <ns3:TrackPointExtension>
            <ns3:atemp>31.0</ns3:atemp>
            <ns3:hr>76</ns3:hr>
          </ns3:TrackPointExtension>
        </extensions>
      </trkpt>
      <trkpt lat="36.84371410869061946868896484375" lon="-118.4091238863766193389892578125">
        <ele>3019.39990234375</ele>
        <time>2021-06-27T22:27:36.000Z</time>
        <extensions>
          <ns3:TrackPointExtension>
            <ns3:atemp>31.0</ns3:atemp>
            <ns3:hr>75</ns3:hr>
          </ns3:TrackPointExtension>
        </extensions>
      </trkpt>
      <trkpt lat="36.84372089803218841552734375" lon="-118.40912170708179473876953125">
        <ele>3019.39990234375</ele>
        <time>2021-06-27T22:27:37.000Z</time>
        <extensions>
          <ns3:TrackPointExtension>
            <ns3:atemp>31.0</ns3:atemp>
            <ns3:hr>75</ns3:hr>
          </ns3:TrackPointExtension>
        </extensions>
      </trkpt>
      <trkpt lat="36.8437244184315204620361328125" lon="-118.40910837985575199127197265625">
        <ele>3019.39990234375</ele>
        <time>2021-06-27T22:27:40.000Z</time>
        <extensions>
          <ns3:TrackPointExtension>
            <ns3:atemp>31.0</ns3:atemp>
            <ns3:hr>76</ns3:hr>
          </ns3:TrackPointExtension>
        </extensions>
      </trkpt>
      <trkpt lat="36.84373087249696254730224609375" lon="-118.409105278551578521728515625">
        <ele>3019.39990234375</ele>
        <time>2021-06-27T22:27:51.000Z</time>
        <extensions>
          <ns3:TrackPointExtension>
            <ns3:atemp>31.0</ns3:atemp>
            <ns3:hr>77</ns3:hr>
          </ns3:TrackPointExtension>
        </extensions>
      </trkpt>
      <trkpt lat="36.84373087249696254730224609375" lon="-118.409105278551578521728515625">
        <ele>3019.60009765625</ele>
        <time>2021-06-27T22:27:55.000Z</time>
        <extensions>
          <ns3:TrackPointExtension>
            <ns3:atemp>31.0</ns3:atemp>
            <ns3:hr>80</ns3:hr>
          </ns3:TrackPointExtension>
        </extensions>
      </trkpt>
      <trkpt lat="36.84373087249696254730224609375" lon="-118.409105278551578521728515625">
        <ele>3019.60009765625</ele>
        <time>2021-06-27T22:27:57.000Z</time>
        <extensions>
          <ns3:TrackPointExtension>
            <ns3:atemp>31.0</ns3:atemp>
            <ns3:hr>83</ns3:hr>
          </ns3:TrackPointExtension>
        </extensions>
      </trkpt>
      <trkpt lat="36.84376104734838008880615234375" lon="-118.40911391191184520721435546875">
        <ele>3019.39990234375</ele>
        <time>2021-06-27T22:28:01.000Z</time>
        <extensions>
          <ns3:TrackPointExtension>
            <ns3:atemp>31.0</ns3:atemp>
            <ns3:hr>86</ns3:hr>
          </ns3:TrackPointExtension>
        </extensions>
      </trkpt>
      <trkpt lat="36.84379289858043193817138671875" lon="-118.40911659412086009979248046875">
        <ele>3019.199951171875</ele>
        <time>2021-06-27T22:28:03.000Z</time>
        <extensions>
          <ns3:TrackPointExtension>
            <ns3:atemp>31.0</ns3:atemp>
            <ns3:hr>86</ns3:hr>
          </ns3:TrackPointExtension>
        </extensions>
      </trkpt>
      <trkpt lat="36.843923069536685943603515625" lon="-118.40916269458830356597900390625">
        <ele>3018.800048828125</ele>
        <time>2021-06-27T22:28:15.000Z</time>
        <extensions>
          <ns3:TrackPointExtension>
            <ns3:atemp>31.0</ns3:atemp>
            <ns3:hr>84</ns3:hr>
          </ns3:TrackPointExtension>
        </extensions>
      </trkpt>
      <trkpt lat="36.84397495351731777191162109375" lon="-118.40916202403604984283447265625">
        <ele>3018.39990234375</ele>
        <time>2021-06-27T22:28:20.000Z</time>
        <extensions>
          <ns3:TrackPointExtension>
            <ns3:atemp>31.0</ns3:atemp>
            <ns3:hr>83</ns3:hr>
          </ns3:TrackPointExtension>
        </extensions>
      </trkpt>
      <trkpt lat="36.8439805693924427032470703125" lon="-118.40915389358997344970703125">
        <ele>3018.39990234375</ele>
        <time>2021-06-27T22:28:21.000Z</time>
        <extensions>
          <ns3:TrackPointExtension>
            <ns3:atemp>31.0</ns3:atemp>
            <ns3:hr>82</ns3:hr>
          </ns3:TrackPointExtension>
        </extensions>
      </trkpt>
      <trkpt lat="36.84399842284619808197021484375" lon="-118.40913771651685237884521484375">
        <ele>3017.60009765625</ele>
        <time>2021-06-27T22:28:23.000Z</time>
        <extensions>
          <ns3:TrackPointExtension>
            <ns3:atemp>31.0</ns3:atemp>
            <ns3:hr>80</ns3:hr>
          </ns3:TrackPointExtension>
        </extensions>
      </trkpt>
      <trkpt lat="36.84403312392532825469970703125" lon="-118.4091134928166866302490234375">
        <ele>3017.199951171875</ele>
        <time>2021-06-27T22:28:27.000Z</time>
        <extensions>
          <ns3:TrackPointExtension>
            <ns3:atemp>31.0</ns3:atemp>
            <ns3:hr>77</ns3:hr>
          </ns3:TrackPointExtension>
        </extensions>
      </trkpt>
      <trkpt lat="36.8440617062151432037353515625" lon="-118.40909262187778949737548828125">
        <ele>3016</ele>
        <time>2021-06-27T22:28:31.000Z</time>
        <extensions>
          <ns3:TrackPointExtension>
            <ns3:atemp>31.0</ns3:atemp>
            <ns3:hr>78</ns3:hr>
          </ns3:TrackPointExtension>
        </extensions>
      </trkpt>
      <trkpt lat="36.84406765736639499664306640625" lon="-118.4091000817716121673583984375">
        <ele>3016</ele>
        <time>2021-06-27T22:28:32.000Z</time>
        <extensions>
          <ns3:TrackPointExtension>
            <ns3:atemp>31.0</ns3:atemp>
            <ns3:hr>77</ns3:hr>
          </ns3:TrackPointExtension>
        </extensions>
      </trkpt>
      <trkpt lat="36.84413102455437183380126953125" lon="-118.40909899212419986724853515625">
        <ele>3014.800048828125</ele>
        <time>2021-06-27T22:28:39.000Z</time>
        <extensions>
          <ns3:TrackPointExtension>
            <ns3:atemp>31.0</ns3:atemp>
            <ns3:hr>79</ns3:hr>
          </ns3:TrackPointExtension>
        </extensions>
      </trkpt>
      <trkpt lat="36.84415080584585666656494140625" lon="-118.4090957231819629669189453125">
        <ele>3014.800048828125</ele>
        <time>2021-06-27T22:28:41.000Z</time>
        <extensions>
          <ns3:TrackPointExtension>
            <ns3:atemp>31.0</ns3:atemp>
            <ns3:hr>77</ns3:hr>
          </ns3:TrackPointExtension>
        </extensions>
      </trkpt>
      <trkpt lat="36.844211407005786895751953125" lon="-118.40909865684807300567626953125">
        <ele>3014.199951171875</ele>
        <time>2021-06-27T22:28:47.000Z</time>
        <extensions>
          <ns3:TrackPointExtension>
            <ns3:atemp>31.0</ns3:atemp>
            <ns3:hr>76</ns3:hr>
          </ns3:TrackPointExtension>
        </extensions>
      </trkpt>
      <trkpt lat="36.84422104619443416595458984375" lon="-118.4090982377529144287109375">
        <ele>3013.800048828125</ele>
        <time>2021-06-27T22:28:48.000Z</time>
        <extensions>
          <ns3:TrackPointExtension>
            <ns3:atemp>31.0</ns3:atemp>
            <ns3:hr>76</ns3:hr>
          </ns3:TrackPointExtension>
        </extensions>
      </trkpt>
      <trkpt lat="36.844263039529323577880859375" lon="-118.409107960760593414306640625">
        <ele>3013.199951171875</ele>
        <time>2021-06-27T22:28:52.000Z</time>
        <extensions>
          <ns3:TrackPointExtension>
            <ns3:atemp>31.0</ns3:atemp>
            <ns3:hr>73</ns3:hr>
          </ns3:TrackPointExtension>
        </extensions>
      </trkpt>
      <trkpt lat="36.84430721215903759002685546875" lon="-118.40913017280399799346923828125">
        <ele>3012.800048828125</ele>
        <time>2021-06-27T22:28:57.000Z</time>
        <extensions>
          <ns3:TrackPointExtension>
            <ns3:atemp>31.0</ns3:atemp>
            <ns3:hr>73</ns3:hr>
          </ns3:TrackPointExtension>
        </extensions>
      </trkpt>
      <trkpt lat="36.8443188630044460296630859375" lon="-118.4091352857649326324462890625">
        <ele>3012.800048828125</ele>
        <time>2021-06-27T22:28:58.000Z</time>
        <extensions>
          <ns3:TrackPointExtension>
            <ns3:atemp>31.0</ns3:atemp>
            <ns3:hr>73</ns3:hr>
          </ns3:TrackPointExtension>
        </extensions>
      </trkpt>
      <trkpt lat="36.84437678195536136627197265625" lon="-118.40916638262569904327392578125">
        <ele>3012.199951171875</ele>
        <time>2021-06-27T22:29:05.000Z</time>
        <extensions>
          <ns3:TrackPointExtension>
            <ns3:atemp>31.0</ns3:atemp>
            <ns3:hr>76</ns3:hr>
          </ns3:TrackPointExtension>
        </extensions>
      </trkpt>
      <trkpt lat="36.8443976528942584991455078125" lon="-118.4091792069375514984130859375">
        <ele>3011.800048828125</ele>
        <time>2021-06-27T22:29:07.000Z</time>
        <extensions>
          <ns3:TrackPointExtension>
            <ns3:atemp>31.0</ns3:atemp>
            <ns3:hr>76</ns3:hr>
          </ns3:TrackPointExtension>
        </extensions>
      </trkpt>
      <trkpt lat="36.84440678916871547698974609375" lon="-118.40918473899364471435546875">
        <ele>3011.39990234375</ele>
        <time>2021-06-27T22:29:08.000Z</time>
        <extensions>
          <ns3:TrackPointExtension>
            <ns3:atemp>31.0</ns3:atemp>
            <ns3:hr>76</ns3:hr>
          </ns3:TrackPointExtension>
        </extensions>
      </trkpt>
      <trkpt lat="36.84443864040076732635498046875" lon="-118.4091922827064990997314453125">
        <ele>3011.199951171875</ele>
        <time>2021-06-27T22:29:11.000Z</time>
        <extensions>
          <ns3:TrackPointExtension>
            <ns3:atemp>31.0</ns3:atemp>
            <ns3:hr>76</ns3:hr>
          </ns3:TrackPointExtension>
        </extensions>
      </trkpt>
      <trkpt lat="36.84446546249091625213623046875" lon="-118.409193120896816253662109375">
        <ele>3011.199951171875</ele>
        <time>2021-06-27T22:29:15.000Z</time>
        <extensions>
          <ns3:TrackPointExtension>
            <ns3:atemp>31.0</ns3:atemp>
            <ns3:hr>76</ns3:hr>
          </ns3:TrackPointExtension>
        </extensions>
      </trkpt>
      <trkpt lat="36.84454928152263164520263671875" lon="-118.4092009998857975006103515625">
        <ele>3010.60009765625</ele>
        <time>2021-06-27T22:29:23.000Z</time>
        <extensions>
          <ns3:TrackPointExtension>
            <ns3:atemp>31.0</ns3:atemp>
            <ns3:hr>74</ns3:hr>
          </ns3:TrackPointExtension>
        </extensions>
      </trkpt>
      <trkpt lat="36.84458163566887378692626953125" lon="-118.40919806621968746185302734375">
        <ele>3010.60009765625</ele>
        <time>2021-06-27T22:29:26.000Z</time>
        <extensions>
          <ns3:TrackPointExtension>
            <ns3:atemp>31.0</ns3:atemp>
            <ns3:hr>69</ns3:hr>
          </ns3:TrackPointExtension>
        </extensions>
      </trkpt>
      <trkpt lat="36.84461675584316253662109375" lon="-118.409198820590972900390625">
        <ele>3010.39990234375</ele>
        <time>2021-06-27T22:29:29.000Z</time>
        <extensions>
          <ns3:TrackPointExtension>
            <ns3:atemp>31.0</ns3:atemp>
            <ns3:hr>75</ns3:hr>
          </ns3:TrackPointExtension>
        </extensions>
      </trkpt>
      <trkpt lat="36.84462622739374637603759765625" lon="-118.40919622220098972320556640625">
        <ele>3010.60009765625</ele>
        <time>2021-06-27T22:29:30.000Z</time>
        <extensions>
          <ns3:TrackPointExtension>
            <ns3:atemp>31.0</ns3:atemp>
            <ns3:hr>75</ns3:hr>
          </ns3:TrackPointExtension>
        </extensions>
      </trkpt>
      <trkpt lat="36.84463427402079105377197265625" lon="-118.40919706039130687713623046875">
        <ele>3010.60009765625</ele>
        <time>2021-06-27T22:29:31.000Z</time>
        <extensions>
          <ns3:TrackPointExtension>
            <ns3:atemp>31.0</ns3:atemp>
            <ns3:hr>72</ns3:hr>
          </ns3:TrackPointExtension>
        </extensions>
      </trkpt>
      <trkpt lat="36.844643242657184600830078125" lon="-118.40919622220098972320556640625">
        <ele>3010.199951171875</ele>
        <time>2021-06-27T22:29:32.000Z</time>
        <extensions>
          <ns3:TrackPointExtension>
            <ns3:atemp>31.0</ns3:atemp>
            <ns3:hr>74</ns3:hr>
          </ns3:TrackPointExtension>
        </extensions>
      </trkpt>
      <trkpt lat="36.8446709029376506805419921875" lon="-118.40921290218830108642578125">
        <ele>3010</ele>
        <time>2021-06-27T22:29:36.000Z</time>
        <extensions>
          <ns3:TrackPointExtension>
            <ns3:atemp>31.0</ns3:atemp>
            <ns3:hr>73</ns3:hr>
          </ns3:TrackPointExtension>
        </extensions>
      </trkpt>
      <trkpt lat="36.844692863523960113525390625" lon="-118.40923695825040340423583984375">
        <ele>3010</ele>
        <time>2021-06-27T22:29:39.000Z</time>
        <extensions>
          <ns3:TrackPointExtension>
            <ns3:atemp>31.0</ns3:atemp>
            <ns3:hr>72</ns3:hr>
          </ns3:TrackPointExtension>
        </extensions>
      </trkpt>
      <trkpt lat="36.84471557848155498504638671875" lon="-118.409240730106830596923828125">
        <ele>3008.800048828125</ele>
        <time>2021-06-27T22:29:41.000Z</time>
        <extensions>
          <ns3:TrackPointExtension>
            <ns3:atemp>31.0</ns3:atemp>
            <ns3:hr>72</ns3:hr>
          </ns3:TrackPointExtension>
        </extensions>
      </trkpt>
      <trkpt lat="36.84479285962879657745361328125" lon="-118.409256823360919952392578125">
        <ele>3008.199951171875</ele>
        <time>2021-06-27T22:29:49.000Z</time>
        <extensions>
          <ns3:TrackPointExtension>
            <ns3:atemp>31.0</ns3:atemp>
            <ns3:hr>70</ns3:hr>
          </ns3:TrackPointExtension>
        </extensions>
      </trkpt>
      <trkpt lat="36.844848431646823883056640625" lon="-118.40928942896425724029541015625">
        <ele>3008.199951171875</ele>
        <time>2021-06-27T22:29:56.000Z</time>
        <extensions>
          <ns3:TrackPointExtension>
            <ns3:atemp>30.0</ns3:atemp>
            <ns3:hr>67</ns3:hr>
          </ns3:TrackPointExtension>
        </extensions>
      </trkpt>
      <trkpt lat="36.84486142359673976898193359375" lon="-118.40930082835257053375244140625">
        <ele>3007.800048828125</ele>
        <time>2021-06-27T22:29:58.000Z</time>
        <extensions>
          <ns3:TrackPointExtension>
            <ns3:atemp>30.0</ns3:atemp>
            <ns3:hr>69</ns3:hr>
          </ns3:TrackPointExtension>
        </extensions>
      </trkpt>
      <trkpt lat="36.8448750860989093780517578125" lon="-118.40932480059564113616943359375">
        <ele>3007.60009765625</ele>
        <time>2021-06-27T22:30:02.000Z</time>
        <extensions>
          <ns3:TrackPointExtension>
            <ns3:atemp>30.0</ns3:atemp>
            <ns3:hr>72</ns3:hr>
          </ns3:TrackPointExtension>
        </extensions>
      </trkpt>
      <trkpt lat="36.84488497674465179443359375" lon="-118.40934089384973049163818359375">
        <ele>3007.39990234375</ele>
        <time>2021-06-27T22:30:04.000Z</time>
        <extensions>
          <ns3:TrackPointExtension>
            <ns3:atemp>30.0</ns3:atemp>
            <ns3:hr>73</ns3:hr>
          </ns3:TrackPointExtension>
        </extensions>
      </trkpt>
      <trkpt lat="36.844907104969024658203125" lon="-118.409370481967926025390625">
        <ele>3007.39990234375</ele>
        <time>2021-06-27T22:30:08.000Z</time>
        <extensions>
          <ns3:TrackPointExtension>
            <ns3:atemp>30.0</ns3:atemp>
            <ns3:hr>76</ns3:hr>
          </ns3:TrackPointExtension>
        </extensions>
      </trkpt>
      <trkpt lat="36.84494289569556713104248046875" lon="-118.40938481502234935760498046875">
        <ele>3007.800048828125</ele>
        <time>2021-06-27T22:30:13.000Z</time>
        <extensions>
          <ns3:TrackPointExtension>
            <ns3:atemp>30.0</ns3:atemp>
            <ns3:hr>78</ns3:hr>
          </ns3:TrackPointExtension>
        </extensions>
      </trkpt>
      <trkpt lat="36.8449726514518260955810546875" lon="-118.4094309993088245391845703125">
        <ele>3008.199951171875</ele>
        <time>2021-06-27T22:30:19.000Z</time>
        <extensions>
          <ns3:TrackPointExtension>
            <ns3:atemp>30.0</ns3:atemp>
            <ns3:hr>79</ns3:hr>
          </ns3:TrackPointExtension>
        </extensions>
      </trkpt>
      <trkpt lat="36.84498195536434650421142578125" lon="-118.409460000693798065185546875">
        <ele>3008.199951171875</ele>
        <time>2021-06-27T22:30:22.000Z</time>
        <extensions>
          <ns3:TrackPointExtension>
            <ns3:atemp>30.0</ns3:atemp>
            <ns3:hr>80</ns3:hr>
          </ns3:TrackPointExtension>
        </extensions>
      </trkpt>
      <trkpt lat="36.84498162008821964263916015625" lon="-118.40946846641600131988525390625">
        <ele>3008.199951171875</ele>
        <time>2021-06-27T22:30:23.000Z</time>
        <extensions>
          <ns3:TrackPointExtension>
            <ns3:atemp>30.0</ns3:atemp>
            <ns3:hr>82</ns3:hr>
          </ns3:TrackPointExtension>
        </extensions>
      </trkpt>
      <trkpt lat="36.84501908719539642333984375" lon="-118.409531414508819580078125">
        <ele>3007.39990234375</ele>
        <time>2021-06-27T22:30:30.000Z</time>
        <extensions>
          <ns3:TrackPointExtension>
            <ns3:atemp>30.0</ns3:atemp>
            <ns3:hr>82</ns3:hr>
          </ns3:TrackPointExtension>
        </extensions>
      </trkpt>
      <trkpt lat="36.84502922929823398590087890625" lon="-118.40954549610614776611328125">
        <ele>3007.199951171875</ele>
        <time>2021-06-27T22:30:31.000Z</time>
        <extensions>
          <ns3:TrackPointExtension>
            <ns3:atemp>30.0</ns3:atemp>
            <ns3:hr>81</ns3:hr>
          </ns3:TrackPointExtension>
        </extensions>
      </trkpt>
      <trkpt lat="36.84504465200006961822509765625" lon="-118.40955664403736591339111328125">
        <ele>3007</ele>
        <time>2021-06-27T22:30:33.000Z</time>
        <extensions>
          <ns3:TrackPointExtension>
            <ns3:atemp>31.0</ns3:atemp>
            <ns3:hr>78</ns3:hr>
          </ns3:TrackPointExtension>
        </extensions>
      </trkpt>
      <trkpt lat="36.84508480131626129150390625" lon="-118.409576676785945892333984375">
        <ele>3006.39990234375</ele>
        <time>2021-06-27T22:30:37.000Z</time>
        <extensions>
          <ns3:TrackPointExtension>
            <ns3:atemp>31.0</ns3:atemp>
            <ns3:hr>77</ns3:hr>
          </ns3:TrackPointExtension>
        </extensions>
      </trkpt>
      <trkpt lat="36.845100559294223785400390625" lon="-118.40958438813686370849609375">
        <ele>3005.800048828125</ele>
        <time>2021-06-27T22:30:39.000Z</time>
        <extensions>
          <ns3:TrackPointExtension>
            <ns3:atemp>31.0</ns3:atemp>
            <ns3:hr>77</ns3:hr>
          </ns3:TrackPointExtension>
        </extensions>
      </trkpt>
      <trkpt lat="36.84512813575565814971923828125" lon="-118.40960307978093624114990234375">
        <ele>3005.39990234375</ele>
        <time>2021-06-27T22:30:42.000Z</time>
        <extensions>
          <ns3:TrackPointExtension>
            <ns3:atemp>31.0</ns3:atemp>
            <ns3:hr>78</ns3:hr>
          </ns3:TrackPointExtension>
        </extensions>
      </trkpt>
      <trkpt lat="36.8451751582324504852294921875" lon="-118.40963643975555896759033203125">
        <ele>3004.39990234375</ele>
        <time>2021-06-27T22:30:48.000Z</time>
        <extensions>
          <ns3:TrackPointExtension>
            <ns3:atemp>31.0</ns3:atemp>
            <ns3:hr>80</ns3:hr>
          </ns3:TrackPointExtension>
        </extensions>
      </trkpt>
      <trkpt lat="36.84518747963011264801025390625" lon="-118.40965010225772857666015625">
        <ele>3004.39990234375</ele>
        <time>2021-06-27T22:30:50.000Z</time>
        <extensions>
          <ns3:TrackPointExtension>
            <ns3:atemp>31.0</ns3:atemp>
            <ns3:hr>80</ns3:hr>
          </ns3:TrackPointExtension>
        </extensions>
      </trkpt>
      <trkpt lat="36.845218576490879058837890625" lon="-118.4096750803291797637939453125">
        <ele>3004.199951171875</ele>
        <time>2021-06-27T22:30:53.000Z</time>
        <extensions>
          <ns3:TrackPointExtension>
            <ns3:atemp>31.0</ns3:atemp>
            <ns3:hr>79</ns3:hr>
          </ns3:TrackPointExtension>
        </extensions>
      </trkpt>
      <trkpt lat="36.845247410237789154052734375" lon="-118.4096963703632354736328125">
        <ele>3004.199951171875</ele>
        <time>2021-06-27T22:30:56.000Z</time>
        <extensions>
          <ns3:TrackPointExtension>
            <ns3:atemp>31.0</ns3:atemp>
            <ns3:hr>79</ns3:hr>
          </ns3:TrackPointExtension>
        </extensions>
      </trkpt>
      <trkpt lat="36.845303066074848175048828125" lon="-118.40975680388510227203369140625">
        <ele>3003.800048828125</ele>
        <time>2021-06-27T22:31:02.000Z</time>
        <extensions>
          <ns3:TrackPointExtension>
            <ns3:atemp>31.0</ns3:atemp>
            <ns3:hr>82</ns3:hr>
          </ns3:TrackPointExtension>
        </extensions>
      </trkpt>
      <trkpt lat="36.845333240926265716552734375" lon="-118.40979351662099361419677734375">
        <ele>3003.800048828125</ele>
        <time>2021-06-27T22:31:06.000Z</time>
        <extensions>
          <ns3:TrackPointExtension>
            <ns3:atemp>31.0</ns3:atemp>
            <ns3:hr>83</ns3:hr>
          </ns3:TrackPointExtension>
        </extensions>
      </trkpt>
      <trkpt lat="36.84535964392125606536865234375" lon="-118.4098169021308422088623046875">
        <ele>3003.800048828125</ele>
        <time>2021-06-27T22:31:09.000Z</time>
        <extensions>
          <ns3:TrackPointExtension>
            <ns3:atemp>31.0</ns3:atemp>
            <ns3:hr>82</ns3:hr>
          </ns3:TrackPointExtension>
        </extensions>
      </trkpt>
      <trkpt lat="36.84539484791457653045654296875" lon="-118.40985436923801898956298828125">
        <ele>3003.199951171875</ele>
        <time>2021-06-27T22:31:13.000Z</time>
        <extensions>
          <ns3:TrackPointExtension>
            <ns3:atemp>31.0</ns3:atemp>
            <ns3:hr>82</ns3:hr>
          </ns3:TrackPointExtension>
        </extensions>
      </trkpt>
      <trkpt lat="36.84540960006415843963623046875" lon="-118.40986828319728374481201171875">
        <ele>3003.199951171875</ele>
        <time>2021-06-27T22:31:15.000Z</time>
        <extensions>
          <ns3:TrackPointExtension>
            <ns3:atemp>31.0</ns3:atemp>
            <ns3:hr>83</ns3:hr>
          </ns3:TrackPointExtension>
        </extensions>
      </trkpt>
      <trkpt lat="36.845447234809398651123046875" lon="-118.40991136617958545684814453125">
        <ele>3002.60009765625</ele>
        <time>2021-06-27T22:31:20.000Z</time>
        <extensions>
          <ns3:TrackPointExtension>
            <ns3:atemp>31.0</ns3:atemp>
            <ns3:hr>85</ns3:hr>
          </ns3:TrackPointExtension>
        </extensions>
      </trkpt>
      <trkpt lat="36.8454582989215850830078125" lon="-118.40992326848208904266357421875">
        <ele>3002</ele>
        <time>2021-06-27T22:31:22.000Z</time>
        <extensions>
          <ns3:TrackPointExtension>
            <ns3:atemp>31.0</ns3:atemp>
            <ns3:hr>86</ns3:hr>
          </ns3:TrackPointExtension>
        </extensions>
      </trkpt>
      <trkpt lat="36.8454805947840213775634765625" lon="-118.40996517799794673919677734375">
        <ele>3001.199951171875</ele>
        <time>2021-06-27T22:31:27.000Z</time>
        <extensions>
          <ns3:TrackPointExtension>
            <ns3:atemp>31.0</ns3:atemp>
            <ns3:hr>88</ns3:hr>
          </ns3:TrackPointExtension>
        </extensions>
      </trkpt>
      <trkpt lat="36.845510266721248626708984375" lon="-118.4100049920380115509033203125">
        <ele>3001.199951171875</ele>
        <time>2021-06-27T22:31:31.000Z</time>
        <extensions>
          <ns3:TrackPointExtension>
            <ns3:atemp>31.0</ns3:atemp>
            <ns3:hr>85</ns3:hr>
          </ns3:TrackPointExtension>
        </extensions>
      </trkpt>
      <trkpt lat="36.8455191515386104583740234375" lon="-118.4100140444934368133544921875">
        <ele>3000.800048828125</ele>
        <time>2021-06-27T22:31:32.000Z</time>
        <extensions>
          <ns3:TrackPointExtension>
            <ns3:atemp>31.0</ns3:atemp>
            <ns3:hr>86</ns3:hr>
          </ns3:TrackPointExtension>
        </extensions>
      </trkpt>
      <trkpt lat="36.84553666971623897552490234375" lon="-118.4100254438817501068115234375">
        <ele>3000.60009765625</ele>
        <time>2021-06-27T22:31:34.000Z</time>
        <extensions>
          <ns3:TrackPointExtension>
            <ns3:atemp>31.0</ns3:atemp>
            <ns3:hr>85</ns3:hr>
          </ns3:TrackPointExtension>
        </extensions>
      </trkpt>
      <trkpt lat="36.84559266082942485809326171875" lon="-118.410076238214969635009765625">
        <ele>3000.199951171875</ele>
        <time>2021-06-27T22:31:41.000Z</time>
        <extensions>
          <ns3:TrackPointExtension>
            <ns3:atemp>31.0</ns3:atemp>
            <ns3:hr>81</ns3:hr>
          </ns3:TrackPointExtension>
        </extensions>
      </trkpt>
      <trkpt lat="36.8456157110631465911865234375" lon="-118.410104401409626007080078125">
        <ele>2999.800048828125</ele>
        <time>2021-06-27T22:31:44.000Z</time>
        <extensions>
          <ns3:TrackPointExtension>
            <ns3:atemp>31.0</ns3:atemp>
            <ns3:hr>82</ns3:hr>
          </ns3:TrackPointExtension>
        </extensions>
      </trkpt>
      <trkpt lat="36.8456230871379375457763671875" lon="-118.41011521406471729278564453125">
        <ele>2999.60009765625</ele>
        <time>2021-06-27T22:31:45.000Z</time>
        <extensions>
          <ns3:TrackPointExtension>
            <ns3:atemp>31.0</ns3:atemp>
            <ns3:hr>81</ns3:hr>
          </ns3:TrackPointExtension>
        </extensions>
      </trkpt>
      <trkpt lat="36.84565502218902111053466796875" lon="-118.4101434610784053802490234375">
        <ele>2999.39990234375</ele>
        <time>2021-06-27T22:31:49.000Z</time>
        <extensions>
          <ns3:TrackPointExtension>
            <ns3:atemp>31.0</ns3:atemp>
            <ns3:hr>77</ns3:hr>
          </ns3:TrackPointExtension>
        </extensions>
      </trkpt>
      <trkpt lat="36.8456864543259143829345703125" lon="-118.41014237143099308013916015625">
        <ele>2998.800048828125</ele>
        <time>2021-06-27T22:31:52.000Z</time>
        <extensions>
          <ns3:TrackPointExtension>
            <ns3:atemp>31.0</ns3:atemp>
            <ns3:hr>75</ns3:hr>
          </ns3:TrackPointExtension>
        </extensions>
      </trkpt>
      <trkpt lat="36.84577236883342266082763671875" lon="-118.4101327322423458099365234375">
        <ele>2998.800048828125</ele>
        <time>2021-06-27T22:32:01.000Z</time>
        <extensions>
          <ns3:TrackPointExtension>
            <ns3:atemp>31.0</ns3:atemp>
            <ns3:hr>75</ns3:hr>
          </ns3:TrackPointExtension>
        </extensions>
      </trkpt>
      <trkpt lat="36.84579332359135150909423828125" lon="-118.4101360850036144256591796875">
        <ele>2998.800048828125</ele>
        <time>2021-06-27T22:32:03.000Z</time>
        <extensions>
          <ns3:TrackPointExtension>
            <ns3:atemp>31.0</ns3:atemp>
            <ns3:hr>76</ns3:hr>
          </ns3:TrackPointExtension>
        </extensions>
      </trkpt>
      <trkpt lat="36.845808662474155426025390625" lon="-118.410145975649356842041015625">
        <ele>2998.199951171875</ele>
        <time>2021-06-27T22:32:05.000Z</time>
        <extensions>
          <ns3:TrackPointExtension>
            <ns3:atemp>31.0</ns3:atemp>
            <ns3:hr>76</ns3:hr>
          </ns3:TrackPointExtension>
        </extensions>
      </trkpt>
      <trkpt lat="36.8458510749042034149169921875" lon="-118.41016449965536594390869140625">
        <ele>2997.800048828125</ele>
        <time>2021-06-27T22:32:09.000Z</time>
        <extensions>
          <ns3:TrackPointExtension>
            <ns3:atemp>31.0</ns3:atemp>
            <ns3:hr>75</ns3:hr>
          </ns3:TrackPointExtension>
        </extensions>
      </trkpt>
      <trkpt lat="36.84587865136563777923583984375" lon="-118.4102031402289867401123046875">
        <ele>2997.199951171875</ele>
        <time>2021-06-27T22:32:14.000Z</time>
        <extensions>
          <ns3:TrackPointExtension>
            <ns3:atemp>31.0</ns3:atemp>
            <ns3:hr>76</ns3:hr>
          </ns3:TrackPointExtension>
        </extensions>
      </trkpt>
      <trkpt lat="36.84589088894426822662353515625" lon="-118.41022887267172336578369140625">
        <ele>2996.800048828125</ele>
        <time>2021-06-27T22:32:17.000Z</time>
        <extensions>
          <ns3:TrackPointExtension>
            <ns3:atemp>31.0</ns3:atemp>
            <ns3:hr>76</ns3:hr>
          </ns3:TrackPointExtension>
        </extensions>
      </trkpt>
      <trkpt lat="36.84590019285678863525390625" lon="-118.41024513356387615203857421875">
        <ele>2996.199951171875</ele>
        <time>2021-06-27T22:32:19.000Z</time>
        <extensions>
          <ns3:TrackPointExtension>
            <ns3:atemp>31.0</ns3:atemp>
            <ns3:hr>76</ns3:hr>
          </ns3:TrackPointExtension>
        </extensions>
      </trkpt>
      <trkpt lat="36.84594755060970783233642578125" lon="-118.4103047288954257965087890625">
        <ele>2995.39990234375</ele>
        <time>2021-06-27T22:32:26.000Z</time>
        <extensions>
          <ns3:TrackPointExtension>
            <ns3:atemp>31.0</ns3:atemp>
            <ns3:hr>78</ns3:hr>
          </ns3:TrackPointExtension>
        </extensions>
      </trkpt>
      <trkpt lat="36.84595107100903987884521484375" lon="-118.4103198163211345672607421875">
        <ele>2994.800048828125</ele>
        <time>2021-06-27T22:32:28.000Z</time>
        <extensions>
          <ns3:TrackPointExtension>
            <ns3:atemp>31.0</ns3:atemp>
            <ns3:hr>76</ns3:hr>
          </ns3:TrackPointExtension>
        </extensions>
      </trkpt>
      <trkpt lat="36.84596632607281208038330078125" lon="-118.41035686433315277099609375">
        <ele>2994</ele>
        <time>2021-06-27T22:32:33.000Z</time>
        <extensions>
          <ns3:TrackPointExtension>
            <ns3:atemp>31.0</ns3:atemp>
            <ns3:hr>75</ns3:hr>
          </ns3:TrackPointExtension>
        </extensions>
      </trkpt>
      <trkpt lat="36.845968924462795257568359375" lon="-118.41036382131278514862060546875">
        <ele>2993.800048828125</ele>
        <time>2021-06-27T22:32:34.000Z</time>
        <extensions>
          <ns3:TrackPointExtension>
            <ns3:atemp>31.0</ns3:atemp>
            <ns3:hr>74</ns3:hr>
          </ns3:TrackPointExtension>
        </extensions>
      </trkpt>
      <trkpt lat="36.8459918908774852752685546875" lon="-118.41039097867906093597412109375">
        <ele>2993.199951171875</ele>
        <time>2021-06-27T22:32:37.000Z</time>
        <extensions>
          <ns3:TrackPointExtension>
            <ns3:atemp>31.0</ns3:atemp>
            <ns3:hr>75</ns3:hr>
          </ns3:TrackPointExtension>
        </extensions>
      </trkpt>
      <trkpt lat="36.84602634049952030181884765625" lon="-118.4104160405695438385009765625">
        <ele>2992.800048828125</ele>
        <time>2021-06-27T22:32:41.000Z</time>
        <extensions>
          <ns3:TrackPointExtension>
            <ns3:atemp>31.0</ns3:atemp>
            <ns3:hr>76</ns3:hr>
          </ns3:TrackPointExtension>
        </extensions>
      </trkpt>
      <trkpt lat="36.84603564441204071044921875" lon="-118.410427607595920562744140625">
        <ele>2992.800048828125</ele>
        <time>2021-06-27T22:32:42.000Z</time>
        <extensions>
          <ns3:TrackPointExtension>
            <ns3:atemp>31.0</ns3:atemp>
            <ns3:hr>77</ns3:hr>
          </ns3:TrackPointExtension>
        </extensions>
      </trkpt>
      <trkpt lat="36.84608258306980133056640625" lon="-118.4104911424219608306884765625">
        <ele>2992.199951171875</ele>
        <time>2021-06-27T22:32:48.000Z</time>
        <extensions>
          <ns3:TrackPointExtension>
            <ns3:atemp>31.0</ns3:atemp>
            <ns3:hr>77</ns3:hr>
          </ns3:TrackPointExtension>
        </extensions>
      </trkpt>
      <trkpt lat="36.84609272517263889312744140625" lon="-118.41050916351377964019775390625">
        <ele>2991.800048828125</ele>
        <time>2021-06-27T22:32:50.000Z</time>
        <extensions>
          <ns3:TrackPointExtension>
            <ns3:atemp>31.0</ns3:atemp>
            <ns3:hr>77</ns3:hr>
          </ns3:TrackPointExtension>
        </extensions>
      </trkpt>
      <trkpt lat="36.84609540738165378570556640625" lon="-118.41051536612212657928466796875">
        <ele>2991.199951171875</ele>
        <time>2021-06-27T22:32:51.000Z</time>
        <extensions>
          <ns3:TrackPointExtension>
            <ns3:atemp>31.0</ns3:atemp>
            <ns3:hr>77</ns3:hr>
          </ns3:TrackPointExtension>
        </extensions>
      </trkpt>
      <trkpt lat="36.8460897915065288543701171875" lon="-118.41054235585033893585205078125">
        <ele>2991.199951171875</ele>
        <time>2021-06-27T22:32:54.000Z</time>
        <extensions>
          <ns3:TrackPointExtension>
            <ns3:atemp>31.0</ns3:atemp>
            <ns3:hr>77</ns3:hr>
          </ns3:TrackPointExtension>
        </extensions>
      </trkpt>
      <trkpt lat="36.846060454845428466796875" lon="-118.41061108745634555816650390625">
        <ele>2990.60009765625</ele>
        <time>2021-06-27T22:33:00.000Z</time>
        <extensions>
          <ns3:TrackPointExtension>
            <ns3:atemp>31.0</ns3:atemp>
            <ns3:hr>74</ns3:hr>
          </ns3:TrackPointExtension>
        </extensions>
      </trkpt>
      <trkpt lat="36.846061460673809051513671875" lon="-118.4106338024139404296875">
        <ele>2990.199951171875</ele>
        <time>2021-06-27T22:33:02.000Z</time>
        <extensions>
          <ns3:TrackPointExtension>
            <ns3:atemp>31.0</ns3:atemp>
            <ns3:hr>74</ns3:hr>
          </ns3:TrackPointExtension>
        </extensions>
      </trkpt>
      <trkpt lat="36.84606573544442653656005859375" lon="-118.4106430225074291229248046875">
        <ele>2990.199951171875</ele>
        <time>2021-06-27T22:33:03.000Z</time>
        <extensions>
          <ns3:TrackPointExtension>
            <ns3:atemp>31.0</ns3:atemp>
            <ns3:hr>73</ns3:hr>
          </ns3:TrackPointExtension>
        </extensions>
      </trkpt>
      <trkpt lat="36.84607478789985179901123046875" lon="-118.4106767177581787109375">
        <ele>2990</ele>
        <time>2021-06-27T22:33:06.000Z</time>
        <extensions>
          <ns3:TrackPointExtension>
            <ns3:atemp>31.0</ns3:atemp>
            <ns3:hr>70</ns3:hr>
          </ns3:TrackPointExtension>
        </extensions>
      </trkpt>
      <trkpt lat="36.8460777215659618377685546875" lon="-118.41068970970809459686279296875">
        <ele>2989.800048828125</ele>
        <time>2021-06-27T22:33:07.000Z</time>
        <extensions>
          <ns3:TrackPointExtension>
            <ns3:atemp>31.0</ns3:atemp>
            <ns3:hr>73</ns3:hr>
          </ns3:TrackPointExtension>
        </extensions>
      </trkpt>
      <trkpt lat="36.846081577241420745849609375" lon="-118.410698510706424713134765625">
        <ele>2989.60009765625</ele>
        <time>2021-06-27T22:33:08.000Z</time>
        <extensions>
          <ns3:TrackPointExtension>
            <ns3:atemp>31.0</ns3:atemp>
            <ns3:hr>72</ns3:hr>
          </ns3:TrackPointExtension>
        </extensions>
      </trkpt>
      <trkpt lat="36.84608903713524341583251953125" lon="-118.41070781461894512176513671875">
        <ele>2989.39990234375</ele>
        <time>2021-06-27T22:33:09.000Z</time>
        <extensions>
          <ns3:TrackPointExtension>
            <ns3:atemp>31.0</ns3:atemp>
            <ns3:hr>73</ns3:hr>
          </ns3:TrackPointExtension>
        </extensions>
      </trkpt>
      <trkpt lat="36.84611401520669460296630859375" lon="-118.41075089760124683380126953125">
        <ele>2988.39990234375</ele>
        <time>2021-06-27T22:33:13.000Z</time>
        <extensions>
          <ns3:TrackPointExtension>
            <ns3:atemp>31.0</ns3:atemp>
            <ns3:hr>74</ns3:hr>
          </ns3:TrackPointExtension>
        </extensions>
      </trkpt>
      <trkpt lat="36.84613027609884738922119140625" lon="-118.4107653982937335968017578125">
        <ele>2988.39990234375</ele>
        <time>2021-06-27T22:33:15.000Z</time>
        <extensions>
          <ns3:TrackPointExtension>
            <ns3:atemp>31.0</ns3:atemp>
            <ns3:hr>74</ns3:hr>
          </ns3:TrackPointExtension>
        </extensions>
      </trkpt>
      <trkpt lat="36.84616346843540668487548828125" lon="-118.4107707627117633819580078125">
        <ele>2987.800048828125</ele>
        <time>2021-06-27T22:33:19.000Z</time>
        <extensions>
          <ns3:TrackPointExtension>
            <ns3:atemp>31.0</ns3:atemp>
            <ns3:hr>77</ns3:hr>
          </ns3:TrackPointExtension>
        </extensions>
      </trkpt>
      <trkpt lat="36.84616313315927982330322265625" lon="-118.4107751213014125823974609375">
        <ele>2987.199951171875</ele>
        <time>2021-06-27T22:33:20.000Z</time>
        <extensions>
          <ns3:TrackPointExtension>
            <ns3:atemp>31.0</ns3:atemp>
            <ns3:hr>78</ns3:hr>
          </ns3:TrackPointExtension>
        </extensions>
      </trkpt>
      <trkpt lat="36.8462041206657886505126953125" lon="-118.41080253012478351593017578125">
        <ele>2986.60009765625</ele>
        <time>2021-06-27T22:33:23.000Z</time>
        <extensions>
          <ns3:TrackPointExtension>
            <ns3:atemp>31.0</ns3:atemp>
            <ns3:hr>80</ns3:hr>
          </ns3:TrackPointExtension>
        </extensions>
      </trkpt>
      <trkpt lat="36.84622616507112979888916015625" lon="-118.4108089841902256011962890625">
        <ele>2986.60009765625</ele>
        <time>2021-06-27T22:33:25.000Z</time>
        <extensions>
          <ns3:TrackPointExtension>
            <ns3:atemp>31.0</ns3:atemp>
            <ns3:hr>78</ns3:hr>
          </ns3:TrackPointExtension>
        </extensions>
      </trkpt>
      <trkpt lat="36.84625566937029361724853515625" lon="-118.41081820428371429443359375">
        <ele>2986.199951171875</ele>
        <time>2021-06-27T22:33:29.000Z</time>
        <extensions>
          <ns3:TrackPointExtension>
            <ns3:atemp>31.0</ns3:atemp>
            <ns3:hr>78</ns3:hr>
          </ns3:TrackPointExtension>
        </extensions>
      </trkpt>
      <trkpt lat="36.8462658114731311798095703125" lon="-118.41081728227436542510986328125">
        <ele>2986</ele>
        <time>2021-06-27T22:33:30.000Z</time>
        <extensions>
          <ns3:TrackPointExtension>
            <ns3:atemp>31.0</ns3:atemp>
            <ns3:hr>78</ns3:hr>
          </ns3:TrackPointExtension>
        </extensions>
      </trkpt>
      <trkpt lat="36.84628450311720371246337890625" lon="-118.4108187071979045867919921875">
        <ele>2986</ele>
        <time>2021-06-27T22:33:32.000Z</time>
        <extensions>
          <ns3:TrackPointExtension>
            <ns3:atemp>31.0</ns3:atemp>
            <ns3:hr>79</ns3:hr>
          </ns3:TrackPointExtension>
        </extensions>
      </trkpt>
      <trkpt lat="36.84630227275192737579345703125" lon="-118.4108220599591732025146484375">
        <ele>2985</ele>
        <time>2021-06-27T22:33:34.000Z</time>
        <extensions>
          <ns3:TrackPointExtension>
            <ns3:atemp>32.0</ns3:atemp>
            <ns3:hr>81</ns3:hr>
          </ns3:TrackPointExtension>
        </extensions>
      </trkpt>
      <trkpt lat="36.84634099714457988739013671875" lon="-118.410823233425617218017578125">
        <ele>2984</ele>
        <time>2021-06-27T22:33:39.000Z</time>
        <extensions>
          <ns3:TrackPointExtension>
            <ns3:atemp>31.0</ns3:atemp>
            <ns3:hr>84</ns3:hr>
          </ns3:TrackPointExtension>
        </extensions>
      </trkpt>
      <trkpt lat="36.84635080397129058837890625" lon="-118.41082356870174407958984375">
        <ele>2984</ele>
        <time>2021-06-27T22:33:40.000Z</time>
        <extensions>
          <ns3:TrackPointExtension>
            <ns3:atemp>32.0</ns3:atemp>
            <ns3:hr>82</ns3:hr>
          </ns3:TrackPointExtension>
        </extensions>
      </trkpt>
      <trkpt lat="36.84637318365275859832763671875" lon="-118.410823903977870941162109375">
        <ele>2983</ele>
        <time>2021-06-27T22:33:43.000Z</time>
        <extensions>
          <ns3:TrackPointExtension>
            <ns3:atemp>32.0</ns3:atemp>
            <ns3:hr>84</ns3:hr>
          </ns3:TrackPointExtension>
        </extensions>
      </trkpt>
      <trkpt lat="36.84640905819833278656005859375" lon="-118.41083153150975704193115234375">
        <ele>2982.39990234375</ele>
        <time>2021-06-27T22:33:48.000Z</time>
        <extensions>
          <ns3:TrackPointExtension>
            <ns3:atemp>32.0</ns3:atemp>
            <ns3:hr>82</ns3:hr>
          </ns3:TrackPointExtension>
        </extensions>
      </trkpt>
      <trkpt lat="36.84642791748046875" lon="-118.4108389914035797119140625">
        <ele>2981.800048828125</ele>
        <time>2021-06-27T22:33:50.000Z</time>
        <extensions>
          <ns3:TrackPointExtension>
            <ns3:atemp>32.0</ns3:atemp>
            <ns3:hr>79</ns3:hr>
          </ns3:TrackPointExtension>
        </extensions>
      </trkpt>
      <trkpt lat="36.8464642949402332305908203125" lon="-118.41085382737219333648681640625">
        <ele>2981.199951171875</ele>
        <time>2021-06-27T22:33:54.000Z</time>
        <extensions>
          <ns3:TrackPointExtension>
            <ns3:atemp>32.0</ns3:atemp>
            <ns3:hr>76</ns3:hr>
          </ns3:TrackPointExtension>
        </extensions>
      </trkpt>
      <trkpt lat="36.84647376649081707000732421875" lon="-118.41086153872311115264892578125">
        <ele>2981.199951171875</ele>
        <time>2021-06-27T22:33:55.000Z</time>
        <extensions>
          <ns3:TrackPointExtension>
            <ns3:atemp>32.0</ns3:atemp>
            <ns3:hr>77</ns3:hr>
          </ns3:TrackPointExtension>
        </extensions>
      </trkpt>
      <trkpt lat="36.846520118415355682373046875" lon="-118.41088249348104000091552734375">
        <ele>2980.60009765625</ele>
        <time>2021-06-27T22:34:00.000Z</time>
        <extensions>
          <ns3:TrackPointExtension>
            <ns3:atemp>32.0</ns3:atemp>
            <ns3:hr>76</ns3:hr>
          </ns3:TrackPointExtension>
        </extensions>
      </trkpt>
      <trkpt lat="36.846532523632049560546875" lon="-118.410880230367183685302734375">
        <ele>2980.60009765625</ele>
        <time>2021-06-27T22:34:01.000Z</time>
        <extensions>
          <ns3:TrackPointExtension>
            <ns3:atemp>32.0</ns3:atemp>
            <ns3:hr>75</ns3:hr>
          </ns3:TrackPointExtension>
        </extensions>
      </trkpt>
      <trkpt lat="36.84654660522937774658203125" lon="-118.410874865949153900146484375">
        <ele>2980.60009765625</ele>
        <time>2021-06-27T22:34:03.000Z</time>
        <extensions>
          <ns3:TrackPointExtension>
            <ns3:atemp>32.0</ns3:atemp>
            <ns3:hr>76</ns3:hr>
          </ns3:TrackPointExtension>
        </extensions>
      </trkpt>
      <trkpt lat="36.84655607677996158599853515625" lon="-118.410870172083377838134765625">
        <ele>2980.199951171875</ele>
        <time>2021-06-27T22:34:04.000Z</time>
        <extensions>
          <ns3:TrackPointExtension>
            <ns3:atemp>32.0</ns3:atemp>
            <ns3:hr>76</ns3:hr>
          </ns3:TrackPointExtension>
        </extensions>
      </trkpt>
      <trkpt lat="36.84656764380633831024169921875" lon="-118.41086380183696746826171875">
        <ele>2980.199951171875</ele>
        <time>2021-06-27T22:34:05.000Z</time>
        <extensions>
          <ns3:TrackPointExtension>
            <ns3:atemp>32.0</ns3:atemp>
            <ns3:hr>73</ns3:hr>
          </ns3:TrackPointExtension>
        </extensions>
      </trkpt>
      <trkpt lat="36.8465853296220302581787109375" lon="-118.410851396620273590087890625">
        <ele>2979.800048828125</ele>
        <time>2021-06-27T22:34:07.000Z</time>
        <extensions>
          <ns3:TrackPointExtension>
            <ns3:atemp>32.0</ns3:atemp>
            <ns3:hr>76</ns3:hr>
          </ns3:TrackPointExtension>
        </extensions>
      </trkpt>
      <trkpt lat="36.84659178368747234344482421875" lon="-118.41084544546902179718017578125">
        <ele>2979.800048828125</ele>
        <time>2021-06-27T22:34:08.000Z</time>
        <extensions>
          <ns3:TrackPointExtension>
            <ns3:atemp>32.0</ns3:atemp>
            <ns3:hr>73</ns3:hr>
          </ns3:TrackPointExtension>
        </extensions>
      </trkpt>
      <trkpt lat="36.84659614227712154388427734375" lon="-118.41084477491676807403564453125">
        <ele>2979.800048828125</ele>
        <time>2021-06-27T22:34:09.000Z</time>
        <extensions>
          <ns3:TrackPointExtension>
            <ns3:atemp>32.0</ns3:atemp>
            <ns3:hr>75</ns3:hr>
          </ns3:TrackPointExtension>
        </extensions>
      </trkpt>
      <trkpt lat="36.8466143310070037841796875" lon="-118.4108401648700237274169921875">
        <ele>2979.800048828125</ele>
        <time>2021-06-27T22:34:11.000Z</time>
        <extensions>
          <ns3:TrackPointExtension>
            <ns3:atemp>32.0</ns3:atemp>
            <ns3:hr>73</ns3:hr>
          </ns3:TrackPointExtension>
        </extensions>
      </trkpt>
      <trkpt lat="36.84662313200533390045166015625" lon="-118.410839997231960296630859375">
        <ele>2979.60009765625</ele>
        <time>2021-06-27T22:34:12.000Z</time>
        <extensions>
          <ns3:TrackPointExtension>
            <ns3:atemp>32.0</ns3:atemp>
            <ns3:hr>74</ns3:hr>
          </ns3:TrackPointExtension>
        </extensions>
      </trkpt>
      <trkpt lat="36.8466611020267009735107421875" lon="-118.41083521954715251922607421875">
        <ele>2978.60009765625</ele>
        <time>2021-06-27T22:34:17.000Z</time>
        <extensions>
          <ns3:TrackPointExtension>
            <ns3:atemp>32.0</ns3:atemp>
            <ns3:hr>73</ns3:hr>
          </ns3:TrackPointExtension>
        </extensions>
      </trkpt>
      <trkpt lat="36.846668310463428497314453125" lon="-118.41083505190908908843994140625">
        <ele>2978.39990234375</ele>
        <time>2021-06-27T22:34:18.000Z</time>
        <extensions>
          <ns3:TrackPointExtension>
            <ns3:atemp>32.0</ns3:atemp>
            <ns3:hr>73</ns3:hr>
          </ns3:TrackPointExtension>
        </extensions>
      </trkpt>
      <trkpt lat="36.8466792069375514984130859375" lon="-118.410837650299072265625">
        <ele>2978.199951171875</ele>
        <time>2021-06-27T22:34:19.000Z</time>
        <extensions>
          <ns3:TrackPointExtension>
            <ns3:atemp>32.0</ns3:atemp>
            <ns3:hr>75</ns3:hr>
          </ns3:TrackPointExtension>
        </extensions>
      </trkpt>
      <trkpt lat="36.8467234633862972259521484375" lon="-118.410858102142810821533203125">
        <ele>2977.800048828125</ele>
        <time>2021-06-27T22:34:24.000Z</time>
        <extensions>
          <ns3:TrackPointExtension>
            <ns3:atemp>32.0</ns3:atemp>
            <ns3:hr>77</ns3:hr>
          </ns3:TrackPointExtension>
        </extensions>
      </trkpt>
      <trkpt lat="36.846744753420352935791015625" lon="-118.4108579345047473907470703125">
        <ele>2977.39990234375</ele>
        <time>2021-06-27T22:34:26.000Z</time>
        <extensions>
          <ns3:TrackPointExtension>
            <ns3:atemp>32.0</ns3:atemp>
            <ns3:hr>78</ns3:hr>
          </ns3:TrackPointExtension>
        </extensions>
      </trkpt>
      <trkpt lat="36.8468092940747737884521484375" lon="-118.41084343381226062774658203125">
        <ele>2976.60009765625</ele>
        <time>2021-06-27T22:34:33.000Z</time>
        <extensions>
          <ns3:TrackPointExtension>
            <ns3:atemp>32.0</ns3:atemp>
            <ns3:hr>77</ns3:hr>
          </ns3:TrackPointExtension>
        </extensions>
      </trkpt>
      <trkpt lat="36.8468354456126689910888671875" lon="-118.41083756648004055023193359375">
        <ele>2976.199951171875</ele>
        <time>2021-06-27T22:34:36.000Z</time>
        <extensions>
          <ns3:TrackPointExtension>
            <ns3:atemp>32.0</ns3:atemp>
            <ns3:hr>77</ns3:hr>
          </ns3:TrackPointExtension>
        </extensions>
      </trkpt>
      <trkpt lat="36.84686687774956226348876953125" lon="-118.4108274243772029876708984375">
        <ele>2976</ele>
        <time>2021-06-27T22:34:39.000Z</time>
        <extensions>
          <ns3:TrackPointExtension>
            <ns3:atemp>32.0</ns3:atemp>
            <ns3:hr>78</ns3:hr>
          </ns3:TrackPointExtension>
        </extensions>
      </trkpt>
      <trkpt lat="36.8468964658677577972412109375" lon="-118.4108150191605091094970703125">
        <ele>2975.60009765625</ele>
        <time>2021-06-27T22:34:42.000Z</time>
        <extensions>
          <ns3:TrackPointExtension>
            <ns3:atemp>32.0</ns3:atemp>
            <ns3:hr>79</ns3:hr>
          </ns3:TrackPointExtension>
        </extensions>
      </trkpt>
      <trkpt lat="36.84691540896892547607421875" lon="-118.4108173660933971405029296875">
        <ele>2975.60009765625</ele>
        <time>2021-06-27T22:34:44.000Z</time>
        <extensions>
          <ns3:TrackPointExtension>
            <ns3:atemp>32.0</ns3:atemp>
            <ns3:hr>82</ns3:hr>
          </ns3:TrackPointExtension>
        </extensions>
      </trkpt>
      <trkpt lat="36.84696528129279613494873046875" lon="-118.41083454899489879608154296875">
        <ele>2975.39990234375</ele>
        <time>2021-06-27T22:34:49.000Z</time>
        <extensions>
          <ns3:TrackPointExtension>
            <ns3:atemp>32.0</ns3:atemp>
            <ns3:hr>85</ns3:hr>
          </ns3:TrackPointExtension>
        </extensions>
      </trkpt>
      <trkpt lat="36.84698690660297870635986328125" lon="-118.410838656127452850341796875">
        <ele>2975.199951171875</ele>
        <time>2021-06-27T22:34:51.000Z</time>
        <extensions>
          <ns3:TrackPointExtension>
            <ns3:atemp>32.0</ns3:atemp>
            <ns3:hr>87</ns3:hr>
          </ns3:TrackPointExtension>
        </extensions>
      </trkpt>
      <trkpt lat="36.84700149111449718475341796875" lon="-118.4108445234596729278564453125">
        <ele>2975.199951171875</ele>
        <time>2021-06-27T22:34:53.000Z</time>
        <extensions>
          <ns3:TrackPointExtension>
            <ns3:atemp>32.0</ns3:atemp>
            <ns3:hr>90</ns3:hr>
          </ns3:TrackPointExtension>
        </extensions>
      </trkpt>
      <trkpt lat="36.84702881611883640289306640625" lon="-118.41086086817085742950439453125">
        <ele>2974.39990234375</ele>
        <time>2021-06-27T22:34:56.000Z</time>
        <extensions>
          <ns3:TrackPointExtension>
            <ns3:atemp>32.0</ns3:atemp>
            <ns3:hr>87</ns3:hr>
          </ns3:TrackPointExtension>
        </extensions>
      </trkpt>
      <trkpt lat="36.8470372818410396575927734375" lon="-118.4108676575124263763427734375">
        <ele>2974.39990234375</ele>
        <time>2021-06-27T22:34:57.000Z</time>
        <extensions>
          <ns3:TrackPointExtension>
            <ns3:atemp>32.0</ns3:atemp>
            <ns3:hr>88</ns3:hr>
          </ns3:TrackPointExtension>
        </extensions>
      </trkpt>
      <trkpt lat="36.8470488488674163818359375" lon="-118.41087444685399532318115234375">
        <ele>2974</ele>
        <time>2021-06-27T22:34:58.000Z</time>
        <extensions>
          <ns3:TrackPointExtension>
            <ns3:atemp>32.0</ns3:atemp>
            <ns3:hr>87</ns3:hr>
          </ns3:TrackPointExtension>
        </extensions>
      </trkpt>
      <trkpt lat="36.84705714695155620574951171875" lon="-118.410879559814929962158203125">
        <ele>2973.800048828125</ele>
        <time>2021-06-27T22:34:59.000Z</time>
        <extensions>
          <ns3:TrackPointExtension>
            <ns3:atemp>32.0</ns3:atemp>
            <ns3:hr>86</ns3:hr>
          </ns3:TrackPointExtension>
        </extensions>
      </trkpt>
      <trkpt lat="36.8471373617649078369140625" lon="-118.4108904562890529632568359375">
        <ele>2973</ele>
        <time>2021-06-27T22:35:07.000Z</time>
        <extensions>
          <ns3:TrackPointExtension>
            <ns3:atemp>32.0</ns3:atemp>
            <ns3:hr>85</ns3:hr>
          </ns3:TrackPointExtension>
        </extensions>
      </trkpt>
      <trkpt lat="36.8471442349255084991455078125" lon="-118.410900346934795379638671875">
        <ele>2973</ele>
        <time>2021-06-27T22:35:09.000Z</time>
        <extensions>
          <ns3:TrackPointExtension>
            <ns3:atemp>32.0</ns3:atemp>
            <ns3:hr>85</ns3:hr>
          </ns3:TrackPointExtension>
        </extensions>
      </trkpt>
      <trkpt lat="36.8471507728099822998046875" lon="-118.410910405218601226806640625">
        <ele>2972.800048828125</ele>
        <time>2021-06-27T22:35:10.000Z</time>
        <extensions>
          <ns3:TrackPointExtension>
            <ns3:atemp>32.0</ns3:atemp>
            <ns3:hr>85</ns3:hr>
          </ns3:TrackPointExtension>
        </extensions>
      </trkpt>
      <trkpt lat="36.847157143056392669677734375" lon="-118.41092138551175594329833984375">
        <ele>2972.800048828125</ele>
        <time>2021-06-27T22:35:11.000Z</time>
        <extensions>
          <ns3:TrackPointExtension>
            <ns3:atemp>32.0</ns3:atemp>
            <ns3:hr>84</ns3:hr>
          </ns3:TrackPointExtension>
        </extensions>
      </trkpt>
      <trkpt lat="36.84716326184570789337158203125" lon="-118.41094133444130420684814453125">
        <ele>2972.800048828125</ele>
        <time>2021-06-27T22:35:13.000Z</time>
        <extensions>
          <ns3:TrackPointExtension>
            <ns3:atemp>32.0</ns3:atemp>
            <ns3:hr>85</ns3:hr>
          </ns3:TrackPointExtension>
        </extensions>
      </trkpt>
      <trkpt lat="36.84719192795455455780029296875" lon="-118.410988859832286834716796875">
        <ele>2972.800048828125</ele>
        <time>2021-06-27T22:35:17.000Z</time>
        <extensions>
          <ns3:TrackPointExtension>
            <ns3:atemp>32.0</ns3:atemp>
            <ns3:hr>82</ns3:hr>
          </ns3:TrackPointExtension>
        </extensions>
      </trkpt>
      <trkpt lat="36.84720735065639019012451171875" lon="-118.41101668775081634521484375">
        <ele>2973</ele>
        <time>2021-06-27T22:35:20.000Z</time>
        <extensions>
          <ns3:TrackPointExtension>
            <ns3:atemp>32.0</ns3:atemp>
            <ns3:hr>80</ns3:hr>
          </ns3:TrackPointExtension>
        </extensions>
      </trkpt>
      <trkpt lat="36.84721288271248340606689453125" lon="-118.41102548874914646148681640625">
        <ele>2972.800048828125</ele>
        <time>2021-06-27T22:35:21.000Z</time>
        <extensions>
          <ns3:TrackPointExtension>
            <ns3:atemp>32.0</ns3:atemp>
            <ns3:hr>80</ns3:hr>
          </ns3:TrackPointExtension>
        </extensions>
      </trkpt>
      <trkpt lat="36.84724087826907634735107421875" lon="-118.41107293032109737396240234375">
        <ele>2972.60009765625</ele>
        <time>2021-06-27T22:35:26.000Z</time>
        <extensions>
          <ns3:TrackPointExtension>
            <ns3:atemp>32.0</ns3:atemp>
            <ns3:hr>80</ns3:hr>
          </ns3:TrackPointExtension>
        </extensions>
      </trkpt>
      <trkpt lat="36.8472505174577236175537109375" lon="-118.41108382679522037506103515625">
        <ele>2972.39990234375</ele>
        <time>2021-06-27T22:35:27.000Z</time>
        <extensions>
          <ns3:TrackPointExtension>
            <ns3:atemp>32.0</ns3:atemp>
            <ns3:hr>81</ns3:hr>
          </ns3:TrackPointExtension>
        </extensions>
      </trkpt>
      <trkpt lat="36.84727960266172885894775390625" lon="-118.41110712848603725433349609375">
        <ele>2971.800048828125</ele>
        <time>2021-06-27T22:35:30.000Z</time>
        <extensions>
          <ns3:TrackPointExtension>
            <ns3:atemp>32.0</ns3:atemp>
            <ns3:hr>82</ns3:hr>
          </ns3:TrackPointExtension>
        </extensions>
      </trkpt>
      <trkpt lat="36.84729091823101043701171875" lon="-118.41111668385565280914306640625">
        <ele>2971.60009765625</ele>
        <time>2021-06-27T22:35:32.000Z</time>
        <extensions>
          <ns3:TrackPointExtension>
            <ns3:atemp>32.0</ns3:atemp>
            <ns3:hr>81</ns3:hr>
          </ns3:TrackPointExtension>
        </extensions>
      </trkpt>
      <trkpt lat="36.84733458794653415679931640625" lon="-118.41116932220757007598876953125">
        <ele>2970.800048828125</ele>
        <time>2021-06-27T22:35:38.000Z</time>
        <extensions>
          <ns3:TrackPointExtension>
            <ns3:atemp>32.0</ns3:atemp>
            <ns3:hr>84</ns3:hr>
          </ns3:TrackPointExtension>
        </extensions>
      </trkpt>
      <trkpt lat="36.8473521061241626739501953125" lon="-118.4111796319484710693359375">
        <ele>2970.800048828125</ele>
        <time>2021-06-27T22:35:40.000Z</time>
        <extensions>
          <ns3:TrackPointExtension>
            <ns3:atemp>32.0</ns3:atemp>
            <ns3:hr>84</ns3:hr>
          </ns3:TrackPointExtension>
        </extensions>
      </trkpt>
      <trkpt lat="36.84735931456089019775390625" lon="-118.41118700802326202392578125">
        <ele>2970.39990234375</ele>
        <time>2021-06-27T22:35:41.000Z</time>
        <extensions>
          <ns3:TrackPointExtension>
            <ns3:atemp>32.0</ns3:atemp>
            <ns3:hr>84</ns3:hr>
          </ns3:TrackPointExtension>
        </extensions>
      </trkpt>
      <trkpt lat="36.84739192016422748565673828125" lon="-118.41122715733945369720458984375">
        <ele>2969.800048828125</ele>
        <time>2021-06-27T22:35:46.000Z</time>
        <extensions>
          <ns3:TrackPointExtension>
            <ns3:atemp>32.0</ns3:atemp>
            <ns3:hr>87</ns3:hr>
          </ns3:TrackPointExtension>
        </extensions>
      </trkpt>
      <trkpt lat="36.84742393903434276580810546875" lon="-118.41124744154512882232666015625">
        <ele>2969.60009765625</ele>
        <time>2021-06-27T22:35:49.000Z</time>
        <extensions>
          <ns3:TrackPointExtension>
            <ns3:atemp>32.0</ns3:atemp>
            <ns3:hr>88</ns3:hr>
          </ns3:TrackPointExtension>
        </extensions>
      </trkpt>
      <trkpt lat="36.84746903367340564727783203125" lon="-118.41127795167267322540283203125">
        <ele>2969.199951171875</ele>
        <time>2021-06-27T22:35:54.000Z</time>
        <extensions>
          <ns3:TrackPointExtension>
            <ns3:atemp>32.0</ns3:atemp>
            <ns3:hr>87</ns3:hr>
          </ns3:TrackPointExtension>
        </extensions>
      </trkpt>
      <trkpt lat="36.84749719686806201934814453125" lon="-118.41130024753510951995849609375">
        <ele>2969</ele>
        <time>2021-06-27T22:35:57.000Z</time>
        <extensions>
          <ns3:TrackPointExtension>
            <ns3:atemp>32.0</ns3:atemp>
            <ns3:hr>87</ns3:hr>
          </ns3:TrackPointExtension>
        </extensions>
      </trkpt>
      <trkpt lat="36.84750708751380443572998046875" lon="-118.4113420732319355010986328125">
        <ele>2968.800048828125</ele>
        <time>2021-06-27T22:36:01.000Z</time>
        <extensions>
          <ns3:TrackPointExtension>
            <ns3:atemp>32.0</ns3:atemp>
            <ns3:hr>88</ns3:hr>
          </ns3:TrackPointExtension>
        </extensions>
      </trkpt>
      <trkpt lat="36.847497113049030303955078125" lon="-118.41137434355914592742919921875">
        <ele>2968.800048828125</ele>
        <time>2021-06-27T22:36:04.000Z</time>
        <extensions>
          <ns3:TrackPointExtension>
            <ns3:atemp>32.0</ns3:atemp>
            <ns3:hr>88</ns3:hr>
          </ns3:TrackPointExtension>
        </extensions>
      </trkpt>
      <trkpt lat="36.8475100211799144744873046875" lon="-118.41142748482525348663330078125">
        <ele>2968.60009765625</ele>
        <time>2021-06-27T22:36:08.000Z</time>
        <extensions>
          <ns3:TrackPointExtension>
            <ns3:atemp>32.0</ns3:atemp>
            <ns3:hr>91</ns3:hr>
          </ns3:TrackPointExtension>
        </extensions>
      </trkpt>
      <trkpt lat="36.84752167202532291412353515625" lon="-118.4114550612866878509521484375">
        <ele>2968.39990234375</ele>
        <time>2021-06-27T22:36:10.000Z</time>
        <extensions>
          <ns3:TrackPointExtension>
            <ns3:atemp>32.0</ns3:atemp>
            <ns3:hr>91</ns3:hr>
          </ns3:TrackPointExtension>
        </extensions>
      </trkpt>
      <trkpt lat="36.8475589714944362640380859375" lon="-118.4114916063845157623291015625">
        <ele>2968.199951171875</ele>
        <time>2021-06-27T22:36:14.000Z</time>
        <extensions>
          <ns3:TrackPointExtension>
            <ns3:atemp>32.0</ns3:atemp>
            <ns3:hr>91</ns3:hr>
          </ns3:TrackPointExtension>
        </extensions>
      </trkpt>
      <trkpt lat="36.84758570976555347442626953125" lon="-118.41151063330471515655517578125">
        <ele>2967.60009765625</ele>
        <time>2021-06-27T22:36:17.000Z</time>
        <extensions>
          <ns3:TrackPointExtension>
            <ns3:atemp>32.0</ns3:atemp>
            <ns3:hr>89</ns3:hr>
          </ns3:TrackPointExtension>
        </extensions>
      </trkpt>
      <trkpt lat="36.847631894052028656005859375" lon="-118.41153276152908802032470703125">
        <ele>2967.60009765625</ele>
        <time>2021-06-27T22:36:21.000Z</time>
        <extensions>
          <ns3:TrackPointExtension>
            <ns3:atemp>32.0</ns3:atemp>
            <ns3:hr>86</ns3:hr>
          </ns3:TrackPointExtension>
        </extensions>
      </trkpt>
      <trkpt lat="36.84765025041997432708740234375" lon="-118.41154382564127445220947265625">
        <ele>2967.199951171875</ele>
        <time>2021-06-27T22:36:23.000Z</time>
        <extensions>
          <ns3:TrackPointExtension>
            <ns3:atemp>32.0</ns3:atemp>
            <ns3:hr>84</ns3:hr>
          </ns3:TrackPointExtension>
        </extensions>
      </trkpt>
      <trkpt lat="36.8476608954370021820068359375" lon="-118.411553800106048583984375">
        <ele>2967.199951171875</ele>
        <time>2021-06-27T22:36:24.000Z</time>
        <extensions>
          <ns3:TrackPointExtension>
            <ns3:atemp>32.0</ns3:atemp>
            <ns3:hr>84</ns3:hr>
          </ns3:TrackPointExtension>
        </extensions>
      </trkpt>
      <trkpt lat="36.847685873508453369140625" lon="-118.4115636907517910003662109375">
        <ele>2967</ele>
        <time>2021-06-27T22:36:26.000Z</time>
        <extensions>
          <ns3:TrackPointExtension>
            <ns3:atemp>32.0</ns3:atemp>
            <ns3:hr>85</ns3:hr>
          </ns3:TrackPointExtension>
        </extensions>
      </trkpt>
      <trkpt lat="36.84773289598524570465087890625" lon="-118.41158154420554637908935546875">
        <ele>2966.39990234375</ele>
        <time>2021-06-27T22:36:31.000Z</time>
        <extensions>
          <ns3:TrackPointExtension>
            <ns3:atemp>32.0</ns3:atemp>
            <ns3:hr>85</ns3:hr>
          </ns3:TrackPointExtension>
        </extensions>
      </trkpt>
      <trkpt lat="36.8477370031177997589111328125" lon="-118.411588333547115325927734375">
        <ele>2966.199951171875</ele>
        <time>2021-06-27T22:36:32.000Z</time>
        <extensions>
          <ns3:TrackPointExtension>
            <ns3:atemp>32.0</ns3:atemp>
            <ns3:hr>85</ns3:hr>
          </ns3:TrackPointExtension>
        </extensions>
      </trkpt>
      <trkpt lat="36.84774647466838359832763671875" lon="-118.411603085696697235107421875">
        <ele>2965.800048828125</ele>
        <time>2021-06-27T22:36:34.000Z</time>
        <extensions>
          <ns3:TrackPointExtension>
            <ns3:atemp>32.0</ns3:atemp>
            <ns3:hr>84</ns3:hr>
          </ns3:TrackPointExtension>
        </extensions>
      </trkpt>
      <trkpt lat="36.84775183908641338348388671875" lon="-118.41161289252340793609619140625">
        <ele>2965.800048828125</ele>
        <time>2021-06-27T22:36:35.000Z</time>
        <extensions>
          <ns3:TrackPointExtension>
            <ns3:atemp>32.0</ns3:atemp>
            <ns3:hr>81</ns3:hr>
          </ns3:TrackPointExtension>
        </extensions>
      </trkpt>
      <trkpt lat="36.8477569520473480224609375" lon="-118.41162194497883319854736328125">
        <ele>2965.800048828125</ele>
        <time>2021-06-27T22:36:36.000Z</time>
        <extensions>
          <ns3:TrackPointExtension>
            <ns3:atemp>32.0</ns3:atemp>
            <ns3:hr>84</ns3:hr>
          </ns3:TrackPointExtension>
        </extensions>
      </trkpt>
      <trkpt lat="36.8477889709174633026123046875" lon="-118.411675505340099334716796875">
        <ele>2965</ele>
        <time>2021-06-27T22:36:42.000Z</time>
        <extensions>
          <ns3:TrackPointExtension>
            <ns3:atemp>32.0</ns3:atemp>
            <ns3:hr>83</ns3:hr>
          </ns3:TrackPointExtension>
        </extensions>
      </trkpt>
      <trkpt lat="36.847807578742504119873046875" lon="-118.41170241124927997589111328125">
        <ele>2964.60009765625</ele>
        <time>2021-06-27T22:36:45.000Z</time>
        <extensions>
          <ns3:TrackPointExtension>
            <ns3:atemp>32.0</ns3:atemp>
            <ns3:hr>84</ns3:hr>
          </ns3:TrackPointExtension>
        </extensions>
      </trkpt>
      <trkpt lat="36.84784353710711002349853515625" lon="-118.411710374057292938232421875">
        <ele>2963.800048828125</ele>
        <time>2021-06-27T22:36:48.000Z</time>
        <extensions>
          <ns3:TrackPointExtension>
            <ns3:atemp>32.0</ns3:atemp>
            <ns3:hr>81</ns3:hr>
          </ns3:TrackPointExtension>
        </extensions>
      </trkpt>
      <trkpt lat="36.8478642404079437255859375" lon="-118.41171615757048130035400390625">
        <ele>2963.60009765625</ele>
        <time>2021-06-27T22:36:50.000Z</time>
        <extensions>
          <ns3:TrackPointExtension>
            <ns3:atemp>32.0</ns3:atemp>
            <ns3:hr>81</ns3:hr>
          </ns3:TrackPointExtension>
        </extensions>
      </trkpt>
      <trkpt lat="36.847879998385906219482421875" lon="-118.41172923333942890167236328125">
        <ele>2963.60009765625</ele>
        <time>2021-06-27T22:36:52.000Z</time>
        <extensions>
          <ns3:TrackPointExtension>
            <ns3:atemp>32.0</ns3:atemp>
            <ns3:hr>84</ns3:hr>
          </ns3:TrackPointExtension>
        </extensions>
      </trkpt>
      <trkpt lat="36.84788930229842662811279296875" lon="-118.41174063272774219512939453125">
        <ele>2963.60009765625</ele>
        <time>2021-06-27T22:36:53.000Z</time>
        <extensions>
          <ns3:TrackPointExtension>
            <ns3:atemp>32.0</ns3:atemp>
            <ns3:hr>84</ns3:hr>
          </ns3:TrackPointExtension>
        </extensions>
      </trkpt>
      <trkpt lat="36.8479767255485057830810546875" lon="-118.4118268825113773345947265625">
        <ele>2963</ele>
        <time>2021-06-27T22:37:03.000Z</time>
        <extensions>
          <ns3:TrackPointExtension>
            <ns3:atemp>32.0</ns3:atemp>
            <ns3:hr>84</ns3:hr>
          </ns3:TrackPointExtension>
        </extensions>
      </trkpt>
      <trkpt lat="36.84802643023431301116943359375" lon="-118.411888740956783294677734375">
        <ele>2962.60009765625</ele>
        <time>2021-06-27T22:37:11.000Z</time>
        <extensions>
          <ns3:TrackPointExtension>
            <ns3:atemp>31.0</ns3:atemp>
            <ns3:hr>82</ns3:hr>
          </ns3:TrackPointExtension>
        </extensions>
      </trkpt>
      <trkpt lat="36.8480400927364826202392578125" lon="-118.4119046665728092193603515625">
        <ele>2962.39990234375</ele>
        <time>2021-06-27T22:37:13.000Z</time>
        <extensions>
          <ns3:TrackPointExtension>
            <ns3:atemp>31.0</ns3:atemp>
            <ns3:hr>82</ns3:hr>
          </ns3:TrackPointExtension>
        </extensions>
      </trkpt>
      <trkpt lat="36.84808912687003612518310546875" lon="-118.4119184128940105438232421875">
        <ele>2961.39990234375</ele>
        <time>2021-06-27T22:37:18.000Z</time>
        <extensions>
          <ns3:TrackPointExtension>
            <ns3:atemp>31.0</ns3:atemp>
            <ns3:hr>81</ns3:hr>
          </ns3:TrackPointExtension>
        </extensions>
      </trkpt>
      <trkpt lat="36.848099268972873687744140625" lon="-118.41192386113107204437255859375">
        <ele>2961.39990234375</ele>
        <time>2021-06-27T22:37:19.000Z</time>
        <extensions>
          <ns3:TrackPointExtension>
            <ns3:atemp>31.0</ns3:atemp>
            <ns3:hr>81</ns3:hr>
          </ns3:TrackPointExtension>
        </extensions>
      </trkpt>
      <trkpt lat="36.8481594510376453399658203125" lon="-118.41193945147097110748291015625">
        <ele>2960.199951171875</ele>
        <time>2021-06-27T22:37:26.000Z</time>
        <extensions>
          <ns3:TrackPointExtension>
            <ns3:atemp>32.0</ns3:atemp>
            <ns3:hr>83</ns3:hr>
          </ns3:TrackPointExtension>
        </extensions>
      </trkpt>
      <trkpt lat="36.84818551875650882720947265625" lon="-118.411940373480319976806640625">
        <ele>2959.60009765625</ele>
        <time>2021-06-27T22:37:29.000Z</time>
        <extensions>
          <ns3:TrackPointExtension>
            <ns3:atemp>31.0</ns3:atemp>
            <ns3:hr>85</ns3:hr>
          </ns3:TrackPointExtension>
        </extensions>
      </trkpt>
      <trkpt lat="36.8481926433742046356201171875" lon="-118.411940373480319976806640625">
        <ele>2959.199951171875</ele>
        <time>2021-06-27T22:37:30.000Z</time>
        <extensions>
          <ns3:TrackPointExtension>
            <ns3:atemp>31.0</ns3:atemp>
            <ns3:hr>86</ns3:hr>
          </ns3:TrackPointExtension>
        </extensions>
      </trkpt>
      <trkpt lat="36.8482248298823833465576171875" lon="-118.41192997992038726806640625">
        <ele>2958</ele>
        <time>2021-06-27T22:37:34.000Z</time>
        <extensions>
          <ns3:TrackPointExtension>
            <ns3:atemp>31.0</ns3:atemp>
            <ns3:hr>87</ns3:hr>
          </ns3:TrackPointExtension>
        </extensions>
      </trkpt>
      <trkpt lat="36.848259530961513519287109375" lon="-118.411935009062290191650390625">
        <ele>2957.199951171875</ele>
        <time>2021-06-27T22:37:38.000Z</time>
        <extensions>
          <ns3:TrackPointExtension>
            <ns3:atemp>31.0</ns3:atemp>
            <ns3:hr>88</ns3:hr>
          </ns3:TrackPointExtension>
        </extensions>
      </trkpt>
      <trkpt lat="36.848277635872364044189453125" lon="-118.411934673786163330078125">
        <ele>2956.800048828125</ele>
        <time>2021-06-27T22:37:40.000Z</time>
        <extensions>
          <ns3:TrackPointExtension>
            <ns3:atemp>31.0</ns3:atemp>
            <ns3:hr>87</ns3:hr>
          </ns3:TrackPointExtension>
        </extensions>
      </trkpt>
      <trkpt lat="36.84831359423696994781494140625" lon="-118.4119522757828235626220703125">
        <ele>2955.60009765625</ele>
        <time>2021-06-27T22:37:44.000Z</time>
        <extensions>
          <ns3:TrackPointExtension>
            <ns3:atemp>31.0</ns3:atemp>
            <ns3:hr>89</ns3:hr>
          </ns3:TrackPointExtension>
        </extensions>
      </trkpt>
      <trkpt lat="36.8483187071979045867919921875" lon="-118.41196023859083652496337890625">
        <ele>2955.60009765625</ele>
        <time>2021-06-27T22:37:45.000Z</time>
        <extensions>
          <ns3:TrackPointExtension>
            <ns3:atemp>31.0</ns3:atemp>
            <ns3:hr>92</ns3:hr>
          </ns3:TrackPointExtension>
        </extensions>
      </trkpt>
      <trkpt lat="36.8483270891010761260986328125" lon="-118.41198270209133625030517578125">
        <ele>2955.39990234375</ele>
        <time>2021-06-27T22:37:47.000Z</time>
        <extensions>
          <ns3:TrackPointExtension>
            <ns3:atemp>31.0</ns3:atemp>
            <ns3:hr>89</ns3:hr>
          </ns3:TrackPointExtension>
        </extensions>
      </trkpt>
      <trkpt lat="36.8483425118029117584228515625" lon="-118.41204925440251827239990234375">
        <ele>2955.199951171875</ele>
        <time>2021-06-27T22:37:54.000Z</time>
        <extensions>
          <ns3:TrackPointExtension>
            <ns3:atemp>31.0</ns3:atemp>
            <ns3:hr>87</ns3:hr>
          </ns3:TrackPointExtension>
        </extensions>
      </trkpt>
      <trkpt lat="36.84835349209606647491455078125" lon="-118.41208781115710735321044921875">
        <ele>2955</ele>
        <time>2021-06-27T22:37:57.000Z</time>
        <extensions>
          <ns3:TrackPointExtension>
            <ns3:atemp>31.0</ns3:atemp>
            <ns3:hr>91</ns3:hr>
          </ns3:TrackPointExtension>
        </extensions>
      </trkpt>
      <trkpt lat="36.84835902415215969085693359375" lon="-118.41209535486996173858642578125">
        <ele>2954.60009765625</ele>
        <time>2021-06-27T22:37:58.000Z</time>
        <extensions>
          <ns3:TrackPointExtension>
            <ns3:atemp>31.0</ns3:atemp>
            <ns3:hr>87</ns3:hr>
          </ns3:TrackPointExtension>
        </extensions>
      </trkpt>
      <trkpt lat="36.84836975298821926116943359375" lon="-118.4120987914502620697021484375">
        <ele>2954.39990234375</ele>
        <time>2021-06-27T22:37:59.000Z</time>
        <extensions>
          <ns3:TrackPointExtension>
            <ns3:atemp>31.0</ns3:atemp>
            <ns3:hr>87</ns3:hr>
          </ns3:TrackPointExtension>
        </extensions>
      </trkpt>
      <trkpt lat="36.848380565643310546875" lon="-118.41210055164992809295654296875">
        <ele>2954.39990234375</ele>
        <time>2021-06-27T22:38:00.000Z</time>
        <extensions>
          <ns3:TrackPointExtension>
            <ns3:atemp>31.0</ns3:atemp>
            <ns3:hr>87</ns3:hr>
          </ns3:TrackPointExtension>
        </extensions>
      </trkpt>
      <trkpt lat="36.84844099916517734527587890625" lon="-118.41213785111904144287109375">
        <ele>2953.39990234375</ele>
        <time>2021-06-27T22:38:06.000Z</time>
        <extensions>
          <ns3:TrackPointExtension>
            <ns3:atemp>31.0</ns3:atemp>
            <ns3:hr>88</ns3:hr>
          </ns3:TrackPointExtension>
        </extensions>
      </trkpt>
      <trkpt lat="36.8484692461788654327392578125" lon="-118.41213307343423366546630859375">
        <ele>2952.60009765625</ele>
        <time>2021-06-27T22:38:09.000Z</time>
        <extensions>
          <ns3:TrackPointExtension>
            <ns3:atemp>31.0</ns3:atemp>
            <ns3:hr>87</ns3:hr>
          </ns3:TrackPointExtension>
        </extensions>
      </trkpt>
      <trkpt lat="36.8484736047685146331787109375" lon="-118.4121296368539333343505859375">
        <ele>2952.199951171875</ele>
        <time>2021-06-27T22:38:11.000Z</time>
        <extensions>
          <ns3:TrackPointExtension>
            <ns3:atemp>31.0</ns3:atemp>
            <ns3:hr>87</ns3:hr>
          </ns3:TrackPointExtension>
        </extensions>
      </trkpt>
      <trkpt lat="36.8484742753207683563232421875" lon="-118.41212955303490161895751953125">
        <ele>2952.199951171875</ele>
        <time>2021-06-27T22:38:12.000Z</time>
        <extensions>
          <ns3:TrackPointExtension>
            <ns3:atemp>31.0</ns3:atemp>
            <ns3:hr>84</ns3:hr>
          </ns3:TrackPointExtension>
        </extensions>
      </trkpt>
      <trkpt lat="36.8484752811491489410400390625" lon="-118.412134833633899688720703125">
        <ele>2952.39990234375</ele>
        <time>2021-06-27T22:38:13.000Z</time>
        <extensions>
          <ns3:TrackPointExtension>
            <ns3:atemp>31.0</ns3:atemp>
            <ns3:hr>87</ns3:hr>
          </ns3:TrackPointExtension>
        </extensions>
      </trkpt>
      <trkpt lat="36.848475448787212371826171875" lon="-118.4121398627758026123046875">
        <ele>2952.60009765625</ele>
        <time>2021-06-27T22:38:14.000Z</time>
        <extensions>
          <ns3:TrackPointExtension>
            <ns3:atemp>31.0</ns3:atemp>
            <ns3:hr>87</ns3:hr>
          </ns3:TrackPointExtension>
        </extensions>
      </trkpt>
      <trkpt lat="36.84847335331141948699951171875" lon="-118.41214061714708805084228515625">
        <ele>2953.39990234375</ele>
        <time>2021-06-27T22:38:17.000Z</time>
        <extensions>
          <ns3:TrackPointExtension>
            <ns3:atemp>31.0</ns3:atemp>
            <ns3:hr>87</ns3:hr>
          </ns3:TrackPointExtension>
        </extensions>
      </trkpt>
      <trkpt lat="36.8484836630523204803466796875" lon="-118.41212167404592037200927734375">
        <ele>2953.199951171875</ele>
        <time>2021-06-27T22:38:24.000Z</time>
        <extensions>
          <ns3:TrackPointExtension>
            <ns3:atemp>31.0</ns3:atemp>
            <ns3:hr>85</ns3:hr>
          </ns3:TrackPointExtension>
        </extensions>
      </trkpt>
      <trkpt lat="36.8484836630523204803466796875" lon="-118.41212167404592037200927734375">
        <ele>2953.199951171875</ele>
        <time>2021-06-27T22:38:28.000Z</time>
        <extensions>
          <ns3:TrackPointExtension>
            <ns3:atemp>31.0</ns3:atemp>
            <ns3:hr>82</ns3:hr>
          </ns3:TrackPointExtension>
        </extensions>
      </trkpt>
      <trkpt lat="36.84848181903362274169921875" lon="-118.41212167404592037200927734375">
        <ele>2952.199951171875</ele>
        <time>2021-06-27T22:38:30.000Z</time>
        <extensions>
          <ns3:TrackPointExtension>
            <ns3:atemp>31.0</ns3:atemp>
            <ns3:hr>81</ns3:hr>
          </ns3:TrackPointExtension>
        </extensions>
      </trkpt>
      <trkpt lat="36.84847871772944927215576171875" lon="-118.41212167404592037200927734375">
        <ele>2952.199951171875</ele>
        <time>2021-06-27T22:38:33.000Z</time>
        <extensions>
          <ns3:TrackPointExtension>
            <ns3:atemp>31.0</ns3:atemp>
            <ns3:hr>80</ns3:hr>
          </ns3:TrackPointExtension>
        </extensions>
      </trkpt>
      <trkpt lat="36.84847385622560977935791015625" lon="-118.41212167404592037200927734375">
        <ele>2952.199951171875</ele>
        <time>2021-06-27T22:38:44.000Z</time>
        <extensions>
          <ns3:TrackPointExtension>
            <ns3:atemp>31.0</ns3:atemp>
            <ns3:hr>83</ns3:hr>
          </ns3:TrackPointExtension>
        </extensions>
      </trkpt>
      <trkpt lat="36.84846396557986736297607421875" lon="-118.4121210873126983642578125">
        <ele>2952.60009765625</ele>
        <time>2021-06-27T22:39:03.000Z</time>
        <extensions>
          <ns3:TrackPointExtension>
            <ns3:atemp>31.0</ns3:atemp>
            <ns3:hr>86</ns3:hr>
          </ns3:TrackPointExtension>
        </extensions>
      </trkpt>
      <trkpt lat="36.84846379794180393218994140625" lon="-118.4121210873126983642578125">
        <ele>2952.60009765625</ele>
        <time>2021-06-27T22:39:05.000Z</time>
        <extensions>
          <ns3:TrackPointExtension>
            <ns3:atemp>31.0</ns3:atemp>
            <ns3:hr>89</ns3:hr>
          </ns3:TrackPointExtension>
        </extensions>
      </trkpt>
      <trkpt lat="36.84846363030374050140380859375" lon="-118.41211731545627117156982421875">
        <ele>2952.60009765625</ele>
        <time>2021-06-27T22:39:08.000Z</time>
        <extensions>
          <ns3:TrackPointExtension>
            <ns3:atemp>31.0</ns3:atemp>
            <ns3:hr>92</ns3:hr>
          </ns3:TrackPointExtension>
        </extensions>
      </trkpt>
      <trkpt lat="36.8484695814549922943115234375" lon="-118.4121091850101947784423828125">
        <ele>2952.39990234375</ele>
        <time>2021-06-27T22:39:24.000Z</time>
        <extensions>
          <ns3:TrackPointExtension>
            <ns3:atemp>31.0</ns3:atemp>
            <ns3:hr>89</ns3:hr>
          </ns3:TrackPointExtension>
        </extensions>
      </trkpt>
      <trkpt lat="36.8485520593822002410888671875" lon="-118.41213651001453399658203125">
        <ele>2952.39990234375</ele>
        <time>2021-06-27T22:39:37.000Z</time>
        <extensions>
          <ns3:TrackPointExtension>
            <ns3:atemp>31.0</ns3:atemp>
            <ns3:hr>88</ns3:hr>
          </ns3:TrackPointExtension>
        </extensions>
      </trkpt>
      <trkpt lat="36.84862196445465087890625" lon="-118.4121279604732990264892578125">
        <ele>2952.39990234375</ele>
        <time>2021-06-27T22:39:42.000Z</time>
        <extensions>
          <ns3:TrackPointExtension>
            <ns3:atemp>31.0</ns3:atemp>
            <ns3:hr>91</ns3:hr>
          </ns3:TrackPointExtension>
        </extensions>
      </trkpt>
      <trkpt lat="36.84863202273845672607421875" lon="-118.41211815364658832550048828125">
        <ele>2951.800048828125</ele>
        <time>2021-06-27T22:39:44.000Z</time>
        <extensions>
          <ns3:TrackPointExtension>
            <ns3:atemp>31.0</ns3:atemp>
            <ns3:hr>93</ns3:hr>
          </ns3:TrackPointExtension>
        </extensions>
      </trkpt>
      <trkpt lat="36.8486499600112438201904296875" lon="-118.41210407204926013946533203125">
        <ele>2951.199951171875</ele>
        <time>2021-06-27T22:39:46.000Z</time>
        <extensions>
          <ns3:TrackPointExtension>
            <ns3:atemp>31.0</ns3:atemp>
            <ns3:hr>92</ns3:hr>
          </ns3:TrackPointExtension>
        </extensions>
      </trkpt>
      <trkpt lat="36.8486539833247661590576171875" lon="-118.4120951034128665924072265625">
        <ele>2950.60009765625</ele>
        <time>2021-06-27T22:39:47.000Z</time>
        <extensions>
          <ns3:TrackPointExtension>
            <ns3:atemp>31.0</ns3:atemp>
            <ns3:hr>92</ns3:hr>
          </ns3:TrackPointExtension>
        </extensions>
      </trkpt>
      <trkpt lat="36.84867334552109241485595703125" lon="-118.41205202043056488037109375">
        <ele>2950.199951171875</ele>
        <time>2021-06-27T22:39:51.000Z</time>
        <extensions>
          <ns3:TrackPointExtension>
            <ns3:atemp>31.0</ns3:atemp>
            <ns3:hr>91</ns3:hr>
          </ns3:TrackPointExtension>
        </extensions>
      </trkpt>
      <trkpt lat="36.84867938049137592315673828125" lon="-118.41204556636512279510498046875">
        <ele>2950.199951171875</ele>
        <time>2021-06-27T22:39:52.000Z</time>
        <extensions>
          <ns3:TrackPointExtension>
            <ns3:atemp>31.0</ns3:atemp>
            <ns3:hr>91</ns3:hr>
          </ns3:TrackPointExtension>
        </extensions>
      </trkpt>
      <trkpt lat="36.848695389926433563232421875" lon="-118.41203684918582439422607421875">
        <ele>2949.39990234375</ele>
        <time>2021-06-27T22:39:54.000Z</time>
        <extensions>
          <ns3:TrackPointExtension>
            <ns3:atemp>31.0</ns3:atemp>
            <ns3:hr>91</ns3:hr>
          </ns3:TrackPointExtension>
        </extensions>
      </trkpt>
      <trkpt lat="36.8487264029681682586669921875" lon="-118.412040285766124725341796875">
        <ele>2949.39990234375</ele>
        <time>2021-06-27T22:39:58.000Z</time>
        <extensions>
          <ns3:TrackPointExtension>
            <ns3:atemp>31.0</ns3:atemp>
            <ns3:hr>90</ns3:hr>
          </ns3:TrackPointExtension>
        </extensions>
      </trkpt>
      <trkpt lat="36.848737634718418121337890625" lon="-118.41204472817480564117431640625">
        <ele>2949.39990234375</ele>
        <time>2021-06-27T22:39:59.000Z</time>
        <extensions>
          <ns3:TrackPointExtension>
            <ns3:atemp>31.0</ns3:atemp>
            <ns3:hr>90</ns3:hr>
          </ns3:TrackPointExtension>
        </extensions>
      </trkpt>
      <trkpt lat="36.84877283871173858642578125" lon="-118.412069790065288543701171875">
        <ele>2948.800048828125</ele>
        <time>2021-06-27T22:40:05.000Z</time>
        <extensions>
          <ns3:TrackPointExtension>
            <ns3:atemp>31.0</ns3:atemp>
            <ns3:hr>93</ns3:hr>
          </ns3:TrackPointExtension>
        </extensions>
      </trkpt>
      <trkpt lat="36.848785243928432464599609375" lon="-118.41207708232104778289794921875">
        <ele>2948.60009765625</ele>
        <time>2021-06-27T22:40:07.000Z</time>
        <extensions>
          <ns3:TrackPointExtension>
            <ns3:atemp>31.0</ns3:atemp>
            <ns3:hr>94</ns3:hr>
          </ns3:TrackPointExtension>
        </extensions>
      </trkpt>
      <trkpt lat="36.84879320673644542694091796875" lon="-118.41208378784358501434326171875">
        <ele>2947.60009765625</ele>
        <time>2021-06-27T22:40:08.000Z</time>
        <extensions>
          <ns3:TrackPointExtension>
            <ns3:atemp>31.0</ns3:atemp>
            <ns3:hr>94</ns3:hr>
          </ns3:TrackPointExtension>
        </extensions>
      </trkpt>
      <trkpt lat="36.84883343987166881561279296875" lon="-118.41209703125059604644775390625">
        <ele>2946.800048828125</ele>
        <time>2021-06-27T22:40:12.000Z</time>
        <extensions>
          <ns3:TrackPointExtension>
            <ns3:atemp>31.0</ns3:atemp>
            <ns3:hr>97</ns3:hr>
          </ns3:TrackPointExtension>
        </extensions>
      </trkpt>
      <trkpt lat="36.84885137714445590972900390625" lon="-118.41210122220218181610107421875">
        <ele>2947</ele>
        <time>2021-06-27T22:40:14.000Z</time>
        <extensions>
          <ns3:TrackPointExtension>
            <ns3:atemp>31.0</ns3:atemp>
            <ns3:hr>98</ns3:hr>
          </ns3:TrackPointExtension>
        </extensions>
      </trkpt>
      <trkpt lat="36.84885640628635883331298828125" lon="-118.41210558079183101654052734375">
        <ele>2946.199951171875</ele>
        <time>2021-06-27T22:40:15.000Z</time>
        <extensions>
          <ns3:TrackPointExtension>
            <ns3:atemp>31.0</ns3:atemp>
            <ns3:hr>97</ns3:hr>
          </ns3:TrackPointExtension>
        </extensions>
      </trkpt>
      <trkpt lat="36.84884819202125072479248046875" lon="-118.4121272899210453033447265625">
        <ele>2945.60009765625</ele>
        <time>2021-06-27T22:40:19.000Z</time>
        <extensions>
          <ns3:TrackPointExtension>
            <ns3:atemp>31.0</ns3:atemp>
            <ns3:hr>95</ns3:hr>
          </ns3:TrackPointExtension>
        </extensions>
      </trkpt>
      <trkpt lat="36.8488378822803497314453125" lon="-118.41215000487864017486572265625">
        <ele>2945.199951171875</ele>
        <time>2021-06-27T22:40:22.000Z</time>
        <extensions>
          <ns3:TrackPointExtension>
            <ns3:atemp>31.0</ns3:atemp>
            <ns3:hr>94</ns3:hr>
          </ns3:TrackPointExtension>
        </extensions>
      </trkpt>
      <trkpt lat="36.84882371686398983001708984375" lon="-118.41217414475977420806884765625">
        <ele>2944.800048828125</ele>
        <time>2021-06-27T22:40:24.000Z</time>
        <extensions>
          <ns3:TrackPointExtension>
            <ns3:atemp>31.0</ns3:atemp>
            <ns3:hr>94</ns3:hr>
          </ns3:TrackPointExtension>
        </extensions>
      </trkpt>
      <trkpt lat="36.8488175980746746063232421875" lon="-118.4121997095644474029541015625">
        <ele>2944.60009765625</ele>
        <time>2021-06-27T22:40:26.000Z</time>
        <extensions>
          <ns3:TrackPointExtension>
            <ns3:atemp>31.0</ns3:atemp>
            <ns3:hr>94</ns3:hr>
          </ns3:TrackPointExtension>
        </extensions>
      </trkpt>
      <trkpt lat="36.848818100988864898681640625" lon="-118.41221161186695098876953125">
        <ele>2944.60009765625</ele>
        <time>2021-06-27T22:40:27.000Z</time>
        <extensions>
          <ns3:TrackPointExtension>
            <ns3:atemp>31.0</ns3:atemp>
            <ns3:hr>96</ns3:hr>
          </ns3:TrackPointExtension>
        </extensions>
      </trkpt>
      <trkpt lat="36.84882690198719501495361328125" lon="-118.412238098680973052978515625">
        <ele>2944.60009765625</ele>
        <time>2021-06-27T22:40:29.000Z</time>
        <extensions>
          <ns3:TrackPointExtension>
            <ns3:atemp>31.0</ns3:atemp>
            <ns3:hr>93</ns3:hr>
          </ns3:TrackPointExtension>
        </extensions>
      </trkpt>
      <trkpt lat="36.84883654117584228515625" lon="-118.41227003373205661773681640625">
        <ele>2944.199951171875</ele>
        <time>2021-06-27T22:40:32.000Z</time>
        <extensions>
          <ns3:TrackPointExtension>
            <ns3:atemp>31.0</ns3:atemp>
            <ns3:hr>91</ns3:hr>
          </ns3:TrackPointExtension>
        </extensions>
      </trkpt>
      <trkpt lat="36.84884333051741123199462890625" lon="-118.41228981502354145050048828125">
        <ele>2944</ele>
        <time>2021-06-27T22:40:34.000Z</time>
        <extensions>
          <ns3:TrackPointExtension>
            <ns3:atemp>31.0</ns3:atemp>
            <ns3:hr>90</ns3:hr>
          </ns3:TrackPointExtension>
        </extensions>
      </trkpt>
      <trkpt lat="36.8488618545234203338623046875" lon="-118.41232937760651111602783203125">
        <ele>2943</ele>
        <time>2021-06-27T22:40:39.000Z</time>
        <extensions>
          <ns3:TrackPointExtension>
            <ns3:atemp>31.0</ns3:atemp>
            <ns3:hr>87</ns3:hr>
          </ns3:TrackPointExtension>
        </extensions>
      </trkpt>
      <trkpt lat="36.84886344708502292633056640625" lon="-118.41234295628964900970458984375">
        <ele>2943</ele>
        <time>2021-06-27T22:40:40.000Z</time>
        <extensions>
          <ns3:TrackPointExtension>
            <ns3:atemp>31.0</ns3:atemp>
            <ns3:hr>88</ns3:hr>
          </ns3:TrackPointExtension>
        </extensions>
      </trkpt>
      <trkpt lat="36.8488672189414501190185546875" lon="-118.412352092564105987548828125">
        <ele>2942.800048828125</ele>
        <time>2021-06-27T22:40:41.000Z</time>
        <extensions>
          <ns3:TrackPointExtension>
            <ns3:atemp>31.0</ns3:atemp>
            <ns3:hr>87</ns3:hr>
          </ns3:TrackPointExtension>
        </extensions>
      </trkpt>
      <trkpt lat="36.84888775460422039031982421875" lon="-118.4123780764639377593994140625">
        <ele>2941.800048828125</ele>
        <time>2021-06-27T22:40:45.000Z</time>
        <extensions>
          <ns3:TrackPointExtension>
            <ns3:atemp>31.0</ns3:atemp>
            <ns3:hr>86</ns3:hr>
          </ns3:TrackPointExtension>
        </extensions>
      </trkpt>
      <trkpt lat="36.84891172684729099273681640625" lon="-118.41238922439515590667724609375">
        <ele>2941.39990234375</ele>
        <time>2021-06-27T22:40:48.000Z</time>
        <extensions>
          <ns3:TrackPointExtension>
            <ns3:atemp>31.0</ns3:atemp>
            <ns3:hr>87</ns3:hr>
          </ns3:TrackPointExtension>
        </extensions>
      </trkpt>
      <trkpt lat="36.84891893528401851654052734375" lon="-118.41238989494740962982177734375">
        <ele>2941.39990234375</ele>
        <time>2021-06-27T22:40:49.000Z</time>
        <extensions>
          <ns3:TrackPointExtension>
            <ns3:atemp>31.0</ns3:atemp>
            <ns3:hr>87</ns3:hr>
          </ns3:TrackPointExtension>
        </extensions>
      </trkpt>
      <trkpt lat="36.84892681427299976348876953125" lon="-118.4123928286135196685791015625">
        <ele>2941.39990234375</ele>
        <time>2021-06-27T22:40:50.000Z</time>
        <extensions>
          <ns3:TrackPointExtension>
            <ns3:atemp>31.0</ns3:atemp>
            <ns3:hr>87</ns3:hr>
          </ns3:TrackPointExtension>
        </extensions>
      </trkpt>
      <trkpt lat="36.84895397163927555084228515625" lon="-118.41239643283188343048095703125">
        <ele>2941.39990234375</ele>
        <time>2021-06-27T22:40:53.000Z</time>
        <extensions>
          <ns3:TrackPointExtension>
            <ns3:atemp>31.0</ns3:atemp>
            <ns3:hr>88</ns3:hr>
          </ns3:TrackPointExtension>
        </extensions>
      </trkpt>
      <trkpt lat="36.8489674665033817291259765625" lon="-118.41240682639181613922119140625">
        <ele>2940.800048828125</ele>
        <time>2021-06-27T22:40:56.000Z</time>
        <extensions>
          <ns3:TrackPointExtension>
            <ns3:atemp>31.0</ns3:atemp>
            <ns3:hr>88</ns3:hr>
          </ns3:TrackPointExtension>
        </extensions>
      </trkpt>
      <trkpt lat="36.84897308237850666046142578125" lon="-118.41240950860083103179931640625">
        <ele>2940.800048828125</ele>
        <time>2021-06-27T22:40:57.000Z</time>
        <extensions>
          <ns3:TrackPointExtension>
            <ns3:atemp>31.0</ns3:atemp>
            <ns3:hr>87</ns3:hr>
          </ns3:TrackPointExtension>
        </extensions>
      </trkpt>
      <trkpt lat="36.8489815481007099151611328125" lon="-118.41242493130266666412353515625">
        <ele>2940.39990234375</ele>
        <time>2021-06-27T22:40:59.000Z</time>
        <extensions>
          <ns3:TrackPointExtension>
            <ns3:atemp>31.0</ns3:atemp>
            <ns3:hr>86</ns3:hr>
          </ns3:TrackPointExtension>
        </extensions>
      </trkpt>
      <trkpt lat="36.848997138440608978271484375" lon="-118.4124347381293773651123046875">
        <ele>2940.199951171875</ele>
        <time>2021-06-27T22:41:01.000Z</time>
        <extensions>
          <ns3:TrackPointExtension>
            <ns3:atemp>31.0</ns3:atemp>
            <ns3:hr>86</ns3:hr>
          </ns3:TrackPointExtension>
        </extensions>
      </trkpt>
      <trkpt lat="36.8490026704967021942138671875" lon="-118.4124370850622653961181640625">
        <ele>2940.199951171875</ele>
        <time>2021-06-27T22:41:02.000Z</time>
        <extensions>
          <ns3:TrackPointExtension>
            <ns3:atemp>31.0</ns3:atemp>
            <ns3:hr>87</ns3:hr>
          </ns3:TrackPointExtension>
        </extensions>
      </trkpt>
      <trkpt lat="36.84901381842792034149169921875" lon="-118.4124494902789592742919921875">
        <ele>2939.800048828125</ele>
        <time>2021-06-27T22:41:05.000Z</time>
        <extensions>
          <ns3:TrackPointExtension>
            <ns3:atemp>31.0</ns3:atemp>
            <ns3:hr>85</ns3:hr>
          </ns3:TrackPointExtension>
        </extensions>
      </trkpt>
      <trkpt lat="36.84903896413743495941162109375" lon="-118.41245175339281558990478515625">
        <ele>2939.199951171875</ele>
        <time>2021-06-27T22:41:08.000Z</time>
        <extensions>
          <ns3:TrackPointExtension>
            <ns3:atemp>31.0</ns3:atemp>
            <ns3:hr>86</ns3:hr>
          </ns3:TrackPointExtension>
        </extensions>
      </trkpt>
      <trkpt lat="36.8490653671324253082275390625" lon="-118.4124491550028324127197265625">
        <ele>2938.60009765625</ele>
        <time>2021-06-27T22:41:11.000Z</time>
        <extensions>
          <ns3:TrackPointExtension>
            <ns3:atemp>31.0</ns3:atemp>
            <ns3:hr>83</ns3:hr>
          </ns3:TrackPointExtension>
        </extensions>
      </trkpt>
      <trkpt lat="36.84909126721322536468505859375" lon="-118.4124551899731159210205078125">
        <ele>2938.199951171875</ele>
        <time>2021-06-27T22:41:14.000Z</time>
        <extensions>
          <ns3:TrackPointExtension>
            <ns3:atemp>31.0</ns3:atemp>
            <ns3:hr>82</ns3:hr>
          </ns3:TrackPointExtension>
        </extensions>
      </trkpt>
      <trkpt lat="36.84911322779953479766845703125" lon="-118.4124709479510784149169921875">
        <ele>2937.39990234375</ele>
        <time>2021-06-27T22:41:18.000Z</time>
        <extensions>
          <ns3:TrackPointExtension>
            <ns3:atemp>31.0</ns3:atemp>
            <ns3:hr>84</ns3:hr>
          </ns3:TrackPointExtension>
        </extensions>
      </trkpt>
      <trkpt lat="36.8491243757307529449462890625" lon="-118.412486873567104339599609375">
        <ele>2937</ele>
        <time>2021-06-27T22:41:20.000Z</time>
        <extensions>
          <ns3:TrackPointExtension>
            <ns3:atemp>31.0</ns3:atemp>
            <ns3:hr>85</ns3:hr>
          </ns3:TrackPointExtension>
        </extensions>
      </trkpt>
      <trkpt lat="36.84916569851338863372802734375" lon="-118.4125141985714435577392578125">
        <ele>2936.199951171875</ele>
        <time>2021-06-27T22:41:25.000Z</time>
        <extensions>
          <ns3:TrackPointExtension>
            <ns3:atemp>31.0</ns3:atemp>
            <ns3:hr>86</ns3:hr>
          </ns3:TrackPointExtension>
        </extensions>
      </trkpt>
      <trkpt lat="36.8492001481354236602783203125" lon="-118.41254076920449733734130859375">
        <ele>2935.39990234375</ele>
        <time>2021-06-27T22:41:30.000Z</time>
        <extensions>
          <ns3:TrackPointExtension>
            <ns3:atemp>31.0</ns3:atemp>
            <ns3:hr>85</ns3:hr>
          </ns3:TrackPointExtension>
        </extensions>
      </trkpt>
      <trkpt lat="36.8492138944566249847412109375" lon="-118.41255937702953815460205078125">
        <ele>2935</ele>
        <time>2021-06-27T22:41:32.000Z</time>
        <extensions>
          <ns3:TrackPointExtension>
            <ns3:atemp>31.0</ns3:atemp>
            <ns3:hr>85</ns3:hr>
          </ns3:TrackPointExtension>
        </extensions>
      </trkpt>
      <trkpt lat="36.84924549423158168792724609375" lon="-118.41258846223354339599609375">
        <ele>2934</ele>
        <time>2021-06-27T22:41:37.000Z</time>
        <extensions>
          <ns3:TrackPointExtension>
            <ns3:atemp>31.0</ns3:atemp>
            <ns3:hr>85</ns3:hr>
          </ns3:TrackPointExtension>
        </extensions>
      </trkpt>
      <trkpt lat="36.84929612092673778533935546875" lon="-118.4126426093280315399169921875">
        <ele>2932.60009765625</ele>
        <time>2021-06-27T22:41:42.000Z</time>
        <extensions>
          <ns3:TrackPointExtension>
            <ns3:atemp>31.0</ns3:atemp>
            <ns3:hr>84</ns3:hr>
          </ns3:TrackPointExtension>
        </extensions>
      </trkpt>
      <trkpt lat="36.84932931326329708099365234375" lon="-118.41263473033905029296875">
        <ele>2932.199951171875</ele>
        <time>2021-06-27T22:41:45.000Z</time>
        <extensions>
          <ns3:TrackPointExtension>
            <ns3:atemp>31.0</ns3:atemp>
            <ns3:hr>84</ns3:hr>
          </ns3:TrackPointExtension>
        </extensions>
      </trkpt>
      <trkpt lat="36.84933342039585113525390625" lon="-118.4126338921487331390380859375">
        <ele>2932.39990234375</ele>
        <time>2021-06-27T22:41:46.000Z</time>
        <extensions>
          <ns3:TrackPointExtension>
            <ns3:atemp>31.0</ns3:atemp>
            <ns3:hr>84</ns3:hr>
          </ns3:TrackPointExtension>
        </extensions>
      </trkpt>
      <trkpt lat="36.84935890138149261474609375" lon="-118.41264654882252216339111328125">
        <ele>2932</ele>
        <time>2021-06-27T22:41:49.000Z</time>
        <extensions>
          <ns3:TrackPointExtension>
            <ns3:atemp>31.0</ns3:atemp>
            <ns3:hr>84</ns3:hr>
          </ns3:TrackPointExtension>
        </extensions>
      </trkpt>
      <trkpt lat="36.84937776066362857818603515625" lon="-118.41266767121851444244384765625">
        <ele>2931.60009765625</ele>
        <time>2021-06-27T22:41:51.000Z</time>
        <extensions>
          <ns3:TrackPointExtension>
            <ns3:atemp>31.0</ns3:atemp>
            <ns3:hr>84</ns3:hr>
          </ns3:TrackPointExtension>
        </extensions>
      </trkpt>
      <trkpt lat="36.84945973567664623260498046875" lon="-118.41268259100615978240966796875">
        <ele>2931.199951171875</ele>
        <time>2021-06-27T22:41:58.000Z</time>
        <extensions>
          <ns3:TrackPointExtension>
            <ns3:atemp>31.0</ns3:atemp>
            <ns3:hr>88</ns3:hr>
          </ns3:TrackPointExtension>
        </extensions>
      </trkpt>
      <trkpt lat="36.8494707159698009490966796875" lon="-118.412681333720684051513671875">
        <ele>2931</ele>
        <time>2021-06-27T22:42:00.000Z</time>
        <extensions>
          <ns3:TrackPointExtension>
            <ns3:atemp>31.0</ns3:atemp>
            <ns3:hr>91</ns3:hr>
          </ns3:TrackPointExtension>
        </extensions>
      </trkpt>
      <trkpt lat="36.8494851328432559967041015625" lon="-118.412679322063922882080078125">
        <ele>2931.199951171875</ele>
        <time>2021-06-27T22:42:02.000Z</time>
        <extensions>
          <ns3:TrackPointExtension>
            <ns3:atemp>31.0</ns3:atemp>
            <ns3:hr>92</ns3:hr>
          </ns3:TrackPointExtension>
        </extensions>
      </trkpt>
      <trkpt lat="36.84953592717647552490234375" lon="-118.41266800649464130401611328125">
        <ele>2931.800048828125</ele>
        <time>2021-06-27T22:42:07.000Z</time>
        <extensions>
          <ns3:TrackPointExtension>
            <ns3:atemp>31.0</ns3:atemp>
            <ns3:hr>91</ns3:hr>
          </ns3:TrackPointExtension>
        </extensions>
      </trkpt>
      <trkpt lat="36.8495826981961727142333984375" lon="-118.41266490519046783447265625">
        <ele>2932.800048828125</ele>
        <time>2021-06-27T22:42:13.000Z</time>
        <extensions>
          <ns3:TrackPointExtension>
            <ns3:atemp>31.0</ns3:atemp>
            <ns3:hr>92</ns3:hr>
          </ns3:TrackPointExtension>
        </extensions>
      </trkpt>
      <trkpt lat="36.84959468431770801544189453125" lon="-118.41266633011400699615478515625">
        <ele>2932.800048828125</ele>
        <time>2021-06-27T22:42:14.000Z</time>
        <extensions>
          <ns3:TrackPointExtension>
            <ns3:atemp>31.0</ns3:atemp>
            <ns3:hr>92</ns3:hr>
          </ns3:TrackPointExtension>
        </extensions>
      </trkpt>
      <trkpt lat="36.8496333248913288116455078125" lon="-118.41266163624823093414306640625">
        <ele>2932.60009765625</ele>
        <time>2021-06-27T22:42:18.000Z</time>
        <extensions>
          <ns3:TrackPointExtension>
            <ns3:atemp>31.0</ns3:atemp>
            <ns3:hr>94</ns3:hr>
          </ns3:TrackPointExtension>
        </extensions>
      </trkpt>
      <trkpt lat="36.8496433831751346588134765625" lon="-118.4126600436866283416748046875">
        <ele>2932.60009765625</ele>
        <time>2021-06-27T22:42:19.000Z</time>
        <extensions>
          <ns3:TrackPointExtension>
            <ns3:atemp>31.0</ns3:atemp>
            <ns3:hr>97</ns3:hr>
          </ns3:TrackPointExtension>
        </extensions>
      </trkpt>
      <trkpt lat="36.84965193271636962890625" lon="-118.412655852735042572021484375">
        <ele>2932.60009765625</ele>
        <time>2021-06-27T22:42:20.000Z</time>
        <extensions>
          <ns3:TrackPointExtension>
            <ns3:atemp>31.0</ns3:atemp>
            <ns3:hr>95</ns3:hr>
          </ns3:TrackPointExtension>
        </extensions>
      </trkpt>
      <trkpt lat="36.84965888969600200653076171875" lon="-118.41265560127794742584228515625">
        <ele>2932.60009765625</ele>
        <time>2021-06-27T22:42:21.000Z</time>
        <extensions>
          <ns3:TrackPointExtension>
            <ns3:atemp>31.0</ns3:atemp>
            <ns3:hr>98</ns3:hr>
          </ns3:TrackPointExtension>
        </extensions>
      </trkpt>
      <trkpt lat="36.84971957467496395111083984375" lon="-118.41266247443854808807373046875">
        <ele>2932</ele>
        <time>2021-06-27T22:42:27.000Z</time>
        <extensions>
          <ns3:TrackPointExtension>
            <ns3:atemp>31.0</ns3:atemp>
            <ns3:hr>99</ns3:hr>
          </ns3:TrackPointExtension>
        </extensions>
      </trkpt>
      <trkpt lat="36.84972326271235942840576171875" lon="-118.41266968287527561187744140625">
        <ele>2931.800048828125</ele>
        <time>2021-06-27T22:42:28.000Z</time>
        <extensions>
          <ns3:TrackPointExtension>
            <ns3:atemp>31.0</ns3:atemp>
            <ns3:hr>100</ns3:hr>
          </ns3:TrackPointExtension>
        </extensions>
      </trkpt>
      <trkpt lat="36.849760897457599639892578125" lon="-118.41267270036041736602783203125">
        <ele>2931.60009765625</ele>
        <time>2021-06-27T22:42:31.000Z</time>
        <extensions>
          <ns3:TrackPointExtension>
            <ns3:atemp>31.0</ns3:atemp>
            <ns3:hr>97</ns3:hr>
          </ns3:TrackPointExtension>
        </extensions>
      </trkpt>
      <trkpt lat="36.84977958910167217254638671875" lon="-118.412671945989131927490234375">
        <ele>2931.199951171875</ele>
        <time>2021-06-27T22:42:34.000Z</time>
        <extensions>
          <ns3:TrackPointExtension>
            <ns3:atemp>31.0</ns3:atemp>
            <ns3:hr>95</ns3:hr>
          </ns3:TrackPointExtension>
        </extensions>
      </trkpt>
      <trkpt lat="36.8497905693948268890380859375" lon="-118.41268091462552547454833984375">
        <ele>2931.199951171875</ele>
        <time>2021-06-27T22:42:35.000Z</time>
        <extensions>
          <ns3:TrackPointExtension>
            <ns3:atemp>31.0</ns3:atemp>
            <ns3:hr>99</ns3:hr>
          </ns3:TrackPointExtension>
        </extensions>
      </trkpt>
      <trkpt lat="36.8498033098876476287841796875" lon="-118.41268770396709442138671875">
        <ele>2931.199951171875</ele>
        <time>2021-06-27T22:42:36.000Z</time>
        <extensions>
          <ns3:TrackPointExtension>
            <ns3:atemp>31.0</ns3:atemp>
            <ns3:hr>99</ns3:hr>
          </ns3:TrackPointExtension>
        </extensions>
      </trkpt>
      <trkpt lat="36.84982954524457454681396484375" lon="-118.41268192045390605926513671875">
        <ele>2930.39990234375</ele>
        <time>2021-06-27T22:42:39.000Z</time>
        <extensions>
          <ns3:TrackPointExtension>
            <ns3:atemp>31.0</ns3:atemp>
            <ns3:hr>98</ns3:hr>
          </ns3:TrackPointExtension>
        </extensions>
      </trkpt>
      <trkpt lat="36.84986541979014873504638671875" lon="-118.41264604590833187103271484375">
        <ele>2929.39990234375</ele>
        <time>2021-06-27T22:42:44.000Z</time>
        <extensions>
          <ns3:TrackPointExtension>
            <ns3:atemp>31.0</ns3:atemp>
            <ns3:hr>100</ns3:hr>
          </ns3:TrackPointExtension>
        </extensions>
      </trkpt>
      <trkpt lat="36.849882937967777252197265625" lon="-118.412643112242221832275390625">
        <ele>2929.199951171875</ele>
        <time>2021-06-27T22:42:46.000Z</time>
        <extensions>
          <ns3:TrackPointExtension>
            <ns3:atemp>31.0</ns3:atemp>
            <ns3:hr>101</ns3:hr>
          </ns3:TrackPointExtension>
        </extensions>
      </trkpt>
      <trkpt lat="36.84989525936543941497802734375" lon="-118.41263732872903347015380859375">
        <ele>2929.199951171875</ele>
        <time>2021-06-27T22:42:47.000Z</time>
        <extensions>
          <ns3:TrackPointExtension>
            <ns3:atemp>31.0</ns3:atemp>
            <ns3:hr>104</ns3:hr>
          </ns3:TrackPointExtension>
        </extensions>
      </trkpt>
      <trkpt lat="36.8499062396585941314697265625" lon="-118.4126278571784496307373046875">
        <ele>2929</ele>
        <time>2021-06-27T22:42:48.000Z</time>
        <extensions>
          <ns3:TrackPointExtension>
            <ns3:atemp>31.0</ns3:atemp>
            <ns3:hr>98</ns3:hr>
          </ns3:TrackPointExtension>
        </extensions>
      </trkpt>
      <trkpt lat="36.84991252608597278594970703125" lon="-118.41261528432369232177734375">
        <ele>2928.800048828125</ele>
        <time>2021-06-27T22:42:49.000Z</time>
        <extensions>
          <ns3:TrackPointExtension>
            <ns3:atemp>31.0</ns3:atemp>
            <ns3:hr>97</ns3:hr>
          </ns3:TrackPointExtension>
        </extensions>
      </trkpt>
      <trkpt lat="36.84991688467562198638916015625" lon="-118.412602879106998443603515625">
        <ele>2928.60009765625</ele>
        <time>2021-06-27T22:42:50.000Z</time>
        <extensions>
          <ns3:TrackPointExtension>
            <ns3:atemp>31.0</ns3:atemp>
            <ns3:hr>97</ns3:hr>
          </ns3:TrackPointExtension>
        </extensions>
      </trkpt>
      <trkpt lat="36.84991939924657344818115234375" lon="-118.4125976823270320892333984375">
        <ele>2927.60009765625</ele>
        <time>2021-06-27T22:42:51.000Z</time>
        <extensions>
          <ns3:TrackPointExtension>
            <ns3:atemp>31.0</ns3:atemp>
            <ns3:hr>98</ns3:hr>
          </ns3:TrackPointExtension>
        </extensions>
      </trkpt>
      <trkpt lat="36.8499216623604297637939453125" lon="-118.4125953353941440582275390625">
        <ele>2927.39990234375</ele>
        <time>2021-06-27T22:42:52.000Z</time>
        <extensions>
          <ns3:TrackPointExtension>
            <ns3:atemp>31.0</ns3:atemp>
            <ns3:hr>97</ns3:hr>
          </ns3:TrackPointExtension>
        </extensions>
      </trkpt>
      <trkpt lat="36.8499307148158550262451171875" lon="-118.41260011307895183563232421875">
        <ele>2927</ele>
        <time>2021-06-27T22:42:55.000Z</time>
        <extensions>
          <ns3:TrackPointExtension>
            <ns3:atemp>31.0</ns3:atemp>
            <ns3:hr>96</ns3:hr>
          </ns3:TrackPointExtension>
        </extensions>
      </trkpt>
      <trkpt lat="36.8499350734055042266845703125" lon="-118.41259944252669811248779296875">
        <ele>2926.39990234375</ele>
        <time>2021-06-27T22:42:56.000Z</time>
        <extensions>
          <ns3:TrackPointExtension>
            <ns3:atemp>31.0</ns3:atemp>
            <ns3:hr>94</ns3:hr>
          </ns3:TrackPointExtension>
        </extensions>
      </trkpt>
      <trkpt lat="36.8499404378235340118408203125" lon="-118.41259793378412723541259765625">
        <ele>2926.39990234375</ele>
        <time>2021-06-27T22:42:57.000Z</time>
        <extensions>
          <ns3:TrackPointExtension>
            <ns3:atemp>31.0</ns3:atemp>
            <ns3:hr>97</ns3:hr>
          </ns3:TrackPointExtension>
        </extensions>
      </trkpt>
      <trkpt lat="36.84994898736476898193359375" lon="-118.41260321438312530517578125">
        <ele>2926.39990234375</ele>
        <time>2021-06-27T22:42:58.000Z</time>
        <extensions>
          <ns3:TrackPointExtension>
            <ns3:atemp>31.0</ns3:atemp>
            <ns3:hr>98</ns3:hr>
          </ns3:TrackPointExtension>
        </extensions>
      </trkpt>
      <trkpt lat="36.84995577670633792877197265625" lon="-118.41261184774339199066162109375">
        <ele>2926.39990234375</ele>
        <time>2021-06-27T22:42:59.000Z</time>
        <extensions>
          <ns3:TrackPointExtension>
            <ns3:atemp>31.0</ns3:atemp>
            <ns3:hr>95</ns3:hr>
          </ns3:TrackPointExtension>
        </extensions>
      </trkpt>
      <trkpt lat="36.8499602191150188446044921875" lon="-118.41261796653270721435546875">
        <ele>2926.199951171875</ele>
        <time>2021-06-27T22:43:01.000Z</time>
        <extensions>
          <ns3:TrackPointExtension>
            <ns3:atemp>31.0</ns3:atemp>
            <ns3:hr>93</ns3:hr>
          </ns3:TrackPointExtension>
        </extensions>
      </trkpt>
      <trkpt lat="36.84996214695274829864501953125" lon="-118.412633053958415985107421875">
        <ele>2925.60009765625</ele>
        <time>2021-06-27T22:43:03.000Z</time>
        <extensions>
          <ns3:TrackPointExtension>
            <ns3:atemp>31.0</ns3:atemp>
            <ns3:hr>91</ns3:hr>
          </ns3:TrackPointExtension>
        </extensions>
      </trkpt>
      <trkpt lat="36.84997036121785640716552734375" lon="-118.41269399039447307586669921875">
        <ele>2925.60009765625</ele>
        <time>2021-06-27T22:43:08.000Z</time>
        <extensions>
          <ns3:TrackPointExtension>
            <ns3:atemp>31.0</ns3:atemp>
            <ns3:hr>88</ns3:hr>
          </ns3:TrackPointExtension>
        </extensions>
      </trkpt>
      <trkpt lat="36.8499670922756195068359375" lon="-118.4126962535083293914794921875">
        <ele>2925.60009765625</ele>
        <time>2021-06-27T22:43:09.000Z</time>
        <extensions>
          <ns3:TrackPointExtension>
            <ns3:atemp>31.0</ns3:atemp>
            <ns3:hr>87</ns3:hr>
          </ns3:TrackPointExtension>
        </extensions>
      </trkpt>
      <trkpt lat="36.8499608896672725677490234375" lon="-118.41269918717443943023681640625">
        <ele>2925.800048828125</ele>
        <time>2021-06-27T22:43:10.000Z</time>
        <extensions>
          <ns3:TrackPointExtension>
            <ns3:atemp>31.0</ns3:atemp>
            <ns3:hr>88</ns3:hr>
          </ns3:TrackPointExtension>
        </extensions>
      </trkpt>
      <trkpt lat="36.84994018636643886566162109375" lon="-118.41271628625690937042236328125">
        <ele>2925.800048828125</ele>
        <time>2021-06-27T22:43:13.000Z</time>
        <extensions>
          <ns3:TrackPointExtension>
            <ns3:atemp>31.0</ns3:atemp>
            <ns3:hr>88</ns3:hr>
          </ns3:TrackPointExtension>
        </extensions>
      </trkpt>
      <trkpt lat="36.8499377556145191192626953125" lon="-118.41275920160114765167236328125">
        <ele>2925.60009765625</ele>
        <time>2021-06-27T22:43:18.000Z</time>
        <extensions>
          <ns3:TrackPointExtension>
            <ns3:atemp>31.0</ns3:atemp>
            <ns3:hr>88</ns3:hr>
          </ns3:TrackPointExtension>
        </extensions>
      </trkpt>
      <trkpt lat="36.84993951581418514251708984375" lon="-118.41277378611266613006591796875">
        <ele>2925.39990234375</ele>
        <time>2021-06-27T22:43:21.000Z</time>
        <extensions>
          <ns3:TrackPointExtension>
            <ns3:atemp>31.0</ns3:atemp>
            <ns3:hr>91</ns3:hr>
          </ns3:TrackPointExtension>
        </extensions>
      </trkpt>
      <trkpt lat="36.8499327264726161956787109375" lon="-118.4127723611891269683837890625">
        <ele>2925.199951171875</ele>
        <time>2021-06-27T22:43:23.000Z</time>
        <extensions>
          <ns3:TrackPointExtension>
            <ns3:atemp>31.0</ns3:atemp>
            <ns3:hr>91</ns3:hr>
          </ns3:TrackPointExtension>
        </extensions>
      </trkpt>
      <trkpt lat="36.84993834234774112701416015625" lon="-118.41278837062418460845947265625">
        <ele>2925.199951171875</ele>
        <time>2021-06-27T22:43:26.000Z</time>
        <extensions>
          <ns3:TrackPointExtension>
            <ns3:atemp>31.0</ns3:atemp>
            <ns3:hr>95</ns3:hr>
          </ns3:TrackPointExtension>
        </extensions>
      </trkpt>
      <trkpt lat="36.84996105730533599853515625" lon="-118.4128189645707607269287109375">
        <ele>2925.199951171875</ele>
        <time>2021-06-27T22:43:32.000Z</time>
        <extensions>
          <ns3:TrackPointExtension>
            <ns3:atemp>31.0</ns3:atemp>
            <ns3:hr>96</ns3:hr>
          </ns3:TrackPointExtension>
        </extensions>
      </trkpt>
      <trkpt lat="36.84995225630700588226318359375" lon="-118.4128588624298572540283203125">
        <ele>2924.800048828125</ele>
        <time>2021-06-27T22:43:39.000Z</time>
        <extensions>
          <ns3:TrackPointExtension>
            <ns3:atemp>31.0</ns3:atemp>
            <ns3:hr>96</ns3:hr>
          </ns3:TrackPointExtension>
        </extensions>
      </trkpt>
      <trkpt lat="36.8499831855297088623046875" lon="-118.41289314441382884979248046875">
        <ele>2924.800048828125</ele>
        <time>2021-06-27T22:43:45.000Z</time>
        <extensions>
          <ns3:TrackPointExtension>
            <ns3:atemp>31.0</ns3:atemp>
            <ns3:hr>98</ns3:hr>
          </ns3:TrackPointExtension>
        </extensions>
      </trkpt>
      <trkpt lat="36.849987544119358062744140625" lon="-118.4129014424979686737060546875">
        <ele>2924.199951171875</ele>
        <time>2021-06-27T22:43:48.000Z</time>
        <extensions>
          <ns3:TrackPointExtension>
            <ns3:atemp>31.0</ns3:atemp>
            <ns3:hr>99</ns3:hr>
          </ns3:TrackPointExtension>
        </extensions>
      </trkpt>
      <trkpt lat="36.8499820120632648468017578125" lon="-118.41289599426090717315673828125">
        <ele>2924</ele>
        <time>2021-06-27T22:43:52.000Z</time>
        <extensions>
          <ns3:TrackPointExtension>
            <ns3:atemp>31.0</ns3:atemp>
            <ns3:hr>99</ns3:hr>
          </ns3:TrackPointExtension>
        </extensions>
      </trkpt>
      <trkpt lat="36.849984191358089447021484375" lon="-118.412884511053562164306640625">
        <ele>2924</ele>
        <time>2021-06-27T22:44:00.000Z</time>
        <extensions>
          <ns3:TrackPointExtension>
            <ns3:atemp>31.0</ns3:atemp>
            <ns3:hr>99</ns3:hr>
          </ns3:TrackPointExtension>
        </extensions>
      </trkpt>
      <trkpt lat="36.849984191358089447021484375" lon="-118.412884511053562164306640625">
        <ele>2924.60009765625</ele>
        <time>2021-06-27T22:44:06.000Z</time>
        <extensions>
          <ns3:TrackPointExtension>
            <ns3:atemp>31.0</ns3:atemp>
            <ns3:hr>96</ns3:hr>
          </ns3:TrackPointExtension>
        </extensions>
      </trkpt>
      <trkpt lat="36.84999735094606876373291015625" lon="-118.4129054658114910125732421875">
        <ele>2925.199951171875</ele>
        <time>2021-06-27T22:44:20.000Z</time>
        <extensions>
          <ns3:TrackPointExtension>
            <ns3:atemp>31.0</ns3:atemp>
            <ns3:hr>92</ns3:hr>
          </ns3:TrackPointExtension>
        </extensions>
      </trkpt>
      <trkpt lat="36.84999802149832248687744140625" lon="-118.4129091538488864898681640625">
        <ele>2925.199951171875</ele>
        <time>2021-06-27T22:44:21.000Z</time>
        <extensions>
          <ns3:TrackPointExtension>
            <ns3:atemp>31.0</ns3:atemp>
            <ns3:hr>91</ns3:hr>
          </ns3:TrackPointExtension>
        </extensions>
      </trkpt>
      <trkpt lat="36.8500004522502422332763671875" lon="-118.4129311144351959228515625">
        <ele>2926.39990234375</ele>
        <time>2021-06-27T22:44:25.000Z</time>
        <extensions>
          <ns3:TrackPointExtension>
            <ns3:atemp>31.0</ns3:atemp>
            <ns3:hr>90</ns3:hr>
          </ns3:TrackPointExtension>
        </extensions>
      </trkpt>
      <trkpt lat="36.8500014580786228179931640625" lon="-118.41293823905289173126220703125">
        <ele>2926.60009765625</ele>
        <time>2021-06-27T22:44:27.000Z</time>
        <extensions>
          <ns3:TrackPointExtension>
            <ns3:atemp>31.0</ns3:atemp>
            <ns3:hr>89</ns3:hr>
          </ns3:TrackPointExtension>
        </extensions>
      </trkpt>
      <trkpt lat="36.85000263154506683349609375" lon="-118.41294586658477783203125">
        <ele>2926.800048828125</ele>
        <time>2021-06-27T22:44:30.000Z</time>
        <extensions>
          <ns3:TrackPointExtension>
            <ns3:atemp>31.0</ns3:atemp>
            <ns3:hr>94</ns3:hr>
          </ns3:TrackPointExtension>
        </extensions>
      </trkpt>
      <trkpt lat="36.8500031344592571258544921875" lon="-118.4129525721073150634765625">
        <ele>2927.60009765625</ele>
        <time>2021-06-27T22:44:31.000Z</time>
        <extensions>
          <ns3:TrackPointExtension>
            <ns3:atemp>31.0</ns3:atemp>
            <ns3:hr>91</ns3:hr>
          </ns3:TrackPointExtension>
        </extensions>
      </trkpt>
      <trkpt lat="36.8500269390642642974853515625" lon="-118.4129701741039752960205078125">
        <ele>2928.199951171875</ele>
        <time>2021-06-27T22:44:34.000Z</time>
        <extensions>
          <ns3:TrackPointExtension>
            <ns3:atemp>31.0</ns3:atemp>
            <ns3:hr>95</ns3:hr>
          </ns3:TrackPointExtension>
        </extensions>
      </trkpt>
      <trkpt lat="36.85006164014339447021484375" lon="-118.4129882790148258209228515625">
        <ele>2928.60009765625</ele>
        <time>2021-06-27T22:44:36.000Z</time>
        <extensions>
          <ns3:TrackPointExtension>
            <ns3:atemp>31.0</ns3:atemp>
            <ns3:hr>98</ns3:hr>
          </ns3:TrackPointExtension>
        </extensions>
      </trkpt>
      <trkpt lat="36.85008108615875244140625" lon="-118.4130013547837734222412109375">
        <ele>2928.39990234375</ele>
        <time>2021-06-27T22:44:37.000Z</time>
        <extensions>
          <ns3:TrackPointExtension>
            <ns3:atemp>31.0</ns3:atemp>
            <ns3:hr>98</ns3:hr>
          </ns3:TrackPointExtension>
        </extensions>
      </trkpt>
      <trkpt lat="36.8500993587076663970947265625" lon="-118.413012586534023284912109375">
        <ele>2928.800048828125</ele>
        <time>2021-06-27T22:44:38.000Z</time>
        <extensions>
          <ns3:TrackPointExtension>
            <ns3:atemp>31.0</ns3:atemp>
            <ns3:hr>100</ns3:hr>
          </ns3:TrackPointExtension>
        </extensions>
      </trkpt>
      <trkpt lat="36.8501617200672626495361328125" lon="-118.4130560047924518585205078125">
        <ele>2929.199951171875</ele>
        <time>2021-06-27T22:44:42.000Z</time>
        <extensions>
          <ns3:TrackPointExtension>
            <ns3:atemp>31.0</ns3:atemp>
            <ns3:hr>103</ns3:hr>
          </ns3:TrackPointExtension>
        </extensions>
      </trkpt>
      <trkpt lat="36.8501784838736057281494140625" lon="-118.41306312941014766693115234375">
        <ele>2930</ele>
        <time>2021-06-27T22:44:45.000Z</time>
        <extensions>
          <ns3:TrackPointExtension>
            <ns3:atemp>31.0</ns3:atemp>
            <ns3:hr>105</ns3:hr>
          </ns3:TrackPointExtension>
        </extensions>
      </trkpt>
      <trkpt lat="36.8501838482916355133056640625" lon="-118.4130623750388622283935546875">
        <ele>2930</ele>
        <time>2021-06-27T22:44:46.000Z</time>
        <extensions>
          <ns3:TrackPointExtension>
            <ns3:atemp>31.0</ns3:atemp>
            <ns3:hr>106</ns3:hr>
          </ns3:TrackPointExtension>
        </extensions>
      </trkpt>
      <trkpt lat="36.85020673088729381561279296875" lon="-118.41306212358176708221435546875">
        <ele>2930.39990234375</ele>
        <time>2021-06-27T22:44:51.000Z</time>
        <extensions>
          <ns3:TrackPointExtension>
            <ns3:atemp>31.0</ns3:atemp>
            <ns3:hr>109</ns3:hr>
          </ns3:TrackPointExtension>
        </extensions>
      </trkpt>
      <trkpt lat="36.85021041892468929290771484375" lon="-118.41306732036173343658447265625">
        <ele>2930.39990234375</ele>
        <time>2021-06-27T22:44:52.000Z</time>
        <extensions>
          <ns3:TrackPointExtension>
            <ns3:atemp>31.0</ns3:atemp>
            <ns3:hr>110</ns3:hr>
          </ns3:TrackPointExtension>
        </extensions>
      </trkpt>
      <trkpt lat="36.85023992322385311126708984375" lon="-118.41307670809328556060791015625">
        <ele>2931.199951171875</ele>
        <time>2021-06-27T22:44:56.000Z</time>
        <extensions>
          <ns3:TrackPointExtension>
            <ns3:atemp>31.0</ns3:atemp>
            <ns3:hr>111</ns3:hr>
          </ns3:TrackPointExtension>
        </extensions>
      </trkpt>
      <trkpt lat="36.8502514064311981201171875" lon="-118.41308408416807651519775390625">
        <ele>2931.39990234375</ele>
        <time>2021-06-27T22:44:58.000Z</time>
        <extensions>
          <ns3:TrackPointExtension>
            <ns3:atemp>31.0</ns3:atemp>
            <ns3:hr>110</ns3:hr>
          </ns3:TrackPointExtension>
        </extensions>
      </trkpt>
      <trkpt lat="36.85025744140148162841796875" lon="-118.413109146058559417724609375">
        <ele>2932</ele>
        <time>2021-06-27T22:45:02.000Z</time>
        <extensions>
          <ns3:TrackPointExtension>
            <ns3:atemp>31.0</ns3:atemp>
            <ns3:hr>109</ns3:hr>
          </ns3:TrackPointExtension>
        </extensions>
      </trkpt>
      <trkpt lat="36.85025081969797611236572265625" lon="-118.413121215999126434326171875">
        <ele>2932.199951171875</ele>
        <time>2021-06-27T22:45:05.000Z</time>
        <extensions>
          <ns3:TrackPointExtension>
            <ns3:atemp>31.0</ns3:atemp>
            <ns3:hr>109</ns3:hr>
          </ns3:TrackPointExtension>
        </extensions>
      </trkpt>
      <trkpt lat="36.8502509035170078277587890625" lon="-118.41312901116907596588134765625">
        <ele>2932.60009765625</ele>
        <time>2021-06-27T22:45:06.000Z</time>
        <extensions>
          <ns3:TrackPointExtension>
            <ns3:atemp>31.0</ns3:atemp>
            <ns3:hr>109</ns3:hr>
          </ns3:TrackPointExtension>
        </extensions>
      </trkpt>
      <trkpt lat="36.850249730050563812255859375" lon="-118.413138650357723236083984375">
        <ele>2932.60009765625</ele>
        <time>2021-06-27T22:45:07.000Z</time>
        <extensions>
          <ns3:TrackPointExtension>
            <ns3:atemp>31.0</ns3:atemp>
            <ns3:hr>108</ns3:hr>
          </ns3:TrackPointExtension>
        </extensions>
      </trkpt>
      <trkpt lat="36.85025400482118129730224609375" lon="-118.41315516270697116851806640625">
        <ele>2933</ele>
        <time>2021-06-27T22:45:09.000Z</time>
        <extensions>
          <ns3:TrackPointExtension>
            <ns3:atemp>31.0</ns3:atemp>
            <ns3:hr>109</ns3:hr>
          </ns3:TrackPointExtension>
        </extensions>
      </trkpt>
      <trkpt lat="36.85027630068361759185791015625" lon="-118.41315164230763912200927734375">
        <ele>2933.199951171875</ele>
        <time>2021-06-27T22:45:12.000Z</time>
        <extensions>
          <ns3:TrackPointExtension>
            <ns3:atemp>31.0</ns3:atemp>
            <ns3:hr>111</ns3:hr>
          </ns3:TrackPointExtension>
        </extensions>
      </trkpt>
      <trkpt lat="36.85030572116374969482421875" lon="-118.4131388179957866668701171875">
        <ele>2933.39990234375</ele>
        <time>2021-06-27T22:45:16.000Z</time>
        <extensions>
          <ns3:TrackPointExtension>
            <ns3:atemp>31.0</ns3:atemp>
            <ns3:hr>112</ns3:hr>
          </ns3:TrackPointExtension>
        </extensions>
      </trkpt>
      <trkpt lat="36.85032139532268047332763671875" lon="-118.41313806362450122833251953125">
        <ele>2933.800048828125</ele>
        <time>2021-06-27T22:45:18.000Z</time>
        <extensions>
          <ns3:TrackPointExtension>
            <ns3:atemp>31.0</ns3:atemp>
            <ns3:hr>113</ns3:hr>
          </ns3:TrackPointExtension>
        </extensions>
      </trkpt>
      <trkpt lat="36.8503303639590740203857421875" lon="-118.41313353739678859710693359375">
        <ele>2934</ele>
        <time>2021-06-27T22:45:19.000Z</time>
        <extensions>
          <ns3:TrackPointExtension>
            <ns3:atemp>31.0</ns3:atemp>
            <ns3:hr>113</ns3:hr>
          </ns3:TrackPointExtension>
        </extensions>
      </trkpt>
      <trkpt lat="36.8503390811383724212646484375" lon="-118.413131274282932281494140625">
        <ele>2934</ele>
        <time>2021-06-27T22:45:20.000Z</time>
        <extensions>
          <ns3:TrackPointExtension>
            <ns3:atemp>31.0</ns3:atemp>
            <ns3:hr>114</ns3:hr>
          </ns3:TrackPointExtension>
        </extensions>
      </trkpt>
      <trkpt lat="36.8503940664231777191162109375" lon="-118.4131391532719135284423828125">
        <ele>2934.800048828125</ele>
        <time>2021-06-27T22:45:27.000Z</time>
        <extensions>
          <ns3:TrackPointExtension>
            <ns3:atemp>31.0</ns3:atemp>
            <ns3:hr>117</ns3:hr>
          </ns3:TrackPointExtension>
        </extensions>
      </trkpt>
      <trkpt lat="36.85040337033569812774658203125" lon="-118.4131408296525478363037109375">
        <ele>2934.800048828125</ele>
        <time>2021-06-27T22:45:28.000Z</time>
        <extensions>
          <ns3:TrackPointExtension>
            <ns3:atemp>31.0</ns3:atemp>
            <ns3:hr>117</ns3:hr>
          </ns3:TrackPointExtension>
        </extensions>
      </trkpt>
      <trkpt lat="36.8504416756331920623779296875" lon="-118.413117863237857818603515625">
        <ele>2934.800048828125</ele>
        <time>2021-06-27T22:45:33.000Z</time>
        <extensions>
          <ns3:TrackPointExtension>
            <ns3:atemp>31.0</ns3:atemp>
            <ns3:hr>118</ns3:hr>
          </ns3:TrackPointExtension>
        </extensions>
      </trkpt>
      <trkpt lat="36.85044645331799983978271484375" lon="-118.4131109900772571563720703125">
        <ele>2934.800048828125</ele>
        <time>2021-06-27T22:45:35.000Z</time>
        <extensions>
          <ns3:TrackPointExtension>
            <ns3:atemp>31.0</ns3:atemp>
            <ns3:hr>119</ns3:hr>
          </ns3:TrackPointExtension>
        </extensions>
      </trkpt>
      <trkpt lat="36.85047738254070281982421875" lon="-118.41309539973735809326171875">
        <ele>2934</ele>
        <time>2021-06-27T22:45:45.000Z</time>
        <extensions>
          <ns3:TrackPointExtension>
            <ns3:atemp>31.0</ns3:atemp>
            <ns3:hr>118</ns3:hr>
          </ns3:TrackPointExtension>
        </extensions>
      </trkpt>
      <trkpt lat="36.85049573890864849090576171875" lon="-118.41301568783819675445556640625">
        <ele>2934.60009765625</ele>
        <time>2021-06-27T22:45:52.000Z</time>
        <extensions>
          <ns3:TrackPointExtension>
            <ns3:atemp>31.0</ns3:atemp>
            <ns3:hr>118</ns3:hr>
          </ns3:TrackPointExtension>
        </extensions>
      </trkpt>
      <trkpt lat="36.850515268743038177490234375" lon="-118.4129782207310199737548828125">
        <ele>2934.39990234375</ele>
        <time>2021-06-27T22:45:56.000Z</time>
        <extensions>
          <ns3:TrackPointExtension>
            <ns3:atemp>31.0</ns3:atemp>
            <ns3:hr>115</ns3:hr>
          </ns3:TrackPointExtension>
        </extensions>
      </trkpt>
      <trkpt lat="36.85051904059946537017822265625" lon="-118.4129691682755947113037109375">
        <ele>2934.60009765625</ele>
        <time>2021-06-27T22:45:57.000Z</time>
        <extensions>
          <ns3:TrackPointExtension>
            <ns3:atemp>31.0</ns3:atemp>
            <ns3:hr>114</ns3:hr>
          </ns3:TrackPointExtension>
        </extensions>
      </trkpt>
      <trkpt lat="36.8505523167550563812255859375" lon="-118.412936143577098846435546875">
        <ele>2934.800048828125</ele>
        <time>2021-06-27T22:46:01.000Z</time>
        <extensions>
          <ns3:TrackPointExtension>
            <ns3:atemp>31.0</ns3:atemp>
            <ns3:hr>111</ns3:hr>
          </ns3:TrackPointExtension>
        </extensions>
      </trkpt>
      <trkpt lat="36.85057234950363636016845703125" lon="-118.4129148535430431365966796875">
        <ele>2934.800048828125</ele>
        <time>2021-06-27T22:46:04.000Z</time>
        <extensions>
          <ns3:TrackPointExtension>
            <ns3:atemp>31.0</ns3:atemp>
            <ns3:hr>111</ns3:hr>
          </ns3:TrackPointExtension>
        </extensions>
      </trkpt>
      <trkpt lat="36.85057905502617359161376953125" lon="-118.41290630400180816650390625">
        <ele>2934.800048828125</ele>
        <time>2021-06-27T22:46:05.000Z</time>
        <extensions>
          <ns3:TrackPointExtension>
            <ns3:atemp>31.0</ns3:atemp>
            <ns3:hr>110</ns3:hr>
          </ns3:TrackPointExtension>
        </extensions>
      </trkpt>
      <trkpt lat="36.8505871854722499847412109375" lon="-118.41290102340281009674072265625">
        <ele>2934.800048828125</ele>
        <time>2021-06-27T22:46:06.000Z</time>
        <extensions>
          <ns3:TrackPointExtension>
            <ns3:atemp>31.0</ns3:atemp>
            <ns3:hr>111</ns3:hr>
          </ns3:TrackPointExtension>
        </extensions>
      </trkpt>
      <trkpt lat="36.85063429176807403564453125" lon="-118.41290186159312725067138671875">
        <ele>2935.199951171875</ele>
        <time>2021-06-27T22:46:11.000Z</time>
        <extensions>
          <ns3:TrackPointExtension>
            <ns3:atemp>31.0</ns3:atemp>
            <ns3:hr>108</ns3:hr>
          </ns3:TrackPointExtension>
        </extensions>
      </trkpt>
      <trkpt lat="36.85065709054470062255859375" lon="-118.41291761957108974456787109375">
        <ele>2935</ele>
        <time>2021-06-27T22:46:14.000Z</time>
        <extensions>
          <ns3:TrackPointExtension>
            <ns3:atemp>31.0</ns3:atemp>
            <ns3:hr>108</ns3:hr>
          </ns3:TrackPointExtension>
        </extensions>
      </trkpt>
      <trkpt lat="36.850692294538021087646484375" lon="-118.41292499564588069915771484375">
        <ele>2935</ele>
        <time>2021-06-27T22:46:17.000Z</time>
        <extensions>
          <ns3:TrackPointExtension>
            <ns3:atemp>31.0</ns3:atemp>
            <ns3:hr>108</ns3:hr>
          </ns3:TrackPointExtension>
        </extensions>
      </trkpt>
      <trkpt lat="36.85071601532399654388427734375" lon="-118.41291158460080623626708984375">
        <ele>2935</ele>
        <time>2021-06-27T22:46:19.000Z</time>
        <extensions>
          <ns3:TrackPointExtension>
            <ns3:atemp>31.0</ns3:atemp>
            <ns3:hr>107</ns3:hr>
          </ns3:TrackPointExtension>
        </extensions>
      </trkpt>
      <trkpt lat="36.85076513327658176422119140625" lon="-118.41288878582417964935302734375">
        <ele>2934.800048828125</ele>
        <time>2021-06-27T22:46:24.000Z</time>
        <extensions>
          <ns3:TrackPointExtension>
            <ns3:atemp>31.0</ns3:atemp>
            <ns3:hr>106</ns3:hr>
          </ns3:TrackPointExtension>
        </extensions>
      </trkpt>
      <trkpt lat="36.85081123374402523040771484375" lon="-118.4128431044518947601318359375">
        <ele>2934.800048828125</ele>
        <time>2021-06-27T22:46:30.000Z</time>
        <extensions>
          <ns3:TrackPointExtension>
            <ns3:atemp>31.0</ns3:atemp>
            <ns3:hr>109</ns3:hr>
          </ns3:TrackPointExtension>
        </extensions>
      </trkpt>
      <trkpt lat="36.8508450128138065338134765625" lon="-118.41283061541616916656494140625">
        <ele>2934.39990234375</ele>
        <time>2021-06-27T22:46:33.000Z</time>
        <extensions>
          <ns3:TrackPointExtension>
            <ns3:atemp>31.0</ns3:atemp>
            <ns3:hr>112</ns3:hr>
          </ns3:TrackPointExtension>
        </extensions>
      </trkpt>
      <trkpt lat="36.85086722485721111297607421875" lon="-118.412813432514667510986328125">
        <ele>2934.39990234375</ele>
        <time>2021-06-27T22:46:35.000Z</time>
        <extensions>
          <ns3:TrackPointExtension>
            <ns3:atemp>31.0</ns3:atemp>
            <ns3:hr>113</ns3:hr>
          </ns3:TrackPointExtension>
        </extensions>
      </trkpt>
      <trkpt lat="36.85090963728725910186767578125" lon="-118.41280060820281505584716796875">
        <ele>2934.39990234375</ele>
        <time>2021-06-27T22:46:40.000Z</time>
        <extensions>
          <ns3:TrackPointExtension>
            <ns3:atemp>31.0</ns3:atemp>
            <ns3:hr>115</ns3:hr>
          </ns3:TrackPointExtension>
        </extensions>
      </trkpt>
      <trkpt lat="36.8509663827717304229736328125" lon="-118.412767834961414337158203125">
        <ele>2934.199951171875</ele>
        <time>2021-06-27T22:46:47.000Z</time>
        <extensions>
          <ns3:TrackPointExtension>
            <ns3:atemp>31.0</ns3:atemp>
            <ns3:hr>112</ns3:hr>
          </ns3:TrackPointExtension>
        </extensions>
      </trkpt>
      <trkpt lat="36.850973926484584808349609375" lon="-118.41274780221283435821533203125">
        <ele>2933.800048828125</ele>
        <time>2021-06-27T22:46:49.000Z</time>
        <extensions>
          <ns3:TrackPointExtension>
            <ns3:atemp>31.0</ns3:atemp>
            <ns3:hr>110</ns3:hr>
          </ns3:TrackPointExtension>
        </extensions>
      </trkpt>
      <trkpt lat="36.85099295340478420257568359375" lon="-118.41270505450665950775146484375">
        <ele>2933.199951171875</ele>
        <time>2021-06-27T22:46:53.000Z</time>
        <extensions>
          <ns3:TrackPointExtension>
            <ns3:atemp>31.0</ns3:atemp>
            <ns3:hr>108</ns3:hr>
          </ns3:TrackPointExtension>
        </extensions>
      </trkpt>
      <trkpt lat="36.85101675800979137420654296875" lon="-118.41267454437911510467529296875">
        <ele>2933.199951171875</ele>
        <time>2021-06-27T22:46:57.000Z</time>
        <extensions>
          <ns3:TrackPointExtension>
            <ns3:atemp>31.0</ns3:atemp>
            <ns3:hr>108</ns3:hr>
          </ns3:TrackPointExtension>
        </extensions>
      </trkpt>
      <trkpt lat="36.8510421551764011383056640625" lon="-118.412616290152072906494140625">
        <ele>2933</ele>
        <time>2021-06-27T22:47:03.000Z</time>
        <extensions>
          <ns3:TrackPointExtension>
            <ns3:atemp>31.0</ns3:atemp>
            <ns3:hr>105</ns3:hr>
          </ns3:TrackPointExtension>
        </extensions>
      </trkpt>
      <trkpt lat="36.8510441668331623077392578125" lon="-118.41260933317244052886962890625">
        <ele>2932.800048828125</ele>
        <time>2021-06-27T22:47:04.000Z</time>
        <extensions>
          <ns3:TrackPointExtension>
            <ns3:atemp>31.0</ns3:atemp>
            <ns3:hr>105</ns3:hr>
          </ns3:TrackPointExtension>
        </extensions>
      </trkpt>
      <trkpt lat="36.85108012519776821136474609375" lon="-118.41260111890733242034912109375">
        <ele>2932.800048828125</ele>
        <time>2021-06-27T22:47:08.000Z</time>
        <extensions>
          <ns3:TrackPointExtension>
            <ns3:atemp>31.0</ns3:atemp>
            <ns3:hr>108</ns3:hr>
          </ns3:TrackPointExtension>
        </extensions>
      </trkpt>
      <trkpt lat="36.85108733363449573516845703125" lon="-118.4126006998121738433837890625">
        <ele>2932.60009765625</ele>
        <time>2021-06-27T22:47:09.000Z</time>
        <extensions>
          <ns3:TrackPointExtension>
            <ns3:atemp>31.0</ns3:atemp>
            <ns3:hr>107</ns3:hr>
          </ns3:TrackPointExtension>
        </extensions>
      </trkpt>
      <trkpt lat="36.85110694728791713714599609375" lon="-118.412606902420520782470703125">
        <ele>2932.60009765625</ele>
        <time>2021-06-27T22:47:11.000Z</time>
        <extensions>
          <ns3:TrackPointExtension>
            <ns3:atemp>31.0</ns3:atemp>
            <ns3:hr>107</ns3:hr>
          </ns3:TrackPointExtension>
        </extensions>
      </trkpt>
      <trkpt lat="36.85112806968390941619873046875" lon="-118.41261788271367549896240234375">
        <ele>2932.60009765625</ele>
        <time>2021-06-27T22:47:14.000Z</time>
        <extensions>
          <ns3:TrackPointExtension>
            <ns3:atemp>31.0</ns3:atemp>
            <ns3:hr>106</ns3:hr>
          </ns3:TrackPointExtension>
        </extensions>
      </trkpt>
      <trkpt lat="36.85116897337138652801513671875" lon="-118.41261855326592922210693359375">
        <ele>2932.60009765625</ele>
        <time>2021-06-27T22:47:18.000Z</time>
        <extensions>
          <ns3:TrackPointExtension>
            <ns3:atemp>31.0</ns3:atemp>
            <ns3:hr>105</ns3:hr>
          </ns3:TrackPointExtension>
        </extensions>
      </trkpt>
      <trkpt lat="36.8512121401727199554443359375" lon="-118.41261587105691432952880859375">
        <ele>2932.60009765625</ele>
        <time>2021-06-27T22:47:23.000Z</time>
        <extensions>
          <ns3:TrackPointExtension>
            <ns3:atemp>31.0</ns3:atemp>
            <ns3:hr>105</ns3:hr>
          </ns3:TrackPointExtension>
        </extensions>
      </trkpt>
      <trkpt lat="36.8512429855763912200927734375" lon="-118.41262727044522762298583984375">
        <ele>2932.60009765625</ele>
        <time>2021-06-27T22:47:27.000Z</time>
        <extensions>
          <ns3:TrackPointExtension>
            <ns3:atemp>31.0</ns3:atemp>
            <ns3:hr>104</ns3:hr>
          </ns3:TrackPointExtension>
        </extensions>
      </trkpt>
      <trkpt lat="36.85127475298941135406494140625" lon="-118.4126295335590839385986328125">
        <ele>2931.39990234375</ele>
        <time>2021-06-27T22:47:30.000Z</time>
        <extensions>
          <ns3:TrackPointExtension>
            <ns3:atemp>31.0</ns3:atemp>
            <ns3:hr>104</ns3:hr>
          </ns3:TrackPointExtension>
        </extensions>
      </trkpt>
      <trkpt lat="36.851292438805103302001953125" lon="-118.412620313465595245361328125">
        <ele>2930.800048828125</ele>
        <time>2021-06-27T22:47:33.000Z</time>
        <extensions>
          <ns3:TrackPointExtension>
            <ns3:atemp>31.0</ns3:atemp>
            <ns3:hr>103</ns3:hr>
          </ns3:TrackPointExtension>
        </extensions>
      </trkpt>
      <trkpt lat="36.85132822953164577484130859375" lon="-118.4126238338649272918701171875">
        <ele>2930.199951171875</ele>
        <time>2021-06-27T22:47:37.000Z</time>
        <extensions>
          <ns3:TrackPointExtension>
            <ns3:atemp>31.0</ns3:atemp>
            <ns3:hr>104</ns3:hr>
          </ns3:TrackPointExtension>
        </extensions>
      </trkpt>
      <trkpt lat="36.85136494226753711700439453125" lon="-118.412611596286296844482421875">
        <ele>2929.60009765625</ele>
        <time>2021-06-27T22:47:41.000Z</time>
        <extensions>
          <ns3:TrackPointExtension>
            <ns3:atemp>31.0</ns3:atemp>
            <ns3:hr>106</ns3:hr>
          </ns3:TrackPointExtension>
        </extensions>
      </trkpt>
      <trkpt lat="36.8513992242515087127685546875" lon="-118.41259709559381008148193359375">
        <ele>2929.199951171875</ele>
        <time>2021-06-27T22:47:44.000Z</time>
        <extensions>
          <ns3:TrackPointExtension>
            <ns3:atemp>31.0</ns3:atemp>
            <ns3:hr>107</ns3:hr>
          </ns3:TrackPointExtension>
        </extensions>
      </trkpt>
      <trkpt lat="36.8514307402074337005615234375" lon="-118.41258804313838481903076171875">
        <ele>2928.800048828125</ele>
        <time>2021-06-27T22:47:47.000Z</time>
        <extensions>
          <ns3:TrackPointExtension>
            <ns3:atemp>31.0</ns3:atemp>
            <ns3:hr>108</ns3:hr>
          </ns3:TrackPointExtension>
        </extensions>
      </trkpt>
      <trkpt lat="36.85147918760776519775390625" lon="-118.41255065985023975372314453125">
        <ele>2928.39990234375</ele>
        <time>2021-06-27T22:47:53.000Z</time>
        <extensions>
          <ns3:TrackPointExtension>
            <ns3:atemp>31.0</ns3:atemp>
            <ns3:hr>109</ns3:hr>
          </ns3:TrackPointExtension>
        </extensions>
      </trkpt>
      <trkpt lat="36.851498968899250030517578125" lon="-118.41254596598446369171142578125">
        <ele>2928.199951171875</ele>
        <time>2021-06-27T22:47:55.000Z</time>
        <extensions>
          <ns3:TrackPointExtension>
            <ns3:atemp>31.0</ns3:atemp>
            <ns3:hr>108</ns3:hr>
          </ns3:TrackPointExtension>
        </extensions>
      </trkpt>
      <trkpt lat="36.85150860808789730072021484375" lon="-118.4125403501093387603759765625">
        <ele>2927.800048828125</ele>
        <time>2021-06-27T22:47:56.000Z</time>
        <extensions>
          <ns3:TrackPointExtension>
            <ns3:atemp>31.0</ns3:atemp>
            <ns3:hr>108</ns3:hr>
          </ns3:TrackPointExtension>
        </extensions>
      </trkpt>
      <trkpt lat="36.85152973048388957977294921875" lon="-118.41253615915775299072265625">
        <ele>2927.199951171875</ele>
        <time>2021-06-27T22:47:59.000Z</time>
        <extensions>
          <ns3:TrackPointExtension>
            <ns3:atemp>31.0</ns3:atemp>
            <ns3:hr>107</ns3:hr>
          </ns3:TrackPointExtension>
        </extensions>
      </trkpt>
      <trkpt lat="36.8515568040311336517333984375" lon="-118.4125289507210254669189453125">
        <ele>2926.800048828125</ele>
        <time>2021-06-27T22:48:02.000Z</time>
        <extensions>
          <ns3:TrackPointExtension>
            <ns3:atemp>31.0</ns3:atemp>
            <ns3:hr>107</ns3:hr>
          </ns3:TrackPointExtension>
        </extensions>
      </trkpt>
      <trkpt lat="36.85157247819006443023681640625" lon="-118.41252367012202739715576171875">
        <ele>2926.199951171875</ele>
        <time>2021-06-27T22:48:04.000Z</time>
        <extensions>
          <ns3:TrackPointExtension>
            <ns3:atemp>31.0</ns3:atemp>
            <ns3:hr>106</ns3:hr>
          </ns3:TrackPointExtension>
        </extensions>
      </trkpt>
      <trkpt lat="36.8516054190695285797119140625" lon="-118.4125234186649322509765625">
        <ele>2925.39990234375</ele>
        <time>2021-06-27T22:48:08.000Z</time>
        <extensions>
          <ns3:TrackPointExtension>
            <ns3:atemp>31.0</ns3:atemp>
            <ns3:hr>101</ns3:hr>
          </ns3:TrackPointExtension>
        </extensions>
      </trkpt>
      <trkpt lat="36.85163517482578754425048828125" lon="-118.4125292859971523284912109375">
        <ele>2924</ele>
        <time>2021-06-27T22:48:12.000Z</time>
        <extensions>
          <ns3:TrackPointExtension>
            <ns3:atemp>31.0</ns3:atemp>
            <ns3:hr>102</ns3:hr>
          </ns3:TrackPointExtension>
        </extensions>
      </trkpt>
      <trkpt lat="36.85165042988955974578857421875" lon="-118.41252702288329601287841796875">
        <ele>2923.800048828125</ele>
        <time>2021-06-27T22:48:14.000Z</time>
        <extensions>
          <ns3:TrackPointExtension>
            <ns3:atemp>31.0</ns3:atemp>
            <ns3:hr>102</ns3:hr>
          </ns3:TrackPointExtension>
        </extensions>
      </trkpt>
      <trkpt lat="36.8516999669373035430908203125" lon="-118.41254412196576595306396484375">
        <ele>2923</ele>
        <time>2021-06-27T22:48:20.000Z</time>
        <extensions>
          <ns3:TrackPointExtension>
            <ns3:atemp>31.0</ns3:atemp>
            <ns3:hr>104</ns3:hr>
          </ns3:TrackPointExtension>
        </extensions>
      </trkpt>
      <trkpt lat="36.85170290060341358184814453125" lon="-118.4125554375350475311279296875">
        <ele>2922.60009765625</ele>
        <time>2021-06-27T22:48:22.000Z</time>
        <extensions>
          <ns3:TrackPointExtension>
            <ns3:atemp>31.0</ns3:atemp>
            <ns3:hr>103</ns3:hr>
          </ns3:TrackPointExtension>
        </extensions>
      </trkpt>
      <trkpt lat="36.85173139907419681549072265625" lon="-118.412590809166431427001953125">
        <ele>2922</ele>
        <time>2021-06-27T22:48:26.000Z</time>
        <extensions>
          <ns3:TrackPointExtension>
            <ns3:atemp>31.0</ns3:atemp>
            <ns3:hr>104</ns3:hr>
          </ns3:TrackPointExtension>
        </extensions>
      </trkpt>
      <trkpt lat="36.8517412059009075164794921875" lon="-118.412600867450237274169921875">
        <ele>2922</ele>
        <time>2021-06-27T22:48:27.000Z</time>
        <extensions>
          <ns3:TrackPointExtension>
            <ns3:atemp>31.0</ns3:atemp>
            <ns3:hr>104</ns3:hr>
          </ns3:TrackPointExtension>
        </extensions>
      </trkpt>
      <trkpt lat="36.85174631886184215545654296875" lon="-118.4126077406108379364013671875">
        <ele>2921.800048828125</ele>
        <time>2021-06-27T22:48:28.000Z</time>
        <extensions>
          <ns3:TrackPointExtension>
            <ns3:atemp>31.0</ns3:atemp>
            <ns3:hr>103</ns3:hr>
          </ns3:TrackPointExtension>
        </extensions>
      </trkpt>
      <trkpt lat="36.851768530905246734619140625" lon="-118.412625677883625030517578125">
        <ele>2921.199951171875</ele>
        <time>2021-06-27T22:48:31.000Z</time>
        <extensions>
          <ns3:TrackPointExtension>
            <ns3:atemp>31.0</ns3:atemp>
            <ns3:hr>101</ns3:hr>
          </ns3:TrackPointExtension>
        </extensions>
      </trkpt>
      <trkpt lat="36.8517800979316234588623046875" lon="-118.412625677883625030517578125">
        <ele>2920.800048828125</ele>
        <time>2021-06-27T22:48:32.000Z</time>
        <extensions>
          <ns3:TrackPointExtension>
            <ns3:atemp>31.0</ns3:atemp>
            <ns3:hr>101</ns3:hr>
          </ns3:TrackPointExtension>
        </extensions>
      </trkpt>
      <trkpt lat="36.85180415399372577667236328125" lon="-118.41262022964656352996826171875">
        <ele>2920.199951171875</ele>
        <time>2021-06-27T22:48:35.000Z</time>
        <extensions>
          <ns3:TrackPointExtension>
            <ns3:atemp>31.0</ns3:atemp>
            <ns3:hr>100</ns3:hr>
          </ns3:TrackPointExtension>
        </extensions>
      </trkpt>
      <trkpt lat="36.851813457906246185302734375" lon="-118.41261662542819976806640625">
        <ele>2919.800048828125</ele>
        <time>2021-06-27T22:48:36.000Z</time>
        <extensions>
          <ns3:TrackPointExtension>
            <ns3:atemp>31.0</ns3:atemp>
            <ns3:hr>100</ns3:hr>
          </ns3:TrackPointExtension>
        </extensions>
      </trkpt>
      <trkpt lat="36.85187288559973239898681640625" lon="-118.4126141108572483062744140625">
        <ele>2918.39990234375</ele>
        <time>2021-06-27T22:48:43.000Z</time>
        <extensions>
          <ns3:TrackPointExtension>
            <ns3:atemp>30.0</ns3:atemp>
            <ns3:hr>99</ns3:hr>
          </ns3:TrackPointExtension>
        </extensions>
      </trkpt>
      <trkpt lat="36.851881854236125946044921875" lon="-118.4126100875437259674072265625">
        <ele>2918.199951171875</ele>
        <time>2021-06-27T22:48:44.000Z</time>
        <extensions>
          <ns3:TrackPointExtension>
            <ns3:atemp>30.0</ns3:atemp>
            <ns3:hr>100</ns3:hr>
          </ns3:TrackPointExtension>
        </extensions>
      </trkpt>
      <trkpt lat="36.85193239711225032806396484375" lon="-118.41260380111634731292724609375">
        <ele>2917.199951171875</ele>
        <time>2021-06-27T22:48:51.000Z</time>
        <extensions>
          <ns3:TrackPointExtension>
            <ns3:atemp>30.0</ns3:atemp>
            <ns3:hr>102</ns3:hr>
          </ns3:TrackPointExtension>
        </extensions>
      </trkpt>
      <trkpt lat="36.851938851177692413330078125" lon="-118.41261553578078746795654296875">
        <ele>2917.199951171875</ele>
        <time>2021-06-27T22:48:52.000Z</time>
        <extensions>
          <ns3:TrackPointExtension>
            <ns3:atemp>30.0</ns3:atemp>
            <ns3:hr>98</ns3:hr>
          </ns3:TrackPointExtension>
        </extensions>
      </trkpt>
      <trkpt lat="36.8519457243382930755615234375" lon="-118.41262106783688068389892578125">
        <ele>2917</ele>
        <time>2021-06-27T22:48:53.000Z</time>
        <extensions>
          <ns3:TrackPointExtension>
            <ns3:atemp>30.0</ns3:atemp>
            <ns3:hr>98</ns3:hr>
          </ns3:TrackPointExtension>
        </extensions>
      </trkpt>
      <trkpt lat="36.851992495357990264892578125" lon="-118.4126429446041584014892578125">
        <ele>2916.199951171875</ele>
        <time>2021-06-27T22:48:58.000Z</time>
        <extensions>
          <ns3:TrackPointExtension>
            <ns3:atemp>30.0</ns3:atemp>
            <ns3:hr>97</ns3:hr>
          </ns3:TrackPointExtension>
        </extensions>
      </trkpt>
      <trkpt lat="36.85202292166650295257568359375" lon="-118.4126682579517364501953125">
        <ele>2916.199951171875</ele>
        <time>2021-06-27T22:49:01.000Z</time>
        <extensions>
          <ns3:TrackPointExtension>
            <ns3:atemp>30.0</ns3:atemp>
            <ns3:hr>97</ns3:hr>
          </ns3:TrackPointExtension>
        </extensions>
      </trkpt>
      <trkpt lat="36.8520318903028964996337890625" lon="-118.41267974115908145904541015625">
        <ele>2916</ele>
        <time>2021-06-27T22:49:02.000Z</time>
        <extensions>
          <ns3:TrackPointExtension>
            <ns3:atemp>30.0</ns3:atemp>
            <ns3:hr>95</ns3:hr>
          </ns3:TrackPointExtension>
        </extensions>
      </trkpt>
      <trkpt lat="36.8520543538033962249755859375" lon="-118.4127063117921352386474609375">
        <ele>2915.800048828125</ele>
        <time>2021-06-27T22:49:05.000Z</time>
        <extensions>
          <ns3:TrackPointExtension>
            <ns3:atemp>30.0</ns3:atemp>
            <ns3:hr>92</ns3:hr>
          </ns3:TrackPointExtension>
        </extensions>
      </trkpt>
      <trkpt lat="36.85205829329788684844970703125" lon="-118.41272533871233463287353515625">
        <ele>2915.199951171875</ele>
        <time>2021-06-27T22:49:07.000Z</time>
        <extensions>
          <ns3:TrackPointExtension>
            <ns3:atemp>30.0</ns3:atemp>
            <ns3:hr>91</ns3:hr>
          </ns3:TrackPointExtension>
        </extensions>
      </trkpt>
      <trkpt lat="36.8520630709826946258544921875" lon="-118.41275702230632305145263671875">
        <ele>2915</ele>
        <time>2021-06-27T22:49:10.000Z</time>
        <extensions>
          <ns3:TrackPointExtension>
            <ns3:atemp>30.0</ns3:atemp>
            <ns3:hr>88</ns3:hr>
          </ns3:TrackPointExtension>
        </extensions>
      </trkpt>
      <trkpt lat="36.85208939015865325927734375" lon="-118.4127931483089923858642578125">
        <ele>2914.60009765625</ele>
        <time>2021-06-27T22:49:14.000Z</time>
        <extensions>
          <ns3:TrackPointExtension>
            <ns3:atemp>30.0</ns3:atemp>
            <ns3:hr>86</ns3:hr>
          </ns3:TrackPointExtension>
        </extensions>
      </trkpt>
      <trkpt lat="36.85210573486983776092529296875" lon="-118.4128102473914623260498046875">
        <ele>2914.39990234375</ele>
        <time>2021-06-27T22:49:16.000Z</time>
        <extensions>
          <ns3:TrackPointExtension>
            <ns3:atemp>30.0</ns3:atemp>
            <ns3:hr>84</ns3:hr>
          </ns3:TrackPointExtension>
        </extensions>
      </trkpt>
      <trkpt lat="36.85214311815798282623291015625" lon="-118.41285995207726955413818359375">
        <ele>2914</ele>
        <time>2021-06-27T22:49:22.000Z</time>
        <extensions>
          <ns3:TrackPointExtension>
            <ns3:atemp>30.0</ns3:atemp>
            <ns3:hr>83</ns3:hr>
          </ns3:TrackPointExtension>
        </extensions>
      </trkpt>
      <trkpt lat="36.852149404585361480712890625" lon="-118.412876129150390625">
        <ele>2914</ele>
        <time>2021-06-27T22:49:24.000Z</time>
        <extensions>
          <ns3:TrackPointExtension>
            <ns3:atemp>30.0</ns3:atemp>
            <ns3:hr>82</ns3:hr>
          </ns3:TrackPointExtension>
        </extensions>
      </trkpt>
      <trkpt lat="36.85214898549020290374755859375" lon="-118.412887193262577056884765625">
        <ele>2913.39990234375</ele>
        <time>2021-06-27T22:49:25.000Z</time>
        <extensions>
          <ns3:TrackPointExtension>
            <ns3:atemp>30.0</ns3:atemp>
            <ns3:hr>81</ns3:hr>
          </ns3:TrackPointExtension>
        </extensions>
      </trkpt>
      <trkpt lat="36.85215166769921779632568359375" lon="-118.412921726703643798828125">
        <ele>2913.199951171875</ele>
        <time>2021-06-27T22:49:28.000Z</time>
        <extensions>
          <ns3:TrackPointExtension>
            <ns3:atemp>30.0</ns3:atemp>
            <ns3:hr>78</ns3:hr>
          </ns3:TrackPointExtension>
        </extensions>
      </trkpt>
      <trkpt lat="36.85215770266950130462646484375" lon="-118.4129319526255130767822265625">
        <ele>2912.800048828125</ele>
        <time>2021-06-27T22:49:29.000Z</time>
        <extensions>
          <ns3:TrackPointExtension>
            <ns3:atemp>30.0</ns3:atemp>
            <ns3:hr>77</ns3:hr>
          </ns3:TrackPointExtension>
        </extensions>
      </trkpt>
      <trkpt lat="36.85216155834496021270751953125" lon="-118.4129399992525577545166015625">
        <ele>2912.199951171875</ele>
        <time>2021-06-27T22:49:30.000Z</time>
        <extensions>
          <ns3:TrackPointExtension>
            <ns3:atemp>30.0</ns3:atemp>
            <ns3:hr>76</ns3:hr>
          </ns3:TrackPointExtension>
        </extensions>
      </trkpt>
      <trkpt lat="36.85216876678168773651123046875" lon="-118.41294611804187297821044921875">
        <ele>2912.199951171875</ele>
        <time>2021-06-27T22:49:31.000Z</time>
        <extensions>
          <ns3:TrackPointExtension>
            <ns3:atemp>30.0</ns3:atemp>
            <ns3:hr>76</ns3:hr>
          </ns3:TrackPointExtension>
        </extensions>
      </trkpt>
      <trkpt lat="36.85221939347684383392333984375" lon="-118.4129752032458782196044921875">
        <ele>2911.60009765625</ele>
        <time>2021-06-27T22:49:36.000Z</time>
        <extensions>
          <ns3:TrackPointExtension>
            <ns3:atemp>30.0</ns3:atemp>
            <ns3:hr>75</ns3:hr>
          </ns3:TrackPointExtension>
        </extensions>
      </trkpt>
      <trkpt lat="36.85224219225347042083740234375" lon="-118.41297738254070281982421875">
        <ele>2911</ele>
        <time>2021-06-27T22:49:38.000Z</time>
        <extensions>
          <ns3:TrackPointExtension>
            <ns3:atemp>30.0</ns3:atemp>
            <ns3:hr>74</ns3:hr>
          </ns3:TrackPointExtension>
        </extensions>
      </trkpt>
      <trkpt lat="36.8523014523088932037353515625" lon="-118.4129976667463779449462890625">
        <ele>2910.199951171875</ele>
        <time>2021-06-27T22:49:44.000Z</time>
        <extensions>
          <ns3:TrackPointExtension>
            <ns3:atemp>30.0</ns3:atemp>
            <ns3:hr>75</ns3:hr>
          </ns3:TrackPointExtension>
        </extensions>
      </trkpt>
      <trkpt lat="36.852343194186687469482421875" lon="-118.413010574877262115478515625">
        <ele>2909.800048828125</ele>
        <time>2021-06-27T22:49:48.000Z</time>
        <extensions>
          <ns3:TrackPointExtension>
            <ns3:atemp>30.0</ns3:atemp>
            <ns3:hr>77</ns3:hr>
          </ns3:TrackPointExtension>
        </extensions>
      </trkpt>
      <trkpt lat="36.85235048644244670867919921875" lon="-118.41301350854337215423583984375">
        <ele>2909.800048828125</ele>
        <time>2021-06-27T22:49:49.000Z</time>
        <extensions>
          <ns3:TrackPointExtension>
            <ns3:atemp>30.0</ns3:atemp>
            <ns3:hr>77</ns3:hr>
          </ns3:TrackPointExtension>
        </extensions>
      </trkpt>
      <trkpt lat="36.852361299097537994384765625" lon="-118.41303027234971523284912109375">
        <ele>2909.60009765625</ele>
        <time>2021-06-27T22:49:51.000Z</time>
        <extensions>
          <ns3:TrackPointExtension>
            <ns3:atemp>30.0</ns3:atemp>
            <ns3:hr>78</ns3:hr>
          </ns3:TrackPointExtension>
        </extensions>
      </trkpt>
      <trkpt lat="36.85236071236431598663330078125" lon="-118.4130845032632350921630859375">
        <ele>2909.199951171875</ele>
        <time>2021-06-27T22:49:55.000Z</time>
        <extensions>
          <ns3:TrackPointExtension>
            <ns3:atemp>30.0</ns3:atemp>
            <ns3:hr>78</ns3:hr>
          </ns3:TrackPointExtension>
        </extensions>
      </trkpt>
      <trkpt lat="36.8523436971008777618408203125" lon="-118.4131322801113128662109375">
        <ele>2909.199951171875</ele>
        <time>2021-06-27T22:49:59.000Z</time>
        <extensions>
          <ns3:TrackPointExtension>
            <ns3:atemp>30.0</ns3:atemp>
            <ns3:hr>78</ns3:hr>
          </ns3:TrackPointExtension>
        </extensions>
      </trkpt>
      <trkpt lat="36.85232634656131267547607421875" lon="-118.41316689737141132354736328125">
        <ele>2909</ele>
        <time>2021-06-27T22:50:02.000Z</time>
        <extensions>
          <ns3:TrackPointExtension>
            <ns3:atemp>30.0</ns3:atemp>
            <ns3:hr>81</ns3:hr>
          </ns3:TrackPointExtension>
        </extensions>
      </trkpt>
      <trkpt lat="36.852299608290195465087890625" lon="-118.4132015146315097808837890625">
        <ele>2909</ele>
        <time>2021-06-27T22:50:06.000Z</time>
        <extensions>
          <ns3:TrackPointExtension>
            <ns3:atemp>30.0</ns3:atemp>
            <ns3:hr>78</ns3:hr>
          </ns3:TrackPointExtension>
        </extensions>
      </trkpt>
      <trkpt lat="36.85229055583477020263671875" lon="-118.41321283020079135894775390625">
        <ele>2909</ele>
        <time>2021-06-27T22:50:07.000Z</time>
        <extensions>
          <ns3:TrackPointExtension>
            <ns3:atemp>30.0</ns3:atemp>
            <ns3:hr>78</ns3:hr>
          </ns3:TrackPointExtension>
        </extensions>
      </trkpt>
      <trkpt lat="36.85225375927984714508056640625" lon="-118.41327770613133907318115234375">
        <ele>2908.60009765625</ele>
        <time>2021-06-27T22:50:14.000Z</time>
        <extensions>
          <ns3:TrackPointExtension>
            <ns3:atemp>30.0</ns3:atemp>
            <ns3:hr>79</ns3:hr>
          </ns3:TrackPointExtension>
        </extensions>
      </trkpt>
      <trkpt lat="36.85224588029086589813232421875" lon="-118.4132900275290012359619140625">
        <ele>2908</ele>
        <time>2021-06-27T22:50:15.000Z</time>
        <extensions>
          <ns3:TrackPointExtension>
            <ns3:atemp>30.0</ns3:atemp>
            <ns3:hr>78</ns3:hr>
          </ns3:TrackPointExtension>
        </extensions>
      </trkpt>
      <trkpt lat="36.85223615728318691253662109375" lon="-118.41330721043050289154052734375">
        <ele>2907.60009765625</ele>
        <time>2021-06-27T22:50:17.000Z</time>
        <extensions>
          <ns3:TrackPointExtension>
            <ns3:atemp>30.0</ns3:atemp>
            <ns3:hr>79</ns3:hr>
          </ns3:TrackPointExtension>
        </extensions>
      </trkpt>
      <trkpt lat="36.85221117921173572540283203125" lon="-118.4133589267730712890625">
        <ele>2906.800048828125</ele>
        <time>2021-06-27T22:50:22.000Z</time>
        <extensions>
          <ns3:TrackPointExtension>
            <ns3:atemp>30.0</ns3:atemp>
            <ns3:hr>79</ns3:hr>
          </ns3:TrackPointExtension>
        </extensions>
      </trkpt>
      <trkpt lat="36.852197349071502685546875" lon="-118.41340628452599048614501953125">
        <ele>2906.60009765625</ele>
        <time>2021-06-27T22:50:26.000Z</time>
        <extensions>
          <ns3:TrackPointExtension>
            <ns3:atemp>30.0</ns3:atemp>
            <ns3:hr>82</ns3:hr>
          </ns3:TrackPointExtension>
        </extensions>
      </trkpt>
      <trkpt lat="36.85219491831958293914794921875" lon="-118.413422964513301849365234375">
        <ele>2906.39990234375</ele>
        <time>2021-06-27T22:50:28.000Z</time>
        <extensions>
          <ns3:TrackPointExtension>
            <ns3:atemp>30.0</ns3:atemp>
            <ns3:hr>84</ns3:hr>
          </ns3:TrackPointExtension>
        </extensions>
      </trkpt>
      <trkpt lat="36.85218594968318939208984375" lon="-118.413439728319644927978515625">
        <ele>2906</ele>
        <time>2021-06-27T22:50:30.000Z</time>
        <extensions>
          <ns3:TrackPointExtension>
            <ns3:atemp>30.0</ns3:atemp>
            <ns3:hr>85</ns3:hr>
          </ns3:TrackPointExtension>
        </extensions>
      </trkpt>
      <trkpt lat="36.8521673418581485748291015625" lon="-118.41348289512097835540771484375">
        <ele>2905.199951171875</ele>
        <time>2021-06-27T22:50:34.000Z</time>
        <extensions>
          <ns3:TrackPointExtension>
            <ns3:atemp>30.0</ns3:atemp>
            <ns3:hr>87</ns3:hr>
          </ns3:TrackPointExtension>
        </extensions>
      </trkpt>
      <trkpt lat="36.852162145078182220458984375" lon="-118.41350368224084377288818359375">
        <ele>2904.60009765625</ele>
        <time>2021-06-27T22:50:36.000Z</time>
        <extensions>
          <ns3:TrackPointExtension>
            <ns3:atemp>30.0</ns3:atemp>
            <ns3:hr>87</ns3:hr>
          </ns3:TrackPointExtension>
        </extensions>
      </trkpt>
      <trkpt lat="36.85215954668819904327392578125" lon="-118.413554392755031585693359375">
        <ele>2904</ele>
        <time>2021-06-27T22:50:40.000Z</time>
        <extensions>
          <ns3:TrackPointExtension>
            <ns3:atemp>30.0</ns3:atemp>
            <ns3:hr>87</ns3:hr>
          </ns3:TrackPointExtension>
        </extensions>
      </trkpt>
      <trkpt lat="36.8521515838801860809326171875" lon="-118.41357191093266010284423828125">
        <ele>2903.60009765625</ele>
        <time>2021-06-27T22:50:42.000Z</time>
        <extensions>
          <ns3:TrackPointExtension>
            <ns3:atemp>30.0</ns3:atemp>
            <ns3:hr>87</ns3:hr>
          </ns3:TrackPointExtension>
        </extensions>
      </trkpt>
      <trkpt lat="36.8521331436932086944580078125" lon="-118.4135793708264827728271484375">
        <ele>2902.800048828125</ele>
        <time>2021-06-27T22:50:44.000Z</time>
        <extensions>
          <ns3:TrackPointExtension>
            <ns3:atemp>30.0</ns3:atemp>
            <ns3:hr>87</ns3:hr>
          </ns3:TrackPointExtension>
        </extensions>
      </trkpt>
      <trkpt lat="36.8521262705326080322265625" lon="-118.41361650265753269195556640625">
        <ele>2902.60009765625</ele>
        <time>2021-06-27T22:50:47.000Z</time>
        <extensions>
          <ns3:TrackPointExtension>
            <ns3:atemp>30.0</ns3:atemp>
            <ns3:hr>84</ns3:hr>
          </ns3:TrackPointExtension>
        </extensions>
      </trkpt>
      <trkpt lat="36.85212668962776660919189453125" lon="-118.41363452374935150146484375">
        <ele>2902.39990234375</ele>
        <time>2021-06-27T22:50:48.000Z</time>
        <extensions>
          <ns3:TrackPointExtension>
            <ns3:atemp>30.0</ns3:atemp>
            <ns3:hr>83</ns3:hr>
          </ns3:TrackPointExtension>
        </extensions>
      </trkpt>
      <trkpt lat="36.85213758610188961029052734375" lon="-118.41366243548691272735595703125">
        <ele>2902.199951171875</ele>
        <time>2021-06-27T22:50:50.000Z</time>
        <extensions>
          <ns3:TrackPointExtension>
            <ns3:atemp>30.0</ns3:atemp>
            <ns3:hr>80</ns3:hr>
          </ns3:TrackPointExtension>
        </extensions>
      </trkpt>
      <trkpt lat="36.852149069309234619140625" lon="-118.41370694339275360107421875">
        <ele>2902</ele>
        <time>2021-06-27T22:50:53.000Z</time>
        <extensions>
          <ns3:TrackPointExtension>
            <ns3:atemp>30.0</ns3:atemp>
            <ns3:hr>77</ns3:hr>
          </ns3:TrackPointExtension>
        </extensions>
      </trkpt>
      <trkpt lat="36.85215049423277378082275390625" lon="-118.413728736340999603271484375">
        <ele>2901.800048828125</ele>
        <time>2021-06-27T22:50:54.000Z</time>
        <extensions>
          <ns3:TrackPointExtension>
            <ns3:atemp>30.0</ns3:atemp>
            <ns3:hr>77</ns3:hr>
          </ns3:TrackPointExtension>
        </extensions>
      </trkpt>
      <trkpt lat="36.85214999131858348846435546875" lon="-118.4137587435543537139892578125">
        <ele>2902</ele>
        <time>2021-06-27T22:50:56.000Z</time>
        <extensions>
          <ns3:TrackPointExtension>
            <ns3:atemp>30.0</ns3:atemp>
            <ns3:hr>76</ns3:hr>
          </ns3:TrackPointExtension>
        </extensions>
      </trkpt>
      <trkpt lat="36.85214512981474399566650390625" lon="-118.41377936303615570068359375">
        <ele>2902</ele>
        <time>2021-06-27T22:50:58.000Z</time>
        <extensions>
          <ns3:TrackPointExtension>
            <ns3:atemp>30.0</ns3:atemp>
            <ns3:hr>75</ns3:hr>
          </ns3:TrackPointExtension>
        </extensions>
      </trkpt>
      <trkpt lat="36.8521316349506378173828125" lon="-118.413815908133983612060546875">
        <ele>2901.60009765625</ele>
        <time>2021-06-27T22:51:01.000Z</time>
        <extensions>
          <ns3:TrackPointExtension>
            <ns3:atemp>30.0</ns3:atemp>
            <ns3:hr>75</ns3:hr>
          </ns3:TrackPointExtension>
        </extensions>
      </trkpt>
      <trkpt lat="36.85214261524379253387451171875" lon="-118.41383694671094417572021484375">
        <ele>2901.39990234375</ele>
        <time>2021-06-27T22:51:03.000Z</time>
        <extensions>
          <ns3:TrackPointExtension>
            <ns3:atemp>30.0</ns3:atemp>
            <ns3:hr>76</ns3:hr>
          </ns3:TrackPointExtension>
        </extensions>
      </trkpt>
      <trkpt lat="36.852181255817413330078125" lon="-118.41390467248857021331787109375">
        <ele>2901.199951171875</ele>
        <time>2021-06-27T22:51:09.000Z</time>
        <extensions>
          <ns3:TrackPointExtension>
            <ns3:atemp>30.0</ns3:atemp>
            <ns3:hr>77</ns3:hr>
          </ns3:TrackPointExtension>
        </extensions>
      </trkpt>
      <trkpt lat="36.85218905098736286163330078125" lon="-118.4139277227222919464111328125">
        <ele>2901.199951171875</ele>
        <time>2021-06-27T22:51:11.000Z</time>
        <extensions>
          <ns3:TrackPointExtension>
            <ns3:atemp>30.0</ns3:atemp>
            <ns3:hr>78</ns3:hr>
          </ns3:TrackPointExtension>
        </extensions>
      </trkpt>
      <trkpt lat="36.85218653641641139984130859375" lon="-118.41395546682178974151611328125">
        <ele>2901.199951171875</ele>
        <time>2021-06-27T22:51:14.000Z</time>
        <extensions>
          <ns3:TrackPointExtension>
            <ns3:atemp>30.0</ns3:atemp>
            <ns3:hr>81</ns3:hr>
          </ns3:TrackPointExtension>
        </extensions>
      </trkpt>
      <trkpt lat="36.852178908884525299072265625" lon="-118.41396979987621307373046875">
        <ele>2901.199951171875</ele>
        <time>2021-06-27T22:51:15.000Z</time>
        <extensions>
          <ns3:TrackPointExtension>
            <ns3:atemp>30.0</ns3:atemp>
            <ns3:hr>82</ns3:hr>
          </ns3:TrackPointExtension>
        </extensions>
      </trkpt>
      <trkpt lat="36.852164156734943389892578125" lon="-118.41403040103614330291748046875">
        <ele>2900.60009765625</ele>
        <time>2021-06-27T22:51:20.000Z</time>
        <extensions>
          <ns3:TrackPointExtension>
            <ns3:atemp>30.0</ns3:atemp>
            <ns3:hr>82</ns3:hr>
          </ns3:TrackPointExtension>
        </extensions>
      </trkpt>
      <trkpt lat="36.85215803794562816619873046875" lon="-118.41409318149089813232421875">
        <ele>2900.39990234375</ele>
        <time>2021-06-27T22:51:25.000Z</time>
        <extensions>
          <ns3:TrackPointExtension>
            <ns3:atemp>30.0</ns3:atemp>
            <ns3:hr>83</ns3:hr>
          </ns3:TrackPointExtension>
        </extensions>
      </trkpt>
      <trkpt lat="36.85212685726583003997802734375" lon="-118.4141503460705280303955078125">
        <ele>2900</ele>
        <time>2021-06-27T22:51:29.000Z</time>
        <extensions>
          <ns3:TrackPointExtension>
            <ns3:atemp>30.0</ns3:atemp>
            <ns3:hr>79</ns3:hr>
          </ns3:TrackPointExtension>
        </extensions>
      </trkpt>
      <trkpt lat="36.85212266631424427032470703125" lon="-118.4141694568097591400146484375">
        <ele>2900</ele>
        <time>2021-06-27T22:51:30.000Z</time>
        <extensions>
          <ns3:TrackPointExtension>
            <ns3:atemp>30.0</ns3:atemp>
            <ns3:hr>82</ns3:hr>
          </ns3:TrackPointExtension>
        </extensions>
      </trkpt>
      <trkpt lat="36.852132976055145263671875" lon="-118.41421119868755340576171875">
        <ele>2900</ele>
        <time>2021-06-27T22:51:32.000Z</time>
        <extensions>
          <ns3:TrackPointExtension>
            <ns3:atemp>30.0</ns3:atemp>
            <ns3:hr>82</ns3:hr>
          </ns3:TrackPointExtension>
        </extensions>
      </trkpt>
      <trkpt lat="36.852137334644794464111328125" lon="-118.41422636993229389190673828125">
        <ele>2900</ele>
        <time>2021-06-27T22:51:33.000Z</time>
        <extensions>
          <ns3:TrackPointExtension>
            <ns3:atemp>30.0</ns3:atemp>
            <ns3:hr>83</ns3:hr>
          </ns3:TrackPointExtension>
        </extensions>
      </trkpt>
      <trkpt lat="36.85215166769921779632568359375" lon="-118.41426526196300983428955078125">
        <ele>2899.800048828125</ele>
        <time>2021-06-27T22:51:35.000Z</time>
        <extensions>
          <ns3:TrackPointExtension>
            <ns3:atemp>30.0</ns3:atemp>
            <ns3:hr>82</ns3:hr>
          </ns3:TrackPointExtension>
        </extensions>
      </trkpt>
      <trkpt lat="36.852162815630435943603515625" lon="-118.41429744847118854522705078125">
        <ele>2899.800048828125</ele>
        <time>2021-06-27T22:51:37.000Z</time>
        <extensions>
          <ns3:TrackPointExtension>
            <ns3:atemp>30.0</ns3:atemp>
            <ns3:hr>83</ns3:hr>
          </ns3:TrackPointExtension>
        </extensions>
      </trkpt>
      <trkpt lat="36.8521649949252605438232421875" lon="-118.4143204987049102783203125">
        <ele>2899.800048828125</ele>
        <time>2021-06-27T22:51:38.000Z</time>
        <extensions>
          <ns3:TrackPointExtension>
            <ns3:atemp>30.0</ns3:atemp>
            <ns3:hr>83</ns3:hr>
          </ns3:TrackPointExtension>
        </extensions>
      </trkpt>
      <trkpt lat="36.852178908884525299072265625" lon="-118.414344973862171173095703125">
        <ele>2899.800048828125</ele>
        <time>2021-06-27T22:51:39.000Z</time>
        <extensions>
          <ns3:TrackPointExtension>
            <ns3:atemp>30.0</ns3:atemp>
            <ns3:hr>83</ns3:hr>
          </ns3:TrackPointExtension>
        </extensions>
      </trkpt>
      <trkpt lat="36.85218670405447483062744140625" lon="-118.41440297663211822509765625">
        <ele>2899.60009765625</ele>
        <time>2021-06-27T22:51:43.000Z</time>
        <extensions>
          <ns3:TrackPointExtension>
            <ns3:atemp>30.0</ns3:atemp>
            <ns3:hr>85</ns3:hr>
          </ns3:TrackPointExtension>
        </extensions>
      </trkpt>
      <trkpt lat="36.85219173319637775421142578125" lon="-118.4144450537860393524169921875">
        <ele>2899.60009765625</ele>
        <time>2021-06-27T22:51:46.000Z</time>
        <extensions>
          <ns3:TrackPointExtension>
            <ns3:atemp>30.0</ns3:atemp>
            <ns3:hr>87</ns3:hr>
          </ns3:TrackPointExtension>
        </extensions>
      </trkpt>
      <trkpt lat="36.85218058526515960693359375" lon="-118.41448319144546985626220703125">
        <ele>2899.39990234375</ele>
        <time>2021-06-27T22:51:49.000Z</time>
        <extensions>
          <ns3:TrackPointExtension>
            <ns3:atemp>30.0</ns3:atemp>
            <ns3:hr>89</ns3:hr>
          </ns3:TrackPointExtension>
        </extensions>
      </trkpt>
      <trkpt lat="36.85218016617000102996826171875" lon="-118.4145322255790233612060546875">
        <ele>2899.39990234375</ele>
        <time>2021-06-27T22:51:53.000Z</time>
        <extensions>
          <ns3:TrackPointExtension>
            <ns3:atemp>30.0</ns3:atemp>
            <ns3:hr>88</ns3:hr>
          </ns3:TrackPointExtension>
        </extensions>
      </trkpt>
      <trkpt lat="36.85218133963644504547119140625" lon="-118.41455644927918910980224609375">
        <ele>2899.39990234375</ele>
        <time>2021-06-27T22:51:55.000Z</time>
        <extensions>
          <ns3:TrackPointExtension>
            <ns3:atemp>30.0</ns3:atemp>
            <ns3:hr>88</ns3:hr>
          </ns3:TrackPointExtension>
        </extensions>
      </trkpt>
      <trkpt lat="36.8521981872618198394775390625" lon="-118.4146733768284320831298828125">
        <ele>2899</ele>
        <time>2021-06-27T22:52:02.000Z</time>
        <extensions>
          <ns3:TrackPointExtension>
            <ns3:atemp>30.0</ns3:atemp>
            <ns3:hr>86</ns3:hr>
          </ns3:TrackPointExtension>
        </extensions>
      </trkpt>
      <trkpt lat="36.85222526080906391143798828125" lon="-118.41471620835363864898681640625">
        <ele>2899.199951171875</ele>
        <time>2021-06-27T22:52:05.000Z</time>
        <extensions>
          <ns3:TrackPointExtension>
            <ns3:atemp>30.0</ns3:atemp>
            <ns3:hr>85</ns3:hr>
          </ns3:TrackPointExtension>
        </extensions>
      </trkpt>
      <trkpt lat="36.85226331464946269989013671875" lon="-118.414755351841449737548828125">
        <ele>2899.199951171875</ele>
        <time>2021-06-27T22:52:08.000Z</time>
        <extensions>
          <ns3:TrackPointExtension>
            <ns3:atemp>30.0</ns3:atemp>
            <ns3:hr>85</ns3:hr>
          </ns3:TrackPointExtension>
        </extensions>
      </trkpt>
      <trkpt lat="36.8523520790040493011474609375" lon="-118.41484294272959232330322265625">
        <ele>2899.60009765625</ele>
        <time>2021-06-27T22:52:15.000Z</time>
        <extensions>
          <ns3:TrackPointExtension>
            <ns3:atemp>30.0</ns3:atemp>
            <ns3:hr>84</ns3:hr>
          </ns3:TrackPointExtension>
        </extensions>
      </trkpt>
      <trkpt lat="36.85236624442040920257568359375" lon="-118.4148594550788402557373046875">
        <ele>2899.60009765625</ele>
        <time>2021-06-27T22:52:17.000Z</time>
        <extensions>
          <ns3:TrackPointExtension>
            <ns3:atemp>30.0</ns3:atemp>
            <ns3:hr>85</ns3:hr>
          </ns3:TrackPointExtension>
        </extensions>
      </trkpt>
      <trkpt lat="36.8523678369820117950439453125" lon="-118.41486322693526744842529296875">
        <ele>2899.60009765625</ele>
        <time>2021-06-27T22:52:18.000Z</time>
        <extensions>
          <ns3:TrackPointExtension>
            <ns3:atemp>30.0</ns3:atemp>
            <ns3:hr>86</ns3:hr>
          </ns3:TrackPointExtension>
        </extensions>
      </trkpt>
      <trkpt lat="36.8523490615189075469970703125" lon="-118.4149057231843471527099609375">
        <ele>2899.199951171875</ele>
        <time>2021-06-27T22:52:23.000Z</time>
        <extensions>
          <ns3:TrackPointExtension>
            <ns3:atemp>30.0</ns3:atemp>
            <ns3:hr>86</ns3:hr>
          </ns3:TrackPointExtension>
        </extensions>
      </trkpt>
      <trkpt lat="36.85234780423343181610107421875" lon="-118.41493380255997180938720703125">
        <ele>2899.199951171875</ele>
        <time>2021-06-27T22:52:25.000Z</time>
        <extensions>
          <ns3:TrackPointExtension>
            <ns3:atemp>30.0</ns3:atemp>
            <ns3:hr>86</ns3:hr>
          </ns3:TrackPointExtension>
        </extensions>
      </trkpt>
      <trkpt lat="36.85233481228351593017578125" lon="-118.41497453860938549041748046875">
        <ele>2899.199951171875</ele>
        <time>2021-06-27T22:52:29.000Z</time>
        <extensions>
          <ns3:TrackPointExtension>
            <ns3:atemp>30.0</ns3:atemp>
            <ns3:hr>87</ns3:hr>
          </ns3:TrackPointExtension>
        </extensions>
      </trkpt>
      <trkpt lat="36.852335147559642791748046875" lon="-118.41498635709285736083984375">
        <ele>2899.39990234375</ele>
        <time>2021-06-27T22:52:30.000Z</time>
        <extensions>
          <ns3:TrackPointExtension>
            <ns3:atemp>30.0</ns3:atemp>
            <ns3:hr>88</ns3:hr>
          </ns3:TrackPointExtension>
        </extensions>
      </trkpt>
      <trkpt lat="36.85235803015530109405517578125" lon="-118.415098674595355987548828125">
        <ele>2899.199951171875</ele>
        <time>2021-06-27T22:52:37.000Z</time>
        <extensions>
          <ns3:TrackPointExtension>
            <ns3:atemp>30.0</ns3:atemp>
            <ns3:hr>89</ns3:hr>
          </ns3:TrackPointExtension>
        </extensions>
      </trkpt>
      <trkpt lat="36.85238468460738658905029296875" lon="-118.41520319692790508270263671875">
        <ele>2899.39990234375</ele>
        <time>2021-06-27T22:52:45.000Z</time>
        <extensions>
          <ns3:TrackPointExtension>
            <ns3:atemp>30.0</ns3:atemp>
            <ns3:hr>90</ns3:hr>
          </ns3:TrackPointExtension>
        </extensions>
      </trkpt>
      <trkpt lat="36.85238954611122608184814453125" lon="-118.41522012837231159210205078125">
        <ele>2899.39990234375</ele>
        <time>2021-06-27T22:52:47.000Z</time>
        <extensions>
          <ns3:TrackPointExtension>
            <ns3:atemp>30.0</ns3:atemp>
            <ns3:hr>93</ns3:hr>
          </ns3:TrackPointExtension>
        </extensions>
      </trkpt>
      <trkpt lat="36.85240211896598339080810546875" lon="-118.415242843329906463623046875">
        <ele>2899.60009765625</ele>
        <time>2021-06-27T22:52:50.000Z</time>
        <extensions>
          <ns3:TrackPointExtension>
            <ns3:atemp>30.0</ns3:atemp>
            <ns3:hr>94</ns3:hr>
          </ns3:TrackPointExtension>
        </extensions>
      </trkpt>
      <trkpt lat="36.85241703875362873077392578125" lon="-118.4152470342814922332763671875">
        <ele>2899.60009765625</ele>
        <time>2021-06-27T22:52:54.000Z</time>
        <extensions>
          <ns3:TrackPointExtension>
            <ns3:atemp>30.0</ns3:atemp>
            <ns3:hr>97</ns3:hr>
          </ns3:TrackPointExtension>
        </extensions>
      </trkpt>
      <trkpt lat="36.85242005623877048492431640625" lon="-118.41525684110820293426513671875">
        <ele>2899.39990234375</ele>
        <time>2021-06-27T22:52:55.000Z</time>
        <extensions>
          <ns3:TrackPointExtension>
            <ns3:atemp>30.0</ns3:atemp>
            <ns3:hr>97</ns3:hr>
          </ns3:TrackPointExtension>
        </extensions>
      </trkpt>
      <trkpt lat="36.852428354322910308837890625" lon="-118.415289111435413360595703125">
        <ele>2899</ele>
        <time>2021-06-27T22:53:02.000Z</time>
        <extensions>
          <ns3:TrackPointExtension>
            <ns3:atemp>30.0</ns3:atemp>
            <ns3:hr>98</ns3:hr>
          </ns3:TrackPointExtension>
        </extensions>
      </trkpt>
      <trkpt lat="36.85244469903409481048583984375" lon="-118.4152963198721408843994140625">
        <ele>2899</ele>
        <time>2021-06-27T22:53:08.000Z</time>
        <extensions>
          <ns3:TrackPointExtension>
            <ns3:atemp>30.0</ns3:atemp>
            <ns3:hr>101</ns3:hr>
          </ns3:TrackPointExtension>
        </extensions>
      </trkpt>
      <trkpt lat="36.8524385802447795867919921875" lon="-118.41527008451521396636962890625">
        <ele>2898.800048828125</ele>
        <time>2021-06-27T22:53:11.000Z</time>
        <extensions>
          <ns3:TrackPointExtension>
            <ns3:atemp>30.0</ns3:atemp>
            <ns3:hr>98</ns3:hr>
          </ns3:TrackPointExtension>
        </extensions>
      </trkpt>
      <trkpt lat="36.85247973538935184478759765625" lon="-118.41525080613791942596435546875">
        <ele>2898.800048828125</ele>
        <time>2021-06-27T22:53:24.000Z</time>
        <extensions>
          <ns3:TrackPointExtension>
            <ns3:atemp>30.0</ns3:atemp>
            <ns3:hr>98</ns3:hr>
          </ns3:TrackPointExtension>
        </extensions>
      </trkpt>
      <trkpt lat="36.8524694256484508514404296875" lon="-118.41525550000369548797607421875">
        <ele>2899.199951171875</ele>
        <time>2021-06-27T22:53:34.000Z</time>
        <extensions>
          <ns3:TrackPointExtension>
            <ns3:atemp>30.0</ns3:atemp>
            <ns3:hr>95</ns3:hr>
          </ns3:TrackPointExtension>
        </extensions>
      </trkpt>
      <trkpt lat="36.85246934182941913604736328125" lon="-118.4152591042220592498779296875">
        <ele>2899.800048828125</ele>
        <time>2021-06-27T22:53:37.000Z</time>
        <extensions>
          <ns3:TrackPointExtension>
            <ns3:atemp>30.0</ns3:atemp>
            <ns3:hr>92</ns3:hr>
          </ns3:TrackPointExtension>
        </extensions>
      </trkpt>
      <trkpt lat="36.85246934182941913604736328125" lon="-118.41525985859334468841552734375">
        <ele>2900.39990234375</ele>
        <time>2021-06-27T22:53:40.000Z</time>
        <extensions>
          <ns3:TrackPointExtension>
            <ns3:atemp>30.0</ns3:atemp>
            <ns3:hr>91</ns3:hr>
          </ns3:TrackPointExtension>
        </extensions>
      </trkpt>
      <trkpt lat="36.8524711020290851593017578125" lon="-118.41526086442172527313232421875">
        <ele>2900.800048828125</ele>
        <time>2021-06-27T22:53:44.000Z</time>
        <extensions>
          <ns3:TrackPointExtension>
            <ns3:atemp>30.0</ns3:atemp>
            <ns3:hr>88</ns3:hr>
          </ns3:TrackPointExtension>
        </extensions>
      </trkpt>
      <trkpt lat="36.85248191468417644500732421875" lon="-118.4152654744684696197509765625">
        <ele>2901</ele>
        <time>2021-06-27T22:53:47.000Z</time>
        <extensions>
          <ns3:TrackPointExtension>
            <ns3:atemp>30.0</ns3:atemp>
            <ns3:hr>91</ns3:hr>
          </ns3:TrackPointExtension>
        </extensions>
      </trkpt>
      <trkpt lat="36.85249549336731433868408203125" lon="-118.415274359285831451416015625">
        <ele>2901.60009765625</ele>
        <time>2021-06-27T22:53:48.000Z</time>
        <extensions>
          <ns3:TrackPointExtension>
            <ns3:atemp>30.0</ns3:atemp>
            <ns3:hr>90</ns3:hr>
          </ns3:TrackPointExtension>
        </extensions>
      </trkpt>
      <trkpt lat="36.85255869291722774505615234375" lon="-118.41531819663941860198974609375">
        <ele>2902.199951171875</ele>
        <time>2021-06-27T22:53:52.000Z</time>
        <extensions>
          <ns3:TrackPointExtension>
            <ns3:atemp>30.0</ns3:atemp>
            <ns3:hr>91</ns3:hr>
          </ns3:TrackPointExtension>
        </extensions>
      </trkpt>
      <trkpt lat="36.85262490995228290557861328125" lon="-118.41534577310085296630859375">
        <ele>2902.60009765625</ele>
        <time>2021-06-27T22:53:57.000Z</time>
        <extensions>
          <ns3:TrackPointExtension>
            <ns3:atemp>30.0</ns3:atemp>
            <ns3:hr>89</ns3:hr>
          </ns3:TrackPointExtension>
        </extensions>
      </trkpt>
      <trkpt lat="36.8526498042047023773193359375" lon="-118.415345437824726104736328125">
        <ele>2902.60009765625</ele>
        <time>2021-06-27T22:53:59.000Z</time>
        <extensions>
          <ns3:TrackPointExtension>
            <ns3:atemp>30.0</ns3:atemp>
            <ns3:hr>89</ns3:hr>
          </ns3:TrackPointExtension>
        </extensions>
      </trkpt>
      <trkpt lat="36.85266195796430110931396484375" lon="-118.4153459407389163970947265625">
        <ele>2903.199951171875</ele>
        <time>2021-06-27T22:54:00.000Z</time>
        <extensions>
          <ns3:TrackPointExtension>
            <ns3:atemp>30.0</ns3:atemp>
            <ns3:hr>90</ns3:hr>
          </ns3:TrackPointExtension>
        </extensions>
      </trkpt>
      <trkpt lat="36.852755583822727203369140625" lon="-118.41537871398031711578369140625">
        <ele>2903.60009765625</ele>
        <time>2021-06-27T22:54:08.000Z</time>
        <extensions>
          <ns3:TrackPointExtension>
            <ns3:atemp>30.0</ns3:atemp>
            <ns3:hr>93</ns3:hr>
          </ns3:TrackPointExtension>
        </extensions>
      </trkpt>
      <trkpt lat="36.85279003344476222991943359375" lon="-118.41539631597697734832763671875">
        <ele>2903.60009765625</ele>
        <time>2021-06-27T22:54:11.000Z</time>
        <extensions>
          <ns3:TrackPointExtension>
            <ns3:atemp>30.0</ns3:atemp>
            <ns3:hr>97</ns3:hr>
          </ns3:TrackPointExtension>
        </extensions>
      </trkpt>
      <trkpt lat="36.852832026779651641845703125" lon="-118.41541106812655925750732421875">
        <ele>2904</ele>
        <time>2021-06-27T22:54:15.000Z</time>
        <extensions>
          <ns3:TrackPointExtension>
            <ns3:atemp>30.0</ns3:atemp>
            <ns3:hr>102</ns3:hr>
          </ns3:TrackPointExtension>
        </extensions>
      </trkpt>
      <trkpt lat="36.8528399057686328887939453125" lon="-118.4154153428971767425537109375">
        <ele>2904</ele>
        <time>2021-06-27T22:54:16.000Z</time>
        <extensions>
          <ns3:TrackPointExtension>
            <ns3:atemp>30.0</ns3:atemp>
            <ns3:hr>101</ns3:hr>
          </ns3:TrackPointExtension>
        </extensions>
      </trkpt>
      <trkpt lat="36.85286245308816432952880859375" lon="-118.415422551333904266357421875">
        <ele>2904</ele>
        <time>2021-06-27T22:54:18.000Z</time>
        <extensions>
          <ns3:TrackPointExtension>
            <ns3:atemp>30.0</ns3:atemp>
            <ns3:hr>104</ns3:hr>
          </ns3:TrackPointExtension>
        </extensions>
      </trkpt>
      <trkpt lat="36.852899082005023956298828125" lon="-118.41542297042906284332275390625">
        <ele>2904</ele>
        <time>2021-06-27T22:54:21.000Z</time>
        <extensions>
          <ns3:TrackPointExtension>
            <ns3:atemp>30.0</ns3:atemp>
            <ns3:hr>107</ns3:hr>
          </ns3:TrackPointExtension>
        </extensions>
      </trkpt>
      <trkpt lat="36.852921210229396820068359375" lon="-118.4154250659048557281494140625">
        <ele>2904.39990234375</ele>
        <time>2021-06-27T22:54:23.000Z</time>
        <extensions>
          <ns3:TrackPointExtension>
            <ns3:atemp>30.0</ns3:atemp>
            <ns3:hr>109</ns3:hr>
          </ns3:TrackPointExtension>
        </extensions>
      </trkpt>
      <trkpt lat="36.8529451824724674224853515625" lon="-118.41543034650385379791259765625">
        <ele>2904.39990234375</ele>
        <time>2021-06-27T22:54:26.000Z</time>
        <extensions>
          <ns3:TrackPointExtension>
            <ns3:atemp>30.0</ns3:atemp>
            <ns3:hr>110</ns3:hr>
          </ns3:TrackPointExtension>
        </extensions>
      </trkpt>
      <trkpt lat="36.85299136675894260406494140625" lon="-118.41545549221336841583251953125">
        <ele>2903.800048828125</ele>
        <time>2021-06-27T22:54:31.000Z</time>
        <extensions>
          <ns3:TrackPointExtension>
            <ns3:atemp>30.0</ns3:atemp>
            <ns3:hr>114</ns3:hr>
          </ns3:TrackPointExtension>
        </extensions>
      </trkpt>
      <trkpt lat="36.85301349498331546783447265625" lon="-118.41546068899333477020263671875">
        <ele>2903.60009765625</ele>
        <time>2021-06-27T22:54:33.000Z</time>
        <extensions>
          <ns3:TrackPointExtension>
            <ns3:atemp>30.0</ns3:atemp>
            <ns3:hr>117</ns3:hr>
          </ns3:TrackPointExtension>
        </extensions>
      </trkpt>
      <trkpt lat="36.85305473394691944122314453125" lon="-118.4154854156076908111572265625">
        <ele>2903.39990234375</ele>
        <time>2021-06-27T22:54:37.000Z</time>
        <extensions>
          <ns3:TrackPointExtension>
            <ns3:atemp>30.0</ns3:atemp>
            <ns3:hr>120</ns3:hr>
          </ns3:TrackPointExtension>
        </extensions>
      </trkpt>
      <trkpt lat="36.8530615232884883880615234375" lon="-118.4154968149960041046142578125">
        <ele>2903.199951171875</ele>
        <time>2021-06-27T22:54:38.000Z</time>
        <extensions>
          <ns3:TrackPointExtension>
            <ns3:atemp>30.0</ns3:atemp>
            <ns3:hr>120</ns3:hr>
          </ns3:TrackPointExtension>
        </extensions>
      </trkpt>
      <trkpt lat="36.85309949330985546112060546875" lon="-118.41553830541670322418212890625">
        <ele>2903.199951171875</ele>
        <time>2021-06-27T22:54:42.000Z</time>
        <extensions>
          <ns3:TrackPointExtension>
            <ns3:atemp>30.0</ns3:atemp>
            <ns3:hr>119</ns3:hr>
          </ns3:TrackPointExtension>
        </extensions>
      </trkpt>
      <trkpt lat="36.8531289137899875640869140625" lon="-118.41556848026812076568603515625">
        <ele>2903.199951171875</ele>
        <time>2021-06-27T22:54:45.000Z</time>
        <extensions>
          <ns3:TrackPointExtension>
            <ns3:atemp>30.0</ns3:atemp>
            <ns3:hr>116</ns3:hr>
          </ns3:TrackPointExtension>
        </extensions>
      </trkpt>
      <trkpt lat="36.85315598733723163604736328125" lon="-118.415587507188320159912109375">
        <ele>2903.39990234375</ele>
        <time>2021-06-27T22:54:48.000Z</time>
        <extensions>
          <ns3:TrackPointExtension>
            <ns3:atemp>30.0</ns3:atemp>
            <ns3:hr>113</ns3:hr>
          </ns3:TrackPointExtension>
        </extensions>
      </trkpt>
      <trkpt lat="36.853215582668781280517578125" lon="-118.41562245972454547882080078125">
        <ele>2903.199951171875</ele>
        <time>2021-06-27T22:54:54.000Z</time>
        <extensions>
          <ns3:TrackPointExtension>
            <ns3:atemp>30.0</ns3:atemp>
            <ns3:hr>114</ns3:hr>
          </ns3:TrackPointExtension>
        </extensions>
      </trkpt>
      <trkpt lat="36.853243410587310791015625" lon="-118.41563369147479534149169921875">
        <ele>2903</ele>
        <time>2021-06-27T22:54:57.000Z</time>
        <extensions>
          <ns3:TrackPointExtension>
            <ns3:atemp>30.0</ns3:atemp>
            <ns3:hr>117</ns3:hr>
          </ns3:TrackPointExtension>
        </extensions>
      </trkpt>
      <trkpt lat="36.85326545499265193939208984375" lon="-118.41564056463539600372314453125">
        <ele>2902.39990234375</ele>
        <time>2021-06-27T22:55:00.000Z</time>
        <extensions>
          <ns3:TrackPointExtension>
            <ns3:atemp>30.0</ns3:atemp>
            <ns3:hr>120</ns3:hr>
          </ns3:TrackPointExtension>
        </extensions>
      </trkpt>
      <trkpt lat="36.8532767705619335174560546875" lon="-118.41564861126244068145751953125">
        <ele>2902.199951171875</ele>
        <time>2021-06-27T22:55:02.000Z</time>
        <extensions>
          <ns3:TrackPointExtension>
            <ns3:atemp>30.0</ns3:atemp>
            <ns3:hr>121</ns3:hr>
          </ns3:TrackPointExtension>
        </extensions>
      </trkpt>
      <trkpt lat="36.853311471641063690185546875" lon="-118.41565833427011966705322265625">
        <ele>2901</ele>
        <time>2021-06-27T22:55:07.000Z</time>
        <extensions>
          <ns3:TrackPointExtension>
            <ns3:atemp>30.0</ns3:atemp>
            <ns3:hr>121</ns3:hr>
          </ns3:TrackPointExtension>
        </extensions>
      </trkpt>
      <trkpt lat="36.85331691987812519073486328125" lon="-118.4156600944697856903076171875">
        <ele>2900.60009765625</ele>
        <time>2021-06-27T22:55:08.000Z</time>
        <extensions>
          <ns3:TrackPointExtension>
            <ns3:atemp>30.0</ns3:atemp>
            <ns3:hr>121</ns3:hr>
          </ns3:TrackPointExtension>
        </extensions>
      </trkpt>
      <trkpt lat="36.85333284549415111541748046875" lon="-118.41566093266010284423828125">
        <ele>2900.60009765625</ele>
        <time>2021-06-27T22:55:10.000Z</time>
        <extensions>
          <ns3:TrackPointExtension>
            <ns3:atemp>30.0</ns3:atemp>
            <ns3:hr>120</ns3:hr>
          </ns3:TrackPointExtension>
        </extensions>
      </trkpt>
      <trkpt lat="36.8533592484891414642333984375" lon="-118.41566235758364200592041015625">
        <ele>2900.39990234375</ele>
        <time>2021-06-27T22:55:13.000Z</time>
        <extensions>
          <ns3:TrackPointExtension>
            <ns3:atemp>30.0</ns3:atemp>
            <ns3:hr>119</ns3:hr>
          </ns3:TrackPointExtension>
        </extensions>
      </trkpt>
      <trkpt lat="36.85336670838296413421630859375" lon="-118.415669314563274383544921875">
        <ele>2899.800048828125</ele>
        <time>2021-06-27T22:55:14.000Z</time>
        <extensions>
          <ns3:TrackPointExtension>
            <ns3:atemp>30.0</ns3:atemp>
            <ns3:hr>119</ns3:hr>
          </ns3:TrackPointExtension>
        </extensions>
      </trkpt>
      <trkpt lat="36.85338112525641918182373046875" lon="-118.41569580137729644775390625">
        <ele>2899.60009765625</ele>
        <time>2021-06-27T22:55:17.000Z</time>
        <extensions>
          <ns3:TrackPointExtension>
            <ns3:atemp>30.0</ns3:atemp>
            <ns3:hr>119</ns3:hr>
          </ns3:TrackPointExtension>
        </extensions>
      </trkpt>
      <trkpt lat="36.853389255702495574951171875" lon="-118.4157184325158596038818359375">
        <ele>2898.60009765625</ele>
        <time>2021-06-27T22:55:19.000Z</time>
        <extensions>
          <ns3:TrackPointExtension>
            <ns3:atemp>30.0</ns3:atemp>
            <ns3:hr>120</ns3:hr>
          </ns3:TrackPointExtension>
        </extensions>
      </trkpt>
      <trkpt lat="36.85340442694723606109619140625" lon="-118.41574005782604217529296875">
        <ele>2898.39990234375</ele>
        <time>2021-06-27T22:55:21.000Z</time>
        <extensions>
          <ns3:TrackPointExtension>
            <ns3:atemp>30.0</ns3:atemp>
            <ns3:hr>117</ns3:hr>
          </ns3:TrackPointExtension>
        </extensions>
      </trkpt>
      <trkpt lat="36.85342236422002315521240234375" lon="-118.41575254686176776885986328125">
        <ele>2898.199951171875</ele>
        <time>2021-06-27T22:55:23.000Z</time>
        <extensions>
          <ns3:TrackPointExtension>
            <ns3:atemp>30.0</ns3:atemp>
            <ns3:hr>114</ns3:hr>
          </ns3:TrackPointExtension>
        </extensions>
      </trkpt>
      <trkpt lat="36.853430159389972686767578125" lon="-118.4157579950988292694091796875">
        <ele>2897.800048828125</ele>
        <time>2021-06-27T22:55:24.000Z</time>
        <extensions>
          <ns3:TrackPointExtension>
            <ns3:atemp>30.0</ns3:atemp>
            <ns3:hr>113</ns3:hr>
          </ns3:TrackPointExtension>
        </extensions>
      </trkpt>
      <trkpt lat="36.85343745164573192596435546875" lon="-118.415769226849079132080078125">
        <ele>2897.39990234375</ele>
        <time>2021-06-27T22:55:27.000Z</time>
        <extensions>
          <ns3:TrackPointExtension>
            <ns3:atemp>30.0</ns3:atemp>
            <ns3:hr>111</ns3:hr>
          </ns3:TrackPointExtension>
        </extensions>
      </trkpt>
      <trkpt lat="36.85343720018863677978515625" lon="-118.41577283106744289398193359375">
        <ele>2897.39990234375</ele>
        <time>2021-06-27T22:55:28.000Z</time>
        <extensions>
          <ns3:TrackPointExtension>
            <ns3:atemp>30.0</ns3:atemp>
            <ns3:hr>111</ns3:hr>
          </ns3:TrackPointExtension>
        </extensions>
      </trkpt>
      <trkpt lat="36.8534427322447299957275390625" lon="-118.415801413357257843017578125">
        <ele>2896.39990234375</ele>
        <time>2021-06-27T22:55:32.000Z</time>
        <extensions>
          <ns3:TrackPointExtension>
            <ns3:atemp>30.0</ns3:atemp>
            <ns3:hr>108</ns3:hr>
          </ns3:TrackPointExtension>
        </extensions>
      </trkpt>
      <trkpt lat="36.8534434027969837188720703125" lon="-118.4158123098313808441162109375">
        <ele>2895.800048828125</ele>
        <time>2021-06-27T22:55:33.000Z</time>
        <extensions>
          <ns3:TrackPointExtension>
            <ns3:atemp>30.0</ns3:atemp>
            <ns3:hr>107</ns3:hr>
          </ns3:TrackPointExtension>
        </extensions>
      </trkpt>
      <trkpt lat="36.8534434027969837188720703125" lon="-118.41582412831485271453857421875">
        <ele>2895.800048828125</ele>
        <time>2021-06-27T22:55:34.000Z</time>
        <extensions>
          <ns3:TrackPointExtension>
            <ns3:atemp>30.0</ns3:atemp>
            <ns3:hr>107</ns3:hr>
          </ns3:TrackPointExtension>
        </extensions>
      </trkpt>
      <trkpt lat="36.85344466008245944976806640625" lon="-118.4158860705792903900146484375">
        <ele>2895.800048828125</ele>
        <time>2021-06-27T22:55:38.000Z</time>
        <extensions>
          <ns3:TrackPointExtension>
            <ns3:atemp>30.0</ns3:atemp>
            <ns3:hr>104</ns3:hr>
          </ns3:TrackPointExtension>
        </extensions>
      </trkpt>
      <trkpt lat="36.8534497730433940887451171875" lon="-118.415932841598987579345703125">
        <ele>2895.60009765625</ele>
        <time>2021-06-27T22:55:41.000Z</time>
        <extensions>
          <ns3:TrackPointExtension>
            <ns3:atemp>30.0</ns3:atemp>
            <ns3:hr>102</ns3:hr>
          </ns3:TrackPointExtension>
        </extensions>
      </trkpt>
      <trkpt lat="36.8534539639949798583984375" lon="-118.4159584902226924896240234375">
        <ele>2895.60009765625</ele>
        <time>2021-06-27T22:55:43.000Z</time>
        <extensions>
          <ns3:TrackPointExtension>
            <ns3:atemp>30.0</ns3:atemp>
            <ns3:hr>102</ns3:hr>
          </ns3:TrackPointExtension>
        </extensions>
      </trkpt>
      <trkpt lat="36.85345622710883617401123046875" lon="-118.41598858125507831573486328125">
        <ele>2895.199951171875</ele>
        <time>2021-06-27T22:55:45.000Z</time>
        <extensions>
          <ns3:TrackPointExtension>
            <ns3:atemp>30.0</ns3:atemp>
            <ns3:hr>103</ns3:hr>
          </ns3:TrackPointExtension>
        </extensions>
      </trkpt>
      <trkpt lat="36.85344717465341091156005859375" lon="-118.41600802727043628692626953125">
        <ele>2895.199951171875</ele>
        <time>2021-06-27T22:55:47.000Z</time>
        <extensions>
          <ns3:TrackPointExtension>
            <ns3:atemp>30.0</ns3:atemp>
            <ns3:hr>103</ns3:hr>
          </ns3:TrackPointExtension>
        </extensions>
      </trkpt>
      <trkpt lat="36.85342035256326198577880859375" lon="-118.41602814383804798126220703125">
        <ele>2895.199951171875</ele>
        <time>2021-06-27T22:55:50.000Z</time>
        <extensions>
          <ns3:TrackPointExtension>
            <ns3:atemp>30.0</ns3:atemp>
            <ns3:hr>101</ns3:hr>
          </ns3:TrackPointExtension>
        </extensions>
      </trkpt>
      <trkpt lat="36.85339629650115966796875" lon="-118.41610928066074848175048828125">
        <ele>2895.199951171875</ele>
        <time>2021-06-27T22:55:56.000Z</time>
        <extensions>
          <ns3:TrackPointExtension>
            <ns3:atemp>30.0</ns3:atemp>
            <ns3:hr>101</ns3:hr>
          </ns3:TrackPointExtension>
        </extensions>
      </trkpt>
      <trkpt lat="36.85339252464473247528076171875" lon="-118.41612487100064754486083984375">
        <ele>2895.39990234375</ele>
        <time>2021-06-27T22:55:57.000Z</time>
        <extensions>
          <ns3:TrackPointExtension>
            <ns3:atemp>30.0</ns3:atemp>
            <ns3:hr>100</ns3:hr>
          </ns3:TrackPointExtension>
        </extensions>
      </trkpt>
      <trkpt lat="36.85342152602970600128173828125" lon="-118.416243977844715118408203125">
        <ele>2895.39990234375</ele>
        <time>2021-06-27T22:56:05.000Z</time>
        <extensions>
          <ns3:TrackPointExtension>
            <ns3:atemp>30.0</ns3:atemp>
            <ns3:hr>102</ns3:hr>
          </ns3:TrackPointExtension>
        </extensions>
      </trkpt>
      <trkpt lat="36.85344122350215911865234375" lon="-118.41625797562301158905029296875">
        <ele>2894.800048828125</ele>
        <time>2021-06-27T22:56:07.000Z</time>
        <extensions>
          <ns3:TrackPointExtension>
            <ns3:atemp>30.0</ns3:atemp>
            <ns3:hr>99</ns3:hr>
          </ns3:TrackPointExtension>
        </extensions>
      </trkpt>
      <trkpt lat="36.85347517021000385284423828125" lon="-118.4162904135882854461669921875">
        <ele>2894.60009765625</ele>
        <time>2021-06-27T22:56:11.000Z</time>
        <extensions>
          <ns3:TrackPointExtension>
            <ns3:atemp>30.0</ns3:atemp>
            <ns3:hr>96</ns3:hr>
          </ns3:TrackPointExtension>
        </extensions>
      </trkpt>
      <trkpt lat="36.85352462343871593475341796875" lon="-118.41633022762835025787353515625">
        <ele>2893.800048828125</ele>
        <time>2021-06-27T22:56:16.000Z</time>
        <extensions>
          <ns3:TrackPointExtension>
            <ns3:atemp>30.0</ns3:atemp>
            <ns3:hr>97</ns3:hr>
          </ns3:TrackPointExtension>
        </extensions>
      </trkpt>
      <trkpt lat="36.85356502421200275421142578125" lon="-118.4163484163582324981689453125">
        <ele>2893.39990234375</ele>
        <time>2021-06-27T22:56:20.000Z</time>
        <extensions>
          <ns3:TrackPointExtension>
            <ns3:atemp>30.0</ns3:atemp>
            <ns3:hr>96</ns3:hr>
          </ns3:TrackPointExtension>
        </extensions>
      </trkpt>
      <trkpt lat="36.8535889126360416412353515625" lon="-118.41637280769646167755126953125">
        <ele>2893.199951171875</ele>
        <time>2021-06-27T22:56:23.000Z</time>
        <extensions>
          <ns3:TrackPointExtension>
            <ns3:atemp>30.0</ns3:atemp>
            <ns3:hr>96</ns3:hr>
          </ns3:TrackPointExtension>
        </extensions>
      </trkpt>
      <trkpt lat="36.85361548326909542083740234375" lon="-118.4163876436650753021240234375">
        <ele>2892.60009765625</ele>
        <time>2021-06-27T22:56:25.000Z</time>
        <extensions>
          <ns3:TrackPointExtension>
            <ns3:atemp>30.0</ns3:atemp>
            <ns3:hr>96</ns3:hr>
          </ns3:TrackPointExtension>
        </extensions>
      </trkpt>
      <trkpt lat="36.8536935187876224517822265625" lon="-118.41638470999896526336669921875">
        <ele>2892.199951171875</ele>
        <time>2021-06-27T22:56:32.000Z</time>
        <extensions>
          <ns3:TrackPointExtension>
            <ns3:atemp>30.0</ns3:atemp>
            <ns3:hr>95</ns3:hr>
          </ns3:TrackPointExtension>
        </extensions>
      </trkpt>
      <trkpt lat="36.85369544662535190582275390625" lon="-118.41638512909412384033203125">
        <ele>2892</ele>
        <time>2021-06-27T22:56:35.000Z</time>
        <extensions>
          <ns3:TrackPointExtension>
            <ns3:atemp>30.0</ns3:atemp>
            <ns3:hr>94</ns3:hr>
          </ns3:TrackPointExtension>
        </extensions>
      </trkpt>
      <trkpt lat="36.85372419655323028564453125" lon="-118.41640700586140155792236328125">
        <ele>2892</ele>
        <time>2021-06-27T22:56:38.000Z</time>
        <extensions>
          <ns3:TrackPointExtension>
            <ns3:atemp>30.0</ns3:atemp>
            <ns3:hr>91</ns3:hr>
          </ns3:TrackPointExtension>
        </extensions>
      </trkpt>
      <trkpt lat="36.85373894870281219482421875" lon="-118.4164272062480449676513671875">
        <ele>2891.60009765625</ele>
        <time>2021-06-27T22:56:40.000Z</time>
        <extensions>
          <ns3:TrackPointExtension>
            <ns3:atemp>30.0</ns3:atemp>
            <ns3:hr>90</ns3:hr>
          </ns3:TrackPointExtension>
        </extensions>
      </trkpt>
      <trkpt lat="36.85377809219062328338623046875" lon="-118.41645997948944568634033203125">
        <ele>2891</ele>
        <time>2021-06-27T22:56:45.000Z</time>
        <extensions>
          <ns3:TrackPointExtension>
            <ns3:atemp>30.0</ns3:atemp>
            <ns3:hr>87</ns3:hr>
          </ns3:TrackPointExtension>
        </extensions>
      </trkpt>
      <trkpt lat="36.85379468835890293121337890625" lon="-118.41647054068744182586669921875">
        <ele>2891</ele>
        <time>2021-06-27T22:56:47.000Z</time>
        <extensions>
          <ns3:TrackPointExtension>
            <ns3:atemp>29.0</ns3:atemp>
            <ns3:hr>86</ns3:hr>
          </ns3:TrackPointExtension>
        </extensions>
      </trkpt>
      <trkpt lat="36.85382637195289134979248046875" lon="-118.41649484820663928985595703125">
        <ele>2890.39990234375</ele>
        <time>2021-06-27T22:56:50.000Z</time>
        <extensions>
          <ns3:TrackPointExtension>
            <ns3:atemp>30.0</ns3:atemp>
            <ns3:hr>85</ns3:hr>
          </ns3:TrackPointExtension>
        </extensions>
      </trkpt>
      <trkpt lat="36.8538899905979633331298828125" lon="-118.4165204130113124847412109375">
        <ele>2889.39990234375</ele>
        <time>2021-06-27T22:56:57.000Z</time>
        <extensions>
          <ns3:TrackPointExtension>
            <ns3:atemp>29.0</ns3:atemp>
            <ns3:hr>83</ns3:hr>
          </ns3:TrackPointExtension>
        </extensions>
      </trkpt>
      <trkpt lat="36.8539017252624034881591796875" lon="-118.41652301140129566192626953125">
        <ele>2889.199951171875</ele>
        <time>2021-06-27T22:56:58.000Z</time>
        <extensions>
          <ns3:TrackPointExtension>
            <ns3:atemp>29.0</ns3:atemp>
            <ns3:hr>83</ns3:hr>
          </ns3:TrackPointExtension>
        </extensions>
      </trkpt>
      <trkpt lat="36.85395084321498870849609375" lon="-118.41654363088309764862060546875">
        <ele>2889.39990234375</ele>
        <time>2021-06-27T22:57:03.000Z</time>
        <extensions>
          <ns3:TrackPointExtension>
            <ns3:atemp>29.0</ns3:atemp>
            <ns3:hr>80</ns3:hr>
          </ns3:TrackPointExtension>
        </extensions>
      </trkpt>
      <trkpt lat="36.85397540219128131866455078125" lon="-118.416551090776920318603515625">
        <ele>2889.39990234375</ele>
        <time>2021-06-27T22:57:05.000Z</time>
        <extensions>
          <ns3:TrackPointExtension>
            <ns3:atemp>29.0</ns3:atemp>
            <ns3:hr>79</ns3:hr>
          </ns3:TrackPointExtension>
        </extensions>
      </trkpt>
      <trkpt lat="36.854000799357891082763671875" lon="-118.41654882766306400299072265625">
        <ele>2888.60009765625</ele>
        <time>2021-06-27T22:57:07.000Z</time>
        <extensions>
          <ns3:TrackPointExtension>
            <ns3:atemp>29.0</ns3:atemp>
            <ns3:hr>82</ns3:hr>
          </ns3:TrackPointExtension>
        </extensions>
      </trkpt>
      <trkpt lat="36.85401379130780696868896484375" lon="-118.41654832474887371063232421875">
        <ele>2888.199951171875</ele>
        <time>2021-06-27T22:57:08.000Z</time>
        <extensions>
          <ns3:TrackPointExtension>
            <ns3:atemp>29.0</ns3:atemp>
            <ns3:hr>83</ns3:hr>
          </ns3:TrackPointExtension>
        </extensions>
      </trkpt>
      <trkpt lat="36.85402854345738887786865234375" lon="-118.41653927229344844818115234375">
        <ele>2887.199951171875</ele>
        <time>2021-06-27T22:57:11.000Z</time>
        <extensions>
          <ns3:TrackPointExtension>
            <ns3:atemp>29.0</ns3:atemp>
            <ns3:hr>84</ns3:hr>
          </ns3:TrackPointExtension>
        </extensions>
      </trkpt>
      <trkpt lat="36.8540333211421966552734375" lon="-118.41653541661798954010009765625">
        <ele>2887</ele>
        <time>2021-06-27T22:57:12.000Z</time>
        <extensions>
          <ns3:TrackPointExtension>
            <ns3:atemp>29.0</ns3:atemp>
            <ns3:hr>85</ns3:hr>
          </ns3:TrackPointExtension>
        </extensions>
      </trkpt>
      <trkpt lat="36.85403399169445037841796875" lon="-118.41653441078960895538330078125">
        <ele>2887.199951171875</ele>
        <time>2021-06-27T22:57:13.000Z</time>
        <extensions>
          <ns3:TrackPointExtension>
            <ns3:atemp>29.0</ns3:atemp>
            <ns3:hr>84</ns3:hr>
          </ns3:TrackPointExtension>
        </extensions>
      </trkpt>
      <trkpt lat="36.8540452234447002410888671875" lon="-118.416564501821994781494140625">
        <ele>2886.800048828125</ele>
        <time>2021-06-27T22:57:23.000Z</time>
        <extensions>
          <ns3:TrackPointExtension>
            <ns3:atemp>29.0</ns3:atemp>
            <ns3:hr>85</ns3:hr>
          </ns3:TrackPointExtension>
        </extensions>
      </trkpt>
      <trkpt lat="36.8540452234447002410888671875" lon="-118.416564501821994781494140625">
        <ele>2886.60009765625</ele>
        <time>2021-06-27T22:57:29.000Z</time>
        <extensions>
          <ns3:TrackPointExtension>
            <ns3:atemp>29.0</ns3:atemp>
            <ns3:hr>88</ns3:hr>
          </ns3:TrackPointExtension>
        </extensions>
      </trkpt>
      <trkpt lat="36.8540452234447002410888671875" lon="-118.416561149060726165771484375">
        <ele>2886.60009765625</ele>
        <time>2021-06-27T22:57:33.000Z</time>
        <extensions>
          <ns3:TrackPointExtension>
            <ns3:atemp>29.0</ns3:atemp>
            <ns3:hr>91</ns3:hr>
          </ns3:TrackPointExtension>
        </extensions>
      </trkpt>
      <trkpt lat="36.8540452234447002410888671875" lon="-118.41653508134186267852783203125">
        <ele>2886.800048828125</ele>
        <time>2021-06-27T22:57:41.000Z</time>
        <extensions>
          <ns3:TrackPointExtension>
            <ns3:atemp>29.0</ns3:atemp>
            <ns3:hr>91</ns3:hr>
          </ns3:TrackPointExtension>
        </extensions>
      </trkpt>
      <trkpt lat="36.85404480434954166412353515625" lon="-118.4165341593325138092041015625">
        <ele>2886.800048828125</ele>
        <time>2021-06-27T22:57:43.000Z</time>
        <extensions>
          <ns3:TrackPointExtension>
            <ns3:atemp>29.0</ns3:atemp>
            <ns3:hr>94</ns3:hr>
          </ns3:TrackPointExtension>
        </extensions>
      </trkpt>
      <trkpt lat="36.85404472053050994873046875" lon="-118.41653089039027690887451171875">
        <ele>2886.800048828125</ele>
        <time>2021-06-27T22:57:48.000Z</time>
        <extensions>
          <ns3:TrackPointExtension>
            <ns3:atemp>29.0</ns3:atemp>
            <ns3:hr>91</ns3:hr>
          </ns3:TrackPointExtension>
        </extensions>
      </trkpt>
      <trkpt lat="36.85404379852116107940673828125" lon="-118.416526615619659423828125">
        <ele>2886.800048828125</ele>
        <time>2021-06-27T22:57:52.000Z</time>
        <extensions>
          <ns3:TrackPointExtension>
            <ns3:atemp>29.0</ns3:atemp>
            <ns3:hr>88</ns3:hr>
          </ns3:TrackPointExtension>
        </extensions>
      </trkpt>
      <trkpt lat="36.8540338240563869476318359375" lon="-118.41652334667742252349853515625">
        <ele>2887</ele>
        <time>2021-06-27T22:57:59.000Z</time>
        <extensions>
          <ns3:TrackPointExtension>
            <ns3:atemp>29.0</ns3:atemp>
            <ns3:hr>85</ns3:hr>
          </ns3:TrackPointExtension>
        </extensions>
      </trkpt>
      <trkpt lat="36.8540338240563869476318359375" lon="-118.4165230952203273773193359375">
        <ele>2887</ele>
        <time>2021-06-27T22:58:02.000Z</time>
        <extensions>
          <ns3:TrackPointExtension>
            <ns3:atemp>29.0</ns3:atemp>
            <ns3:hr>89</ns3:hr>
          </ns3:TrackPointExtension>
        </extensions>
      </trkpt>
      <trkpt lat="36.85403273440897464752197265625" lon="-118.41652116738259792327880859375">
        <ele>2887.199951171875</ele>
        <time>2021-06-27T22:58:08.000Z</time>
        <extensions>
          <ns3:TrackPointExtension>
            <ns3:atemp>29.0</ns3:atemp>
            <ns3:hr>92</ns3:hr>
          </ns3:TrackPointExtension>
        </extensions>
      </trkpt>
      <trkpt lat="36.8540291301906108856201171875" lon="-118.41650909744203090667724609375">
        <ele>2887.199951171875</ele>
        <time>2021-06-27T22:58:18.000Z</time>
        <extensions>
          <ns3:TrackPointExtension>
            <ns3:atemp>29.0</ns3:atemp>
            <ns3:hr>95</ns3:hr>
          </ns3:TrackPointExtension>
        </extensions>
      </trkpt>
      <trkpt lat="36.854020915925502777099609375" lon="-118.41649836860597133636474609375">
        <ele>2887.199951171875</ele>
        <time>2021-06-27T22:58:23.000Z</time>
        <extensions>
          <ns3:TrackPointExtension>
            <ns3:atemp>29.0</ns3:atemp>
            <ns3:hr>91</ns3:hr>
          </ns3:TrackPointExtension>
        </extensions>
      </trkpt>
      <trkpt lat="36.8540137074887752532958984375" lon="-118.4164877235889434814453125">
        <ele>2887</ele>
        <time>2021-06-27T22:58:26.000Z</time>
        <extensions>
          <ns3:TrackPointExtension>
            <ns3:atemp>29.0</ns3:atemp>
            <ns3:hr>88</ns3:hr>
          </ns3:TrackPointExtension>
        </extensions>
      </trkpt>
      <trkpt lat="36.8540096841752529144287109375" lon="-118.41648311354219913482666015625">
        <ele>2886.60009765625</ele>
        <time>2021-06-27T22:58:35.000Z</time>
        <extensions>
          <ns3:TrackPointExtension>
            <ns3:atemp>29.0</ns3:atemp>
            <ns3:hr>85</ns3:hr>
          </ns3:TrackPointExtension>
        </extensions>
      </trkpt>
      <trkpt lat="36.854006163775920867919921875" lon="-118.41648143716156482696533203125">
        <ele>2886.60009765625</ele>
        <time>2021-06-27T22:58:39.000Z</time>
        <extensions>
          <ns3:TrackPointExtension>
            <ns3:atemp>29.0</ns3:atemp>
            <ns3:hr>88</ns3:hr>
          </ns3:TrackPointExtension>
        </extensions>
      </trkpt>
      <trkpt lat="36.853998117148876190185546875" lon="-118.41648026369512081146240234375">
        <ele>2886.39990234375</ele>
        <time>2021-06-27T22:58:56.000Z</time>
        <extensions>
          <ns3:TrackPointExtension>
            <ns3:atemp>29.0</ns3:atemp>
            <ns3:hr>85</ns3:hr>
          </ns3:TrackPointExtension>
        </extensions>
      </trkpt>
      <trkpt lat="36.853998117148876190185546875" lon="-118.41647976078093051910400390625">
        <ele>2886.39990234375</ele>
        <time>2021-06-27T22:58:59.000Z</time>
        <extensions>
          <ns3:TrackPointExtension>
            <ns3:atemp>29.0</ns3:atemp>
            <ns3:hr>82</ns3:hr>
          </ns3:TrackPointExtension>
        </extensions>
      </trkpt>
      <trkpt lat="36.8539982847869396209716796875" lon="-118.4164738096296787261962890625">
        <ele>2886.199951171875</ele>
        <time>2021-06-27T22:59:02.000Z</time>
        <extensions>
          <ns3:TrackPointExtension>
            <ns3:atemp>29.0</ns3:atemp>
            <ns3:hr>79</ns3:hr>
          </ns3:TrackPointExtension>
        </extensions>
      </trkpt>
      <trkpt lat="36.85399836860597133636474609375" lon="-118.41646634973585605621337890625">
        <ele>2886</ele>
        <time>2021-06-27T22:59:06.000Z</time>
        <extensions>
          <ns3:TrackPointExtension>
            <ns3:atemp>29.0</ns3:atemp>
            <ns3:hr>79</ns3:hr>
          </ns3:TrackPointExtension>
        </extensions>
      </trkpt>
      <trkpt lat="36.85399903915822505950927734375" lon="-118.41646467335522174835205078125">
        <ele>2886</ele>
        <time>2021-06-27T22:59:13.000Z</time>
        <extensions>
          <ns3:TrackPointExtension>
            <ns3:atemp>29.0</ns3:atemp>
            <ns3:hr>82</ns3:hr>
          </ns3:TrackPointExtension>
        </extensions>
      </trkpt>
      <trkpt lat="36.854002140462398529052734375" lon="-118.4164657630026340484619140625">
        <ele>2885</ele>
        <time>2021-06-27T22:59:25.000Z</time>
        <extensions>
          <ns3:TrackPointExtension>
            <ns3:atemp>30.0</ns3:atemp>
            <ns3:hr>82</ns3:hr>
          </ns3:TrackPointExtension>
        </extensions>
      </trkpt>
      <trkpt lat="36.85399652458727359771728515625" lon="-118.41657464392483234405517578125">
        <ele>2884.199951171875</ele>
        <time>2021-06-27T22:59:33.000Z</time>
        <extensions>
          <ns3:TrackPointExtension>
            <ns3:atemp>30.0</ns3:atemp>
            <ns3:hr>84</ns3:hr>
          </ns3:TrackPointExtension>
        </extensions>
      </trkpt>
      <trkpt lat="36.85399903915822505950927734375" lon="-118.4166199900209903717041015625">
        <ele>2883.60009765625</ele>
        <time>2021-06-27T22:59:35.000Z</time>
        <extensions>
          <ns3:TrackPointExtension>
            <ns3:atemp>30.0</ns3:atemp>
            <ns3:hr>82</ns3:hr>
          </ns3:TrackPointExtension>
        </extensions>
      </trkpt>
      <trkpt lat="36.8540184013545513153076171875" lon="-118.41667522676289081573486328125">
        <ele>2882.800048828125</ele>
        <time>2021-06-27T22:59:38.000Z</time>
        <extensions>
          <ns3:TrackPointExtension>
            <ns3:atemp>30.0</ns3:atemp>
            <ns3:hr>83</ns3:hr>
          </ns3:TrackPointExtension>
        </extensions>
      </trkpt>
      <trkpt lat="36.85402569361031055450439453125" lon="-118.4166850335896015167236328125">
        <ele>2882.60009765625</ele>
        <time>2021-06-27T22:59:39.000Z</time>
        <extensions>
          <ns3:TrackPointExtension>
            <ns3:atemp>30.0</ns3:atemp>
            <ns3:hr>82</ns3:hr>
          </ns3:TrackPointExtension>
        </extensions>
      </trkpt>
      <trkpt lat="36.8540333211421966552734375" lon="-118.4166914038360118865966796875">
        <ele>2882.199951171875</ele>
        <time>2021-06-27T22:59:40.000Z</time>
        <extensions>
          <ns3:TrackPointExtension>
            <ns3:atemp>30.0</ns3:atemp>
            <ns3:hr>83</ns3:hr>
          </ns3:TrackPointExtension>
        </extensions>
      </trkpt>
      <trkpt lat="36.85406215488910675048828125" lon="-118.4166944213211536407470703125">
        <ele>2881.39990234375</ele>
        <time>2021-06-27T22:59:43.000Z</time>
        <extensions>
          <ns3:TrackPointExtension>
            <ns3:atemp>30.0</ns3:atemp>
            <ns3:hr>84</ns3:hr>
          </ns3:TrackPointExtension>
        </extensions>
      </trkpt>
      <trkpt lat="36.85408855788409709930419921875" lon="-118.416703976690769195556640625">
        <ele>2881</ele>
        <time>2021-06-27T22:59:46.000Z</time>
        <extensions>
          <ns3:TrackPointExtension>
            <ns3:atemp>30.0</ns3:atemp>
            <ns3:hr>83</ns3:hr>
          </ns3:TrackPointExtension>
        </extensions>
      </trkpt>
      <trkpt lat="36.8541263602674007415771484375" lon="-118.41672065667808055877685546875">
        <ele>2880.199951171875</ele>
        <time>2021-06-27T22:59:50.000Z</time>
        <extensions>
          <ns3:TrackPointExtension>
            <ns3:atemp>30.0</ns3:atemp>
            <ns3:hr>83</ns3:hr>
          </ns3:TrackPointExtension>
        </extensions>
      </trkpt>
      <trkpt lat="36.85416198335587978363037109375" lon="-118.4167145378887653350830078125">
        <ele>2879.800048828125</ele>
        <time>2021-06-27T22:59:53.000Z</time>
        <extensions>
          <ns3:TrackPointExtension>
            <ns3:atemp>30.0</ns3:atemp>
            <ns3:hr>81</ns3:hr>
          </ns3:TrackPointExtension>
        </extensions>
      </trkpt>
      <trkpt lat="36.8541754782199859619140625" lon="-118.416710011661052703857421875">
        <ele>2879.199951171875</ele>
        <time>2021-06-27T22:59:55.000Z</time>
        <extensions>
          <ns3:TrackPointExtension>
            <ns3:atemp>30.0</ns3:atemp>
            <ns3:hr>80</ns3:hr>
          </ns3:TrackPointExtension>
        </extensions>
      </trkpt>
      <trkpt lat="36.85418419539928436279296875" lon="-118.416714034974575042724609375">
        <ele>2878.800048828125</ele>
        <time>2021-06-27T22:59:56.000Z</time>
        <extensions>
          <ns3:TrackPointExtension>
            <ns3:atemp>30.0</ns3:atemp>
            <ns3:hr>80</ns3:hr>
          </ns3:TrackPointExtension>
        </extensions>
      </trkpt>
      <trkpt lat="36.854214370250701904296875" lon="-118.41672199778258800506591796875">
        <ele>2878.199951171875</ele>
        <time>2021-06-27T22:59:59.000Z</time>
        <extensions>
          <ns3:TrackPointExtension>
            <ns3:atemp>30.0</ns3:atemp>
            <ns3:hr>80</ns3:hr>
          </ns3:TrackPointExtension>
        </extensions>
      </trkpt>
      <trkpt lat="36.8542554415762424468994140625" lon="-118.4167376719415187835693359375">
        <ele>2878</ele>
        <time>2021-06-27T23:00:03.000Z</time>
        <extensions>
          <ns3:TrackPointExtension>
            <ns3:atemp>30.0</ns3:atemp>
            <ns3:hr>80</ns3:hr>
          </ns3:TrackPointExtension>
        </extensions>
      </trkpt>
      <trkpt lat="36.85430028475821018218994140625" lon="-118.41674462892115116119384765625">
        <ele>2877.60009765625</ele>
        <time>2021-06-27T23:00:07.000Z</time>
        <extensions>
          <ns3:TrackPointExtension>
            <ns3:atemp>30.0</ns3:atemp>
            <ns3:hr>80</ns3:hr>
          </ns3:TrackPointExtension>
        </extensions>
      </trkpt>
      <trkpt lat="36.854351498186588287353515625" lon="-118.41676088981330394744873046875">
        <ele>2877</ele>
        <time>2021-06-27T23:00:13.000Z</time>
        <extensions>
          <ns3:TrackPointExtension>
            <ns3:atemp>30.0</ns3:atemp>
            <ns3:hr>80</ns3:hr>
          </ns3:TrackPointExtension>
        </extensions>
      </trkpt>
      <trkpt lat="36.85437018983066082000732421875" lon="-118.4167654998600482940673828125">
        <ele>2876.800048828125</ele>
        <time>2021-06-27T23:00:15.000Z</time>
        <extensions>
          <ns3:TrackPointExtension>
            <ns3:atemp>30.0</ns3:atemp>
            <ns3:hr>79</ns3:hr>
          </ns3:TrackPointExtension>
        </extensions>
      </trkpt>
      <trkpt lat="36.85439634136855602264404296875" lon="-118.4167745523154735565185546875">
        <ele>2876.800048828125</ele>
        <time>2021-06-27T23:00:18.000Z</time>
        <extensions>
          <ns3:TrackPointExtension>
            <ns3:atemp>30.0</ns3:atemp>
            <ns3:hr>80</ns3:hr>
          </ns3:TrackPointExtension>
        </extensions>
      </trkpt>
      <trkpt lat="36.8544222414493560791015625" lon="-118.41679911129176616668701171875">
        <ele>2876.60009765625</ele>
        <time>2021-06-27T23:00:21.000Z</time>
        <extensions>
          <ns3:TrackPointExtension>
            <ns3:atemp>30.0</ns3:atemp>
            <ns3:hr>79</ns3:hr>
          </ns3:TrackPointExtension>
        </extensions>
      </trkpt>
      <trkpt lat="36.85444495640695095062255859375" lon="-118.41683012433350086212158203125">
        <ele>2875.60009765625</ele>
        <time>2021-06-27T23:00:24.000Z</time>
        <extensions>
          <ns3:TrackPointExtension>
            <ns3:atemp>30.0</ns3:atemp>
            <ns3:hr>77</ns3:hr>
          </ns3:TrackPointExtension>
        </extensions>
      </trkpt>
      <trkpt lat="36.8544705212116241455078125" lon="-118.41686918400228023529052734375">
        <ele>2875.199951171875</ele>
        <time>2021-06-27T23:00:28.000Z</time>
        <extensions>
          <ns3:TrackPointExtension>
            <ns3:atemp>30.0</ns3:atemp>
            <ns3:hr>75</ns3:hr>
          </ns3:TrackPointExtension>
        </extensions>
      </trkpt>
      <trkpt lat="36.8544683419167995452880859375" lon="-118.4168784879148006439208984375">
        <ele>2875</ele>
        <time>2021-06-27T23:00:29.000Z</time>
        <extensions>
          <ns3:TrackPointExtension>
            <ns3:atemp>30.0</ns3:atemp>
            <ns3:hr>75</ns3:hr>
          </ns3:TrackPointExtension>
        </extensions>
      </trkpt>
      <trkpt lat="36.8544686771929264068603515625" lon="-118.41688712127506732940673828125">
        <ele>2875</ele>
        <time>2021-06-27T23:00:30.000Z</time>
        <extensions>
          <ns3:TrackPointExtension>
            <ns3:atemp>30.0</ns3:atemp>
            <ns3:hr>75</ns3:hr>
          </ns3:TrackPointExtension>
        </extensions>
      </trkpt>
      <trkpt lat="36.85443791560828685760498046875" lon="-118.41691612266004085540771484375">
        <ele>2874.39990234375</ele>
        <time>2021-06-27T23:00:35.000Z</time>
        <extensions>
          <ns3:TrackPointExtension>
            <ns3:atemp>30.0</ns3:atemp>
            <ns3:hr>76</ns3:hr>
          </ns3:TrackPointExtension>
        </extensions>
      </trkpt>
      <trkpt lat="36.85443322174251079559326171875" lon="-118.41692383401095867156982421875">
        <ele>2874.39990234375</ele>
        <time>2021-06-27T23:00:36.000Z</time>
        <extensions>
          <ns3:TrackPointExtension>
            <ns3:atemp>30.0</ns3:atemp>
            <ns3:hr>76</ns3:hr>
          </ns3:TrackPointExtension>
        </extensions>
      </trkpt>
      <trkpt lat="36.854375638067722320556640625" lon="-118.41700245626270771026611328125">
        <ele>2873.800048828125</ele>
        <time>2021-06-27T23:00:44.000Z</time>
        <extensions>
          <ns3:TrackPointExtension>
            <ns3:atemp>30.0</ns3:atemp>
            <ns3:hr>79</ns3:hr>
          </ns3:TrackPointExtension>
        </extensions>
      </trkpt>
      <trkpt lat="36.85437572188675403594970703125" lon="-118.41701553203165531158447265625">
        <ele>2873.800048828125</ele>
        <time>2021-06-27T23:00:45.000Z</time>
        <extensions>
          <ns3:TrackPointExtension>
            <ns3:atemp>30.0</ns3:atemp>
            <ns3:hr>80</ns3:hr>
          </ns3:TrackPointExtension>
        </extensions>
      </trkpt>
      <trkpt lat="36.85437840409576892852783203125" lon="-118.417041264474391937255859375">
        <ele>2874</ele>
        <time>2021-06-27T23:00:47.000Z</time>
        <extensions>
          <ns3:TrackPointExtension>
            <ns3:atemp>30.0</ns3:atemp>
            <ns3:hr>80</ns3:hr>
          </ns3:TrackPointExtension>
        </extensions>
      </trkpt>
      <trkpt lat="36.8543677590787410736083984375" lon="-118.41714427806437015533447265625">
        <ele>2873.800048828125</ele>
        <time>2021-06-27T23:00:55.000Z</time>
        <extensions>
          <ns3:TrackPointExtension>
            <ns3:atemp>30.0</ns3:atemp>
            <ns3:hr>79</ns3:hr>
          </ns3:TrackPointExtension>
        </extensions>
      </trkpt>
      <trkpt lat="36.85437018983066082000732421875" lon="-118.41715852729976177215576171875">
        <ele>2873.800048828125</ele>
        <time>2021-06-27T23:00:56.000Z</time>
        <extensions>
          <ns3:TrackPointExtension>
            <ns3:atemp>30.0</ns3:atemp>
            <ns3:hr>78</ns3:hr>
          </ns3:TrackPointExtension>
        </extensions>
      </trkpt>
      <trkpt lat="36.854368932545185089111328125" lon="-118.4171765483915805816650390625">
        <ele>2874</ele>
        <time>2021-06-27T23:00:57.000Z</time>
        <extensions>
          <ns3:TrackPointExtension>
            <ns3:atemp>30.0</ns3:atemp>
            <ns3:hr>78</ns3:hr>
          </ns3:TrackPointExtension>
        </extensions>
      </trkpt>
      <trkpt lat="36.85437438078224658966064453125" lon="-118.41724318452179431915283203125">
        <ele>2874.199951171875</ele>
        <time>2021-06-27T23:01:02.000Z</time>
        <extensions>
          <ns3:TrackPointExtension>
            <ns3:atemp>30.0</ns3:atemp>
            <ns3:hr>79</ns3:hr>
          </ns3:TrackPointExtension>
        </extensions>
      </trkpt>
      <trkpt lat="36.85438401997089385986328125" lon="-118.41730185784399509429931640625">
        <ele>2873.800048828125</ele>
        <time>2021-06-27T23:01:06.000Z</time>
        <extensions>
          <ns3:TrackPointExtension>
            <ns3:atemp>30.0</ns3:atemp>
            <ns3:hr>82</ns3:hr>
          </ns3:TrackPointExtension>
        </extensions>
      </trkpt>
      <trkpt lat="36.854396425187587738037109375" lon="-118.41738483868539333343505859375">
        <ele>2873.60009765625</ele>
        <time>2021-06-27T23:01:12.000Z</time>
        <extensions>
          <ns3:TrackPointExtension>
            <ns3:atemp>30.0</ns3:atemp>
            <ns3:hr>84</ns3:hr>
          </ns3:TrackPointExtension>
        </extensions>
      </trkpt>
      <trkpt lat="36.8543992750346660614013671875" lon="-118.4174202941358089447021484375">
        <ele>2873.39990234375</ele>
        <time>2021-06-27T23:01:15.000Z</time>
        <extensions>
          <ns3:TrackPointExtension>
            <ns3:atemp>30.0</ns3:atemp>
            <ns3:hr>86</ns3:hr>
          </ns3:TrackPointExtension>
        </extensions>
      </trkpt>
      <trkpt lat="36.85440438799560070037841796875" lon="-118.41746471822261810302734375">
        <ele>2873</ele>
        <time>2021-06-27T23:01:18.000Z</time>
        <extensions>
          <ns3:TrackPointExtension>
            <ns3:atemp>30.0</ns3:atemp>
            <ns3:hr>86</ns3:hr>
          </ns3:TrackPointExtension>
        </extensions>
      </trkpt>
      <trkpt lat="36.8544053100049495697021484375" lon="-118.417479805648326873779296875">
        <ele>2872.800048828125</ele>
        <time>2021-06-27T23:01:19.000Z</time>
        <extensions>
          <ns3:TrackPointExtension>
            <ns3:atemp>30.0</ns3:atemp>
            <ns3:hr>86</ns3:hr>
          </ns3:TrackPointExtension>
        </extensions>
      </trkpt>
      <trkpt lat="36.854407154023647308349609375" lon="-118.417506627738475799560546875">
        <ele>2872.199951171875</ele>
        <time>2021-06-27T23:01:21.000Z</time>
        <extensions>
          <ns3:TrackPointExtension>
            <ns3:atemp>30.0</ns3:atemp>
            <ns3:hr>86</ns3:hr>
          </ns3:TrackPointExtension>
        </extensions>
      </trkpt>
      <trkpt lat="36.85441578738391399383544921875" lon="-118.4175902791321277618408203125">
        <ele>2872</ele>
        <time>2021-06-27T23:01:28.000Z</time>
        <extensions>
          <ns3:TrackPointExtension>
            <ns3:atemp>30.0</ns3:atemp>
            <ns3:hr>86</ns3:hr>
          </ns3:TrackPointExtension>
        </extensions>
      </trkpt>
      <trkpt lat="36.85444210655987262725830078125" lon="-118.4176519699394702911376953125">
        <ele>2871.60009765625</ele>
        <time>2021-06-27T23:01:33.000Z</time>
        <extensions>
          <ns3:TrackPointExtension>
            <ns3:atemp>30.0</ns3:atemp>
            <ns3:hr>83</ns3:hr>
          </ns3:TrackPointExtension>
        </extensions>
      </trkpt>
      <trkpt lat="36.85445568524301052093505859375" lon="-118.41769027523696422576904296875">
        <ele>2871.39990234375</ele>
        <time>2021-06-27T23:01:36.000Z</time>
        <extensions>
          <ns3:TrackPointExtension>
            <ns3:atemp>30.0</ns3:atemp>
            <ns3:hr>82</ns3:hr>
          </ns3:TrackPointExtension>
        </extensions>
      </trkpt>
      <trkpt lat="36.8544556014239788055419921875" lon="-118.4177173487842082977294921875">
        <ele>2871.199951171875</ele>
        <time>2021-06-27T23:01:38.000Z</time>
        <extensions>
          <ns3:TrackPointExtension>
            <ns3:atemp>30.0</ns3:atemp>
            <ns3:hr>81</ns3:hr>
          </ns3:TrackPointExtension>
        </extensions>
      </trkpt>
      <trkpt lat="36.8544549308717250823974609375" lon="-118.4177719987928867340087890625">
        <ele>2870.60009765625</ele>
        <time>2021-06-27T23:01:43.000Z</time>
        <extensions>
          <ns3:TrackPointExtension>
            <ns3:atemp>30.0</ns3:atemp>
            <ns3:hr>84</ns3:hr>
          </ns3:TrackPointExtension>
        </extensions>
      </trkpt>
      <trkpt lat="36.85444462113082408905029296875" lon="-118.41779052279889583587646484375">
        <ele>2869.60009765625</ele>
        <time>2021-06-27T23:01:45.000Z</time>
        <extensions>
          <ns3:TrackPointExtension>
            <ns3:atemp>30.0</ns3:atemp>
            <ns3:hr>85</ns3:hr>
          </ns3:TrackPointExtension>
        </extensions>
      </trkpt>
      <trkpt lat="36.8544120155274868011474609375" lon="-118.4178363718092441558837890625">
        <ele>2869.199951171875</ele>
        <time>2021-06-27T23:01:50.000Z</time>
        <extensions>
          <ns3:TrackPointExtension>
            <ns3:atemp>30.0</ns3:atemp>
            <ns3:hr>87</ns3:hr>
          </ns3:TrackPointExtension>
        </extensions>
      </trkpt>
      <trkpt lat="36.8544143624603748321533203125" lon="-118.41784894466400146484375">
        <ele>2869.199951171875</ele>
        <time>2021-06-27T23:01:51.000Z</time>
        <extensions>
          <ns3:TrackPointExtension>
            <ns3:atemp>30.0</ns3:atemp>
            <ns3:hr>87</ns3:hr>
          </ns3:TrackPointExtension>
        </extensions>
      </trkpt>
      <trkpt lat="36.85443255119025707244873046875" lon="-118.4178905189037322998046875">
        <ele>2868.800048828125</ele>
        <time>2021-06-27T23:01:55.000Z</time>
        <extensions>
          <ns3:TrackPointExtension>
            <ns3:atemp>30.0</ns3:atemp>
            <ns3:hr>86</ns3:hr>
          </ns3:TrackPointExtension>
        </extensions>
      </trkpt>
      <trkpt lat="36.8544431962072849273681640625" lon="-118.41789965517818927764892578125">
        <ele>2868.60009765625</ele>
        <time>2021-06-27T23:01:56.000Z</time>
        <extensions>
          <ns3:TrackPointExtension>
            <ns3:atemp>30.0</ns3:atemp>
            <ns3:hr>88</ns3:hr>
          </ns3:TrackPointExtension>
        </extensions>
      </trkpt>
      <trkpt lat="36.8544616363942623138427734375" lon="-118.41791910119354724884033203125">
        <ele>2868.60009765625</ele>
        <time>2021-06-27T23:01:58.000Z</time>
        <extensions>
          <ns3:TrackPointExtension>
            <ns3:atemp>30.0</ns3:atemp>
            <ns3:hr>87</ns3:hr>
          </ns3:TrackPointExtension>
        </extensions>
      </trkpt>
      <trkpt lat="36.8544740416109561920166015625" lon="-118.4179624356329441070556640625">
        <ele>2868.199951171875</ele>
        <time>2021-06-27T23:02:01.000Z</time>
        <extensions>
          <ns3:TrackPointExtension>
            <ns3:atemp>30.0</ns3:atemp>
            <ns3:hr>84</ns3:hr>
          </ns3:TrackPointExtension>
        </extensions>
      </trkpt>
      <trkpt lat="36.8545109219849109649658203125" lon="-118.418003506958484649658203125">
        <ele>2868</ele>
        <time>2021-06-27T23:02:06.000Z</time>
        <extensions>
          <ns3:TrackPointExtension>
            <ns3:atemp>30.0</ns3:atemp>
            <ns3:hr>81</ns3:hr>
          </ns3:TrackPointExtension>
        </extensions>
      </trkpt>
      <trkpt lat="36.854536570608615875244140625" lon="-118.41802052222192287445068359375">
        <ele>2867.199951171875</ele>
        <time>2021-06-27T23:02:09.000Z</time>
        <extensions>
          <ns3:TrackPointExtension>
            <ns3:atemp>30.0</ns3:atemp>
            <ns3:hr>81</ns3:hr>
          </ns3:TrackPointExtension>
        </extensions>
      </trkpt>
      <trkpt lat="36.85456062667071819305419921875" lon="-118.41805270873010158538818359375">
        <ele>2866.39990234375</ele>
        <time>2021-06-27T23:02:14.000Z</time>
        <extensions>
          <ns3:TrackPointExtension>
            <ns3:atemp>30.0</ns3:atemp>
            <ns3:hr>80</ns3:hr>
          </ns3:TrackPointExtension>
        </extensions>
      </trkpt>
      <trkpt lat="36.854562722146511077880859375" lon="-118.41807047836482524871826171875">
        <ele>2866.199951171875</ele>
        <time>2021-06-27T23:02:16.000Z</time>
        <extensions>
          <ns3:TrackPointExtension>
            <ns3:atemp>30.0</ns3:atemp>
            <ns3:hr>80</ns3:hr>
          </ns3:TrackPointExtension>
        </extensions>
      </trkpt>
      <trkpt lat="36.85456330887973308563232421875" lon="-118.41808288358151912689208984375">
        <ele>2866.199951171875</ele>
        <time>2021-06-27T23:02:17.000Z</time>
        <extensions>
          <ns3:TrackPointExtension>
            <ns3:atemp>30.0</ns3:atemp>
            <ns3:hr>80</ns3:hr>
          </ns3:TrackPointExtension>
        </extensions>
      </trkpt>
      <trkpt lat="36.8545561842620372772216796875" lon="-118.41812579892575740814208984375">
        <ele>2865.39990234375</ele>
        <time>2021-06-27T23:02:21.000Z</time>
        <extensions>
          <ns3:TrackPointExtension>
            <ns3:atemp>30.0</ns3:atemp>
            <ns3:hr>78</ns3:hr>
          </ns3:TrackPointExtension>
        </extensions>
      </trkpt>
      <trkpt lat="36.85456330887973308563232421875" lon="-118.41815136373043060302734375">
        <ele>2865.39990234375</ele>
        <time>2021-06-27T23:02:23.000Z</time>
        <extensions>
          <ns3:TrackPointExtension>
            <ns3:atemp>30.0</ns3:atemp>
            <ns3:hr>77</ns3:hr>
          </ns3:TrackPointExtension>
        </extensions>
      </trkpt>
      <trkpt lat="36.8545804917812347412109375" lon="-118.418186567723751068115234375">
        <ele>2865.199951171875</ele>
        <time>2021-06-27T23:02:26.000Z</time>
        <extensions>
          <ns3:TrackPointExtension>
            <ns3:atemp>30.0</ns3:atemp>
            <ns3:hr>74</ns3:hr>
          </ns3:TrackPointExtension>
        </extensions>
      </trkpt>
      <trkpt lat="36.85460253618657588958740234375" lon="-118.41823325492441654205322265625">
        <ele>2865.199951171875</ele>
        <time>2021-06-27T23:02:30.000Z</time>
        <extensions>
          <ns3:TrackPointExtension>
            <ns3:atemp>30.0</ns3:atemp>
            <ns3:hr>71</ns3:hr>
          </ns3:TrackPointExtension>
        </extensions>
      </trkpt>
      <trkpt lat="36.854623742401599884033203125" lon="-118.41827181167900562286376953125">
        <ele>2865.199951171875</ele>
        <time>2021-06-27T23:02:34.000Z</time>
        <extensions>
          <ns3:TrackPointExtension>
            <ns3:atemp>30.0</ns3:atemp>
            <ns3:hr>72</ns3:hr>
          </ns3:TrackPointExtension>
        </extensions>
      </trkpt>
      <trkpt lat="36.8546490557491779327392578125" lon="-118.41827734373509883880615234375">
        <ele>2865.199951171875</ele>
        <time>2021-06-27T23:02:38.000Z</time>
        <extensions>
          <ns3:TrackPointExtension>
            <ns3:atemp>30.0</ns3:atemp>
            <ns3:hr>73</ns3:hr>
          </ns3:TrackPointExtension>
        </extensions>
      </trkpt>
      <trkpt lat="36.85464930720627307891845703125" lon="-118.41827097348868846893310546875">
        <ele>2865.199951171875</ele>
        <time>2021-06-27T23:02:40.000Z</time>
        <extensions>
          <ns3:TrackPointExtension>
            <ns3:atemp>30.0</ns3:atemp>
            <ns3:hr>75</ns3:hr>
          </ns3:TrackPointExtension>
        </extensions>
      </trkpt>
      <trkpt lat="36.85465182177722454071044921875" lon="-118.418270051479339599609375">
        <ele>2865</ele>
        <time>2021-06-27T23:02:41.000Z</time>
        <extensions>
          <ns3:TrackPointExtension>
            <ns3:atemp>30.0</ns3:atemp>
            <ns3:hr>73</ns3:hr>
          </ns3:TrackPointExtension>
        </extensions>
      </trkpt>
      <trkpt lat="36.8546581082046031951904296875" lon="-118.418270051479339599609375">
        <ele>2865</ele>
        <time>2021-06-27T23:02:42.000Z</time>
        <extensions>
          <ns3:TrackPointExtension>
            <ns3:atemp>30.0</ns3:atemp>
            <ns3:hr>74</ns3:hr>
          </ns3:TrackPointExtension>
        </extensions>
      </trkpt>
      <trkpt lat="36.85465685091912746429443359375" lon="-118.4182829596102237701416015625">
        <ele>2865</ele>
        <time>2021-06-27T23:02:49.000Z</time>
        <extensions>
          <ns3:TrackPointExtension>
            <ns3:atemp>30.0</ns3:atemp>
            <ns3:hr>77</ns3:hr>
          </ns3:TrackPointExtension>
        </extensions>
      </trkpt>
      <trkpt lat="36.8546745367348194122314453125" lon="-118.418291173875331878662109375">
        <ele>2865</ele>
        <time>2021-06-27T23:02:51.000Z</time>
        <extensions>
          <ns3:TrackPointExtension>
            <ns3:atemp>30.0</ns3:atemp>
            <ns3:hr>78</ns3:hr>
          </ns3:TrackPointExtension>
        </extensions>
      </trkpt>
      <trkpt lat="36.8547315336763858795166015625" lon="-118.4182866476476192474365234375">
        <ele>2865.39990234375</ele>
        <time>2021-06-27T23:02:57.000Z</time>
        <extensions>
          <ns3:TrackPointExtension>
            <ns3:atemp>30.0</ns3:atemp>
            <ns3:hr>79</ns3:hr>
          </ns3:TrackPointExtension>
        </extensions>
      </trkpt>
      <trkpt lat="36.8548143468797206878662109375" lon="-118.41829360462725162506103515625">
        <ele>2865.199951171875</ele>
        <time>2021-06-27T23:03:05.000Z</time>
        <extensions>
          <ns3:TrackPointExtension>
            <ns3:atemp>30.0</ns3:atemp>
            <ns3:hr>82</ns3:hr>
          </ns3:TrackPointExtension>
        </extensions>
      </trkpt>
      <trkpt lat="36.85482499189674854278564453125" lon="-118.4182906709611415863037109375">
        <ele>2865.199951171875</ele>
        <time>2021-06-27T23:03:06.000Z</time>
        <extensions>
          <ns3:TrackPointExtension>
            <ns3:atemp>30.0</ns3:atemp>
            <ns3:hr>84</ns3:hr>
          </ns3:TrackPointExtension>
        </extensions>
      </trkpt>
      <trkpt lat="36.8548894487321376800537109375" lon="-118.4182943589985370635986328125">
        <ele>2864.39990234375</ele>
        <time>2021-06-27T23:03:12.000Z</time>
        <extensions>
          <ns3:TrackPointExtension>
            <ns3:atemp>30.0</ns3:atemp>
            <ns3:hr>80</ns3:hr>
          </ns3:TrackPointExtension>
        </extensions>
      </trkpt>
      <trkpt lat="36.85490177012979984283447265625" lon="-118.41829477809369564056396484375">
        <ele>2864.199951171875</ele>
        <time>2021-06-27T23:03:13.000Z</time>
        <extensions>
          <ns3:TrackPointExtension>
            <ns3:atemp>30.0</ns3:atemp>
            <ns3:hr>82</ns3:hr>
          </ns3:TrackPointExtension>
        </extensions>
      </trkpt>
      <trkpt lat="36.85491166077554225921630859375" lon="-118.41829628683626651763916015625">
        <ele>2863.60009765625</ele>
        <time>2021-06-27T23:03:14.000Z</time>
        <extensions>
          <ns3:TrackPointExtension>
            <ns3:atemp>30.0</ns3:atemp>
            <ns3:hr>81</ns3:hr>
          </ns3:TrackPointExtension>
        </extensions>
      </trkpt>
      <trkpt lat="36.85498558916151523590087890625" lon="-118.41834473423659801483154296875">
        <ele>2863</ele>
        <time>2021-06-27T23:03:22.000Z</time>
        <extensions>
          <ns3:TrackPointExtension>
            <ns3:atemp>30.0</ns3:atemp>
            <ns3:hr>79</ns3:hr>
          </ns3:TrackPointExtension>
        </extensions>
      </trkpt>
      <trkpt lat="36.85507058165967464447021484375" lon="-118.418395780026912689208984375">
        <ele>2863.199951171875</ele>
        <time>2021-06-27T23:03:31.000Z</time>
        <extensions>
          <ns3:TrackPointExtension>
            <ns3:atemp>30.0</ns3:atemp>
            <ns3:hr>79</ns3:hr>
          </ns3:TrackPointExtension>
        </extensions>
      </trkpt>
      <trkpt lat="36.85510243289172649383544921875" lon="-118.4184001386165618896484375">
        <ele>2862.199951171875</ele>
        <time>2021-06-27T23:03:34.000Z</time>
        <extensions>
          <ns3:TrackPointExtension>
            <ns3:atemp>30.0</ns3:atemp>
            <ns3:hr>79</ns3:hr>
          </ns3:TrackPointExtension>
        </extensions>
      </trkpt>
      <trkpt lat="36.85516454279422760009765625" lon="-118.418413884937763214111328125">
        <ele>2861.800048828125</ele>
        <time>2021-06-27T23:03:39.000Z</time>
        <extensions>
          <ns3:TrackPointExtension>
            <ns3:atemp>30.0</ns3:atemp>
            <ns3:hr>77</ns3:hr>
          </ns3:TrackPointExtension>
        </extensions>
      </trkpt>
      <trkpt lat="36.85517468489706516265869140625" lon="-118.4184189140796661376953125">
        <ele>2861.800048828125</ele>
        <time>2021-06-27T23:03:40.000Z</time>
        <extensions>
          <ns3:TrackPointExtension>
            <ns3:atemp>30.0</ns3:atemp>
            <ns3:hr>75</ns3:hr>
          </ns3:TrackPointExtension>
        </extensions>
      </trkpt>
      <trkpt lat="36.8552143312990665435791015625" lon="-118.4184358455240726470947265625">
        <ele>2861</ele>
        <time>2021-06-27T23:03:44.000Z</time>
        <extensions>
          <ns3:TrackPointExtension>
            <ns3:atemp>30.0</ns3:atemp>
            <ns3:hr>74</ns3:hr>
          </ns3:TrackPointExtension>
        </extensions>
      </trkpt>
      <trkpt lat="36.85522631742060184478759765625" lon="-118.41845118440687656402587890625">
        <ele>2861</ele>
        <time>2021-06-27T23:03:45.000Z</time>
        <extensions>
          <ns3:TrackPointExtension>
            <ns3:atemp>30.0</ns3:atemp>
            <ns3:hr>73</ns3:hr>
          </ns3:TrackPointExtension>
        </extensions>
      </trkpt>
      <trkpt lat="36.8552552349865436553955078125" lon="-118.418465517461299896240234375">
        <ele>2860.800048828125</ele>
        <time>2021-06-27T23:03:47.000Z</time>
        <extensions>
          <ns3:TrackPointExtension>
            <ns3:atemp>30.0</ns3:atemp>
            <ns3:hr>73</ns3:hr>
          </ns3:TrackPointExtension>
        </extensions>
      </trkpt>
      <trkpt lat="36.85533083975315093994140625" lon="-118.41847465373575687408447265625">
        <ele>2860.39990234375</ele>
        <time>2021-06-27T23:03:54.000Z</time>
        <extensions>
          <ns3:TrackPointExtension>
            <ns3:atemp>29.0</ns3:atemp>
            <ns3:hr>69</ns3:hr>
          </ns3:TrackPointExtension>
        </extensions>
      </trkpt>
      <trkpt lat="36.85534098185598850250244140625" lon="-118.418478928506374359130859375">
        <ele>2860.39990234375</ele>
        <time>2021-06-27T23:03:55.000Z</time>
        <extensions>
          <ns3:TrackPointExtension>
            <ns3:atemp>29.0</ns3:atemp>
            <ns3:hr>72</ns3:hr>
          </ns3:TrackPointExtension>
        </extensions>
      </trkpt>
      <trkpt lat="36.85535104013979434967041015625" lon="-118.418484963476657867431640625">
        <ele>2860.199951171875</ele>
        <time>2021-06-27T23:03:56.000Z</time>
        <extensions>
          <ns3:TrackPointExtension>
            <ns3:atemp>30.0</ns3:atemp>
            <ns3:hr>69</ns3:hr>
          </ns3:TrackPointExtension>
        </extensions>
      </trkpt>
      <trkpt lat="36.85536059550940990447998046875" lon="-118.4184928424656391143798828125">
        <ele>2860.199951171875</ele>
        <time>2021-06-27T23:03:57.000Z</time>
        <extensions>
          <ns3:TrackPointExtension>
            <ns3:atemp>29.0</ns3:atemp>
            <ns3:hr>72</ns3:hr>
          </ns3:TrackPointExtension>
        </extensions>
      </trkpt>
      <trkpt lat="36.8554034270346164703369140625" lon="-118.418521843850612640380859375">
        <ele>2859.800048828125</ele>
        <time>2021-06-27T23:04:01.000Z</time>
        <extensions>
          <ns3:TrackPointExtension>
            <ns3:atemp>29.0</ns3:atemp>
            <ns3:hr>73</ns3:hr>
          </ns3:TrackPointExtension>
        </extensions>
      </trkpt>
      <trkpt lat="36.8554329313337802886962890625" lon="-118.4185468219220638275146484375">
        <ele>2859.60009765625</ele>
        <time>2021-06-27T23:04:05.000Z</time>
        <extensions>
          <ns3:TrackPointExtension>
            <ns3:atemp>29.0</ns3:atemp>
            <ns3:hr>76</ns3:hr>
          </ns3:TrackPointExtension>
        </extensions>
      </trkpt>
      <trkpt lat="36.85543837957084178924560546875" lon="-118.41854003258049488067626953125">
        <ele>2859.39990234375</ele>
        <time>2021-06-27T23:04:06.000Z</time>
        <extensions>
          <ns3:TrackPointExtension>
            <ns3:atemp>29.0</ns3:atemp>
            <ns3:hr>77</ns3:hr>
          </ns3:TrackPointExtension>
        </extensions>
      </trkpt>
      <trkpt lat="36.855467297136783599853515625" lon="-118.418550677597522735595703125">
        <ele>2859.39990234375</ele>
        <time>2021-06-27T23:04:09.000Z</time>
        <extensions>
          <ns3:TrackPointExtension>
            <ns3:atemp>29.0</ns3:atemp>
            <ns3:hr>77</ns3:hr>
          </ns3:TrackPointExtension>
        </extensions>
      </trkpt>
      <trkpt lat="36.85548732988536357879638671875" lon="-118.41856081970036029815673828125">
        <ele>2859.39990234375</ele>
        <time>2021-06-27T23:04:11.000Z</time>
        <extensions>
          <ns3:TrackPointExtension>
            <ns3:atemp>29.0</ns3:atemp>
            <ns3:hr>78</ns3:hr>
          </ns3:TrackPointExtension>
        </extensions>
      </trkpt>
      <trkpt lat="36.85556813143193721771240234375" lon="-118.4185709618031978607177734375">
        <ele>2859</ele>
        <time>2021-06-27T23:04:19.000Z</time>
        <extensions>
          <ns3:TrackPointExtension>
            <ns3:atemp>29.0</ns3:atemp>
            <ns3:hr>80</ns3:hr>
          </ns3:TrackPointExtension>
        </extensions>
      </trkpt>
      <trkpt lat="36.855590678751468658447265625" lon="-118.41857523657381534576416015625">
        <ele>2859</ele>
        <time>2021-06-27T23:04:22.000Z</time>
        <extensions>
          <ns3:TrackPointExtension>
            <ns3:atemp>29.0</ns3:atemp>
            <ns3:hr>83</ns3:hr>
          </ns3:TrackPointExtension>
        </extensions>
      </trkpt>
      <trkpt lat="36.8555948697030544281005859375" lon="-118.41857925988733768463134765625">
        <ele>2859</ele>
        <time>2021-06-27T23:04:24.000Z</time>
        <extensions>
          <ns3:TrackPointExtension>
            <ns3:atemp>29.0</ns3:atemp>
            <ns3:hr>84</ns3:hr>
          </ns3:TrackPointExtension>
        </extensions>
      </trkpt>
      <trkpt lat="36.8555978871881961822509765625" lon="-118.41858395375311374664306640625">
        <ele>2859</ele>
        <time>2021-06-27T23:04:25.000Z</time>
        <extensions>
          <ns3:TrackPointExtension>
            <ns3:atemp>29.0</ns3:atemp>
            <ns3:hr>84</ns3:hr>
          </ns3:TrackPointExtension>
        </extensions>
      </trkpt>
      <trkpt lat="36.85559864155948162078857421875" lon="-118.41858680360019207000732421875">
        <ele>2859</ele>
        <time>2021-06-27T23:04:26.000Z</time>
        <extensions>
          <ns3:TrackPointExtension>
            <ns3:atemp>29.0</ns3:atemp>
            <ns3:hr>85</ns3:hr>
          </ns3:TrackPointExtension>
        </extensions>
      </trkpt>
      <trkpt lat="36.85559394769370555877685546875" lon="-118.41859283857047557830810546875">
        <ele>2858.800048828125</ele>
        <time>2021-06-27T23:04:30.000Z</time>
        <extensions>
          <ns3:TrackPointExtension>
            <ns3:atemp>30.0</ns3:atemp>
            <ns3:hr>87</ns3:hr>
          </ns3:TrackPointExtension>
        </extensions>
      </trkpt>
      <trkpt lat="36.85558875091373920440673828125" lon="-118.418567441403865814208984375">
        <ele>2858.800048828125</ele>
        <time>2021-06-27T23:04:37.000Z</time>
        <extensions>
          <ns3:TrackPointExtension>
            <ns3:atemp>30.0</ns3:atemp>
            <ns3:hr>86</ns3:hr>
          </ns3:TrackPointExtension>
        </extensions>
      </trkpt>
      <trkpt lat="36.85561959631741046905517578125" lon="-118.41858898289501667022705078125">
        <ele>2858.39990234375</ele>
        <time>2021-06-27T23:04:40.000Z</time>
        <extensions>
          <ns3:TrackPointExtension>
            <ns3:atemp>30.0</ns3:atemp>
            <ns3:hr>83</ns3:hr>
          </ns3:TrackPointExtension>
        </extensions>
      </trkpt>
      <trkpt lat="36.85565781779587268829345703125" lon="-118.41859300620853900909423828125">
        <ele>2858</ele>
        <time>2021-06-27T23:04:44.000Z</time>
        <extensions>
          <ns3:TrackPointExtension>
            <ns3:atemp>30.0</ns3:atemp>
            <ns3:hr>86</ns3:hr>
          </ns3:TrackPointExtension>
        </extensions>
      </trkpt>
      <trkpt lat="36.85570810921490192413330078125" lon="-118.4186041541397571563720703125">
        <ele>2857.39990234375</ele>
        <time>2021-06-27T23:04:49.000Z</time>
        <extensions>
          <ns3:TrackPointExtension>
            <ns3:atemp>30.0</ns3:atemp>
            <ns3:hr>84</ns3:hr>
          </ns3:TrackPointExtension>
        </extensions>
      </trkpt>
      <trkpt lat="36.855742223560810089111328125" lon="-118.41862142086029052734375">
        <ele>2856.800048828125</ele>
        <time>2021-06-27T23:04:52.000Z</time>
        <extensions>
          <ns3:TrackPointExtension>
            <ns3:atemp>30.0</ns3:atemp>
            <ns3:hr>82</ns3:hr>
          </ns3:TrackPointExtension>
        </extensions>
      </trkpt>
      <trkpt lat="36.8557672016322612762451171875" lon="-118.418623767793178558349609375">
        <ele>2856.39990234375</ele>
        <time>2021-06-27T23:04:55.000Z</time>
        <extensions>
          <ns3:TrackPointExtension>
            <ns3:atemp>30.0</ns3:atemp>
            <ns3:hr>85</ns3:hr>
          </ns3:TrackPointExtension>
        </extensions>
      </trkpt>
      <trkpt lat="36.85579343698918819427490234375" lon="-118.41865419410169124603271484375">
        <ele>2856.199951171875</ele>
        <time>2021-06-27T23:04:58.000Z</time>
        <extensions>
          <ns3:TrackPointExtension>
            <ns3:atemp>30.0</ns3:atemp>
            <ns3:hr>85</ns3:hr>
          </ns3:TrackPointExtension>
        </extensions>
      </trkpt>
      <trkpt lat="36.85579813085496425628662109375" lon="-118.41866098344326019287109375">
        <ele>2856.199951171875</ele>
        <time>2021-06-27T23:04:59.000Z</time>
        <extensions>
          <ns3:TrackPointExtension>
            <ns3:atemp>30.0</ns3:atemp>
            <ns3:hr>84</ns3:hr>
          </ns3:TrackPointExtension>
        </extensions>
      </trkpt>
      <trkpt lat="36.85584389604628086090087890625" lon="-118.4186926670372486114501953125">
        <ele>2855.39990234375</ele>
        <time>2021-06-27T23:05:04.000Z</time>
        <extensions>
          <ns3:TrackPointExtension>
            <ns3:atemp>30.0</ns3:atemp>
            <ns3:hr>80</ns3:hr>
          </ns3:TrackPointExtension>
        </extensions>
      </trkpt>
      <trkpt lat="36.8558640964329242706298828125" lon="-118.41871303506195545196533203125">
        <ele>2855.199951171875</ele>
        <time>2021-06-27T23:05:06.000Z</time>
        <extensions>
          <ns3:TrackPointExtension>
            <ns3:atemp>30.0</ns3:atemp>
            <ns3:hr>82</ns3:hr>
          </ns3:TrackPointExtension>
        </extensions>
      </trkpt>
      <trkpt lat="36.8558748252689838409423828125" lon="-118.41872057877480983734130859375">
        <ele>2855.199951171875</ele>
        <time>2021-06-27T23:05:07.000Z</time>
        <extensions>
          <ns3:TrackPointExtension>
            <ns3:atemp>30.0</ns3:atemp>
            <ns3:hr>85</ns3:hr>
          </ns3:TrackPointExtension>
        </extensions>
      </trkpt>
      <trkpt lat="36.855884380638599395751953125" lon="-118.41872611083090305328369140625">
        <ele>2854.800048828125</ele>
        <time>2021-06-27T23:05:08.000Z</time>
        <extensions>
          <ns3:TrackPointExtension>
            <ns3:atemp>30.0</ns3:atemp>
            <ns3:hr>82</ns3:hr>
          </ns3:TrackPointExtension>
        </extensions>
      </trkpt>
      <trkpt lat="36.85590826906263828277587890625" lon="-118.41873113997280597686767578125">
        <ele>2854.199951171875</ele>
        <time>2021-06-27T23:05:10.000Z</time>
        <extensions>
          <ns3:TrackPointExtension>
            <ns3:atemp>30.0</ns3:atemp>
            <ns3:hr>81</ns3:hr>
          </ns3:TrackPointExtension>
        </extensions>
      </trkpt>
      <trkpt lat="36.85591815970838069915771484375" lon="-118.41873147524893283843994140625">
        <ele>2854.39990234375</ele>
        <time>2021-06-27T23:05:11.000Z</time>
        <extensions>
          <ns3:TrackPointExtension>
            <ns3:atemp>30.0</ns3:atemp>
            <ns3:hr>81</ns3:hr>
          </ns3:TrackPointExtension>
        </extensions>
      </trkpt>
      <trkpt lat="36.8559760786592960357666015625" lon="-118.41873918659985065460205078125">
        <ele>2854.199951171875</ele>
        <time>2021-06-27T23:05:16.000Z</time>
        <extensions>
          <ns3:TrackPointExtension>
            <ns3:atemp>30.0</ns3:atemp>
            <ns3:hr>84</ns3:hr>
          </ns3:TrackPointExtension>
        </extensions>
      </trkpt>
      <trkpt lat="36.85600667260587215423583984375" lon="-118.418744467198848724365234375">
        <ele>2854</ele>
        <time>2021-06-27T23:05:19.000Z</time>
        <extensions>
          <ns3:TrackPointExtension>
            <ns3:atemp>30.0</ns3:atemp>
            <ns3:hr>84</ns3:hr>
          </ns3:TrackPointExtension>
        </extensions>
      </trkpt>
      <trkpt lat="36.85602226294577121734619140625" lon="-118.4187613986432552337646484375">
        <ele>2853.60009765625</ele>
        <time>2021-06-27T23:05:21.000Z</time>
        <extensions>
          <ns3:TrackPointExtension>
            <ns3:atemp>30.0</ns3:atemp>
            <ns3:hr>86</ns3:hr>
          </ns3:TrackPointExtension>
        </extensions>
      </trkpt>
      <trkpt lat="36.8560347519814968109130859375" lon="-118.4187662601470947265625">
        <ele>2853.60009765625</ele>
        <time>2021-06-27T23:05:22.000Z</time>
        <extensions>
          <ns3:TrackPointExtension>
            <ns3:atemp>30.0</ns3:atemp>
            <ns3:hr>88</ns3:hr>
          </ns3:TrackPointExtension>
        </extensions>
      </trkpt>
      <trkpt lat="36.85604506172239780426025390625" lon="-118.41876802034676074981689453125">
        <ele>2853.60009765625</ele>
        <time>2021-06-27T23:05:23.000Z</time>
        <extensions>
          <ns3:TrackPointExtension>
            <ns3:atemp>30.0</ns3:atemp>
            <ns3:hr>85</ns3:hr>
          </ns3:TrackPointExtension>
        </extensions>
      </trkpt>
      <trkpt lat="36.85605914331972599029541015625" lon="-118.4187717922031879425048828125">
        <ele>2853.199951171875</ele>
        <time>2021-06-27T23:05:25.000Z</time>
        <extensions>
          <ns3:TrackPointExtension>
            <ns3:atemp>30.0</ns3:atemp>
            <ns3:hr>86</ns3:hr>
          </ns3:TrackPointExtension>
        </extensions>
      </trkpt>
      <trkpt lat="36.856089569628238677978515625" lon="-118.418771289288997650146484375">
        <ele>2853</ele>
        <time>2021-06-27T23:05:28.000Z</time>
        <extensions>
          <ns3:TrackPointExtension>
            <ns3:atemp>30.0</ns3:atemp>
            <ns3:hr>86</ns3:hr>
          </ns3:TrackPointExtension>
        </extensions>
      </trkpt>
      <trkpt lat="36.8561361730098724365234375" lon="-118.4187634103000164031982421875">
        <ele>2852.199951171875</ele>
        <time>2021-06-27T23:05:32.000Z</time>
        <extensions>
          <ns3:TrackPointExtension>
            <ns3:atemp>30.0</ns3:atemp>
            <ns3:hr>85</ns3:hr>
          </ns3:TrackPointExtension>
        </extensions>
      </trkpt>
      <trkpt lat="36.85614698566496372222900390625" lon="-118.418763577938079833984375">
        <ele>2852.199951171875</ele>
        <time>2021-06-27T23:05:33.000Z</time>
        <extensions>
          <ns3:TrackPointExtension>
            <ns3:atemp>30.0</ns3:atemp>
            <ns3:hr>84</ns3:hr>
          </ns3:TrackPointExtension>
        </extensions>
      </trkpt>
      <trkpt lat="36.8561668507754802703857421875" lon="-118.41875913552939891815185546875">
        <ele>2851.800048828125</ele>
        <time>2021-06-27T23:05:35.000Z</time>
        <extensions>
          <ns3:TrackPointExtension>
            <ns3:atemp>30.0</ns3:atemp>
            <ns3:hr>86</ns3:hr>
          </ns3:TrackPointExtension>
        </extensions>
      </trkpt>
      <trkpt lat="36.85620733536779880523681640625" lon="-118.41875628568232059478759765625">
        <ele>2851.39990234375</ele>
        <time>2021-06-27T23:05:38.000Z</time>
        <extensions>
          <ns3:TrackPointExtension>
            <ns3:atemp>30.0</ns3:atemp>
            <ns3:hr>80</ns3:hr>
          </ns3:TrackPointExtension>
        </extensions>
      </trkpt>
      <trkpt lat="36.8562161363661289215087890625" lon="-118.41875980608165264129638671875">
        <ele>2851.39990234375</ele>
        <time>2021-06-27T23:05:39.000Z</time>
        <extensions>
          <ns3:TrackPointExtension>
            <ns3:atemp>30.0</ns3:atemp>
            <ns3:hr>84</ns3:hr>
          </ns3:TrackPointExtension>
        </extensions>
      </trkpt>
      <trkpt lat="36.85624270699918270111083984375" lon="-118.41877908445894718170166015625">
        <ele>2851.800048828125</ele>
        <time>2021-06-27T23:05:42.000Z</time>
        <extensions>
          <ns3:TrackPointExtension>
            <ns3:atemp>30.0</ns3:atemp>
            <ns3:hr>86</ns3:hr>
          </ns3:TrackPointExtension>
        </extensions>
      </trkpt>
      <trkpt lat="36.85628143139183521270751953125" lon="-118.41880582273006439208984375">
        <ele>2851.60009765625</ele>
        <time>2021-06-27T23:05:47.000Z</time>
        <extensions>
          <ns3:TrackPointExtension>
            <ns3:atemp>30.0</ns3:atemp>
            <ns3:hr>90</ns3:hr>
          </ns3:TrackPointExtension>
        </extensions>
      </trkpt>
      <trkpt lat="36.85629132203757762908935546875" lon="-118.4188126958906650543212890625">
        <ele>2851</ele>
        <time>2021-06-27T23:05:48.000Z</time>
        <extensions>
          <ns3:TrackPointExtension>
            <ns3:atemp>30.0</ns3:atemp>
            <ns3:hr>91</ns3:hr>
          </ns3:TrackPointExtension>
        </extensions>
      </trkpt>
      <trkpt lat="36.856346391141414642333984375" lon="-118.41884798370301723480224609375">
        <ele>2850.199951171875</ele>
        <time>2021-06-27T23:05:54.000Z</time>
        <extensions>
          <ns3:TrackPointExtension>
            <ns3:atemp>30.0</ns3:atemp>
            <ns3:hr>94</ns3:hr>
          </ns3:TrackPointExtension>
        </extensions>
      </trkpt>
      <trkpt lat="36.8563747219741344451904296875" lon="-118.41886944137513637542724609375">
        <ele>2850</ele>
        <time>2021-06-27T23:05:58.000Z</time>
        <extensions>
          <ns3:TrackPointExtension>
            <ns3:atemp>30.0</ns3:atemp>
            <ns3:hr>97</ns3:hr>
          </ns3:TrackPointExtension>
        </extensions>
      </trkpt>
      <trkpt lat="36.8563820980489253997802734375" lon="-118.41887882910668849945068359375">
        <ele>2849.800048828125</ele>
        <time>2021-06-27T23:05:59.000Z</time>
        <extensions>
          <ns3:TrackPointExtension>
            <ns3:atemp>30.0</ns3:atemp>
            <ns3:hr>97</ns3:hr>
          </ns3:TrackPointExtension>
        </extensions>
      </trkpt>
      <trkpt lat="36.85639777220785617828369140625" lon="-118.4189105965197086334228515625">
        <ele>2849.199951171875</ele>
        <time>2021-06-27T23:06:02.000Z</time>
        <extensions>
          <ns3:TrackPointExtension>
            <ns3:atemp>30.0</ns3:atemp>
            <ns3:hr>99</ns3:hr>
          </ns3:TrackPointExtension>
        </extensions>
      </trkpt>
      <trkpt lat="36.8564511649310588836669921875" lon="-118.418945968151092529296875">
        <ele>2848.800048828125</ele>
        <time>2021-06-27T23:06:07.000Z</time>
        <extensions>
          <ns3:TrackPointExtension>
            <ns3:atemp>30.0</ns3:atemp>
            <ns3:hr>100</ns3:hr>
          </ns3:TrackPointExtension>
        </extensions>
      </trkpt>
      <trkpt lat="36.85649894177913665771484375" lon="-118.41894588433206081390380859375">
        <ele>2848.199951171875</ele>
        <time>2021-06-27T23:06:11.000Z</time>
        <extensions>
          <ns3:TrackPointExtension>
            <ns3:atemp>30.0</ns3:atemp>
            <ns3:hr>98</ns3:hr>
          </ns3:TrackPointExtension>
        </extensions>
      </trkpt>
      <trkpt lat="36.8565155379474163055419921875" lon="-118.4189575351774692535400390625">
        <ele>2848</ele>
        <time>2021-06-27T23:06:13.000Z</time>
        <extensions>
          <ns3:TrackPointExtension>
            <ns3:atemp>30.0</ns3:atemp>
            <ns3:hr>97</ns3:hr>
          </ns3:TrackPointExtension>
        </extensions>
      </trkpt>
      <trkpt lat="36.85654579661786556243896484375" lon="-118.41899584047496318817138671875">
        <ele>2847.60009765625</ele>
        <time>2021-06-27T23:06:17.000Z</time>
        <extensions>
          <ns3:TrackPointExtension>
            <ns3:atemp>30.0</ns3:atemp>
            <ns3:hr>97</ns3:hr>
          </ns3:TrackPointExtension>
        </extensions>
      </trkpt>
      <trkpt lat="36.8565614707767963409423828125" lon="-118.41901495121419429779052734375">
        <ele>2847.60009765625</ele>
        <time>2021-06-27T23:06:19.000Z</time>
        <extensions>
          <ns3:TrackPointExtension>
            <ns3:atemp>30.0</ns3:atemp>
            <ns3:hr>97</ns3:hr>
          </ns3:TrackPointExtension>
        </extensions>
      </trkpt>
      <trkpt lat="36.856629364192485809326171875" lon="-118.4190909750759601593017578125">
        <ele>2846.60009765625</ele>
        <time>2021-06-27T23:06:27.000Z</time>
        <extensions>
          <ns3:TrackPointExtension>
            <ns3:atemp>30.0</ns3:atemp>
            <ns3:hr>96</ns3:hr>
          </ns3:TrackPointExtension>
        </extensions>
      </trkpt>
      <trkpt lat="36.85665107332170009613037109375" lon="-118.41910530813038349151611328125">
        <ele>2846.39990234375</ele>
        <time>2021-06-27T23:06:29.000Z</time>
        <extensions>
          <ns3:TrackPointExtension>
            <ns3:atemp>30.0</ns3:atemp>
            <ns3:hr>94</ns3:hr>
          </ns3:TrackPointExtension>
        </extensions>
      </trkpt>
      <trkpt lat="36.85671226121485233306884765625" lon="-118.4191583655774593353271484375">
        <ele>2845.60009765625</ele>
        <time>2021-06-27T23:06:36.000Z</time>
        <extensions>
          <ns3:TrackPointExtension>
            <ns3:atemp>30.0</ns3:atemp>
            <ns3:hr>96</ns3:hr>
          </ns3:TrackPointExtension>
        </extensions>
      </trkpt>
      <trkpt lat="36.8567368201911449432373046875" lon="-118.4191845171153545379638671875">
        <ele>2845.39990234375</ele>
        <time>2021-06-27T23:06:39.000Z</time>
        <extensions>
          <ns3:TrackPointExtension>
            <ns3:atemp>30.0</ns3:atemp>
            <ns3:hr>96</ns3:hr>
          </ns3:TrackPointExtension>
        </extensions>
      </trkpt>
      <trkpt lat="36.85678325593471527099609375" lon="-118.4192250855267047882080078125">
        <ele>2845.39990234375</ele>
        <time>2021-06-27T23:06:44.000Z</time>
        <extensions>
          <ns3:TrackPointExtension>
            <ns3:atemp>30.0</ns3:atemp>
            <ns3:hr>93</ns3:hr>
          </ns3:TrackPointExtension>
        </extensions>
      </trkpt>
      <trkpt lat="36.8568089045584201812744140625" lon="-118.4192343056201934814453125">
        <ele>2844.39990234375</ele>
        <time>2021-06-27T23:06:47.000Z</time>
        <extensions>
          <ns3:TrackPointExtension>
            <ns3:atemp>30.0</ns3:atemp>
            <ns3:hr>95</ns3:hr>
          </ns3:TrackPointExtension>
        </extensions>
      </trkpt>
      <trkpt lat="36.85685140080749988555908203125" lon="-118.4192515723407268524169921875">
        <ele>2844.39990234375</ele>
        <time>2021-06-27T23:06:51.000Z</time>
        <extensions>
          <ns3:TrackPointExtension>
            <ns3:atemp>30.0</ns3:atemp>
            <ns3:hr>92</ns3:hr>
          </ns3:TrackPointExtension>
        </extensions>
      </trkpt>
      <trkpt lat="36.8568709306418895721435546875" lon="-118.41927043162286281585693359375">
        <ele>2844.199951171875</ele>
        <time>2021-06-27T23:06:54.000Z</time>
        <extensions>
          <ns3:TrackPointExtension>
            <ns3:atemp>30.0</ns3:atemp>
            <ns3:hr>91</ns3:hr>
          </ns3:TrackPointExtension>
        </extensions>
      </trkpt>
      <trkpt lat="36.8568920530378818511962890625" lon="-118.4192825853824615478515625">
        <ele>2843.199951171875</ele>
        <time>2021-06-27T23:06:56.000Z</time>
        <extensions>
          <ns3:TrackPointExtension>
            <ns3:atemp>30.0</ns3:atemp>
            <ns3:hr>89</ns3:hr>
          </ns3:TrackPointExtension>
        </extensions>
      </trkpt>
      <trkpt lat="36.85693991370499134063720703125" lon="-118.41930580325424671173095703125">
        <ele>2842</ele>
        <time>2021-06-27T23:07:00.000Z</time>
        <extensions>
          <ns3:TrackPointExtension>
            <ns3:atemp>30.0</ns3:atemp>
            <ns3:hr>86</ns3:hr>
          </ns3:TrackPointExtension>
        </extensions>
      </trkpt>
      <trkpt lat="36.856951899826526641845703125" lon="-118.4193229861557483673095703125">
        <ele>2841.60009765625</ele>
        <time>2021-06-27T23:07:02.000Z</time>
        <extensions>
          <ns3:TrackPointExtension>
            <ns3:atemp>30.0</ns3:atemp>
            <ns3:hr>83</ns3:hr>
          </ns3:TrackPointExtension>
        </extensions>
      </trkpt>
      <trkpt lat="36.85695617459714412689208984375" lon="-118.4193320386111736297607421875">
        <ele>2841.60009765625</ele>
        <time>2021-06-27T23:07:03.000Z</time>
        <extensions>
          <ns3:TrackPointExtension>
            <ns3:atemp>30.0</ns3:atemp>
            <ns3:hr>82</ns3:hr>
          </ns3:TrackPointExtension>
        </extensions>
      </trkpt>
      <trkpt lat="36.85696723870933055877685546875" lon="-118.41935458593070507049560546875">
        <ele>2841.199951171875</ele>
        <time>2021-06-27T23:07:06.000Z</time>
        <extensions>
          <ns3:TrackPointExtension>
            <ns3:atemp>30.0</ns3:atemp>
            <ns3:hr>80</ns3:hr>
          </ns3:TrackPointExtension>
        </extensions>
      </trkpt>
      <trkpt lat="36.8569762073457241058349609375" lon="-118.4193615429103374481201171875">
        <ele>2840.800048828125</ele>
        <time>2021-06-27T23:07:07.000Z</time>
        <extensions>
          <ns3:TrackPointExtension>
            <ns3:atemp>30.0</ns3:atemp>
            <ns3:hr>80</ns3:hr>
          </ns3:TrackPointExtension>
        </extensions>
      </trkpt>
      <trkpt lat="36.85698978602886199951171875" lon="-118.419368751347064971923828125">
        <ele>2840.60009765625</ele>
        <time>2021-06-27T23:07:08.000Z</time>
        <extensions>
          <ns3:TrackPointExtension>
            <ns3:atemp>30.0</ns3:atemp>
            <ns3:hr>80</ns3:hr>
          </ns3:TrackPointExtension>
        </extensions>
      </trkpt>
      <trkpt lat="36.857031695544719696044921875" lon="-118.41938652098178863525390625">
        <ele>2839.800048828125</ele>
        <time>2021-06-27T23:07:11.000Z</time>
        <extensions>
          <ns3:TrackPointExtension>
            <ns3:atemp>30.0</ns3:atemp>
            <ns3:hr>83</ns3:hr>
          </ns3:TrackPointExtension>
        </extensions>
      </trkpt>
      <trkpt lat="36.857043094933032989501953125" lon="-118.419394232332706451416015625">
        <ele>2839.800048828125</ele>
        <time>2021-06-27T23:07:12.000Z</time>
        <extensions>
          <ns3:TrackPointExtension>
            <ns3:atemp>30.0</ns3:atemp>
            <ns3:hr>80</ns3:hr>
          </ns3:TrackPointExtension>
        </extensions>
      </trkpt>
      <trkpt lat="36.85709305107593536376953125" lon="-118.4194376505911350250244140625">
        <ele>2839.60009765625</ele>
        <time>2021-06-27T23:07:17.000Z</time>
        <extensions>
          <ns3:TrackPointExtension>
            <ns3:atemp>30.0</ns3:atemp>
            <ns3:hr>79</ns3:hr>
          </ns3:TrackPointExtension>
        </extensions>
      </trkpt>
      <trkpt lat="36.8571929633617401123046875" lon="-118.4195174463093280792236328125">
        <ele>2839</ele>
        <time>2021-06-27T23:07:27.000Z</time>
        <extensions>
          <ns3:TrackPointExtension>
            <ns3:atemp>30.0</ns3:atemp>
            <ns3:hr>79</ns3:hr>
          </ns3:TrackPointExtension>
        </extensions>
      </trkpt>
      <trkpt lat="36.8572021834552288055419921875" lon="-118.41952272690832614898681640625">
        <ele>2839</ele>
        <time>2021-06-27T23:07:28.000Z</time>
        <extensions>
          <ns3:TrackPointExtension>
            <ns3:atemp>31.0</ns3:atemp>
            <ns3:hr>82</ns3:hr>
          </ns3:TrackPointExtension>
        </extensions>
      </trkpt>
      <trkpt lat="36.857211403548717498779296875" lon="-118.41952708549797534942626953125">
        <ele>2839</ele>
        <time>2021-06-27T23:07:29.000Z</time>
        <extensions>
          <ns3:TrackPointExtension>
            <ns3:atemp>30.0</ns3:atemp>
            <ns3:hr>79</ns3:hr>
          </ns3:TrackPointExtension>
        </extensions>
      </trkpt>
      <trkpt lat="36.8572487868368625640869140625" lon="-118.4195459447801113128662109375">
        <ele>2838.800048828125</ele>
        <time>2021-06-27T23:07:33.000Z</time>
        <extensions>
          <ns3:TrackPointExtension>
            <ns3:atemp>31.0</ns3:atemp>
            <ns3:hr>80</ns3:hr>
          </ns3:TrackPointExtension>
        </extensions>
      </trkpt>
      <trkpt lat="36.8572680652141571044921875" lon="-118.4195508062839508056640625">
        <ele>2838.800048828125</ele>
        <time>2021-06-27T23:07:35.000Z</time>
        <extensions>
          <ns3:TrackPointExtension>
            <ns3:atemp>31.0</ns3:atemp>
            <ns3:hr>80</ns3:hr>
          </ns3:TrackPointExtension>
        </extensions>
      </trkpt>
      <trkpt lat="36.85728751122951507568359375" lon="-118.41955843381583690643310546875">
        <ele>2838.39990234375</ele>
        <time>2021-06-27T23:07:37.000Z</time>
        <extensions>
          <ns3:TrackPointExtension>
            <ns3:atemp>31.0</ns3:atemp>
            <ns3:hr>80</ns3:hr>
          </ns3:TrackPointExtension>
        </extensions>
      </trkpt>
      <trkpt lat="36.85730620287358760833740234375" lon="-118.4195776283740997314453125">
        <ele>2837.800048828125</ele>
        <time>2021-06-27T23:07:39.000Z</time>
        <extensions>
          <ns3:TrackPointExtension>
            <ns3:atemp>31.0</ns3:atemp>
            <ns3:hr>78</ns3:hr>
          </ns3:TrackPointExtension>
        </extensions>
      </trkpt>
      <trkpt lat="36.8573372997343540191650390625" lon="-118.41962347738444805145263671875">
        <ele>2837</ele>
        <time>2021-06-27T23:07:43.000Z</time>
        <extensions>
          <ns3:TrackPointExtension>
            <ns3:atemp>31.0</ns3:atemp>
            <ns3:hr>77</ns3:hr>
          </ns3:TrackPointExtension>
        </extensions>
      </trkpt>
      <trkpt lat="36.85740041546523571014404296875" lon="-118.41968617402017116546630859375">
        <ele>2836.60009765625</ele>
        <time>2021-06-27T23:07:50.000Z</time>
        <extensions>
          <ns3:TrackPointExtension>
            <ns3:atemp>31.0</ns3:atemp>
            <ns3:hr>78</ns3:hr>
          </ns3:TrackPointExtension>
        </extensions>
      </trkpt>
      <trkpt lat="36.85740661807358264923095703125" lon="-118.4196948073804378509521484375">
        <ele>2836.800048828125</ele>
        <time>2021-06-27T23:07:51.000Z</time>
        <extensions>
          <ns3:TrackPointExtension>
            <ns3:atemp>31.0</ns3:atemp>
            <ns3:hr>75</ns3:hr>
          </ns3:TrackPointExtension>
        </extensions>
      </trkpt>
      <trkpt lat="36.8574134074151515960693359375" lon="-118.41970595531165599822998046875">
        <ele>2836.60009765625</ele>
        <time>2021-06-27T23:07:52.000Z</time>
        <extensions>
          <ns3:TrackPointExtension>
            <ns3:atemp>31.0</ns3:atemp>
            <ns3:hr>74</ns3:hr>
          </ns3:TrackPointExtension>
        </extensions>
      </trkpt>
      <trkpt lat="36.85742807574570178985595703125" lon="-118.41974769718945026397705078125">
        <ele>2835.39990234375</ele>
        <time>2021-06-27T23:07:56.000Z</time>
        <extensions>
          <ns3:TrackPointExtension>
            <ns3:atemp>31.0</ns3:atemp>
            <ns3:hr>74</ns3:hr>
          </ns3:TrackPointExtension>
        </extensions>
      </trkpt>
      <trkpt lat="36.85743779875338077545166015625" lon="-118.4197568334639072418212890625">
        <ele>2835</ele>
        <time>2021-06-27T23:07:57.000Z</time>
        <extensions>
          <ns3:TrackPointExtension>
            <ns3:atemp>31.0</ns3:atemp>
            <ns3:hr>70</ns3:hr>
          </ns3:TrackPointExtension>
        </extensions>
      </trkpt>
      <trkpt lat="36.8574469350278377532958984375" lon="-118.419766388833522796630859375">
        <ele>2835</ele>
        <time>2021-06-27T23:07:58.000Z</time>
        <extensions>
          <ns3:TrackPointExtension>
            <ns3:atemp>31.0</ns3:atemp>
            <ns3:hr>73</ns3:hr>
          </ns3:TrackPointExtension>
        </extensions>
      </trkpt>
      <trkpt lat="36.85747920535504817962646484375" lon="-118.4198034368455410003662109375">
        <ele>2835</ele>
        <time>2021-06-27T23:08:02.000Z</time>
        <extensions>
          <ns3:TrackPointExtension>
            <ns3:atemp>31.0</ns3:atemp>
            <ns3:hr>74</ns3:hr>
          </ns3:TrackPointExtension>
        </extensions>
      </trkpt>
      <trkpt lat="36.8574982322752475738525390625" lon="-118.41982330195605754852294921875">
        <ele>2835</ele>
        <time>2021-06-27T23:08:04.000Z</time>
        <extensions>
          <ns3:TrackPointExtension>
            <ns3:atemp>31.0</ns3:atemp>
            <ns3:hr>74</ns3:hr>
          </ns3:TrackPointExtension>
        </extensions>
      </trkpt>
      <trkpt lat="36.857536621391773223876953125" lon="-118.41983470134437084197998046875">
        <ele>2835</ele>
        <time>2021-06-27T23:08:07.000Z</time>
        <extensions>
          <ns3:TrackPointExtension>
            <ns3:atemp>31.0</ns3:atemp>
            <ns3:hr>74</ns3:hr>
          </ns3:TrackPointExtension>
        </extensions>
      </trkpt>
      <trkpt lat="36.8575719930231571197509765625" lon="-118.41985129751265048980712890625">
        <ele>2835</ele>
        <time>2021-06-27T23:08:10.000Z</time>
        <extensions>
          <ns3:TrackPointExtension>
            <ns3:atemp>31.0</ns3:atemp>
            <ns3:hr>74</ns3:hr>
          </ns3:TrackPointExtension>
        </extensions>
      </trkpt>
      <trkpt lat="36.85763862915337085723876953125" lon="-118.41991617344319820404052734375">
        <ele>2834.60009765625</ele>
        <time>2021-06-27T23:08:18.000Z</time>
        <extensions>
          <ns3:TrackPointExtension>
            <ns3:atemp>31.0</ns3:atemp>
            <ns3:hr>76</ns3:hr>
          </ns3:TrackPointExtension>
        </extensions>
      </trkpt>
      <trkpt lat="36.85765572823584079742431640625" lon="-118.41993595473468303680419921875">
        <ele>2834.39990234375</ele>
        <time>2021-06-27T23:08:20.000Z</time>
        <extensions>
          <ns3:TrackPointExtension>
            <ns3:atemp>31.0</ns3:atemp>
            <ns3:hr>75</ns3:hr>
          </ns3:TrackPointExtension>
        </extensions>
      </trkpt>
      <trkpt lat="36.85770937241613864898681640625" lon="-118.41999429278075695037841796875">
        <ele>2833.800048828125</ele>
        <time>2021-06-27T23:08:26.000Z</time>
        <extensions>
          <ns3:TrackPointExtension>
            <ns3:atemp>32.0</ns3:atemp>
            <ns3:hr>78</ns3:hr>
          </ns3:TrackPointExtension>
        </extensions>
      </trkpt>
      <trkpt lat="36.857733763754367828369140625" lon="-118.4200201928615570068359375">
        <ele>2833.199951171875</ele>
        <time>2021-06-27T23:08:29.000Z</time>
        <extensions>
          <ns3:TrackPointExtension>
            <ns3:atemp>32.0</ns3:atemp>
            <ns3:hr>82</ns3:hr>
          </ns3:TrackPointExtension>
        </extensions>
      </trkpt>
      <trkpt lat="36.85774222947657108306884765625" lon="-118.4200309216976165771484375">
        <ele>2833.199951171875</ele>
        <time>2021-06-27T23:08:30.000Z</time>
        <extensions>
          <ns3:TrackPointExtension>
            <ns3:atemp>32.0</ns3:atemp>
            <ns3:hr>78</ns3:hr>
          </ns3:TrackPointExtension>
        </extensions>
      </trkpt>
      <trkpt lat="36.85777709819376468658447265625" lon="-118.42006101273000240325927734375">
        <ele>2833</ele>
        <time>2021-06-27T23:08:34.000Z</time>
        <extensions>
          <ns3:TrackPointExtension>
            <ns3:atemp>32.0</ns3:atemp>
            <ns3:hr>81</ns3:hr>
          </ns3:TrackPointExtension>
        </extensions>
      </trkpt>
      <trkpt lat="36.85780291445553302764892578125" lon="-118.42007358558475971221923828125">
        <ele>2832.800048828125</ele>
        <time>2021-06-27T23:08:36.000Z</time>
        <extensions>
          <ns3:TrackPointExtension>
            <ns3:atemp>32.0</ns3:atemp>
            <ns3:hr>80</ns3:hr>
          </ns3:TrackPointExtension>
        </extensions>
      </trkpt>
      <trkpt lat="36.85783174820244312286376953125" lon="-118.42010241933166980743408203125">
        <ele>2832.39990234375</ele>
        <time>2021-06-27T23:08:39.000Z</time>
        <extensions>
          <ns3:TrackPointExtension>
            <ns3:atemp>32.0</ns3:atemp>
            <ns3:hr>81</ns3:hr>
          </ns3:TrackPointExtension>
        </extensions>
      </trkpt>
      <trkpt lat="36.85787131078541278839111328125" lon="-118.42014868743717670440673828125">
        <ele>2831.800048828125</ele>
        <time>2021-06-27T23:08:44.000Z</time>
        <extensions>
          <ns3:TrackPointExtension>
            <ns3:atemp>32.0</ns3:atemp>
            <ns3:hr>84</ns3:hr>
          </ns3:TrackPointExtension>
        </extensions>
      </trkpt>
      <trkpt lat="36.85790441930294036865234375" lon="-118.42018104158341884613037109375">
        <ele>2831.39990234375</ele>
        <time>2021-06-27T23:08:48.000Z</time>
        <extensions>
          <ns3:TrackPointExtension>
            <ns3:atemp>32.0</ns3:atemp>
            <ns3:hr>86</ns3:hr>
          </ns3:TrackPointExtension>
        </extensions>
      </trkpt>
      <trkpt lat="36.85793618671596050262451171875" lon="-118.42020057141780853271484375">
        <ele>2830.60009765625</ele>
        <time>2021-06-27T23:08:52.000Z</time>
        <extensions>
          <ns3:TrackPointExtension>
            <ns3:atemp>32.0</ns3:atemp>
            <ns3:hr>85</ns3:hr>
          </ns3:TrackPointExtension>
        </extensions>
      </trkpt>
      <trkpt lat="36.85794532299041748046875" lon="-118.42019998468458652496337890625">
        <ele>2830</ele>
        <time>2021-06-27T23:08:54.000Z</time>
        <extensions>
          <ns3:TrackPointExtension>
            <ns3:atemp>32.0</ns3:atemp>
            <ns3:hr>85</ns3:hr>
          </ns3:TrackPointExtension>
        </extensions>
      </trkpt>
      <trkpt lat="36.857955716550350189208984375" lon="-118.42020132578909397125244140625">
        <ele>2829.800048828125</ele>
        <time>2021-06-27T23:08:56.000Z</time>
        <extensions>
          <ns3:TrackPointExtension>
            <ns3:atemp>32.0</ns3:atemp>
            <ns3:hr>84</ns3:hr>
          </ns3:TrackPointExtension>
        </extensions>
      </trkpt>
      <trkpt lat="36.8579466640949249267578125" lon="-118.42019596137106418609619140625">
        <ele>2829.39990234375</ele>
        <time>2021-06-27T23:08:58.000Z</time>
        <extensions>
          <ns3:TrackPointExtension>
            <ns3:atemp>32.0</ns3:atemp>
            <ns3:hr>85</ns3:hr>
          </ns3:TrackPointExtension>
        </extensions>
      </trkpt>
      <trkpt lat="36.85793794691562652587890625" lon="-118.42020836658775806427001953125">
        <ele>2829.39990234375</ele>
        <time>2021-06-27T23:09:03.000Z</time>
        <extensions>
          <ns3:TrackPointExtension>
            <ns3:atemp>32.0</ns3:atemp>
            <ns3:hr>85</ns3:hr>
          </ns3:TrackPointExtension>
        </extensions>
      </trkpt>
      <trkpt lat="36.85799754224717617034912109375" lon="-118.42026603408157825469970703125">
        <ele>2829.199951171875</ele>
        <time>2021-06-27T23:09:10.000Z</time>
        <extensions>
          <ns3:TrackPointExtension>
            <ns3:atemp>32.0</ns3:atemp>
            <ns3:hr>85</ns3:hr>
          </ns3:TrackPointExtension>
        </extensions>
      </trkpt>
      <trkpt lat="36.85802553780376911163330078125" lon="-118.4203018248081207275390625">
        <ele>2828.800048828125</ele>
        <time>2021-06-27T23:09:14.000Z</time>
        <extensions>
          <ns3:TrackPointExtension>
            <ns3:atemp>32.0</ns3:atemp>
            <ns3:hr>85</ns3:hr>
          </ns3:TrackPointExtension>
        </extensions>
      </trkpt>
      <trkpt lat="36.85804699547588825225830078125" lon="-118.42032252810895442962646484375">
        <ele>2828.39990234375</ele>
        <time>2021-06-27T23:09:16.000Z</time>
        <extensions>
          <ns3:TrackPointExtension>
            <ns3:atemp>32.0</ns3:atemp>
            <ns3:hr>85</ns3:hr>
          </ns3:TrackPointExtension>
        </extensions>
      </trkpt>
      <trkpt lat="36.85806375928223133087158203125" lon="-118.4203415550291538238525390625">
        <ele>2828.199951171875</ele>
        <time>2021-06-27T23:09:18.000Z</time>
        <extensions>
          <ns3:TrackPointExtension>
            <ns3:atemp>32.0</ns3:atemp>
            <ns3:hr>84</ns3:hr>
          </ns3:TrackPointExtension>
        </extensions>
      </trkpt>
      <trkpt lat="36.85816048644483089447021484375" lon="-118.42040299437940120697021484375">
        <ele>2827.800048828125</ele>
        <time>2021-06-27T23:09:27.000Z</time>
        <extensions>
          <ns3:TrackPointExtension>
            <ns3:atemp>32.0</ns3:atemp>
            <ns3:hr>83</ns3:hr>
          </ns3:TrackPointExtension>
        </extensions>
      </trkpt>
      <trkpt lat="36.85821354389190673828125" lon="-118.420453369617462158203125">
        <ele>2827.199951171875</ele>
        <time>2021-06-27T23:09:33.000Z</time>
        <extensions>
          <ns3:TrackPointExtension>
            <ns3:atemp>32.0</ns3:atemp>
            <ns3:hr>84</ns3:hr>
          </ns3:TrackPointExtension>
        </extensions>
      </trkpt>
      <trkpt lat="36.858228631317615509033203125" lon="-118.4204716421663761138916015625">
        <ele>2826.60009765625</ele>
        <time>2021-06-27T23:09:35.000Z</time>
        <extensions>
          <ns3:TrackPointExtension>
            <ns3:atemp>32.0</ns3:atemp>
            <ns3:hr>86</ns3:hr>
          </ns3:TrackPointExtension>
        </extensions>
      </trkpt>
      <trkpt lat="36.8582586385309696197509765625" lon="-118.420494608581066131591796875">
        <ele>2826</ele>
        <time>2021-06-27T23:09:39.000Z</time>
        <extensions>
          <ns3:TrackPointExtension>
            <ns3:atemp>32.0</ns3:atemp>
            <ns3:hr>85</ns3:hr>
          </ns3:TrackPointExtension>
        </extensions>
      </trkpt>
      <trkpt lat="36.8582926690578460693359375" lon="-118.42051531188189983367919921875">
        <ele>2826.199951171875</ele>
        <time>2021-06-27T23:09:42.000Z</time>
        <extensions>
          <ns3:TrackPointExtension>
            <ns3:atemp>32.0</ns3:atemp>
            <ns3:hr>85</ns3:hr>
          </ns3:TrackPointExtension>
        </extensions>
      </trkpt>
      <trkpt lat="36.85830230824649333953857421875" lon="-118.420531488955020904541015625">
        <ele>2826.39990234375</ele>
        <time>2021-06-27T23:09:44.000Z</time>
        <extensions>
          <ns3:TrackPointExtension>
            <ns3:atemp>32.0</ns3:atemp>
            <ns3:hr>84</ns3:hr>
          </ns3:TrackPointExtension>
        </extensions>
      </trkpt>
      <trkpt lat="36.8583639152348041534423828125" lon="-118.42055554501712322235107421875">
        <ele>2825.60009765625</ele>
        <time>2021-06-27T23:09:49.000Z</time>
        <extensions>
          <ns3:TrackPointExtension>
            <ns3:atemp>32.0</ns3:atemp>
            <ns3:hr>84</ns3:hr>
          </ns3:TrackPointExtension>
        </extensions>
      </trkpt>
      <trkpt lat="36.85843675397336483001708984375" lon="-118.42057616449892520904541015625">
        <ele>2826.199951171875</ele>
        <time>2021-06-27T23:09:57.000Z</time>
        <extensions>
          <ns3:TrackPointExtension>
            <ns3:atemp>32.0</ns3:atemp>
            <ns3:hr>84</ns3:hr>
          </ns3:TrackPointExtension>
        </extensions>
      </trkpt>
      <trkpt lat="36.85849224217236042022705078125" lon="-118.4205967001616954803466796875">
        <ele>2826.199951171875</ele>
        <time>2021-06-27T23:10:05.000Z</time>
        <extensions>
          <ns3:TrackPointExtension>
            <ns3:atemp>33.0</ns3:atemp>
            <ns3:hr>83</ns3:hr>
          </ns3:TrackPointExtension>
        </extensions>
      </trkpt>
      <trkpt lat="36.85853742063045501708984375" lon="-118.42062578536570072174072265625">
        <ele>2825</ele>
        <time>2021-06-27T23:10:10.000Z</time>
        <extensions>
          <ns3:TrackPointExtension>
            <ns3:atemp>33.0</ns3:atemp>
            <ns3:hr>82</ns3:hr>
          </ns3:TrackPointExtension>
        </extensions>
      </trkpt>
      <trkpt lat="36.85857069678604602813720703125" lon="-118.42064238153398036956787109375">
        <ele>2824.60009765625</ele>
        <time>2021-06-27T23:10:13.000Z</time>
        <extensions>
          <ns3:TrackPointExtension>
            <ns3:atemp>33.0</ns3:atemp>
            <ns3:hr>81</ns3:hr>
          </ns3:TrackPointExtension>
        </extensions>
      </trkpt>
      <trkpt lat="36.8586076609790325164794921875" lon="-118.42068336904048919677734375">
        <ele>2823.800048828125</ele>
        <time>2021-06-27T23:10:18.000Z</time>
        <extensions>
          <ns3:TrackPointExtension>
            <ns3:atemp>33.0</ns3:atemp>
            <ns3:hr>80</ns3:hr>
          </ns3:TrackPointExtension>
        </extensions>
      </trkpt>
      <trkpt lat="36.8586804158985614776611328125" lon="-118.42075486667454242706298828125">
        <ele>2822.800048828125</ele>
        <time>2021-06-27T23:10:27.000Z</time>
        <extensions>
          <ns3:TrackPointExtension>
            <ns3:atemp>33.0</ns3:atemp>
            <ns3:hr>79</ns3:hr>
          </ns3:TrackPointExtension>
        </extensions>
      </trkpt>
      <trkpt lat="36.8587139435112476348876953125" lon="-118.42080683447420597076416015625">
        <ele>2822</ele>
        <time>2021-06-27T23:10:32.000Z</time>
        <extensions>
          <ns3:TrackPointExtension>
            <ns3:atemp>33.0</ns3:atemp>
            <ns3:hr>82</ns3:hr>
          </ns3:TrackPointExtension>
        </extensions>
      </trkpt>
      <trkpt lat="36.85873967595398426055908203125" lon="-118.4208380989730358123779296875">
        <ele>2821.800048828125</ele>
        <time>2021-06-27T23:10:36.000Z</time>
        <extensions>
          <ns3:TrackPointExtension>
            <ns3:atemp>33.0</ns3:atemp>
            <ns3:hr>82</ns3:hr>
          </ns3:TrackPointExtension>
        </extensions>
      </trkpt>
      <trkpt lat="36.858748309314250946044921875" lon="-118.42084539122879505157470703125">
        <ele>2821.60009765625</ele>
        <time>2021-06-27T23:10:37.000Z</time>
        <extensions>
          <ns3:TrackPointExtension>
            <ns3:atemp>33.0</ns3:atemp>
            <ns3:hr>83</ns3:hr>
          </ns3:TrackPointExtension>
        </extensions>
      </trkpt>
      <trkpt lat="36.85875308699905872344970703125" lon="-118.42085243202745914459228515625">
        <ele>2821.60009765625</ele>
        <time>2021-06-27T23:10:38.000Z</time>
        <extensions>
          <ns3:TrackPointExtension>
            <ns3:atemp>33.0</ns3:atemp>
            <ns3:hr>83</ns3:hr>
          </ns3:TrackPointExtension>
        </extensions>
      </trkpt>
      <trkpt lat="36.8587823398411273956298828125" lon="-118.42089819721877574920654296875">
        <ele>2820.60009765625</ele>
        <time>2021-06-27T23:10:43.000Z</time>
        <extensions>
          <ns3:TrackPointExtension>
            <ns3:atemp>33.0</ns3:atemp>
            <ns3:hr>82</ns3:hr>
          </ns3:TrackPointExtension>
        </extensions>
      </trkpt>
      <trkpt lat="36.85879013501107692718505859375" lon="-118.42090439982712268829345703125">
        <ele>2820.199951171875</ele>
        <time>2021-06-27T23:10:44.000Z</time>
        <extensions>
          <ns3:TrackPointExtension>
            <ns3:atemp>33.0</ns3:atemp>
            <ns3:hr>83</ns3:hr>
          </ns3:TrackPointExtension>
        </extensions>
      </trkpt>
      <trkpt lat="36.85880136676132678985595703125" lon="-118.4209125302731990814208984375">
        <ele>2820</ele>
        <time>2021-06-27T23:10:45.000Z</time>
        <extensions>
          <ns3:TrackPointExtension>
            <ns3:atemp>33.0</ns3:atemp>
            <ns3:hr>82</ns3:hr>
          </ns3:TrackPointExtension>
        </extensions>
      </trkpt>
      <trkpt lat="36.85881427489221096038818359375" lon="-118.420920073986053466796875">
        <ele>2819.39990234375</ele>
        <time>2021-06-27T23:10:46.000Z</time>
        <extensions>
          <ns3:TrackPointExtension>
            <ns3:atemp>33.0</ns3:atemp>
            <ns3:hr>82</ns3:hr>
          </ns3:TrackPointExtension>
        </extensions>
      </trkpt>
      <trkpt lat="36.85888149775564670562744140625" lon="-118.42096491716802120208740234375">
        <ele>2819.39990234375</ele>
        <time>2021-06-27T23:10:53.000Z</time>
        <extensions>
          <ns3:TrackPointExtension>
            <ns3:atemp>33.0</ns3:atemp>
            <ns3:hr>86</ns3:hr>
          </ns3:TrackPointExtension>
        </extensions>
      </trkpt>
      <trkpt lat="36.8588923104107379913330078125" lon="-118.42097095213830471038818359375">
        <ele>2819</ele>
        <time>2021-06-27T23:10:54.000Z</time>
        <extensions>
          <ns3:TrackPointExtension>
            <ns3:atemp>33.0</ns3:atemp>
            <ns3:hr>83</ns3:hr>
          </ns3:TrackPointExtension>
        </extensions>
      </trkpt>
      <trkpt lat="36.85890496708452701568603515625" lon="-118.42097170650959014892578125">
        <ele>2818.800048828125</ele>
        <time>2021-06-27T23:10:55.000Z</time>
        <extensions>
          <ns3:TrackPointExtension>
            <ns3:atemp>33.0</ns3:atemp>
            <ns3:hr>85</ns3:hr>
          </ns3:TrackPointExtension>
        </extensions>
      </trkpt>
      <trkpt lat="36.8589154444634914398193359375" lon="-118.42097514308989048004150390625">
        <ele>2818.800048828125</ele>
        <time>2021-06-27T23:10:56.000Z</time>
        <extensions>
          <ns3:TrackPointExtension>
            <ns3:atemp>33.0</ns3:atemp>
            <ns3:hr>82</ns3:hr>
          </ns3:TrackPointExtension>
        </extensions>
      </trkpt>
      <trkpt lat="36.8589590303599834442138671875" lon="-118.4209909848868846893310546875">
        <ele>2818.199951171875</ele>
        <time>2021-06-27T23:11:00.000Z</time>
        <extensions>
          <ns3:TrackPointExtension>
            <ns3:atemp>33.0</ns3:atemp>
            <ns3:hr>82</ns3:hr>
          </ns3:TrackPointExtension>
        </extensions>
      </trkpt>
      <trkpt lat="36.85898895375430583953857421875" lon="-118.42099995352327823638916015625">
        <ele>2817.60009765625</ele>
        <time>2021-06-27T23:11:02.000Z</time>
        <extensions>
          <ns3:TrackPointExtension>
            <ns3:atemp>33.0</ns3:atemp>
            <ns3:hr>85</ns3:hr>
          </ns3:TrackPointExtension>
        </extensions>
      </trkpt>
      <trkpt lat="36.859011836349964141845703125" lon="-118.4210003726184368133544921875">
        <ele>2817.60009765625</ele>
        <time>2021-06-27T23:11:04.000Z</time>
        <extensions>
          <ns3:TrackPointExtension>
            <ns3:atemp>33.0</ns3:atemp>
            <ns3:hr>87</ns3:hr>
          </ns3:TrackPointExtension>
        </extensions>
      </trkpt>
      <trkpt lat="36.8590361438691616058349609375" lon="-118.4210111014544963836669921875">
        <ele>2818.800048828125</ele>
        <time>2021-06-27T23:11:07.000Z</time>
        <extensions>
          <ns3:TrackPointExtension>
            <ns3:atemp>33.0</ns3:atemp>
            <ns3:hr>84</ns3:hr>
          </ns3:TrackPointExtension>
        </extensions>
      </trkpt>
      <trkpt lat="36.8590570986270904541015625" lon="-118.42104806564748287200927734375">
        <ele>2818.800048828125</ele>
        <time>2021-06-27T23:11:11.000Z</time>
        <extensions>
          <ns3:TrackPointExtension>
            <ns3:atemp>33.0</ns3:atemp>
            <ns3:hr>83</ns3:hr>
          </ns3:TrackPointExtension>
        </extensions>
      </trkpt>
      <trkpt lat="36.859124489128589630126953125" lon="-118.42112735845148563385009765625">
        <ele>2818.60009765625</ele>
        <time>2021-06-27T23:11:20.000Z</time>
        <extensions>
          <ns3:TrackPointExtension>
            <ns3:atemp>33.0</ns3:atemp>
            <ns3:hr>83</ns3:hr>
          </ns3:TrackPointExtension>
        </extensions>
      </trkpt>
      <trkpt lat="36.85915566980838775634765625" lon="-118.42114848084747791290283203125">
        <ele>2818.199951171875</ele>
        <time>2021-06-27T23:11:23.000Z</time>
        <extensions>
          <ns3:TrackPointExtension>
            <ns3:atemp>33.0</ns3:atemp>
            <ns3:hr>80</ns3:hr>
          </ns3:TrackPointExtension>
        </extensions>
      </trkpt>
      <trkpt lat="36.8591974116861820220947265625" lon="-118.42117287218570709228515625">
        <ele>2818</ele>
        <time>2021-06-27T23:11:27.000Z</time>
        <extensions>
          <ns3:TrackPointExtension>
            <ns3:atemp>33.0</ns3:atemp>
            <ns3:hr>77</ns3:hr>
          </ns3:TrackPointExtension>
        </extensions>
      </trkpt>
      <trkpt lat="36.85921593569219112396240234375" lon="-118.42117899097502231597900390625">
        <ele>2818</ele>
        <time>2021-06-27T23:11:29.000Z</time>
        <extensions>
          <ns3:TrackPointExtension>
            <ns3:atemp>33.0</ns3:atemp>
            <ns3:hr>73</ns3:hr>
          </ns3:TrackPointExtension>
        </extensions>
      </trkpt>
      <trkpt lat="36.859227754175662994384765625" lon="-118.42117094434797763824462890625">
        <ele>2817.60009765625</ele>
        <time>2021-06-27T23:11:30.000Z</time>
        <extensions>
          <ns3:TrackPointExtension>
            <ns3:atemp>33.0</ns3:atemp>
            <ns3:hr>77</ns3:hr>
          </ns3:TrackPointExtension>
        </extensions>
      </trkpt>
      <trkpt lat="36.85924007557332515716552734375" lon="-118.4211790747940540313720703125">
        <ele>2817.60009765625</ele>
        <time>2021-06-27T23:11:32.000Z</time>
        <extensions>
          <ns3:TrackPointExtension>
            <ns3:atemp>33.0</ns3:atemp>
            <ns3:hr>77</ns3:hr>
          </ns3:TrackPointExtension>
        </extensions>
      </trkpt>
      <trkpt lat="36.85926941223442554473876953125" lon="-118.42119634151458740234375">
        <ele>2817.199951171875</ele>
        <time>2021-06-27T23:11:35.000Z</time>
        <extensions>
          <ns3:TrackPointExtension>
            <ns3:atemp>33.0</ns3:atemp>
            <ns3:hr>77</ns3:hr>
          </ns3:TrackPointExtension>
        </extensions>
      </trkpt>
      <trkpt lat="36.8592966534197330474853515625" lon="-118.42121369205415248870849609375">
        <ele>2816.39990234375</ele>
        <time>2021-06-27T23:11:38.000Z</time>
        <extensions>
          <ns3:TrackPointExtension>
            <ns3:atemp>33.0</ns3:atemp>
            <ns3:hr>75</ns3:hr>
          </ns3:TrackPointExtension>
        </extensions>
      </trkpt>
      <trkpt lat="36.859337389469146728515625" lon="-118.42123867012560367584228515625">
        <ele>2816</ele>
        <time>2021-06-27T23:11:42.000Z</time>
        <extensions>
          <ns3:TrackPointExtension>
            <ns3:atemp>33.0</ns3:atemp>
            <ns3:hr>74</ns3:hr>
          </ns3:TrackPointExtension>
        </extensions>
      </trkpt>
      <trkpt lat="36.85936848632991313934326171875" lon="-118.42125526629388332366943359375">
        <ele>2815</ele>
        <time>2021-06-27T23:11:46.000Z</time>
        <extensions>
          <ns3:TrackPointExtension>
            <ns3:atemp>33.0</ns3:atemp>
            <ns3:hr>75</ns3:hr>
          </ns3:TrackPointExtension>
        </extensions>
      </trkpt>
      <trkpt lat="36.85937116853892803192138671875" lon="-118.4212585352361202239990234375">
        <ele>2815</ele>
        <time>2021-06-27T23:11:47.000Z</time>
        <extensions>
          <ns3:TrackPointExtension>
            <ns3:atemp>33.0</ns3:atemp>
            <ns3:hr>75</ns3:hr>
          </ns3:TrackPointExtension>
        </extensions>
      </trkpt>
      <trkpt lat="36.859377957880496978759765625" lon="-118.4212754666805267333984375">
        <ele>2814.800048828125</ele>
        <time>2021-06-27T23:11:49.000Z</time>
        <extensions>
          <ns3:TrackPointExtension>
            <ns3:atemp>33.0</ns3:atemp>
            <ns3:hr>75</ns3:hr>
          </ns3:TrackPointExtension>
        </extensions>
      </trkpt>
      <trkpt lat="36.8594029359519481658935546875" lon="-118.421285189688205718994140625">
        <ele>2814</ele>
        <time>2021-06-27T23:11:54.000Z</time>
        <extensions>
          <ns3:TrackPointExtension>
            <ns3:atemp>33.0</ns3:atemp>
            <ns3:hr>76</ns3:hr>
          </ns3:TrackPointExtension>
        </extensions>
      </trkpt>
      <trkpt lat="36.8594019301235675811767578125" lon="-118.4212820045650005340576171875">
        <ele>2814</ele>
        <time>2021-06-27T23:11:55.000Z</time>
        <extensions>
          <ns3:TrackPointExtension>
            <ns3:atemp>33.0</ns3:atemp>
            <ns3:hr>76</ns3:hr>
          </ns3:TrackPointExtension>
        </extensions>
      </trkpt>
      <trkpt lat="36.8594247289001941680908203125" lon="-118.421274125576019287109375">
        <ele>2813.199951171875</ele>
        <time>2021-06-27T23:12:02.000Z</time>
        <extensions>
          <ns3:TrackPointExtension>
            <ns3:atemp>33.0</ns3:atemp>
            <ns3:hr>76</ns3:hr>
          </ns3:TrackPointExtension>
        </extensions>
      </trkpt>
      <trkpt lat="36.85944207943975925445556640625" lon="-118.42126951552927494049072265625">
        <ele>2812.800048828125</ele>
        <time>2021-06-27T23:12:05.000Z</time>
        <extensions>
          <ns3:TrackPointExtension>
            <ns3:atemp>33.0</ns3:atemp>
            <ns3:hr>77</ns3:hr>
          </ns3:TrackPointExtension>
        </extensions>
      </trkpt>
      <trkpt lat="36.85946538113057613372802734375" lon="-118.42126968316733837127685546875">
        <ele>2812.60009765625</ele>
        <time>2021-06-27T23:12:09.000Z</time>
        <extensions>
          <ns3:TrackPointExtension>
            <ns3:atemp>33.0</ns3:atemp>
            <ns3:hr>76</ns3:hr>
          </ns3:TrackPointExtension>
        </extensions>
      </trkpt>
      <trkpt lat="36.85945607721805572509765625" lon="-118.42126951552927494049072265625">
        <ele>2812.60009765625</ele>
        <time>2021-06-27T23:12:12.000Z</time>
        <extensions>
          <ns3:TrackPointExtension>
            <ns3:atemp>33.0</ns3:atemp>
            <ns3:hr>73</ns3:hr>
          </ns3:TrackPointExtension>
        </extensions>
      </trkpt>
      <trkpt lat="36.85945901088416576385498046875" lon="-118.421267755329608917236328125">
        <ele>2812.60009765625</ele>
        <time>2021-06-27T23:12:26.000Z</time>
        <extensions>
          <ns3:TrackPointExtension>
            <ns3:atemp>33.0</ns3:atemp>
            <ns3:hr>76</ns3:hr>
          </ns3:TrackPointExtension>
        </extensions>
      </trkpt>
      <trkpt lat="36.859458424150943756103515625" lon="-118.42126415111124515533447265625">
        <ele>2812.39990234375</ele>
        <time>2021-06-27T23:12:30.000Z</time>
        <extensions>
          <ns3:TrackPointExtension>
            <ns3:atemp>33.0</ns3:atemp>
            <ns3:hr>79</ns3:hr>
          </ns3:TrackPointExtension>
        </extensions>
      </trkpt>
      <trkpt lat="36.85945901088416576385498046875" lon="-118.4212578646838665008544921875">
        <ele>2812.39990234375</ele>
        <time>2021-06-27T23:12:37.000Z</time>
        <extensions>
          <ns3:TrackPointExtension>
            <ns3:atemp>33.0</ns3:atemp>
            <ns3:hr>82</ns3:hr>
          </ns3:TrackPointExtension>
        </extensions>
      </trkpt>
      <trkpt lat="36.8594508804380893707275390625" lon="-118.4212525002658367156982421875">
        <ele>2811.800048828125</ele>
        <time>2021-06-27T23:12:50.000Z</time>
        <extensions>
          <ns3:TrackPointExtension>
            <ns3:atemp>33.0</ns3:atemp>
            <ns3:hr>84</ns3:hr>
          </ns3:TrackPointExtension>
        </extensions>
      </trkpt>
      <trkpt lat="36.85948650352656841278076171875" lon="-118.4212605468928813934326171875">
        <ele>2811.60009765625</ele>
        <time>2021-06-27T23:12:55.000Z</time>
        <extensions>
          <ns3:TrackPointExtension>
            <ns3:atemp>33.0</ns3:atemp>
            <ns3:hr>84</ns3:hr>
          </ns3:TrackPointExtension>
        </extensions>
      </trkpt>
      <trkpt lat="36.8595581687986850738525390625" lon="-118.4212702699005603790283203125">
        <ele>2810.39990234375</ele>
        <time>2021-06-27T23:13:00.000Z</time>
        <extensions>
          <ns3:TrackPointExtension>
            <ns3:atemp>33.0</ns3:atemp>
            <ns3:hr>85</ns3:hr>
          </ns3:TrackPointExtension>
        </extensions>
      </trkpt>
      <trkpt lat="36.85956981964409351348876953125" lon="-118.42126918025314807891845703125">
        <ele>2810.39990234375</ele>
        <time>2021-06-27T23:13:01.000Z</time>
        <extensions>
          <ns3:TrackPointExtension>
            <ns3:atemp>33.0</ns3:atemp>
            <ns3:hr>80</ns3:hr>
          </ns3:TrackPointExtension>
        </extensions>
      </trkpt>
      <trkpt lat="36.85959597118198871612548828125" lon="-118.42128041200339794158935546875">
        <ele>2809.800048828125</ele>
        <time>2021-06-27T23:13:04.000Z</time>
        <extensions>
          <ns3:TrackPointExtension>
            <ns3:atemp>33.0</ns3:atemp>
            <ns3:hr>83</ns3:hr>
          </ns3:TrackPointExtension>
        </extensions>
      </trkpt>
      <trkpt lat="36.8596364557743072509765625" lon="-118.42130371369421482086181640625">
        <ele>2809.199951171875</ele>
        <time>2021-06-27T23:13:08.000Z</time>
        <extensions>
          <ns3:TrackPointExtension>
            <ns3:atemp>33.0</ns3:atemp>
            <ns3:hr>85</ns3:hr>
          </ns3:TrackPointExtension>
        </extensions>
      </trkpt>
      <trkpt lat="36.85966000892221927642822265625" lon="-118.4213076531887054443359375">
        <ele>2808.800048828125</ele>
        <time>2021-06-27T23:13:10.000Z</time>
        <extensions>
          <ns3:TrackPointExtension>
            <ns3:atemp>33.0</ns3:atemp>
            <ns3:hr>84</ns3:hr>
          </ns3:TrackPointExtension>
        </extensions>
      </trkpt>
      <trkpt lat="36.859689094126224517822265625" lon="-118.42131234705448150634765625">
        <ele>2808.60009765625</ele>
        <time>2021-06-27T23:13:13.000Z</time>
        <extensions>
          <ns3:TrackPointExtension>
            <ns3:atemp>33.0</ns3:atemp>
            <ns3:hr>84</ns3:hr>
          </ns3:TrackPointExtension>
        </extensions>
      </trkpt>
      <trkpt lat="36.8596954643726348876953125" lon="-118.4213175438344478607177734375">
        <ele>2808.199951171875</ele>
        <time>2021-06-27T23:13:14.000Z</time>
        <extensions>
          <ns3:TrackPointExtension>
            <ns3:atemp>33.0</ns3:atemp>
            <ns3:hr>85</ns3:hr>
          </ns3:TrackPointExtension>
        </extensions>
      </trkpt>
      <trkpt lat="36.85971968807280063629150390625" lon="-118.42133757658302783966064453125">
        <ele>2808.800048828125</ele>
        <time>2021-06-27T23:13:17.000Z</time>
        <extensions>
          <ns3:TrackPointExtension>
            <ns3:atemp>33.0</ns3:atemp>
            <ns3:hr>84</ns3:hr>
          </ns3:TrackPointExtension>
        </extensions>
      </trkpt>
      <trkpt lat="36.8597814626991748809814453125" lon="-118.42138099484145641326904296875">
        <ele>2808</ele>
        <time>2021-06-27T23:13:24.000Z</time>
        <extensions>
          <ns3:TrackPointExtension>
            <ns3:atemp>34.0</ns3:atemp>
            <ns3:hr>87</ns3:hr>
          </ns3:TrackPointExtension>
        </extensions>
      </trkpt>
      <trkpt lat="36.85979814268648624420166015625" lon="-118.42138719744980335235595703125">
        <ele>2807.60009765625</ele>
        <time>2021-06-27T23:13:26.000Z</time>
        <extensions>
          <ns3:TrackPointExtension>
            <ns3:atemp>34.0</ns3:atemp>
            <ns3:hr>86</ns3:hr>
          </ns3:TrackPointExtension>
        </extensions>
      </trkpt>
      <trkpt lat="36.85982353985309600830078125" lon="-118.42139415442943572998046875">
        <ele>2807</ele>
        <time>2021-06-27T23:13:28.000Z</time>
        <extensions>
          <ns3:TrackPointExtension>
            <ns3:atemp>34.0</ns3:atemp>
            <ns3:hr>85</ns3:hr>
          </ns3:TrackPointExtension>
        </extensions>
      </trkpt>
      <trkpt lat="36.85989369638264179229736328125" lon="-118.4214055538177490234375">
        <ele>2807</ele>
        <time>2021-06-27T23:13:35.000Z</time>
        <extensions>
          <ns3:TrackPointExtension>
            <ns3:atemp>34.0</ns3:atemp>
            <ns3:hr>84</ns3:hr>
          </ns3:TrackPointExtension>
        </extensions>
      </trkpt>
      <trkpt lat="36.85990191064774990081787109375" lon="-118.4214047156274318695068359375">
        <ele>2807.199951171875</ele>
        <time>2021-06-27T23:13:36.000Z</time>
        <extensions>
          <ns3:TrackPointExtension>
            <ns3:atemp>34.0</ns3:atemp>
            <ns3:hr>84</ns3:hr>
          </ns3:TrackPointExtension>
        </extensions>
      </trkpt>
      <trkpt lat="36.86001456342637538909912109375" lon="-118.4213983453810214996337890625">
        <ele>2806.60009765625</ele>
        <time>2021-06-27T23:13:46.000Z</time>
        <extensions>
          <ns3:TrackPointExtension>
            <ns3:atemp>34.0</ns3:atemp>
            <ns3:hr>82</ns3:hr>
          </ns3:TrackPointExtension>
        </extensions>
      </trkpt>
      <trkpt lat="36.8600195087492465972900390625" lon="-118.42139524407684803009033203125">
        <ele>2806.199951171875</ele>
        <time>2021-06-27T23:13:47.000Z</time>
        <extensions>
          <ns3:TrackPointExtension>
            <ns3:atemp>34.0</ns3:atemp>
            <ns3:hr>81</ns3:hr>
          </ns3:TrackPointExtension>
        </extensions>
      </trkpt>
      <trkpt lat="36.86004884541034698486328125" lon="-118.42140815220773220062255859375">
        <ele>2805.39990234375</ele>
        <time>2021-06-27T23:13:51.000Z</time>
        <extensions>
          <ns3:TrackPointExtension>
            <ns3:atemp>34.0</ns3:atemp>
            <ns3:hr>80</ns3:hr>
          </ns3:TrackPointExtension>
        </extensions>
      </trkpt>
      <trkpt lat="36.8600594066083431243896484375" lon="-118.42139943502843379974365234375">
        <ele>2805</ele>
        <time>2021-06-27T23:13:52.000Z</time>
        <extensions>
          <ns3:TrackPointExtension>
            <ns3:atemp>34.0</ns3:atemp>
            <ns3:hr>80</ns3:hr>
          </ns3:TrackPointExtension>
        </extensions>
      </trkpt>
      <trkpt lat="36.86008396558463573455810546875" lon="-118.42136825434863567352294921875">
        <ele>2804.39990234375</ele>
        <time>2021-06-27T23:13:55.000Z</time>
        <extensions>
          <ns3:TrackPointExtension>
            <ns3:atemp>34.0</ns3:atemp>
            <ns3:hr>78</ns3:hr>
          </ns3:TrackPointExtension>
        </extensions>
      </trkpt>
      <trkpt lat="36.8601224385201930999755859375" lon="-118.421354256570339202880859375">
        <ele>2804</ele>
        <time>2021-06-27T23:14:00.000Z</time>
        <extensions>
          <ns3:TrackPointExtension>
            <ns3:atemp>34.0</ns3:atemp>
            <ns3:hr>80</ns3:hr>
          </ns3:TrackPointExtension>
        </extensions>
      </trkpt>
      <trkpt lat="36.860148422420024871826171875" lon="-118.42137948609888553619384765625">
        <ele>2804</ele>
        <time>2021-06-27T23:14:03.000Z</time>
        <extensions>
          <ns3:TrackPointExtension>
            <ns3:atemp>34.0</ns3:atemp>
            <ns3:hr>84</ns3:hr>
          </ns3:TrackPointExtension>
        </extensions>
      </trkpt>
      <trkpt lat="36.86017801053822040557861328125" lon="-118.42138920910656452178955078125">
        <ele>2803.199951171875</ele>
        <time>2021-06-27T23:14:05.000Z</time>
        <extensions>
          <ns3:TrackPointExtension>
            <ns3:atemp>34.0</ns3:atemp>
            <ns3:hr>86</ns3:hr>
          </ns3:TrackPointExtension>
        </extensions>
      </trkpt>
      <trkpt lat="36.8602270446717739105224609375" lon="-118.4214067272841930389404296875">
        <ele>2802.39990234375</ele>
        <time>2021-06-27T23:14:09.000Z</time>
        <extensions>
          <ns3:TrackPointExtension>
            <ns3:atemp>34.0</ns3:atemp>
            <ns3:hr>84</ns3:hr>
          </ns3:TrackPointExtension>
        </extensions>
      </trkpt>
      <trkpt lat="36.8602749891579151153564453125" lon="-118.42143933288753032684326171875">
        <ele>2801.60009765625</ele>
        <time>2021-06-27T23:14:14.000Z</time>
        <extensions>
          <ns3:TrackPointExtension>
            <ns3:atemp>34.0</ns3:atemp>
            <ns3:hr>83</ns3:hr>
          </ns3:TrackPointExtension>
        </extensions>
      </trkpt>
      <trkpt lat="36.86028446070849895477294921875" lon="-118.42144645750522613525390625">
        <ele>2801.60009765625</ele>
        <time>2021-06-27T23:14:15.000Z</time>
        <extensions>
          <ns3:TrackPointExtension>
            <ns3:atemp>34.0</ns3:atemp>
            <ns3:hr>79</ns3:hr>
          </ns3:TrackPointExtension>
        </extensions>
      </trkpt>
      <trkpt lat="36.8602900765836238861083984375" lon="-118.42145182192325592041015625">
        <ele>2802.39990234375</ele>
        <time>2021-06-27T23:14:16.000Z</time>
        <extensions>
          <ns3:TrackPointExtension>
            <ns3:atemp>34.0</ns3:atemp>
            <ns3:hr>83</ns3:hr>
          </ns3:TrackPointExtension>
        </extensions>
      </trkpt>
      <trkpt lat="36.86036802828311920166015625" lon="-118.42152365483343601226806640625">
        <ele>2802.39990234375</ele>
        <time>2021-06-27T23:14:25.000Z</time>
        <extensions>
          <ns3:TrackPointExtension>
            <ns3:atemp>34.0</ns3:atemp>
            <ns3:hr>80</ns3:hr>
          </ns3:TrackPointExtension>
        </extensions>
      </trkpt>
      <trkpt lat="36.86043374240398406982421875" lon="-118.4216008521616458892822265625">
        <ele>2802.199951171875</ele>
        <time>2021-06-27T23:14:34.000Z</time>
        <extensions>
          <ns3:TrackPointExtension>
            <ns3:atemp>34.0</ns3:atemp>
            <ns3:hr>80</ns3:hr>
          </ns3:TrackPointExtension>
        </extensions>
      </trkpt>
      <trkpt lat="36.86045913957059383392333984375" lon="-118.42161065898835659027099609375">
        <ele>2803</ele>
        <time>2021-06-27T23:14:37.000Z</time>
        <extensions>
          <ns3:TrackPointExtension>
            <ns3:atemp>34.0</ns3:atemp>
            <ns3:hr>79</ns3:hr>
          </ns3:TrackPointExtension>
        </extensions>
      </trkpt>
      <trkpt lat="36.86052150093019008636474609375" lon="-118.42165675945580005645751953125">
        <ele>2802.199951171875</ele>
        <time>2021-06-27T23:14:43.000Z</time>
        <extensions>
          <ns3:TrackPointExtension>
            <ns3:atemp>34.0</ns3:atemp>
            <ns3:hr>78</ns3:hr>
          </ns3:TrackPointExtension>
        </extensions>
      </trkpt>
      <trkpt lat="36.86053206212818622589111328125" lon="-118.4216655604541301727294921875">
        <ele>2800</ele>
        <time>2021-06-27T23:14:44.000Z</time>
        <extensions>
          <ns3:TrackPointExtension>
            <ns3:atemp>34.0</ns3:atemp>
            <ns3:hr>77</ns3:hr>
          </ns3:TrackPointExtension>
        </extensions>
      </trkpt>
      <trkpt lat="36.860544718801975250244140625" lon="-118.421669416129589080810546875">
        <ele>2800</ele>
        <time>2021-06-27T23:14:45.000Z</time>
        <extensions>
          <ns3:TrackPointExtension>
            <ns3:atemp>34.0</ns3:atemp>
            <ns3:hr>77</ns3:hr>
          </ns3:TrackPointExtension>
        </extensions>
      </trkpt>
      <trkpt lat="36.8606008775532245635986328125" lon="-118.42169648967683315277099609375">
        <ele>2799.60009765625</ele>
        <time>2021-06-27T23:14:50.000Z</time>
        <extensions>
          <ns3:TrackPointExtension>
            <ns3:atemp>34.0</ns3:atemp>
            <ns3:hr>78</ns3:hr>
          </ns3:TrackPointExtension>
        </extensions>
      </trkpt>
      <trkpt lat="36.86064505018293857574462890625" lon="-118.421717025339603424072265625">
        <ele>2799.60009765625</ele>
        <time>2021-06-27T23:14:55.000Z</time>
        <extensions>
          <ns3:TrackPointExtension>
            <ns3:atemp>34.0</ns3:atemp>
            <ns3:hr>83</ns3:hr>
          </ns3:TrackPointExtension>
        </extensions>
      </trkpt>
      <trkpt lat="36.8606585450470447540283203125" lon="-118.42172197066247463226318359375">
        <ele>2799.800048828125</ele>
        <time>2021-06-27T23:14:56.000Z</time>
        <extensions>
          <ns3:TrackPointExtension>
            <ns3:atemp>34.0</ns3:atemp>
            <ns3:hr>79</ns3:hr>
          </ns3:TrackPointExtension>
        </extensions>
      </trkpt>
      <trkpt lat="36.860703639686107635498046875" lon="-118.4217607788741588592529296875">
        <ele>2799.60009765625</ele>
        <time>2021-06-27T23:15:01.000Z</time>
        <extensions>
          <ns3:TrackPointExtension>
            <ns3:atemp>34.0</ns3:atemp>
            <ns3:hr>80</ns3:hr>
          </ns3:TrackPointExtension>
        </extensions>
      </trkpt>
      <trkpt lat="36.86073507182300090789794921875" lon="-118.4217835776507854461669921875">
        <ele>2799.199951171875</ele>
        <time>2021-06-27T23:15:06.000Z</time>
        <extensions>
          <ns3:TrackPointExtension>
            <ns3:atemp>34.0</ns3:atemp>
            <ns3:hr>83</ns3:hr>
          </ns3:TrackPointExtension>
        </extensions>
      </trkpt>
      <trkpt lat="36.860737837851047515869140625" lon="-118.42178248800337314605712890625">
        <ele>2799.199951171875</ele>
        <time>2021-06-27T23:15:07.000Z</time>
        <extensions>
          <ns3:TrackPointExtension>
            <ns3:atemp>34.0</ns3:atemp>
            <ns3:hr>85</ns3:hr>
          </ns3:TrackPointExtension>
        </extensions>
      </trkpt>
      <trkpt lat="36.86073976568877696990966796875" lon="-118.42178131453692913055419921875">
        <ele>2799.199951171875</ele>
        <time>2021-06-27T23:15:08.000Z</time>
        <extensions>
          <ns3:TrackPointExtension>
            <ns3:atemp>34.0</ns3:atemp>
            <ns3:hr>81</ns3:hr>
          </ns3:TrackPointExtension>
        </extensions>
      </trkpt>
      <trkpt lat="36.8607386760413646697998046875" lon="-118.421778716146945953369140625">
        <ele>2799.199951171875</ele>
        <time>2021-06-27T23:15:09.000Z</time>
        <extensions>
          <ns3:TrackPointExtension>
            <ns3:atemp>34.0</ns3:atemp>
            <ns3:hr>82</ns3:hr>
          </ns3:TrackPointExtension>
        </extensions>
      </trkpt>
      <trkpt lat="36.860741190612316131591796875" lon="-118.42177846468985080718994140625">
        <ele>2799</ele>
        <time>2021-06-27T23:15:10.000Z</time>
        <extensions>
          <ns3:TrackPointExtension>
            <ns3:atemp>34.0</ns3:atemp>
            <ns3:hr>81</ns3:hr>
          </ns3:TrackPointExtension>
        </extensions>
      </trkpt>
      <trkpt lat="36.86074487864971160888671875" lon="-118.4217748604714870452880859375">
        <ele>2798.800048828125</ele>
        <time>2021-06-27T23:15:11.000Z</time>
        <extensions>
          <ns3:TrackPointExtension>
            <ns3:atemp>34.0</ns3:atemp>
            <ns3:hr>81</ns3:hr>
          </ns3:TrackPointExtension>
        </extensions>
      </trkpt>
      <trkpt lat="36.86075552366673946380615234375" lon="-118.42176136560738086700439453125">
        <ele>2797.60009765625</ele>
        <time>2021-06-27T23:15:16.000Z</time>
        <extensions>
          <ns3:TrackPointExtension>
            <ns3:atemp>34.0</ns3:atemp>
            <ns3:hr>80</ns3:hr>
          </ns3:TrackPointExtension>
        </extensions>
      </trkpt>
      <trkpt lat="36.86076206155121326446533203125" lon="-118.42175750993192195892333984375">
        <ele>2797.39990234375</ele>
        <time>2021-06-27T23:15:19.000Z</time>
        <extensions>
          <ns3:TrackPointExtension>
            <ns3:atemp>34.0</ns3:atemp>
            <ns3:hr>83</ns3:hr>
          </ns3:TrackPointExtension>
        </extensions>
      </trkpt>
      <trkpt lat="36.86076206155121326446533203125" lon="-118.42175750993192195892333984375">
        <ele>2797</ele>
        <time>2021-06-27T23:15:23.000Z</time>
        <extensions>
          <ns3:TrackPointExtension>
            <ns3:atemp>34.0</ns3:atemp>
            <ns3:hr>86</ns3:hr>
          </ns3:TrackPointExtension>
        </extensions>
      </trkpt>
      <trkpt lat="36.86075736768543720245361328125" lon="-118.42176136560738086700439453125">
        <ele>2797.199951171875</ele>
        <time>2021-06-27T23:15:38.000Z</time>
        <extensions>
          <ns3:TrackPointExtension>
            <ns3:atemp>34.0</ns3:atemp>
            <ns3:hr>89</ns3:hr>
          </ns3:TrackPointExtension>
        </extensions>
      </trkpt>
      <trkpt lat="36.86075828969478607177734375" lon="-118.42175834812223911285400390625">
        <ele>2796.39990234375</ele>
        <time>2021-06-27T23:15:43.000Z</time>
        <extensions>
          <ns3:TrackPointExtension>
            <ns3:atemp>34.0</ns3:atemp>
            <ns3:hr>86</ns3:hr>
          </ns3:TrackPointExtension>
        </extensions>
      </trkpt>
      <trkpt lat="36.86075820587575435638427734375" lon="-118.4217574261128902435302734375">
        <ele>2796.39990234375</ele>
        <time>2021-06-27T23:15:46.000Z</time>
        <extensions>
          <ns3:TrackPointExtension>
            <ns3:atemp>34.0</ns3:atemp>
            <ns3:hr>83</ns3:hr>
          </ns3:TrackPointExtension>
        </extensions>
      </trkpt>
      <trkpt lat="36.86075770296156406402587890625" lon="-118.42175222933292388916015625">
        <ele>2797.39990234375</ele>
        <time>2021-06-27T23:15:50.000Z</time>
        <extensions>
          <ns3:TrackPointExtension>
            <ns3:atemp>34.0</ns3:atemp>
            <ns3:hr>83</ns3:hr>
          </ns3:TrackPointExtension>
        </extensions>
      </trkpt>
      <trkpt lat="36.8607576191425323486328125" lon="-118.42173856683075428009033203125">
        <ele>2798.60009765625</ele>
        <time>2021-06-27T23:15:53.000Z</time>
        <extensions>
          <ns3:TrackPointExtension>
            <ns3:atemp>33.0</ns3:atemp>
            <ns3:hr>83</ns3:hr>
          </ns3:TrackPointExtension>
        </extensions>
      </trkpt>
      <trkpt lat="36.86078569851815700531005859375" lon="-118.42178500257432460784912109375">
        <ele>2797.60009765625</ele>
        <time>2021-06-27T23:16:00.000Z</time>
        <extensions>
          <ns3:TrackPointExtension>
            <ns3:atemp>33.0</ns3:atemp>
            <ns3:hr>85</ns3:hr>
          </ns3:TrackPointExtension>
        </extensions>
      </trkpt>
      <trkpt lat="36.8608139455318450927734375" lon="-118.4218804724514484405517578125">
        <ele>2796.60009765625</ele>
        <time>2021-06-27T23:16:06.000Z</time>
        <extensions>
          <ns3:TrackPointExtension>
            <ns3:atemp>33.0</ns3:atemp>
            <ns3:hr>88</ns3:hr>
          </ns3:TrackPointExtension>
        </extensions>
      </trkpt>
      <trkpt lat="36.86082291416823863983154296875" lon="-118.42191810719668865203857421875">
        <ele>2796.39990234375</ele>
        <time>2021-06-27T23:16:09.000Z</time>
        <extensions>
          <ns3:TrackPointExtension>
            <ns3:atemp>33.0</ns3:atemp>
            <ns3:hr>91</ns3:hr>
          </ns3:TrackPointExtension>
        </extensions>
      </trkpt>
      <trkpt lat="36.86083062551915645599365234375" lon="-118.42193051241338253021240234375">
        <ele>2796</ele>
        <time>2021-06-27T23:16:10.000Z</time>
        <extensions>
          <ns3:TrackPointExtension>
            <ns3:atemp>33.0</ns3:atemp>
            <ns3:hr>92</ns3:hr>
          </ns3:TrackPointExtension>
        </extensions>
      </trkpt>
      <trkpt lat="36.8608476407825946807861328125" lon="-118.42196554876863956451416015625">
        <ele>2795.199951171875</ele>
        <time>2021-06-27T23:16:13.000Z</time>
        <extensions>
          <ns3:TrackPointExtension>
            <ns3:atemp>33.0</ns3:atemp>
            <ns3:hr>92</ns3:hr>
          </ns3:TrackPointExtension>
        </extensions>
      </trkpt>
      <trkpt lat="36.8608506582677364349365234375" lon="-118.42198692262172698974609375">
        <ele>2795</ele>
        <time>2021-06-27T23:16:15.000Z</time>
        <extensions>
          <ns3:TrackPointExtension>
            <ns3:atemp>33.0</ns3:atemp>
            <ns3:hr>91</ns3:hr>
          </ns3:TrackPointExtension>
        </extensions>
      </trkpt>
      <trkpt lat="36.8608617223799228668212890625" lon="-118.4220350347459316253662109375">
        <ele>2795.199951171875</ele>
        <time>2021-06-27T23:16:18.000Z</time>
        <extensions>
          <ns3:TrackPointExtension>
            <ns3:atemp>33.0</ns3:atemp>
            <ns3:hr>93</ns3:hr>
          </ns3:TrackPointExtension>
        </extensions>
      </trkpt>
      <trkpt lat="36.86090287752449512481689453125" lon="-118.42214005999267101287841796875">
        <ele>2794</ele>
        <time>2021-06-27T23:16:26.000Z</time>
        <extensions>
          <ns3:TrackPointExtension>
            <ns3:atemp>34.0</ns3:atemp>
            <ns3:hr>91</ns3:hr>
          </ns3:TrackPointExtension>
        </extensions>
      </trkpt>
      <trkpt lat="36.860914193093776702880859375" lon="-118.42216151766479015350341796875">
        <ele>2794</ele>
        <time>2021-06-27T23:16:28.000Z</time>
        <extensions>
          <ns3:TrackPointExtension>
            <ns3:atemp>34.0</ns3:atemp>
            <ns3:hr>91</ns3:hr>
          </ns3:TrackPointExtension>
        </extensions>
      </trkpt>
      <trkpt lat="36.860941685736179351806640625" lon="-118.42221080325543880462646484375">
        <ele>2793.199951171875</ele>
        <time>2021-06-27T23:16:33.000Z</time>
        <extensions>
          <ns3:TrackPointExtension>
            <ns3:atemp>34.0</ns3:atemp>
            <ns3:hr>89</ns3:hr>
          </ns3:TrackPointExtension>
        </extensions>
      </trkpt>
      <trkpt lat="36.8609428592026233673095703125" lon="-118.42224416323006153106689453125">
        <ele>2793</ele>
        <time>2021-06-27T23:16:35.000Z</time>
        <extensions>
          <ns3:TrackPointExtension>
            <ns3:atemp>34.0</ns3:atemp>
            <ns3:hr>90</ns3:hr>
          </ns3:TrackPointExtension>
        </extensions>
      </trkpt>
      <trkpt lat="36.86094948090612888336181640625" lon="-118.42228154651820659637451171875">
        <ele>2792.39990234375</ele>
        <time>2021-06-27T23:16:38.000Z</time>
        <extensions>
          <ns3:TrackPointExtension>
            <ns3:atemp>34.0</ns3:atemp>
            <ns3:hr>87</ns3:hr>
          </ns3:TrackPointExtension>
        </extensions>
      </trkpt>
      <trkpt lat="36.86097680591046810150146484375" lon="-118.42234491370618343353271484375">
        <ele>2792</ele>
        <time>2021-06-27T23:16:43.000Z</time>
        <extensions>
          <ns3:TrackPointExtension>
            <ns3:atemp>34.0</ns3:atemp>
            <ns3:hr>84</ns3:hr>
          </ns3:TrackPointExtension>
        </extensions>
      </trkpt>
      <trkpt lat="36.86098988167941570281982421875" lon="-118.42236788012087345123291015625">
        <ele>2792.199951171875</ele>
        <time>2021-06-27T23:16:45.000Z</time>
        <extensions>
          <ns3:TrackPointExtension>
            <ns3:atemp>34.0</ns3:atemp>
            <ns3:hr>81</ns3:hr>
          </ns3:TrackPointExtension>
        </extensions>
      </trkpt>
      <trkpt lat="36.86101586557924747467041015625" lon="-118.42240392230451107025146484375">
        <ele>2791.800048828125</ele>
        <time>2021-06-27T23:16:49.000Z</time>
        <extensions>
          <ns3:TrackPointExtension>
            <ns3:atemp>34.0</ns3:atemp>
            <ns3:hr>83</ns3:hr>
          </ns3:TrackPointExtension>
        </extensions>
      </trkpt>
      <trkpt lat="36.86102894134819507598876953125" lon="-118.42241766862571239471435546875">
        <ele>2791.800048828125</ele>
        <time>2021-06-27T23:16:51.000Z</time>
        <extensions>
          <ns3:TrackPointExtension>
            <ns3:atemp>34.0</ns3:atemp>
            <ns3:hr>85</ns3:hr>
          </ns3:TrackPointExtension>
        </extensions>
      </trkpt>
      <trkpt lat="36.86107655055820941925048828125" lon="-118.42250333167612552642822265625">
        <ele>2790.800048828125</ele>
        <time>2021-06-27T23:16:59.000Z</time>
        <extensions>
          <ns3:TrackPointExtension>
            <ns3:atemp>34.0</ns3:atemp>
            <ns3:hr>83</ns3:hr>
          </ns3:TrackPointExtension>
        </extensions>
      </trkpt>
      <trkpt lat="36.8610907159745693206787109375" lon="-118.42252646572887897491455078125">
        <ele>2790.199951171875</ele>
        <time>2021-06-27T23:17:01.000Z</time>
        <extensions>
          <ns3:TrackPointExtension>
            <ns3:atemp>34.0</ns3:atemp>
            <ns3:hr>79</ns3:hr>
          </ns3:TrackPointExtension>
        </extensions>
      </trkpt>
      <trkpt lat="36.86110119335353374481201171875" lon="-118.42253635637462139129638671875">
        <ele>2790</ele>
        <time>2021-06-27T23:17:02.000Z</time>
        <extensions>
          <ns3:TrackPointExtension>
            <ns3:atemp>34.0</ns3:atemp>
            <ns3:hr>83</ns3:hr>
          </ns3:TrackPointExtension>
        </extensions>
      </trkpt>
      <trkpt lat="36.86110773123800754547119140625" lon="-118.42254884541034698486328125">
        <ele>2789.800048828125</ele>
        <time>2021-06-27T23:17:03.000Z</time>
        <extensions>
          <ns3:TrackPointExtension>
            <ns3:atemp>34.0</ns3:atemp>
            <ns3:hr>81</ns3:hr>
          </ns3:TrackPointExtension>
        </extensions>
      </trkpt>
      <trkpt lat="36.86112181283533573150634765625" lon="-118.42258865945041179656982421875">
        <ele>2789</ele>
        <time>2021-06-27T23:17:06.000Z</time>
        <extensions>
          <ns3:TrackPointExtension>
            <ns3:atemp>34.0</ns3:atemp>
            <ns3:hr>84</ns3:hr>
          </ns3:TrackPointExtension>
        </extensions>
      </trkpt>
      <trkpt lat="36.8611316196620464324951171875" lon="-118.42260810546576976776123046875">
        <ele>2788.800048828125</ele>
        <time>2021-06-27T23:17:08.000Z</time>
        <extensions>
          <ns3:TrackPointExtension>
            <ns3:atemp>34.0</ns3:atemp>
            <ns3:hr>82</ns3:hr>
          </ns3:TrackPointExtension>
        </extensions>
      </trkpt>
      <trkpt lat="36.861138157546520233154296875" lon="-118.422616906464099884033203125">
        <ele>2788.800048828125</ele>
        <time>2021-06-27T23:17:09.000Z</time>
        <extensions>
          <ns3:TrackPointExtension>
            <ns3:atemp>34.0</ns3:atemp>
            <ns3:hr>82</ns3:hr>
          </ns3:TrackPointExtension>
        </extensions>
      </trkpt>
      <trkpt lat="36.861177720129489898681640625" lon="-118.42268572188913822174072265625">
        <ele>2787.800048828125</ele>
        <time>2021-06-27T23:17:18.000Z</time>
        <extensions>
          <ns3:TrackPointExtension>
            <ns3:atemp>34.0</ns3:atemp>
            <ns3:hr>81</ns3:hr>
          </ns3:TrackPointExtension>
        </extensions>
      </trkpt>
      <trkpt lat="36.86118601821362972259521484375" lon="-118.4227106161415576934814453125">
        <ele>2787.60009765625</ele>
        <time>2021-06-27T23:17:20.000Z</time>
        <extensions>
          <ns3:TrackPointExtension>
            <ns3:atemp>34.0</ns3:atemp>
            <ns3:hr>79</ns3:hr>
          </ns3:TrackPointExtension>
        </extensions>
      </trkpt>
      <trkpt lat="36.8612030334770679473876953125" lon="-118.42274640686810016632080078125">
        <ele>2786.199951171875</ele>
        <time>2021-06-27T23:17:23.000Z</time>
        <extensions>
          <ns3:TrackPointExtension>
            <ns3:atemp>34.0</ns3:atemp>
            <ns3:hr>78</ns3:hr>
          </ns3:TrackPointExtension>
        </extensions>
      </trkpt>
      <trkpt lat="36.8612080626189708709716796875" lon="-118.422759063541889190673828125">
        <ele>2786</ele>
        <time>2021-06-27T23:17:24.000Z</time>
        <extensions>
          <ns3:TrackPointExtension>
            <ns3:atemp>34.0</ns3:atemp>
            <ns3:hr>79</ns3:hr>
          </ns3:TrackPointExtension>
        </extensions>
      </trkpt>
      <trkpt lat="36.86121501959860324859619140625" lon="-118.42276702634990215301513671875">
        <ele>2786</ele>
        <time>2021-06-27T23:17:25.000Z</time>
        <extensions>
          <ns3:TrackPointExtension>
            <ns3:atemp>34.0</ns3:atemp>
            <ns3:hr>82</ns3:hr>
          </ns3:TrackPointExtension>
        </extensions>
      </trkpt>
      <trkpt lat="36.86122172512114048004150390625" lon="-118.42277591116726398468017578125">
        <ele>2786</ele>
        <time>2021-06-27T23:17:26.000Z</time>
        <extensions>
          <ns3:TrackPointExtension>
            <ns3:atemp>34.0</ns3:atemp>
            <ns3:hr>81</ns3:hr>
          </ns3:TrackPointExtension>
        </extensions>
      </trkpt>
      <trkpt lat="36.86123848892748355865478515625" lon="-118.422840870916843414306640625">
        <ele>2785.199951171875</ele>
        <time>2021-06-27T23:17:32.000Z</time>
        <extensions>
          <ns3:TrackPointExtension>
            <ns3:atemp>34.0</ns3:atemp>
            <ns3:hr>84</ns3:hr>
          </ns3:TrackPointExtension>
        </extensions>
      </trkpt>
      <trkpt lat="36.8612389080226421356201171875" lon="-118.4228722192347049713134765625">
        <ele>2784.39990234375</ele>
        <time>2021-06-27T23:17:35.000Z</time>
        <extensions>
          <ns3:TrackPointExtension>
            <ns3:atemp>34.0</ns3:atemp>
            <ns3:hr>85</ns3:hr>
          </ns3:TrackPointExtension>
        </extensions>
      </trkpt>
      <trkpt lat="36.86124435625970363616943359375" lon="-118.42289485037326812744140625">
        <ele>2783.800048828125</ele>
        <time>2021-06-27T23:17:37.000Z</time>
        <extensions>
          <ns3:TrackPointExtension>
            <ns3:atemp>34.0</ns3:atemp>
            <ns3:hr>87</ns3:hr>
          </ns3:TrackPointExtension>
        </extensions>
      </trkpt>
      <trkpt lat="36.8612493015825748443603515625" lon="-118.42290750704705715179443359375">
        <ele>2783</ele>
        <time>2021-06-27T23:17:39.000Z</time>
        <extensions>
          <ns3:TrackPointExtension>
            <ns3:atemp>34.0</ns3:atemp>
            <ns3:hr>87</ns3:hr>
          </ns3:TrackPointExtension>
        </extensions>
      </trkpt>
      <trkpt lat="36.86123832128942012786865234375" lon="-118.42291974462568759918212890625">
        <ele>2782.800048828125</ele>
        <time>2021-06-27T23:17:41.000Z</time>
        <extensions>
          <ns3:TrackPointExtension>
            <ns3:atemp>34.0</ns3:atemp>
            <ns3:hr>87</ns3:hr>
          </ns3:TrackPointExtension>
        </extensions>
      </trkpt>
      <trkpt lat="36.8612328730523586273193359375" lon="-118.42292779125273227691650390625">
        <ele>2782.39990234375</ele>
        <time>2021-06-27T23:17:42.000Z</time>
        <extensions>
          <ns3:TrackPointExtension>
            <ns3:atemp>34.0</ns3:atemp>
            <ns3:hr>87</ns3:hr>
          </ns3:TrackPointExtension>
        </extensions>
      </trkpt>
      <trkpt lat="36.861228011548519134521484375" lon="-118.422942124307155609130859375">
        <ele>2781.800048828125</ele>
        <time>2021-06-27T23:17:44.000Z</time>
        <extensions>
          <ns3:TrackPointExtension>
            <ns3:atemp>34.0</ns3:atemp>
            <ns3:hr>87</ns3:hr>
          </ns3:TrackPointExtension>
        </extensions>
      </trkpt>
      <trkpt lat="36.86122365295886993408203125" lon="-118.42295092530548572540283203125">
        <ele>2781.800048828125</ele>
        <time>2021-06-27T23:17:45.000Z</time>
        <extensions>
          <ns3:TrackPointExtension>
            <ns3:atemp>34.0</ns3:atemp>
            <ns3:hr>88</ns3:hr>
          </ns3:TrackPointExtension>
        </extensions>
      </trkpt>
      <trkpt lat="36.86122172512114048004150390625" lon="-118.42296852730214595794677734375">
        <ele>2781.39990234375</ele>
        <time>2021-06-27T23:17:47.000Z</time>
        <extensions>
          <ns3:TrackPointExtension>
            <ns3:atemp>34.0</ns3:atemp>
            <ns3:hr>88</ns3:hr>
          </ns3:TrackPointExtension>
        </extensions>
      </trkpt>
      <trkpt lat="36.86121761798858642578125" lon="-118.42298344708979129791259765625">
        <ele>2781</ele>
        <time>2021-06-27T23:17:49.000Z</time>
        <extensions>
          <ns3:TrackPointExtension>
            <ns3:atemp>34.0</ns3:atemp>
            <ns3:hr>88</ns3:hr>
          </ns3:TrackPointExtension>
        </extensions>
      </trkpt>
      <trkpt lat="36.86121652834117412567138671875" lon="-118.4230070002377033233642578125">
        <ele>2780.800048828125</ele>
        <time>2021-06-27T23:17:51.000Z</time>
        <extensions>
          <ns3:TrackPointExtension>
            <ns3:atemp>34.0</ns3:atemp>
            <ns3:hr>87</ns3:hr>
          </ns3:TrackPointExtension>
        </extensions>
      </trkpt>
      <trkpt lat="36.86121384613215923309326171875" lon="-118.4230381809175014495849609375">
        <ele>2780.199951171875</ele>
        <time>2021-06-27T23:17:53.000Z</time>
        <extensions>
          <ns3:TrackPointExtension>
            <ns3:atemp>34.0</ns3:atemp>
            <ns3:hr>85</ns3:hr>
          </ns3:TrackPointExtension>
        </extensions>
      </trkpt>
      <trkpt lat="36.86123077757656574249267578125" lon="-118.42308252118527889251708984375">
        <ele>2780.199951171875</ele>
        <time>2021-06-27T23:17:57.000Z</time>
        <extensions>
          <ns3:TrackPointExtension>
            <ns3:atemp>34.0</ns3:atemp>
            <ns3:hr>87</ns3:hr>
          </ns3:TrackPointExtension>
        </extensions>
      </trkpt>
      <trkpt lat="36.86125776730477809906005859375" lon="-118.4231106005609035491943359375">
        <ele>2780.800048828125</ele>
        <time>2021-06-27T23:18:02.000Z</time>
        <extensions>
          <ns3:TrackPointExtension>
            <ns3:atemp>34.0</ns3:atemp>
            <ns3:hr>85</ns3:hr>
          </ns3:TrackPointExtension>
        </extensions>
      </trkpt>
      <trkpt lat="36.86128727160394191741943359375" lon="-118.42315142042934894561767578125">
        <ele>2780.800048828125</ele>
        <time>2021-06-27T23:18:06.000Z</time>
        <extensions>
          <ns3:TrackPointExtension>
            <ns3:atemp>34.0</ns3:atemp>
            <ns3:hr>82</ns3:hr>
          </ns3:TrackPointExtension>
        </extensions>
      </trkpt>
      <trkpt lat="36.8613074719905853271484375" lon="-118.42318050563335418701171875">
        <ele>2781</ele>
        <time>2021-06-27T23:18:09.000Z</time>
        <extensions>
          <ns3:TrackPointExtension>
            <ns3:atemp>34.0</ns3:atemp>
            <ns3:hr>81</ns3:hr>
          </ns3:TrackPointExtension>
        </extensions>
      </trkpt>
      <trkpt lat="36.861316859722137451171875" lon="-118.4231853671371936798095703125">
        <ele>2781.199951171875</ele>
        <time>2021-06-27T23:18:10.000Z</time>
        <extensions>
          <ns3:TrackPointExtension>
            <ns3:atemp>34.0</ns3:atemp>
            <ns3:hr>81</ns3:hr>
          </ns3:TrackPointExtension>
        </extensions>
      </trkpt>
      <trkpt lat="36.86134125106036663055419921875" lon="-118.4231957606971263885498046875">
        <ele>2781.60009765625</ele>
        <time>2021-06-27T23:18:12.000Z</time>
        <extensions>
          <ns3:TrackPointExtension>
            <ns3:atemp>34.0</ns3:atemp>
            <ns3:hr>82</ns3:hr>
          </ns3:TrackPointExtension>
        </extensions>
      </trkpt>
      <trkpt lat="36.86137679032981395721435546875" lon="-118.42321026138961315155029296875">
        <ele>2781.800048828125</ele>
        <time>2021-06-27T23:18:15.000Z</time>
        <extensions>
          <ns3:TrackPointExtension>
            <ns3:atemp>34.0</ns3:atemp>
            <ns3:hr>85</ns3:hr>
          </ns3:TrackPointExtension>
        </extensions>
      </trkpt>
      <trkpt lat="36.86140562407672405242919921875" lon="-118.423239178955554962158203125">
        <ele>2782.60009765625</ele>
        <time>2021-06-27T23:18:19.000Z</time>
        <extensions>
          <ns3:TrackPointExtension>
            <ns3:atemp>34.0</ns3:atemp>
            <ns3:hr>89</ns3:hr>
          </ns3:TrackPointExtension>
        </extensions>
      </trkpt>
      <trkpt lat="36.8614093959331512451171875" lon="-118.42324647121131420135498046875">
        <ele>2783</ele>
        <time>2021-06-27T23:18:20.000Z</time>
        <extensions>
          <ns3:TrackPointExtension>
            <ns3:atemp>34.0</ns3:atemp>
            <ns3:hr>90</ns3:hr>
          </ns3:TrackPointExtension>
        </extensions>
      </trkpt>
      <trkpt lat="36.861426495015621185302734375" lon="-118.42326323501765727996826171875">
        <ele>2783.199951171875</ele>
        <time>2021-06-27T23:18:22.000Z</time>
        <extensions>
          <ns3:TrackPointExtension>
            <ns3:atemp>34.0</ns3:atemp>
            <ns3:hr>93</ns3:hr>
          </ns3:TrackPointExtension>
        </extensions>
      </trkpt>
      <trkpt lat="36.8614514730870723724365234375" lon="-118.42328201048076152801513671875">
        <ele>2783</ele>
        <time>2021-06-27T23:18:24.000Z</time>
        <extensions>
          <ns3:TrackPointExtension>
            <ns3:atemp>34.0</ns3:atemp>
            <ns3:hr>99</ns3:hr>
          </ns3:TrackPointExtension>
        </extensions>
      </trkpt>
      <trkpt lat="36.861464045941829681396484375" lon="-118.423294164240360260009765625">
        <ele>2782.60009765625</ele>
        <time>2021-06-27T23:18:25.000Z</time>
        <extensions>
          <ns3:TrackPointExtension>
            <ns3:atemp>34.0</ns3:atemp>
            <ns3:hr>98</ns3:hr>
          </ns3:TrackPointExtension>
        </extensions>
      </trkpt>
      <trkpt lat="36.86150972731411457061767578125" lon="-118.42333213426172733306884765625">
        <ele>2782.199951171875</ele>
        <time>2021-06-27T23:18:30.000Z</time>
        <extensions>
          <ns3:TrackPointExtension>
            <ns3:atemp>34.0</ns3:atemp>
            <ns3:hr>101</ns3:hr>
          </ns3:TrackPointExtension>
        </extensions>
      </trkpt>
      <trkpt lat="36.86153856106102466583251953125" lon="-118.423368595540523529052734375">
        <ele>2781.39990234375</ele>
        <time>2021-06-27T23:18:34.000Z</time>
        <extensions>
          <ns3:TrackPointExtension>
            <ns3:atemp>34.0</ns3:atemp>
            <ns3:hr>102</ns3:hr>
          </ns3:TrackPointExtension>
        </extensions>
      </trkpt>
      <trkpt lat="36.86158818192780017852783203125" lon="-118.423427604138851165771484375">
        <ele>2781</ele>
        <time>2021-06-27T23:18:40.000Z</time>
        <extensions>
          <ns3:TrackPointExtension>
            <ns3:atemp>34.0</ns3:atemp>
            <ns3:hr>99</ns3:hr>
          </ns3:TrackPointExtension>
        </extensions>
      </trkpt>
      <trkpt lat="36.86159589327871799468994140625" lon="-118.42343707568943500518798828125">
        <ele>2781.199951171875</ele>
        <time>2021-06-27T23:18:41.000Z</time>
        <extensions>
          <ns3:TrackPointExtension>
            <ns3:atemp>34.0</ns3:atemp>
            <ns3:hr>97</ns3:hr>
          </ns3:TrackPointExtension>
        </extensions>
      </trkpt>
      <trkpt lat="36.861614920198917388916015625" lon="-118.4234535880386829376220703125">
        <ele>2781.199951171875</ele>
        <time>2021-06-27T23:18:43.000Z</time>
        <extensions>
          <ns3:TrackPointExtension>
            <ns3:atemp>34.0</ns3:atemp>
            <ns3:hr>94</ns3:hr>
          </ns3:TrackPointExtension>
        </extensions>
      </trkpt>
      <trkpt lat="36.8616576679050922393798828125" lon="-118.42351083643734455108642578125">
        <ele>2781.199951171875</ele>
        <time>2021-06-27T23:18:49.000Z</time>
        <extensions>
          <ns3:TrackPointExtension>
            <ns3:atemp>34.0</ns3:atemp>
            <ns3:hr>97</ns3:hr>
          </ns3:TrackPointExtension>
        </extensions>
      </trkpt>
      <trkpt lat="36.8616714142262935638427734375" lon="-118.423534221947193145751953125">
        <ele>2780.60009765625</ele>
        <time>2021-06-27T23:18:51.000Z</time>
        <extensions>
          <ns3:TrackPointExtension>
            <ns3:atemp>34.0</ns3:atemp>
            <ns3:hr>97</ns3:hr>
          </ns3:TrackPointExtension>
        </extensions>
      </trkpt>
      <trkpt lat="36.86170645058155059814453125" lon="-118.42356406152248382568359375">
        <ele>2780.39990234375</ele>
        <time>2021-06-27T23:18:55.000Z</time>
        <extensions>
          <ns3:TrackPointExtension>
            <ns3:atemp>34.0</ns3:atemp>
            <ns3:hr>94</ns3:hr>
          </ns3:TrackPointExtension>
        </extensions>
      </trkpt>
      <trkpt lat="36.8617408163845539093017578125" lon="-118.4235779754817485809326171875">
        <ele>2780.39990234375</ele>
        <time>2021-06-27T23:18:58.000Z</time>
        <extensions>
          <ns3:TrackPointExtension>
            <ns3:atemp>34.0</ns3:atemp>
            <ns3:hr>91</ns3:hr>
          </ns3:TrackPointExtension>
        </extensions>
      </trkpt>
      <trkpt lat="36.86176286078989505767822265625" lon="-118.4235875308513641357421875">
        <ele>2780.39990234375</ele>
        <time>2021-06-27T23:19:00.000Z</time>
        <extensions>
          <ns3:TrackPointExtension>
            <ns3:atemp>34.0</ns3:atemp>
            <ns3:hr>89</ns3:hr>
          </ns3:TrackPointExtension>
        </extensions>
      </trkpt>
      <trkpt lat="36.86183921992778778076171875" lon="-118.4236614592373371124267578125">
        <ele>2780.39990234375</ele>
        <time>2021-06-27T23:19:09.000Z</time>
        <extensions>
          <ns3:TrackPointExtension>
            <ns3:atemp>34.0</ns3:atemp>
            <ns3:hr>90</ns3:hr>
          </ns3:TrackPointExtension>
        </extensions>
      </trkpt>
      <trkpt lat="36.861887164413928985595703125" lon="-118.423723317682743072509765625">
        <ele>2779.800048828125</ele>
        <time>2021-06-27T23:19:17.000Z</time>
        <extensions>
          <ns3:TrackPointExtension>
            <ns3:atemp>34.0</ns3:atemp>
            <ns3:hr>90</ns3:hr>
          </ns3:TrackPointExtension>
        </extensions>
      </trkpt>
      <trkpt lat="36.86192572116851806640625" lon="-118.42375047504901885986328125">
        <ele>2778.800048828125</ele>
        <time>2021-06-27T23:19:21.000Z</time>
        <extensions>
          <ns3:TrackPointExtension>
            <ns3:atemp>34.0</ns3:atemp>
            <ns3:hr>90</ns3:hr>
          </ns3:TrackPointExtension>
        </extensions>
      </trkpt>
      <trkpt lat="36.86193787492811679840087890625" lon="-118.4237546660006046295166015625">
        <ele>2778</ele>
        <time>2021-06-27T23:19:22.000Z</time>
        <extensions>
          <ns3:TrackPointExtension>
            <ns3:atemp>34.0</ns3:atemp>
            <ns3:hr>87</ns3:hr>
          </ns3:TrackPointExtension>
        </extensions>
      </trkpt>
      <trkpt lat="36.86194893904030323028564453125" lon="-118.42375592328608036041259765625">
        <ele>2777.800048828125</ele>
        <time>2021-06-27T23:19:23.000Z</time>
        <extensions>
          <ns3:TrackPointExtension>
            <ns3:atemp>34.0</ns3:atemp>
            <ns3:hr>89</ns3:hr>
          </ns3:TrackPointExtension>
        </extensions>
      </trkpt>
      <trkpt lat="36.86197442002594470977783203125" lon="-118.4237640537321567535400390625">
        <ele>2777.60009765625</ele>
        <time>2021-06-27T23:19:26.000Z</time>
        <extensions>
          <ns3:TrackPointExtension>
            <ns3:atemp>34.0</ns3:atemp>
            <ns3:hr>87</ns3:hr>
          </ns3:TrackPointExtension>
        </extensions>
      </trkpt>
      <trkpt lat="36.86198498122394084930419921875" lon="-118.4237657301127910614013671875">
        <ele>2777.60009765625</ele>
        <time>2021-06-27T23:19:27.000Z</time>
        <extensions>
          <ns3:TrackPointExtension>
            <ns3:atemp>34.0</ns3:atemp>
            <ns3:hr>90</ns3:hr>
          </ns3:TrackPointExtension>
        </extensions>
      </trkpt>
      <trkpt lat="36.86199470423161983489990234375" lon="-118.4237672388553619384765625">
        <ele>2777.60009765625</ele>
        <time>2021-06-27T23:19:28.000Z</time>
        <extensions>
          <ns3:TrackPointExtension>
            <ns3:atemp>34.0</ns3:atemp>
            <ns3:hr>87</ns3:hr>
          </ns3:TrackPointExtension>
        </extensions>
      </trkpt>
      <trkpt lat="36.86201700009405612945556640625" lon="-118.423785008490085601806640625">
        <ele>2777.800048828125</ele>
        <time>2021-06-27T23:19:31.000Z</time>
        <extensions>
          <ns3:TrackPointExtension>
            <ns3:atemp>34.0</ns3:atemp>
            <ns3:hr>90</ns3:hr>
          </ns3:TrackPointExtension>
        </extensions>
      </trkpt>
      <trkpt lat="36.86202202923595905303955078125" lon="-118.42379062436521053314208984375">
        <ele>2777.800048828125</ele>
        <time>2021-06-27T23:19:32.000Z</time>
        <extensions>
          <ns3:TrackPointExtension>
            <ns3:atemp>34.0</ns3:atemp>
            <ns3:hr>87</ns3:hr>
          </ns3:TrackPointExtension>
        </extensions>
      </trkpt>
      <trkpt lat="36.86203560791909694671630859375" lon="-118.4238047897815704345703125">
        <ele>2778</ele>
        <time>2021-06-27T23:19:34.000Z</time>
        <extensions>
          <ns3:TrackPointExtension>
            <ns3:atemp>34.0</ns3:atemp>
            <ns3:hr>90</ns3:hr>
          </ns3:TrackPointExtension>
        </extensions>
      </trkpt>
      <trkpt lat="36.8620465882122516632080078125" lon="-118.42382691800594329833984375">
        <ele>2778</ele>
        <time>2021-06-27T23:19:36.000Z</time>
        <extensions>
          <ns3:TrackPointExtension>
            <ns3:atemp>34.0</ns3:atemp>
            <ns3:hr>87</ns3:hr>
          </ns3:TrackPointExtension>
        </extensions>
      </trkpt>
      <trkpt lat="36.86205455102026462554931640625" lon="-118.4238341264426708221435546875">
        <ele>2778</ele>
        <time>2021-06-27T23:19:37.000Z</time>
        <extensions>
          <ns3:TrackPointExtension>
            <ns3:atemp>34.0</ns3:atemp>
            <ns3:hr>87</ns3:hr>
          </ns3:TrackPointExtension>
        </extensions>
      </trkpt>
      <trkpt lat="36.86210249550640583038330078125" lon="-118.42384301126003265380859375">
        <ele>2777.60009765625</ele>
        <time>2021-06-27T23:19:41.000Z</time>
        <extensions>
          <ns3:TrackPointExtension>
            <ns3:atemp>34.0</ns3:atemp>
            <ns3:hr>87</ns3:hr>
          </ns3:TrackPointExtension>
        </extensions>
      </trkpt>
      <trkpt lat="36.86216552741825580596923828125" lon="-118.42380437068641185760498046875">
        <ele>2777</ele>
        <time>2021-06-27T23:19:46.000Z</time>
        <extensions>
          <ns3:TrackPointExtension>
            <ns3:atemp>34.0</ns3:atemp>
            <ns3:hr>89</ns3:hr>
          </ns3:TrackPointExtension>
        </extensions>
      </trkpt>
      <trkpt lat="36.8621904216706752777099609375" lon="-118.4237925522029399871826171875">
        <ele>2776.60009765625</ele>
        <time>2021-06-27T23:19:49.000Z</time>
        <extensions>
          <ns3:TrackPointExtension>
            <ns3:atemp>34.0</ns3:atemp>
            <ns3:hr>89</ns3:hr>
          </ns3:TrackPointExtension>
        </extensions>
      </trkpt>
      <trkpt lat="36.86223710887134075164794921875" lon="-118.4237948991358280181884765625">
        <ele>2776.39990234375</ele>
        <time>2021-06-27T23:19:54.000Z</time>
        <extensions>
          <ns3:TrackPointExtension>
            <ns3:atemp>34.0</ns3:atemp>
            <ns3:hr>89</ns3:hr>
          </ns3:TrackPointExtension>
        </extensions>
      </trkpt>
      <trkpt lat="36.86224599368870258331298828125" lon="-118.4237982518970966339111328125">
        <ele>2776.39990234375</ele>
        <time>2021-06-27T23:19:55.000Z</time>
        <extensions>
          <ns3:TrackPointExtension>
            <ns3:atemp>34.0</ns3:atemp>
            <ns3:hr>89</ns3:hr>
          </ns3:TrackPointExtension>
        </extensions>
      </trkpt>
      <trkpt lat="36.86227650381624698638916015625" lon="-118.42384301126003265380859375">
        <ele>2775.800048828125</ele>
        <time>2021-06-27T23:20:00.000Z</time>
        <extensions>
          <ns3:TrackPointExtension>
            <ns3:atemp>34.0</ns3:atemp>
            <ns3:hr>89</ns3:hr>
          </ns3:TrackPointExtension>
        </extensions>
      </trkpt>
      <trkpt lat="36.86228404752910137176513671875" lon="-118.42386421747505664825439453125">
        <ele>2775.60009765625</ele>
        <time>2021-06-27T23:20:02.000Z</time>
        <extensions>
          <ns3:TrackPointExtension>
            <ns3:atemp>34.0</ns3:atemp>
            <ns3:hr>88</ns3:hr>
          </ns3:TrackPointExtension>
        </extensions>
      </trkpt>
      <trkpt lat="36.862335763871669769287109375" lon="-118.42391719110310077667236328125">
        <ele>2774.800048828125</ele>
        <time>2021-06-27T23:20:09.000Z</time>
        <extensions>
          <ns3:TrackPointExtension>
            <ns3:atemp>34.0</ns3:atemp>
            <ns3:hr>87</ns3:hr>
          </ns3:TrackPointExtension>
        </extensions>
      </trkpt>
      <trkpt lat="36.86235881410539150238037109375" lon="-118.4239112399518489837646484375">
        <ele>2774.39990234375</ele>
        <time>2021-06-27T23:20:11.000Z</time>
        <extensions>
          <ns3:TrackPointExtension>
            <ns3:atemp>34.0</ns3:atemp>
            <ns3:hr>87</ns3:hr>
          </ns3:TrackPointExtension>
        </extensions>
      </trkpt>
      <trkpt lat="36.8623721413314342498779296875" lon="-118.42389455996453762054443359375">
        <ele>2774</ele>
        <time>2021-06-27T23:20:13.000Z</time>
        <extensions>
          <ns3:TrackPointExtension>
            <ns3:atemp>34.0</ns3:atemp>
            <ns3:hr>90</ns3:hr>
          </ns3:TrackPointExtension>
        </extensions>
      </trkpt>
      <trkpt lat="36.86242486350238323211669921875" lon="-118.423878215253353118896484375">
        <ele>2773.800048828125</ele>
        <time>2021-06-27T23:20:17.000Z</time>
        <extensions>
          <ns3:TrackPointExtension>
            <ns3:atemp>34.0</ns3:atemp>
            <ns3:hr>89</ns3:hr>
          </ns3:TrackPointExtension>
        </extensions>
      </trkpt>
      <trkpt lat="36.86245344579219818115234375" lon="-118.42387042008340358734130859375">
        <ele>2773.39990234375</ele>
        <time>2021-06-27T23:20:20.000Z</time>
        <extensions>
          <ns3:TrackPointExtension>
            <ns3:atemp>34.0</ns3:atemp>
            <ns3:hr>91</ns3:hr>
          </ns3:TrackPointExtension>
        </extensions>
      </trkpt>
      <trkpt lat="36.862511448562145233154296875" lon="-118.4238334558904170989990234375">
        <ele>2772.39990234375</ele>
        <time>2021-06-27T23:20:28.000Z</time>
        <extensions>
          <ns3:TrackPointExtension>
            <ns3:atemp>34.0</ns3:atemp>
            <ns3:hr>90</ns3:hr>
          </ns3:TrackPointExtension>
        </extensions>
      </trkpt>
      <trkpt lat="36.86251890845596790313720703125" lon="-118.42382817529141902923583984375">
        <ele>2772</ele>
        <time>2021-06-27T23:20:29.000Z</time>
        <extensions>
          <ns3:TrackPointExtension>
            <ns3:atemp>34.0</ns3:atemp>
            <ns3:hr>91</ns3:hr>
          </ns3:TrackPointExtension>
        </extensions>
      </trkpt>
      <trkpt lat="36.862566769123077392578125" lon="-118.42383689247071743011474609375">
        <ele>2771.39990234375</ele>
        <time>2021-06-27T23:20:34.000Z</time>
        <extensions>
          <ns3:TrackPointExtension>
            <ns3:atemp>33.0</ns3:atemp>
            <ns3:hr>90</ns3:hr>
          </ns3:TrackPointExtension>
        </extensions>
      </trkpt>
      <trkpt lat="36.86263181269168853759765625" lon="-118.4238653071224689483642578125">
        <ele>2771</ele>
        <time>2021-06-27T23:20:40.000Z</time>
        <extensions>
          <ns3:TrackPointExtension>
            <ns3:atemp>33.0</ns3:atemp>
            <ns3:hr>88</ns3:hr>
          </ns3:TrackPointExtension>
        </extensions>
      </trkpt>
      <trkpt lat="36.8626413680613040924072265625" lon="-118.42386824078857898712158203125">
        <ele>2770.800048828125</ele>
        <time>2021-06-27T23:20:41.000Z</time>
        <extensions>
          <ns3:TrackPointExtension>
            <ns3:atemp>33.0</ns3:atemp>
            <ns3:hr>89</ns3:hr>
          </ns3:TrackPointExtension>
        </extensions>
      </trkpt>
      <trkpt lat="36.8626795895397663116455078125" lon="-118.4238733537495136260986328125">
        <ele>2770.800048828125</ele>
        <time>2021-06-27T23:20:45.000Z</time>
        <extensions>
          <ns3:TrackPointExtension>
            <ns3:atemp>33.0</ns3:atemp>
            <ns3:hr>86</ns3:hr>
          </ns3:TrackPointExtension>
        </extensions>
      </trkpt>
      <trkpt lat="36.86272996477782726287841796875" lon="-118.42390193603932857513427734375">
        <ele>2770</ele>
        <time>2021-06-27T23:20:50.000Z</time>
        <extensions>
          <ns3:TrackPointExtension>
            <ns3:atemp>33.0</ns3:atemp>
            <ns3:hr>88</ns3:hr>
          </ns3:TrackPointExtension>
        </extensions>
      </trkpt>
      <trkpt lat="36.862748824059963226318359375" lon="-118.423917107284069061279296875">
        <ele>2769.800048828125</ele>
        <time>2021-06-27T23:20:52.000Z</time>
        <extensions>
          <ns3:TrackPointExtension>
            <ns3:atemp>33.0</ns3:atemp>
            <ns3:hr>90</ns3:hr>
          </ns3:TrackPointExtension>
        </extensions>
      </trkpt>
      <trkpt lat="36.8627687729895114898681640625" lon="-118.4239290095865726470947265625">
        <ele>2769.800048828125</ele>
        <time>2021-06-27T23:20:54.000Z</time>
        <extensions>
          <ns3:TrackPointExtension>
            <ns3:atemp>33.0</ns3:atemp>
            <ns3:hr>92</ns3:hr>
          </ns3:TrackPointExtension>
        </extensions>
      </trkpt>
      <trkpt lat="36.862797103822231292724609375" lon="-118.423958010971546173095703125">
        <ele>2769.60009765625</ele>
        <time>2021-06-27T23:20:58.000Z</time>
        <extensions>
          <ns3:TrackPointExtension>
            <ns3:atemp>33.0</ns3:atemp>
            <ns3:hr>96</ns3:hr>
          </ns3:TrackPointExtension>
        </extensions>
      </trkpt>
      <trkpt lat="36.86283105053007602691650390625" lon="-118.424003608524799346923828125">
        <ele>2769.60009765625</ele>
        <time>2021-06-27T23:21:03.000Z</time>
        <extensions>
          <ns3:TrackPointExtension>
            <ns3:atemp>33.0</ns3:atemp>
            <ns3:hr>97</ns3:hr>
          </ns3:TrackPointExtension>
        </extensions>
      </trkpt>
      <trkpt lat="36.86288720928132534027099609375" lon="-118.424060605466365814208984375">
        <ele>2768.800048828125</ele>
        <time>2021-06-27T23:21:10.000Z</time>
        <extensions>
          <ns3:TrackPointExtension>
            <ns3:atemp>34.0</ns3:atemp>
            <ns3:hr>97</ns3:hr>
          </ns3:TrackPointExtension>
        </extensions>
      </trkpt>
      <trkpt lat="36.8629085831344127655029296875" lon="-118.4241107292473316192626953125">
        <ele>2768.800048828125</ele>
        <time>2021-06-27T23:21:14.000Z</time>
        <extensions>
          <ns3:TrackPointExtension>
            <ns3:atemp>34.0</ns3:atemp>
            <ns3:hr>97</ns3:hr>
          </ns3:TrackPointExtension>
        </extensions>
      </trkpt>
      <trkpt lat="36.86290933750569820404052734375" lon="-118.42413134872913360595703125">
        <ele>2768.800048828125</ele>
        <time>2021-06-27T23:21:16.000Z</time>
        <extensions>
          <ns3:TrackPointExtension>
            <ns3:atemp>34.0</ns3:atemp>
            <ns3:hr>97</ns3:hr>
          </ns3:TrackPointExtension>
        </extensions>
      </trkpt>
      <trkpt lat="36.86290648765861988067626953125" lon="-118.42419848777353763580322265625">
        <ele>2768.800048828125</ele>
        <time>2021-06-27T23:21:23.000Z</time>
        <extensions>
          <ns3:TrackPointExtension>
            <ns3:atemp>34.0</ns3:atemp>
            <ns3:hr>96</ns3:hr>
          </ns3:TrackPointExtension>
        </extensions>
      </trkpt>
      <trkpt lat="36.8629005365073680877685546875" lon="-118.42421256937086582183837890625">
        <ele>2768.800048828125</ele>
        <time>2021-06-27T23:21:24.000Z</time>
        <extensions>
          <ns3:TrackPointExtension>
            <ns3:atemp>34.0</ns3:atemp>
            <ns3:hr>97</ns3:hr>
          </ns3:TrackPointExtension>
        </extensions>
      </trkpt>
      <trkpt lat="36.8629048950970172882080078125" lon="-118.42423117719590663909912109375">
        <ele>2768.60009765625</ele>
        <time>2021-06-27T23:21:27.000Z</time>
        <extensions>
          <ns3:TrackPointExtension>
            <ns3:atemp>34.0</ns3:atemp>
            <ns3:hr>97</ns3:hr>
          </ns3:TrackPointExtension>
        </extensions>
      </trkpt>
      <trkpt lat="36.86291319318115711212158203125" lon="-118.424235284328460693359375">
        <ele>2768.60009765625</ele>
        <time>2021-06-27T23:21:28.000Z</time>
        <extensions>
          <ns3:TrackPointExtension>
            <ns3:atemp>34.0</ns3:atemp>
            <ns3:hr>97</ns3:hr>
          </ns3:TrackPointExtension>
        </extensions>
      </trkpt>
      <trkpt lat="36.862933896481990814208984375" lon="-118.4242384694516658782958984375">
        <ele>2768.60009765625</ele>
        <time>2021-06-27T23:21:32.000Z</time>
        <extensions>
          <ns3:TrackPointExtension>
            <ns3:atemp>34.0</ns3:atemp>
            <ns3:hr>97</ns3:hr>
          </ns3:TrackPointExtension>
        </extensions>
      </trkpt>
      <trkpt lat="36.862942613661289215087890625" lon="-118.42423997819423675537109375">
        <ele>2768.60009765625</ele>
        <time>2021-06-27T23:21:34.000Z</time>
        <extensions>
          <ns3:TrackPointExtension>
            <ns3:atemp>34.0</ns3:atemp>
            <ns3:hr>96</ns3:hr>
          </ns3:TrackPointExtension>
        </extensions>
      </trkpt>
      <trkpt lat="36.86294152401387691497802734375" lon="-118.42424425296485424041748046875">
        <ele>2768.60009765625</ele>
        <time>2021-06-27T23:21:35.000Z</time>
        <extensions>
          <ns3:TrackPointExtension>
            <ns3:atemp>34.0</ns3:atemp>
            <ns3:hr>95</ns3:hr>
          </ns3:TrackPointExtension>
        </extensions>
      </trkpt>
      <trkpt lat="36.86292417347431182861328125" lon="-118.4242508746683597564697265625">
        <ele>2768.800048828125</ele>
        <time>2021-06-27T23:21:38.000Z</time>
        <extensions>
          <ns3:TrackPointExtension>
            <ns3:atemp>34.0</ns3:atemp>
            <ns3:hr>94</ns3:hr>
          </ns3:TrackPointExtension>
        </extensions>
      </trkpt>
      <trkpt lat="36.8629032187163829803466796875" lon="-118.424263112246990203857421875">
        <ele>2768.800048828125</ele>
        <time>2021-06-27T23:21:42.000Z</time>
        <extensions>
          <ns3:TrackPointExtension>
            <ns3:atemp>34.0</ns3:atemp>
            <ns3:hr>94</ns3:hr>
          </ns3:TrackPointExtension>
        </extensions>
      </trkpt>
      <trkpt lat="36.86290313489735126495361328125" lon="-118.42427291907370090484619140625">
        <ele>2768.800048828125</ele>
        <time>2021-06-27T23:21:43.000Z</time>
        <extensions>
          <ns3:TrackPointExtension>
            <ns3:atemp>34.0</ns3:atemp>
            <ns3:hr>94</ns3:hr>
          </ns3:TrackPointExtension>
        </extensions>
      </trkpt>
      <trkpt lat="36.8628975190222263336181640625" lon="-118.4243715740740299224853515625">
        <ele>2768.60009765625</ele>
        <time>2021-06-27T23:21:49.000Z</time>
        <extensions>
          <ns3:TrackPointExtension>
            <ns3:atemp>34.0</ns3:atemp>
            <ns3:hr>91</ns3:hr>
          </ns3:TrackPointExtension>
        </extensions>
      </trkpt>
      <trkpt lat="36.86289726756513118743896484375" lon="-118.42440183274447917938232421875">
        <ele>2768.39990234375</ele>
        <time>2021-06-27T23:21:51.000Z</time>
        <extensions>
          <ns3:TrackPointExtension>
            <ns3:atemp>34.0</ns3:atemp>
            <ns3:hr>89</ns3:hr>
          </ns3:TrackPointExtension>
        </extensions>
      </trkpt>
      <trkpt lat="36.86293867416679859161376953125" lon="-118.424427397549152374267578125">
        <ele>2768</ele>
        <time>2021-06-27T23:21:56.000Z</time>
        <extensions>
          <ns3:TrackPointExtension>
            <ns3:atemp>34.0</ns3:atemp>
            <ns3:hr>87</ns3:hr>
          </ns3:TrackPointExtension>
        </extensions>
      </trkpt>
      <trkpt lat="36.8629516661167144775390625" lon="-118.42443175613880157470703125">
        <ele>2767.800048828125</ele>
        <time>2021-06-27T23:21:57.000Z</time>
        <extensions>
          <ns3:TrackPointExtension>
            <ns3:atemp>34.0</ns3:atemp>
            <ns3:hr>89</ns3:hr>
          </ns3:TrackPointExtension>
        </extensions>
      </trkpt>
      <trkpt lat="36.86296180821955204010009765625" lon="-118.424438126385211944580078125">
        <ele>2767.800048828125</ele>
        <time>2021-06-27T23:21:58.000Z</time>
        <extensions>
          <ns3:TrackPointExtension>
            <ns3:atemp>34.0</ns3:atemp>
            <ns3:hr>86</ns3:hr>
          </ns3:TrackPointExtension>
        </extensions>
      </trkpt>
      <trkpt lat="36.86302450485527515411376953125" lon="-118.42444717884063720703125">
        <ele>2767</ele>
        <time>2021-06-27T23:22:04.000Z</time>
        <extensions>
          <ns3:TrackPointExtension>
            <ns3:atemp>34.0</ns3:atemp>
            <ns3:hr>85</ns3:hr>
          </ns3:TrackPointExtension>
        </extensions>
      </trkpt>
      <trkpt lat="36.86303657479584217071533203125" lon="-118.42444793321192264556884765625">
        <ele>2766.800048828125</ele>
        <time>2021-06-27T23:22:05.000Z</time>
        <extensions>
          <ns3:TrackPointExtension>
            <ns3:atemp>34.0</ns3:atemp>
            <ns3:hr>85</ns3:hr>
          </ns3:TrackPointExtension>
        </extensions>
      </trkpt>
      <trkpt lat="36.8630852736532688140869140625" lon="-118.42448271811008453369140625">
        <ele>2766.39990234375</ele>
        <time>2021-06-27T23:22:10.000Z</time>
        <extensions>
          <ns3:TrackPointExtension>
            <ns3:atemp>34.0</ns3:atemp>
            <ns3:hr>86</ns3:hr>
          </ns3:TrackPointExtension>
        </extensions>
      </trkpt>
      <trkpt lat="36.86311352066695690155029296875" lon="-118.42449403367936611175537109375">
        <ele>2766.199951171875</ele>
        <time>2021-06-27T23:22:12.000Z</time>
        <extensions>
          <ns3:TrackPointExtension>
            <ns3:atemp>34.0</ns3:atemp>
            <ns3:hr>87</ns3:hr>
          </ns3:TrackPointExtension>
        </extensions>
      </trkpt>
      <trkpt lat="36.86314704827964305877685546875" lon="-118.42450325377285480499267578125">
        <ele>2765.800048828125</ele>
        <time>2021-06-27T23:22:15.000Z</time>
        <extensions>
          <ns3:TrackPointExtension>
            <ns3:atemp>33.0</ns3:atemp>
            <ns3:hr>88</ns3:hr>
          </ns3:TrackPointExtension>
        </extensions>
      </trkpt>
      <trkpt lat="36.8631566874682903289794921875" lon="-118.4245271421968936920166015625">
        <ele>2765.800048828125</ele>
        <time>2021-06-27T23:22:17.000Z</time>
        <extensions>
          <ns3:TrackPointExtension>
            <ns3:atemp>33.0</ns3:atemp>
            <ns3:hr>88</ns3:hr>
          </ns3:TrackPointExtension>
        </extensions>
      </trkpt>
      <trkpt lat="36.863165237009525299072265625" lon="-118.4245361946523189544677734375">
        <ele>2765.800048828125</ele>
        <time>2021-06-27T23:22:18.000Z</time>
        <extensions>
          <ns3:TrackPointExtension>
            <ns3:atemp>33.0</ns3:atemp>
            <ns3:hr>89</ns3:hr>
          </ns3:TrackPointExtension>
        </extensions>
      </trkpt>
      <trkpt lat="36.86324612237513065338134765625" lon="-118.42458707280457019805908203125">
        <ele>2765.39990234375</ele>
        <time>2021-06-27T23:22:26.000Z</time>
        <extensions>
          <ns3:TrackPointExtension>
            <ns3:atemp>33.0</ns3:atemp>
            <ns3:hr>88</ns3:hr>
          </ns3:TrackPointExtension>
        </extensions>
      </trkpt>
      <trkpt lat="36.86333547346293926239013671875" lon="-118.4246049262583255767822265625">
        <ele>2765.60009765625</ele>
        <time>2021-06-27T23:22:33.000Z</time>
        <extensions>
          <ns3:TrackPointExtension>
            <ns3:atemp>33.0</ns3:atemp>
            <ns3:hr>91</ns3:hr>
          </ns3:TrackPointExtension>
        </extensions>
      </trkpt>
      <trkpt lat="36.86336380429565906524658203125" lon="-118.4246042557060718536376953125">
        <ele>2765.199951171875</ele>
        <time>2021-06-27T23:22:35.000Z</time>
        <extensions>
          <ns3:TrackPointExtension>
            <ns3:atemp>33.0</ns3:atemp>
            <ns3:hr>92</ns3:hr>
          </ns3:TrackPointExtension>
        </extensions>
      </trkpt>
      <trkpt lat="36.86338459141552448272705078125" lon="-118.42460316605865955352783203125">
        <ele>2764.800048828125</ele>
        <time>2021-06-27T23:22:37.000Z</time>
        <extensions>
          <ns3:TrackPointExtension>
            <ns3:atemp>33.0</ns3:atemp>
            <ns3:hr>92</ns3:hr>
          </ns3:TrackPointExtension>
        </extensions>
      </trkpt>
      <trkpt lat="36.863408647477626800537109375" lon="-118.42458656989037990570068359375">
        <ele>2764.800048828125</ele>
        <time>2021-06-27T23:22:40.000Z</time>
        <extensions>
          <ns3:TrackPointExtension>
            <ns3:atemp>33.0</ns3:atemp>
            <ns3:hr>92</ns3:hr>
          </ns3:TrackPointExtension>
        </extensions>
      </trkpt>
      <trkpt lat="36.86341501772403717041015625" lon="-118.424586988985538482666015625">
        <ele>2765.199951171875</ele>
        <time>2021-06-27T23:22:41.000Z</time>
        <extensions>
          <ns3:TrackPointExtension>
            <ns3:atemp>33.0</ns3:atemp>
            <ns3:hr>92</ns3:hr>
          </ns3:TrackPointExtension>
        </extensions>
      </trkpt>
      <trkpt lat="36.86342750675976276397705078125" lon="-118.4245740808546543121337890625">
        <ele>2765.60009765625</ele>
        <time>2021-06-27T23:22:43.000Z</time>
        <extensions>
          <ns3:TrackPointExtension>
            <ns3:atemp>33.0</ns3:atemp>
            <ns3:hr>93</ns3:hr>
          </ns3:TrackPointExtension>
        </extensions>
      </trkpt>
      <trkpt lat="36.86344108544290065765380859375" lon="-118.42456762678921222686767578125">
        <ele>2765.199951171875</ele>
        <time>2021-06-27T23:22:45.000Z</time>
        <extensions>
          <ns3:TrackPointExtension>
            <ns3:atemp>33.0</ns3:atemp>
            <ns3:hr>94</ns3:hr>
          </ns3:TrackPointExtension>
        </extensions>
      </trkpt>
      <trkpt lat="36.86346489004790782928466796875" lon="-118.42457349412143230438232421875">
        <ele>2764.60009765625</ele>
        <time>2021-06-27T23:22:47.000Z</time>
        <extensions>
          <ns3:TrackPointExtension>
            <ns3:atemp>33.0</ns3:atemp>
            <ns3:hr>94</ns3:hr>
          </ns3:TrackPointExtension>
        </extensions>
      </trkpt>
      <trkpt lat="36.8634881079196929931640625" lon="-118.42459042556583881378173828125">
        <ele>2764.39990234375</ele>
        <time>2021-06-27T23:22:49.000Z</time>
        <extensions>
          <ns3:TrackPointExtension>
            <ns3:atemp>33.0</ns3:atemp>
            <ns3:hr>94</ns3:hr>
          </ns3:TrackPointExtension>
        </extensions>
      </trkpt>
      <trkpt lat="36.86351736076176166534423828125" lon="-118.42462596483528614044189453125">
        <ele>2764.60009765625</ele>
        <time>2021-06-27T23:22:52.000Z</time>
        <extensions>
          <ns3:TrackPointExtension>
            <ns3:atemp>33.0</ns3:atemp>
            <ns3:hr>94</ns3:hr>
          </ns3:TrackPointExtension>
        </extensions>
      </trkpt>
      <trkpt lat="36.863536722958087921142578125" lon="-118.4246711432933807373046875">
        <ele>2764.60009765625</ele>
        <time>2021-06-27T23:22:55.000Z</time>
        <extensions>
          <ns3:TrackPointExtension>
            <ns3:atemp>33.0</ns3:atemp>
            <ns3:hr>91</ns3:hr>
          </ns3:TrackPointExtension>
        </extensions>
      </trkpt>
      <trkpt lat="36.8635794706642627716064453125" lon="-118.42468178831040859222412109375">
        <ele>2765</ele>
        <time>2021-06-27T23:22:59.000Z</time>
        <extensions>
          <ns3:TrackPointExtension>
            <ns3:atemp>33.0</ns3:atemp>
            <ns3:hr>89</ns3:hr>
          </ns3:TrackPointExtension>
        </extensions>
      </trkpt>
      <trkpt lat="36.86364627443253993988037109375" lon="-118.424712717533111572265625">
        <ele>2765.39990234375</ele>
        <time>2021-06-27T23:23:05.000Z</time>
        <extensions>
          <ns3:TrackPointExtension>
            <ns3:atemp>33.0</ns3:atemp>
            <ns3:hr>90</ns3:hr>
          </ns3:TrackPointExtension>
        </extensions>
      </trkpt>
      <trkpt lat="36.8636793829500675201416015625" lon="-118.42471011914312839508056640625">
        <ele>2764.60009765625</ele>
        <time>2021-06-27T23:23:09.000Z</time>
        <extensions>
          <ns3:TrackPointExtension>
            <ns3:atemp>33.0</ns3:atemp>
            <ns3:hr>92</ns3:hr>
          </ns3:TrackPointExtension>
        </extensions>
      </trkpt>
      <trkpt lat="36.8636870943009853363037109375" lon="-118.42471330426633358001708984375">
        <ele>2764.60009765625</ele>
        <time>2021-06-27T23:23:10.000Z</time>
        <extensions>
          <ns3:TrackPointExtension>
            <ns3:atemp>33.0</ns3:atemp>
            <ns3:hr>92</ns3:hr>
          </ns3:TrackPointExtension>
        </extensions>
      </trkpt>
      <trkpt lat="36.86374627053737640380859375" lon="-118.42472688294947147369384765625">
        <ele>2763.39990234375</ele>
        <time>2021-06-27T23:23:15.000Z</time>
        <extensions>
          <ns3:TrackPointExtension>
            <ns3:atemp>33.0</ns3:atemp>
            <ns3:hr>93</ns3:hr>
          </ns3:TrackPointExtension>
        </extensions>
      </trkpt>
      <trkpt lat="36.863812990486621856689453125" lon="-118.4247246198356151580810546875">
        <ele>2762.199951171875</ele>
        <time>2021-06-27T23:23:21.000Z</time>
        <extensions>
          <ns3:TrackPointExtension>
            <ns3:atemp>33.0</ns3:atemp>
            <ns3:hr>94</ns3:hr>
          </ns3:TrackPointExtension>
        </extensions>
      </trkpt>
      <trkpt lat="36.86385691165924072265625" lon="-118.42471162788569927215576171875">
        <ele>2762</ele>
        <time>2021-06-27T23:23:25.000Z</time>
        <extensions>
          <ns3:TrackPointExtension>
            <ns3:atemp>33.0</ns3:atemp>
            <ns3:hr>92</ns3:hr>
          </ns3:TrackPointExtension>
        </extensions>
      </trkpt>
      <trkpt lat="36.8638931214809417724609375" lon="-118.4246917627751827239990234375">
        <ele>2761.60009765625</ele>
        <time>2021-06-27T23:23:29.000Z</time>
        <extensions>
          <ns3:TrackPointExtension>
            <ns3:atemp>33.0</ns3:atemp>
            <ns3:hr>92</ns3:hr>
          </ns3:TrackPointExtension>
        </extensions>
      </trkpt>
      <trkpt lat="36.86393327079713344573974609375" lon="-118.424689583480358123779296875">
        <ele>2761.60009765625</ele>
        <time>2021-06-27T23:23:33.000Z</time>
        <extensions>
          <ns3:TrackPointExtension>
            <ns3:atemp>33.0</ns3:atemp>
            <ns3:hr>91</ns3:hr>
          </ns3:TrackPointExtension>
        </extensions>
      </trkpt>
      <trkpt lat="36.863982975482940673828125" lon="-118.42468396760523319244384765625">
        <ele>2761.199951171875</ele>
        <time>2021-06-27T23:23:39.000Z</time>
        <extensions>
          <ns3:TrackPointExtension>
            <ns3:atemp>33.0</ns3:atemp>
            <ns3:hr>90</ns3:hr>
          </ns3:TrackPointExtension>
        </extensions>
      </trkpt>
      <trkpt lat="36.8640046007931232452392578125" lon="-118.42467826791107654571533203125">
        <ele>2761.199951171875</ele>
        <time>2021-06-27T23:23:41.000Z</time>
        <extensions>
          <ns3:TrackPointExtension>
            <ns3:atemp>33.0</ns3:atemp>
            <ns3:hr>90</ns3:hr>
          </ns3:TrackPointExtension>
        </extensions>
      </trkpt>
      <trkpt lat="36.864040978252887725830078125" lon="-118.42467826791107654571533203125">
        <ele>2759.800048828125</ele>
        <time>2021-06-27T23:23:44.000Z</time>
        <extensions>
          <ns3:TrackPointExtension>
            <ns3:atemp>33.0</ns3:atemp>
            <ns3:hr>88</ns3:hr>
          </ns3:TrackPointExtension>
        </extensions>
      </trkpt>
      <trkpt lat="36.8640998192131519317626953125" lon="-118.4246454946696758270263671875">
        <ele>2758.60009765625</ele>
        <time>2021-06-27T23:23:49.000Z</time>
        <extensions>
          <ns3:TrackPointExtension>
            <ns3:atemp>33.0</ns3:atemp>
            <ns3:hr>87</ns3:hr>
          </ns3:TrackPointExtension>
        </extensions>
      </trkpt>
      <trkpt lat="36.86414583586156368255615234375" lon="-118.42462931759655475616455078125">
        <ele>2757.39990234375</ele>
        <time>2021-06-27T23:23:55.000Z</time>
        <extensions>
          <ns3:TrackPointExtension>
            <ns3:atemp>33.0</ns3:atemp>
            <ns3:hr>86</ns3:hr>
          </ns3:TrackPointExtension>
        </extensions>
      </trkpt>
      <trkpt lat="36.864169724285602569580078125" lon="-118.42463023960590362548828125">
        <ele>2756.60009765625</ele>
        <time>2021-06-27T23:23:58.000Z</time>
        <extensions>
          <ns3:TrackPointExtension>
            <ns3:atemp>33.0</ns3:atemp>
            <ns3:hr>85</ns3:hr>
          </ns3:TrackPointExtension>
        </extensions>
      </trkpt>
      <trkpt lat="36.864189840853214263916015625" lon="-118.42463082633912563323974609375">
        <ele>2756.199951171875</ele>
        <time>2021-06-27T23:24:01.000Z</time>
        <extensions>
          <ns3:TrackPointExtension>
            <ns3:atemp>33.0</ns3:atemp>
            <ns3:hr>86</ns3:hr>
          </ns3:TrackPointExtension>
        </extensions>
      </trkpt>
      <trkpt lat="36.86420300044119358062744140625" lon="-118.42464708723127841949462890625">
        <ele>2755.60009765625</ele>
        <time>2021-06-27T23:24:03.000Z</time>
        <extensions>
          <ns3:TrackPointExtension>
            <ns3:atemp>33.0</ns3:atemp>
            <ns3:hr>86</ns3:hr>
          </ns3:TrackPointExtension>
        </extensions>
      </trkpt>
      <trkpt lat="36.8642171658575534820556640625" lon="-118.4246662817895412445068359375">
        <ele>2754.60009765625</ele>
        <time>2021-06-27T23:24:05.000Z</time>
        <extensions>
          <ns3:TrackPointExtension>
            <ns3:atemp>33.0</ns3:atemp>
            <ns3:hr>86</ns3:hr>
          </ns3:TrackPointExtension>
        </extensions>
      </trkpt>
      <trkpt lat="36.86422278173267841339111328125" lon="-118.42467675916850566864013671875">
        <ele>2754.39990234375</ele>
        <time>2021-06-27T23:24:06.000Z</time>
        <extensions>
          <ns3:TrackPointExtension>
            <ns3:atemp>33.0</ns3:atemp>
            <ns3:hr>87</ns3:hr>
          </ns3:TrackPointExtension>
        </extensions>
      </trkpt>
      <trkpt lat="36.86422982253134250640869140625" lon="-118.424691259860992431640625">
        <ele>2754.39990234375</ele>
        <time>2021-06-27T23:24:08.000Z</time>
        <extensions>
          <ns3:TrackPointExtension>
            <ns3:atemp>33.0</ns3:atemp>
            <ns3:hr>84</ns3:hr>
          </ns3:TrackPointExtension>
        </extensions>
      </trkpt>
      <trkpt lat="36.86422797851264476776123046875" lon="-118.42470190487802028656005859375">
        <ele>2754.199951171875</ele>
        <time>2021-06-27T23:24:09.000Z</time>
        <extensions>
          <ns3:TrackPointExtension>
            <ns3:atemp>33.0</ns3:atemp>
            <ns3:hr>85</ns3:hr>
          </ns3:TrackPointExtension>
        </extensions>
      </trkpt>
      <trkpt lat="36.86421473510563373565673828125" lon="-118.4247340075671672821044921875">
        <ele>2753.39990234375</ele>
        <time>2021-06-27T23:24:12.000Z</time>
        <extensions>
          <ns3:TrackPointExtension>
            <ns3:atemp>33.0</ns3:atemp>
            <ns3:hr>85</ns3:hr>
          </ns3:TrackPointExtension>
        </extensions>
      </trkpt>
      <trkpt lat="36.8642195127904415130615234375" lon="-118.42477063648402690887451171875">
        <ele>2752.199951171875</ele>
        <time>2021-06-27T23:24:17.000Z</time>
        <extensions>
          <ns3:TrackPointExtension>
            <ns3:atemp>33.0</ns3:atemp>
            <ns3:hr>83</ns3:hr>
          </ns3:TrackPointExtension>
        </extensions>
      </trkpt>
      <trkpt lat="36.86422848142683506011962890625" lon="-118.4247712232172489166259765625">
        <ele>2751.800048828125</ele>
        <time>2021-06-27T23:24:18.000Z</time>
        <extensions>
          <ns3:TrackPointExtension>
            <ns3:atemp>33.0</ns3:atemp>
            <ns3:hr>82</ns3:hr>
          </ns3:TrackPointExtension>
        </extensions>
      </trkpt>
      <trkpt lat="36.8642624281346797943115234375" lon="-118.4247762523591518402099609375">
        <ele>2751.199951171875</ele>
        <time>2021-06-27T23:24:22.000Z</time>
        <extensions>
          <ns3:TrackPointExtension>
            <ns3:atemp>33.0</ns3:atemp>
            <ns3:hr>83</ns3:hr>
          </ns3:TrackPointExtension>
        </extensions>
      </trkpt>
      <trkpt lat="36.86427441425621509552001953125" lon="-118.42479921877384185791015625">
        <ele>2750.39990234375</ele>
        <time>2021-06-27T23:24:25.000Z</time>
        <extensions>
          <ns3:TrackPointExtension>
            <ns3:atemp>33.0</ns3:atemp>
            <ns3:hr>83</ns3:hr>
          </ns3:TrackPointExtension>
        </extensions>
      </trkpt>
      <trkpt lat="36.86427424661815166473388671875" lon="-118.42481070198118686676025390625">
        <ele>2749.800048828125</ele>
        <time>2021-06-27T23:24:27.000Z</time>
        <extensions>
          <ns3:TrackPointExtension>
            <ns3:atemp>33.0</ns3:atemp>
            <ns3:hr>82</ns3:hr>
          </ns3:TrackPointExtension>
        </extensions>
      </trkpt>
      <trkpt lat="36.8642835505306720733642578125" lon="-118.42485110275447368621826171875">
        <ele>2749</ele>
        <time>2021-06-27T23:24:32.000Z</time>
        <extensions>
          <ns3:TrackPointExtension>
            <ns3:atemp>34.0</ns3:atemp>
            <ns3:hr>81</ns3:hr>
          </ns3:TrackPointExtension>
        </extensions>
      </trkpt>
      <trkpt lat="36.86429117806255817413330078125" lon="-118.42485420405864715576171875">
        <ele>2748.800048828125</ele>
        <time>2021-06-27T23:24:33.000Z</time>
        <extensions>
          <ns3:TrackPointExtension>
            <ns3:atemp>33.0</ns3:atemp>
            <ns3:hr>81</ns3:hr>
          </ns3:TrackPointExtension>
        </extensions>
      </trkpt>
      <trkpt lat="36.86432101763784885406494140625" lon="-118.424862921237945556640625">
        <ele>2747.800048828125</ele>
        <time>2021-06-27T23:24:37.000Z</time>
        <extensions>
          <ns3:TrackPointExtension>
            <ns3:atemp>34.0</ns3:atemp>
            <ns3:hr>81</ns3:hr>
          </ns3:TrackPointExtension>
        </extensions>
      </trkpt>
      <trkpt lat="36.86433979310095310211181640625" lon="-118.42487272806465625762939453125">
        <ele>2746.800048828125</ele>
        <time>2021-06-27T23:24:40.000Z</time>
        <extensions>
          <ns3:TrackPointExtension>
            <ns3:atemp>34.0</ns3:atemp>
            <ns3:hr>80</ns3:hr>
          </ns3:TrackPointExtension>
        </extensions>
      </trkpt>
      <trkpt lat="36.86434817500412464141845703125" lon="-118.42486937530338764190673828125">
        <ele>2746.60009765625</ele>
        <time>2021-06-27T23:24:41.000Z</time>
        <extensions>
          <ns3:TrackPointExtension>
            <ns3:atemp>34.0</ns3:atemp>
            <ns3:hr>80</ns3:hr>
          </ns3:TrackPointExtension>
        </extensions>
      </trkpt>
      <trkpt lat="36.86439268290996551513671875" lon="-118.42484255321323871612548828125">
        <ele>2745.800048828125</ele>
        <time>2021-06-27T23:24:47.000Z</time>
        <extensions>
          <ns3:TrackPointExtension>
            <ns3:atemp>34.0</ns3:atemp>
            <ns3:hr>76</ns3:hr>
          </ns3:TrackPointExtension>
        </extensions>
      </trkpt>
      <trkpt lat="36.8644027411937713623046875" lon="-118.4248379431664943695068359375">
        <ele>2745.60009765625</ele>
        <time>2021-06-27T23:24:48.000Z</time>
        <extensions>
          <ns3:TrackPointExtension>
            <ns3:atemp>34.0</ns3:atemp>
            <ns3:hr>78</ns3:hr>
          </ns3:TrackPointExtension>
        </extensions>
      </trkpt>
      <trkpt lat="36.8644126318395137786865234375" lon="-118.42483274638652801513671875">
        <ele>2745.39990234375</ele>
        <time>2021-06-27T23:24:49.000Z</time>
        <extensions>
          <ns3:TrackPointExtension>
            <ns3:atemp>34.0</ns3:atemp>
            <ns3:hr>78</ns3:hr>
          </ns3:TrackPointExtension>
        </extensions>
      </trkpt>
      <trkpt lat="36.86443291604518890380859375" lon="-118.42483165673911571502685546875">
        <ele>2745.199951171875</ele>
        <time>2021-06-27T23:24:52.000Z</time>
        <extensions>
          <ns3:TrackPointExtension>
            <ns3:atemp>34.0</ns3:atemp>
            <ns3:hr>78</ns3:hr>
          </ns3:TrackPointExtension>
        </extensions>
      </trkpt>
      <trkpt lat="36.86446384526789188385009765625" lon="-118.42483886517584323883056640625">
        <ele>2744.199951171875</ele>
        <time>2021-06-27T23:24:56.000Z</time>
        <extensions>
          <ns3:TrackPointExtension>
            <ns3:atemp>34.0</ns3:atemp>
            <ns3:hr>78</ns3:hr>
          </ns3:TrackPointExtension>
        </extensions>
      </trkpt>
      <trkpt lat="36.86449184082448482513427734375" lon="-118.42484339140355587005615234375">
        <ele>2743.60009765625</ele>
        <time>2021-06-27T23:24:59.000Z</time>
        <extensions>
          <ns3:TrackPointExtension>
            <ns3:atemp>34.0</ns3:atemp>
            <ns3:hr>77</ns3:hr>
          </ns3:TrackPointExtension>
        </extensions>
      </trkpt>
      <trkpt lat="36.8645447306334972381591796875" lon="-118.42485881410539150238037109375">
        <ele>2743.39990234375</ele>
        <time>2021-06-27T23:25:05.000Z</time>
        <extensions>
          <ns3:TrackPointExtension>
            <ns3:atemp>34.0</ns3:atemp>
            <ns3:hr>80</ns3:hr>
          </ns3:TrackPointExtension>
        </extensions>
      </trkpt>
      <trkpt lat="36.86456342227756977081298828125" lon="-118.42486937530338764190673828125">
        <ele>2743.199951171875</ele>
        <time>2021-06-27T23:25:08.000Z</time>
        <extensions>
          <ns3:TrackPointExtension>
            <ns3:atemp>34.0</ns3:atemp>
            <ns3:hr>80</ns3:hr>
          </ns3:TrackPointExtension>
        </extensions>
      </trkpt>
      <trkpt lat="36.864569373428821563720703125" lon="-118.42487876303493976593017578125">
        <ele>2743</ele>
        <time>2021-06-27T23:25:09.000Z</time>
        <extensions>
          <ns3:TrackPointExtension>
            <ns3:atemp>34.0</ns3:atemp>
            <ns3:hr>80</ns3:hr>
          </ns3:TrackPointExtension>
        </extensions>
      </trkpt>
      <trkpt lat="36.8645779229700565338134765625" lon="-118.424889743328094482421875">
        <ele>2743</ele>
        <time>2021-06-27T23:25:10.000Z</time>
        <extensions>
          <ns3:TrackPointExtension>
            <ns3:atemp>34.0</ns3:atemp>
            <ns3:hr>80</ns3:hr>
          </ns3:TrackPointExtension>
        </extensions>
      </trkpt>
      <trkpt lat="36.86459359712898731231689453125" lon="-118.424918241798877716064453125">
        <ele>2742.60009765625</ele>
        <time>2021-06-27T23:25:12.000Z</time>
        <extensions>
          <ns3:TrackPointExtension>
            <ns3:atemp>34.0</ns3:atemp>
            <ns3:hr>81</ns3:hr>
          </ns3:TrackPointExtension>
        </extensions>
      </trkpt>
      <trkpt lat="36.8646178208291530609130859375" lon="-118.42493508942425251007080078125">
        <ele>2742.199951171875</ele>
        <time>2021-06-27T23:25:15.000Z</time>
        <extensions>
          <ns3:TrackPointExtension>
            <ns3:atemp>34.0</ns3:atemp>
            <ns3:hr>82</ns3:hr>
          </ns3:TrackPointExtension>
        </extensions>
      </trkpt>
      <trkpt lat="36.86463885940611362457275390625" lon="-118.4249281324446201324462890625">
        <ele>2742.39990234375</ele>
        <time>2021-06-27T23:25:17.000Z</time>
        <extensions>
          <ns3:TrackPointExtension>
            <ns3:atemp>34.0</ns3:atemp>
            <ns3:hr>84</ns3:hr>
          </ns3:TrackPointExtension>
        </extensions>
      </trkpt>
      <trkpt lat="36.86465512029826641082763671875" lon="-118.424932993948459625244140625">
        <ele>2742.39990234375</ele>
        <time>2021-06-27T23:25:19.000Z</time>
        <extensions>
          <ns3:TrackPointExtension>
            <ns3:atemp>34.0</ns3:atemp>
            <ns3:hr>88</ns3:hr>
          </ns3:TrackPointExtension>
        </extensions>
      </trkpt>
      <trkpt lat="36.86467825435101985931396484375" lon="-118.424947746098041534423828125">
        <ele>2742.60009765625</ele>
        <time>2021-06-27T23:25:22.000Z</time>
        <extensions>
          <ns3:TrackPointExtension>
            <ns3:atemp>34.0</ns3:atemp>
            <ns3:hr>87</ns3:hr>
          </ns3:TrackPointExtension>
        </extensions>
      </trkpt>
      <trkpt lat="36.86472552828490734100341796875" lon="-118.42497582547366619110107421875">
        <ele>2742.39990234375</ele>
        <time>2021-06-27T23:25:29.000Z</time>
        <extensions>
          <ns3:TrackPointExtension>
            <ns3:atemp>34.0</ns3:atemp>
            <ns3:hr>88</ns3:hr>
          </ns3:TrackPointExtension>
        </extensions>
      </trkpt>
      <trkpt lat="36.86473173089325428009033203125" lon="-118.42498051933944225311279296875">
        <ele>2742.39990234375</ele>
        <time>2021-06-27T23:25:30.000Z</time>
        <extensions>
          <ns3:TrackPointExtension>
            <ns3:atemp>34.0</ns3:atemp>
            <ns3:hr>88</ns3:hr>
          </ns3:TrackPointExtension>
        </extensions>
      </trkpt>
      <trkpt lat="36.86476760543882846832275390625" lon="-118.42498353682458400726318359375">
        <ele>2742</ele>
        <time>2021-06-27T23:25:37.000Z</time>
        <extensions>
          <ns3:TrackPointExtension>
            <ns3:atemp>34.0</ns3:atemp>
            <ns3:hr>91</ns3:hr>
          </ns3:TrackPointExtension>
        </extensions>
      </trkpt>
      <trkpt lat="36.86477112583816051483154296875" lon="-118.42497867532074451446533203125">
        <ele>2741.800048828125</ele>
        <time>2021-06-27T23:25:38.000Z</time>
        <extensions>
          <ns3:TrackPointExtension>
            <ns3:atemp>34.0</ns3:atemp>
            <ns3:hr>91</ns3:hr>
          </ns3:TrackPointExtension>
        </extensions>
      </trkpt>
      <trkpt lat="36.864776574075222015380859375" lon="-118.42496358789503574371337890625">
        <ele>2741.800048828125</ele>
        <time>2021-06-27T23:25:46.000Z</time>
        <extensions>
          <ns3:TrackPointExtension>
            <ns3:atemp>34.0</ns3:atemp>
            <ns3:hr>90</ns3:hr>
          </ns3:TrackPointExtension>
        </extensions>
      </trkpt>
      <trkpt lat="36.86476173810660839080810546875" lon="-118.42495772056281566619873046875">
        <ele>2741.39990234375</ele>
        <time>2021-06-27T23:26:01.000Z</time>
        <extensions>
          <ns3:TrackPointExtension>
            <ns3:atemp>34.0</ns3:atemp>
            <ns3:hr>90</ns3:hr>
          </ns3:TrackPointExtension>
        </extensions>
      </trkpt>
      <trkpt lat="36.86476224102079868316650390625" lon="-118.424957804381847381591796875">
        <ele>2742.199951171875</ele>
        <time>2021-06-27T23:26:31.000Z</time>
        <extensions>
          <ns3:TrackPointExtension>
            <ns3:atemp>34.0</ns3:atemp>
            <ns3:hr>93</ns3:hr>
          </ns3:TrackPointExtension>
        </extensions>
      </trkpt>
      <trkpt lat="36.864769868552684783935546875" lon="-118.42498018406331539154052734375">
        <ele>2742.199951171875</ele>
        <time>2021-06-27T23:26:42.000Z</time>
        <extensions>
          <ns3:TrackPointExtension>
            <ns3:atemp>34.0</ns3:atemp>
            <ns3:hr>90</ns3:hr>
          </ns3:TrackPointExtension>
        </extensions>
      </trkpt>
      <trkpt lat="36.86477514915168285369873046875" lon="-118.424981273710727691650390625">
        <ele>2742</ele>
        <time>2021-06-27T23:26:45.000Z</time>
        <extensions>
          <ns3:TrackPointExtension>
            <ns3:atemp>34.0</ns3:atemp>
            <ns3:hr>87</ns3:hr>
          </ns3:TrackPointExtension>
        </extensions>
      </trkpt>
      <trkpt lat="36.8647777475416660308837890625" lon="-118.4249821119010448455810546875">
        <ele>2741.60009765625</ele>
        <time>2021-06-27T23:26:47.000Z</time>
        <extensions>
          <ns3:TrackPointExtension>
            <ns3:atemp>34.0</ns3:atemp>
            <ns3:hr>90</ns3:hr>
          </ns3:TrackPointExtension>
        </extensions>
      </trkpt>
      <trkpt lat="36.86478738673031330108642578125" lon="-118.42498353682458400726318359375">
        <ele>2742</ele>
        <time>2021-06-27T23:27:01.000Z</time>
        <extensions>
          <ns3:TrackPointExtension>
            <ns3:atemp>34.0</ns3:atemp>
            <ns3:hr>93</ns3:hr>
          </ns3:TrackPointExtension>
        </extensions>
      </trkpt>
      <trkpt lat="36.86480046249926090240478515625" lon="-118.424970544874668121337890625">
        <ele>2741.800048828125</ele>
        <time>2021-06-27T23:27:12.000Z</time>
        <extensions>
          <ns3:TrackPointExtension>
            <ns3:atemp>33.0</ns3:atemp>
            <ns3:hr>97</ns3:hr>
          </ns3:TrackPointExtension>
        </extensions>
      </trkpt>
      <trkpt lat="36.86480046249926090240478515625" lon="-118.42495973221957683563232421875">
        <ele>2741.60009765625</ele>
        <time>2021-06-27T23:27:17.000Z</time>
        <extensions>
          <ns3:TrackPointExtension>
            <ns3:atemp>33.0</ns3:atemp>
            <ns3:hr>94</ns3:hr>
          </ns3:TrackPointExtension>
        </extensions>
      </trkpt>
      <trkpt lat="36.86476039700210094451904296875" lon="-118.4249445609748363494873046875">
        <ele>2741.60009765625</ele>
        <time>2021-06-27T23:27:34.000Z</time>
        <extensions>
          <ns3:TrackPointExtension>
            <ns3:atemp>33.0</ns3:atemp>
            <ns3:hr>91</ns3:hr>
          </ns3:TrackPointExtension>
        </extensions>
      </trkpt>
      <trkpt lat="36.8647569604218006134033203125" lon="-118.424943722784519195556640625">
        <ele>2741.60009765625</ele>
        <time>2021-06-27T23:27:36.000Z</time>
        <extensions>
          <ns3:TrackPointExtension>
            <ns3:atemp>33.0</ns3:atemp>
            <ns3:hr>87</ns3:hr>
          </ns3:TrackPointExtension>
        </extensions>
      </trkpt>
      <trkpt lat="36.86475478112697601318359375" lon="-118.42494347132742404937744140625">
        <ele>2741.60009765625</ele>
        <time>2021-06-27T23:27:38.000Z</time>
        <extensions>
          <ns3:TrackPointExtension>
            <ns3:atemp>33.0</ns3:atemp>
            <ns3:hr>84</ns3:hr>
          </ns3:TrackPointExtension>
        </extensions>
      </trkpt>
      <trkpt lat="36.86475251801311969757080078125" lon="-118.424943387508392333984375">
        <ele>2741.60009765625</ele>
        <time>2021-06-27T23:27:40.000Z</time>
        <extensions>
          <ns3:TrackPointExtension>
            <ns3:atemp>33.0</ns3:atemp>
            <ns3:hr>81</ns3:hr>
          </ns3:TrackPointExtension>
        </extensions>
      </trkpt>
      <trkpt lat="36.864748410880565643310546875" lon="-118.424950428307056427001953125">
        <ele>2742</ele>
        <time>2021-06-27T23:27:52.000Z</time>
        <extensions>
          <ns3:TrackPointExtension>
            <ns3:atemp>33.0</ns3:atemp>
            <ns3:hr>78</ns3:hr>
          </ns3:TrackPointExtension>
        </extensions>
      </trkpt>
      <trkpt lat="36.86474698595702648162841796875" lon="-118.42496819794178009033203125">
        <ele>2742.199951171875</ele>
        <time>2021-06-27T23:28:16.000Z</time>
        <extensions>
          <ns3:TrackPointExtension>
            <ns3:atemp>33.0</ns3:atemp>
            <ns3:hr>81</ns3:hr>
          </ns3:TrackPointExtension>
        </extensions>
      </trkpt>
      <trkpt lat="36.8647435493767261505126953125" lon="-118.4249703772366046905517578125">
        <ele>2742.199951171875</ele>
        <time>2021-06-27T23:28:19.000Z</time>
        <extensions>
          <ns3:TrackPointExtension>
            <ns3:atemp>33.0</ns3:atemp>
            <ns3:hr>84</ns3:hr>
          </ns3:TrackPointExtension>
        </extensions>
      </trkpt>
      <trkpt lat="36.86476014554500579833984375" lon="-118.42503449879586696624755859375">
        <ele>2742.199951171875</ele>
        <time>2021-06-27T23:28:46.000Z</time>
        <extensions>
          <ns3:TrackPointExtension>
            <ns3:atemp>33.0</ns3:atemp>
            <ns3:hr>81</ns3:hr>
          </ns3:TrackPointExtension>
        </extensions>
      </trkpt>
      <trkpt lat="36.86476157046854496002197265625" lon="-118.42503785155713558197021484375">
        <ele>2742.199951171875</ele>
        <time>2021-06-27T23:28:51.000Z</time>
        <extensions>
          <ns3:TrackPointExtension>
            <ns3:atemp>33.0</ns3:atemp>
            <ns3:hr>78</ns3:hr>
          </ns3:TrackPointExtension>
        </extensions>
      </trkpt>
      <trkpt lat="36.864764504134654998779296875" lon="-118.4250407852232456207275390625">
        <ele>2742.199951171875</ele>
        <time>2021-06-27T23:29:10.000Z</time>
        <extensions>
          <ns3:TrackPointExtension>
            <ns3:atemp>34.0</ns3:atemp>
            <ns3:hr>81</ns3:hr>
          </ns3:TrackPointExtension>
        </extensions>
      </trkpt>
      <trkpt lat="36.8647787533700466156005859375" lon="-118.42498823069036006927490234375">
        <ele>2742.199951171875</ele>
        <time>2021-06-27T23:29:17.000Z</time>
        <extensions>
          <ns3:TrackPointExtension>
            <ns3:atemp>34.0</ns3:atemp>
            <ns3:hr>83</ns3:hr>
          </ns3:TrackPointExtension>
        </extensions>
      </trkpt>
      <trkpt lat="36.86478805728256702423095703125" lon="-118.42497012577950954437255859375">
        <ele>2742.199951171875</ele>
        <time>2021-06-27T23:29:23.000Z</time>
        <extensions>
          <ns3:TrackPointExtension>
            <ns3:atemp>34.0</ns3:atemp>
            <ns3:hr>84</ns3:hr>
          </ns3:TrackPointExtension>
        </extensions>
      </trkpt>
      <trkpt lat="36.86480130068957805633544921875" lon="-118.4249742329120635986328125">
        <ele>2742.199951171875</ele>
        <time>2021-06-27T23:29:33.000Z</time>
        <extensions>
          <ns3:TrackPointExtension>
            <ns3:atemp>34.0</ns3:atemp>
            <ns3:hr>85</ns3:hr>
          </ns3:TrackPointExtension>
        </extensions>
      </trkpt>
      <trkpt lat="36.86479912139475345611572265625" lon="-118.42497364617884159088134765625">
        <ele>2742.199951171875</ele>
        <time>2021-06-27T23:29:38.000Z</time>
        <extensions>
          <ns3:TrackPointExtension>
            <ns3:atemp>34.0</ns3:atemp>
            <ns3:hr>81</ns3:hr>
          </ns3:TrackPointExtension>
        </extensions>
      </trkpt>
      <trkpt lat="36.86479828320443630218505859375" lon="-118.42497196979820728302001953125">
        <ele>2742.199951171875</ele>
        <time>2021-06-27T23:29:41.000Z</time>
        <extensions>
          <ns3:TrackPointExtension>
            <ns3:atemp>34.0</ns3:atemp>
            <ns3:hr>77</ns3:hr>
          </ns3:TrackPointExtension>
        </extensions>
      </trkpt>
      <trkpt lat="36.86479744501411914825439453125" lon="-118.42497129924595355987548828125">
        <ele>2742.199951171875</ele>
        <time>2021-06-27T23:29:43.000Z</time>
        <extensions>
          <ns3:TrackPointExtension>
            <ns3:atemp>34.0</ns3:atemp>
            <ns3:hr>74</ns3:hr>
          </ns3:TrackPointExtension>
        </extensions>
      </trkpt>
      <trkpt lat="36.86484396457672119140625" lon="-118.42495587654411792755126953125">
        <ele>2742.199951171875</ele>
        <time>2021-06-27T23:29:57.000Z</time>
        <extensions>
          <ns3:TrackPointExtension>
            <ns3:atemp>33.0</ns3:atemp>
            <ns3:hr>70</ns3:hr>
          </ns3:TrackPointExtension>
        </extensions>
      </trkpt>
      <trkpt lat="36.86486634425818920135498046875" lon="-118.424947746098041534423828125">
        <ele>2742.199951171875</ele>
        <time>2021-06-27T23:29:59.000Z</time>
        <extensions>
          <ns3:TrackPointExtension>
            <ns3:atemp>33.0</ns3:atemp>
            <ns3:hr>67</ns3:hr>
          </ns3:TrackPointExtension>
        </extensions>
      </trkpt>
      <trkpt lat="36.86490272171795368194580078125" lon="-118.42493056319653987884521484375">
        <ele>2742.199951171875</ele>
        <time>2021-06-27T23:30:02.000Z</time>
        <extensions>
          <ns3:TrackPointExtension>
            <ns3:atemp>33.0</ns3:atemp>
            <ns3:hr>64</ns3:hr>
          </ns3:TrackPointExtension>
        </extensions>
      </trkpt>
      <trkpt lat="36.86493272893130779266357421875" lon="-118.424925617873668670654296875">
        <ele>2742.199951171875</ele>
        <time>2021-06-27T23:30:05.000Z</time>
        <extensions>
          <ns3:TrackPointExtension>
            <ns3:atemp>33.0</ns3:atemp>
            <ns3:hr>62</ns3:hr>
          </ns3:TrackPointExtension>
        </extensions>
      </trkpt>
      <trkpt lat="36.86499039642512798309326171875" lon="-118.424921594560146331787109375">
        <ele>2742.39990234375</ele>
        <time>2021-06-27T23:30:10.000Z</time>
        <extensions>
          <ns3:TrackPointExtension>
            <ns3:atemp>33.0</ns3:atemp>
            <ns3:hr>59</ns3:hr>
          </ns3:TrackPointExtension>
        </extensions>
      </trkpt>
      <trkpt lat="36.8650385923683643341064453125" lon="-118.424930311739444732666015625">
        <ele>2742</ele>
        <time>2021-06-27T23:30:14.000Z</time>
        <extensions>
          <ns3:TrackPointExtension>
            <ns3:atemp>33.0</ns3:atemp>
            <ns3:hr>58</ns3:hr>
          </ns3:TrackPointExtension>
        </extensions>
      </trkpt>
      <trkpt lat="36.865146718919277191162109375" lon="-118.42496685683727264404296875">
        <ele>2742</ele>
        <time>2021-06-27T23:30:24.000Z</time>
        <extensions>
          <ns3:TrackPointExtension>
            <ns3:atemp>33.0</ns3:atemp>
            <ns3:hr>57</ns3:hr>
          </ns3:TrackPointExtension>
        </extensions>
      </trkpt>
      <trkpt lat="36.86520044691860675811767578125" lon="-118.4250039048492908477783203125">
        <ele>2742.60009765625</ele>
        <time>2021-06-27T23:30:31.000Z</time>
        <extensions>
          <ns3:TrackPointExtension>
            <ns3:atemp>33.0</ns3:atemp>
            <ns3:hr>60</ns3:hr>
          </ns3:TrackPointExtension>
        </extensions>
      </trkpt>
      <trkpt lat="36.86521268449723720550537109375" lon="-118.4250072576105594635009765625">
        <ele>2742.60009765625</ele>
        <time>2021-06-27T23:30:32.000Z</time>
        <extensions>
          <ns3:TrackPointExtension>
            <ns3:atemp>33.0</ns3:atemp>
            <ns3:hr>61</ns3:hr>
          </ns3:TrackPointExtension>
        </extensions>
      </trkpt>
      <trkpt lat="36.865235231816768646240234375" lon="-118.42501471750438213348388671875">
        <ele>2742.60009765625</ele>
        <time>2021-06-27T23:30:34.000Z</time>
        <extensions>
          <ns3:TrackPointExtension>
            <ns3:atemp>33.0</ns3:atemp>
            <ns3:hr>63</ns3:hr>
          </ns3:TrackPointExtension>
        </extensions>
      </trkpt>
      <trkpt lat="36.86534461565315723419189453125" lon="-118.4250256977975368499755859375">
        <ele>2741.60009765625</ele>
        <time>2021-06-27T23:30:44.000Z</time>
        <extensions>
          <ns3:TrackPointExtension>
            <ns3:atemp>33.0</ns3:atemp>
            <ns3:hr>65</ns3:hr>
          </ns3:TrackPointExtension>
        </extensions>
      </trkpt>
      <trkpt lat="36.865365318953990936279296875" lon="-118.42504304833710193634033203125">
        <ele>2741.60009765625</ele>
        <time>2021-06-27T23:30:48.000Z</time>
        <extensions>
          <ns3:TrackPointExtension>
            <ns3:atemp>33.0</ns3:atemp>
            <ns3:hr>68</ns3:hr>
          </ns3:TrackPointExtension>
        </extensions>
      </trkpt>
      <trkpt lat="36.8653970025479793548583984375" lon="-118.42507003806531429290771484375">
        <ele>2742</ele>
        <time>2021-06-27T23:30:52.000Z</time>
        <extensions>
          <ns3:TrackPointExtension>
            <ns3:atemp>33.0</ns3:atemp>
            <ns3:hr>68</ns3:hr>
          </ns3:TrackPointExtension>
        </extensions>
      </trkpt>
      <trkpt lat="36.86541326344013214111328125" lon="-118.4250870533287525177001953125">
        <ele>2742</ele>
        <time>2021-06-27T23:30:54.000Z</time>
        <extensions>
          <ns3:TrackPointExtension>
            <ns3:atemp>33.0</ns3:atemp>
            <ns3:hr>71</ns3:hr>
          </ns3:TrackPointExtension>
        </extensions>
      </trkpt>
      <trkpt lat="36.865422986447811126708984375" lon="-118.42509292066097259521484375">
        <ele>2742</ele>
        <time>2021-06-27T23:30:55.000Z</time>
        <extensions>
          <ns3:TrackPointExtension>
            <ns3:atemp>33.0</ns3:atemp>
            <ns3:hr>68</ns3:hr>
          </ns3:TrackPointExtension>
        </extensions>
      </trkpt>
      <trkpt lat="36.8654543347656726837158203125" lon="-118.4251044876873493194580078125">
        <ele>2742</ele>
        <time>2021-06-27T23:30:58.000Z</time>
        <extensions>
          <ns3:TrackPointExtension>
            <ns3:atemp>33.0</ns3:atemp>
            <ns3:hr>70</ns3:hr>
          </ns3:TrackPointExtension>
        </extensions>
      </trkpt>
      <trkpt lat="36.86547470279037952423095703125" lon="-118.42511848546564579010009765625">
        <ele>2742.199951171875</ele>
        <time>2021-06-27T23:31:00.000Z</time>
        <extensions>
          <ns3:TrackPointExtension>
            <ns3:atemp>33.0</ns3:atemp>
            <ns3:hr>67</ns3:hr>
          </ns3:TrackPointExtension>
        </extensions>
      </trkpt>
      <trkpt lat="36.8654841743409633636474609375" lon="-118.42512510716915130615234375">
        <ele>2742.39990234375</ele>
        <time>2021-06-27T23:31:01.000Z</time>
        <extensions>
          <ns3:TrackPointExtension>
            <ns3:atemp>33.0</ns3:atemp>
            <ns3:hr>71</ns3:hr>
          </ns3:TrackPointExtension>
        </extensions>
      </trkpt>
      <trkpt lat="36.8654970824718475341796875" lon="-118.4251299686729907989501953125">
        <ele>2742.60009765625</ele>
        <time>2021-06-27T23:31:02.000Z</time>
        <extensions>
          <ns3:TrackPointExtension>
            <ns3:atemp>33.0</ns3:atemp>
            <ns3:hr>71</ns3:hr>
          </ns3:TrackPointExtension>
        </extensions>
      </trkpt>
      <trkpt lat="36.86551845632493495941162109375" lon="-118.4251349978148937225341796875">
        <ele>2742.60009765625</ele>
        <time>2021-06-27T23:31:04.000Z</time>
        <extensions>
          <ns3:TrackPointExtension>
            <ns3:atemp>33.0</ns3:atemp>
            <ns3:hr>75</ns3:hr>
          </ns3:TrackPointExtension>
        </extensions>
      </trkpt>
      <trkpt lat="36.865541674196720123291015625" lon="-118.425144888460636138916015625">
        <ele>2742.60009765625</ele>
        <time>2021-06-27T23:31:06.000Z</time>
        <extensions>
          <ns3:TrackPointExtension>
            <ns3:atemp>33.0</ns3:atemp>
            <ns3:hr>78</ns3:hr>
          </ns3:TrackPointExtension>
        </extensions>
      </trkpt>
      <trkpt lat="36.86555298976600170135498046875" lon="-118.4251460619270801544189453125">
        <ele>2742.60009765625</ele>
        <time>2021-06-27T23:31:07.000Z</time>
        <extensions>
          <ns3:TrackPointExtension>
            <ns3:atemp>33.0</ns3:atemp>
            <ns3:hr>79</ns3:hr>
          </ns3:TrackPointExtension>
        </extensions>
      </trkpt>
      <trkpt lat="36.86565893702208995819091796875" lon="-118.4251628257334232330322265625">
        <ele>2741.60009765625</ele>
        <time>2021-06-27T23:31:16.000Z</time>
        <extensions>
          <ns3:TrackPointExtension>
            <ns3:atemp>33.0</ns3:atemp>
            <ns3:hr>77</ns3:hr>
          </ns3:TrackPointExtension>
        </extensions>
      </trkpt>
      <trkpt lat="36.86570160090923309326171875" lon="-118.42517313547432422637939453125">
        <ele>2740.800048828125</ele>
        <time>2021-06-27T23:31:20.000Z</time>
        <extensions>
          <ns3:TrackPointExtension>
            <ns3:atemp>33.0</ns3:atemp>
            <ns3:hr>77</ns3:hr>
          </ns3:TrackPointExtension>
        </extensions>
      </trkpt>
      <trkpt lat="36.865709312260150909423828125" lon="-118.42518134973943233489990234375">
        <ele>2740.60009765625</ele>
        <time>2021-06-27T23:31:21.000Z</time>
        <extensions>
          <ns3:TrackPointExtension>
            <ns3:atemp>33.0</ns3:atemp>
            <ns3:hr>76</ns3:hr>
          </ns3:TrackPointExtension>
        </extensions>
      </trkpt>
      <trkpt lat="36.8657376430928707122802734375" lon="-118.42521940357983112335205078125">
        <ele>2740</ele>
        <time>2021-06-27T23:31:25.000Z</time>
        <extensions>
          <ns3:TrackPointExtension>
            <ns3:atemp>33.0</ns3:atemp>
            <ns3:hr>76</ns3:hr>
          </ns3:TrackPointExtension>
        </extensions>
      </trkpt>
      <trkpt lat="36.86575046740472316741943359375" lon="-118.42524421401321887969970703125">
        <ele>2739.60009765625</ele>
        <time>2021-06-27T23:31:27.000Z</time>
        <extensions>
          <ns3:TrackPointExtension>
            <ns3:atemp>33.0</ns3:atemp>
            <ns3:hr>74</ns3:hr>
          </ns3:TrackPointExtension>
        </extensions>
      </trkpt>
      <trkpt lat="36.86575331725180149078369140625" lon="-118.42525980435311794281005859375">
        <ele>2739.60009765625</ele>
        <time>2021-06-27T23:31:28.000Z</time>
        <extensions>
          <ns3:TrackPointExtension>
            <ns3:atemp>33.0</ns3:atemp>
            <ns3:hr>71</ns3:hr>
          </ns3:TrackPointExtension>
        </extensions>
      </trkpt>
      <trkpt lat="36.86578810214996337890625" lon="-118.42530037276446819305419921875">
        <ele>2739</ele>
        <time>2021-06-27T23:31:32.000Z</time>
        <extensions>
          <ns3:TrackPointExtension>
            <ns3:atemp>33.0</ns3:atemp>
            <ns3:hr>72</ns3:hr>
          </ns3:TrackPointExtension>
        </extensions>
      </trkpt>
      <trkpt lat="36.865799836814403533935546875" lon="-118.42534043826162815093994140625">
        <ele>2738.39990234375</ele>
        <time>2021-06-27T23:31:35.000Z</time>
        <extensions>
          <ns3:TrackPointExtension>
            <ns3:atemp>33.0</ns3:atemp>
            <ns3:hr>69</ns3:hr>
          </ns3:TrackPointExtension>
        </extensions>
      </trkpt>
      <trkpt lat="36.86581383459270000457763671875" lon="-118.42536105774343013763427734375">
        <ele>2738.39990234375</ele>
        <time>2021-06-27T23:31:37.000Z</time>
        <extensions>
          <ns3:TrackPointExtension>
            <ns3:atemp>33.0</ns3:atemp>
            <ns3:hr>67</ns3:hr>
          </ns3:TrackPointExtension>
        </extensions>
      </trkpt>
      <trkpt lat="36.86584434472024440765380859375" lon="-118.4253941662609577178955078125">
        <ele>2738.60009765625</ele>
        <time>2021-06-27T23:31:41.000Z</time>
        <extensions>
          <ns3:TrackPointExtension>
            <ns3:atemp>33.0</ns3:atemp>
            <ns3:hr>66</ns3:hr>
          </ns3:TrackPointExtension>
        </extensions>
      </trkpt>
      <trkpt lat="36.86591844074428081512451171875" lon="-118.425428532063961029052734375">
        <ele>2737.60009765625</ele>
        <time>2021-06-27T23:31:48.000Z</time>
        <extensions>
          <ns3:TrackPointExtension>
            <ns3:atemp>33.0</ns3:atemp>
            <ns3:hr>67</ns3:hr>
          </ns3:TrackPointExtension>
        </extensions>
      </trkpt>
      <trkpt lat="36.86593629419803619384765625" lon="-118.4254302084445953369140625">
        <ele>2737.199951171875</ele>
        <time>2021-06-27T23:31:50.000Z</time>
        <extensions>
          <ns3:TrackPointExtension>
            <ns3:atemp>33.0</ns3:atemp>
            <ns3:hr>67</ns3:hr>
          </ns3:TrackPointExtension>
        </extensions>
      </trkpt>
      <trkpt lat="36.86597208492457866668701171875" lon="-118.42543398030102252960205078125">
        <ele>2736.800048828125</ele>
        <time>2021-06-27T23:31:53.000Z</time>
        <extensions>
          <ns3:TrackPointExtension>
            <ns3:atemp>33.0</ns3:atemp>
            <ns3:hr>67</ns3:hr>
          </ns3:TrackPointExtension>
        </extensions>
      </trkpt>
      <trkpt lat="36.86599119566380977630615234375" lon="-118.4254411049187183380126953125">
        <ele>2736.60009765625</ele>
        <time>2021-06-27T23:31:55.000Z</time>
        <extensions>
          <ns3:TrackPointExtension>
            <ns3:atemp>33.0</ns3:atemp>
            <ns3:hr>67</ns3:hr>
          </ns3:TrackPointExtension>
        </extensions>
      </trkpt>
      <trkpt lat="36.866006366908550262451171875" lon="-118.42544420622289180755615234375">
        <ele>2736.60009765625</ele>
        <time>2021-06-27T23:31:56.000Z</time>
        <extensions>
          <ns3:TrackPointExtension>
            <ns3:atemp>33.0</ns3:atemp>
            <ns3:hr>66</ns3:hr>
          </ns3:TrackPointExtension>
        </extensions>
      </trkpt>
      <trkpt lat="36.86607166193425655364990234375" lon="-118.4254766441881656646728515625">
        <ele>2736.199951171875</ele>
        <time>2021-06-27T23:32:02.000Z</time>
        <extensions>
          <ns3:TrackPointExtension>
            <ns3:atemp>33.0</ns3:atemp>
            <ns3:hr>66</ns3:hr>
          </ns3:TrackPointExtension>
        </extensions>
      </trkpt>
      <trkpt lat="36.86608322896063327789306640625" lon="-118.42548049986362457275390625">
        <ele>2736.199951171875</ele>
        <time>2021-06-27T23:32:03.000Z</time>
        <extensions>
          <ns3:TrackPointExtension>
            <ns3:atemp>33.0</ns3:atemp>
            <ns3:hr>66</ns3:hr>
          </ns3:TrackPointExtension>
        </extensions>
      </trkpt>
      <trkpt lat="36.86615346930921077728271484375" lon="-118.425530456006526947021484375">
        <ele>2735.60009765625</ele>
        <time>2021-06-27T23:32:10.000Z</time>
        <extensions>
          <ns3:TrackPointExtension>
            <ns3:atemp>33.0</ns3:atemp>
            <ns3:hr>67</ns3:hr>
          </ns3:TrackPointExtension>
        </extensions>
      </trkpt>
      <trkpt lat="36.8662388809025287628173828125" lon="-118.425635397434234619140625">
        <ele>2735.39990234375</ele>
        <time>2021-06-27T23:32:21.000Z</time>
        <extensions>
          <ns3:TrackPointExtension>
            <ns3:atemp>33.0</ns3:atemp>
            <ns3:hr>65</ns3:hr>
          </ns3:TrackPointExtension>
        </extensions>
      </trkpt>
      <trkpt lat="36.866287998855113983154296875" lon="-118.425672948360443115234375">
        <ele>2735.60009765625</ele>
        <time>2021-06-27T23:32:26.000Z</time>
        <extensions>
          <ns3:TrackPointExtension>
            <ns3:atemp>33.0</ns3:atemp>
            <ns3:hr>69</ns3:hr>
          </ns3:TrackPointExtension>
        </extensions>
      </trkpt>
      <trkpt lat="36.8663351051509380340576171875" lon="-118.4257096610963344573974609375">
        <ele>2736</ele>
        <time>2021-06-27T23:32:30.000Z</time>
        <extensions>
          <ns3:TrackPointExtension>
            <ns3:atemp>33.0</ns3:atemp>
            <ns3:hr>72</ns3:hr>
          </ns3:TrackPointExtension>
        </extensions>
      </trkpt>
      <trkpt lat="36.866407357156276702880859375" lon="-118.425760455429553985595703125">
        <ele>2737.39990234375</ele>
        <time>2021-06-27T23:32:38.000Z</time>
        <extensions>
          <ns3:TrackPointExtension>
            <ns3:atemp>33.0</ns3:atemp>
            <ns3:hr>76</ns3:hr>
          </ns3:TrackPointExtension>
        </extensions>
      </trkpt>
      <trkpt lat="36.866424120962619781494140625" lon="-118.42577110044658184051513671875">
        <ele>2737.60009765625</ele>
        <time>2021-06-27T23:32:40.000Z</time>
        <extensions>
          <ns3:TrackPointExtension>
            <ns3:atemp>33.0</ns3:atemp>
            <ns3:hr>78</ns3:hr>
          </ns3:TrackPointExtension>
        </extensions>
      </trkpt>
      <trkpt lat="36.86644130386412143707275390625" lon="-118.42577956616878509521484375">
        <ele>2737.800048828125</ele>
        <time>2021-06-27T23:32:42.000Z</time>
        <extensions>
          <ns3:TrackPointExtension>
            <ns3:atemp>33.0</ns3:atemp>
            <ns3:hr>84</ns3:hr>
          </ns3:TrackPointExtension>
        </extensions>
      </trkpt>
      <trkpt lat="36.8664447404444217681884765625" lon="-118.425784595310688018798828125">
        <ele>2738</ele>
        <time>2021-06-27T23:32:43.000Z</time>
        <extensions>
          <ns3:TrackPointExtension>
            <ns3:atemp>33.0</ns3:atemp>
            <ns3:hr>84</ns3:hr>
          </ns3:TrackPointExtension>
        </extensions>
      </trkpt>
      <trkpt lat="36.86644884757697582244873046875" lon="-118.425790630280971527099609375">
        <ele>2738.199951171875</ele>
        <time>2021-06-27T23:32:44.000Z</time>
        <extensions>
          <ns3:TrackPointExtension>
            <ns3:atemp>33.0</ns3:atemp>
            <ns3:hr>85</ns3:hr>
          </ns3:TrackPointExtension>
        </extensions>
      </trkpt>
      <trkpt lat="36.86647013761103153228759765625" lon="-118.42581619508564472198486328125">
        <ele>2738.60009765625</ele>
        <time>2021-06-27T23:32:47.000Z</time>
        <extensions>
          <ns3:TrackPointExtension>
            <ns3:atemp>33.0</ns3:atemp>
            <ns3:hr>85</ns3:hr>
          </ns3:TrackPointExtension>
        </extensions>
      </trkpt>
      <trkpt lat="36.8664799444377422332763671875" lon="-118.42582382261753082275390625">
        <ele>2738.800048828125</ele>
        <time>2021-06-27T23:32:48.000Z</time>
        <extensions>
          <ns3:TrackPointExtension>
            <ns3:atemp>33.0</ns3:atemp>
            <ns3:hr>86</ns3:hr>
          </ns3:TrackPointExtension>
        </extensions>
      </trkpt>
      <trkpt lat="36.8665473349392414093017578125" lon="-118.4258679114282131195068359375">
        <ele>2738.800048828125</ele>
        <time>2021-06-27T23:32:55.000Z</time>
        <extensions>
          <ns3:TrackPointExtension>
            <ns3:atemp>33.0</ns3:atemp>
            <ns3:hr>88</ns3:hr>
          </ns3:TrackPointExtension>
        </extensions>
      </trkpt>
      <trkpt lat="36.86656267382204532623291015625" lon="-118.42588325031101703643798828125">
        <ele>2738.39990234375</ele>
        <time>2021-06-27T23:32:57.000Z</time>
        <extensions>
          <ns3:TrackPointExtension>
            <ns3:atemp>33.0</ns3:atemp>
            <ns3:hr>89</ns3:hr>
          </ns3:TrackPointExtension>
        </extensions>
      </trkpt>
      <trkpt lat="36.86658807098865509033203125" lon="-118.42589900828897953033447265625">
        <ele>2738</ele>
        <time>2021-06-27T23:33:00.000Z</time>
        <extensions>
          <ns3:TrackPointExtension>
            <ns3:atemp>33.0</ns3:atemp>
            <ns3:hr>88</ns3:hr>
          </ns3:TrackPointExtension>
        </extensions>
      </trkpt>
      <trkpt lat="36.8665986321866512298583984375" lon="-118.4259215556085109710693359375">
        <ele>2737.199951171875</ele>
        <time>2021-06-27T23:33:02.000Z</time>
        <extensions>
          <ns3:TrackPointExtension>
            <ns3:atemp>34.0</ns3:atemp>
            <ns3:hr>86</ns3:hr>
          </ns3:TrackPointExtension>
        </extensions>
      </trkpt>
      <trkpt lat="36.8666086904704570770263671875" lon="-118.42592901550233364105224609375">
        <ele>2737</ele>
        <time>2021-06-27T23:33:03.000Z</time>
        <extensions>
          <ns3:TrackPointExtension>
            <ns3:atemp>34.0</ns3:atemp>
            <ns3:hr>85</ns3:hr>
          </ns3:TrackPointExtension>
        </extensions>
      </trkpt>
      <trkpt lat="36.86667566187679767608642578125" lon="-118.4259835816919803619384765625">
        <ele>2736.800048828125</ele>
        <time>2021-06-27T23:33:11.000Z</time>
        <extensions>
          <ns3:TrackPointExtension>
            <ns3:atemp>34.0</ns3:atemp>
            <ns3:hr>82</ns3:hr>
          </ns3:TrackPointExtension>
        </extensions>
      </trkpt>
      <trkpt lat="36.86677808873355388641357421875" lon="-118.4260256588459014892578125">
        <ele>2736.800048828125</ele>
        <time>2021-06-27T23:33:21.000Z</time>
        <extensions>
          <ns3:TrackPointExtension>
            <ns3:atemp>34.0</ns3:atemp>
            <ns3:hr>80</ns3:hr>
          </ns3:TrackPointExtension>
        </extensions>
      </trkpt>
      <trkpt lat="36.86692309565842151641845703125" lon="-118.42608240433037281036376953125">
        <ele>2736.39990234375</ele>
        <time>2021-06-27T23:33:33.000Z</time>
        <extensions>
          <ns3:TrackPointExtension>
            <ns3:atemp>34.0</ns3:atemp>
            <ns3:hr>78</ns3:hr>
          </ns3:TrackPointExtension>
        </extensions>
      </trkpt>
      <trkpt lat="36.86694480478763580322265625" lon="-118.4261046163737773895263671875">
        <ele>2736.199951171875</ele>
        <time>2021-06-27T23:33:36.000Z</time>
        <extensions>
          <ns3:TrackPointExtension>
            <ns3:atemp>34.0</ns3:atemp>
            <ns3:hr>77</ns3:hr>
          </ns3:TrackPointExtension>
        </extensions>
      </trkpt>
      <trkpt lat="36.8669580481946468353271484375" lon="-118.42614308930933475494384765625">
        <ele>2735.800048828125</ele>
        <time>2021-06-27T23:33:40.000Z</time>
        <extensions>
          <ns3:TrackPointExtension>
            <ns3:atemp>34.0</ns3:atemp>
            <ns3:hr>78</ns3:hr>
          </ns3:TrackPointExtension>
        </extensions>
      </trkpt>
      <trkpt lat="36.86696550808846950531005859375" lon="-118.4261485375463962554931640625">
        <ele>2735.60009765625</ele>
        <time>2021-06-27T23:33:41.000Z</time>
        <extensions>
          <ns3:TrackPointExtension>
            <ns3:atemp>34.0</ns3:atemp>
            <ns3:hr>76</ns3:hr>
          </ns3:TrackPointExtension>
        </extensions>
      </trkpt>
      <trkpt lat="36.8669855408370494842529296875" lon="-118.42615641653537750244140625">
        <ele>2735.199951171875</ele>
        <time>2021-06-27T23:33:43.000Z</time>
        <extensions>
          <ns3:TrackPointExtension>
            <ns3:atemp>34.0</ns3:atemp>
            <ns3:hr>76</ns3:hr>
          </ns3:TrackPointExtension>
        </extensions>
      </trkpt>
      <trkpt lat="36.86702652834355831146240234375" lon="-118.4261585958302021026611328125">
        <ele>2734.39990234375</ele>
        <time>2021-06-27T23:33:47.000Z</time>
        <extensions>
          <ns3:TrackPointExtension>
            <ns3:atemp>34.0</ns3:atemp>
            <ns3:hr>77</ns3:hr>
          </ns3:TrackPointExtension>
        </extensions>
      </trkpt>
      <trkpt lat="36.86705318279564380645751953125" lon="-118.42615767382085323333740234375">
        <ele>2733.39990234375</ele>
        <time>2021-06-27T23:33:51.000Z</time>
        <extensions>
          <ns3:TrackPointExtension>
            <ns3:atemp>34.0</ns3:atemp>
            <ns3:hr>77</ns3:hr>
          </ns3:TrackPointExtension>
        </extensions>
      </trkpt>
      <trkpt lat="36.86706282198429107666015625" lon="-118.4261723421514034271240234375">
        <ele>2732.800048828125</ele>
        <time>2021-06-27T23:33:53.000Z</time>
        <extensions>
          <ns3:TrackPointExtension>
            <ns3:atemp>34.0</ns3:atemp>
            <ns3:hr>77</ns3:hr>
          </ns3:TrackPointExtension>
        </extensions>
      </trkpt>
      <trkpt lat="36.86707028187811374664306640625" lon="-118.4261793829500675201416015625">
        <ele>2732.800048828125</ele>
        <time>2021-06-27T23:33:54.000Z</time>
        <extensions>
          <ns3:TrackPointExtension>
            <ns3:atemp>34.0</ns3:atemp>
            <ns3:hr>79</ns3:hr>
          </ns3:TrackPointExtension>
        </extensions>
      </trkpt>
      <trkpt lat="36.86708151362836360931396484375" lon="-118.4261877648532390594482421875">
        <ele>2732.39990234375</ele>
        <time>2021-06-27T23:33:56.000Z</time>
        <extensions>
          <ns3:TrackPointExtension>
            <ns3:atemp>34.0</ns3:atemp>
            <ns3:hr>78</ns3:hr>
          </ns3:TrackPointExtension>
        </extensions>
      </trkpt>
      <trkpt lat="36.867100708186626434326171875" lon="-118.42621182091534137725830078125">
        <ele>2731.39990234375</ele>
        <time>2021-06-27T23:33:59.000Z</time>
        <extensions>
          <ns3:TrackPointExtension>
            <ns3:atemp>34.0</ns3:atemp>
            <ns3:hr>78</ns3:hr>
          </ns3:TrackPointExtension>
        </extensions>
      </trkpt>
      <trkpt lat="36.86711571179330348968505859375" lon="-118.42622992582619190216064453125">
        <ele>2730.60009765625</ele>
        <time>2021-06-27T23:34:01.000Z</time>
        <extensions>
          <ns3:TrackPointExtension>
            <ns3:atemp>34.0</ns3:atemp>
            <ns3:hr>81</ns3:hr>
          </ns3:TrackPointExtension>
        </extensions>
      </trkpt>
      <trkpt lat="36.86713096685707569122314453125" lon="-118.42624316923320293426513671875">
        <ele>2729.800048828125</ele>
        <time>2021-06-27T23:34:03.000Z</time>
        <extensions>
          <ns3:TrackPointExtension>
            <ns3:atemp>34.0</ns3:atemp>
            <ns3:hr>82</ns3:hr>
          </ns3:TrackPointExtension>
        </extensions>
      </trkpt>
      <trkpt lat="36.86713901348412036895751953125" lon="-118.4262507967650890350341796875">
        <ele>2729.800048828125</ele>
        <time>2021-06-27T23:34:04.000Z</time>
        <extensions>
          <ns3:TrackPointExtension>
            <ns3:atemp>34.0</ns3:atemp>
            <ns3:hr>82</ns3:hr>
          </ns3:TrackPointExtension>
        </extensions>
      </trkpt>
      <trkpt lat="36.86716902069747447967529296875" lon="-118.42627711594104766845703125">
        <ele>2728.60009765625</ele>
        <time>2021-06-27T23:34:09.000Z</time>
        <extensions>
          <ns3:TrackPointExtension>
            <ns3:atemp>34.0</ns3:atemp>
            <ns3:hr>82</ns3:hr>
          </ns3:TrackPointExtension>
        </extensions>
      </trkpt>
      <trkpt lat="36.86716918833553791046142578125" lon="-118.42627711594104766845703125">
        <ele>2728.60009765625</ele>
        <time>2021-06-27T23:34:10.000Z</time>
        <extensions>
          <ns3:TrackPointExtension>
            <ns3:atemp>34.0</ns3:atemp>
            <ns3:hr>81</ns3:hr>
          </ns3:TrackPointExtension>
        </extensions>
      </trkpt>
      <trkpt lat="36.86716801486909389495849609375" lon="-118.42627585865557193756103515625">
        <ele>2728.39990234375</ele>
        <time>2021-06-27T23:34:11.000Z</time>
        <extensions>
          <ns3:TrackPointExtension>
            <ns3:atemp>34.0</ns3:atemp>
            <ns3:hr>81</ns3:hr>
          </ns3:TrackPointExtension>
        </extensions>
      </trkpt>
      <trkpt lat="36.86715628020465373992919921875" lon="-118.42624534852802753448486328125">
        <ele>2727.800048828125</ele>
        <time>2021-06-27T23:34:19.000Z</time>
        <extensions>
          <ns3:TrackPointExtension>
            <ns3:atemp>34.0</ns3:atemp>
            <ns3:hr>78</ns3:hr>
          </ns3:TrackPointExtension>
        </extensions>
      </trkpt>
      <trkpt lat="36.86714320443570613861083984375" lon="-118.4262427501380443572998046875">
        <ele>2727.800048828125</ele>
        <time>2021-06-27T23:34:21.000Z</time>
        <extensions>
          <ns3:TrackPointExtension>
            <ns3:atemp>34.0</ns3:atemp>
            <ns3:hr>80</ns3:hr>
          </ns3:TrackPointExtension>
        </extensions>
      </trkpt>
      <trkpt lat="36.8671484850347042083740234375" lon="-118.42625490389764308929443359375">
        <ele>2728.60009765625</ele>
        <time>2021-06-27T23:34:28.000Z</time>
        <extensions>
          <ns3:TrackPointExtension>
            <ns3:atemp>34.0</ns3:atemp>
            <ns3:hr>80</ns3:hr>
          </ns3:TrackPointExtension>
        </extensions>
      </trkpt>
      <trkpt lat="36.86719466932117938995361328125" lon="-118.42628843151032924652099609375">
        <ele>2728.39990234375</ele>
        <time>2021-06-27T23:34:33.000Z</time>
        <extensions>
          <ns3:TrackPointExtension>
            <ns3:atemp>34.0</ns3:atemp>
            <ns3:hr>79</ns3:hr>
          </ns3:TrackPointExtension>
        </extensions>
      </trkpt>
      <trkpt lat="36.86719156801700592041015625" lon="-118.42628977261483669281005859375">
        <ele>2728.199951171875</ele>
        <time>2021-06-27T23:34:43.000Z</time>
        <extensions>
          <ns3:TrackPointExtension>
            <ns3:atemp>34.0</ns3:atemp>
            <ns3:hr>76</ns3:hr>
          </ns3:TrackPointExtension>
        </extensions>
      </trkpt>
      <trkpt lat="36.86719156801700592041015625" lon="-118.42628977261483669281005859375">
        <ele>2728.199951171875</ele>
        <time>2021-06-27T23:34:45.000Z</time>
        <extensions>
          <ns3:TrackPointExtension>
            <ns3:atemp>34.0</ns3:atemp>
            <ns3:hr>75</ns3:hr>
          </ns3:TrackPointExtension>
        </extensions>
      </trkpt>
      <trkpt lat="36.86719466932117938995361328125" lon="-118.42627577483654022216796875">
        <ele>2728.39990234375</ele>
        <time>2021-06-27T23:34:52.000Z</time>
        <extensions>
          <ns3:TrackPointExtension>
            <ns3:atemp>34.0</ns3:atemp>
            <ns3:hr>79</ns3:hr>
          </ns3:TrackPointExtension>
        </extensions>
      </trkpt>
      <trkpt lat="36.86719466932117938995361328125" lon="-118.42627451755106449127197265625">
        <ele>2728.39990234375</ele>
        <time>2021-06-27T23:34:53.000Z</time>
        <extensions>
          <ns3:TrackPointExtension>
            <ns3:atemp>34.0</ns3:atemp>
            <ns3:hr>76</ns3:hr>
          </ns3:TrackPointExtension>
        </extensions>
      </trkpt>
      <trkpt lat="36.86719617806375026702880859375" lon="-118.42624819837510585784912109375">
        <ele>2728.39990234375</ele>
        <time>2021-06-27T23:35:11.000Z</time>
        <extensions>
          <ns3:TrackPointExtension>
            <ns3:atemp>34.0</ns3:atemp>
            <ns3:hr>73</ns3:hr>
          </ns3:TrackPointExtension>
        </extensions>
      </trkpt>
      <trkpt lat="36.86719483695924282073974609375" lon="-118.42624819837510585784912109375">
        <ele>2728.39990234375</ele>
        <time>2021-06-27T23:35:15.000Z</time>
        <extensions>
          <ns3:TrackPointExtension>
            <ns3:atemp>34.0</ns3:atemp>
            <ns3:hr>70</ns3:hr>
          </ns3:TrackPointExtension>
        </extensions>
      </trkpt>
      <trkpt lat="36.86719425022602081298828125" lon="-118.42624819837510585784912109375">
        <ele>2728.39990234375</ele>
        <time>2021-06-27T23:35:16.000Z</time>
        <extensions>
          <ns3:TrackPointExtension>
            <ns3:atemp>34.0</ns3:atemp>
            <ns3:hr>73</ns3:hr>
          </ns3:TrackPointExtension>
        </extensions>
      </trkpt>
      <trkpt lat="36.8671937473118305206298828125" lon="-118.42624895274639129638671875">
        <ele>2728.39990234375</ele>
        <time>2021-06-27T23:35:17.000Z</time>
        <extensions>
          <ns3:TrackPointExtension>
            <ns3:atemp>34.0</ns3:atemp>
            <ns3:hr>70</ns3:hr>
          </ns3:TrackPointExtension>
        </extensions>
      </trkpt>
      <trkpt lat="36.86719316057860851287841796875" lon="-118.42624962329864501953125">
        <ele>2728.39990234375</ele>
        <time>2021-06-27T23:35:18.000Z</time>
        <extensions>
          <ns3:TrackPointExtension>
            <ns3:atemp>34.0</ns3:atemp>
            <ns3:hr>74</ns3:hr>
          </ns3:TrackPointExtension>
        </extensions>
      </trkpt>
      <trkpt lat="36.86719399876892566680908203125" lon="-118.42625138349831104278564453125">
        <ele>2728.800048828125</ele>
        <time>2021-06-27T23:35:21.000Z</time>
        <extensions>
          <ns3:TrackPointExtension>
            <ns3:atemp>34.0</ns3:atemp>
            <ns3:hr>77</ns3:hr>
          </ns3:TrackPointExtension>
        </extensions>
      </trkpt>
      <trkpt lat="36.86721160076558589935302734375" lon="-118.42626948840916156768798828125">
        <ele>2729.60009765625</ele>
        <time>2021-06-27T23:35:25.000Z</time>
        <extensions>
          <ns3:TrackPointExtension>
            <ns3:atemp>34.0</ns3:atemp>
            <ns3:hr>77</ns3:hr>
          </ns3:TrackPointExtension>
        </extensions>
      </trkpt>
      <trkpt lat="36.86725233681499958038330078125" lon="-118.42629413120448589324951171875">
        <ele>2729.60009765625</ele>
        <time>2021-06-27T23:35:28.000Z</time>
        <extensions>
          <ns3:TrackPointExtension>
            <ns3:atemp>34.0</ns3:atemp>
            <ns3:hr>75</ns3:hr>
          </ns3:TrackPointExtension>
        </extensions>
      </trkpt>
      <trkpt lat="36.8672711960971355438232421875" lon="-118.42630871571600437164306640625">
        <ele>2729.800048828125</ele>
        <time>2021-06-27T23:35:30.000Z</time>
        <extensions>
          <ns3:TrackPointExtension>
            <ns3:atemp>34.0</ns3:atemp>
            <ns3:hr>72</ns3:hr>
          </ns3:TrackPointExtension>
        </extensions>
      </trkpt>
      <trkpt lat="36.867304556071758270263671875" lon="-118.42633788473904132843017578125">
        <ele>2729.60009765625</ele>
        <time>2021-06-27T23:35:33.000Z</time>
        <extensions>
          <ns3:TrackPointExtension>
            <ns3:atemp>33.0</ns3:atemp>
            <ns3:hr>75</ns3:hr>
          </ns3:TrackPointExtension>
        </extensions>
      </trkpt>
      <trkpt lat="36.8673129379749298095703125" lon="-118.426341153681278228759765625">
        <ele>2729.800048828125</ele>
        <time>2021-06-27T23:35:34.000Z</time>
        <extensions>
          <ns3:TrackPointExtension>
            <ns3:atemp>34.0</ns3:atemp>
            <ns3:hr>74</ns3:hr>
          </ns3:TrackPointExtension>
        </extensions>
      </trkpt>
      <trkpt lat="36.86736348085105419158935546875" lon="-118.4263835661113262176513671875">
        <ele>2729</ele>
        <time>2021-06-27T23:35:39.000Z</time>
        <extensions>
          <ns3:TrackPointExtension>
            <ns3:atemp>33.0</ns3:atemp>
            <ns3:hr>76</ns3:hr>
          </ns3:TrackPointExtension>
        </extensions>
      </trkpt>
      <trkpt lat="36.86737555079162120819091796875" lon="-118.42639521695673465728759765625">
        <ele>2729</ele>
        <time>2021-06-27T23:35:41.000Z</time>
        <extensions>
          <ns3:TrackPointExtension>
            <ns3:atemp>33.0</ns3:atemp>
            <ns3:hr>76</ns3:hr>
          </ns3:TrackPointExtension>
        </extensions>
      </trkpt>
      <trkpt lat="36.8673885427415370941162109375" lon="-118.4264184348285198211669921875">
        <ele>2729.39990234375</ele>
        <time>2021-06-27T23:35:44.000Z</time>
        <extensions>
          <ns3:TrackPointExtension>
            <ns3:atemp>33.0</ns3:atemp>
            <ns3:hr>75</ns3:hr>
          </ns3:TrackPointExtension>
        </extensions>
      </trkpt>
      <trkpt lat="36.86739382334053516387939453125" lon="-118.4264331869781017303466796875">
        <ele>2729.39990234375</ele>
        <time>2021-06-27T23:35:45.000Z</time>
        <extensions>
          <ns3:TrackPointExtension>
            <ns3:atemp>33.0</ns3:atemp>
            <ns3:hr>73</ns3:hr>
          </ns3:TrackPointExtension>
        </extensions>
      </trkpt>
      <trkpt lat="36.86740723438560962677001953125" lon="-118.42649345286190509796142578125">
        <ele>2729.60009765625</ele>
        <time>2021-06-27T23:35:50.000Z</time>
        <extensions>
          <ns3:TrackPointExtension>
            <ns3:atemp>33.0</ns3:atemp>
            <ns3:hr>75</ns3:hr>
          </ns3:TrackPointExtension>
        </extensions>
      </trkpt>
      <trkpt lat="36.86743036843836307525634765625" lon="-118.42658691108226776123046875">
        <ele>2730</ele>
        <time>2021-06-27T23:35:57.000Z</time>
        <extensions>
          <ns3:TrackPointExtension>
            <ns3:atemp>33.0</ns3:atemp>
            <ns3:hr>77</ns3:hr>
          </ns3:TrackPointExtension>
        </extensions>
      </trkpt>
      <trkpt lat="36.86751385219395160675048828125" lon="-118.42664667405188083648681640625">
        <ele>2730.39990234375</ele>
        <time>2021-06-27T23:36:05.000Z</time>
        <extensions>
          <ns3:TrackPointExtension>
            <ns3:atemp>33.0</ns3:atemp>
            <ns3:hr>77</ns3:hr>
          </ns3:TrackPointExtension>
        </extensions>
      </trkpt>
      <trkpt lat="36.867525167763233184814453125" lon="-118.42665522359311580657958984375">
        <ele>2730.39990234375</ele>
        <time>2021-06-27T23:36:07.000Z</time>
        <extensions>
          <ns3:TrackPointExtension>
            <ns3:atemp>33.0</ns3:atemp>
            <ns3:hr>79</ns3:hr>
          </ns3:TrackPointExtension>
        </extensions>
      </trkpt>
      <trkpt lat="36.86754067428410053253173828125" lon="-118.42667500488460063934326171875">
        <ele>2730.60009765625</ele>
        <time>2021-06-27T23:36:09.000Z</time>
        <extensions>
          <ns3:TrackPointExtension>
            <ns3:atemp>33.0</ns3:atemp>
            <ns3:hr>81</ns3:hr>
          </ns3:TrackPointExtension>
        </extensions>
      </trkpt>
      <trkpt lat="36.8675545044243335723876953125" lon="-118.42669746838510036468505859375">
        <ele>2730.60009765625</ele>
        <time>2021-06-27T23:36:11.000Z</time>
        <extensions>
          <ns3:TrackPointExtension>
            <ns3:atemp>33.0</ns3:atemp>
            <ns3:hr>83</ns3:hr>
          </ns3:TrackPointExtension>
        </extensions>
      </trkpt>
      <trkpt lat="36.86758576892316341400146484375" lon="-118.42673200182616710662841796875">
        <ele>2730.800048828125</ele>
        <time>2021-06-27T23:36:14.000Z</time>
        <extensions>
          <ns3:TrackPointExtension>
            <ns3:atemp>33.0</ns3:atemp>
            <ns3:hr>84</ns3:hr>
          </ns3:TrackPointExtension>
        </extensions>
      </trkpt>
      <trkpt lat="36.86760219745337963104248046875" lon="-118.4267577342689037322998046875">
        <ele>2730.800048828125</ele>
        <time>2021-06-27T23:36:16.000Z</time>
        <extensions>
          <ns3:TrackPointExtension>
            <ns3:atemp>33.0</ns3:atemp>
            <ns3:hr>87</ns3:hr>
          </ns3:TrackPointExtension>
        </extensions>
      </trkpt>
      <trkpt lat="36.8676091544330120086669921875" lon="-118.426762931048870086669921875">
        <ele>2730.800048828125</ele>
        <time>2021-06-27T23:36:17.000Z</time>
        <extensions>
          <ns3:TrackPointExtension>
            <ns3:atemp>33.0</ns3:atemp>
            <ns3:hr>85</ns3:hr>
          </ns3:TrackPointExtension>
        </extensions>
      </trkpt>
      <trkpt lat="36.8676401674747467041015625" lon="-118.4267798624932765960693359375">
        <ele>2730.800048828125</ele>
        <time>2021-06-27T23:36:19.000Z</time>
        <extensions>
          <ns3:TrackPointExtension>
            <ns3:atemp>33.0</ns3:atemp>
            <ns3:hr>85</ns3:hr>
          </ns3:TrackPointExtension>
        </extensions>
      </trkpt>
      <trkpt lat="36.867674030363559722900390625" lon="-118.42681598849594593048095703125">
        <ele>2731.199951171875</ele>
        <time>2021-06-27T23:36:24.000Z</time>
        <extensions>
          <ns3:TrackPointExtension>
            <ns3:atemp>33.0</ns3:atemp>
            <ns3:hr>85</ns3:hr>
          </ns3:TrackPointExtension>
        </extensions>
      </trkpt>
      <trkpt lat="36.86769087798893451690673828125" lon="-118.4268170781433582305908203125">
        <ele>2731.39990234375</ele>
        <time>2021-06-27T23:36:26.000Z</time>
        <extensions>
          <ns3:TrackPointExtension>
            <ns3:atemp>33.0</ns3:atemp>
            <ns3:hr>84</ns3:hr>
          </ns3:TrackPointExtension>
        </extensions>
      </trkpt>
      <trkpt lat="36.8677348829805850982666015625" lon="-118.42682068236172199249267578125">
        <ele>2731.199951171875</ele>
        <time>2021-06-27T23:36:30.000Z</time>
        <extensions>
          <ns3:TrackPointExtension>
            <ns3:atemp>33.0</ns3:atemp>
            <ns3:hr>88</ns3:hr>
          </ns3:TrackPointExtension>
        </extensions>
      </trkpt>
      <trkpt lat="36.86782180331647396087646484375" lon="-118.42682789079844951629638671875">
        <ele>2730.39990234375</ele>
        <time>2021-06-27T23:36:35.000Z</time>
        <extensions>
          <ns3:TrackPointExtension>
            <ns3:atemp>33.0</ns3:atemp>
            <ns3:hr>86</ns3:hr>
          </ns3:TrackPointExtension>
        </extensions>
      </trkpt>
      <trkpt lat="36.8679052032530307769775390625" lon="-118.4268261305987834930419921875">
        <ele>2730.199951171875</ele>
        <time>2021-06-27T23:36:43.000Z</time>
        <extensions>
          <ns3:TrackPointExtension>
            <ns3:atemp>33.0</ns3:atemp>
            <ns3:hr>84</ns3:hr>
          </ns3:TrackPointExtension>
        </extensions>
      </trkpt>
      <trkpt lat="36.86791568063199520111083984375" lon="-118.42683501541614532470703125">
        <ele>2729.39990234375</ele>
        <time>2021-06-27T23:36:45.000Z</time>
        <extensions>
          <ns3:TrackPointExtension>
            <ns3:atemp>33.0</ns3:atemp>
            <ns3:hr>84</ns3:hr>
          </ns3:TrackPointExtension>
        </extensions>
      </trkpt>
      <trkpt lat="36.86796077527105808258056640625" lon="-118.42684348113834857940673828125">
        <ele>2728.60009765625</ele>
        <time>2021-06-27T23:36:50.000Z</time>
        <extensions>
          <ns3:TrackPointExtension>
            <ns3:atemp>33.0</ns3:atemp>
            <ns3:hr>83</ns3:hr>
          </ns3:TrackPointExtension>
        </extensions>
      </trkpt>
      <trkpt lat="36.8679752759635448455810546875" lon="-118.426838032901287078857421875">
        <ele>2728.39990234375</ele>
        <time>2021-06-27T23:36:51.000Z</time>
        <extensions>
          <ns3:TrackPointExtension>
            <ns3:atemp>33.0</ns3:atemp>
            <ns3:hr>83</ns3:hr>
          </ns3:TrackPointExtension>
        </extensions>
      </trkpt>
      <trkpt lat="36.86798139475286006927490234375" lon="-118.42682956717908382415771484375">
        <ele>2728</ele>
        <time>2021-06-27T23:36:52.000Z</time>
        <extensions>
          <ns3:TrackPointExtension>
            <ns3:atemp>33.0</ns3:atemp>
            <ns3:hr>83</ns3:hr>
          </ns3:TrackPointExtension>
        </extensions>
      </trkpt>
      <trkpt lat="36.86802062205970287322998046875" lon="-118.4268335066735744476318359375">
        <ele>2726.60009765625</ele>
        <time>2021-06-27T23:36:56.000Z</time>
        <extensions>
          <ns3:TrackPointExtension>
            <ns3:atemp>33.0</ns3:atemp>
            <ns3:hr>82</ns3:hr>
          </ns3:TrackPointExtension>
        </extensions>
      </trkpt>
      <trkpt lat="36.8680292554199695587158203125" lon="-118.4268358536064624786376953125">
        <ele>2726.60009765625</ele>
        <time>2021-06-27T23:36:57.000Z</time>
        <extensions>
          <ns3:TrackPointExtension>
            <ns3:atemp>33.0</ns3:atemp>
            <ns3:hr>82</ns3:hr>
          </ns3:TrackPointExtension>
        </extensions>
      </trkpt>
      <trkpt lat="36.86809991486370563507080078125" lon="-118.42685940675437450408935546875">
        <ele>2725.800048828125</ele>
        <time>2021-06-27T23:37:05.000Z</time>
        <extensions>
          <ns3:TrackPointExtension>
            <ns3:atemp>33.0</ns3:atemp>
            <ns3:hr>81</ns3:hr>
          </ns3:TrackPointExtension>
        </extensions>
      </trkpt>
      <trkpt lat="36.8681305088102817535400390625" lon="-118.42687533237040042877197265625">
        <ele>2725.60009765625</ele>
        <time>2021-06-27T23:37:08.000Z</time>
        <extensions>
          <ns3:TrackPointExtension>
            <ns3:atemp>33.0</ns3:atemp>
            <ns3:hr>81</ns3:hr>
          </ns3:TrackPointExtension>
        </extensions>
      </trkpt>
      <trkpt lat="36.86817971058189868927001953125" lon="-118.4268968738615512847900390625">
        <ele>2725.199951171875</ele>
        <time>2021-06-27T23:37:13.000Z</time>
        <extensions>
          <ns3:TrackPointExtension>
            <ns3:atemp>33.0</ns3:atemp>
            <ns3:hr>81</ns3:hr>
          </ns3:TrackPointExtension>
        </extensions>
      </trkpt>
      <trkpt lat="36.86827811412513256072998046875" lon="-118.42693702317774295806884765625">
        <ele>2724.800048828125</ele>
        <time>2021-06-27T23:37:23.000Z</time>
        <extensions>
          <ns3:TrackPointExtension>
            <ns3:atemp>33.0</ns3:atemp>
            <ns3:hr>79</ns3:hr>
          </ns3:TrackPointExtension>
        </extensions>
      </trkpt>
      <trkpt lat="36.8683021701872348785400390625" lon="-118.4269371069967746734619140625">
        <ele>2724.800048828125</ele>
        <time>2021-06-27T23:37:25.000Z</time>
        <extensions>
          <ns3:TrackPointExtension>
            <ns3:atemp>33.0</ns3:atemp>
            <ns3:hr>79</ns3:hr>
          </ns3:TrackPointExtension>
        </extensions>
      </trkpt>
      <trkpt lat="36.8683343566954135894775390625" lon="-118.42691791243851184844970703125">
        <ele>2724</ele>
        <time>2021-06-27T23:37:28.000Z</time>
        <extensions>
          <ns3:TrackPointExtension>
            <ns3:atemp>33.0</ns3:atemp>
            <ns3:hr>77</ns3:hr>
          </ns3:TrackPointExtension>
        </extensions>
      </trkpt>
      <trkpt lat="36.86834416352212429046630859375" lon="-118.4268948622047901153564453125">
        <ele>2723.800048828125</ele>
        <time>2021-06-27T23:37:30.000Z</time>
        <extensions>
          <ns3:TrackPointExtension>
            <ns3:atemp>33.0</ns3:atemp>
            <ns3:hr>78</ns3:hr>
          </ns3:TrackPointExtension>
        </extensions>
      </trkpt>
      <trkpt lat="36.8683705665171146392822265625" lon="-118.4268732368946075439453125">
        <ele>2723.800048828125</ele>
        <time>2021-06-27T23:37:33.000Z</time>
        <extensions>
          <ns3:TrackPointExtension>
            <ns3:atemp>33.0</ns3:atemp>
            <ns3:hr>82</ns3:hr>
          </ns3:TrackPointExtension>
        </extensions>
      </trkpt>
      <trkpt lat="36.86837802641093730926513671875" lon="-118.4268646873533725738525390625">
        <ele>2723.800048828125</ele>
        <time>2021-06-27T23:37:34.000Z</time>
        <extensions>
          <ns3:TrackPointExtension>
            <ns3:atemp>33.0</ns3:atemp>
            <ns3:hr>79</ns3:hr>
          </ns3:TrackPointExtension>
        </extensions>
      </trkpt>
      <trkpt lat="36.86842043884098529815673828125" lon="-118.42685219831764698028564453125">
        <ele>2722.800048828125</ele>
        <time>2021-06-27T23:37:39.000Z</time>
        <extensions>
          <ns3:TrackPointExtension>
            <ns3:atemp>33.0</ns3:atemp>
            <ns3:hr>77</ns3:hr>
          </ns3:TrackPointExtension>
        </extensions>
      </trkpt>
      <trkpt lat="36.8684309162199497222900390625" lon="-118.42684884555637836456298828125">
        <ele>2722.60009765625</ele>
        <time>2021-06-27T23:37:42.000Z</time>
        <extensions>
          <ns3:TrackPointExtension>
            <ns3:atemp>33.0</ns3:atemp>
            <ns3:hr>77</ns3:hr>
          </ns3:TrackPointExtension>
        </extensions>
      </trkpt>
      <trkpt lat="36.86842848546802997589111328125" lon="-118.42685571871697902679443359375">
        <ele>2722.199951171875</ele>
        <time>2021-06-27T23:37:44.000Z</time>
        <extensions>
          <ns3:TrackPointExtension>
            <ns3:atemp>33.0</ns3:atemp>
            <ns3:hr>77</ns3:hr>
          </ns3:TrackPointExtension>
        </extensions>
      </trkpt>
      <trkpt lat="36.86841960065066814422607421875" lon="-118.42685521580278873443603515625">
        <ele>2721.800048828125</ele>
        <time>2021-06-27T23:37:45.000Z</time>
        <extensions>
          <ns3:TrackPointExtension>
            <ns3:atemp>33.0</ns3:atemp>
            <ns3:hr>77</ns3:hr>
          </ns3:TrackPointExtension>
        </extensions>
      </trkpt>
      <trkpt lat="36.868424378335475921630859375" lon="-118.4268931858241558074951171875">
        <ele>2720.60009765625</ele>
        <time>2021-06-27T23:37:50.000Z</time>
        <extensions>
          <ns3:TrackPointExtension>
            <ns3:atemp>33.0</ns3:atemp>
            <ns3:hr>75</ns3:hr>
          </ns3:TrackPointExtension>
        </extensions>
      </trkpt>
      <trkpt lat="36.86842563562095165252685546875" lon="-118.426906764507293701171875">
        <ele>2720</ele>
        <time>2021-06-27T23:37:51.000Z</time>
        <extensions>
          <ns3:TrackPointExtension>
            <ns3:atemp>33.0</ns3:atemp>
            <ns3:hr>75</ns3:hr>
          </ns3:TrackPointExtension>
        </extensions>
      </trkpt>
      <trkpt lat="36.86843887902796268463134765625" lon="-118.42696082778275012969970703125">
        <ele>2719</ele>
        <time>2021-06-27T23:37:57.000Z</time>
        <extensions>
          <ns3:TrackPointExtension>
            <ns3:atemp>33.0</ns3:atemp>
            <ns3:hr>74</ns3:hr>
          </ns3:TrackPointExtension>
        </extensions>
      </trkpt>
      <trkpt lat="36.868467293679714202880859375" lon="-118.426974155008792877197265625">
        <ele>2718.60009765625</ele>
        <time>2021-06-27T23:38:01.000Z</time>
        <extensions>
          <ns3:TrackPointExtension>
            <ns3:atemp>33.0</ns3:atemp>
            <ns3:hr>76</ns3:hr>
          </ns3:TrackPointExtension>
        </extensions>
      </trkpt>
      <trkpt lat="36.86850224621593952178955078125" lon="-118.426956050097942352294921875">
        <ele>2717.60009765625</ele>
        <time>2021-06-27T23:38:04.000Z</time>
        <extensions>
          <ns3:TrackPointExtension>
            <ns3:atemp>33.0</ns3:atemp>
            <ns3:hr>73</ns3:hr>
          </ns3:TrackPointExtension>
        </extensions>
      </trkpt>
      <trkpt lat="36.868532337248325347900390625" lon="-118.4269241988658905029296875">
        <ele>2717</ele>
        <time>2021-06-27T23:38:07.000Z</time>
        <extensions>
          <ns3:TrackPointExtension>
            <ns3:atemp>33.0</ns3:atemp>
            <ns3:hr>73</ns3:hr>
          </ns3:TrackPointExtension>
        </extensions>
      </trkpt>
      <trkpt lat="36.86854331754148006439208984375" lon="-118.4269263781607151031494140625">
        <ele>2716.60009765625</ele>
        <time>2021-06-27T23:38:08.000Z</time>
        <extensions>
          <ns3:TrackPointExtension>
            <ns3:atemp>33.0</ns3:atemp>
            <ns3:hr>72</ns3:hr>
          </ns3:TrackPointExtension>
        </extensions>
      </trkpt>
      <trkpt lat="36.86856259591877460479736328125" lon="-118.42694188468158245086669921875">
        <ele>2716</ele>
        <time>2021-06-27T23:38:10.000Z</time>
        <extensions>
          <ns3:TrackPointExtension>
            <ns3:atemp>33.0</ns3:atemp>
            <ns3:hr>72</ns3:hr>
          </ns3:TrackPointExtension>
        </extensions>
      </trkpt>
      <trkpt lat="36.86857047490775585174560546875" lon="-118.4269572235643863677978515625">
        <ele>2716</ele>
        <time>2021-06-27T23:38:12.000Z</time>
        <extensions>
          <ns3:TrackPointExtension>
            <ns3:atemp>33.0</ns3:atemp>
            <ns3:hr>75</ns3:hr>
          </ns3:TrackPointExtension>
        </extensions>
      </trkpt>
      <trkpt lat="36.8685757555067539215087890625" lon="-118.426960408687591552734375">
        <ele>2715.800048828125</ele>
        <time>2021-06-27T23:38:13.000Z</time>
        <extensions>
          <ns3:TrackPointExtension>
            <ns3:atemp>33.0</ns3:atemp>
            <ns3:hr>71</ns3:hr>
          </ns3:TrackPointExtension>
        </extensions>
      </trkpt>
      <trkpt lat="36.868596039712429046630859375" lon="-118.42697792686522006988525390625">
        <ele>2716</ele>
        <time>2021-06-27T23:38:15.000Z</time>
        <extensions>
          <ns3:TrackPointExtension>
            <ns3:atemp>33.0</ns3:atemp>
            <ns3:hr>70</ns3:hr>
          </ns3:TrackPointExtension>
        </extensions>
      </trkpt>
      <trkpt lat="36.86865060590207576751708984375" lon="-118.42704045586287975311279296875">
        <ele>2715.60009765625</ele>
        <time>2021-06-27T23:38:23.000Z</time>
        <extensions>
          <ns3:TrackPointExtension>
            <ns3:atemp>33.0</ns3:atemp>
            <ns3:hr>69</ns3:hr>
          </ns3:TrackPointExtension>
        </extensions>
      </trkpt>
      <trkpt lat="36.86867005191743373870849609375" lon="-118.42704934068024158477783203125">
        <ele>2715.199951171875</ele>
        <time>2021-06-27T23:38:25.000Z</time>
        <extensions>
          <ns3:TrackPointExtension>
            <ns3:atemp>33.0</ns3:atemp>
            <ns3:hr>68</ns3:hr>
          </ns3:TrackPointExtension>
        </extensions>
      </trkpt>
      <trkpt lat="36.8687155656516551971435546875" lon="-118.42708311975002288818359375">
        <ele>2714.800048828125</ele>
        <time>2021-06-27T23:38:31.000Z</time>
        <extensions>
          <ns3:TrackPointExtension>
            <ns3:atemp>33.0</ns3:atemp>
            <ns3:hr>71</ns3:hr>
          </ns3:TrackPointExtension>
        </extensions>
      </trkpt>
      <trkpt lat="36.86874012462794780731201171875" lon="-118.42709518969058990478515625">
        <ele>2714.199951171875</ele>
        <time>2021-06-27T23:38:34.000Z</time>
        <extensions>
          <ns3:TrackPointExtension>
            <ns3:atemp>33.0</ns3:atemp>
            <ns3:hr>69</ns3:hr>
          </ns3:TrackPointExtension>
        </extensions>
      </trkpt>
      <trkpt lat="36.86877273023128509521484375" lon="-118.42710197903215885162353515625">
        <ele>2713.39990234375</ele>
        <time>2021-06-27T23:38:38.000Z</time>
        <extensions>
          <ns3:TrackPointExtension>
            <ns3:atemp>33.0</ns3:atemp>
            <ns3:hr>72</ns3:hr>
          </ns3:TrackPointExtension>
        </extensions>
      </trkpt>
      <trkpt lat="36.868791170418262481689453125" lon="-118.42710231430828571319580078125">
        <ele>2713.199951171875</ele>
        <time>2021-06-27T23:38:40.000Z</time>
        <extensions>
          <ns3:TrackPointExtension>
            <ns3:atemp>33.0</ns3:atemp>
            <ns3:hr>72</ns3:hr>
          </ns3:TrackPointExtension>
        </extensions>
      </trkpt>
      <trkpt lat="36.86884020455181598663330078125" lon="-118.427113629877567291259765625">
        <ele>2712.60009765625</ele>
        <time>2021-06-27T23:38:45.000Z</time>
        <extensions>
          <ns3:TrackPointExtension>
            <ns3:atemp>33.0</ns3:atemp>
            <ns3:hr>73</ns3:hr>
          </ns3:TrackPointExtension>
        </extensions>
      </trkpt>
      <trkpt lat="36.86886526644229888916015625" lon="-118.4271282143890857696533203125">
        <ele>2712.199951171875</ele>
        <time>2021-06-27T23:38:48.000Z</time>
        <extensions>
          <ns3:TrackPointExtension>
            <ns3:atemp>33.0</ns3:atemp>
            <ns3:hr>73</ns3:hr>
          </ns3:TrackPointExtension>
        </extensions>
      </trkpt>
      <trkpt lat="36.86887423507869243621826171875" lon="-118.42713952995836734771728515625">
        <ele>2711.800048828125</ele>
        <time>2021-06-27T23:38:52.000Z</time>
        <extensions>
          <ns3:TrackPointExtension>
            <ns3:atemp>33.0</ns3:atemp>
            <ns3:hr>72</ns3:hr>
          </ns3:TrackPointExtension>
        </extensions>
      </trkpt>
      <trkpt lat="36.8688525259494781494140625" lon="-118.42714539729058742523193359375">
        <ele>2711.60009765625</ele>
        <time>2021-06-27T23:39:01.000Z</time>
        <extensions>
          <ns3:TrackPointExtension>
            <ns3:atemp>33.0</ns3:atemp>
            <ns3:hr>73</ns3:hr>
          </ns3:TrackPointExtension>
        </extensions>
      </trkpt>
      <trkpt lat="36.868858896195888519287109375" lon="-118.42714154161512851715087890625">
        <ele>2711.199951171875</ele>
        <time>2021-06-27T23:39:06.000Z</time>
        <extensions>
          <ns3:TrackPointExtension>
            <ns3:atemp>33.0</ns3:atemp>
            <ns3:hr>72</ns3:hr>
          </ns3:TrackPointExtension>
        </extensions>
      </trkpt>
      <trkpt lat="36.868858896195888519287109375" lon="-118.42714154161512851715087890625">
        <ele>2710.39990234375</ele>
        <time>2021-06-27T23:39:19.000Z</time>
        <extensions>
          <ns3:TrackPointExtension>
            <ns3:atemp>33.0</ns3:atemp>
            <ns3:hr>75</ns3:hr>
          </ns3:TrackPointExtension>
        </extensions>
      </trkpt>
      <trkpt lat="36.8689036555588245391845703125" lon="-118.42713315971195697784423828125">
        <ele>2710.39990234375</ele>
        <time>2021-06-27T23:39:38.000Z</time>
        <extensions>
          <ns3:TrackPointExtension>
            <ns3:atemp>33.0</ns3:atemp>
            <ns3:hr>74</ns3:hr>
          </ns3:TrackPointExtension>
        </extensions>
      </trkpt>
      <trkpt lat="36.86890457756817340850830078125" lon="-118.42713181860744953155517578125">
        <ele>2710</ele>
        <time>2021-06-27T23:39:43.000Z</time>
        <extensions>
          <ns3:TrackPointExtension>
            <ns3:atemp>33.0</ns3:atemp>
            <ns3:hr>73</ns3:hr>
          </ns3:TrackPointExtension>
        </extensions>
      </trkpt>
      <trkpt lat="36.86890457756817340850830078125" lon="-118.42712494544684886932373046875">
        <ele>2710</ele>
        <time>2021-06-27T23:39:46.000Z</time>
        <extensions>
          <ns3:TrackPointExtension>
            <ns3:atemp>33.0</ns3:atemp>
            <ns3:hr>76</ns3:hr>
          </ns3:TrackPointExtension>
        </extensions>
      </trkpt>
      <trkpt lat="36.8688811920583248138427734375" lon="-118.4270958602428436279296875">
        <ele>2709</ele>
        <time>2021-06-27T23:40:15.000Z</time>
        <extensions>
          <ns3:TrackPointExtension>
            <ns3:atemp>33.0</ns3:atemp>
            <ns3:hr>76</ns3:hr>
          </ns3:TrackPointExtension>
        </extensions>
      </trkpt>
      <trkpt lat="36.8688811920583248138427734375" lon="-118.427094519138336181640625">
        <ele>2707.800048828125</ele>
        <time>2021-06-27T23:40:19.000Z</time>
        <extensions>
          <ns3:TrackPointExtension>
            <ns3:atemp>33.0</ns3:atemp>
            <ns3:hr>77</ns3:hr>
          </ns3:TrackPointExtension>
        </extensions>
      </trkpt>
      <trkpt lat="36.868945062160491943359375" lon="-118.42709141783416271209716796875">
        <ele>2707.800048828125</ele>
        <time>2021-06-27T23:40:30.000Z</time>
        <extensions>
          <ns3:TrackPointExtension>
            <ns3:atemp>33.0</ns3:atemp>
            <ns3:hr>73</ns3:hr>
          </ns3:TrackPointExtension>
        </extensions>
      </trkpt>
      <trkpt lat="36.86898906715214252471923828125" lon="-118.42707775533199310302734375">
        <ele>2707.60009765625</ele>
        <time>2021-06-27T23:40:39.000Z</time>
        <extensions>
          <ns3:TrackPointExtension>
            <ns3:atemp>33.0</ns3:atemp>
            <ns3:hr>74</ns3:hr>
          </ns3:TrackPointExtension>
        </extensions>
      </trkpt>
      <trkpt lat="36.86899459920823574066162109375" lon="-118.42708186246454715728759765625">
        <ele>2707.39990234375</ele>
        <time>2021-06-27T23:40:41.000Z</time>
        <extensions>
          <ns3:TrackPointExtension>
            <ns3:atemp>33.0</ns3:atemp>
            <ns3:hr>71</ns3:hr>
          </ns3:TrackPointExtension>
        </extensions>
      </trkpt>
      <trkpt lat="36.86900901608169078826904296875" lon="-118.4271020628511905670166015625">
        <ele>2707.39990234375</ele>
        <time>2021-06-27T23:40:43.000Z</time>
        <extensions>
          <ns3:TrackPointExtension>
            <ns3:atemp>33.0</ns3:atemp>
            <ns3:hr>74</ns3:hr>
          </ns3:TrackPointExtension>
        </extensions>
      </trkpt>
      <trkpt lat="36.86902326531708240509033203125" lon="-118.42712645418941974639892578125">
        <ele>2706.800048828125</ele>
        <time>2021-06-27T23:40:45.000Z</time>
        <extensions>
          <ns3:TrackPointExtension>
            <ns3:atemp>33.0</ns3:atemp>
            <ns3:hr>74</ns3:hr>
          </ns3:TrackPointExtension>
        </extensions>
      </trkpt>
      <trkpt lat="36.869031898677349090576171875" lon="-118.42713818885385990142822265625">
        <ele>2706.800048828125</ele>
        <time>2021-06-27T23:40:46.000Z</time>
        <extensions>
          <ns3:TrackPointExtension>
            <ns3:atemp>33.0</ns3:atemp>
            <ns3:hr>74</ns3:hr>
          </ns3:TrackPointExtension>
        </extensions>
      </trkpt>
      <trkpt lat="36.869100965559482574462890625" lon="-118.4271506778895854949951171875">
        <ele>2706.199951171875</ele>
        <time>2021-06-27T23:40:52.000Z</time>
        <extensions>
          <ns3:TrackPointExtension>
            <ns3:atemp>33.0</ns3:atemp>
            <ns3:hr>77</ns3:hr>
          </ns3:TrackPointExtension>
        </extensions>
      </trkpt>
      <trkpt lat="36.86910892836749553680419921875" lon="-118.4271406196057796478271484375">
        <ele>2706.199951171875</ele>
        <time>2021-06-27T23:40:53.000Z</time>
        <extensions>
          <ns3:TrackPointExtension>
            <ns3:atemp>33.0</ns3:atemp>
            <ns3:hr>75</ns3:hr>
          </ns3:TrackPointExtension>
        </extensions>
      </trkpt>
      <trkpt lat="36.86912787146866321563720703125" lon="-118.4271265380084514617919921875">
        <ele>2706.199951171875</ele>
        <time>2021-06-27T23:40:56.000Z</time>
        <extensions>
          <ns3:TrackPointExtension>
            <ns3:atemp>33.0</ns3:atemp>
            <ns3:hr>72</ns3:hr>
          </ns3:TrackPointExtension>
        </extensions>
      </trkpt>
      <trkpt lat="36.86914379708468914031982421875" lon="-118.427145816385746002197265625">
        <ele>2706.39990234375</ele>
        <time>2021-06-27T23:40:59.000Z</time>
        <extensions>
          <ns3:TrackPointExtension>
            <ns3:atemp>32.0</ns3:atemp>
            <ns3:hr>74</ns3:hr>
          </ns3:TrackPointExtension>
        </extensions>
      </trkpt>
      <trkpt lat="36.869177408516407012939453125" lon="-118.4271640889346599578857421875">
        <ele>2706.199951171875</ele>
        <time>2021-06-27T23:41:03.000Z</time>
        <extensions>
          <ns3:TrackPointExtension>
            <ns3:atemp>32.0</ns3:atemp>
            <ns3:hr>74</ns3:hr>
          </ns3:TrackPointExtension>
        </extensions>
      </trkpt>
      <trkpt lat="36.86920397914946079254150390625" lon="-118.427175320684909820556640625">
        <ele>2705.800048828125</ele>
        <time>2021-06-27T23:41:05.000Z</time>
        <extensions>
          <ns3:TrackPointExtension>
            <ns3:atemp>32.0</ns3:atemp>
            <ns3:hr>70</ns3:hr>
          </ns3:TrackPointExtension>
        </extensions>
      </trkpt>
      <trkpt lat="36.86921252869069576263427734375" lon="-118.42718244530260562896728515625">
        <ele>2705.800048828125</ele>
        <time>2021-06-27T23:41:06.000Z</time>
        <extensions>
          <ns3:TrackPointExtension>
            <ns3:atemp>32.0</ns3:atemp>
            <ns3:hr>68</ns3:hr>
          </ns3:TrackPointExtension>
        </extensions>
      </trkpt>
      <trkpt lat="36.86922543682157993316650390625" lon="-118.4272031486034393310546875">
        <ele>2705.60009765625</ele>
        <time>2021-06-27T23:41:09.000Z</time>
        <extensions>
          <ns3:TrackPointExtension>
            <ns3:atemp>32.0</ns3:atemp>
            <ns3:hr>68</ns3:hr>
          </ns3:TrackPointExtension>
        </extensions>
      </trkpt>
      <trkpt lat="36.86923247762024402618408203125" lon="-118.4272093512117862701416015625">
        <ele>2705.60009765625</ele>
        <time>2021-06-27T23:41:10.000Z</time>
        <extensions>
          <ns3:TrackPointExtension>
            <ns3:atemp>32.0</ns3:atemp>
            <ns3:hr>72</ns3:hr>
          </ns3:TrackPointExtension>
        </extensions>
      </trkpt>
      <trkpt lat="36.8692567013204097747802734375" lon="-118.427210189402103424072265625">
        <ele>2705.60009765625</ele>
        <time>2021-06-27T23:41:12.000Z</time>
        <extensions>
          <ns3:TrackPointExtension>
            <ns3:atemp>32.0</ns3:atemp>
            <ns3:hr>71</ns3:hr>
          </ns3:TrackPointExtension>
        </extensions>
      </trkpt>
      <trkpt lat="36.86926868744194507598876953125" lon="-118.427214212715625762939453125">
        <ele>2705.60009765625</ele>
        <time>2021-06-27T23:41:13.000Z</time>
        <extensions>
          <ns3:TrackPointExtension>
            <ns3:atemp>32.0</ns3:atemp>
            <ns3:hr>72</ns3:hr>
          </ns3:TrackPointExtension>
        </extensions>
      </trkpt>
      <trkpt lat="36.86930992640554904937744140625" lon="-118.4272173978388309478759765625">
        <ele>2705.39990234375</ele>
        <time>2021-06-27T23:41:16.000Z</time>
        <extensions>
          <ns3:TrackPointExtension>
            <ns3:atemp>32.0</ns3:atemp>
            <ns3:hr>73</ns3:hr>
          </ns3:TrackPointExtension>
        </extensions>
      </trkpt>
      <trkpt lat="36.86932660639286041259765625" lon="-118.42723592184484004974365234375">
        <ele>2705</ele>
        <time>2021-06-27T23:41:18.000Z</time>
        <extensions>
          <ns3:TrackPointExtension>
            <ns3:atemp>32.0</ns3:atemp>
            <ns3:hr>73</ns3:hr>
          </ns3:TrackPointExtension>
        </extensions>
      </trkpt>
      <trkpt lat="36.86933557502925395965576171875" lon="-118.42724665068089962005615234375">
        <ele>2705</ele>
        <time>2021-06-27T23:41:19.000Z</time>
        <extensions>
          <ns3:TrackPointExtension>
            <ns3:atemp>32.0</ns3:atemp>
            <ns3:hr>73</ns3:hr>
          </ns3:TrackPointExtension>
        </extensions>
      </trkpt>
      <trkpt lat="36.86933959834277629852294921875" lon="-118.42725369147956371307373046875">
        <ele>2704.800048828125</ele>
        <time>2021-06-27T23:41:20.000Z</time>
        <extensions>
          <ns3:TrackPointExtension>
            <ns3:atemp>32.0</ns3:atemp>
            <ns3:hr>73</ns3:hr>
          </ns3:TrackPointExtension>
        </extensions>
      </trkpt>
      <trkpt lat="36.86936080455780029296875" lon="-118.42726022936403751373291015625">
        <ele>2704.39990234375</ele>
        <time>2021-06-27T23:41:22.000Z</time>
        <extensions>
          <ns3:TrackPointExtension>
            <ns3:atemp>32.0</ns3:atemp>
            <ns3:hr>73</ns3:hr>
          </ns3:TrackPointExtension>
        </extensions>
      </trkpt>
      <trkpt lat="36.869390644133090972900390625" lon="-118.42725603841245174407958984375">
        <ele>2703.800048828125</ele>
        <time>2021-06-27T23:41:26.000Z</time>
        <extensions>
          <ns3:TrackPointExtension>
            <ns3:atemp>32.0</ns3:atemp>
            <ns3:hr>75</ns3:hr>
          </ns3:TrackPointExtension>
        </extensions>
      </trkpt>
      <trkpt lat="36.86941067688167095184326171875" lon="-118.4272702038288116455078125">
        <ele>2703.39990234375</ele>
        <time>2021-06-27T23:41:28.000Z</time>
        <extensions>
          <ns3:TrackPointExtension>
            <ns3:atemp>32.0</ns3:atemp>
            <ns3:hr>73</ns3:hr>
          </ns3:TrackPointExtension>
        </extensions>
      </trkpt>
      <trkpt lat="36.86946398578584194183349609375" lon="-118.4273012168705463409423828125">
        <ele>2703.199951171875</ele>
        <time>2021-06-27T23:41:35.000Z</time>
        <extensions>
          <ns3:TrackPointExtension>
            <ns3:atemp>32.0</ns3:atemp>
            <ns3:hr>72</ns3:hr>
          </ns3:TrackPointExtension>
        </extensions>
      </trkpt>
      <trkpt lat="36.869473122060298919677734375" lon="-118.4273199923336505889892578125">
        <ele>2703</ele>
        <time>2021-06-27T23:41:37.000Z</time>
        <extensions>
          <ns3:TrackPointExtension>
            <ns3:atemp>32.0</ns3:atemp>
            <ns3:hr>72</ns3:hr>
          </ns3:TrackPointExtension>
        </extensions>
      </trkpt>
      <trkpt lat="36.86948426999151706695556640625" lon="-118.4273340739309787750244140625">
        <ele>2703</ele>
        <time>2021-06-27T23:41:39.000Z</time>
        <extensions>
          <ns3:TrackPointExtension>
            <ns3:atemp>32.0</ns3:atemp>
            <ns3:hr>71</ns3:hr>
          </ns3:TrackPointExtension>
        </extensions>
      </trkpt>
      <trkpt lat="36.86949600465595722198486328125" lon="-118.4273575432598590850830078125">
        <ele>2703.39990234375</ele>
        <time>2021-06-27T23:41:42.000Z</time>
        <extensions>
          <ns3:TrackPointExtension>
            <ns3:atemp>32.0</ns3:atemp>
            <ns3:hr>70</ns3:hr>
          </ns3:TrackPointExtension>
        </extensions>
      </trkpt>
      <trkpt lat="36.86951293610036373138427734375" lon="-118.42740171588957309722900390625">
        <ele>2704</ele>
        <time>2021-06-27T23:41:47.000Z</time>
        <extensions>
          <ns3:TrackPointExtension>
            <ns3:atemp>32.0</ns3:atemp>
            <ns3:hr>67</ns3:hr>
          </ns3:TrackPointExtension>
        </extensions>
      </trkpt>
      <trkpt lat="36.8695151992142200469970703125" lon="-118.4274096786975860595703125">
        <ele>2704.199951171875</ele>
        <time>2021-06-27T23:41:48.000Z</time>
        <extensions>
          <ns3:TrackPointExtension>
            <ns3:atemp>32.0</ns3:atemp>
            <ns3:hr>66</ns3:hr>
          </ns3:TrackPointExtension>
        </extensions>
      </trkpt>
      <trkpt lat="36.869518719613552093505859375" lon="-118.42741697095334529876708984375">
        <ele>2704.800048828125</ele>
        <time>2021-06-27T23:41:49.000Z</time>
        <extensions>
          <ns3:TrackPointExtension>
            <ns3:atemp>32.0</ns3:atemp>
            <ns3:hr>65</ns3:hr>
          </ns3:TrackPointExtension>
        </extensions>
      </trkpt>
      <trkpt lat="36.8695262633264064788818359375" lon="-118.42744999565184116363525390625">
        <ele>2706</ele>
        <time>2021-06-27T23:41:53.000Z</time>
        <extensions>
          <ns3:TrackPointExtension>
            <ns3:atemp>32.0</ns3:atemp>
            <ns3:hr>68</ns3:hr>
          </ns3:TrackPointExtension>
        </extensions>
      </trkpt>
      <trkpt lat="36.86952400021255016326904296875" lon="-118.42746038921177387237548828125">
        <ele>2706</ele>
        <time>2021-06-27T23:41:54.000Z</time>
        <extensions>
          <ns3:TrackPointExtension>
            <ns3:atemp>32.0</ns3:atemp>
            <ns3:hr>71</ns3:hr>
          </ns3:TrackPointExtension>
        </extensions>
      </trkpt>
      <trkpt lat="36.869521401822566986083984375" lon="-118.42747069895267486572265625">
        <ele>2706</ele>
        <time>2021-06-27T23:41:55.000Z</time>
        <extensions>
          <ns3:TrackPointExtension>
            <ns3:atemp>32.0</ns3:atemp>
            <ns3:hr>71</ns3:hr>
          </ns3:TrackPointExtension>
        </extensions>
      </trkpt>
      <trkpt lat="36.86951796524226665496826171875" lon="-118.42748939059674739837646484375">
        <ele>2706</ele>
        <time>2021-06-27T23:41:57.000Z</time>
        <extensions>
          <ns3:TrackPointExtension>
            <ns3:atemp>32.0</ns3:atemp>
            <ns3:hr>75</ns3:hr>
          </ns3:TrackPointExtension>
        </extensions>
      </trkpt>
      <trkpt lat="36.86951595358550548553466796875" lon="-118.4274963475763797760009765625">
        <ele>2706</ele>
        <time>2021-06-27T23:41:58.000Z</time>
        <extensions>
          <ns3:TrackPointExtension>
            <ns3:atemp>32.0</ns3:atemp>
            <ns3:hr>77</ns3:hr>
          </ns3:TrackPointExtension>
        </extensions>
      </trkpt>
      <trkpt lat="36.8695148639380931854248046875" lon="-118.4275154583156108856201171875">
        <ele>2706.39990234375</ele>
        <time>2021-06-27T23:42:00.000Z</time>
        <extensions>
          <ns3:TrackPointExtension>
            <ns3:atemp>32.0</ns3:atemp>
            <ns3:hr>80</ns3:hr>
          </ns3:TrackPointExtension>
        </extensions>
      </trkpt>
      <trkpt lat="36.8695215694606304168701171875" lon="-118.42754471115767955780029296875">
        <ele>2706.199951171875</ele>
        <time>2021-06-27T23:42:03.000Z</time>
        <extensions>
          <ns3:TrackPointExtension>
            <ns3:atemp>32.0</ns3:atemp>
            <ns3:hr>84</ns3:hr>
          </ns3:TrackPointExtension>
        </extensions>
      </trkpt>
      <trkpt lat="36.86953741125762462615966796875" lon="-118.42756298370659351348876953125">
        <ele>2706.199951171875</ele>
        <time>2021-06-27T23:42:05.000Z</time>
        <extensions>
          <ns3:TrackPointExtension>
            <ns3:atemp>32.0</ns3:atemp>
            <ns3:hr>87</ns3:hr>
          </ns3:TrackPointExtension>
        </extensions>
      </trkpt>
      <trkpt lat="36.86955191195011138916015625" lon="-118.42758829705417156219482421875">
        <ele>2705.800048828125</ele>
        <time>2021-06-27T23:42:08.000Z</time>
        <extensions>
          <ns3:TrackPointExtension>
            <ns3:atemp>32.0</ns3:atemp>
            <ns3:hr>91</ns3:hr>
          </ns3:TrackPointExtension>
        </extensions>
      </trkpt>
      <trkpt lat="36.86956205405294895172119140625" lon="-118.427611850202083587646484375">
        <ele>2706</ele>
        <time>2021-06-27T23:42:11.000Z</time>
        <extensions>
          <ns3:TrackPointExtension>
            <ns3:atemp>32.0</ns3:atemp>
            <ns3:hr>94</ns3:hr>
          </ns3:TrackPointExtension>
        </extensions>
      </trkpt>
      <trkpt lat="36.86955970712006092071533203125" lon="-118.42763439752161502838134765625">
        <ele>2706.60009765625</ele>
        <time>2021-06-27T23:42:14.000Z</time>
        <extensions>
          <ns3:TrackPointExtension>
            <ns3:atemp>32.0</ns3:atemp>
            <ns3:hr>95</ns3:hr>
          </ns3:TrackPointExtension>
        </extensions>
      </trkpt>
      <trkpt lat="36.86956666409969329833984375" lon="-118.427651412785053253173828125">
        <ele>2706.800048828125</ele>
        <time>2021-06-27T23:42:16.000Z</time>
        <extensions>
          <ns3:TrackPointExtension>
            <ns3:atemp>32.0</ns3:atemp>
            <ns3:hr>94</ns3:hr>
          </ns3:TrackPointExtension>
        </extensions>
      </trkpt>
      <trkpt lat="36.86957479454576969146728515625" lon="-118.42766758985817432403564453125">
        <ele>2706.800048828125</ele>
        <time>2021-06-27T23:42:18.000Z</time>
        <extensions>
          <ns3:TrackPointExtension>
            <ns3:atemp>32.0</ns3:atemp>
            <ns3:hr>95</ns3:hr>
          </ns3:TrackPointExtension>
        </extensions>
      </trkpt>
      <trkpt lat="36.8695909716188907623291015625" lon="-118.42768100090324878692626953125">
        <ele>2706.800048828125</ele>
        <time>2021-06-27T23:42:20.000Z</time>
        <extensions>
          <ns3:TrackPointExtension>
            <ns3:atemp>32.0</ns3:atemp>
            <ns3:hr>92</ns3:hr>
          </ns3:TrackPointExtension>
        </extensions>
      </trkpt>
      <trkpt lat="36.86959876678884029388427734375" lon="-118.42768636532127857208251953125">
        <ele>2706.199951171875</ele>
        <time>2021-06-27T23:42:21.000Z</time>
        <extensions>
          <ns3:TrackPointExtension>
            <ns3:atemp>32.0</ns3:atemp>
            <ns3:hr>95</ns3:hr>
          </ns3:TrackPointExtension>
        </extensions>
      </trkpt>
      <trkpt lat="36.86961133964359760284423828125" lon="-118.4276901371777057647705078125">
        <ele>2706.199951171875</ele>
        <time>2021-06-27T23:42:22.000Z</time>
        <extensions>
          <ns3:TrackPointExtension>
            <ns3:atemp>32.0</ns3:atemp>
            <ns3:hr>95</ns3:hr>
          </ns3:TrackPointExtension>
        </extensions>
      </trkpt>
      <trkpt lat="36.86967068351805210113525390625" lon="-118.42767898924648761749267578125">
        <ele>2705.60009765625</ele>
        <time>2021-06-27T23:42:31.000Z</time>
        <extensions>
          <ns3:TrackPointExtension>
            <ns3:atemp>32.0</ns3:atemp>
            <ns3:hr>96</ns3:hr>
          </ns3:TrackPointExtension>
        </extensions>
      </trkpt>
      <trkpt lat="36.869686357676982879638671875" lon="-118.42767245136201381683349609375">
        <ele>2704.60009765625</ele>
        <time>2021-06-27T23:42:33.000Z</time>
        <extensions>
          <ns3:TrackPointExtension>
            <ns3:atemp>32.0</ns3:atemp>
            <ns3:hr>96</ns3:hr>
          </ns3:TrackPointExtension>
        </extensions>
      </trkpt>
      <trkpt lat="36.86971276067197322845458984375" lon="-118.42767647467553615570068359375">
        <ele>2704.60009765625</ele>
        <time>2021-06-27T23:42:36.000Z</time>
        <extensions>
          <ns3:TrackPointExtension>
            <ns3:atemp>32.0</ns3:atemp>
            <ns3:hr>96</ns3:hr>
          </ns3:TrackPointExtension>
        </extensions>
      </trkpt>
      <trkpt lat="36.8697425164282321929931640625" lon="-118.42767186462879180908203125">
        <ele>2704.60009765625</ele>
        <time>2021-06-27T23:42:38.000Z</time>
        <extensions>
          <ns3:TrackPointExtension>
            <ns3:atemp>32.0</ns3:atemp>
            <ns3:hr>96</ns3:hr>
          </ns3:TrackPointExtension>
        </extensions>
      </trkpt>
      <trkpt lat="36.8697854317724704742431640625" lon="-118.42769390903413295745849609375">
        <ele>2704.199951171875</ele>
        <time>2021-06-27T23:42:44.000Z</time>
        <extensions>
          <ns3:TrackPointExtension>
            <ns3:atemp>32.0</ns3:atemp>
            <ns3:hr>94</ns3:hr>
          </ns3:TrackPointExtension>
        </extensions>
      </trkpt>
      <trkpt lat="36.86979138292372226715087890625" lon="-118.42770279385149478912353515625">
        <ele>2704.199951171875</ele>
        <time>2021-06-27T23:42:45.000Z</time>
        <extensions>
          <ns3:TrackPointExtension>
            <ns3:atemp>32.0</ns3:atemp>
            <ns3:hr>93</ns3:hr>
          </ns3:TrackPointExtension>
        </extensions>
      </trkpt>
      <trkpt lat="36.86983614228665828704833984375" lon="-118.42772014439105987548828125">
        <ele>2704.39990234375</ele>
        <time>2021-06-27T23:42:50.000Z</time>
        <extensions>
          <ns3:TrackPointExtension>
            <ns3:atemp>32.0</ns3:atemp>
            <ns3:hr>93</ns3:hr>
          </ns3:TrackPointExtension>
        </extensions>
      </trkpt>
      <trkpt lat="36.86986816115677356719970703125" lon="-118.427718468010425567626953125">
        <ele>2704.60009765625</ele>
        <time>2021-06-27T23:42:53.000Z</time>
        <extensions>
          <ns3:TrackPointExtension>
            <ns3:atemp>32.0</ns3:atemp>
            <ns3:hr>92</ns3:hr>
          </ns3:TrackPointExtension>
        </extensions>
      </trkpt>
      <trkpt lat="36.86992566101253032684326171875" lon="-118.4277395904064178466796875">
        <ele>2703.60009765625</ele>
        <time>2021-06-27T23:43:00.000Z</time>
        <extensions>
          <ns3:TrackPointExtension>
            <ns3:atemp>32.0</ns3:atemp>
            <ns3:hr>92</ns3:hr>
          </ns3:TrackPointExtension>
        </extensions>
      </trkpt>
      <trkpt lat="36.86995214782655239105224609375" lon="-118.4277556836605072021484375">
        <ele>2703</ele>
        <time>2021-06-27T23:43:03.000Z</time>
        <extensions>
          <ns3:TrackPointExtension>
            <ns3:atemp>32.0</ns3:atemp>
            <ns3:hr>92</ns3:hr>
          </ns3:TrackPointExtension>
        </extensions>
      </trkpt>
      <trkpt lat="36.8699953146278858184814453125" lon="-118.42777169309556484222412109375">
        <ele>2702.60009765625</ele>
        <time>2021-06-27T23:43:09.000Z</time>
        <extensions>
          <ns3:TrackPointExtension>
            <ns3:atemp>32.0</ns3:atemp>
            <ns3:hr>94</ns3:hr>
          </ns3:TrackPointExtension>
        </extensions>
      </trkpt>
      <trkpt lat="36.87000009231269359588623046875" lon="-118.42778175137937068939208984375">
        <ele>2702.39990234375</ele>
        <time>2021-06-27T23:43:10.000Z</time>
        <extensions>
          <ns3:TrackPointExtension>
            <ns3:atemp>32.0</ns3:atemp>
            <ns3:hr>96</ns3:hr>
          </ns3:TrackPointExtension>
        </extensions>
      </trkpt>
      <trkpt lat="36.87002238817512989044189453125" lon="-118.4278031252324581146240234375">
        <ele>2702.60009765625</ele>
        <time>2021-06-27T23:43:13.000Z</time>
        <extensions>
          <ns3:TrackPointExtension>
            <ns3:atemp>32.0</ns3:atemp>
            <ns3:hr>100</ns3:hr>
          </ns3:TrackPointExtension>
        </extensions>
      </trkpt>
      <trkpt lat="36.870059184730052947998046875" lon="-118.427821733057498931884765625">
        <ele>2703.199951171875</ele>
        <time>2021-06-27T23:43:17.000Z</time>
        <extensions>
          <ns3:TrackPointExtension>
            <ns3:atemp>32.0</ns3:atemp>
            <ns3:hr>103</ns3:hr>
          </ns3:TrackPointExtension>
        </extensions>
      </trkpt>
      <trkpt lat="36.8700784631073474884033203125" lon="-118.4278363175690174102783203125">
        <ele>2703.39990234375</ele>
        <time>2021-06-27T23:43:19.000Z</time>
        <extensions>
          <ns3:TrackPointExtension>
            <ns3:atemp>32.0</ns3:atemp>
            <ns3:hr>103</ns3:hr>
          </ns3:TrackPointExtension>
        </extensions>
      </trkpt>
      <trkpt lat="36.87008994631469249725341796875" lon="-118.4278446994721889495849609375">
        <ele>2703.800048828125</ele>
        <time>2021-06-27T23:43:20.000Z</time>
        <extensions>
          <ns3:TrackPointExtension>
            <ns3:atemp>32.0</ns3:atemp>
            <ns3:hr>103</ns3:hr>
          </ns3:TrackPointExtension>
        </extensions>
      </trkpt>
      <trkpt lat="36.87009505927562713623046875" lon="-118.4278913028538227081298828125">
        <ele>2704</ele>
        <time>2021-06-27T23:43:27.000Z</time>
        <extensions>
          <ns3:TrackPointExtension>
            <ns3:atemp>32.0</ns3:atemp>
            <ns3:hr>104</ns3:hr>
          </ns3:TrackPointExtension>
        </extensions>
      </trkpt>
      <trkpt lat="36.87012816779315471649169921875" lon="-118.42793740332126617431640625">
        <ele>2703.60009765625</ele>
        <time>2021-06-27T23:43:33.000Z</time>
        <extensions>
          <ns3:TrackPointExtension>
            <ns3:atemp>32.0</ns3:atemp>
            <ns3:hr>107</ns3:hr>
          </ns3:TrackPointExtension>
        </extensions>
      </trkpt>
      <trkpt lat="36.870150379836559295654296875" lon="-118.427985347807407379150390625">
        <ele>2702.800048828125</ele>
        <time>2021-06-27T23:43:37.000Z</time>
        <extensions>
          <ns3:TrackPointExtension>
            <ns3:atemp>32.0</ns3:atemp>
            <ns3:hr>105</ns3:hr>
          </ns3:TrackPointExtension>
        </extensions>
      </trkpt>
      <trkpt lat="36.8701616115868091583251953125" lon="-118.42801275663077831268310546875">
        <ele>2703.199951171875</ele>
        <time>2021-06-27T23:43:40.000Z</time>
        <extensions>
          <ns3:TrackPointExtension>
            <ns3:atemp>33.0</ns3:atemp>
            <ns3:hr>104</ns3:hr>
          </ns3:TrackPointExtension>
        </extensions>
      </trkpt>
      <trkpt lat="36.8701787106692790985107421875" lon="-118.42805399559438228607177734375">
        <ele>2702.60009765625</ele>
        <time>2021-06-27T23:43:44.000Z</time>
        <extensions>
          <ns3:TrackPointExtension>
            <ns3:atemp>33.0</ns3:atemp>
            <ns3:hr>104</ns3:hr>
          </ns3:TrackPointExtension>
        </extensions>
      </trkpt>
      <trkpt lat="36.8701941333711147308349609375" lon="-118.428086601197719573974609375">
        <ele>2701.60009765625</ele>
        <time>2021-06-27T23:43:48.000Z</time>
        <extensions>
          <ns3:TrackPointExtension>
            <ns3:atemp>33.0</ns3:atemp>
            <ns3:hr>105</ns3:hr>
          </ns3:TrackPointExtension>
        </extensions>
      </trkpt>
      <trkpt lat="36.870197318494319915771484375" lon="-118.4281340427696704864501953125">
        <ele>2700.800048828125</ele>
        <time>2021-06-27T23:43:53.000Z</time>
        <extensions>
          <ns3:TrackPointExtension>
            <ns3:atemp>33.0</ns3:atemp>
            <ns3:hr>101</ns3:hr>
          </ns3:TrackPointExtension>
        </extensions>
      </trkpt>
      <trkpt lat="36.87019606120884418487548828125" lon="-118.42816832475364208221435546875">
        <ele>2700.60009765625</ele>
        <time>2021-06-27T23:43:56.000Z</time>
        <extensions>
          <ns3:TrackPointExtension>
            <ns3:atemp>33.0</ns3:atemp>
            <ns3:hr>102</ns3:hr>
          </ns3:TrackPointExtension>
        </extensions>
      </trkpt>
      <trkpt lat="36.8702078796923160552978515625" lon="-118.4281984157860279083251953125">
        <ele>2700.39990234375</ele>
        <time>2021-06-27T23:43:59.000Z</time>
        <extensions>
          <ns3:TrackPointExtension>
            <ns3:atemp>33.0</ns3:atemp>
            <ns3:hr>105</ns3:hr>
          </ns3:TrackPointExtension>
        </extensions>
      </trkpt>
      <trkpt lat="36.87021064572036266326904296875" lon="-118.42820855788886547088623046875">
        <ele>2700</ele>
        <time>2021-06-27T23:44:00.000Z</time>
        <extensions>
          <ns3:TrackPointExtension>
            <ns3:atemp>33.0</ns3:atemp>
            <ns3:hr>102</ns3:hr>
          </ns3:TrackPointExtension>
        </extensions>
      </trkpt>
      <trkpt lat="36.87021332792937755584716796875" lon="-118.42823085375130176544189453125">
        <ele>2699.39990234375</ele>
        <time>2021-06-27T23:44:02.000Z</time>
        <extensions>
          <ns3:TrackPointExtension>
            <ns3:atemp>33.0</ns3:atemp>
            <ns3:hr>102</ns3:hr>
          </ns3:TrackPointExtension>
        </extensions>
      </trkpt>
      <trkpt lat="36.870218776166439056396484375" lon="-118.42824694700539112091064453125">
        <ele>2698.800048828125</ele>
        <time>2021-06-27T23:44:04.000Z</time>
        <extensions>
          <ns3:TrackPointExtension>
            <ns3:atemp>33.0</ns3:atemp>
            <ns3:hr>99</ns3:hr>
          </ns3:TrackPointExtension>
        </extensions>
      </trkpt>
      <trkpt lat="36.87022003345191478729248046875" lon="-118.4282527305185794830322265625">
        <ele>2698.39990234375</ele>
        <time>2021-06-27T23:44:05.000Z</time>
        <extensions>
          <ns3:TrackPointExtension>
            <ns3:atemp>33.0</ns3:atemp>
            <ns3:hr>99</ns3:hr>
          </ns3:TrackPointExtension>
        </extensions>
      </trkpt>
      <trkpt lat="36.87021718360483646392822265625" lon="-118.428257592022418975830078125">
        <ele>2698.199951171875</ele>
        <time>2021-06-27T23:44:06.000Z</time>
        <extensions>
          <ns3:TrackPointExtension>
            <ns3:atemp>33.0</ns3:atemp>
            <ns3:hr>99</ns3:hr>
          </ns3:TrackPointExtension>
        </extensions>
      </trkpt>
      <trkpt lat="36.8702028505504131317138671875" lon="-118.42829070053994655609130859375">
        <ele>2697.60009765625</ele>
        <time>2021-06-27T23:44:10.000Z</time>
        <extensions>
          <ns3:TrackPointExtension>
            <ns3:atemp>33.0</ns3:atemp>
            <ns3:hr>96</ns3:hr>
          </ns3:TrackPointExtension>
        </extensions>
      </trkpt>
      <trkpt lat="36.870201341807842254638671875" lon="-118.42830142937600612640380859375">
        <ele>2697.39990234375</ele>
        <time>2021-06-27T23:44:11.000Z</time>
        <extensions>
          <ns3:TrackPointExtension>
            <ns3:atemp>33.0</ns3:atemp>
            <ns3:hr>95</ns3:hr>
          </ns3:TrackPointExtension>
        </extensions>
      </trkpt>
      <trkpt lat="36.8701998330652713775634765625" lon="-118.42831031419336795806884765625">
        <ele>2697.199951171875</ele>
        <time>2021-06-27T23:44:12.000Z</time>
        <extensions>
          <ns3:TrackPointExtension>
            <ns3:atemp>33.0</ns3:atemp>
            <ns3:hr>93</ns3:hr>
          </ns3:TrackPointExtension>
        </extensions>
      </trkpt>
      <trkpt lat="36.8702078796923160552978515625" lon="-118.4283643774688243865966796875">
        <ele>2696</ele>
        <time>2021-06-27T23:44:18.000Z</time>
        <extensions>
          <ns3:TrackPointExtension>
            <ns3:atemp>33.0</ns3:atemp>
            <ns3:hr>91</ns3:hr>
          </ns3:TrackPointExtension>
        </extensions>
      </trkpt>
      <trkpt lat="36.8702320195734500885009765625" lon="-118.42838541604578495025634765625">
        <ele>2695.39990234375</ele>
        <time>2021-06-27T23:44:21.000Z</time>
        <extensions>
          <ns3:TrackPointExtension>
            <ns3:atemp>33.0</ns3:atemp>
            <ns3:hr>92</ns3:hr>
          </ns3:TrackPointExtension>
        </extensions>
      </trkpt>
      <trkpt lat="36.8702645413577556610107421875" lon="-118.42840603552758693695068359375">
        <ele>2695</ele>
        <time>2021-06-27T23:44:25.000Z</time>
        <extensions>
          <ns3:TrackPointExtension>
            <ns3:atemp>33.0</ns3:atemp>
            <ns3:hr>93</ns3:hr>
          </ns3:TrackPointExtension>
        </extensions>
      </trkpt>
      <trkpt lat="36.8702893517911434173583984375" lon="-118.42841324396431446075439453125">
        <ele>2694.800048828125</ele>
        <time>2021-06-27T23:44:28.000Z</time>
        <extensions>
          <ns3:TrackPointExtension>
            <ns3:atemp>33.0</ns3:atemp>
            <ns3:hr>89</ns3:hr>
          </ns3:TrackPointExtension>
        </extensions>
      </trkpt>
      <trkpt lat="36.87029580585658550262451171875" lon="-118.428418524563312530517578125">
        <ele>2694.800048828125</ele>
        <time>2021-06-27T23:44:29.000Z</time>
        <extensions>
          <ns3:TrackPointExtension>
            <ns3:atemp>33.0</ns3:atemp>
            <ns3:hr>89</ns3:hr>
          </ns3:TrackPointExtension>
        </extensions>
      </trkpt>
      <trkpt lat="36.8703465163707733154296875" lon="-118.42847895808517932891845703125">
        <ele>2694</ele>
        <time>2021-06-27T23:44:36.000Z</time>
        <extensions>
          <ns3:TrackPointExtension>
            <ns3:atemp>33.0</ns3:atemp>
            <ns3:hr>87</ns3:hr>
          </ns3:TrackPointExtension>
        </extensions>
      </trkpt>
      <trkpt lat="36.87036286108195781707763671875" lon="-118.42848666943609714508056640625">
        <ele>2694</ele>
        <time>2021-06-27T23:44:38.000Z</time>
        <extensions>
          <ns3:TrackPointExtension>
            <ns3:atemp>33.0</ns3:atemp>
            <ns3:hr>87</ns3:hr>
          </ns3:TrackPointExtension>
        </extensions>
      </trkpt>
      <trkpt lat="36.870374344289302825927734375" lon="-118.42849270440638065338134765625">
        <ele>2694</ele>
        <time>2021-06-27T23:44:39.000Z</time>
        <extensions>
          <ns3:TrackPointExtension>
            <ns3:atemp>33.0</ns3:atemp>
            <ns3:hr>87</ns3:hr>
          </ns3:TrackPointExtension>
        </extensions>
      </trkpt>
      <trkpt lat="36.870453469455242156982421875" lon="-118.42853545211255550384521484375">
        <ele>2694.199951171875</ele>
        <time>2021-06-27T23:44:47.000Z</time>
        <extensions>
          <ns3:TrackPointExtension>
            <ns3:atemp>33.0</ns3:atemp>
            <ns3:hr>88</ns3:hr>
          </ns3:TrackPointExtension>
        </extensions>
      </trkpt>
      <trkpt lat="36.8705324269831180572509765625" lon="-118.42851935885846614837646484375">
        <ele>2694.199951171875</ele>
        <time>2021-06-27T23:44:54.000Z</time>
        <extensions>
          <ns3:TrackPointExtension>
            <ns3:atemp>33.0</ns3:atemp>
            <ns3:hr>88</ns3:hr>
          </ns3:TrackPointExtension>
        </extensions>
      </trkpt>
      <trkpt lat="36.8706174194812774658203125" lon="-118.4285041876137256622314453125">
        <ele>2693</ele>
        <time>2021-06-27T23:45:03.000Z</time>
        <extensions>
          <ns3:TrackPointExtension>
            <ns3:atemp>33.0</ns3:atemp>
            <ns3:hr>89</ns3:hr>
          </ns3:TrackPointExtension>
        </extensions>
      </trkpt>
      <trkpt lat="36.87062772922217845916748046875" lon="-118.4285082109272480010986328125">
        <ele>2692.39990234375</ele>
        <time>2021-06-27T23:45:05.000Z</time>
        <extensions>
          <ns3:TrackPointExtension>
            <ns3:atemp>33.0</ns3:atemp>
            <ns3:hr>89</ns3:hr>
          </ns3:TrackPointExtension>
        </extensions>
      </trkpt>
      <trkpt lat="36.87063912861049175262451171875" lon="-118.42851801775395870208740234375">
        <ele>2691.800048828125</ele>
        <time>2021-06-27T23:45:07.000Z</time>
        <extensions>
          <ns3:TrackPointExtension>
            <ns3:atemp>33.0</ns3:atemp>
            <ns3:hr>88</ns3:hr>
          </ns3:TrackPointExtension>
        </extensions>
      </trkpt>
      <trkpt lat="36.8706469237804412841796875" lon="-118.42852371744811534881591796875">
        <ele>2691.60009765625</ele>
        <time>2021-06-27T23:45:08.000Z</time>
        <extensions>
          <ns3:TrackPointExtension>
            <ns3:atemp>33.0</ns3:atemp>
            <ns3:hr>87</ns3:hr>
          </ns3:TrackPointExtension>
        </extensions>
      </trkpt>
      <trkpt lat="36.87065237201750278472900390625" lon="-118.42853193171322345733642578125">
        <ele>2691.199951171875</ele>
        <time>2021-06-27T23:45:09.000Z</time>
        <extensions>
          <ns3:TrackPointExtension>
            <ns3:atemp>33.0</ns3:atemp>
            <ns3:hr>87</ns3:hr>
          </ns3:TrackPointExtension>
        </extensions>
      </trkpt>
      <trkpt lat="36.87066863290965557098388671875" lon="-118.4285937063395977020263671875">
        <ele>2690.60009765625</ele>
        <time>2021-06-27T23:45:15.000Z</time>
        <extensions>
          <ns3:TrackPointExtension>
            <ns3:atemp>33.0</ns3:atemp>
            <ns3:hr>87</ns3:hr>
          </ns3:TrackPointExtension>
        </extensions>
      </trkpt>
      <trkpt lat="36.87067667953670024871826171875" lon="-118.428620360791683197021484375">
        <ele>2690.60009765625</ele>
        <time>2021-06-27T23:45:18.000Z</time>
        <extensions>
          <ns3:TrackPointExtension>
            <ns3:atemp>33.0</ns3:atemp>
            <ns3:hr>86</ns3:hr>
          </ns3:TrackPointExtension>
        </extensions>
      </trkpt>
      <trkpt lat="36.870688498020172119140625" lon="-118.42866562306880950927734375">
        <ele>2689.60009765625</ele>
        <time>2021-06-27T23:45:22.000Z</time>
        <extensions>
          <ns3:TrackPointExtension>
            <ns3:atemp>33.0</ns3:atemp>
            <ns3:hr>86</ns3:hr>
          </ns3:TrackPointExtension>
        </extensions>
      </trkpt>
      <trkpt lat="36.870696544647216796875" lon="-118.42868833802640438079833984375">
        <ele>2689.199951171875</ele>
        <time>2021-06-27T23:45:24.000Z</time>
        <extensions>
          <ns3:TrackPointExtension>
            <ns3:atemp>33.0</ns3:atemp>
            <ns3:hr>85</ns3:hr>
          </ns3:TrackPointExtension>
        </extensions>
      </trkpt>
      <trkpt lat="36.87069914303719997406005859375" lon="-118.42869638465344905853271484375">
        <ele>2688.60009765625</ele>
        <time>2021-06-27T23:45:25.000Z</time>
        <extensions>
          <ns3:TrackPointExtension>
            <ns3:atemp>33.0</ns3:atemp>
            <ns3:hr>84</ns3:hr>
          </ns3:TrackPointExtension>
        </extensions>
      </trkpt>
      <trkpt lat="36.8707005679607391357421875" lon="-118.4287066943943500518798828125">
        <ele>2688.39990234375</ele>
        <time>2021-06-27T23:45:26.000Z</time>
        <extensions>
          <ns3:TrackPointExtension>
            <ns3:atemp>33.0</ns3:atemp>
            <ns3:hr>86</ns3:hr>
          </ns3:TrackPointExtension>
        </extensions>
      </trkpt>
      <trkpt lat="36.870737113058567047119140625" lon="-118.4287546388804912567138671875">
        <ele>2688</ele>
        <time>2021-06-27T23:45:33.000Z</time>
        <extensions>
          <ns3:TrackPointExtension>
            <ns3:atemp>33.0</ns3:atemp>
            <ns3:hr>89</ns3:hr>
          </ns3:TrackPointExtension>
        </extensions>
      </trkpt>
      <trkpt lat="36.87074440531432628631591796875" lon="-118.42875723727047443389892578125">
        <ele>2687.800048828125</ele>
        <time>2021-06-27T23:45:34.000Z</time>
        <extensions>
          <ns3:TrackPointExtension>
            <ns3:atemp>33.0</ns3:atemp>
            <ns3:hr>86</ns3:hr>
          </ns3:TrackPointExtension>
        </extensions>
      </trkpt>
      <trkpt lat="36.8707577325403690338134765625" lon="-118.42876042239367961883544921875">
        <ele>2687.39990234375</ele>
        <time>2021-06-27T23:45:36.000Z</time>
        <extensions>
          <ns3:TrackPointExtension>
            <ns3:atemp>33.0</ns3:atemp>
            <ns3:hr>86</ns3:hr>
          </ns3:TrackPointExtension>
        </extensions>
      </trkpt>
      <trkpt lat="36.87077743001282215118408203125" lon="-118.42880048789083957672119140625">
        <ele>2686.199951171875</ele>
        <time>2021-06-27T23:45:41.000Z</time>
        <extensions>
          <ns3:TrackPointExtension>
            <ns3:atemp>33.0</ns3:atemp>
            <ns3:hr>83</ns3:hr>
          </ns3:TrackPointExtension>
        </extensions>
      </trkpt>
      <trkpt lat="36.87078380025923252105712890625" lon="-118.42881180346012115478515625">
        <ele>2686.199951171875</ele>
        <time>2021-06-27T23:45:42.000Z</time>
        <extensions>
          <ns3:TrackPointExtension>
            <ns3:atemp>33.0</ns3:atemp>
            <ns3:hr>82</ns3:hr>
          </ns3:TrackPointExtension>
        </extensions>
      </trkpt>
      <trkpt lat="36.8708150647580623626708984375" lon="-118.42887139879167079925537109375">
        <ele>2685.800048828125</ele>
        <time>2021-06-27T23:45:48.000Z</time>
        <extensions>
          <ns3:TrackPointExtension>
            <ns3:atemp>33.0</ns3:atemp>
            <ns3:hr>82</ns3:hr>
          </ns3:TrackPointExtension>
        </extensions>
      </trkpt>
      <trkpt lat="36.87087968923151493072509765625" lon="-118.4289444051682949066162109375">
        <ele>2685.39990234375</ele>
        <time>2021-06-27T23:45:56.000Z</time>
        <extensions>
          <ns3:TrackPointExtension>
            <ns3:atemp>33.0</ns3:atemp>
            <ns3:hr>82</ns3:hr>
          </ns3:TrackPointExtension>
        </extensions>
      </trkpt>
      <trkpt lat="36.8708978779613971710205078125" lon="-118.429008610546588897705078125">
        <ele>2685.39990234375</ele>
        <time>2021-06-27T23:46:01.000Z</time>
        <extensions>
          <ns3:TrackPointExtension>
            <ns3:atemp>33.0</ns3:atemp>
            <ns3:hr>85</ns3:hr>
          </ns3:TrackPointExtension>
        </extensions>
      </trkpt>
      <trkpt lat="36.8709076009690761566162109375" lon="-118.42902914620935916900634765625">
        <ele>2685.39990234375</ele>
        <time>2021-06-27T23:46:03.000Z</time>
        <extensions>
          <ns3:TrackPointExtension>
            <ns3:atemp>33.0</ns3:atemp>
            <ns3:hr>83</ns3:hr>
          </ns3:TrackPointExtension>
        </extensions>
      </trkpt>
      <trkpt lat="36.87091556377708911895751953125" lon="-118.4290376119315624237060546875">
        <ele>2685.39990234375</ele>
        <time>2021-06-27T23:46:04.000Z</time>
        <extensions>
          <ns3:TrackPointExtension>
            <ns3:atemp>33.0</ns3:atemp>
            <ns3:hr>83</ns3:hr>
          </ns3:TrackPointExtension>
        </extensions>
      </trkpt>
      <trkpt lat="36.87093534506857395172119140625" lon="-118.42904926277697086334228515625">
        <ele>2685</ele>
        <time>2021-06-27T23:46:06.000Z</time>
        <extensions>
          <ns3:TrackPointExtension>
            <ns3:atemp>33.0</ns3:atemp>
            <ns3:hr>84</ns3:hr>
          </ns3:TrackPointExtension>
        </extensions>
      </trkpt>
      <trkpt lat="36.87098613940179347991943359375" lon="-118.42910408042371273040771484375">
        <ele>2684.60009765625</ele>
        <time>2021-06-27T23:46:12.000Z</time>
        <extensions>
          <ns3:TrackPointExtension>
            <ns3:atemp>33.0</ns3:atemp>
            <ns3:hr>82</ns3:hr>
          </ns3:TrackPointExtension>
        </extensions>
      </trkpt>
      <trkpt lat="36.87099887989461421966552734375" lon="-118.42913500964641571044921875">
        <ele>2684</ele>
        <time>2021-06-27T23:46:15.000Z</time>
        <extensions>
          <ns3:TrackPointExtension>
            <ns3:atemp>33.0</ns3:atemp>
            <ns3:hr>81</ns3:hr>
          </ns3:TrackPointExtension>
        </extensions>
      </trkpt>
      <trkpt lat="36.87102821655571460723876953125" lon="-118.42916979454457759857177734375">
        <ele>2683.800048828125</ele>
        <time>2021-06-27T23:46:18.000Z</time>
        <extensions>
          <ns3:TrackPointExtension>
            <ns3:atemp>33.0</ns3:atemp>
            <ns3:hr>82</ns3:hr>
          </ns3:TrackPointExtension>
        </extensions>
      </trkpt>
      <trkpt lat="36.8710490874946117401123046875" lon="-118.42918806709349155426025390625">
        <ele>2683.60009765625</ele>
        <time>2021-06-27T23:46:20.000Z</time>
        <extensions>
          <ns3:TrackPointExtension>
            <ns3:atemp>33.0</ns3:atemp>
            <ns3:hr>82</ns3:hr>
          </ns3:TrackPointExtension>
        </extensions>
      </trkpt>
      <trkpt lat="36.87110281549394130706787109375" lon="-118.4292391128838062286376953125">
        <ele>2683</ele>
        <time>2021-06-27T23:46:27.000Z</time>
        <extensions>
          <ns3:TrackPointExtension>
            <ns3:atemp>33.0</ns3:atemp>
            <ns3:hr>82</ns3:hr>
          </ns3:TrackPointExtension>
        </extensions>
      </trkpt>
      <trkpt lat="36.8711094371974468231201171875" lon="-118.4292469918727874755859375">
        <ele>2682.800048828125</ele>
        <time>2021-06-27T23:46:28.000Z</time>
        <extensions>
          <ns3:TrackPointExtension>
            <ns3:atemp>33.0</ns3:atemp>
            <ns3:hr>82</ns3:hr>
          </ns3:TrackPointExtension>
        </extensions>
      </trkpt>
      <trkpt lat="36.87110583297908306121826171875" lon="-118.4292890690267086029052734375">
        <ele>2681.60009765625</ele>
        <time>2021-06-27T23:46:33.000Z</time>
        <extensions>
          <ns3:TrackPointExtension>
            <ns3:atemp>33.0</ns3:atemp>
            <ns3:hr>82</ns3:hr>
          </ns3:TrackPointExtension>
        </extensions>
      </trkpt>
      <trkpt lat="36.871103905141353607177734375" lon="-118.42929669655859470367431640625">
        <ele>2681.60009765625</ele>
        <time>2021-06-27T23:46:34.000Z</time>
        <extensions>
          <ns3:TrackPointExtension>
            <ns3:atemp>33.0</ns3:atemp>
            <ns3:hr>82</ns3:hr>
          </ns3:TrackPointExtension>
        </extensions>
      </trkpt>
      <trkpt lat="36.87110030092298984527587890625" lon="-118.42931228689849376678466796875">
        <ele>2681.39990234375</ele>
        <time>2021-06-27T23:46:36.000Z</time>
        <extensions>
          <ns3:TrackPointExtension>
            <ns3:atemp>33.0</ns3:atemp>
            <ns3:hr>81</ns3:hr>
          </ns3:TrackPointExtension>
        </extensions>
      </trkpt>
      <trkpt lat="36.87111756764352321624755859375" lon="-118.42933642677962779998779296875">
        <ele>2681.199951171875</ele>
        <time>2021-06-27T23:46:39.000Z</time>
        <extensions>
          <ns3:TrackPointExtension>
            <ns3:atemp>33.0</ns3:atemp>
            <ns3:hr>81</ns3:hr>
          </ns3:TrackPointExtension>
        </extensions>
      </trkpt>
      <trkpt lat="36.87113064341247081756591796875" lon="-118.429342545568943023681640625">
        <ele>2680.800048828125</ele>
        <time>2021-06-27T23:46:40.000Z</time>
        <extensions>
          <ns3:TrackPointExtension>
            <ns3:atemp>33.0</ns3:atemp>
            <ns3:hr>81</ns3:hr>
          </ns3:TrackPointExtension>
        </extensions>
      </trkpt>
      <trkpt lat="36.87114422209560871124267578125" lon="-118.4293663501739501953125">
        <ele>2680.800048828125</ele>
        <time>2021-06-27T23:46:42.000Z</time>
        <extensions>
          <ns3:TrackPointExtension>
            <ns3:atemp>33.0</ns3:atemp>
            <ns3:hr>80</ns3:hr>
          </ns3:TrackPointExtension>
        </extensions>
      </trkpt>
      <trkpt lat="36.87114807777106761932373046875" lon="-118.429377079010009765625">
        <ele>2680.60009765625</ele>
        <time>2021-06-27T23:46:43.000Z</time>
        <extensions>
          <ns3:TrackPointExtension>
            <ns3:atemp>33.0</ns3:atemp>
            <ns3:hr>80</ns3:hr>
          </ns3:TrackPointExtension>
        </extensions>
      </trkpt>
      <trkpt lat="36.87115947715938091278076171875" lon="-118.4293930046260356903076171875">
        <ele>2680.39990234375</ele>
        <time>2021-06-27T23:46:45.000Z</time>
        <extensions>
          <ns3:TrackPointExtension>
            <ns3:atemp>33.0</ns3:atemp>
            <ns3:hr>80</ns3:hr>
          </ns3:TrackPointExtension>
        </extensions>
      </trkpt>
      <trkpt lat="36.87116668559610843658447265625" lon="-118.4294094331562519073486328125">
        <ele>2680.39990234375</ele>
        <time>2021-06-27T23:46:47.000Z</time>
        <extensions>
          <ns3:TrackPointExtension>
            <ns3:atemp>33.0</ns3:atemp>
            <ns3:hr>79</ns3:hr>
          </ns3:TrackPointExtension>
        </extensions>
      </trkpt>
      <trkpt lat="36.87117741443216800689697265625" lon="-118.4294158034026622772216796875">
        <ele>2679.60009765625</ele>
        <time>2021-06-27T23:46:49.000Z</time>
        <extensions>
          <ns3:TrackPointExtension>
            <ns3:atemp>33.0</ns3:atemp>
            <ns3:hr>78</ns3:hr>
          </ns3:TrackPointExtension>
        </extensions>
      </trkpt>
      <trkpt lat="36.87119082547724246978759765625" lon="-118.42946852557361125946044921875">
        <ele>2678.39990234375</ele>
        <time>2021-06-27T23:46:54.000Z</time>
        <extensions>
          <ns3:TrackPointExtension>
            <ns3:atemp>33.0</ns3:atemp>
            <ns3:hr>78</ns3:hr>
          </ns3:TrackPointExtension>
        </extensions>
      </trkpt>
      <trkpt lat="36.87119652517139911651611328125" lon="-118.429479338228702545166015625">
        <ele>2678.39990234375</ele>
        <time>2021-06-27T23:46:55.000Z</time>
        <extensions>
          <ns3:TrackPointExtension>
            <ns3:atemp>33.0</ns3:atemp>
            <ns3:hr>78</ns3:hr>
          </ns3:TrackPointExtension>
        </extensions>
      </trkpt>
      <trkpt lat="36.87120012938976287841796875" lon="-118.4294909052550792694091796875">
        <ele>2678.39990234375</ele>
        <time>2021-06-27T23:46:56.000Z</time>
        <extensions>
          <ns3:TrackPointExtension>
            <ns3:atemp>33.0</ns3:atemp>
            <ns3:hr>78</ns3:hr>
          </ns3:TrackPointExtension>
        </extensions>
      </trkpt>
      <trkpt lat="36.87120524235069751739501953125" lon="-118.42955066822469234466552734375">
        <ele>2678.199951171875</ele>
        <time>2021-06-27T23:47:01.000Z</time>
        <extensions>
          <ns3:TrackPointExtension>
            <ns3:atemp>33.0</ns3:atemp>
            <ns3:hr>81</ns3:hr>
          </ns3:TrackPointExtension>
        </extensions>
      </trkpt>
      <trkpt lat="36.871209181845188140869140625" lon="-118.4295594692230224609375">
        <ele>2678.199951171875</ele>
        <time>2021-06-27T23:47:02.000Z</time>
        <extensions>
          <ns3:TrackPointExtension>
            <ns3:atemp>33.0</ns3:atemp>
            <ns3:hr>78</ns3:hr>
          </ns3:TrackPointExtension>
        </extensions>
      </trkpt>
      <trkpt lat="36.87121362425386905670166015625" lon="-118.429582603275775909423828125">
        <ele>2678.199951171875</ele>
        <time>2021-06-27T23:47:03.000Z</time>
        <extensions>
          <ns3:TrackPointExtension>
            <ns3:atemp>33.0</ns3:atemp>
            <ns3:hr>79</ns3:hr>
          </ns3:TrackPointExtension>
        </extensions>
      </trkpt>
      <trkpt lat="36.87122988514602184295654296875" lon="-118.42963515780866146087646484375">
        <ele>2677.60009765625</ele>
        <time>2021-06-27T23:47:08.000Z</time>
        <extensions>
          <ns3:TrackPointExtension>
            <ns3:atemp>33.0</ns3:atemp>
            <ns3:hr>82</ns3:hr>
          </ns3:TrackPointExtension>
        </extensions>
      </trkpt>
      <trkpt lat="36.8712422065436840057373046875" lon="-118.4296625666320323944091796875">
        <ele>2677.39990234375</ele>
        <time>2021-06-27T23:47:10.000Z</time>
        <extensions>
          <ns3:TrackPointExtension>
            <ns3:atemp>34.0</ns3:atemp>
            <ns3:hr>83</ns3:hr>
          </ns3:TrackPointExtension>
        </extensions>
      </trkpt>
      <trkpt lat="36.87124036252498626708984375" lon="-118.42971595935523509979248046875">
        <ele>2677.199951171875</ele>
        <time>2021-06-27T23:47:15.000Z</time>
        <extensions>
          <ns3:TrackPointExtension>
            <ns3:atemp>34.0</ns3:atemp>
            <ns3:hr>83</ns3:hr>
          </ns3:TrackPointExtension>
        </extensions>
      </trkpt>
      <trkpt lat="36.87124379910528659820556640625" lon="-118.4297239221632480621337890625">
        <ele>2677.199951171875</ele>
        <time>2021-06-27T23:47:16.000Z</time>
        <extensions>
          <ns3:TrackPointExtension>
            <ns3:atemp>34.0</ns3:atemp>
            <ns3:hr>83</ns3:hr>
          </ns3:TrackPointExtension>
        </extensions>
      </trkpt>
      <trkpt lat="36.87127657234668731689453125" lon="-118.42976256273686885833740234375">
        <ele>2676.800048828125</ele>
        <time>2021-06-27T23:47:20.000Z</time>
        <extensions>
          <ns3:TrackPointExtension>
            <ns3:atemp>34.0</ns3:atemp>
            <ns3:hr>80</ns3:hr>
          </ns3:TrackPointExtension>
        </extensions>
      </trkpt>
      <trkpt lat="36.8712844513356685638427734375" lon="-118.42978008091449737548828125">
        <ele>2676.800048828125</ele>
        <time>2021-06-27T23:47:21.000Z</time>
        <extensions>
          <ns3:TrackPointExtension>
            <ns3:atemp>34.0</ns3:atemp>
            <ns3:hr>83</ns3:hr>
          </ns3:TrackPointExtension>
        </extensions>
      </trkpt>
      <trkpt lat="36.8712881393730640411376953125" lon="-118.4297966770827770233154296875">
        <ele>2676.39990234375</ele>
        <time>2021-06-27T23:47:22.000Z</time>
        <extensions>
          <ns3:TrackPointExtension>
            <ns3:atemp>34.0</ns3:atemp>
            <ns3:hr>83</ns3:hr>
          </ns3:TrackPointExtension>
        </extensions>
      </trkpt>
      <trkpt lat="36.87129400670528411865234375" lon="-118.42981084249913692474365234375">
        <ele>2676.199951171875</ele>
        <time>2021-06-27T23:47:23.000Z</time>
        <extensions>
          <ns3:TrackPointExtension>
            <ns3:atemp>34.0</ns3:atemp>
            <ns3:hr>82</ns3:hr>
          </ns3:TrackPointExtension>
        </extensions>
      </trkpt>
      <trkpt lat="36.8713877163827419281005859375" lon="-118.4299069829285144805908203125">
        <ele>2675.39990234375</ele>
        <time>2021-06-27T23:47:33.000Z</time>
        <extensions>
          <ns3:TrackPointExtension>
            <ns3:atemp>34.0</ns3:atemp>
            <ns3:hr>83</ns3:hr>
          </ns3:TrackPointExtension>
        </extensions>
      </trkpt>
      <trkpt lat="36.87141378410160541534423828125" lon="-118.4299408458173274993896484375">
        <ele>2675.199951171875</ele>
        <time>2021-06-27T23:47:37.000Z</time>
        <extensions>
          <ns3:TrackPointExtension>
            <ns3:atemp>34.0</ns3:atemp>
            <ns3:hr>85</ns3:hr>
          </ns3:TrackPointExtension>
        </extensions>
      </trkpt>
      <trkpt lat="36.8714373372495174407958984375" lon="-118.42996037565171718597412109375">
        <ele>2675.199951171875</ele>
        <time>2021-06-27T23:47:40.000Z</time>
        <extensions>
          <ns3:TrackPointExtension>
            <ns3:atemp>34.0</ns3:atemp>
            <ns3:hr>85</ns3:hr>
          </ns3:TrackPointExtension>
        </extensions>
      </trkpt>
      <trkpt lat="36.8714596331119537353515625" lon="-118.43000194989144802093505859375">
        <ele>2675.199951171875</ele>
        <time>2021-06-27T23:47:44.000Z</time>
        <extensions>
          <ns3:TrackPointExtension>
            <ns3:atemp>34.0</ns3:atemp>
            <ns3:hr>82</ns3:hr>
          </ns3:TrackPointExtension>
        </extensions>
      </trkpt>
      <trkpt lat="36.87150196172297000885009765625" lon="-118.4300679154694080352783203125">
        <ele>2674.800048828125</ele>
        <time>2021-06-27T23:47:51.000Z</time>
        <extensions>
          <ns3:TrackPointExtension>
            <ns3:atemp>34.0</ns3:atemp>
            <ns3:hr>81</ns3:hr>
          </ns3:TrackPointExtension>
        </extensions>
      </trkpt>
      <trkpt lat="36.87151704914867877960205078125" lon="-118.43011535704135894775390625">
        <ele>2675</ele>
        <time>2021-06-27T23:47:55.000Z</time>
        <extensions>
          <ns3:TrackPointExtension>
            <ns3:atemp>34.0</ns3:atemp>
            <ns3:hr>81</ns3:hr>
          </ns3:TrackPointExtension>
        </extensions>
      </trkpt>
      <trkpt lat="36.8715293705463409423828125" lon="-118.4301490522921085357666015625">
        <ele>2675</ele>
        <time>2021-06-27T23:47:58.000Z</time>
        <extensions>
          <ns3:TrackPointExtension>
            <ns3:atemp>34.0</ns3:atemp>
            <ns3:hr>81</ns3:hr>
          </ns3:TrackPointExtension>
        </extensions>
      </trkpt>
      <trkpt lat="36.8715486489236354827880859375" lon="-118.4302033670246601104736328125">
        <ele>2674.60009765625</ele>
        <time>2021-06-27T23:48:03.000Z</time>
        <extensions>
          <ns3:TrackPointExtension>
            <ns3:atemp>34.0</ns3:atemp>
            <ns3:hr>81</ns3:hr>
          </ns3:TrackPointExtension>
        </extensions>
      </trkpt>
      <trkpt lat="36.871564574539661407470703125" lon="-118.430222310125827789306640625">
        <ele>2674.60009765625</ele>
        <time>2021-06-27T23:48:05.000Z</time>
        <extensions>
          <ns3:TrackPointExtension>
            <ns3:atemp>34.0</ns3:atemp>
            <ns3:hr>80</ns3:hr>
          </ns3:TrackPointExtension>
        </extensions>
      </trkpt>
      <trkpt lat="36.87157739885151386260986328125" lon="-118.4302449412643909454345703125">
        <ele>2674.199951171875</ele>
        <time>2021-06-27T23:48:07.000Z</time>
        <extensions>
          <ns3:TrackPointExtension>
            <ns3:atemp>34.0</ns3:atemp>
            <ns3:hr>79</ns3:hr>
          </ns3:TrackPointExtension>
        </extensions>
      </trkpt>
      <trkpt lat="36.87160992063581943511962890625" lon="-118.43033504672348499298095703125">
        <ele>2673.60009765625</ele>
        <time>2021-06-27T23:48:14.000Z</time>
        <extensions>
          <ns3:TrackPointExtension>
            <ns3:atemp>34.0</ns3:atemp>
            <ns3:hr>77</ns3:hr>
          </ns3:TrackPointExtension>
        </extensions>
      </trkpt>
      <trkpt lat="36.871636994183063507080078125" lon="-118.43037997372448444366455078125">
        <ele>2672.60009765625</ele>
        <time>2021-06-27T23:48:18.000Z</time>
        <extensions>
          <ns3:TrackPointExtension>
            <ns3:atemp>34.0</ns3:atemp>
            <ns3:hr>77</ns3:hr>
          </ns3:TrackPointExtension>
        </extensions>
      </trkpt>
      <trkpt lat="36.87165099196135997772216796875" lon="-118.43040377832949161529541015625">
        <ele>2672.199951171875</ele>
        <time>2021-06-27T23:48:20.000Z</time>
        <extensions>
          <ns3:TrackPointExtension>
            <ns3:atemp>34.0</ns3:atemp>
            <ns3:hr>77</ns3:hr>
          </ns3:TrackPointExtension>
        </extensions>
      </trkpt>
      <trkpt lat="36.871657781302928924560546875" lon="-118.4304112382233142852783203125">
        <ele>2672</ele>
        <time>2021-06-27T23:48:21.000Z</time>
        <extensions>
          <ns3:TrackPointExtension>
            <ns3:atemp>34.0</ns3:atemp>
            <ns3:hr>77</ns3:hr>
          </ns3:TrackPointExtension>
        </extensions>
      </trkpt>
      <trkpt lat="36.87167714349925518035888671875" lon="-118.4304325282573699951171875">
        <ele>2671.39990234375</ele>
        <time>2021-06-27T23:48:23.000Z</time>
        <extensions>
          <ns3:TrackPointExtension>
            <ns3:atemp>34.0</ns3:atemp>
            <ns3:hr>76</ns3:hr>
          </ns3:TrackPointExtension>
        </extensions>
      </trkpt>
      <trkpt lat="36.8717001937329769134521484375" lon="-118.4304611943662166595458984375">
        <ele>2670.60009765625</ele>
        <time>2021-06-27T23:48:26.000Z</time>
        <extensions>
          <ns3:TrackPointExtension>
            <ns3:atemp>34.0</ns3:atemp>
            <ns3:hr>77</ns3:hr>
          </ns3:TrackPointExtension>
        </extensions>
      </trkpt>
      <trkpt lat="36.87172047793865203857421875" lon="-118.43047334812581539154052734375">
        <ele>2670.39990234375</ele>
        <time>2021-06-27T23:48:28.000Z</time>
        <extensions>
          <ns3:TrackPointExtension>
            <ns3:atemp>34.0</ns3:atemp>
            <ns3:hr>77</ns3:hr>
          </ns3:TrackPointExtension>
        </extensions>
      </trkpt>
      <trkpt lat="36.87172777019441127777099609375" lon="-118.43048156239092350006103515625">
        <ele>2670.199951171875</ele>
        <time>2021-06-27T23:48:29.000Z</time>
        <extensions>
          <ns3:TrackPointExtension>
            <ns3:atemp>34.0</ns3:atemp>
            <ns3:hr>77</ns3:hr>
          </ns3:TrackPointExtension>
        </extensions>
      </trkpt>
      <trkpt lat="36.871771104633808135986328125" lon="-118.43052347190678119659423828125">
        <ele>2669.199951171875</ele>
        <time>2021-06-27T23:48:35.000Z</time>
        <extensions>
          <ns3:TrackPointExtension>
            <ns3:atemp>34.0</ns3:atemp>
            <ns3:hr>77</ns3:hr>
          </ns3:TrackPointExtension>
        </extensions>
      </trkpt>
      <trkpt lat="36.87178627587854862213134765625" lon="-118.43054124154150485992431640625">
        <ele>2668.800048828125</ele>
        <time>2021-06-27T23:48:37.000Z</time>
        <extensions>
          <ns3:TrackPointExtension>
            <ns3:atemp>34.0</ns3:atemp>
            <ns3:hr>77</ns3:hr>
          </ns3:TrackPointExtension>
        </extensions>
      </trkpt>
      <trkpt lat="36.87180656008422374725341796875" lon="-118.4305788762867450714111328125">
        <ele>2668.39990234375</ele>
        <time>2021-06-27T23:48:41.000Z</time>
        <extensions>
          <ns3:TrackPointExtension>
            <ns3:atemp>34.0</ns3:atemp>
            <ns3:hr>79</ns3:hr>
          </ns3:TrackPointExtension>
        </extensions>
      </trkpt>
      <trkpt lat="36.8718282692134380340576171875" lon="-118.430590443313121795654296875">
        <ele>2667.199951171875</ele>
        <time>2021-06-27T23:48:43.000Z</time>
        <extensions>
          <ns3:TrackPointExtension>
            <ns3:atemp>34.0</ns3:atemp>
            <ns3:hr>79</ns3:hr>
          </ns3:TrackPointExtension>
        </extensions>
      </trkpt>
      <trkpt lat="36.8718524090945720672607421875" lon="-118.4306080453097820281982421875">
        <ele>2667</ele>
        <time>2021-06-27T23:48:46.000Z</time>
        <extensions>
          <ns3:TrackPointExtension>
            <ns3:atemp>34.0</ns3:atemp>
            <ns3:hr>79</ns3:hr>
          </ns3:TrackPointExtension>
        </extensions>
      </trkpt>
      <trkpt lat="36.87191787175834178924560546875" lon="-118.43064718879759311676025390625">
        <ele>2666</ele>
        <time>2021-06-27T23:48:53.000Z</time>
        <extensions>
          <ns3:TrackPointExtension>
            <ns3:atemp>34.0</ns3:atemp>
            <ns3:hr>80</ns3:hr>
          </ns3:TrackPointExtension>
        </extensions>
      </trkpt>
      <trkpt lat="36.87193094752728939056396484375" lon="-118.4306499548256397247314453125">
        <ele>2666</ele>
        <time>2021-06-27T23:48:54.000Z</time>
        <extensions>
          <ns3:TrackPointExtension>
            <ns3:atemp>34.0</ns3:atemp>
            <ns3:hr>80</ns3:hr>
          </ns3:TrackPointExtension>
        </extensions>
      </trkpt>
      <trkpt lat="36.871943436563014984130859375" lon="-118.43065272085368633270263671875">
        <ele>2665.60009765625</ele>
        <time>2021-06-27T23:48:55.000Z</time>
        <extensions>
          <ns3:TrackPointExtension>
            <ns3:atemp>34.0</ns3:atemp>
            <ns3:hr>80</ns3:hr>
          </ns3:TrackPointExtension>
        </extensions>
      </trkpt>
      <trkpt lat="36.87196279875934123992919921875" lon="-118.43066043220460414886474609375">
        <ele>2665.199951171875</ele>
        <time>2021-06-27T23:48:58.000Z</time>
        <extensions>
          <ns3:TrackPointExtension>
            <ns3:atemp>34.0</ns3:atemp>
            <ns3:hr>80</ns3:hr>
          </ns3:TrackPointExtension>
        </extensions>
      </trkpt>
      <trkpt lat="36.87197260558605194091796875" lon="-118.43066998757421970367431640625">
        <ele>2665</ele>
        <time>2021-06-27T23:48:59.000Z</time>
        <extensions>
          <ns3:TrackPointExtension>
            <ns3:atemp>34.0</ns3:atemp>
            <ns3:hr>80</ns3:hr>
          </ns3:TrackPointExtension>
        </extensions>
      </trkpt>
      <trkpt lat="36.8719878606498241424560546875" lon="-118.430693708360195159912109375">
        <ele>2665</ele>
        <time>2021-06-27T23:49:01.000Z</time>
        <extensions>
          <ns3:TrackPointExtension>
            <ns3:atemp>33.0</ns3:atemp>
            <ns3:hr>81</ns3:hr>
          </ns3:TrackPointExtension>
        </extensions>
      </trkpt>
      <trkpt lat="36.87201811932027339935302734375" lon="-118.43073603697121143341064453125">
        <ele>2664.800048828125</ele>
        <time>2021-06-27T23:49:06.000Z</time>
        <extensions>
          <ns3:TrackPointExtension>
            <ns3:atemp>33.0</ns3:atemp>
            <ns3:hr>84</ns3:hr>
          </ns3:TrackPointExtension>
        </extensions>
      </trkpt>
      <trkpt lat="36.8720497190952301025390625" lon="-118.4307693131268024444580078125">
        <ele>2664</ele>
        <time>2021-06-27T23:49:09.000Z</time>
        <extensions>
          <ns3:TrackPointExtension>
            <ns3:atemp>33.0</ns3:atemp>
            <ns3:hr>85</ns3:hr>
          </ns3:TrackPointExtension>
        </extensions>
      </trkpt>
      <trkpt lat="36.872060112655162811279296875" lon="-118.43077727593481540679931640625">
        <ele>2664</ele>
        <time>2021-06-27T23:49:10.000Z</time>
        <extensions>
          <ns3:TrackPointExtension>
            <ns3:atemp>33.0</ns3:atemp>
            <ns3:hr>85</ns3:hr>
          </ns3:TrackPointExtension>
        </extensions>
      </trkpt>
      <trkpt lat="36.8720673210918903350830078125" lon="-118.4308254718780517578125">
        <ele>2663.39990234375</ele>
        <time>2021-06-27T23:49:13.000Z</time>
        <extensions>
          <ns3:TrackPointExtension>
            <ns3:atemp>33.0</ns3:atemp>
            <ns3:hr>85</ns3:hr>
          </ns3:TrackPointExtension>
        </extensions>
      </trkpt>
      <trkpt lat="36.87210671603679656982421875" lon="-118.43086612410843372344970703125">
        <ele>2663.199951171875</ele>
        <time>2021-06-27T23:49:17.000Z</time>
        <extensions>
          <ns3:TrackPointExtension>
            <ns3:atemp>33.0</ns3:atemp>
            <ns3:hr>86</ns3:hr>
          </ns3:TrackPointExtension>
        </extensions>
      </trkpt>
      <trkpt lat="36.8721119128167629241943359375" lon="-118.4308759309351444244384765625">
        <ele>2662.800048828125</ele>
        <time>2021-06-27T23:49:18.000Z</time>
        <extensions>
          <ns3:TrackPointExtension>
            <ns3:atemp>33.0</ns3:atemp>
            <ns3:hr>86</ns3:hr>
          </ns3:TrackPointExtension>
        </extensions>
      </trkpt>
      <trkpt lat="36.87211685813963413238525390625" lon="-118.430914320051670074462890625">
        <ele>2662.39990234375</ele>
        <time>2021-06-27T23:49:21.000Z</time>
        <extensions>
          <ns3:TrackPointExtension>
            <ns3:atemp>33.0</ns3:atemp>
            <ns3:hr>84</ns3:hr>
          </ns3:TrackPointExtension>
        </extensions>
      </trkpt>
      <trkpt lat="36.87213663943111896514892578125" lon="-118.43094022013247013092041015625">
        <ele>2661.60009765625</ele>
        <time>2021-06-27T23:49:24.000Z</time>
        <extensions>
          <ns3:TrackPointExtension>
            <ns3:atemp>33.0</ns3:atemp>
            <ns3:hr>83</ns3:hr>
          </ns3:TrackPointExtension>
        </extensions>
      </trkpt>
      <trkpt lat="36.8721679039299488067626953125" lon="-118.43101926147937774658203125">
        <ele>2660.60009765625</ele>
        <time>2021-06-27T23:49:32.000Z</time>
        <extensions>
          <ns3:TrackPointExtension>
            <ns3:atemp>33.0</ns3:atemp>
            <ns3:hr>83</ns3:hr>
          </ns3:TrackPointExtension>
        </extensions>
      </trkpt>
      <trkpt lat="36.872194893658161163330078125" lon="-118.43104365281760692596435546875">
        <ele>2660.60009765625</ele>
        <time>2021-06-27T23:49:35.000Z</time>
        <extensions>
          <ns3:TrackPointExtension>
            <ns3:atemp>33.0</ns3:atemp>
            <ns3:hr>83</ns3:hr>
          </ns3:TrackPointExtension>
        </extensions>
      </trkpt>
      <trkpt lat="36.8722245655953884124755859375" lon="-118.431058824062347412109375">
        <ele>2659.60009765625</ele>
        <time>2021-06-27T23:49:38.000Z</time>
        <extensions>
          <ns3:TrackPointExtension>
            <ns3:atemp>33.0</ns3:atemp>
            <ns3:hr>82</ns3:hr>
          </ns3:TrackPointExtension>
        </extensions>
      </trkpt>
      <trkpt lat="36.8722352944314479827880859375" lon="-118.43108857981860637664794921875">
        <ele>2659.39990234375</ele>
        <time>2021-06-27T23:49:42.000Z</time>
        <extensions>
          <ns3:TrackPointExtension>
            <ns3:atemp>33.0</ns3:atemp>
            <ns3:hr>81</ns3:hr>
          </ns3:TrackPointExtension>
        </extensions>
      </trkpt>
      <trkpt lat="36.872237138450145721435546875" lon="-118.4311112947762012481689453125">
        <ele>2658.199951171875</ele>
        <time>2021-06-27T23:49:44.000Z</time>
        <extensions>
          <ns3:TrackPointExtension>
            <ns3:atemp>33.0</ns3:atemp>
            <ns3:hr>80</ns3:hr>
          </ns3:TrackPointExtension>
        </extensions>
      </trkpt>
      <trkpt lat="36.872247196733951568603515625" lon="-118.43114138580858707427978515625">
        <ele>2657.39990234375</ele>
        <time>2021-06-27T23:49:47.000Z</time>
        <extensions>
          <ns3:TrackPointExtension>
            <ns3:atemp>33.0</ns3:atemp>
            <ns3:hr>77</ns3:hr>
          </ns3:TrackPointExtension>
        </extensions>
      </trkpt>
      <trkpt lat="36.8722684867680072784423828125" lon="-118.431164436042308807373046875">
        <ele>2657.199951171875</ele>
        <time>2021-06-27T23:49:50.000Z</time>
        <extensions>
          <ns3:TrackPointExtension>
            <ns3:atemp>33.0</ns3:atemp>
            <ns3:hr>77</ns3:hr>
          </ns3:TrackPointExtension>
        </extensions>
      </trkpt>
      <trkpt lat="36.8722718395292758941650390625" lon="-118.431173823773860931396484375">
        <ele>2657.199951171875</ele>
        <time>2021-06-27T23:49:51.000Z</time>
        <extensions>
          <ns3:TrackPointExtension>
            <ns3:atemp>33.0</ns3:atemp>
            <ns3:hr>77</ns3:hr>
          </ns3:TrackPointExtension>
        </extensions>
      </trkpt>
      <trkpt lat="36.87229572795331478118896484375" lon="-118.4312205947935581207275390625">
        <ele>2656.39990234375</ele>
        <time>2021-06-27T23:49:57.000Z</time>
        <extensions>
          <ns3:TrackPointExtension>
            <ns3:atemp>33.0</ns3:atemp>
            <ns3:hr>77</ns3:hr>
          </ns3:TrackPointExtension>
        </extensions>
      </trkpt>
      <trkpt lat="36.87230260111391544342041015625" lon="-118.43124146573245525360107421875">
        <ele>2656.199951171875</ele>
        <time>2021-06-27T23:49:59.000Z</time>
        <extensions>
          <ns3:TrackPointExtension>
            <ns3:atemp>33.0</ns3:atemp>
            <ns3:hr>76</ns3:hr>
          </ns3:TrackPointExtension>
        </extensions>
      </trkpt>
      <trkpt lat="36.87233646400272846221923828125" lon="-118.4312640130519866943359375">
        <ele>2655.60009765625</ele>
        <time>2021-06-27T23:50:03.000Z</time>
        <extensions>
          <ns3:TrackPointExtension>
            <ns3:atemp>33.0</ns3:atemp>
            <ns3:hr>75</ns3:hr>
          </ns3:TrackPointExtension>
        </extensions>
      </trkpt>
      <trkpt lat="36.87237988226115703582763671875" lon="-118.43130902387201786041259765625">
        <ele>2655</ele>
        <time>2021-06-27T23:50:08.000Z</time>
        <extensions>
          <ns3:TrackPointExtension>
            <ns3:atemp>34.0</ns3:atemp>
            <ns3:hr>75</ns3:hr>
          </ns3:TrackPointExtension>
        </extensions>
      </trkpt>
      <trkpt lat="36.872399412095546722412109375" lon="-118.4313426353037357330322265625">
        <ele>2654.39990234375</ele>
        <time>2021-06-27T23:50:12.000Z</time>
        <extensions>
          <ns3:TrackPointExtension>
            <ns3:atemp>34.0</ns3:atemp>
            <ns3:hr>75</ns3:hr>
          </ns3:TrackPointExtension>
        </extensions>
      </trkpt>
      <trkpt lat="36.87243252061307430267333984375" lon="-118.43140818178653717041015625">
        <ele>2653.800048828125</ele>
        <time>2021-06-27T23:50:18.000Z</time>
        <extensions>
          <ns3:TrackPointExtension>
            <ns3:atemp>34.0</ns3:atemp>
            <ns3:hr>72</ns3:hr>
          </ns3:TrackPointExtension>
        </extensions>
      </trkpt>
      <trkpt lat="36.87244442291557788848876953125" lon="-118.43142938800156116485595703125">
        <ele>2653.199951171875</ele>
        <time>2021-06-27T23:50:21.000Z</time>
        <extensions>
          <ns3:TrackPointExtension>
            <ns3:atemp>34.0</ns3:atemp>
            <ns3:hr>71</ns3:hr>
          </ns3:TrackPointExtension>
        </extensions>
      </trkpt>
      <trkpt lat="36.872442327439785003662109375" lon="-118.43144112266600131988525390625">
        <ele>2652.800048828125</ele>
        <time>2021-06-27T23:50:23.000Z</time>
        <extensions>
          <ns3:TrackPointExtension>
            <ns3:atemp>34.0</ns3:atemp>
            <ns3:hr>71</ns3:hr>
          </ns3:TrackPointExtension>
        </extensions>
      </trkpt>
      <trkpt lat="36.8724099732935428619384765625" lon="-118.431468196213245391845703125">
        <ele>2651.60009765625</ele>
        <time>2021-06-27T23:50:27.000Z</time>
        <extensions>
          <ns3:TrackPointExtension>
            <ns3:atemp>34.0</ns3:atemp>
            <ns3:hr>71</ns3:hr>
          </ns3:TrackPointExtension>
        </extensions>
      </trkpt>
      <trkpt lat="36.872399412095546722412109375" lon="-118.4314666874706745147705078125">
        <ele>2651.39990234375</ele>
        <time>2021-06-27T23:50:28.000Z</time>
        <extensions>
          <ns3:TrackPointExtension>
            <ns3:atemp>34.0</ns3:atemp>
            <ns3:hr>71</ns3:hr>
          </ns3:TrackPointExtension>
        </extensions>
      </trkpt>
      <trkpt lat="36.8723903596401214599609375" lon="-118.4314653463661670684814453125">
        <ele>2651.39990234375</ele>
        <time>2021-06-27T23:50:29.000Z</time>
        <extensions>
          <ns3:TrackPointExtension>
            <ns3:atemp>33.0</ns3:atemp>
            <ns3:hr>71</ns3:hr>
          </ns3:TrackPointExtension>
        </extensions>
      </trkpt>
      <trkpt lat="36.87236060388386249542236328125" lon="-118.43151035718619823455810546875">
        <ele>2650.39990234375</ele>
        <time>2021-06-27T23:50:33.000Z</time>
        <extensions>
          <ns3:TrackPointExtension>
            <ns3:atemp>33.0</ns3:atemp>
            <ns3:hr>73</ns3:hr>
          </ns3:TrackPointExtension>
        </extensions>
      </trkpt>
      <trkpt lat="36.8723179399967193603515625" lon="-118.4315709583461284637451171875">
        <ele>2650.199951171875</ele>
        <time>2021-06-27T23:50:40.000Z</time>
        <extensions>
          <ns3:TrackPointExtension>
            <ns3:atemp>34.0</ns3:atemp>
            <ns3:hr>74</ns3:hr>
          </ns3:TrackPointExtension>
        </extensions>
      </trkpt>
      <trkpt lat="36.87227024696767330169677734375" lon="-118.4317038953304290771484375">
        <ele>2649.800048828125</ele>
        <time>2021-06-27T23:50:50.000Z</time>
        <extensions>
          <ns3:TrackPointExtension>
            <ns3:atemp>33.0</ns3:atemp>
            <ns3:hr>76</ns3:hr>
          </ns3:TrackPointExtension>
        </extensions>
      </trkpt>
      <trkpt lat="36.8722463585436344146728515625" lon="-118.43180783092975616455078125">
        <ele>2649.39990234375</ele>
        <time>2021-06-27T23:50:58.000Z</time>
        <extensions>
          <ns3:TrackPointExtension>
            <ns3:atemp>34.0</ns3:atemp>
            <ns3:hr>78</ns3:hr>
          </ns3:TrackPointExtension>
        </extensions>
      </trkpt>
      <trkpt lat="36.87224376015365123748779296875" lon="-118.431823588907718658447265625">
        <ele>2649</ele>
        <time>2021-06-27T23:50:59.000Z</time>
        <extensions>
          <ns3:TrackPointExtension>
            <ns3:atemp>34.0</ns3:atemp>
            <ns3:hr>79</ns3:hr>
          </ns3:TrackPointExtension>
        </extensions>
      </trkpt>
      <trkpt lat="36.87223487533628940582275390625" lon="-118.431856445968151092529296875">
        <ele>2648.199951171875</ele>
        <time>2021-06-27T23:51:01.000Z</time>
        <extensions>
          <ns3:TrackPointExtension>
            <ns3:atemp>34.0</ns3:atemp>
            <ns3:hr>78</ns3:hr>
          </ns3:TrackPointExtension>
        </extensions>
      </trkpt>
      <trkpt lat="36.8722212128341197967529296875" lon="-118.43197010457515716552734375">
        <ele>2648.199951171875</ele>
        <time>2021-06-27T23:51:09.000Z</time>
        <extensions>
          <ns3:TrackPointExtension>
            <ns3:atemp>34.0</ns3:atemp>
            <ns3:hr>78</ns3:hr>
          </ns3:TrackPointExtension>
        </extensions>
      </trkpt>
      <trkpt lat="36.87221668660640716552734375" lon="-118.43200321309268474578857421875">
        <ele>2648.199951171875</ele>
        <time>2021-06-27T23:51:12.000Z</time>
        <extensions>
          <ns3:TrackPointExtension>
            <ns3:atemp>34.0</ns3:atemp>
            <ns3:hr>75</ns3:hr>
          </ns3:TrackPointExtension>
        </extensions>
      </trkpt>
      <trkpt lat="36.872227080166339874267578125" lon="-118.43208217062056064605712890625">
        <ele>2647.60009765625</ele>
        <time>2021-06-27T23:51:18.000Z</time>
        <extensions>
          <ns3:TrackPointExtension>
            <ns3:atemp>34.0</ns3:atemp>
            <ns3:hr>75</ns3:hr>
          </ns3:TrackPointExtension>
        </extensions>
      </trkpt>
      <trkpt lat="36.8722302652895450592041015625" lon="-118.432110249996185302734375">
        <ele>2647.199951171875</ele>
        <time>2021-06-27T23:51:21.000Z</time>
        <extensions>
          <ns3:TrackPointExtension>
            <ns3:atemp>33.0</ns3:atemp>
            <ns3:hr>76</ns3:hr>
          </ns3:TrackPointExtension>
        </extensions>
      </trkpt>
      <trkpt lat="36.87222984619438648223876953125" lon="-118.4321464598178863525390625">
        <ele>2647</ele>
        <time>2021-06-27T23:51:24.000Z</time>
        <extensions>
          <ns3:TrackPointExtension>
            <ns3:atemp>33.0</ns3:atemp>
            <ns3:hr>77</ns3:hr>
          </ns3:TrackPointExtension>
        </extensions>
      </trkpt>
      <trkpt lat="36.87221861444413661956787109375" lon="-118.43221016228199005126953125">
        <ele>2646.39990234375</ele>
        <time>2021-06-27T23:51:30.000Z</time>
        <extensions>
          <ns3:TrackPointExtension>
            <ns3:atemp>33.0</ns3:atemp>
            <ns3:hr>75</ns3:hr>
          </ns3:TrackPointExtension>
        </extensions>
      </trkpt>
      <trkpt lat="36.87221257947385311126708984375" lon="-118.43222030438482761383056640625">
        <ele>2646.199951171875</ele>
        <time>2021-06-27T23:51:31.000Z</time>
        <extensions>
          <ns3:TrackPointExtension>
            <ns3:atemp>33.0</ns3:atemp>
            <ns3:hr>75</ns3:hr>
          </ns3:TrackPointExtension>
        </extensions>
      </trkpt>
      <trkpt lat="36.8722074665129184722900390625" lon="-118.43225550837814807891845703125">
        <ele>2646</ele>
        <time>2021-06-27T23:51:33.000Z</time>
        <extensions>
          <ns3:TrackPointExtension>
            <ns3:atemp>33.0</ns3:atemp>
            <ns3:hr>74</ns3:hr>
          </ns3:TrackPointExtension>
        </extensions>
      </trkpt>
      <trkpt lat="36.8722064606845378875732421875" lon="-118.432318456470966339111328125">
        <ele>2645</ele>
        <time>2021-06-27T23:51:40.000Z</time>
        <extensions>
          <ns3:TrackPointExtension>
            <ns3:atemp>33.0</ns3:atemp>
            <ns3:hr>72</ns3:hr>
          </ns3:TrackPointExtension>
        </extensions>
      </trkpt>
      <trkpt lat="36.87221207655966281890869140625" lon="-118.43233614228665828704833984375">
        <ele>2645</ele>
        <time>2021-06-27T23:51:41.000Z</time>
        <extensions>
          <ns3:TrackPointExtension>
            <ns3:atemp>33.0</ns3:atemp>
            <ns3:hr>73</ns3:hr>
          </ns3:TrackPointExtension>
        </extensions>
      </trkpt>
      <trkpt lat="36.87221760861575603485107421875" lon="-118.4323467873036861419677734375">
        <ele>2645</ele>
        <time>2021-06-27T23:51:42.000Z</time>
        <extensions>
          <ns3:TrackPointExtension>
            <ns3:atemp>33.0</ns3:atemp>
            <ns3:hr>73</ns3:hr>
          </ns3:TrackPointExtension>
        </extensions>
      </trkpt>
      <trkpt lat="36.87225046567618846893310546875" lon="-118.432431779801845550537109375">
        <ele>2644</ele>
        <time>2021-06-27T23:51:48.000Z</time>
        <extensions>
          <ns3:TrackPointExtension>
            <ns3:atemp>33.0</ns3:atemp>
            <ns3:hr>75</ns3:hr>
          </ns3:TrackPointExtension>
        </extensions>
      </trkpt>
      <trkpt lat="36.87226421199738979339599609375" lon="-118.4324550814926624298095703125">
        <ele>2643.199951171875</ele>
        <time>2021-06-27T23:51:51.000Z</time>
        <extensions>
          <ns3:TrackPointExtension>
            <ns3:atemp>33.0</ns3:atemp>
            <ns3:hr>76</ns3:hr>
          </ns3:TrackPointExtension>
        </extensions>
      </trkpt>
      <trkpt lat="36.8722768686711788177490234375" lon="-118.43246287666261196136474609375">
        <ele>2643</ele>
        <time>2021-06-27T23:51:54.000Z</time>
        <extensions>
          <ns3:TrackPointExtension>
            <ns3:atemp>34.0</ns3:atemp>
            <ns3:hr>76</ns3:hr>
          </ns3:TrackPointExtension>
        </extensions>
      </trkpt>
      <trkpt lat="36.87228717841207981109619140625" lon="-118.43248215503990650177001953125">
        <ele>2643</ele>
        <time>2021-06-27T23:51:58.000Z</time>
        <extensions>
          <ns3:TrackPointExtension>
            <ns3:atemp>34.0</ns3:atemp>
            <ns3:hr>75</ns3:hr>
          </ns3:TrackPointExtension>
        </extensions>
      </trkpt>
      <trkpt lat="36.87233076430857181549072265625" lon="-118.43251191079616546630859375">
        <ele>2642.800048828125</ele>
        <time>2021-06-27T23:52:02.000Z</time>
        <extensions>
          <ns3:TrackPointExtension>
            <ns3:atemp>34.0</ns3:atemp>
            <ns3:hr>73</ns3:hr>
          </ns3:TrackPointExtension>
        </extensions>
      </trkpt>
      <trkpt lat="36.872362196445465087890625" lon="-118.4325378946959972381591796875">
        <ele>2642.39990234375</ele>
        <time>2021-06-27T23:52:05.000Z</time>
        <extensions>
          <ns3:TrackPointExtension>
            <ns3:atemp>34.0</ns3:atemp>
            <ns3:hr>70</ns3:hr>
          </ns3:TrackPointExtension>
        </extensions>
      </trkpt>
      <trkpt lat="36.872392036020755767822265625" lon="-118.43254954554140567779541015625">
        <ele>2642.39990234375</ele>
        <time>2021-06-27T23:52:08.000Z</time>
        <extensions>
          <ns3:TrackPointExtension>
            <ns3:atemp>34.0</ns3:atemp>
            <ns3:hr>69</ns3:hr>
          </ns3:TrackPointExtension>
        </extensions>
      </trkpt>
      <trkpt lat="36.87242933548986911773681640625" lon="-118.432578630745410919189453125">
        <ele>2642.39990234375</ele>
        <time>2021-06-27T23:52:13.000Z</time>
        <extensions>
          <ns3:TrackPointExtension>
            <ns3:atemp>34.0</ns3:atemp>
            <ns3:hr>69</ns3:hr>
          </ns3:TrackPointExtension>
        </extensions>
      </trkpt>
      <trkpt lat="36.87243084423243999481201171875" lon="-118.432591371238231658935546875">
        <ele>2642.60009765625</ele>
        <time>2021-06-27T23:52:15.000Z</time>
        <extensions>
          <ns3:TrackPointExtension>
            <ns3:atemp>34.0</ns3:atemp>
            <ns3:hr>70</ns3:hr>
          </ns3:TrackPointExtension>
        </extensions>
      </trkpt>
      <trkpt lat="36.8724468536674976348876953125" lon="-118.4326173551380634307861328125">
        <ele>2643</ele>
        <time>2021-06-27T23:52:18.000Z</time>
        <extensions>
          <ns3:TrackPointExtension>
            <ns3:atemp>34.0</ns3:atemp>
            <ns3:hr>72</ns3:hr>
          </ns3:TrackPointExtension>
        </extensions>
      </trkpt>
      <trkpt lat="36.8724535591900348663330078125" lon="-118.4326378069818019866943359375">
        <ele>2643</ele>
        <time>2021-06-27T23:52:20.000Z</time>
        <extensions>
          <ns3:TrackPointExtension>
            <ns3:atemp>34.0</ns3:atemp>
            <ns3:hr>72</ns3:hr>
          </ns3:TrackPointExtension>
        </extensions>
      </trkpt>
      <trkpt lat="36.87245674431324005126953125" lon="-118.43266085721552371978759765625">
        <ele>2643.199951171875</ele>
        <time>2021-06-27T23:52:22.000Z</time>
        <extensions>
          <ns3:TrackPointExtension>
            <ns3:atemp>34.0</ns3:atemp>
            <ns3:hr>75</ns3:hr>
          </ns3:TrackPointExtension>
        </extensions>
      </trkpt>
      <trkpt lat="36.87251935712993144989013671875" lon="-118.43275087885558605194091796875">
        <ele>2643</ele>
        <time>2021-06-27T23:52:30.000Z</time>
        <extensions>
          <ns3:TrackPointExtension>
            <ns3:atemp>34.0</ns3:atemp>
            <ns3:hr>75</ns3:hr>
          </ns3:TrackPointExtension>
        </extensions>
      </trkpt>
      <trkpt lat="36.8725217878818511962890625" lon="-118.43276864849030971527099609375">
        <ele>2642.800048828125</ele>
        <time>2021-06-27T23:52:32.000Z</time>
        <extensions>
          <ns3:TrackPointExtension>
            <ns3:atemp>34.0</ns3:atemp>
            <ns3:hr>79</ns3:hr>
          </ns3:TrackPointExtension>
        </extensions>
      </trkpt>
      <trkpt lat="36.8725450895726680755615234375" lon="-118.4328062832355499267578125">
        <ele>2642.60009765625</ele>
        <time>2021-06-27T23:52:35.000Z</time>
        <extensions>
          <ns3:TrackPointExtension>
            <ns3:atemp>34.0</ns3:atemp>
            <ns3:hr>82</ns3:hr>
          </ns3:TrackPointExtension>
        </extensions>
      </trkpt>
      <trkpt lat="36.87255238182842731475830078125" lon="-118.4328151680529117584228515625">
        <ele>2642.60009765625</ele>
        <time>2021-06-27T23:52:36.000Z</time>
        <extensions>
          <ns3:TrackPointExtension>
            <ns3:atemp>34.0</ns3:atemp>
            <ns3:hr>79</ns3:hr>
          </ns3:TrackPointExtension>
        </extensions>
      </trkpt>
      <trkpt lat="36.8725581653416156768798828125" lon="-118.4328349493443965911865234375">
        <ele>2642.60009765625</ele>
        <time>2021-06-27T23:52:38.000Z</time>
        <extensions>
          <ns3:TrackPointExtension>
            <ns3:atemp>34.0</ns3:atemp>
            <ns3:hr>78</ns3:hr>
          </ns3:TrackPointExtension>
        </extensions>
      </trkpt>
      <trkpt lat="36.8725675530731678009033203125" lon="-118.43288599513471126556396484375">
        <ele>2642</ele>
        <time>2021-06-27T23:52:45.000Z</time>
        <extensions>
          <ns3:TrackPointExtension>
            <ns3:atemp>34.0</ns3:atemp>
            <ns3:hr>78</ns3:hr>
          </ns3:TrackPointExtension>
        </extensions>
      </trkpt>
      <trkpt lat="36.8725735880434513092041015625" lon="-118.432898484170436859130859375">
        <ele>2641.800048828125</ele>
        <time>2021-06-27T23:52:46.000Z</time>
        <extensions>
          <ns3:TrackPointExtension>
            <ns3:atemp>34.0</ns3:atemp>
            <ns3:hr>79</ns3:hr>
          </ns3:TrackPointExtension>
        </extensions>
      </trkpt>
      <trkpt lat="36.87257987447082996368408203125" lon="-118.4329040162265300750732421875">
        <ele>2641.800048828125</ele>
        <time>2021-06-27T23:52:47.000Z</time>
        <extensions>
          <ns3:TrackPointExtension>
            <ns3:atemp>34.0</ns3:atemp>
            <ns3:hr>79</ns3:hr>
          </ns3:TrackPointExtension>
        </extensions>
      </trkpt>
      <trkpt lat="36.87256629578769207000732421875" lon="-118.4329430758953094482421875">
        <ele>2641.199951171875</ele>
        <time>2021-06-27T23:52:53.000Z</time>
        <extensions>
          <ns3:TrackPointExtension>
            <ns3:atemp>34.0</ns3:atemp>
            <ns3:hr>78</ns3:hr>
          </ns3:TrackPointExtension>
        </extensions>
      </trkpt>
      <trkpt lat="36.872560679912567138671875" lon="-118.432973586022853851318359375">
        <ele>2640.60009765625</ele>
        <time>2021-06-27T23:52:57.000Z</time>
        <extensions>
          <ns3:TrackPointExtension>
            <ns3:atemp>34.0</ns3:atemp>
            <ns3:hr>80</ns3:hr>
          </ns3:TrackPointExtension>
        </extensions>
      </trkpt>
      <trkpt lat="36.87254282645881175994873046875" lon="-118.433000743389129638671875">
        <ele>2640.60009765625</ele>
        <time>2021-06-27T23:53:00.000Z</time>
        <extensions>
          <ns3:TrackPointExtension>
            <ns3:atemp>34.0</ns3:atemp>
            <ns3:hr>78</ns3:hr>
          </ns3:TrackPointExtension>
        </extensions>
      </trkpt>
      <trkpt lat="36.87253276817500591278076171875" lon="-118.43301524408161640167236328125">
        <ele>2640.60009765625</ele>
        <time>2021-06-27T23:53:02.000Z</time>
        <extensions>
          <ns3:TrackPointExtension>
            <ns3:atemp>34.0</ns3:atemp>
            <ns3:hr>77</ns3:hr>
          </ns3:TrackPointExtension>
        </extensions>
      </trkpt>
      <trkpt lat="36.8725135736167430877685546875" lon="-118.4330501966178417205810546875">
        <ele>2640.39990234375</ele>
        <time>2021-06-27T23:53:08.000Z</time>
        <extensions>
          <ns3:TrackPointExtension>
            <ns3:atemp>34.0</ns3:atemp>
            <ns3:hr>79</ns3:hr>
          </ns3:TrackPointExtension>
        </extensions>
      </trkpt>
      <trkpt lat="36.87251969240605831146240234375" lon="-118.43302446417510509490966796875">
        <ele>2640</ele>
        <time>2021-06-27T23:53:10.000Z</time>
        <extensions>
          <ns3:TrackPointExtension>
            <ns3:atemp>34.0</ns3:atemp>
            <ns3:hr>80</ns3:hr>
          </ns3:TrackPointExtension>
        </extensions>
      </trkpt>
      <trkpt lat="36.8725209496915340423583984375" lon="-118.4330109693109989166259765625">
        <ele>2640</ele>
        <time>2021-06-27T23:53:12.000Z</time>
        <extensions>
          <ns3:TrackPointExtension>
            <ns3:atemp>34.0</ns3:atemp>
            <ns3:hr>83</ns3:hr>
          </ns3:TrackPointExtension>
        </extensions>
      </trkpt>
      <trkpt lat="36.872513405978679656982421875" lon="-118.4330424852669239044189453125">
        <ele>2639.60009765625</ele>
        <time>2021-06-27T23:53:16.000Z</time>
        <extensions>
          <ns3:TrackPointExtension>
            <ns3:atemp>34.0</ns3:atemp>
            <ns3:hr>85</ns3:hr>
          </ns3:TrackPointExtension>
        </extensions>
      </trkpt>
      <trkpt lat="36.87250829301774501800537109375" lon="-118.4330840595066547393798828125">
        <ele>2639</ele>
        <time>2021-06-27T23:53:19.000Z</time>
        <extensions>
          <ns3:TrackPointExtension>
            <ns3:atemp>34.0</ns3:atemp>
            <ns3:hr>86</ns3:hr>
          </ns3:TrackPointExtension>
        </extensions>
      </trkpt>
      <trkpt lat="36.87251977622509002685546875" lon="-118.433168716728687286376953125">
        <ele>2638.800048828125</ele>
        <time>2021-06-27T23:53:25.000Z</time>
        <extensions>
          <ns3:TrackPointExtension>
            <ns3:atemp>34.0</ns3:atemp>
            <ns3:hr>86</ns3:hr>
          </ns3:TrackPointExtension>
        </extensions>
      </trkpt>
      <trkpt lat="36.87251768074929714202880859375" lon="-118.43318170867860317230224609375">
        <ele>2638.60009765625</ele>
        <time>2021-06-27T23:53:26.000Z</time>
        <extensions>
          <ns3:TrackPointExtension>
            <ns3:atemp>34.0</ns3:atemp>
            <ns3:hr>85</ns3:hr>
          </ns3:TrackPointExtension>
        </extensions>
      </trkpt>
      <trkpt lat="36.87249521724879741668701171875" lon="-118.4332178346812725067138671875">
        <ele>2638.199951171875</ele>
        <time>2021-06-27T23:53:33.000Z</time>
        <extensions>
          <ns3:TrackPointExtension>
            <ns3:atemp>34.0</ns3:atemp>
            <ns3:hr>87</ns3:hr>
          </ns3:TrackPointExtension>
        </extensions>
      </trkpt>
      <trkpt lat="36.87248985283076763153076171875" lon="-118.43322713859379291534423828125">
        <ele>2638.199951171875</ele>
        <time>2021-06-27T23:53:34.000Z</time>
        <extensions>
          <ns3:TrackPointExtension>
            <ns3:atemp>34.0</ns3:atemp>
            <ns3:hr>84</ns3:hr>
          </ns3:TrackPointExtension>
        </extensions>
      </trkpt>
      <trkpt lat="36.8724840693175792694091796875" lon="-118.43323786742985248565673828125">
        <ele>2638.199951171875</ele>
        <time>2021-06-27T23:53:35.000Z</time>
        <extensions>
          <ns3:TrackPointExtension>
            <ns3:atemp>34.0</ns3:atemp>
            <ns3:hr>84</ns3:hr>
          </ns3:TrackPointExtension>
        </extensions>
      </trkpt>
      <trkpt lat="36.87246705405414104461669921875" lon="-118.433279357850551605224609375">
        <ele>2637.60009765625</ele>
        <time>2021-06-27T23:53:38.000Z</time>
        <extensions>
          <ns3:TrackPointExtension>
            <ns3:atemp>34.0</ns3:atemp>
            <ns3:hr>84</ns3:hr>
          </ns3:TrackPointExtension>
        </extensions>
      </trkpt>
      <trkpt lat="36.87247225083410739898681640625" lon="-118.43329419381916522979736328125">
        <ele>2637.39990234375</ele>
        <time>2021-06-27T23:53:39.000Z</time>
        <extensions>
          <ns3:TrackPointExtension>
            <ns3:atemp>34.0</ns3:atemp>
            <ns3:hr>85</ns3:hr>
          </ns3:TrackPointExtension>
        </extensions>
      </trkpt>
      <trkpt lat="36.872477196156978607177734375" lon="-118.43330576084554195404052734375">
        <ele>2637.39990234375</ele>
        <time>2021-06-27T23:53:40.000Z</time>
        <extensions>
          <ns3:TrackPointExtension>
            <ns3:atemp>34.0</ns3:atemp>
            <ns3:hr>85</ns3:hr>
          </ns3:TrackPointExtension>
        </extensions>
      </trkpt>
      <trkpt lat="36.87250812537968158721923828125" lon="-118.4333482570946216583251953125">
        <ele>2637.39990234375</ele>
        <time>2021-06-27T23:53:44.000Z</time>
        <extensions>
          <ns3:TrackPointExtension>
            <ns3:atemp>34.0</ns3:atemp>
            <ns3:hr>82</ns3:hr>
          </ns3:TrackPointExtension>
        </extensions>
      </trkpt>
      <trkpt lat="36.87251650728285312652587890625" lon="-118.43337214551866054534912109375">
        <ele>2637.60009765625</ele>
        <time>2021-06-27T23:53:46.000Z</time>
        <extensions>
          <ns3:TrackPointExtension>
            <ns3:atemp>34.0</ns3:atemp>
            <ns3:hr>85</ns3:hr>
          </ns3:TrackPointExtension>
        </extensions>
      </trkpt>
      <trkpt lat="36.87251575291156768798828125" lon="-118.4333868138492107391357421875">
        <ele>2637.60009765625</ele>
        <time>2021-06-27T23:53:47.000Z</time>
        <extensions>
          <ns3:TrackPointExtension>
            <ns3:atemp>34.0</ns3:atemp>
            <ns3:hr>85</ns3:hr>
          </ns3:TrackPointExtension>
        </extensions>
      </trkpt>
      <trkpt lat="36.87249588780105113983154296875" lon="-118.433424197137355804443359375">
        <ele>2637.199951171875</ele>
        <time>2021-06-27T23:53:51.000Z</time>
        <extensions>
          <ns3:TrackPointExtension>
            <ns3:atemp>34.0</ns3:atemp>
            <ns3:hr>88</ns3:hr>
          </ns3:TrackPointExtension>
        </extensions>
      </trkpt>
      <trkpt lat="36.872508041560649871826171875" lon="-118.4334971196949481964111328125">
        <ele>2637</ele>
        <time>2021-06-27T23:53:55.000Z</time>
        <extensions>
          <ns3:TrackPointExtension>
            <ns3:atemp>34.0</ns3:atemp>
            <ns3:hr>86</ns3:hr>
          </ns3:TrackPointExtension>
        </extensions>
      </trkpt>
      <trkpt lat="36.8725142441689968109130859375" lon="-118.43351782299578189849853515625">
        <ele>2637</ele>
        <time>2021-06-27T23:53:56.000Z</time>
        <extensions>
          <ns3:TrackPointExtension>
            <ns3:atemp>34.0</ns3:atemp>
            <ns3:hr>87</ns3:hr>
          </ns3:TrackPointExtension>
        </extensions>
      </trkpt>
      <trkpt lat="36.8725367076694965362548828125" lon="-118.43356107361614704132080078125">
        <ele>2636.39990234375</ele>
        <time>2021-06-27T23:53:59.000Z</time>
        <extensions>
          <ns3:TrackPointExtension>
            <ns3:atemp>34.0</ns3:atemp>
            <ns3:hr>87</ns3:hr>
          </ns3:TrackPointExtension>
        </extensions>
      </trkpt>
      <trkpt lat="36.872541904449462890625" lon="-118.43360415659844875335693359375">
        <ele>2636.39990234375</ele>
        <time>2021-06-27T23:54:02.000Z</time>
        <extensions>
          <ns3:TrackPointExtension>
            <ns3:atemp>34.0</ns3:atemp>
            <ns3:hr>88</ns3:hr>
          </ns3:TrackPointExtension>
        </extensions>
      </trkpt>
      <trkpt lat="36.8725528009235858917236328125" lon="-118.4336295537650585174560546875">
        <ele>2636.199951171875</ele>
        <time>2021-06-27T23:54:04.000Z</time>
        <extensions>
          <ns3:TrackPointExtension>
            <ns3:atemp>34.0</ns3:atemp>
            <ns3:hr>85</ns3:hr>
          </ns3:TrackPointExtension>
        </extensions>
      </trkpt>
      <trkpt lat="36.87256445176899433135986328125" lon="-118.4336657635867595672607421875">
        <ele>2635.800048828125</ele>
        <time>2021-06-27T23:54:07.000Z</time>
        <extensions>
          <ns3:TrackPointExtension>
            <ns3:atemp>34.0</ns3:atemp>
            <ns3:hr>82</ns3:hr>
          </ns3:TrackPointExtension>
        </extensions>
      </trkpt>
      <trkpt lat="36.87256797216832637786865234375" lon="-118.43368537724018096923828125">
        <ele>2635.60009765625</ele>
        <time>2021-06-27T23:54:09.000Z</time>
        <extensions>
          <ns3:TrackPointExtension>
            <ns3:atemp>34.0</ns3:atemp>
            <ns3:hr>86</ns3:hr>
          </ns3:TrackPointExtension>
        </extensions>
      </trkpt>
      <trkpt lat="36.87256495468318462371826171875" lon="-118.4337039850652217864990234375">
        <ele>2635.39990234375</ele>
        <time>2021-06-27T23:54:10.000Z</time>
        <extensions>
          <ns3:TrackPointExtension>
            <ns3:atemp>34.0</ns3:atemp>
            <ns3:hr>85</ns3:hr>
          </ns3:TrackPointExtension>
        </extensions>
      </trkpt>
      <trkpt lat="36.87254601158201694488525390625" lon="-118.43372569419443607330322265625">
        <ele>2635.60009765625</ele>
        <time>2021-06-27T23:54:13.000Z</time>
        <extensions>
          <ns3:TrackPointExtension>
            <ns3:atemp>34.0</ns3:atemp>
            <ns3:hr>84</ns3:hr>
          </ns3:TrackPointExtension>
        </extensions>
      </trkpt>
      <trkpt lat="36.87253813259303569793701171875" lon="-118.43373172916471958160400390625">
        <ele>2635.39990234375</ele>
        <time>2021-06-27T23:54:14.000Z</time>
        <extensions>
          <ns3:TrackPointExtension>
            <ns3:atemp>34.0</ns3:atemp>
            <ns3:hr>87</ns3:hr>
          </ns3:TrackPointExtension>
        </extensions>
      </trkpt>
      <trkpt lat="36.8725346960127353668212890625" lon="-118.4337477385997772216796875">
        <ele>2635.39990234375</ele>
        <time>2021-06-27T23:54:16.000Z</time>
        <extensions>
          <ns3:TrackPointExtension>
            <ns3:atemp>34.0</ns3:atemp>
            <ns3:hr>85</ns3:hr>
          </ns3:TrackPointExtension>
        </extensions>
      </trkpt>
      <trkpt lat="36.8725048564374446868896484375" lon="-118.43375436030328273773193359375">
        <ele>2635</ele>
        <time>2021-06-27T23:54:19.000Z</time>
        <extensions>
          <ns3:TrackPointExtension>
            <ns3:atemp>34.0</ns3:atemp>
            <ns3:hr>85</ns3:hr>
          </ns3:TrackPointExtension>
        </extensions>
      </trkpt>
      <trkpt lat="36.872486583888530731201171875" lon="-118.43377112410962581634521484375">
        <ele>2635</ele>
        <time>2021-06-27T23:54:21.000Z</time>
        <extensions>
          <ns3:TrackPointExtension>
            <ns3:atemp>34.0</ns3:atemp>
            <ns3:hr>85</ns3:hr>
          </ns3:TrackPointExtension>
        </extensions>
      </trkpt>
      <trkpt lat="36.8724713288247585296630859375" lon="-118.4338002093136310577392578125">
        <ele>2634.199951171875</ele>
        <time>2021-06-27T23:54:23.000Z</time>
        <extensions>
          <ns3:TrackPointExtension>
            <ns3:atemp>34.0</ns3:atemp>
            <ns3:hr>85</ns3:hr>
          </ns3:TrackPointExtension>
        </extensions>
      </trkpt>
      <trkpt lat="36.87247409485280513763427734375" lon="-118.43382024206221103668212890625">
        <ele>2634.199951171875</ele>
        <time>2021-06-27T23:54:24.000Z</time>
        <extensions>
          <ns3:TrackPointExtension>
            <ns3:atemp>34.0</ns3:atemp>
            <ns3:hr>83</ns3:hr>
          </ns3:TrackPointExtension>
        </extensions>
      </trkpt>
      <trkpt lat="36.87247929163277149200439453125" lon="-118.433835245668888092041015625">
        <ele>2634</ele>
        <time>2021-06-27T23:54:25.000Z</time>
        <extensions>
          <ns3:TrackPointExtension>
            <ns3:atemp>34.0</ns3:atemp>
            <ns3:hr>85</ns3:hr>
          </ns3:TrackPointExtension>
        </extensions>
      </trkpt>
      <trkpt lat="36.87249236740171909332275390625" lon="-118.43388520181179046630859375">
        <ele>2634</ele>
        <time>2021-06-27T23:54:29.000Z</time>
        <extensions>
          <ns3:TrackPointExtension>
            <ns3:atemp>33.0</ns3:atemp>
            <ns3:hr>88</ns3:hr>
          </ns3:TrackPointExtension>
        </extensions>
      </trkpt>
      <trkpt lat="36.87249295413494110107421875" lon="-118.4338940866291522979736328125">
        <ele>2633.800048828125</ele>
        <time>2021-06-27T23:54:30.000Z</time>
        <extensions>
          <ns3:TrackPointExtension>
            <ns3:atemp>34.0</ns3:atemp>
            <ns3:hr>86</ns3:hr>
          </ns3:TrackPointExtension>
        </extensions>
      </trkpt>
      <trkpt lat="36.87248817645013332366943359375" lon="-118.43392183072865009307861328125">
        <ele>2634.199951171875</ele>
        <time>2021-06-27T23:54:32.000Z</time>
        <extensions>
          <ns3:TrackPointExtension>
            <ns3:atemp>33.0</ns3:atemp>
            <ns3:hr>86</ns3:hr>
          </ns3:TrackPointExtension>
        </extensions>
      </trkpt>
      <trkpt lat="36.8725025095045566558837890625" lon="-118.43398167751729488372802734375">
        <ele>2633.800048828125</ele>
        <time>2021-06-27T23:54:38.000Z</time>
        <extensions>
          <ns3:TrackPointExtension>
            <ns3:atemp>33.0</ns3:atemp>
            <ns3:hr>86</ns3:hr>
          </ns3:TrackPointExtension>
        </extensions>
      </trkpt>
      <trkpt lat="36.87252086587250232696533203125" lon="-118.43398603610694408416748046875">
        <ele>2633.60009765625</ele>
        <time>2021-06-27T23:54:39.000Z</time>
        <extensions>
          <ns3:TrackPointExtension>
            <ns3:atemp>33.0</ns3:atemp>
            <ns3:hr>86</ns3:hr>
          </ns3:TrackPointExtension>
        </extensions>
      </trkpt>
      <trkpt lat="36.87258012592792510986328125" lon="-118.43399642966687679290771484375">
        <ele>2633.39990234375</ele>
        <time>2021-06-27T23:54:42.000Z</time>
        <extensions>
          <ns3:TrackPointExtension>
            <ns3:atemp>33.0</ns3:atemp>
            <ns3:hr>83</ns3:hr>
          </ns3:TrackPointExtension>
        </extensions>
      </trkpt>
      <trkpt lat="36.8726131506264209747314453125" lon="-118.43402861617505550384521484375">
        <ele>2633.60009765625</ele>
        <time>2021-06-27T23:54:45.000Z</time>
        <extensions>
          <ns3:TrackPointExtension>
            <ns3:atemp>33.0</ns3:atemp>
            <ns3:hr>81</ns3:hr>
          </ns3:TrackPointExtension>
        </extensions>
      </trkpt>
      <trkpt lat="36.8726912699639797210693359375" lon="-118.4340704418718814849853515625">
        <ele>2633.60009765625</ele>
        <time>2021-06-27T23:54:52.000Z</time>
        <extensions>
          <ns3:TrackPointExtension>
            <ns3:atemp>33.0</ns3:atemp>
            <ns3:hr>80</ns3:hr>
          </ns3:TrackPointExtension>
        </extensions>
      </trkpt>
      <trkpt lat="36.872772909700870513916015625" lon="-118.434120230376720428466796875">
        <ele>2633.800048828125</ele>
        <time>2021-06-27T23:55:00.000Z</time>
        <extensions>
          <ns3:TrackPointExtension>
            <ns3:atemp>33.0</ns3:atemp>
            <ns3:hr>79</ns3:hr>
          </ns3:TrackPointExtension>
        </extensions>
      </trkpt>
      <trkpt lat="36.8727804534137248992919921875" lon="-118.43413037247955799102783203125">
        <ele>2633.60009765625</ele>
        <time>2021-06-27T23:55:01.000Z</time>
        <extensions>
          <ns3:TrackPointExtension>
            <ns3:atemp>33.0</ns3:atemp>
            <ns3:hr>79</ns3:hr>
          </ns3:TrackPointExtension>
        </extensions>
      </trkpt>
      <trkpt lat="36.872791014611721038818359375" lon="-118.4341971762478351593017578125">
        <ele>2633.199951171875</ele>
        <time>2021-06-27T23:55:06.000Z</time>
        <extensions>
          <ns3:TrackPointExtension>
            <ns3:atemp>33.0</ns3:atemp>
            <ns3:hr>80</ns3:hr>
          </ns3:TrackPointExtension>
        </extensions>
      </trkpt>
      <trkpt lat="36.87278707511723041534423828125" lon="-118.43422458507120609283447265625">
        <ele>2632.800048828125</ele>
        <time>2021-06-27T23:55:08.000Z</time>
        <extensions>
          <ns3:TrackPointExtension>
            <ns3:atemp>33.0</ns3:atemp>
            <ns3:hr>82</ns3:hr>
          </ns3:TrackPointExtension>
        </extensions>
      </trkpt>
      <trkpt lat="36.87277953140437602996826171875" lon="-118.4342940710484981536865234375">
        <ele>2632.60009765625</ele>
        <time>2021-06-27T23:55:14.000Z</time>
        <extensions>
          <ns3:TrackPointExtension>
            <ns3:atemp>33.0</ns3:atemp>
            <ns3:hr>83</ns3:hr>
          </ns3:TrackPointExtension>
        </extensions>
      </trkpt>
      <trkpt lat="36.872758157551288604736328125" lon="-118.43430253677070140838623046875">
        <ele>2632.60009765625</ele>
        <time>2021-06-27T23:55:16.000Z</time>
        <extensions>
          <ns3:TrackPointExtension>
            <ns3:atemp>33.0</ns3:atemp>
            <ns3:hr>82</ns3:hr>
          </ns3:TrackPointExtension>
        </extensions>
      </trkpt>
      <trkpt lat="36.87274684198200702667236328125" lon="-118.43430102802813053131103515625">
        <ele>2632.60009765625</ele>
        <time>2021-06-27T23:55:17.000Z</time>
        <extensions>
          <ns3:TrackPointExtension>
            <ns3:atemp>33.0</ns3:atemp>
            <ns3:hr>81</ns3:hr>
          </ns3:TrackPointExtension>
        </extensions>
      </trkpt>
      <trkpt lat="36.87272354029119014739990234375" lon="-118.43430572189390659332275390625">
        <ele>2632.60009765625</ele>
        <time>2021-06-27T23:55:19.000Z</time>
        <extensions>
          <ns3:TrackPointExtension>
            <ns3:atemp>33.0</ns3:atemp>
            <ns3:hr>79</ns3:hr>
          </ns3:TrackPointExtension>
        </extensions>
      </trkpt>
      <trkpt lat="36.8727137334644794464111328125" lon="-118.43431460671126842498779296875">
        <ele>2632.39990234375</ele>
        <time>2021-06-27T23:55:20.000Z</time>
        <extensions>
          <ns3:TrackPointExtension>
            <ns3:atemp>33.0</ns3:atemp>
            <ns3:hr>76</ns3:hr>
          </ns3:TrackPointExtension>
        </extensions>
      </trkpt>
      <trkpt lat="36.872707866132259368896484375" lon="-118.43432449735701084136962890625">
        <ele>2632.39990234375</ele>
        <time>2021-06-27T23:55:21.000Z</time>
        <extensions>
          <ns3:TrackPointExtension>
            <ns3:atemp>33.0</ns3:atemp>
            <ns3:hr>79</ns3:hr>
          </ns3:TrackPointExtension>
        </extensions>
      </trkpt>
      <trkpt lat="36.87270350754261016845703125" lon="-118.43434126116335391998291015625">
        <ele>2632.39990234375</ele>
        <time>2021-06-27T23:55:22.000Z</time>
        <extensions>
          <ns3:TrackPointExtension>
            <ns3:atemp>33.0</ns3:atemp>
            <ns3:hr>78</ns3:hr>
          </ns3:TrackPointExtension>
        </extensions>
      </trkpt>
      <trkpt lat="36.87269906513392925262451171875" lon="-118.43435785733163356781005859375">
        <ele>2632</ele>
        <time>2021-06-27T23:55:23.000Z</time>
        <extensions>
          <ns3:TrackPointExtension>
            <ns3:atemp>33.0</ns3:atemp>
            <ns3:hr>78</ns3:hr>
          </ns3:TrackPointExtension>
        </extensions>
      </trkpt>
      <trkpt lat="36.8726952932775020599365234375" lon="-118.434394486248493194580078125">
        <ele>2631.800048828125</ele>
        <time>2021-06-27T23:55:25.000Z</time>
        <extensions>
          <ns3:TrackPointExtension>
            <ns3:atemp>33.0</ns3:atemp>
            <ns3:hr>78</ns3:hr>
          </ns3:TrackPointExtension>
        </extensions>
      </trkpt>
      <trkpt lat="36.87270124442875385284423828125" lon="-118.43440496362745761871337890625">
        <ele>2631.800048828125</ele>
        <time>2021-06-27T23:55:26.000Z</time>
        <extensions>
          <ns3:TrackPointExtension>
            <ns3:atemp>33.0</ns3:atemp>
            <ns3:hr>81</ns3:hr>
          </ns3:TrackPointExtension>
        </extensions>
      </trkpt>
      <trkpt lat="36.8727090395987033843994140625" lon="-118.43441762030124664306640625">
        <ele>2631.800048828125</ele>
        <time>2021-06-27T23:55:27.000Z</time>
        <extensions>
          <ns3:TrackPointExtension>
            <ns3:atemp>33.0</ns3:atemp>
            <ns3:hr>77</ns3:hr>
          </ns3:TrackPointExtension>
        </extensions>
      </trkpt>
      <trkpt lat="36.87271012924611568450927734375" lon="-118.43443430028855800628662109375">
        <ele>2631.39990234375</ele>
        <time>2021-06-27T23:55:28.000Z</time>
        <extensions>
          <ns3:TrackPointExtension>
            <ns3:atemp>33.0</ns3:atemp>
            <ns3:hr>81</ns3:hr>
          </ns3:TrackPointExtension>
        </extensions>
      </trkpt>
      <trkpt lat="36.87272404320538043975830078125" lon="-118.43448341824114322662353515625">
        <ele>2631.199951171875</ele>
        <time>2021-06-27T23:55:31.000Z</time>
        <extensions>
          <ns3:TrackPointExtension>
            <ns3:atemp>33.0</ns3:atemp>
            <ns3:hr>78</ns3:hr>
          </ns3:TrackPointExtension>
        </extensions>
      </trkpt>
      <trkpt lat="36.8727291561663150787353515625" lon="-118.4344933927059173583984375">
        <ele>2631</ele>
        <time>2021-06-27T23:55:32.000Z</time>
        <extensions>
          <ns3:TrackPointExtension>
            <ns3:atemp>33.0</ns3:atemp>
            <ns3:hr>77</ns3:hr>
          </ns3:TrackPointExtension>
        </extensions>
      </trkpt>
      <trkpt lat="36.87273125164210796356201171875" lon="-118.4345143474638462066650390625">
        <ele>2630.60009765625</ele>
        <time>2021-06-27T23:55:34.000Z</time>
        <extensions>
          <ns3:TrackPointExtension>
            <ns3:atemp>33.0</ns3:atemp>
            <ns3:hr>74</ns3:hr>
          </ns3:TrackPointExtension>
        </extensions>
      </trkpt>
      <trkpt lat="36.87273259274661540985107421875" lon="-118.43453253619372844696044921875">
        <ele>2630.60009765625</ele>
        <time>2021-06-27T23:55:35.000Z</time>
        <extensions>
          <ns3:TrackPointExtension>
            <ns3:atemp>33.0</ns3:atemp>
            <ns3:hr>73</ns3:hr>
          </ns3:TrackPointExtension>
        </extensions>
      </trkpt>
      <trkpt lat="36.872729323804378509521484375" lon="-118.43455097638070583343505859375">
        <ele>2630.60009765625</ele>
        <time>2021-06-27T23:55:37.000Z</time>
        <extensions>
          <ns3:TrackPointExtension>
            <ns3:atemp>33.0</ns3:atemp>
            <ns3:hr>71</ns3:hr>
          </ns3:TrackPointExtension>
        </extensions>
      </trkpt>
      <trkpt lat="36.8727390468120574951171875" lon="-118.43457628972828388214111328125">
        <ele>2630.39990234375</ele>
        <time>2021-06-27T23:55:39.000Z</time>
        <extensions>
          <ns3:TrackPointExtension>
            <ns3:atemp>33.0</ns3:atemp>
            <ns3:hr>70</ns3:hr>
          </ns3:TrackPointExtension>
        </extensions>
      </trkpt>
      <trkpt lat="36.87273703515529632568359375" lon="-118.434619791805744171142578125">
        <ele>2630</ele>
        <time>2021-06-27T23:55:42.000Z</time>
        <extensions>
          <ns3:TrackPointExtension>
            <ns3:atemp>33.0</ns3:atemp>
            <ns3:hr>69</ns3:hr>
          </ns3:TrackPointExtension>
        </extensions>
      </trkpt>
      <trkpt lat="36.8727264739573001861572265625" lon="-118.43464200384914875030517578125">
        <ele>2629.60009765625</ele>
        <time>2021-06-27T23:55:44.000Z</time>
        <extensions>
          <ns3:TrackPointExtension>
            <ns3:atemp>33.0</ns3:atemp>
            <ns3:hr>70</ns3:hr>
          </ns3:TrackPointExtension>
        </extensions>
      </trkpt>
      <trkpt lat="36.872723288834095001220703125" lon="-118.43465407378971576690673828125">
        <ele>2629.60009765625</ele>
        <time>2021-06-27T23:55:45.000Z</time>
        <extensions>
          <ns3:TrackPointExtension>
            <ns3:atemp>33.0</ns3:atemp>
            <ns3:hr>70</ns3:hr>
          </ns3:TrackPointExtension>
        </extensions>
      </trkpt>
      <trkpt lat="36.8727117218077182769775390625" lon="-118.43467351980507373809814453125">
        <ele>2629.39990234375</ele>
        <time>2021-06-27T23:55:47.000Z</time>
        <extensions>
          <ns3:TrackPointExtension>
            <ns3:atemp>33.0</ns3:atemp>
            <ns3:hr>70</ns3:hr>
          </ns3:TrackPointExtension>
        </extensions>
      </trkpt>
      <trkpt lat="36.87266503460705280303955078125" lon="-118.4347803890705108642578125">
        <ele>2629.60009765625</ele>
        <time>2021-06-27T23:55:54.000Z</time>
        <extensions>
          <ns3:TrackPointExtension>
            <ns3:atemp>33.0</ns3:atemp>
            <ns3:hr>72</ns3:hr>
          </ns3:TrackPointExtension>
        </extensions>
      </trkpt>
      <trkpt lat="36.8726574070751667022705078125" lon="-118.43479455448687076568603515625">
        <ele>2629.199951171875</ele>
        <time>2021-06-27T23:55:55.000Z</time>
        <extensions>
          <ns3:TrackPointExtension>
            <ns3:atemp>33.0</ns3:atemp>
            <ns3:hr>73</ns3:hr>
          </ns3:TrackPointExtension>
        </extensions>
      </trkpt>
      <trkpt lat="36.8726305849850177764892578125" lon="-118.43488323502242565155029296875">
        <ele>2628.39990234375</ele>
        <time>2021-06-27T23:56:01.000Z</time>
        <extensions>
          <ns3:TrackPointExtension>
            <ns3:atemp>33.0</ns3:atemp>
            <ns3:hr>75</ns3:hr>
          </ns3:TrackPointExtension>
        </extensions>
      </trkpt>
      <trkpt lat="36.8726486898958683013916015625" lon="-118.4349267370998859405517578125">
        <ele>2628</ele>
        <time>2021-06-27T23:56:03.000Z</time>
        <extensions>
          <ns3:TrackPointExtension>
            <ns3:atemp>33.0</ns3:atemp>
            <ns3:hr>76</ns3:hr>
          </ns3:TrackPointExtension>
        </extensions>
      </trkpt>
      <trkpt lat="36.8726533837616443634033203125" lon="-118.43494509346783161163330078125">
        <ele>2627.800048828125</ele>
        <time>2021-06-27T23:56:04.000Z</time>
        <extensions>
          <ns3:TrackPointExtension>
            <ns3:atemp>33.0</ns3:atemp>
            <ns3:hr>77</ns3:hr>
          </ns3:TrackPointExtension>
        </extensions>
      </trkpt>
      <trkpt lat="36.87266838736832141876220703125" lon="-118.43499605543911457061767578125">
        <ele>2628.39990234375</ele>
        <time>2021-06-27T23:56:09.000Z</time>
        <extensions>
          <ns3:TrackPointExtension>
            <ns3:atemp>33.0</ns3:atemp>
            <ns3:hr>79</ns3:hr>
          </ns3:TrackPointExtension>
        </extensions>
      </trkpt>
      <trkpt lat="36.872677691280841827392578125" lon="-118.43499957583844661712646484375">
        <ele>2628.39990234375</ele>
        <time>2021-06-27T23:56:10.000Z</time>
        <extensions>
          <ns3:TrackPointExtension>
            <ns3:atemp>33.0</ns3:atemp>
            <ns3:hr>79</ns3:hr>
          </ns3:TrackPointExtension>
        </extensions>
      </trkpt>
      <trkpt lat="36.87270727939903736114501953125" lon="-118.43505573458969593048095703125">
        <ele>2628.199951171875</ele>
        <time>2021-06-27T23:56:14.000Z</time>
        <extensions>
          <ns3:TrackPointExtension>
            <ns3:atemp>33.0</ns3:atemp>
            <ns3:hr>80</ns3:hr>
          </ns3:TrackPointExtension>
        </extensions>
      </trkpt>
      <trkpt lat="36.87271582894027233123779296875" lon="-118.43509353697299957275390625">
        <ele>2627.39990234375</ele>
        <time>2021-06-27T23:56:16.000Z</time>
        <extensions>
          <ns3:TrackPointExtension>
            <ns3:atemp>33.0</ns3:atemp>
            <ns3:hr>79</ns3:hr>
          </ns3:TrackPointExtension>
        </extensions>
      </trkpt>
      <trkpt lat="36.87271784059703350067138671875" lon="-118.43511231243610382080078125">
        <ele>2627.199951171875</ele>
        <time>2021-06-27T23:56:17.000Z</time>
        <extensions>
          <ns3:TrackPointExtension>
            <ns3:atemp>33.0</ns3:atemp>
            <ns3:hr>78</ns3:hr>
          </ns3:TrackPointExtension>
        </extensions>
      </trkpt>
      <trkpt lat="36.8727157451212406158447265625" lon="-118.4351393021643161773681640625">
        <ele>2627</ele>
        <time>2021-06-27T23:56:19.000Z</time>
        <extensions>
          <ns3:TrackPointExtension>
            <ns3:atemp>33.0</ns3:atemp>
            <ns3:hr>77</ns3:hr>
          </ns3:TrackPointExtension>
        </extensions>
      </trkpt>
      <trkpt lat="36.87270811758935451507568359375" lon="-118.43520392663776874542236328125">
        <ele>2627.199951171875</ele>
        <time>2021-06-27T23:56:24.000Z</time>
        <extensions>
          <ns3:TrackPointExtension>
            <ns3:atemp>33.0</ns3:atemp>
            <ns3:hr>78</ns3:hr>
          </ns3:TrackPointExtension>
        </extensions>
      </trkpt>
      <trkpt lat="36.87270157970488071441650390625" lon="-118.43531104736030101776123046875">
        <ele>2626.60009765625</ele>
        <time>2021-06-27T23:56:32.000Z</time>
        <extensions>
          <ns3:TrackPointExtension>
            <ns3:atemp>33.0</ns3:atemp>
            <ns3:hr>75</ns3:hr>
          </ns3:TrackPointExtension>
        </extensions>
      </trkpt>
      <trkpt lat="36.8726996518671512603759765625" lon="-118.435329236090183258056640625">
        <ele>2626.39990234375</ele>
        <time>2021-06-27T23:56:33.000Z</time>
        <extensions>
          <ns3:TrackPointExtension>
            <ns3:atemp>33.0</ns3:atemp>
            <ns3:hr>75</ns3:hr>
          </ns3:TrackPointExtension>
        </extensions>
      </trkpt>
      <trkpt lat="36.87270426191389560699462890625" lon="-118.43535128049552440643310546875">
        <ele>2625.800048828125</ele>
        <time>2021-06-27T23:56:34.000Z</time>
        <extensions>
          <ns3:TrackPointExtension>
            <ns3:atemp>33.0</ns3:atemp>
            <ns3:hr>75</ns3:hr>
          </ns3:TrackPointExtension>
        </extensions>
      </trkpt>
      <trkpt lat="36.872707195580005645751953125" lon="-118.43538195826113224029541015625">
        <ele>2625.800048828125</ele>
        <time>2021-06-27T23:56:35.000Z</time>
        <extensions>
          <ns3:TrackPointExtension>
            <ns3:atemp>33.0</ns3:atemp>
            <ns3:hr>76</ns3:hr>
          </ns3:TrackPointExtension>
        </extensions>
      </trkpt>
      <trkpt lat="36.872768215835094451904296875" lon="-118.43546913005411624908447265625">
        <ele>2625.199951171875</ele>
        <time>2021-06-27T23:56:39.000Z</time>
        <extensions>
          <ns3:TrackPointExtension>
            <ns3:atemp>33.0</ns3:atemp>
            <ns3:hr>77</ns3:hr>
          </ns3:TrackPointExtension>
        </extensions>
      </trkpt>
      <trkpt lat="36.87280635349452495574951171875" lon="-118.4355099499225616455078125">
        <ele>2625.60009765625</ele>
        <time>2021-06-27T23:56:44.000Z</time>
        <extensions>
          <ns3:TrackPointExtension>
            <ns3:atemp>33.0</ns3:atemp>
            <ns3:hr>78</ns3:hr>
          </ns3:TrackPointExtension>
        </extensions>
      </trkpt>
      <trkpt lat="36.8728267215192317962646484375" lon="-118.43552646227180957794189453125">
        <ele>2625</ele>
        <time>2021-06-27T23:56:46.000Z</time>
        <extensions>
          <ns3:TrackPointExtension>
            <ns3:atemp>33.0</ns3:atemp>
            <ns3:hr>78</ns3:hr>
          </ns3:TrackPointExtension>
        </extensions>
      </trkpt>
      <trkpt lat="36.8728961236774921417236328125" lon="-118.4355825372040271759033203125">
        <ele>2624.800048828125</ele>
        <time>2021-06-27T23:56:53.000Z</time>
        <extensions>
          <ns3:TrackPointExtension>
            <ns3:atemp>33.0</ns3:atemp>
            <ns3:hr>79</ns3:hr>
          </ns3:TrackPointExtension>
        </extensions>
      </trkpt>
      <trkpt lat="36.8729061819612979888916015625" lon="-118.43559703789651393890380859375">
        <ele>2624.800048828125</ele>
        <time>2021-06-27T23:56:54.000Z</time>
        <extensions>
          <ns3:TrackPointExtension>
            <ns3:atemp>33.0</ns3:atemp>
            <ns3:hr>79</ns3:hr>
          </ns3:TrackPointExtension>
        </extensions>
      </trkpt>
      <trkpt lat="36.8729859776794910430908203125" lon="-118.435674570500850677490234375">
        <ele>2624.199951171875</ele>
        <time>2021-06-27T23:56:59.000Z</time>
        <extensions>
          <ns3:TrackPointExtension>
            <ns3:atemp>33.0</ns3:atemp>
            <ns3:hr>80</ns3:hr>
          </ns3:TrackPointExtension>
        </extensions>
      </trkpt>
      <trkpt lat="36.87301556579768657684326171875" lon="-118.43570097349584102630615234375">
        <ele>2624.199951171875</ele>
        <time>2021-06-27T23:57:02.000Z</time>
        <extensions>
          <ns3:TrackPointExtension>
            <ns3:atemp>33.0</ns3:atemp>
            <ns3:hr>82</ns3:hr>
          </ns3:TrackPointExtension>
        </extensions>
      </trkpt>
      <trkpt lat="36.873088739812374114990234375" lon="-118.43579585663974285125732421875">
        <ele>2624</ele>
        <time>2021-06-27T23:57:09.000Z</time>
        <extensions>
          <ns3:TrackPointExtension>
            <ns3:atemp>33.0</ns3:atemp>
            <ns3:hr>86</ns3:hr>
          </ns3:TrackPointExtension>
        </extensions>
      </trkpt>
      <trkpt lat="36.87312184832990169525146484375" lon="-118.43583248555660247802734375">
        <ele>2624.199951171875</ele>
        <time>2021-06-27T23:57:12.000Z</time>
        <extensions>
          <ns3:TrackPointExtension>
            <ns3:atemp>33.0</ns3:atemp>
            <ns3:hr>84</ns3:hr>
          </ns3:TrackPointExtension>
        </extensions>
      </trkpt>
      <trkpt lat="36.87313157133758068084716796875" lon="-118.43587095849215984344482421875">
        <ele>2624.199951171875</ele>
        <time>2021-06-27T23:57:15.000Z</time>
        <extensions>
          <ns3:TrackPointExtension>
            <ns3:atemp>33.0</ns3:atemp>
            <ns3:hr>84</ns3:hr>
          </ns3:TrackPointExtension>
        </extensions>
      </trkpt>
      <trkpt lat="36.87313291244208812713623046875" lon="-118.435902893543243408203125">
        <ele>2624.199951171875</ele>
        <time>2021-06-27T23:57:18.000Z</time>
        <extensions>
          <ns3:TrackPointExtension>
            <ns3:atemp>33.0</ns3:atemp>
            <ns3:hr>81</ns3:hr>
          </ns3:TrackPointExtension>
        </extensions>
      </trkpt>
      <trkpt lat="36.87312738038599491119384765625" lon="-118.43595360405743122100830078125">
        <ele>2624</ele>
        <time>2021-06-27T23:57:22.000Z</time>
        <extensions>
          <ns3:TrackPointExtension>
            <ns3:atemp>33.0</ns3:atemp>
            <ns3:hr>80</ns3:hr>
          </ns3:TrackPointExtension>
        </extensions>
      </trkpt>
      <trkpt lat="36.87313810922205448150634765625" lon="-118.4359912388026714324951171875">
        <ele>2624</ele>
        <time>2021-06-27T23:57:25.000Z</time>
        <extensions>
          <ns3:TrackPointExtension>
            <ns3:atemp>33.0</ns3:atemp>
            <ns3:hr>81</ns3:hr>
          </ns3:TrackPointExtension>
        </extensions>
      </trkpt>
      <trkpt lat="36.87315772287547588348388671875" lon="-118.43601755797863006591796875">
        <ele>2624.199951171875</ele>
        <time>2021-06-27T23:57:27.000Z</time>
        <extensions>
          <ns3:TrackPointExtension>
            <ns3:atemp>33.0</ns3:atemp>
            <ns3:hr>80</ns3:hr>
          </ns3:TrackPointExtension>
        </extensions>
      </trkpt>
      <trkpt lat="36.8731727264821529388427734375" lon="-118.43602770008146762847900390625">
        <ele>2624.199951171875</ele>
        <time>2021-06-27T23:57:28.000Z</time>
        <extensions>
          <ns3:TrackPointExtension>
            <ns3:atemp>33.0</ns3:atemp>
            <ns3:hr>80</ns3:hr>
          </ns3:TrackPointExtension>
        </extensions>
      </trkpt>
      <trkpt lat="36.87319896183907985687255859375" lon="-118.4360546059906482696533203125">
        <ele>2624.39990234375</ele>
        <time>2021-06-27T23:57:31.000Z</time>
        <extensions>
          <ns3:TrackPointExtension>
            <ns3:atemp>33.0</ns3:atemp>
            <ns3:hr>82</ns3:hr>
          </ns3:TrackPointExtension>
        </extensions>
      </trkpt>
      <trkpt lat="36.87320709228515625" lon="-118.43607346527278423309326171875">
        <ele>2624.60009765625</ele>
        <time>2021-06-27T23:57:33.000Z</time>
        <extensions>
          <ns3:TrackPointExtension>
            <ns3:atemp>33.0</ns3:atemp>
            <ns3:hr>83</ns3:hr>
          </ns3:TrackPointExtension>
        </extensions>
      </trkpt>
      <trkpt lat="36.87321136705577373504638671875" lon="-118.4360854513943195343017578125">
        <ele>2624.39990234375</ele>
        <time>2021-06-27T23:57:34.000Z</time>
        <extensions>
          <ns3:TrackPointExtension>
            <ns3:atemp>33.0</ns3:atemp>
            <ns3:hr>83</ns3:hr>
          </ns3:TrackPointExtension>
        </extensions>
      </trkpt>
      <trkpt lat="36.87322008423507213592529296875" lon="-118.4361582063138484954833984375">
        <ele>2624.60009765625</ele>
        <time>2021-06-27T23:57:41.000Z</time>
        <extensions>
          <ns3:TrackPointExtension>
            <ns3:atemp>33.0</ns3:atemp>
            <ns3:hr>82</ns3:hr>
          </ns3:TrackPointExtension>
        </extensions>
      </trkpt>
      <trkpt lat="36.8732169829308986663818359375" lon="-118.43616181053221225738525390625">
        <ele>2624.800048828125</ele>
        <time>2021-06-27T23:57:42.000Z</time>
        <extensions>
          <ns3:TrackPointExtension>
            <ns3:atemp>33.0</ns3:atemp>
            <ns3:hr>82</ns3:hr>
          </ns3:TrackPointExtension>
        </extensions>
      </trkpt>
      <trkpt lat="36.87322008423507213592529296875" lon="-118.43617706559598445892333984375">
        <ele>2624.800048828125</ele>
        <time>2021-06-27T23:57:44.000Z</time>
        <extensions>
          <ns3:TrackPointExtension>
            <ns3:atemp>33.0</ns3:atemp>
            <ns3:hr>82</ns3:hr>
          </ns3:TrackPointExtension>
        </extensions>
      </trkpt>
      <trkpt lat="36.87321924604475498199462890625" lon="-118.43621411360800266265869140625">
        <ele>2625</ele>
        <time>2021-06-27T23:57:47.000Z</time>
        <extensions>
          <ns3:TrackPointExtension>
            <ns3:atemp>33.0</ns3:atemp>
            <ns3:hr>83</ns3:hr>
          </ns3:TrackPointExtension>
        </extensions>
      </trkpt>
      <trkpt lat="36.87321505509316921234130859375" lon="-118.43622232787311077117919921875">
        <ele>2625</ele>
        <time>2021-06-27T23:57:48.000Z</time>
        <extensions>
          <ns3:TrackPointExtension>
            <ns3:atemp>33.0</ns3:atemp>
            <ns3:hr>84</ns3:hr>
          </ns3:TrackPointExtension>
        </extensions>
      </trkpt>
      <trkpt lat="36.8731851316988468170166015625" lon="-118.436235152184963226318359375">
        <ele>2625.199951171875</ele>
        <time>2021-06-27T23:57:51.000Z</time>
        <extensions>
          <ns3:TrackPointExtension>
            <ns3:atemp>33.0</ns3:atemp>
            <ns3:hr>86</ns3:hr>
          </ns3:TrackPointExtension>
        </extensions>
      </trkpt>
      <trkpt lat="36.8731767497956752777099609375" lon="-118.43625166453421115875244140625">
        <ele>2625.199951171875</ele>
        <time>2021-06-27T23:57:53.000Z</time>
        <extensions>
          <ns3:TrackPointExtension>
            <ns3:atemp>33.0</ns3:atemp>
            <ns3:hr>88</ns3:hr>
          </ns3:TrackPointExtension>
        </extensions>
      </trkpt>
      <trkpt lat="36.87317666597664356231689453125" lon="-118.43626499176025390625">
        <ele>2625</ele>
        <time>2021-06-27T23:57:54.000Z</time>
        <extensions>
          <ns3:TrackPointExtension>
            <ns3:atemp>33.0</ns3:atemp>
            <ns3:hr>89</ns3:hr>
          </ns3:TrackPointExtension>
        </extensions>
      </trkpt>
      <trkpt lat="36.8731807731091976165771484375" lon="-118.43630011193454265594482421875">
        <ele>2624.39990234375</ele>
        <time>2021-06-27T23:57:56.000Z</time>
        <extensions>
          <ns3:TrackPointExtension>
            <ns3:atemp>33.0</ns3:atemp>
            <ns3:hr>87</ns3:hr>
          </ns3:TrackPointExtension>
        </extensions>
      </trkpt>
      <trkpt lat="36.8731925077736377716064453125" lon="-118.43635962344706058502197265625">
        <ele>2623.800048828125</ele>
        <time>2021-06-27T23:58:00.000Z</time>
        <extensions>
          <ns3:TrackPointExtension>
            <ns3:atemp>33.0</ns3:atemp>
            <ns3:hr>89</ns3:hr>
          </ns3:TrackPointExtension>
        </extensions>
      </trkpt>
      <trkpt lat="36.87319544143974781036376953125" lon="-118.43637965619564056396484375">
        <ele>2623.800048828125</ele>
        <time>2021-06-27T23:58:01.000Z</time>
        <extensions>
          <ns3:TrackPointExtension>
            <ns3:atemp>33.0</ns3:atemp>
            <ns3:hr>92</ns3:hr>
          </ns3:TrackPointExtension>
        </extensions>
      </trkpt>
      <trkpt lat="36.873199045658111572265625" lon="-118.436401449143886566162109375">
        <ele>2623.60009765625</ele>
        <time>2021-06-27T23:58:02.000Z</time>
        <extensions>
          <ns3:TrackPointExtension>
            <ns3:atemp>33.0</ns3:atemp>
            <ns3:hr>89</ns3:hr>
          </ns3:TrackPointExtension>
        </extensions>
      </trkpt>
      <trkpt lat="36.8731730617582798004150390625" lon="-118.4364837594330310821533203125">
        <ele>2623.800048828125</ele>
        <time>2021-06-27T23:58:10.000Z</time>
        <extensions>
          <ns3:TrackPointExtension>
            <ns3:atemp>33.0</ns3:atemp>
            <ns3:hr>89</ns3:hr>
          </ns3:TrackPointExtension>
        </extensions>
      </trkpt>
      <trkpt lat="36.8732018955051898956298828125" lon="-118.4365923888981342315673828125">
        <ele>2623.800048828125</ele>
        <time>2021-06-27T23:58:18.000Z</time>
        <extensions>
          <ns3:TrackPointExtension>
            <ns3:atemp>33.0</ns3:atemp>
            <ns3:hr>88</ns3:hr>
          </ns3:TrackPointExtension>
        </extensions>
      </trkpt>
      <trkpt lat="36.8732012249529361724853515625" lon="-118.4366061352193355560302734375">
        <ele>2623.60009765625</ele>
        <time>2021-06-27T23:58:19.000Z</time>
        <extensions>
          <ns3:TrackPointExtension>
            <ns3:atemp>33.0</ns3:atemp>
            <ns3:hr>88</ns3:hr>
          </ns3:TrackPointExtension>
        </extensions>
      </trkpt>
      <trkpt lat="36.87318890355527400970458984375" lon="-118.43671015463769435882568359375">
        <ele>2623.39990234375</ele>
        <time>2021-06-27T23:58:26.000Z</time>
        <extensions>
          <ns3:TrackPointExtension>
            <ns3:atemp>33.0</ns3:atemp>
            <ns3:hr>87</ns3:hr>
          </ns3:TrackPointExtension>
        </extensions>
      </trkpt>
      <trkpt lat="36.8731656856834888458251953125" lon="-118.43680839054286479949951171875">
        <ele>2623.39990234375</ele>
        <time>2021-06-27T23:58:33.000Z</time>
        <extensions>
          <ns3:TrackPointExtension>
            <ns3:atemp>33.0</ns3:atemp>
            <ns3:hr>85</ns3:hr>
          </ns3:TrackPointExtension>
        </extensions>
      </trkpt>
      <trkpt lat="36.87316912226378917694091796875" lon="-118.43692054040729999542236328125">
        <ele>2622.800048828125</ele>
        <time>2021-06-27T23:58:38.000Z</time>
        <extensions>
          <ns3:TrackPointExtension>
            <ns3:atemp>33.0</ns3:atemp>
            <ns3:hr>82</ns3:hr>
          </ns3:TrackPointExtension>
        </extensions>
      </trkpt>
      <trkpt lat="36.87316258437931537628173828125" lon="-118.43700570054352283477783203125">
        <ele>2622.60009765625</ele>
        <time>2021-06-27T23:58:43.000Z</time>
        <extensions>
          <ns3:TrackPointExtension>
            <ns3:atemp>33.0</ns3:atemp>
            <ns3:hr>83</ns3:hr>
          </ns3:TrackPointExtension>
        </extensions>
      </trkpt>
      <trkpt lat="36.87315571121871471405029296875" lon="-118.43705213628709316253662109375">
        <ele>2622.60009765625</ele>
        <time>2021-06-27T23:58:46.000Z</time>
        <extensions>
          <ns3:TrackPointExtension>
            <ns3:atemp>33.0</ns3:atemp>
            <ns3:hr>80</ns3:hr>
          </ns3:TrackPointExtension>
        </extensions>
      </trkpt>
      <trkpt lat="36.87318362295627593994140625" lon="-118.43711785040795803070068359375">
        <ele>2622.199951171875</ele>
        <time>2021-06-27T23:58:51.000Z</time>
        <extensions>
          <ns3:TrackPointExtension>
            <ns3:atemp>33.0</ns3:atemp>
            <ns3:hr>77</ns3:hr>
          </ns3:TrackPointExtension>
        </extensions>
      </trkpt>
      <trkpt lat="36.873188316822052001953125" lon="-118.4371750988066196441650390625">
        <ele>2621.60009765625</ele>
        <time>2021-06-27T23:58:55.000Z</time>
        <extensions>
          <ns3:TrackPointExtension>
            <ns3:atemp>33.0</ns3:atemp>
            <ns3:hr>78</ns3:hr>
          </ns3:TrackPointExtension>
        </extensions>
      </trkpt>
      <trkpt lat="36.87320583499968051910400390625" lon="-118.43721206299960613250732421875">
        <ele>2621.199951171875</ele>
        <time>2021-06-27T23:58:58.000Z</time>
        <extensions>
          <ns3:TrackPointExtension>
            <ns3:atemp>33.0</ns3:atemp>
            <ns3:hr>77</ns3:hr>
          </ns3:TrackPointExtension>
        </extensions>
      </trkpt>
      <trkpt lat="36.873254366219043731689453125" lon="-118.43725682236254215240478515625">
        <ele>2620.39990234375</ele>
        <time>2021-06-27T23:59:03.000Z</time>
        <extensions>
          <ns3:TrackPointExtension>
            <ns3:atemp>33.0</ns3:atemp>
            <ns3:hr>79</ns3:hr>
          </ns3:TrackPointExtension>
        </extensions>
      </trkpt>
      <trkpt lat="36.87326232902705669403076171875" lon="-118.4372793696820735931396484375">
        <ele>2620</ele>
        <time>2021-06-27T23:59:06.000Z</time>
        <extensions>
          <ns3:TrackPointExtension>
            <ns3:atemp>33.0</ns3:atemp>
            <ns3:hr>81</ns3:hr>
          </ns3:TrackPointExtension>
        </extensions>
      </trkpt>
      <trkpt lat="36.87326082028448581695556640625" lon="-118.437292613089084625244140625">
        <ele>2619.800048828125</ele>
        <time>2021-06-27T23:59:07.000Z</time>
        <extensions>
          <ns3:TrackPointExtension>
            <ns3:atemp>33.0</ns3:atemp>
            <ns3:hr>81</ns3:hr>
          </ns3:TrackPointExtension>
        </extensions>
      </trkpt>
      <trkpt lat="36.87326283194124698638916015625" lon="-118.437308371067047119140625">
        <ele>2619.800048828125</ele>
        <time>2021-06-27T23:59:08.000Z</time>
        <extensions>
          <ns3:TrackPointExtension>
            <ns3:atemp>33.0</ns3:atemp>
            <ns3:hr>78</ns3:hr>
          </ns3:TrackPointExtension>
        </extensions>
      </trkpt>
      <trkpt lat="36.873265765607357025146484375" lon="-118.43731968663632869720458984375">
        <ele>2619.60009765625</ele>
        <time>2021-06-27T23:59:09.000Z</time>
        <extensions>
          <ns3:TrackPointExtension>
            <ns3:atemp>33.0</ns3:atemp>
            <ns3:hr>80</ns3:hr>
          </ns3:TrackPointExtension>
        </extensions>
      </trkpt>
      <trkpt lat="36.873268783092498779296875" lon="-118.43735824339091777801513671875">
        <ele>2619.39990234375</ele>
        <time>2021-06-27T23:59:11.000Z</time>
        <extensions>
          <ns3:TrackPointExtension>
            <ns3:atemp>33.0</ns3:atemp>
            <ns3:hr>77</ns3:hr>
          </ns3:TrackPointExtension>
        </extensions>
      </trkpt>
      <trkpt lat="36.8732759915292263031005859375" lon="-118.4373742528259754180908203125">
        <ele>2619.199951171875</ele>
        <time>2021-06-27T23:59:12.000Z</time>
        <extensions>
          <ns3:TrackPointExtension>
            <ns3:atemp>33.0</ns3:atemp>
            <ns3:hr>77</ns3:hr>
          </ns3:TrackPointExtension>
        </extensions>
      </trkpt>
      <trkpt lat="36.87328261323273181915283203125" lon="-118.437395878136157989501953125">
        <ele>2619.199951171875</ele>
        <time>2021-06-27T23:59:13.000Z</time>
        <extensions>
          <ns3:TrackPointExtension>
            <ns3:atemp>33.0</ns3:atemp>
            <ns3:hr>81</ns3:hr>
          </ns3:TrackPointExtension>
        </extensions>
      </trkpt>
      <trkpt lat="36.8733182363212108612060546875" lon="-118.43748045153915882110595703125">
        <ele>2618.39990234375</ele>
        <time>2021-06-27T23:59:19.000Z</time>
        <extensions>
          <ns3:TrackPointExtension>
            <ns3:atemp>33.0</ns3:atemp>
            <ns3:hr>81</ns3:hr>
          </ns3:TrackPointExtension>
        </extensions>
      </trkpt>
      <trkpt lat="36.87333139590919017791748046875" lon="-118.43749637715518474578857421875">
        <ele>2618.39990234375</ele>
        <time>2021-06-27T23:59:20.000Z</time>
        <extensions>
          <ns3:TrackPointExtension>
            <ns3:atemp>33.0</ns3:atemp>
            <ns3:hr>81</ns3:hr>
          </ns3:TrackPointExtension>
        </extensions>
      </trkpt>
      <trkpt lat="36.8733601458370685577392578125" lon="-118.4376076050102710723876953125">
        <ele>2617.39990234375</ele>
        <time>2021-06-27T23:59:29.000Z</time>
        <extensions>
          <ns3:TrackPointExtension>
            <ns3:atemp>33.0</ns3:atemp>
            <ns3:hr>82</ns3:hr>
          </ns3:TrackPointExtension>
        </extensions>
      </trkpt>
      <trkpt lat="36.873383782804012298583984375" lon="-118.43762495554983615875244140625">
        <ele>2617.199951171875</ele>
        <time>2021-06-27T23:59:31.000Z</time>
        <extensions>
          <ns3:TrackPointExtension>
            <ns3:atemp>33.0</ns3:atemp>
            <ns3:hr>82</ns3:hr>
          </ns3:TrackPointExtension>
        </extensions>
      </trkpt>
      <trkpt lat="36.87342166900634765625" lon="-118.43774984590709209442138671875">
        <ele>2617.199951171875</ele>
        <time>2021-06-27T23:59:39.000Z</time>
        <extensions>
          <ns3:TrackPointExtension>
            <ns3:atemp>33.0</ns3:atemp>
            <ns3:hr>80</ns3:hr>
          </ns3:TrackPointExtension>
        </extensions>
      </trkpt>
      <trkpt lat="36.873426027595996856689453125" lon="-118.43777767382562160491943359375">
        <ele>2617.199951171875</ele>
        <time>2021-06-27T23:59:41.000Z</time>
        <extensions>
          <ns3:TrackPointExtension>
            <ns3:atemp>33.0</ns3:atemp>
            <ns3:hr>77</ns3:hr>
          </ns3:TrackPointExtension>
        </extensions>
      </trkpt>
      <trkpt lat="36.87341052107512950897216796875" lon="-118.4378060884773731231689453125">
        <ele>2617.199951171875</ele>
        <time>2021-06-27T23:59:45.000Z</time>
        <extensions>
          <ns3:TrackPointExtension>
            <ns3:atemp>33.0</ns3:atemp>
            <ns3:hr>79</ns3:hr>
          </ns3:TrackPointExtension>
        </extensions>
      </trkpt>
      <trkpt lat="36.87339643947780132293701171875" lon="-118.43782478012144565582275390625">
        <ele>2617.199951171875</ele>
        <time>2021-06-27T23:59:49.000Z</time>
        <extensions>
          <ns3:TrackPointExtension>
            <ns3:atemp>33.0</ns3:atemp>
            <ns3:hr>79</ns3:hr>
          </ns3:TrackPointExtension>
        </extensions>
      </trkpt>
      <trkpt lat="36.8734231777489185333251953125" lon="-118.43782695941627025604248046875">
        <ele>2617.199951171875</ele>
        <time>2021-06-27T23:59:52.000Z</time>
        <extensions>
          <ns3:TrackPointExtension>
            <ns3:atemp>33.0</ns3:atemp>
            <ns3:hr>77</ns3:hr>
          </ns3:TrackPointExtension>
        </extensions>
      </trkpt>
      <trkpt lat="36.8734751455485820770263671875" lon="-118.43784892000257968902587890625">
        <ele>2616.800048828125</ele>
        <time>2021-06-27T23:59:59.000Z</time>
        <extensions>
          <ns3:TrackPointExtension>
            <ns3:atemp>33.0</ns3:atemp>
            <ns3:hr>80</ns3:hr>
          </ns3:TrackPointExtension>
        </extensions>
      </trkpt>
      <trkpt lat="36.8734954297542572021484375" lon="-118.43787440098822116851806640625">
        <ele>2616.60009765625</ele>
        <time>2021-06-28T00:00:02.000Z</time>
        <extensions>
          <ns3:TrackPointExtension>
            <ns3:atemp>33.0</ns3:atemp>
            <ns3:hr>83</ns3:hr>
          </ns3:TrackPointExtension>
        </extensions>
      </trkpt>
      <trkpt lat="36.8735157139599323272705078125" lon="-118.43787766993045806884765625">
        <ele>2616.60009765625</ele>
        <time>2021-06-28T00:00:06.000Z</time>
        <extensions>
          <ns3:TrackPointExtension>
            <ns3:atemp>33.0</ns3:atemp>
            <ns3:hr>83</ns3:hr>
          </ns3:TrackPointExtension>
        </extensions>
      </trkpt>
      <trkpt lat="36.8735076673328876495361328125" lon="-118.43788747675716876983642578125">
        <ele>2616.60009765625</ele>
        <time>2021-06-28T00:00:09.000Z</time>
        <extensions>
          <ns3:TrackPointExtension>
            <ns3:atemp>33.0</ns3:atemp>
            <ns3:hr>86</ns3:hr>
          </ns3:TrackPointExtension>
        </extensions>
      </trkpt>
      <trkpt lat="36.873509846627712249755859375" lon="-118.43788328580558300018310546875">
        <ele>2616.39990234375</ele>
        <time>2021-06-28T00:00:13.000Z</time>
        <extensions>
          <ns3:TrackPointExtension>
            <ns3:atemp>33.0</ns3:atemp>
            <ns3:hr>83</ns3:hr>
          </ns3:TrackPointExtension>
        </extensions>
      </trkpt>
      <trkpt lat="36.87350557185709476470947265625" lon="-118.43787255696952342987060546875">
        <ele>2616.39990234375</ele>
        <time>2021-06-28T00:00:14.000Z</time>
        <extensions>
          <ns3:TrackPointExtension>
            <ns3:atemp>33.0</ns3:atemp>
            <ns3:hr>83</ns3:hr>
          </ns3:TrackPointExtension>
        </extensions>
      </trkpt>
      <trkpt lat="36.87345712445676326751708984375" lon="-118.43782645650207996368408203125">
        <ele>2616.60009765625</ele>
        <time>2021-06-28T00:00:20.000Z</time>
        <extensions>
          <ns3:TrackPointExtension>
            <ns3:atemp>33.0</ns3:atemp>
            <ns3:hr>83</ns3:hr>
          </ns3:TrackPointExtension>
        </extensions>
      </trkpt>
      <trkpt lat="36.873439438641071319580078125" lon="-118.43779024668037891387939453125">
        <ele>2616.39990234375</ele>
        <time>2021-06-28T00:00:25.000Z</time>
        <extensions>
          <ns3:TrackPointExtension>
            <ns3:atemp>33.0</ns3:atemp>
            <ns3:hr>79</ns3:hr>
          </ns3:TrackPointExtension>
        </extensions>
      </trkpt>
      <trkpt lat="36.8734409473836421966552734375" lon="-118.43778538517653942108154296875">
        <ele>2616.39990234375</ele>
        <time>2021-06-28T00:00:26.000Z</time>
        <extensions>
          <ns3:TrackPointExtension>
            <ns3:atemp>33.0</ns3:atemp>
            <ns3:hr>82</ns3:hr>
          </ns3:TrackPointExtension>
        </extensions>
      </trkpt>
      <trkpt lat="36.873442791402339935302734375" lon="-118.437779434025287628173828125">
        <ele>2616.39990234375</ele>
        <time>2021-06-28T00:00:27.000Z</time>
        <extensions>
          <ns3:TrackPointExtension>
            <ns3:atemp>33.0</ns3:atemp>
            <ns3:hr>82</ns3:hr>
          </ns3:TrackPointExtension>
        </extensions>
      </trkpt>
      <trkpt lat="36.87344388104975223541259765625" lon="-118.4377737343311309814453125">
        <ele>2616.39990234375</ele>
        <time>2021-06-28T00:00:28.000Z</time>
        <extensions>
          <ns3:TrackPointExtension>
            <ns3:atemp>33.0</ns3:atemp>
            <ns3:hr>79</ns3:hr>
          </ns3:TrackPointExtension>
        </extensions>
      </trkpt>
      <trkpt lat="36.87345427460968494415283203125" lon="-118.4377621673047542572021484375">
        <ele>2616.199951171875</ele>
        <time>2021-06-28T00:00:32.000Z</time>
        <extensions>
          <ns3:TrackPointExtension>
            <ns3:atemp>33.0</ns3:atemp>
            <ns3:hr>82</ns3:hr>
          </ns3:TrackPointExtension>
        </extensions>
      </trkpt>
      <trkpt lat="36.87345880083739757537841796875" lon="-118.437764346599578857421875">
        <ele>2616.199951171875</ele>
        <time>2021-06-28T00:00:33.000Z</time>
        <extensions>
          <ns3:TrackPointExtension>
            <ns3:atemp>33.0</ns3:atemp>
            <ns3:hr>82</ns3:hr>
          </ns3:TrackPointExtension>
        </extensions>
      </trkpt>
      <trkpt lat="36.87346131540834903717041015625" lon="-118.43776677735149860382080078125">
        <ele>2616.60009765625</ele>
        <time>2021-06-28T00:00:43.000Z</time>
        <extensions>
          <ns3:TrackPointExtension>
            <ns3:atemp>33.0</ns3:atemp>
            <ns3:hr>85</ns3:hr>
          </ns3:TrackPointExtension>
        </extensions>
      </trkpt>
      <trkpt lat="36.87346131540834903717041015625" lon="-118.43776677735149860382080078125">
        <ele>2616.60009765625</ele>
        <time>2021-06-28T00:00:44.000Z</time>
        <extensions>
          <ns3:TrackPointExtension>
            <ns3:atemp>33.0</ns3:atemp>
            <ns3:hr>84</ns3:hr>
          </ns3:TrackPointExtension>
        </extensions>
      </trkpt>
      <trkpt lat="36.8734551966190338134765625" lon="-118.4377682022750377655029296875">
        <ele>2616.60009765625</ele>
        <time>2021-06-28T00:00:50.000Z</time>
        <extensions>
          <ns3:TrackPointExtension>
            <ns3:atemp>33.0</ns3:atemp>
            <ns3:hr>81</ns3:hr>
          </ns3:TrackPointExtension>
        </extensions>
      </trkpt>
      <trkpt lat="36.87347975559532642364501953125" lon="-118.43780298717319965362548828125">
        <ele>2616.199951171875</ele>
        <time>2021-06-28T00:00:55.000Z</time>
        <extensions>
          <ns3:TrackPointExtension>
            <ns3:atemp>33.0</ns3:atemp>
            <ns3:hr>78</ns3:hr>
          </ns3:TrackPointExtension>
        </extensions>
      </trkpt>
      <trkpt lat="36.87350372783839702606201171875" lon="-118.43782478012144565582275390625">
        <ele>2616.199951171875</ele>
        <time>2021-06-28T00:00:57.000Z</time>
        <extensions>
          <ns3:TrackPointExtension>
            <ns3:atemp>33.0</ns3:atemp>
            <ns3:hr>77</ns3:hr>
          </ns3:TrackPointExtension>
        </extensions>
      </trkpt>
      <trkpt lat="36.87354094348847866058349609375" lon="-118.437843136489391326904296875">
        <ele>2616.199951171875</ele>
        <time>2021-06-28T00:01:00.000Z</time>
        <extensions>
          <ns3:TrackPointExtension>
            <ns3:atemp>33.0</ns3:atemp>
            <ns3:hr>77</ns3:hr>
          </ns3:TrackPointExtension>
        </extensions>
      </trkpt>
      <trkpt lat="36.87357095070183277130126953125" lon="-118.43785646371543407440185546875">
        <ele>2616.199951171875</ele>
        <time>2021-06-28T00:01:04.000Z</time>
        <extensions>
          <ns3:TrackPointExtension>
            <ns3:atemp>33.0</ns3:atemp>
            <ns3:hr>77</ns3:hr>
          </ns3:TrackPointExtension>
        </extensions>
      </trkpt>
      <trkpt lat="36.87356860376894474029541015625" lon="-118.4378649294376373291015625">
        <ele>2616.199951171875</ele>
        <time>2021-06-28T00:01:05.000Z</time>
        <extensions>
          <ns3:TrackPointExtension>
            <ns3:atemp>33.0</ns3:atemp>
            <ns3:hr>77</ns3:hr>
          </ns3:TrackPointExtension>
        </extensions>
      </trkpt>
      <trkpt lat="36.87355418689548969268798828125" lon="-118.437868617475032806396484375">
        <ele>2616</ele>
        <time>2021-06-28T00:01:07.000Z</time>
        <extensions>
          <ns3:TrackPointExtension>
            <ns3:atemp>33.0</ns3:atemp>
            <ns3:hr>78</ns3:hr>
          </ns3:TrackPointExtension>
        </extensions>
      </trkpt>
      <trkpt lat="36.8735415302217006683349609375" lon="-118.43786098994314670562744140625">
        <ele>2616.199951171875</ele>
        <time>2021-06-28T00:01:09.000Z</time>
        <extensions>
          <ns3:TrackPointExtension>
            <ns3:atemp>32.0</ns3:atemp>
            <ns3:hr>78</ns3:hr>
          </ns3:TrackPointExtension>
        </extensions>
      </trkpt>
      <trkpt lat="36.87353624962270259857177734375" lon="-118.43785478733479976654052734375">
        <ele>2616.199951171875</ele>
        <time>2021-06-28T00:01:12.000Z</time>
        <extensions>
          <ns3:TrackPointExtension>
            <ns3:atemp>32.0</ns3:atemp>
            <ns3:hr>76</ns3:hr>
          </ns3:TrackPointExtension>
        </extensions>
      </trkpt>
      <trkpt lat="36.8735549412667751312255859375" lon="-118.43787473626434803009033203125">
        <ele>2616</ele>
        <time>2021-06-28T00:01:16.000Z</time>
        <extensions>
          <ns3:TrackPointExtension>
            <ns3:atemp>32.0</ns3:atemp>
            <ns3:hr>74</ns3:hr>
          </ns3:TrackPointExtension>
        </extensions>
      </trkpt>
      <trkpt lat="36.8735810928046703338623046875" lon="-118.4378935955464839935302734375">
        <ele>2615.60009765625</ele>
        <time>2021-06-28T00:01:23.000Z</time>
        <extensions>
          <ns3:TrackPointExtension>
            <ns3:atemp>32.0</ns3:atemp>
            <ns3:hr>75</ns3:hr>
          </ns3:TrackPointExtension>
        </extensions>
      </trkpt>
      <trkpt lat="36.87357564456760883331298828125" lon="-118.437884710729122161865234375">
        <ele>2615.60009765625</ele>
        <time>2021-06-28T00:01:25.000Z</time>
        <extensions>
          <ns3:TrackPointExtension>
            <ns3:atemp>32.0</ns3:atemp>
            <ns3:hr>76</ns3:hr>
          </ns3:TrackPointExtension>
        </extensions>
      </trkpt>
      <trkpt lat="36.873641945421695709228515625" lon="-118.437917567789554595947265625">
        <ele>2615.60009765625</ele>
        <time>2021-06-28T00:01:30.000Z</time>
        <extensions>
          <ns3:TrackPointExtension>
            <ns3:atemp>32.0</ns3:atemp>
            <ns3:hr>78</ns3:hr>
          </ns3:TrackPointExtension>
        </extensions>
      </trkpt>
      <trkpt lat="36.87365971505641937255859375" lon="-118.4379003010690212249755859375">
        <ele>2616</ele>
        <time>2021-06-28T00:01:39.000Z</time>
        <extensions>
          <ns3:TrackPointExtension>
            <ns3:atemp>32.0</ns3:atemp>
            <ns3:hr>80</ns3:hr>
          </ns3:TrackPointExtension>
        </extensions>
      </trkpt>
      <trkpt lat="36.873652674257755279541015625" lon="-118.43787607736885547637939453125">
        <ele>2616.199951171875</ele>
        <time>2021-06-28T00:01:43.000Z</time>
        <extensions>
          <ns3:TrackPointExtension>
            <ns3:atemp>32.0</ns3:atemp>
            <ns3:hr>79</ns3:hr>
          </ns3:TrackPointExtension>
        </extensions>
      </trkpt>
      <trkpt lat="36.8736696057021617889404296875" lon="-118.43872214667499065399169921875">
        <ele>2610.39990234375</ele>
        <time>2021-06-28T00:25:21.000Z</time>
        <extensions>
          <ns3:TrackPointExtension>
            <ns3:atemp>32.0</ns3:atemp>
            <ns3:hr>94</ns3:hr>
          </ns3:TrackPointExtension>
        </extensions>
      </trkpt>
      <trkpt lat="36.8736295402050018310546875" lon="-118.4388306923210620880126953125">
        <ele>2609.199951171875</ele>
        <time>2021-06-28T00:25:28.000Z</time>
        <extensions>
          <ns3:TrackPointExtension>
            <ns3:atemp>32.0</ns3:atemp>
            <ns3:hr>95</ns3:hr>
          </ns3:TrackPointExtension>
        </extensions>
      </trkpt>
      <trkpt lat="36.8736280314624309539794921875" lon="-118.4388518147170543670654296875">
        <ele>2609.199951171875</ele>
        <time>2021-06-28T00:25:29.000Z</time>
        <extensions>
          <ns3:TrackPointExtension>
            <ns3:atemp>32.0</ns3:atemp>
            <ns3:hr>95</ns3:hr>
          </ns3:TrackPointExtension>
        </extensions>
      </trkpt>
      <trkpt lat="36.87365703284740447998046875" lon="-118.43898139894008636474609375">
        <ele>2609.199951171875</ele>
        <time>2021-06-28T00:25:37.000Z</time>
        <extensions>
          <ns3:TrackPointExtension>
            <ns3:atemp>32.0</ns3:atemp>
            <ns3:hr>93</ns3:hr>
          </ns3:TrackPointExtension>
        </extensions>
      </trkpt>
      <trkpt lat="36.87367941252887248992919921875" lon="-118.4390828199684619903564453125">
        <ele>2609.39990234375</ele>
        <time>2021-06-28T00:25:44.000Z</time>
        <extensions>
          <ns3:TrackPointExtension>
            <ns3:atemp>32.0</ns3:atemp>
            <ns3:hr>90</ns3:hr>
          </ns3:TrackPointExtension>
        </extensions>
      </trkpt>
      <trkpt lat="36.87368452548980712890625" lon="-118.43910075724124908447265625">
        <ele>2609.60009765625</ele>
        <time>2021-06-28T00:25:45.000Z</time>
        <extensions>
          <ns3:TrackPointExtension>
            <ns3:atemp>32.0</ns3:atemp>
            <ns3:hr>90</ns3:hr>
          </ns3:TrackPointExtension>
        </extensions>
      </trkpt>
      <trkpt lat="36.87369165010750293731689453125" lon="-118.4391478635370731353759765625">
        <ele>2609.800048828125</ele>
        <time>2021-06-28T00:25:47.000Z</time>
        <extensions>
          <ns3:TrackPointExtension>
            <ns3:atemp>32.0</ns3:atemp>
            <ns3:hr>93</ns3:hr>
          </ns3:TrackPointExtension>
        </extensions>
      </trkpt>
      <trkpt lat="36.8736927397549152374267578125" lon="-118.439176864922046661376953125">
        <ele>2609.60009765625</ele>
        <time>2021-06-28T00:25:49.000Z</time>
        <extensions>
          <ns3:TrackPointExtension>
            <ns3:atemp>32.0</ns3:atemp>
            <ns3:hr>90</ns3:hr>
          </ns3:TrackPointExtension>
        </extensions>
      </trkpt>
      <trkpt lat="36.8737091682851314544677734375" lon="-118.43925842083990573883056640625">
        <ele>2609.39990234375</ele>
        <time>2021-06-28T00:25:53.000Z</time>
        <extensions>
          <ns3:TrackPointExtension>
            <ns3:atemp>32.0</ns3:atemp>
            <ns3:hr>92</ns3:hr>
          </ns3:TrackPointExtension>
        </extensions>
      </trkpt>
      <trkpt lat="36.87371897511184215545654296875" lon="-118.43928909860551357269287109375">
        <ele>2609</ele>
        <time>2021-06-28T00:25:56.000Z</time>
        <extensions>
          <ns3:TrackPointExtension>
            <ns3:atemp>32.0</ns3:atemp>
            <ns3:hr>92</ns3:hr>
          </ns3:TrackPointExtension>
        </extensions>
      </trkpt>
      <trkpt lat="36.8737235851585865020751953125" lon="-118.43928691931068897247314453125">
        <ele>2609.39990234375</ele>
        <time>2021-06-28T00:25:58.000Z</time>
        <extensions>
          <ns3:TrackPointExtension>
            <ns3:atemp>32.0</ns3:atemp>
            <ns3:hr>92</ns3:hr>
          </ns3:TrackPointExtension>
        </extensions>
      </trkpt>
      <trkpt lat="36.873696260154247283935546875" lon="-118.43932262621819972991943359375">
        <ele>2608.800048828125</ele>
        <time>2021-06-28T00:26:04.000Z</time>
        <extensions>
          <ns3:TrackPointExtension>
            <ns3:atemp>32.0</ns3:atemp>
            <ns3:hr>93</ns3:hr>
          </ns3:TrackPointExtension>
        </extensions>
      </trkpt>
      <trkpt lat="36.873623840510845184326171875" lon="-118.4393932856619358062744140625">
        <ele>2608.60009765625</ele>
        <time>2021-06-28T00:26:12.000Z</time>
        <extensions>
          <ns3:TrackPointExtension>
            <ns3:atemp>32.0</ns3:atemp>
            <ns3:hr>94</ns3:hr>
          </ns3:TrackPointExtension>
        </extensions>
      </trkpt>
      <trkpt lat="36.873550079762935638427734375" lon="-118.4394526295363903045654296875">
        <ele>2609</ele>
        <time>2021-06-28T00:26:19.000Z</time>
        <extensions>
          <ns3:TrackPointExtension>
            <ns3:atemp>32.0</ns3:atemp>
            <ns3:hr>92</ns3:hr>
          </ns3:TrackPointExtension>
        </extensions>
      </trkpt>
      <trkpt lat="36.87353423796594142913818359375" lon="-118.43947132118046283721923828125">
        <ele>2609</ele>
        <time>2021-06-28T00:26:21.000Z</time>
        <extensions>
          <ns3:TrackPointExtension>
            <ns3:atemp>32.0</ns3:atemp>
            <ns3:hr>91</ns3:hr>
          </ns3:TrackPointExtension>
        </extensions>
      </trkpt>
      <trkpt lat="36.87351177446544170379638671875" lon="-118.43950032256543636322021484375">
        <ele>2608.199951171875</ele>
        <time>2021-06-28T00:26:25.000Z</time>
        <extensions>
          <ns3:TrackPointExtension>
            <ns3:atemp>32.0</ns3:atemp>
            <ns3:hr>92</ns3:hr>
          </ns3:TrackPointExtension>
        </extensions>
      </trkpt>
      <trkpt lat="36.8734868802130222320556640625" lon="-118.43953334726393222808837890625">
        <ele>2607.800048828125</ele>
        <time>2021-06-28T00:26:28.000Z</time>
        <extensions>
          <ns3:TrackPointExtension>
            <ns3:atemp>32.0</ns3:atemp>
            <ns3:hr>92</ns3:hr>
          </ns3:TrackPointExtension>
        </extensions>
      </trkpt>
      <trkpt lat="36.87341085635125637054443359375" lon="-118.43961599282920360565185546875">
        <ele>2607.60009765625</ele>
        <time>2021-06-28T00:26:37.000Z</time>
        <extensions>
          <ns3:TrackPointExtension>
            <ns3:atemp>32.0</ns3:atemp>
            <ns3:hr>90</ns3:hr>
          </ns3:TrackPointExtension>
        </extensions>
      </trkpt>
      <trkpt lat="36.87337808310985565185546875" lon="-118.4397030808031558990478515625">
        <ele>2608</ele>
        <time>2021-06-28T00:26:43.000Z</time>
        <extensions>
          <ns3:TrackPointExtension>
            <ns3:atemp>32.0</ns3:atemp>
            <ns3:hr>87</ns3:hr>
          </ns3:TrackPointExtension>
        </extensions>
      </trkpt>
      <trkpt lat="36.87335126101970672607421875" lon="-118.439727388322353363037109375">
        <ele>2608.199951171875</ele>
        <time>2021-06-28T00:26:46.000Z</time>
        <extensions>
          <ns3:TrackPointExtension>
            <ns3:atemp>32.0</ns3:atemp>
            <ns3:hr>86</ns3:hr>
          </ns3:TrackPointExtension>
        </extensions>
      </trkpt>
      <trkpt lat="36.8732971139252185821533203125" lon="-118.43978782184422016143798828125">
        <ele>2608.39990234375</ele>
        <time>2021-06-28T00:26:53.000Z</time>
        <extensions>
          <ns3:TrackPointExtension>
            <ns3:atemp>32.0</ns3:atemp>
            <ns3:hr>84</ns3:hr>
          </ns3:TrackPointExtension>
        </extensions>
      </trkpt>
      <trkpt lat="36.87329233624041080474853515625" lon="-118.43979385681450366973876953125">
        <ele>2608.60009765625</ele>
        <time>2021-06-28T00:26:54.000Z</time>
        <extensions>
          <ns3:TrackPointExtension>
            <ns3:atemp>32.0</ns3:atemp>
            <ns3:hr>83</ns3:hr>
          </ns3:TrackPointExtension>
        </extensions>
      </trkpt>
      <trkpt lat="36.87327682971954345703125" lon="-118.43981782905757427215576171875">
        <ele>2609.39990234375</ele>
        <time>2021-06-28T00:26:58.000Z</time>
        <extensions>
          <ns3:TrackPointExtension>
            <ns3:atemp>32.0</ns3:atemp>
            <ns3:hr>82</ns3:hr>
          </ns3:TrackPointExtension>
        </extensions>
      </trkpt>
      <trkpt lat="36.873271130025386810302734375" lon="-118.439827300608158111572265625">
        <ele>2609.39990234375</ele>
        <time>2021-06-28T00:26:59.000Z</time>
        <extensions>
          <ns3:TrackPointExtension>
            <ns3:atemp>32.0</ns3:atemp>
            <ns3:hr>85</ns3:hr>
          </ns3:TrackPointExtension>
        </extensions>
      </trkpt>
      <trkpt lat="36.873257048428058624267578125" lon="-118.4398449026048183441162109375">
        <ele>2609.60009765625</ele>
        <time>2021-06-28T00:27:02.000Z</time>
        <extensions>
          <ns3:TrackPointExtension>
            <ns3:atemp>32.0</ns3:atemp>
            <ns3:hr>90</ns3:hr>
          </ns3:TrackPointExtension>
        </extensions>
      </trkpt>
      <trkpt lat="36.8732531927525997161865234375" lon="-118.43985303305089473724365234375">
        <ele>2610</ele>
        <time>2021-06-28T00:27:03.000Z</time>
        <extensions>
          <ns3:TrackPointExtension>
            <ns3:atemp>32.0</ns3:atemp>
            <ns3:hr>90</ns3:hr>
          </ns3:TrackPointExtension>
        </extensions>
      </trkpt>
      <trkpt lat="36.8732407875359058380126953125" lon="-118.43987331725656986236572265625">
        <ele>2610</ele>
        <time>2021-06-28T00:27:05.000Z</time>
        <extensions>
          <ns3:TrackPointExtension>
            <ns3:atemp>32.0</ns3:atemp>
            <ns3:hr>94</ns3:hr>
          </ns3:TrackPointExtension>
        </extensions>
      </trkpt>
      <trkpt lat="36.87322762794792652130126953125" lon="-118.43990265391767024993896484375">
        <ele>2610</ele>
        <time>2021-06-28T00:27:07.000Z</time>
        <extensions>
          <ns3:TrackPointExtension>
            <ns3:atemp>32.0</ns3:atemp>
            <ns3:hr>97</ns3:hr>
          </ns3:TrackPointExtension>
        </extensions>
      </trkpt>
      <trkpt lat="36.8732099421322345733642578125" lon="-118.439939282834529876708984375">
        <ele>2610.39990234375</ele>
        <time>2021-06-28T00:27:10.000Z</time>
        <extensions>
          <ns3:TrackPointExtension>
            <ns3:atemp>32.0</ns3:atemp>
            <ns3:hr>98</ns3:hr>
          </ns3:TrackPointExtension>
        </extensions>
      </trkpt>
      <trkpt lat="36.87319007702171802520751953125" lon="-118.43993584625422954559326171875">
        <ele>2610.800048828125</ele>
        <time>2021-06-28T00:27:12.000Z</time>
        <extensions>
          <ns3:TrackPointExtension>
            <ns3:atemp>32.0</ns3:atemp>
            <ns3:hr>99</ns3:hr>
          </ns3:TrackPointExtension>
        </extensions>
      </trkpt>
      <trkpt lat="36.87318898737430572509765625" lon="-118.43993182294070720672607421875">
        <ele>2610.800048828125</ele>
        <time>2021-06-28T00:27:13.000Z</time>
        <extensions>
          <ns3:TrackPointExtension>
            <ns3:atemp>32.0</ns3:atemp>
            <ns3:hr>98</ns3:hr>
          </ns3:TrackPointExtension>
        </extensions>
      </trkpt>
      <trkpt lat="36.87318840064108371734619140625" lon="-118.4399340860545635223388671875">
        <ele>2610.800048828125</ele>
        <time>2021-06-28T00:27:14.000Z</time>
        <extensions>
          <ns3:TrackPointExtension>
            <ns3:atemp>32.0</ns3:atemp>
            <ns3:hr>101</ns3:hr>
          </ns3:TrackPointExtension>
        </extensions>
      </trkpt>
      <trkpt lat="36.873180605471134185791015625" lon="-118.43995981849730014801025390625">
        <ele>2610.800048828125</ele>
        <time>2021-06-28T00:27:23.000Z</time>
        <extensions>
          <ns3:TrackPointExtension>
            <ns3:atemp>32.0</ns3:atemp>
            <ns3:hr>98</ns3:hr>
          </ns3:TrackPointExtension>
        </extensions>
      </trkpt>
      <trkpt lat="36.8731760792434215545654296875" lon="-118.43996887095272541046142578125">
        <ele>2610.39990234375</ele>
        <time>2021-06-28T00:27:28.000Z</time>
        <extensions>
          <ns3:TrackPointExtension>
            <ns3:atemp>32.0</ns3:atemp>
            <ns3:hr>98</ns3:hr>
          </ns3:TrackPointExtension>
        </extensions>
      </trkpt>
      <trkpt lat="36.8731630034744739532470703125" lon="-118.44001396559178829193115234375">
        <ele>2610.800048828125</ele>
        <time>2021-06-28T00:27:40.000Z</time>
        <extensions>
          <ns3:TrackPointExtension>
            <ns3:atemp>32.0</ns3:atemp>
            <ns3:hr>97</ns3:hr>
          </ns3:TrackPointExtension>
        </extensions>
      </trkpt>
      <trkpt lat="36.87314808368682861328125" lon="-118.44005721621215343475341796875">
        <ele>2610.800048828125</ele>
        <time>2021-06-28T00:27:47.000Z</time>
        <extensions>
          <ns3:TrackPointExtension>
            <ns3:atemp>32.0</ns3:atemp>
            <ns3:hr>100</ns3:hr>
          </ns3:TrackPointExtension>
        </extensions>
      </trkpt>
      <trkpt lat="36.87313936650753021240234375" lon="-118.4400588087737560272216796875">
        <ele>2610.800048828125</ele>
        <time>2021-06-28T00:27:48.000Z</time>
        <extensions>
          <ns3:TrackPointExtension>
            <ns3:atemp>32.0</ns3:atemp>
            <ns3:hr>101</ns3:hr>
          </ns3:TrackPointExtension>
        </extensions>
      </trkpt>
      <trkpt lat="36.87310726381838321685791015625" lon="-118.44010147266089916229248046875">
        <ele>2610.199951171875</ele>
        <time>2021-06-28T00:27:54.000Z</time>
        <extensions>
          <ns3:TrackPointExtension>
            <ns3:atemp>32.0</ns3:atemp>
            <ns3:hr>102</ns3:hr>
          </ns3:TrackPointExtension>
        </extensions>
      </trkpt>
      <trkpt lat="36.8730469979345798492431640625" lon="-118.44016584567725658416748046875">
        <ele>2609.60009765625</ele>
        <time>2021-06-28T00:28:00.000Z</time>
        <extensions>
          <ns3:TrackPointExtension>
            <ns3:atemp>32.0</ns3:atemp>
            <ns3:hr>98</ns3:hr>
          </ns3:TrackPointExtension>
        </extensions>
      </trkpt>
      <trkpt lat="36.87304079532623291015625" lon="-118.44018495641648769378662109375">
        <ele>2609.60009765625</ele>
        <time>2021-06-28T00:28:01.000Z</time>
        <extensions>
          <ns3:TrackPointExtension>
            <ns3:atemp>32.0</ns3:atemp>
            <ns3:hr>98</ns3:hr>
          </ns3:TrackPointExtension>
        </extensions>
      </trkpt>
      <trkpt lat="36.8730325810611248016357421875" lon="-118.44019920565187931060791015625">
        <ele>2609.60009765625</ele>
        <time>2021-06-28T00:28:02.000Z</time>
        <extensions>
          <ns3:TrackPointExtension>
            <ns3:atemp>32.0</ns3:atemp>
            <ns3:hr>98</ns3:hr>
          </ns3:TrackPointExtension>
        </extensions>
      </trkpt>
      <trkpt lat="36.87302805483341217041015625" lon="-118.4401984512805938720703125">
        <ele>2609.60009765625</ele>
        <time>2021-06-28T00:28:03.000Z</time>
        <extensions>
          <ns3:TrackPointExtension>
            <ns3:atemp>32.0</ns3:atemp>
            <ns3:hr>95</ns3:hr>
          </ns3:TrackPointExtension>
        </extensions>
      </trkpt>
      <trkpt lat="36.87301573343575000762939453125" lon="-118.44020239077508449554443359375">
        <ele>2609.60009765625</ele>
        <time>2021-06-28T00:28:04.000Z</time>
        <extensions>
          <ns3:TrackPointExtension>
            <ns3:atemp>32.0</ns3:atemp>
            <ns3:hr>98</ns3:hr>
          </ns3:TrackPointExtension>
        </extensions>
      </trkpt>
      <trkpt lat="36.87299863435328006744384765625" lon="-118.4401969425380229949951171875">
        <ele>2609.60009765625</ele>
        <time>2021-06-28T00:28:05.000Z</time>
        <extensions>
          <ns3:TrackPointExtension>
            <ns3:atemp>32.0</ns3:atemp>
            <ns3:hr>96</ns3:hr>
          </ns3:TrackPointExtension>
        </extensions>
      </trkpt>
      <trkpt lat="36.87294892966747283935546875" lon="-118.44020943157374858856201171875">
        <ele>2609.60009765625</ele>
        <time>2021-06-28T00:28:09.000Z</time>
        <extensions>
          <ns3:TrackPointExtension>
            <ns3:atemp>32.0</ns3:atemp>
            <ns3:hr>93</ns3:hr>
          </ns3:TrackPointExtension>
        </extensions>
      </trkpt>
      <trkpt lat="36.872934512794017791748046875" lon="-118.44021856784820556640625">
        <ele>2609.39990234375</ele>
        <time>2021-06-28T00:28:10.000Z</time>
        <extensions>
          <ns3:TrackPointExtension>
            <ns3:atemp>32.0</ns3:atemp>
            <ns3:hr>93</ns3:hr>
          </ns3:TrackPointExtension>
        </extensions>
      </trkpt>
      <trkpt lat="36.8729259632527828216552734375" lon="-118.4402294643223285675048828125">
        <ele>2609.39990234375</ele>
        <time>2021-06-28T00:28:11.000Z</time>
        <extensions>
          <ns3:TrackPointExtension>
            <ns3:atemp>32.0</ns3:atemp>
            <ns3:hr>93</ns3:hr>
          </ns3:TrackPointExtension>
        </extensions>
      </trkpt>
      <trkpt lat="36.8728773482143878936767578125" lon="-118.440306074917316436767578125">
        <ele>2609.199951171875</ele>
        <time>2021-06-28T00:28:18.000Z</time>
        <extensions>
          <ns3:TrackPointExtension>
            <ns3:atemp>31.0</ns3:atemp>
            <ns3:hr>92</ns3:hr>
          </ns3:TrackPointExtension>
        </extensions>
      </trkpt>
      <trkpt lat="36.8728619255125522613525390625" lon="-118.44036902301013469696044921875">
        <ele>2610.39990234375</ele>
        <time>2021-06-28T00:28:24.000Z</time>
        <extensions>
          <ns3:TrackPointExtension>
            <ns3:atemp>31.0</ns3:atemp>
            <ns3:hr>93</ns3:hr>
          </ns3:TrackPointExtension>
        </extensions>
      </trkpt>
      <trkpt lat="36.8728585727512836456298828125" lon="-118.44037505798041820526123046875">
        <ele>2610.60009765625</ele>
        <time>2021-06-28T00:28:26.000Z</time>
        <extensions>
          <ns3:TrackPointExtension>
            <ns3:atemp>31.0</ns3:atemp>
            <ns3:hr>95</ns3:hr>
          </ns3:TrackPointExtension>
        </extensions>
      </trkpt>
      <trkpt lat="36.87285245396196842193603515625" lon="-118.44038545154035091400146484375">
        <ele>2610.60009765625</ele>
        <time>2021-06-28T00:28:27.000Z</time>
        <extensions>
          <ns3:TrackPointExtension>
            <ns3:atemp>32.0</ns3:atemp>
            <ns3:hr>96</ns3:hr>
          </ns3:TrackPointExtension>
        </extensions>
      </trkpt>
      <trkpt lat="36.8728340975940227508544921875" lon="-118.44041478820145130157470703125">
        <ele>2610.39990234375</ele>
        <time>2021-06-28T00:28:29.000Z</time>
        <extensions>
          <ns3:TrackPointExtension>
            <ns3:atemp>31.0</ns3:atemp>
            <ns3:hr>98</ns3:hr>
          </ns3:TrackPointExtension>
        </extensions>
      </trkpt>
      <trkpt lat="36.872799396514892578125" lon="-118.44043389894068241119384765625">
        <ele>2610.199951171875</ele>
        <time>2021-06-28T00:28:32.000Z</time>
        <extensions>
          <ns3:TrackPointExtension>
            <ns3:atemp>31.0</ns3:atemp>
            <ns3:hr>100</ns3:hr>
          </ns3:TrackPointExtension>
        </extensions>
      </trkpt>
      <trkpt lat="36.87279378063976764678955078125" lon="-118.44044663943350315093994140625">
        <ele>2610.199951171875</ele>
        <time>2021-06-28T00:28:33.000Z</time>
        <extensions>
          <ns3:TrackPointExtension>
            <ns3:atemp>31.0</ns3:atemp>
            <ns3:hr>100</ns3:hr>
          </ns3:TrackPointExtension>
        </extensions>
      </trkpt>
      <trkpt lat="36.8727846443653106689453125" lon="-118.44052006490528583526611328125">
        <ele>2610.199951171875</ele>
        <time>2021-06-28T00:28:38.000Z</time>
        <extensions>
          <ns3:TrackPointExtension>
            <ns3:atemp>31.0</ns3:atemp>
            <ns3:hr>96</ns3:hr>
          </ns3:TrackPointExtension>
        </extensions>
      </trkpt>
      <trkpt lat="36.8727771006524562835693359375" lon="-118.44053230248391628265380859375">
        <ele>2610</ele>
        <time>2021-06-28T00:28:39.000Z</time>
        <extensions>
          <ns3:TrackPointExtension>
            <ns3:atemp>31.0</ns3:atemp>
            <ns3:hr>95</ns3:hr>
          </ns3:TrackPointExtension>
        </extensions>
      </trkpt>
      <trkpt lat="36.87275203876197338104248046875" lon="-118.44060547649860382080078125">
        <ele>2610.60009765625</ele>
        <time>2021-06-28T00:28:44.000Z</time>
        <extensions>
          <ns3:TrackPointExtension>
            <ns3:atemp>31.0</ns3:atemp>
            <ns3:hr>92</ns3:hr>
          </ns3:TrackPointExtension>
        </extensions>
      </trkpt>
      <trkpt lat="36.87273477204144001007080078125" lon="-118.44065635465085506439208984375">
        <ele>2610.60009765625</ele>
        <time>2021-06-28T00:28:48.000Z</time>
        <extensions>
          <ns3:TrackPointExtension>
            <ns3:atemp>31.0</ns3:atemp>
            <ns3:hr>95</ns3:hr>
          </ns3:TrackPointExtension>
        </extensions>
      </trkpt>
      <trkpt lat="36.87273510731756687164306640625" lon="-118.440723158419132232666015625">
        <ele>2610.39990234375</ele>
        <time>2021-06-28T00:28:51.000Z</time>
        <extensions>
          <ns3:TrackPointExtension>
            <ns3:atemp>31.0</ns3:atemp>
            <ns3:hr>98</ns3:hr>
          </ns3:TrackPointExtension>
        </extensions>
      </trkpt>
      <trkpt lat="36.87273041345179080963134765625" lon="-118.4407773055136203765869140625">
        <ele>2610.199951171875</ele>
        <time>2021-06-28T00:28:54.000Z</time>
        <extensions>
          <ns3:TrackPointExtension>
            <ns3:atemp>31.0</ns3:atemp>
            <ns3:hr>101</ns3:hr>
          </ns3:TrackPointExtension>
        </extensions>
      </trkpt>
      <trkpt lat="36.87272538430988788604736328125" lon="-118.440811336040496826171875">
        <ele>2610</ele>
        <time>2021-06-28T00:28:56.000Z</time>
        <extensions>
          <ns3:TrackPointExtension>
            <ns3:atemp>31.0</ns3:atemp>
            <ns3:hr>104</ns3:hr>
          </ns3:TrackPointExtension>
        </extensions>
      </trkpt>
      <trkpt lat="36.872712559998035430908203125" lon="-118.440875709056854248046875">
        <ele>2609.800048828125</ele>
        <time>2021-06-28T00:29:00.000Z</time>
        <extensions>
          <ns3:TrackPointExtension>
            <ns3:atemp>31.0</ns3:atemp>
            <ns3:hr>107</ns3:hr>
          </ns3:TrackPointExtension>
        </extensions>
      </trkpt>
      <trkpt lat="36.87271314673125743865966796875" lon="-118.44090697355568408966064453125">
        <ele>2609.800048828125</ele>
        <time>2021-06-28T00:29:02.000Z</time>
        <extensions>
          <ns3:TrackPointExtension>
            <ns3:atemp>31.0</ns3:atemp>
            <ns3:hr>107</ns3:hr>
          </ns3:TrackPointExtension>
        </extensions>
      </trkpt>
      <trkpt lat="36.87271599657833576202392578125" lon="-118.4409355558454990386962890625">
        <ele>2609.60009765625</ele>
        <time>2021-06-28T00:29:04.000Z</time>
        <extensions>
          <ns3:TrackPointExtension>
            <ns3:atemp>31.0</ns3:atemp>
            <ns3:hr>107</ns3:hr>
          </ns3:TrackPointExtension>
        </extensions>
      </trkpt>
      <trkpt lat="36.8727133981883525848388671875" lon="-118.44095014035701751708984375">
        <ele>2609.39990234375</ele>
        <time>2021-06-28T00:29:05.000Z</time>
        <extensions>
          <ns3:TrackPointExtension>
            <ns3:atemp>31.0</ns3:atemp>
            <ns3:hr>107</ns3:hr>
          </ns3:TrackPointExtension>
        </extensions>
      </trkpt>
      <trkpt lat="36.87271331436932086944580078125" lon="-118.44099766574800014495849609375">
        <ele>2609.199951171875</ele>
        <time>2021-06-28T00:29:08.000Z</time>
        <extensions>
          <ns3:TrackPointExtension>
            <ns3:atemp>31.0</ns3:atemp>
            <ns3:hr>106</ns3:hr>
          </ns3:TrackPointExtension>
        </extensions>
      </trkpt>
      <trkpt lat="36.872693784534931182861328125" lon="-118.4410404972732067108154296875">
        <ele>2609.60009765625</ele>
        <time>2021-06-28T00:29:12.000Z</time>
        <extensions>
          <ns3:TrackPointExtension>
            <ns3:atemp>31.0</ns3:atemp>
            <ns3:hr>103</ns3:hr>
          </ns3:TrackPointExtension>
        </extensions>
      </trkpt>
      <trkpt lat="36.8726540543138980865478515625" lon="-118.44106639735400676727294921875">
        <ele>2609</ele>
        <time>2021-06-28T00:29:16.000Z</time>
        <extensions>
          <ns3:TrackPointExtension>
            <ns3:atemp>31.0</ns3:atemp>
            <ns3:hr>103</ns3:hr>
          </ns3:TrackPointExtension>
        </extensions>
      </trkpt>
      <trkpt lat="36.8726201914250850677490234375" lon="-118.4411112405359745025634765625">
        <ele>2609</ele>
        <time>2021-06-28T00:29:20.000Z</time>
        <extensions>
          <ns3:TrackPointExtension>
            <ns3:atemp>31.0</ns3:atemp>
            <ns3:hr>103</ns3:hr>
          </ns3:TrackPointExtension>
        </extensions>
      </trkpt>
      <trkpt lat="36.872590519487857818603515625" lon="-118.44113529659807682037353515625">
        <ele>2609</ele>
        <time>2021-06-28T00:29:24.000Z</time>
        <extensions>
          <ns3:TrackPointExtension>
            <ns3:atemp>31.0</ns3:atemp>
            <ns3:hr>104</ns3:hr>
          </ns3:TrackPointExtension>
        </extensions>
      </trkpt>
      <trkpt lat="36.8725823052227497100830078125" lon="-118.44114652834832668304443359375">
        <ele>2608.800048828125</ele>
        <time>2021-06-28T00:29:25.000Z</time>
        <extensions>
          <ns3:TrackPointExtension>
            <ns3:atemp>31.0</ns3:atemp>
            <ns3:hr>103</ns3:hr>
          </ns3:TrackPointExtension>
        </extensions>
      </trkpt>
      <trkpt lat="36.87252120114862918853759765625" lon="-118.44119262881577014923095703125">
        <ele>2608.199951171875</ele>
        <time>2021-06-28T00:29:30.000Z</time>
        <extensions>
          <ns3:TrackPointExtension>
            <ns3:atemp>31.0</ns3:atemp>
            <ns3:hr>102</ns3:hr>
          </ns3:TrackPointExtension>
        </extensions>
      </trkpt>
      <trkpt lat="36.8725095503032207489013671875" lon="-118.4412051178514957427978515625">
        <ele>2608</ele>
        <time>2021-06-28T00:29:31.000Z</time>
        <extensions>
          <ns3:TrackPointExtension>
            <ns3:atemp>31.0</ns3:atemp>
            <ns3:hr>103</ns3:hr>
          </ns3:TrackPointExtension>
        </extensions>
      </trkpt>
      <trkpt lat="36.872496642172336578369140625" lon="-118.4412208758294582366943359375">
        <ele>2607.800048828125</ele>
        <time>2021-06-28T00:29:33.000Z</time>
        <extensions>
          <ns3:TrackPointExtension>
            <ns3:atemp>31.0</ns3:atemp>
            <ns3:hr>103</ns3:hr>
          </ns3:TrackPointExtension>
        </extensions>
      </trkpt>
      <trkpt lat="36.8724894337356090545654296875" lon="-118.44127477146685123443603515625">
        <ele>2607.39990234375</ele>
        <time>2021-06-28T00:29:36.000Z</time>
        <extensions>
          <ns3:TrackPointExtension>
            <ns3:atemp>31.0</ns3:atemp>
            <ns3:hr>100</ns3:hr>
          </ns3:TrackPointExtension>
        </extensions>
      </trkpt>
      <trkpt lat="36.8724850751459598541259765625" lon="-118.44131433404982089996337890625">
        <ele>2607.199951171875</ele>
        <time>2021-06-28T00:29:38.000Z</time>
        <extensions>
          <ns3:TrackPointExtension>
            <ns3:atemp>31.0</ns3:atemp>
            <ns3:hr>97</ns3:hr>
          </ns3:TrackPointExtension>
        </extensions>
      </trkpt>
      <trkpt lat="36.8724783696234226226806640625" lon="-118.4413600154221057891845703125">
        <ele>2606.39990234375</ele>
        <time>2021-06-28T00:29:40.000Z</time>
        <extensions>
          <ns3:TrackPointExtension>
            <ns3:atemp>31.0</ns3:atemp>
            <ns3:hr>93</ns3:hr>
          </ns3:TrackPointExtension>
        </extensions>
      </trkpt>
      <trkpt lat="36.8724743463099002838134765625" lon="-118.44137619249522686004638671875">
        <ele>2606.39990234375</ele>
        <time>2021-06-28T00:29:41.000Z</time>
        <extensions>
          <ns3:TrackPointExtension>
            <ns3:atemp>31.0</ns3:atemp>
            <ns3:hr>90</ns3:hr>
          </ns3:TrackPointExtension>
        </extensions>
      </trkpt>
      <trkpt lat="36.8724696524441242218017578125" lon="-118.4413848258554935455322265625">
        <ele>2605.60009765625</ele>
        <time>2021-06-28T00:29:42.000Z</time>
        <extensions>
          <ns3:TrackPointExtension>
            <ns3:atemp>31.0</ns3:atemp>
            <ns3:hr>90</ns3:hr>
          </ns3:TrackPointExtension>
        </extensions>
      </trkpt>
      <trkpt lat="36.87242313288152217864990234375" lon="-118.441432602703571319580078125">
        <ele>2605.199951171875</ele>
        <time>2021-06-28T00:29:46.000Z</time>
        <extensions>
          <ns3:TrackPointExtension>
            <ns3:atemp>31.0</ns3:atemp>
            <ns3:hr>89</ns3:hr>
          </ns3:TrackPointExtension>
        </extensions>
      </trkpt>
      <trkpt lat="36.8724153377115726470947265625" lon="-118.44143989495933055877685546875">
        <ele>2605.199951171875</ele>
        <time>2021-06-28T00:29:47.000Z</time>
        <extensions>
          <ns3:TrackPointExtension>
            <ns3:atemp>31.0</ns3:atemp>
            <ns3:hr>88</ns3:hr>
          </ns3:TrackPointExtension>
        </extensions>
      </trkpt>
      <trkpt lat="36.87242279760539531707763671875" lon="-118.44146872870624065399169921875">
        <ele>2604.800048828125</ele>
        <time>2021-06-28T00:29:49.000Z</time>
        <extensions>
          <ns3:TrackPointExtension>
            <ns3:atemp>31.0</ns3:atemp>
            <ns3:hr>88</ns3:hr>
          </ns3:TrackPointExtension>
        </extensions>
      </trkpt>
      <trkpt lat="36.87244869768619537353515625" lon="-118.4415293298661708831787109375">
        <ele>2604.800048828125</ele>
        <time>2021-06-28T00:29:52.000Z</time>
        <extensions>
          <ns3:TrackPointExtension>
            <ns3:atemp>31.0</ns3:atemp>
            <ns3:hr>88</ns3:hr>
          </ns3:TrackPointExtension>
        </extensions>
      </trkpt>
      <trkpt lat="36.8724632821977138519287109375" lon="-118.44155858270823955535888671875">
        <ele>2605.199951171875</ele>
        <time>2021-06-28T00:29:55.000Z</time>
        <extensions>
          <ns3:TrackPointExtension>
            <ns3:atemp>31.0</ns3:atemp>
            <ns3:hr>86</ns3:hr>
          </ns3:TrackPointExtension>
        </extensions>
      </trkpt>
      <trkpt lat="36.872468478977680206298828125" lon="-118.44157601706683635711669921875">
        <ele>2605.60009765625</ele>
        <time>2021-06-28T00:29:57.000Z</time>
        <extensions>
          <ns3:TrackPointExtension>
            <ns3:atemp>31.0</ns3:atemp>
            <ns3:hr>85</ns3:hr>
          </ns3:TrackPointExtension>
        </extensions>
      </trkpt>
      <trkpt lat="36.87247208319604396820068359375" lon="-118.44158825464546680450439453125">
        <ele>2605.60009765625</ele>
        <time>2021-06-28T00:29:58.000Z</time>
        <extensions>
          <ns3:TrackPointExtension>
            <ns3:atemp>31.0</ns3:atemp>
            <ns3:hr>88</ns3:hr>
          </ns3:TrackPointExtension>
        </extensions>
      </trkpt>
      <trkpt lat="36.872471831738948822021484375" lon="-118.44160082750022411346435546875">
        <ele>2605.800048828125</ele>
        <time>2021-06-28T00:29:59.000Z</time>
        <extensions>
          <ns3:TrackPointExtension>
            <ns3:atemp>31.0</ns3:atemp>
            <ns3:hr>88</ns3:hr>
          </ns3:TrackPointExtension>
        </extensions>
      </trkpt>
      <trkpt lat="36.8724555708467960357666015625" lon="-118.44168581999838352203369140625">
        <ele>2606.39990234375</ele>
        <time>2021-06-28T00:30:05.000Z</time>
        <extensions>
          <ns3:TrackPointExtension>
            <ns3:atemp>31.0</ns3:atemp>
            <ns3:hr>90</ns3:hr>
          </ns3:TrackPointExtension>
        </extensions>
      </trkpt>
      <trkpt lat="36.87243117950856685638427734375" lon="-118.4417214430868625640869140625">
        <ele>2606.60009765625</ele>
        <time>2021-06-28T00:30:08.000Z</time>
        <extensions>
          <ns3:TrackPointExtension>
            <ns3:atemp>31.0</ns3:atemp>
            <ns3:hr>89</ns3:hr>
          </ns3:TrackPointExtension>
        </extensions>
      </trkpt>
      <trkpt lat="36.87241659499704837799072265625" lon="-118.4417301602661609649658203125">
        <ele>2606.39990234375</ele>
        <time>2021-06-28T00:30:11.000Z</time>
        <extensions>
          <ns3:TrackPointExtension>
            <ns3:atemp>31.0</ns3:atemp>
            <ns3:hr>89</ns3:hr>
          </ns3:TrackPointExtension>
        </extensions>
      </trkpt>
      <trkpt lat="36.8723911978304386138916015625" lon="-118.44174868427217006683349609375">
        <ele>2606.199951171875</ele>
        <time>2021-06-28T00:30:13.000Z</time>
        <extensions>
          <ns3:TrackPointExtension>
            <ns3:atemp>31.0</ns3:atemp>
            <ns3:hr>90</ns3:hr>
          </ns3:TrackPointExtension>
        </extensions>
      </trkpt>
      <trkpt lat="36.87238105572760105133056640625" lon="-118.44179428182542324066162109375">
        <ele>2606.39990234375</ele>
        <time>2021-06-28T00:30:16.000Z</time>
        <extensions>
          <ns3:TrackPointExtension>
            <ns3:atemp>31.0</ns3:atemp>
            <ns3:hr>93</ns3:hr>
          </ns3:TrackPointExtension>
        </extensions>
      </trkpt>
      <trkpt lat="36.8723787926137447357177734375" lon="-118.441822528839111328125">
        <ele>2606.60009765625</ele>
        <time>2021-06-28T00:30:18.000Z</time>
        <extensions>
          <ns3:TrackPointExtension>
            <ns3:atemp>31.0</ns3:atemp>
            <ns3:hr>97</ns3:hr>
          </ns3:TrackPointExtension>
        </extensions>
      </trkpt>
      <trkpt lat="36.8723791278898715972900390625" lon="-118.44183887355029582977294921875">
        <ele>2606.60009765625</ele>
        <time>2021-06-28T00:30:19.000Z</time>
        <extensions>
          <ns3:TrackPointExtension>
            <ns3:atemp>31.0</ns3:atemp>
            <ns3:hr>98</ns3:hr>
          </ns3:TrackPointExtension>
        </extensions>
      </trkpt>
      <trkpt lat="36.87235624529421329498291015625" lon="-118.44189696013927459716796875">
        <ele>2606.199951171875</ele>
        <time>2021-06-28T00:30:23.000Z</time>
        <extensions>
          <ns3:TrackPointExtension>
            <ns3:atemp>31.0</ns3:atemp>
            <ns3:hr>101</ns3:hr>
          </ns3:TrackPointExtension>
        </extensions>
      </trkpt>
      <trkpt lat="36.87233336269855499267578125" lon="-118.441946245729923248291015625">
        <ele>2606</ele>
        <time>2021-06-28T00:30:27.000Z</time>
        <extensions>
          <ns3:TrackPointExtension>
            <ns3:atemp>31.0</ns3:atemp>
            <ns3:hr>104</ns3:hr>
          </ns3:TrackPointExtension>
        </extensions>
      </trkpt>
      <trkpt lat="36.872289441525936126708984375" lon="-118.44201204366981983184814453125">
        <ele>2605.39990234375</ele>
        <time>2021-06-28T00:30:33.000Z</time>
        <extensions>
          <ns3:TrackPointExtension>
            <ns3:atemp>31.0</ns3:atemp>
            <ns3:hr>103</ns3:hr>
          </ns3:TrackPointExtension>
        </extensions>
      </trkpt>
      <trkpt lat="36.8722654692828655242919921875" lon="-118.442026041448116302490234375">
        <ele>2605.39990234375</ele>
        <time>2021-06-28T00:30:36.000Z</time>
        <extensions>
          <ns3:TrackPointExtension>
            <ns3:atemp>31.0</ns3:atemp>
            <ns3:hr>102</ns3:hr>
          </ns3:TrackPointExtension>
        </extensions>
      </trkpt>
      <trkpt lat="36.8722396530210971832275390625" lon="-118.4420661069452762603759765625">
        <ele>2604.800048828125</ele>
        <time>2021-06-28T00:30:41.000Z</time>
        <extensions>
          <ns3:TrackPointExtension>
            <ns3:atemp>31.0</ns3:atemp>
            <ns3:hr>101</ns3:hr>
          </ns3:TrackPointExtension>
        </extensions>
      </trkpt>
      <trkpt lat="36.87223621644079685211181640625" lon="-118.442071974277496337890625">
        <ele>2604.39990234375</ele>
        <time>2021-06-28T00:30:42.000Z</time>
        <extensions>
          <ns3:TrackPointExtension>
            <ns3:atemp>31.0</ns3:atemp>
            <ns3:hr>100</ns3:hr>
          </ns3:TrackPointExtension>
        </extensions>
      </trkpt>
      <trkpt lat="36.872186847031116485595703125" lon="-118.4421106986701488494873046875">
        <ele>2603.39990234375</ele>
        <time>2021-06-28T00:30:48.000Z</time>
        <extensions>
          <ns3:TrackPointExtension>
            <ns3:atemp>31.0</ns3:atemp>
            <ns3:hr>102</ns3:hr>
          </ns3:TrackPointExtension>
        </extensions>
      </trkpt>
      <trkpt lat="36.87217779457569122314453125" lon="-118.44212628901004791259765625">
        <ele>2603.39990234375</ele>
        <time>2021-06-28T00:30:49.000Z</time>
        <extensions>
          <ns3:TrackPointExtension>
            <ns3:atemp>31.0</ns3:atemp>
            <ns3:hr>102</ns3:hr>
          </ns3:TrackPointExtension>
        </extensions>
      </trkpt>
      <trkpt lat="36.8721481226384639739990234375" lon="-118.44215436838567256927490234375">
        <ele>2602.800048828125</ele>
        <time>2021-06-28T00:30:52.000Z</time>
        <extensions>
          <ns3:TrackPointExtension>
            <ns3:atemp>31.0</ns3:atemp>
            <ns3:hr>99</ns3:hr>
          </ns3:TrackPointExtension>
        </extensions>
      </trkpt>
      <trkpt lat="36.87212691642343997955322265625" lon="-118.4421653486788272857666015625">
        <ele>2602.199951171875</ele>
        <time>2021-06-28T00:30:54.000Z</time>
        <extensions>
          <ns3:TrackPointExtension>
            <ns3:atemp>31.0</ns3:atemp>
            <ns3:hr>98</ns3:hr>
          </ns3:TrackPointExtension>
        </extensions>
      </trkpt>
      <trkpt lat="36.8720979988574981689453125" lon="-118.4422074258327484130859375">
        <ele>2602</ele>
        <time>2021-06-28T00:30:58.000Z</time>
        <extensions>
          <ns3:TrackPointExtension>
            <ns3:atemp>31.0</ns3:atemp>
            <ns3:hr>97</ns3:hr>
          </ns3:TrackPointExtension>
        </extensions>
      </trkpt>
      <trkpt lat="36.87208198942244052886962890625" lon="-118.4422354213893413543701171875">
        <ele>2601.39990234375</ele>
        <time>2021-06-28T00:31:01.000Z</time>
        <extensions>
          <ns3:TrackPointExtension>
            <ns3:atemp>31.0</ns3:atemp>
            <ns3:hr>95</ns3:hr>
          </ns3:TrackPointExtension>
        </extensions>
      </trkpt>
      <trkpt lat="36.87205416150391101837158203125" lon="-118.44225612469017505645751953125">
        <ele>2601</ele>
        <time>2021-06-28T00:31:04.000Z</time>
        <extensions>
          <ns3:TrackPointExtension>
            <ns3:atemp>31.0</ns3:atemp>
            <ns3:hr>93</ns3:hr>
          </ns3:TrackPointExtension>
        </extensions>
      </trkpt>
      <trkpt lat="36.8720361404120922088623046875" lon="-118.44230256043374538421630859375">
        <ele>2600.60009765625</ele>
        <time>2021-06-28T00:31:08.000Z</time>
        <extensions>
          <ns3:TrackPointExtension>
            <ns3:atemp>31.0</ns3:atemp>
            <ns3:hr>92</ns3:hr>
          </ns3:TrackPointExtension>
        </extensions>
      </trkpt>
      <trkpt lat="36.87198258005082607269287109375" lon="-118.44232209026813507080078125">
        <ele>2600</ele>
        <time>2021-06-28T00:31:12.000Z</time>
        <extensions>
          <ns3:TrackPointExtension>
            <ns3:atemp>31.0</ns3:atemp>
            <ns3:hr>93</ns3:hr>
          </ns3:TrackPointExtension>
        </extensions>
      </trkpt>
      <trkpt lat="36.87196900136768817901611328125" lon="-118.44234379939734935760498046875">
        <ele>2599.800048828125</ele>
        <time>2021-06-28T00:31:14.000Z</time>
        <extensions>
          <ns3:TrackPointExtension>
            <ns3:atemp>31.0</ns3:atemp>
            <ns3:hr>93</ns3:hr>
          </ns3:TrackPointExtension>
        </extensions>
      </trkpt>
      <trkpt lat="36.8719477951526641845703125" lon="-118.4423899836838245391845703125">
        <ele>2599</ele>
        <time>2021-06-28T00:31:17.000Z</time>
        <extensions>
          <ns3:TrackPointExtension>
            <ns3:atemp>31.0</ns3:atemp>
            <ns3:hr>93</ns3:hr>
          </ns3:TrackPointExtension>
        </extensions>
      </trkpt>
      <trkpt lat="36.8719191290438175201416015625" lon="-118.4424657560884952545166015625">
        <ele>2598.199951171875</ele>
        <time>2021-06-28T00:31:22.000Z</time>
        <extensions>
          <ns3:TrackPointExtension>
            <ns3:atemp>31.0</ns3:atemp>
            <ns3:hr>94</ns3:hr>
          </ns3:TrackPointExtension>
        </extensions>
      </trkpt>
      <trkpt lat="36.8719236552715301513671875" lon="-118.4425616450607776641845703125">
        <ele>2597.60009765625</ele>
        <time>2021-06-28T00:31:27.000Z</time>
        <extensions>
          <ns3:TrackPointExtension>
            <ns3:atemp>31.0</ns3:atemp>
            <ns3:hr>94</ns3:hr>
          </ns3:TrackPointExtension>
        </extensions>
      </trkpt>
      <trkpt lat="36.87192340381443500518798828125" lon="-118.44260749407112598419189453125">
        <ele>2597.39990234375</ele>
        <time>2021-06-28T00:31:30.000Z</time>
        <extensions>
          <ns3:TrackPointExtension>
            <ns3:atemp>31.0</ns3:atemp>
            <ns3:hr>94</ns3:hr>
          </ns3:TrackPointExtension>
        </extensions>
      </trkpt>
      <trkpt lat="36.87192432582378387451171875" lon="-118.44263833947479724884033203125">
        <ele>2597.39990234375</ele>
        <time>2021-06-28T00:31:32.000Z</time>
        <extensions>
          <ns3:TrackPointExtension>
            <ns3:atemp>31.0</ns3:atemp>
            <ns3:hr>93</ns3:hr>
          </ns3:TrackPointExtension>
        </extensions>
      </trkpt>
      <trkpt lat="36.8719033710658550262451171875" lon="-118.442691899836063385009765625">
        <ele>2597.199951171875</ele>
        <time>2021-06-28T00:31:37.000Z</time>
        <extensions>
          <ns3:TrackPointExtension>
            <ns3:atemp>31.0</ns3:atemp>
            <ns3:hr>91</ns3:hr>
          </ns3:TrackPointExtension>
        </extensions>
      </trkpt>
      <trkpt lat="36.87186875380575656890869140625" lon="-118.44277136027812957763671875">
        <ele>2596.60009765625</ele>
        <time>2021-06-28T00:31:42.000Z</time>
        <extensions>
          <ns3:TrackPointExtension>
            <ns3:atemp>31.0</ns3:atemp>
            <ns3:hr>92</ns3:hr>
          </ns3:TrackPointExtension>
        </extensions>
      </trkpt>
      <trkpt lat="36.87186121009290218353271484375" lon="-118.44280430115759372711181640625">
        <ele>2596.39990234375</ele>
        <time>2021-06-28T00:31:44.000Z</time>
        <extensions>
          <ns3:TrackPointExtension>
            <ns3:atemp>31.0</ns3:atemp>
            <ns3:hr>90</ns3:hr>
          </ns3:TrackPointExtension>
        </extensions>
      </trkpt>
      <trkpt lat="36.87184126116335391998291015625" lon="-118.44284755177795886993408203125">
        <ele>2596</ele>
        <time>2021-06-28T00:31:47.000Z</time>
        <extensions>
          <ns3:TrackPointExtension>
            <ns3:atemp>31.0</ns3:atemp>
            <ns3:hr>87</ns3:hr>
          </ns3:TrackPointExtension>
        </extensions>
      </trkpt>
      <trkpt lat="36.87183204106986522674560546875" lon="-118.4428747929632663726806640625">
        <ele>2595.800048828125</ele>
        <time>2021-06-28T00:31:49.000Z</time>
        <extensions>
          <ns3:TrackPointExtension>
            <ns3:atemp>31.0</ns3:atemp>
            <ns3:hr>91</ns3:hr>
          </ns3:TrackPointExtension>
        </extensions>
      </trkpt>
      <trkpt lat="36.8718275986611843109130859375" lon="-118.4428969211876392364501953125">
        <ele>2595.800048828125</ele>
        <time>2021-06-28T00:31:51.000Z</time>
        <extensions>
          <ns3:TrackPointExtension>
            <ns3:atemp>31.0</ns3:atemp>
            <ns3:hr>91</ns3:hr>
          </ns3:TrackPointExtension>
        </extensions>
      </trkpt>
      <trkpt lat="36.87181896530091762542724609375" lon="-118.442964144051074981689453125">
        <ele>2595.60009765625</ele>
        <time>2021-06-28T00:31:56.000Z</time>
        <extensions>
          <ns3:TrackPointExtension>
            <ns3:atemp>31.0</ns3:atemp>
            <ns3:hr>92</ns3:hr>
          </ns3:TrackPointExtension>
        </extensions>
      </trkpt>
      <trkpt lat="36.8718121759593486785888671875" lon="-118.44299398362636566162109375">
        <ele>2595.60009765625</ele>
        <time>2021-06-28T00:31:58.000Z</time>
        <extensions>
          <ns3:TrackPointExtension>
            <ns3:atemp>31.0</ns3:atemp>
            <ns3:hr>95</ns3:hr>
          </ns3:TrackPointExtension>
        </extensions>
      </trkpt>
      <trkpt lat="36.8718111701309680938720703125" lon="-118.44300747849047183990478515625">
        <ele>2595.39990234375</ele>
        <time>2021-06-28T00:31:59.000Z</time>
        <extensions>
          <ns3:TrackPointExtension>
            <ns3:atemp>31.0</ns3:atemp>
            <ns3:hr>92</ns3:hr>
          </ns3:TrackPointExtension>
        </extensions>
      </trkpt>
      <trkpt lat="36.871807985007762908935546875" lon="-118.44301954843103885650634765625">
        <ele>2595.39990234375</ele>
        <time>2021-06-28T00:32:00.000Z</time>
        <extensions>
          <ns3:TrackPointExtension>
            <ns3:atemp>31.0</ns3:atemp>
            <ns3:hr>92</ns3:hr>
          </ns3:TrackPointExtension>
        </extensions>
      </trkpt>
      <trkpt lat="36.87180337496101856231689453125" lon="-118.44302960671484470367431640625">
        <ele>2595.199951171875</ele>
        <time>2021-06-28T00:32:01.000Z</time>
        <extensions>
          <ns3:TrackPointExtension>
            <ns3:atemp>31.0</ns3:atemp>
            <ns3:hr>92</ns3:hr>
          </ns3:TrackPointExtension>
        </extensions>
      </trkpt>
      <trkpt lat="36.87177412211894989013671875" lon="-118.443099595606327056884765625">
        <ele>2594.60009765625</ele>
        <time>2021-06-28T00:32:06.000Z</time>
        <extensions>
          <ns3:TrackPointExtension>
            <ns3:atemp>31.0</ns3:atemp>
            <ns3:hr>89</ns3:hr>
          </ns3:TrackPointExtension>
        </extensions>
      </trkpt>
      <trkpt lat="36.8717729486525058746337890625" lon="-118.443139158189296722412109375">
        <ele>2594.199951171875</ele>
        <time>2021-06-28T00:32:09.000Z</time>
        <extensions>
          <ns3:TrackPointExtension>
            <ns3:atemp>31.0</ns3:atemp>
            <ns3:hr>85</ns3:hr>
          </ns3:TrackPointExtension>
        </extensions>
      </trkpt>
      <trkpt lat="36.871754340827465057373046875" lon="-118.4432104043662548065185546875">
        <ele>2594.199951171875</ele>
        <time>2021-06-28T00:32:13.000Z</time>
        <extensions>
          <ns3:TrackPointExtension>
            <ns3:atemp>31.0</ns3:atemp>
            <ns3:hr>85</ns3:hr>
          </ns3:TrackPointExtension>
        </extensions>
      </trkpt>
      <trkpt lat="36.87170840799808502197265625" lon="-118.443308807909488677978515625">
        <ele>2594</ele>
        <time>2021-06-28T00:32:19.000Z</time>
        <extensions>
          <ns3:TrackPointExtension>
            <ns3:atemp>31.0</ns3:atemp>
            <ns3:hr>82</ns3:hr>
          </ns3:TrackPointExtension>
        </extensions>
      </trkpt>
      <trkpt lat="36.87169893644750118255615234375" lon="-118.44333906657993793487548828125">
        <ele>2593.60009765625</ele>
        <time>2021-06-28T00:32:21.000Z</time>
        <extensions>
          <ns3:TrackPointExtension>
            <ns3:atemp>31.0</ns3:atemp>
            <ns3:hr>83</ns3:hr>
          </ns3:TrackPointExtension>
        </extensions>
      </trkpt>
      <trkpt lat="36.87169776298105716705322265625" lon="-118.443352393805980682373046875">
        <ele>2593.39990234375</ele>
        <time>2021-06-28T00:32:22.000Z</time>
        <extensions>
          <ns3:TrackPointExtension>
            <ns3:atemp>31.0</ns3:atemp>
            <ns3:hr>82</ns3:hr>
          </ns3:TrackPointExtension>
        </extensions>
      </trkpt>
      <trkpt lat="36.8716944940388202667236328125" lon="-118.4433780424296855926513671875">
        <ele>2593.199951171875</ele>
        <time>2021-06-28T00:32:24.000Z</time>
        <extensions>
          <ns3:TrackPointExtension>
            <ns3:atemp>31.0</ns3:atemp>
            <ns3:hr>79</ns3:hr>
          </ns3:TrackPointExtension>
        </extensions>
      </trkpt>
      <trkpt lat="36.87169977463781833648681640625" lon="-118.4434776194393634796142578125">
        <ele>2593.39990234375</ele>
        <time>2021-06-28T00:32:31.000Z</time>
        <extensions>
          <ns3:TrackPointExtension>
            <ns3:atemp>31.0</ns3:atemp>
            <ns3:hr>80</ns3:hr>
          </ns3:TrackPointExtension>
        </extensions>
      </trkpt>
      <trkpt lat="36.871696673333644866943359375" lon="-118.44349262304604053497314453125">
        <ele>2593.60009765625</ele>
        <time>2021-06-28T00:32:32.000Z</time>
        <extensions>
          <ns3:TrackPointExtension>
            <ns3:atemp>31.0</ns3:atemp>
            <ns3:hr>77</ns3:hr>
          </ns3:TrackPointExtension>
        </extensions>
      </trkpt>
      <trkpt lat="36.8716757185757160186767578125" lon="-118.4435252286493778228759765625">
        <ele>2593.60009765625</ele>
        <time>2021-06-28T00:32:35.000Z</time>
        <extensions>
          <ns3:TrackPointExtension>
            <ns3:atemp>31.0</ns3:atemp>
            <ns3:hr>79</ns3:hr>
          </ns3:TrackPointExtension>
        </extensions>
      </trkpt>
      <trkpt lat="36.871642358601093292236328125" lon="-118.443583734333515167236328125">
        <ele>2593.199951171875</ele>
        <time>2021-06-28T00:32:39.000Z</time>
        <extensions>
          <ns3:TrackPointExtension>
            <ns3:atemp>31.0</ns3:atemp>
            <ns3:hr>80</ns3:hr>
          </ns3:TrackPointExtension>
        </extensions>
      </trkpt>
      <trkpt lat="36.8716388382017612457275390625" lon="-118.443631343543529510498046875">
        <ele>2593</ele>
        <time>2021-06-28T00:32:42.000Z</time>
        <extensions>
          <ns3:TrackPointExtension>
            <ns3:atemp>31.0</ns3:atemp>
            <ns3:hr>83</ns3:hr>
          </ns3:TrackPointExtension>
        </extensions>
      </trkpt>
      <trkpt lat="36.87160790897905826568603515625" lon="-118.44371415674686431884765625">
        <ele>2593</ele>
        <time>2021-06-28T00:32:47.000Z</time>
        <extensions>
          <ns3:TrackPointExtension>
            <ns3:atemp>31.0</ns3:atemp>
            <ns3:hr>82</ns3:hr>
          </ns3:TrackPointExtension>
        </extensions>
      </trkpt>
      <trkpt lat="36.87159709632396697998046875" lon="-118.44375975430011749267578125">
        <ele>2593</ele>
        <time>2021-06-28T00:32:50.000Z</time>
        <extensions>
          <ns3:TrackPointExtension>
            <ns3:atemp>31.0</ns3:atemp>
            <ns3:hr>81</ns3:hr>
          </ns3:TrackPointExtension>
        </extensions>
      </trkpt>
      <trkpt lat="36.87158443965017795562744140625" lon="-118.4437897615134716033935546875">
        <ele>2593</ele>
        <time>2021-06-28T00:32:54.000Z</time>
        <extensions>
          <ns3:TrackPointExtension>
            <ns3:atemp>31.0</ns3:atemp>
            <ns3:hr>78</ns3:hr>
          </ns3:TrackPointExtension>
        </extensions>
      </trkpt>
      <trkpt lat="36.8715617246925830841064453125" lon="-118.44385522417724132537841796875">
        <ele>2593</ele>
        <time>2021-06-28T00:32:59.000Z</time>
        <extensions>
          <ns3:TrackPointExtension>
            <ns3:atemp>31.0</ns3:atemp>
            <ns3:hr>81</ns3:hr>
          </ns3:TrackPointExtension>
        </extensions>
      </trkpt>
      <trkpt lat="36.871552169322967529296875" lon="-118.44386704266071319580078125">
        <ele>2592.800048828125</ele>
        <time>2021-06-28T00:33:00.000Z</time>
        <extensions>
          <ns3:TrackPointExtension>
            <ns3:atemp>31.0</ns3:atemp>
            <ns3:hr>83</ns3:hr>
          </ns3:TrackPointExtension>
        </extensions>
      </trkpt>
      <trkpt lat="36.87154085375368595123291015625" lon="-118.4438755922019481658935546875">
        <ele>2592.60009765625</ele>
        <time>2021-06-28T00:33:01.000Z</time>
        <extensions>
          <ns3:TrackPointExtension>
            <ns3:atemp>31.0</ns3:atemp>
            <ns3:hr>83</ns3:hr>
          </ns3:TrackPointExtension>
        </extensions>
      </trkpt>
      <trkpt lat="36.87152677215635776519775390625" lon="-118.44389528967440128326416015625">
        <ele>2592.39990234375</ele>
        <time>2021-06-28T00:33:03.000Z</time>
        <extensions>
          <ns3:TrackPointExtension>
            <ns3:atemp>31.0</ns3:atemp>
            <ns3:hr>81</ns3:hr>
          </ns3:TrackPointExtension>
        </extensions>
      </trkpt>
      <trkpt lat="36.87152308411896228790283203125" lon="-118.44391037710011005401611328125">
        <ele>2592</ele>
        <time>2021-06-28T00:33:04.000Z</time>
        <extensions>
          <ns3:TrackPointExtension>
            <ns3:atemp>31.0</ns3:atemp>
            <ns3:hr>84</ns3:hr>
          </ns3:TrackPointExtension>
        </extensions>
      </trkpt>
      <trkpt lat="36.8715084157884120941162109375" lon="-118.44394658692181110382080078125">
        <ele>2592</ele>
        <time>2021-06-28T00:33:07.000Z</time>
        <extensions>
          <ns3:TrackPointExtension>
            <ns3:atemp>31.0</ns3:atemp>
            <ns3:hr>84</ns3:hr>
          </ns3:TrackPointExtension>
        </extensions>
      </trkpt>
      <trkpt lat="36.8714443780481815338134765625" lon="-118.444050438702106475830078125">
        <ele>2592.39990234375</ele>
        <time>2021-06-28T00:33:16.000Z</time>
        <extensions>
          <ns3:TrackPointExtension>
            <ns3:atemp>31.0</ns3:atemp>
            <ns3:hr>85</ns3:hr>
          </ns3:TrackPointExtension>
        </extensions>
      </trkpt>
      <trkpt lat="36.8714245967566967010498046875" lon="-118.444076590240001678466796875">
        <ele>2592.39990234375</ele>
        <time>2021-06-28T00:33:18.000Z</time>
        <extensions>
          <ns3:TrackPointExtension>
            <ns3:atemp>31.0</ns3:atemp>
            <ns3:hr>86</ns3:hr>
          </ns3:TrackPointExtension>
        </extensions>
      </trkpt>
      <trkpt lat="36.871372796595096588134765625" lon="-118.44413015060126781463623046875">
        <ele>2592.39990234375</ele>
        <time>2021-06-28T00:33:22.000Z</time>
        <extensions>
          <ns3:TrackPointExtension>
            <ns3:atemp>31.0</ns3:atemp>
            <ns3:hr>86</ns3:hr>
          </ns3:TrackPointExtension>
        </extensions>
      </trkpt>
      <trkpt lat="36.87135779298841953277587890625" lon="-118.444157056510448455810546875">
        <ele>2592.60009765625</ele>
        <time>2021-06-28T00:33:24.000Z</time>
        <extensions>
          <ns3:TrackPointExtension>
            <ns3:atemp>31.0</ns3:atemp>
            <ns3:hr>87</ns3:hr>
          </ns3:TrackPointExtension>
        </extensions>
      </trkpt>
      <trkpt lat="36.871332563459873199462890625" lon="-118.44418396241962909698486328125">
        <ele>2592.60009765625</ele>
        <time>2021-06-28T00:33:26.000Z</time>
        <extensions>
          <ns3:TrackPointExtension>
            <ns3:atemp>31.0</ns3:atemp>
            <ns3:hr>90</ns3:hr>
          </ns3:TrackPointExtension>
        </extensions>
      </trkpt>
      <trkpt lat="36.87132510356605052947998046875" lon="-118.44421572983264923095703125">
        <ele>2592.60009765625</ele>
        <time>2021-06-28T00:33:28.000Z</time>
        <extensions>
          <ns3:TrackPointExtension>
            <ns3:atemp>31.0</ns3:atemp>
            <ns3:hr>90</ns3:hr>
          </ns3:TrackPointExtension>
        </extensions>
      </trkpt>
      <trkpt lat="36.871301047503948211669921875" lon="-118.4442470781505107879638671875">
        <ele>2592.39990234375</ele>
        <time>2021-06-28T00:33:31.000Z</time>
        <extensions>
          <ns3:TrackPointExtension>
            <ns3:atemp>31.0</ns3:atemp>
            <ns3:hr>93</ns3:hr>
          </ns3:TrackPointExtension>
        </extensions>
      </trkpt>
      <trkpt lat="36.87125855125486850738525390625" lon="-118.444275744259357452392578125">
        <ele>2592.199951171875</ele>
        <time>2021-06-28T00:33:35.000Z</time>
        <extensions>
          <ns3:TrackPointExtension>
            <ns3:atemp>31.0</ns3:atemp>
            <ns3:hr>92</ns3:hr>
          </ns3:TrackPointExtension>
        </extensions>
      </trkpt>
      <trkpt lat="36.8711788393557071685791015625" lon="-118.4443691186606884002685546875">
        <ele>2592</ele>
        <time>2021-06-28T00:33:43.000Z</time>
        <extensions>
          <ns3:TrackPointExtension>
            <ns3:atemp>31.0</ns3:atemp>
            <ns3:hr>90</ns3:hr>
          </ns3:TrackPointExtension>
        </extensions>
      </trkpt>
      <trkpt lat="36.87110231257975101470947265625" lon="-118.44444447197020053863525390625">
        <ele>2592.199951171875</ele>
        <time>2021-06-28T00:33:52.000Z</time>
        <extensions>
          <ns3:TrackPointExtension>
            <ns3:atemp>31.0</ns3:atemp>
            <ns3:hr>91</ns3:hr>
          </ns3:TrackPointExtension>
        </extensions>
      </trkpt>
      <trkpt lat="36.87109376303851604461669921875" lon="-118.4444569610059261322021484375">
        <ele>2592.199951171875</ele>
        <time>2021-06-28T00:33:53.000Z</time>
        <extensions>
          <ns3:TrackPointExtension>
            <ns3:atemp>31.0</ns3:atemp>
            <ns3:hr>91</ns3:hr>
          </ns3:TrackPointExtension>
        </extensions>
      </trkpt>
      <trkpt lat="36.87103207223117351531982421875" lon="-118.4445186518132686614990234375">
        <ele>2591.60009765625</ele>
        <time>2021-06-28T00:33:58.000Z</time>
        <extensions>
          <ns3:TrackPointExtension>
            <ns3:atemp>31.0</ns3:atemp>
            <ns3:hr>88</ns3:hr>
          </ns3:TrackPointExtension>
        </extensions>
      </trkpt>
      <trkpt lat="36.8710068427026271820068359375" lon="-118.444546647369861602783203125">
        <ele>2591.60009765625</ele>
        <time>2021-06-28T00:34:00.000Z</time>
        <extensions>
          <ns3:TrackPointExtension>
            <ns3:atemp>31.0</ns3:atemp>
            <ns3:hr>87</ns3:hr>
          </ns3:TrackPointExtension>
        </extensions>
      </trkpt>
      <trkpt lat="36.87098194845020771026611328125" lon="-118.44457447528839111328125">
        <ele>2591.60009765625</ele>
        <time>2021-06-28T00:34:02.000Z</time>
        <extensions>
          <ns3:TrackPointExtension>
            <ns3:atemp>31.0</ns3:atemp>
            <ns3:hr>87</ns3:hr>
          </ns3:TrackPointExtension>
        </extensions>
      </trkpt>
      <trkpt lat="36.87096551991999149322509765625" lon="-118.4446135349571704864501953125">
        <ele>2591.800048828125</ele>
        <time>2021-06-28T00:34:04.000Z</time>
        <extensions>
          <ns3:TrackPointExtension>
            <ns3:atemp>31.0</ns3:atemp>
            <ns3:hr>88</ns3:hr>
          </ns3:TrackPointExtension>
        </extensions>
      </trkpt>
      <trkpt lat="36.8709401227533817291259765625" lon="-118.44465267844498157501220703125">
        <ele>2592.39990234375</ele>
        <time>2021-06-28T00:34:08.000Z</time>
        <extensions>
          <ns3:TrackPointExtension>
            <ns3:atemp>31.0</ns3:atemp>
            <ns3:hr>88</ns3:hr>
          </ns3:TrackPointExtension>
        </extensions>
      </trkpt>
      <trkpt lat="36.870926208794116973876953125" lon="-118.44466374255716800689697265625">
        <ele>2592.800048828125</ele>
        <time>2021-06-28T00:34:10.000Z</time>
        <extensions>
          <ns3:TrackPointExtension>
            <ns3:atemp>31.0</ns3:atemp>
            <ns3:hr>88</ns3:hr>
          </ns3:TrackPointExtension>
        </extensions>
      </trkpt>
      <trkpt lat="36.8708641827106475830078125" lon="-118.44469718635082244873046875">
        <ele>2592.199951171875</ele>
        <time>2021-06-28T00:34:16.000Z</time>
        <extensions>
          <ns3:TrackPointExtension>
            <ns3:atemp>31.0</ns3:atemp>
            <ns3:hr>87</ns3:hr>
          </ns3:TrackPointExtension>
        </extensions>
      </trkpt>
      <trkpt lat="36.8708469159901142120361328125" lon="-118.4447218291461467742919921875">
        <ele>2591.800048828125</ele>
        <time>2021-06-28T00:34:18.000Z</time>
        <extensions>
          <ns3:TrackPointExtension>
            <ns3:atemp>31.0</ns3:atemp>
            <ns3:hr>87</ns3:hr>
          </ns3:TrackPointExtension>
        </extensions>
      </trkpt>
      <trkpt lat="36.870801486074924468994140625" lon="-118.4448582865297794342041015625">
        <ele>2591.39990234375</ele>
        <time>2021-06-28T00:34:26.000Z</time>
        <extensions>
          <ns3:TrackPointExtension>
            <ns3:atemp>31.0</ns3:atemp>
            <ns3:hr>88</ns3:hr>
          </ns3:TrackPointExtension>
        </extensions>
      </trkpt>
      <trkpt lat="36.8707822076976299285888671875" lon="-118.444965071976184844970703125">
        <ele>2592.39990234375</ele>
        <time>2021-06-28T00:34:33.000Z</time>
        <extensions>
          <ns3:TrackPointExtension>
            <ns3:atemp>31.0</ns3:atemp>
            <ns3:hr>86</ns3:hr>
          </ns3:TrackPointExtension>
        </extensions>
      </trkpt>
      <trkpt lat="36.8707788549363613128662109375" lon="-118.44498191960155963897705078125">
        <ele>2592.60009765625</ele>
        <time>2021-06-28T00:34:34.000Z</time>
        <extensions>
          <ns3:TrackPointExtension>
            <ns3:atemp>31.0</ns3:atemp>
            <ns3:hr>86</ns3:hr>
          </ns3:TrackPointExtension>
        </extensions>
      </trkpt>
      <trkpt lat="36.8707684613764286041259765625" lon="-118.44500002451241016387939453125">
        <ele>2593.199951171875</ele>
        <time>2021-06-28T00:34:36.000Z</time>
        <extensions>
          <ns3:TrackPointExtension>
            <ns3:atemp>31.0</ns3:atemp>
            <ns3:hr>87</ns3:hr>
          </ns3:TrackPointExtension>
        </extensions>
      </trkpt>
      <trkpt lat="36.8707634322345256805419921875" lon="-118.44502307474613189697265625">
        <ele>2593.60009765625</ele>
        <time>2021-06-28T00:34:39.000Z</time>
        <extensions>
          <ns3:TrackPointExtension>
            <ns3:atemp>31.0</ns3:atemp>
            <ns3:hr>89</ns3:hr>
          </ns3:TrackPointExtension>
        </extensions>
      </trkpt>
      <trkpt lat="36.8707671202719211578369140625" lon="-118.445032127201557159423828125">
        <ele>2594</ele>
        <time>2021-06-28T00:34:40.000Z</time>
        <extensions>
          <ns3:TrackPointExtension>
            <ns3:atemp>31.0</ns3:atemp>
            <ns3:hr>92</ns3:hr>
          </ns3:TrackPointExtension>
        </extensions>
      </trkpt>
      <trkpt lat="36.87076770700514316558837890625" lon="-118.44504495151340961456298828125">
        <ele>2594.199951171875</ele>
        <time>2021-06-28T00:34:41.000Z</time>
        <extensions>
          <ns3:TrackPointExtension>
            <ns3:atemp>31.0</ns3:atemp>
            <ns3:hr>92</ns3:hr>
          </ns3:TrackPointExtension>
        </extensions>
      </trkpt>
      <trkpt lat="36.87075488269329071044921875" lon="-118.4450800716876983642578125">
        <ele>2594.800048828125</ele>
        <time>2021-06-28T00:34:44.000Z</time>
        <extensions>
          <ns3:TrackPointExtension>
            <ns3:atemp>31.0</ns3:atemp>
            <ns3:hr>95</ns3:hr>
          </ns3:TrackPointExtension>
        </extensions>
      </trkpt>
      <trkpt lat="36.8707530386745929718017578125" lon="-118.4450936503708362579345703125">
        <ele>2595</ele>
        <time>2021-06-28T00:34:45.000Z</time>
        <extensions>
          <ns3:TrackPointExtension>
            <ns3:atemp>31.0</ns3:atemp>
            <ns3:hr>94</ns3:hr>
          </ns3:TrackPointExtension>
        </extensions>
      </trkpt>
      <trkpt lat="36.8707617558538913726806640625" lon="-118.445106558501720428466796875">
        <ele>2595</ele>
        <time>2021-06-28T00:34:46.000Z</time>
        <extensions>
          <ns3:TrackPointExtension>
            <ns3:atemp>31.0</ns3:atemp>
            <ns3:hr>98</ns3:hr>
          </ns3:TrackPointExtension>
        </extensions>
      </trkpt>
      <trkpt lat="36.8707691319286823272705078125" lon="-118.44514804892241954803466796875">
        <ele>2595.199951171875</ele>
        <time>2021-06-28T00:34:49.000Z</time>
        <extensions>
          <ns3:TrackPointExtension>
            <ns3:atemp>31.0</ns3:atemp>
            <ns3:hr>99</ns3:hr>
          </ns3:TrackPointExtension>
        </extensions>
      </trkpt>
      <trkpt lat="36.8707567267119884490966796875" lon="-118.445189706981182098388671875">
        <ele>2595.39990234375</ele>
        <time>2021-06-28T00:34:52.000Z</time>
        <extensions>
          <ns3:TrackPointExtension>
            <ns3:atemp>31.0</ns3:atemp>
            <ns3:hr>104</ns3:hr>
          </ns3:TrackPointExtension>
        </extensions>
      </trkpt>
      <trkpt lat="36.87074683606624603271484375" lon="-118.445212505757808685302734375">
        <ele>2595.39990234375</ele>
        <time>2021-06-28T00:34:54.000Z</time>
        <extensions>
          <ns3:TrackPointExtension>
            <ns3:atemp>31.0</ns3:atemp>
            <ns3:hr>106</ns3:hr>
          </ns3:TrackPointExtension>
        </extensions>
      </trkpt>
      <trkpt lat="36.87072210945188999176025390625" lon="-118.4452669881284236907958984375">
        <ele>2595.39990234375</ele>
        <time>2021-06-28T00:34:59.000Z</time>
        <extensions>
          <ns3:TrackPointExtension>
            <ns3:atemp>31.0</ns3:atemp>
            <ns3:hr>108</ns3:hr>
          </ns3:TrackPointExtension>
        </extensions>
      </trkpt>
      <trkpt lat="36.87071339227259159088134765625" lon="-118.445276878774166107177734375">
        <ele>2595</ele>
        <time>2021-06-28T00:35:00.000Z</time>
        <extensions>
          <ns3:TrackPointExtension>
            <ns3:atemp>31.0</ns3:atemp>
            <ns3:hr>109</ns3:hr>
          </ns3:TrackPointExtension>
        </extensions>
      </trkpt>
      <trkpt lat="36.8706755898892879486083984375" lon="-118.4453125856816768646240234375">
        <ele>2595</ele>
        <time>2021-06-28T00:35:04.000Z</time>
        <extensions>
          <ns3:TrackPointExtension>
            <ns3:atemp>31.0</ns3:atemp>
            <ns3:hr>109</ns3:hr>
          </ns3:TrackPointExtension>
        </extensions>
      </trkpt>
      <trkpt lat="36.87065354548394680023193359375" lon="-118.44534493982791900634765625">
        <ele>2594.60009765625</ele>
        <time>2021-06-28T00:35:07.000Z</time>
        <extensions>
          <ns3:TrackPointExtension>
            <ns3:atemp>31.0</ns3:atemp>
            <ns3:hr>113</ns3:hr>
          </ns3:TrackPointExtension>
        </extensions>
      </trkpt>
      <trkpt lat="36.87063150107860565185546875" lon="-118.445356003940105438232421875">
        <ele>2594.39990234375</ele>
        <time>2021-06-28T00:35:09.000Z</time>
        <extensions>
          <ns3:TrackPointExtension>
            <ns3:atemp>31.0</ns3:atemp>
            <ns3:hr>109</ns3:hr>
          </ns3:TrackPointExtension>
        </extensions>
      </trkpt>
      <trkpt lat="36.87059168703854084014892578125" lon="-118.44537151046097278594970703125">
        <ele>2594</ele>
        <time>2021-06-28T00:35:12.000Z</time>
        <extensions>
          <ns3:TrackPointExtension>
            <ns3:atemp>31.0</ns3:atemp>
            <ns3:hr>107</ns3:hr>
          </ns3:TrackPointExtension>
        </extensions>
      </trkpt>
      <trkpt lat="36.8705599196255207061767578125" lon="-118.44540101476013660430908203125">
        <ele>2593.800048828125</ele>
        <time>2021-06-28T00:35:15.000Z</time>
        <extensions>
          <ns3:TrackPointExtension>
            <ns3:atemp>31.0</ns3:atemp>
            <ns3:hr>104</ns3:hr>
          </ns3:TrackPointExtension>
        </extensions>
      </trkpt>
      <trkpt lat="36.87054608948528766632080078125" lon="-118.445416353642940521240234375">
        <ele>2593.60009765625</ele>
        <time>2021-06-28T00:35:17.000Z</time>
        <extensions>
          <ns3:TrackPointExtension>
            <ns3:atemp>31.0</ns3:atemp>
            <ns3:hr>103</ns3:hr>
          </ns3:TrackPointExtension>
        </extensions>
      </trkpt>
      <trkpt lat="36.87051624990999698638916015625" lon="-118.44550226815044879913330078125">
        <ele>2593.60009765625</ele>
        <time>2021-06-28T00:35:23.000Z</time>
        <extensions>
          <ns3:TrackPointExtension>
            <ns3:atemp>31.0</ns3:atemp>
            <ns3:hr>100</ns3:hr>
          </ns3:TrackPointExtension>
        </extensions>
      </trkpt>
      <trkpt lat="36.87053670175373554229736328125" lon="-118.445537723600864410400390625">
        <ele>2593.60009765625</ele>
        <time>2021-06-28T00:35:26.000Z</time>
        <extensions>
          <ns3:TrackPointExtension>
            <ns3:atemp>31.0</ns3:atemp>
            <ns3:hr>100</ns3:hr>
          </ns3:TrackPointExtension>
        </extensions>
      </trkpt>
      <trkpt lat="36.87053737230598926544189453125" lon="-118.44560402445495128631591796875">
        <ele>2593.60009765625</ele>
        <time>2021-06-28T00:35:30.000Z</time>
        <extensions>
          <ns3:TrackPointExtension>
            <ns3:atemp>31.0</ns3:atemp>
            <ns3:hr>100</ns3:hr>
          </ns3:TrackPointExtension>
        </extensions>
      </trkpt>
      <trkpt lat="36.87052999623119831085205078125" lon="-118.44562145881354808807373046875">
        <ele>2593.60009765625</ele>
        <time>2021-06-28T00:35:33.000Z</time>
        <extensions>
          <ns3:TrackPointExtension>
            <ns3:atemp>31.0</ns3:atemp>
            <ns3:hr>99</ns3:hr>
          </ns3:TrackPointExtension>
        </extensions>
      </trkpt>
      <trkpt lat="36.87052412889897823333740234375" lon="-118.44563193619251251220703125">
        <ele>2593.60009765625</ele>
        <time>2021-06-28T00:35:35.000Z</time>
        <extensions>
          <ns3:TrackPointExtension>
            <ns3:atemp>31.0</ns3:atemp>
            <ns3:hr>100</ns3:hr>
          </ns3:TrackPointExtension>
        </extensions>
      </trkpt>
      <trkpt lat="36.8705123104155063629150390625" lon="-118.44563059508800506591796875">
        <ele>2593.60009765625</ele>
        <time>2021-06-28T00:35:37.000Z</time>
        <extensions>
          <ns3:TrackPointExtension>
            <ns3:atemp>31.0</ns3:atemp>
            <ns3:hr>97</ns3:hr>
          </ns3:TrackPointExtension>
        </extensions>
      </trkpt>
      <trkpt lat="36.87051557935774326324462890625" lon="-118.44566537998616695404052734375">
        <ele>2593</ele>
        <time>2021-06-28T00:35:41.000Z</time>
        <extensions>
          <ns3:TrackPointExtension>
            <ns3:atemp>31.0</ns3:atemp>
            <ns3:hr>98</ns3:hr>
          </ns3:TrackPointExtension>
        </extensions>
      </trkpt>
      <trkpt lat="36.870518513023853302001953125" lon="-118.44566806219518184661865234375">
        <ele>2592.60009765625</ele>
        <time>2021-06-28T00:35:43.000Z</time>
        <extensions>
          <ns3:TrackPointExtension>
            <ns3:atemp>31.0</ns3:atemp>
            <ns3:hr>99</ns3:hr>
          </ns3:TrackPointExtension>
        </extensions>
      </trkpt>
      <trkpt lat="36.8705190159380435943603515625" lon="-118.445669151842594146728515625">
        <ele>2592.39990234375</ele>
        <time>2021-06-28T00:35:44.000Z</time>
        <extensions>
          <ns3:TrackPointExtension>
            <ns3:atemp>31.0</ns3:atemp>
            <ns3:hr>99</ns3:hr>
          </ns3:TrackPointExtension>
        </extensions>
      </trkpt>
      <trkpt lat="36.87052848748862743377685546875" lon="-118.44570636749267578125">
        <ele>2592</ele>
        <time>2021-06-28T00:35:49.000Z</time>
        <extensions>
          <ns3:TrackPointExtension>
            <ns3:atemp>31.0</ns3:atemp>
            <ns3:hr>102</ns3:hr>
          </ns3:TrackPointExtension>
        </extensions>
      </trkpt>
      <trkpt lat="36.87052614055573940277099609375" lon="-118.4457118995487689971923828125">
        <ele>2592</ele>
        <time>2021-06-28T00:35:50.000Z</time>
        <extensions>
          <ns3:TrackPointExtension>
            <ns3:atemp>31.0</ns3:atemp>
            <ns3:hr>102</ns3:hr>
          </ns3:TrackPointExtension>
        </extensions>
      </trkpt>
      <trkpt lat="36.87054089270532131195068359375" lon="-118.4456951357424259185791015625">
        <ele>2592.39990234375</ele>
        <time>2021-06-28T00:35:56.000Z</time>
        <extensions>
          <ns3:TrackPointExtension>
            <ns3:atemp>31.0</ns3:atemp>
            <ns3:hr>99</ns3:hr>
          </ns3:TrackPointExtension>
        </extensions>
      </trkpt>
      <trkpt lat="36.87054541893303394317626953125" lon="-118.4456984885036945343017578125">
        <ele>2592.60009765625</ele>
        <time>2021-06-28T00:35:59.000Z</time>
        <extensions>
          <ns3:TrackPointExtension>
            <ns3:atemp>31.0</ns3:atemp>
            <ns3:hr>96</ns3:hr>
          </ns3:TrackPointExtension>
        </extensions>
      </trkpt>
      <trkpt lat="36.87054843641817569732666015625" lon="-118.44570301473140716552734375">
        <ele>2592.60009765625</ele>
        <time>2021-06-28T00:36:02.000Z</time>
        <extensions>
          <ns3:TrackPointExtension>
            <ns3:atemp>31.0</ns3:atemp>
            <ns3:hr>93</ns3:hr>
          </ns3:TrackPointExtension>
        </extensions>
      </trkpt>
      <trkpt lat="36.87054843641817569732666015625" lon="-118.44570301473140716552734375">
        <ele>2592.60009765625</ele>
        <time>2021-06-28T00:36:06.000Z</time>
        <extensions>
          <ns3:TrackPointExtension>
            <ns3:atemp>31.0</ns3:atemp>
            <ns3:hr>89</ns3:hr>
          </ns3:TrackPointExtension>
        </extensions>
      </trkpt>
      <trkpt lat="36.870544664561748504638671875" lon="-118.44570301473140716552734375">
        <ele>2591.800048828125</ele>
        <time>2021-06-28T00:36:17.000Z</time>
        <extensions>
          <ns3:TrackPointExtension>
            <ns3:atemp>31.0</ns3:atemp>
            <ns3:hr>90</ns3:hr>
          </ns3:TrackPointExtension>
        </extensions>
      </trkpt>
      <trkpt lat="36.87054340727627277374267578125" lon="-118.44570360146462917327880859375">
        <ele>2593</ele>
        <time>2021-06-28T00:36:23.000Z</time>
        <extensions>
          <ns3:TrackPointExtension>
            <ns3:atemp>31.0</ns3:atemp>
            <ns3:hr>90</ns3:hr>
          </ns3:TrackPointExtension>
        </extensions>
      </trkpt>
      <trkpt lat="36.8705498613417148590087890625" lon="-118.44579018652439117431640625">
        <ele>2593</ele>
        <time>2021-06-28T00:36:32.000Z</time>
        <extensions>
          <ns3:TrackPointExtension>
            <ns3:atemp>31.0</ns3:atemp>
            <ns3:hr>90</ns3:hr>
          </ns3:TrackPointExtension>
        </extensions>
      </trkpt>
      <trkpt lat="36.87052027322351932525634765625" lon="-118.44592320732772350311279296875">
        <ele>2592.39990234375</ele>
        <time>2021-06-28T00:36:39.000Z</time>
        <extensions>
          <ns3:TrackPointExtension>
            <ns3:atemp>31.0</ns3:atemp>
            <ns3:hr>89</ns3:hr>
          </ns3:TrackPointExtension>
        </extensions>
      </trkpt>
      <trkpt lat="36.87051692046225070953369140625" lon="-118.44593963585793972015380859375">
        <ele>2591.800048828125</ele>
        <time>2021-06-28T00:36:40.000Z</time>
        <extensions>
          <ns3:TrackPointExtension>
            <ns3:atemp>31.0</ns3:atemp>
            <ns3:hr>89</ns3:hr>
          </ns3:TrackPointExtension>
        </extensions>
      </trkpt>
      <trkpt lat="36.87047668732702732086181640625" lon="-118.4460532106459140777587890625">
        <ele>2590.800048828125</ele>
        <time>2021-06-28T00:36:48.000Z</time>
        <extensions>
          <ns3:TrackPointExtension>
            <ns3:atemp>31.0</ns3:atemp>
            <ns3:hr>87</ns3:hr>
          </ns3:TrackPointExtension>
        </extensions>
      </trkpt>
      <trkpt lat="36.87046931125223636627197265625" lon="-118.44609788618981838226318359375">
        <ele>2590.800048828125</ele>
        <time>2021-06-28T00:36:51.000Z</time>
        <extensions>
          <ns3:TrackPointExtension>
            <ns3:atemp>31.0</ns3:atemp>
            <ns3:hr>87</ns3:hr>
          </ns3:TrackPointExtension>
        </extensions>
      </trkpt>
      <trkpt lat="36.8704462610185146331787109375" lon="-118.44619360752403736114501953125">
        <ele>2590.39990234375</ele>
        <time>2021-06-28T00:36:58.000Z</time>
        <extensions>
          <ns3:TrackPointExtension>
            <ns3:atemp>31.0</ns3:atemp>
            <ns3:hr>84</ns3:hr>
          </ns3:TrackPointExtension>
        </extensions>
      </trkpt>
      <trkpt lat="36.87045003287494182586669921875" lon="-118.44621372409164905548095703125">
        <ele>2590.39990234375</ele>
        <time>2021-06-28T00:37:00.000Z</time>
        <extensions>
          <ns3:TrackPointExtension>
            <ns3:atemp>31.0</ns3:atemp>
            <ns3:hr>84</ns3:hr>
          </ns3:TrackPointExtension>
        </extensions>
      </trkpt>
      <trkpt lat="36.870454140007495880126953125" lon="-118.4462253749370574951171875">
        <ele>2590.60009765625</ele>
        <time>2021-06-28T00:37:01.000Z</time>
        <extensions>
          <ns3:TrackPointExtension>
            <ns3:atemp>31.0</ns3:atemp>
            <ns3:hr>83</ns3:hr>
          </ns3:TrackPointExtension>
        </extensions>
      </trkpt>
      <trkpt lat="36.87046227045357227325439453125" lon="-118.44624138437211513519287109375">
        <ele>2590.800048828125</ele>
        <time>2021-06-28T00:37:03.000Z</time>
        <extensions>
          <ns3:TrackPointExtension>
            <ns3:atemp>31.0</ns3:atemp>
            <ns3:hr>82</ns3:hr>
          </ns3:TrackPointExtension>
        </extensions>
      </trkpt>
      <trkpt lat="36.870472915470600128173828125" lon="-118.44627927057445049285888671875">
        <ele>2591</ele>
        <time>2021-06-28T00:37:05.000Z</time>
        <extensions>
          <ns3:TrackPointExtension>
            <ns3:atemp>31.0</ns3:atemp>
            <ns3:hr>87</ns3:hr>
          </ns3:TrackPointExtension>
        </extensions>
      </trkpt>
      <trkpt lat="36.87046964652836322784423828125" lon="-118.44631749205291271209716796875">
        <ele>2591.39990234375</ele>
        <time>2021-06-28T00:37:08.000Z</time>
        <extensions>
          <ns3:TrackPointExtension>
            <ns3:atemp>31.0</ns3:atemp>
            <ns3:hr>90</ns3:hr>
          </ns3:TrackPointExtension>
        </extensions>
      </trkpt>
      <trkpt lat="36.8704687245190143585205078125" lon="-118.44632335938513278961181640625">
        <ele>2592</ele>
        <time>2021-06-28T00:37:09.000Z</time>
        <extensions>
          <ns3:TrackPointExtension>
            <ns3:atemp>31.0</ns3:atemp>
            <ns3:hr>90</ns3:hr>
          </ns3:TrackPointExtension>
        </extensions>
      </trkpt>
      <trkpt lat="36.870465539395809173583984375" lon="-118.44633140601217746734619140625">
        <ele>2592.199951171875</ele>
        <time>2021-06-28T00:37:10.000Z</time>
        <extensions>
          <ns3:TrackPointExtension>
            <ns3:atemp>31.0</ns3:atemp>
            <ns3:hr>91</ns3:hr>
          </ns3:TrackPointExtension>
        </extensions>
      </trkpt>
      <trkpt lat="36.87046411447227001190185546875" lon="-118.44637298025190830230712890625">
        <ele>2592.199951171875</ele>
        <time>2021-06-28T00:37:13.000Z</time>
        <extensions>
          <ns3:TrackPointExtension>
            <ns3:atemp>31.0</ns3:atemp>
            <ns3:hr>94</ns3:hr>
          </ns3:TrackPointExtension>
        </extensions>
      </trkpt>
      <trkpt lat="36.87045858241617679595947265625" lon="-118.44640047289431095123291015625">
        <ele>2592</ele>
        <time>2021-06-28T00:37:15.000Z</time>
        <extensions>
          <ns3:TrackPointExtension>
            <ns3:atemp>31.0</ns3:atemp>
            <ns3:hr>97</ns3:hr>
          </ns3:TrackPointExtension>
        </extensions>
      </trkpt>
      <trkpt lat="36.87045891769230365753173828125" lon="-118.44643567688763141632080078125">
        <ele>2591.800048828125</ele>
        <time>2021-06-28T00:37:17.000Z</time>
        <extensions>
          <ns3:TrackPointExtension>
            <ns3:atemp>31.0</ns3:atemp>
            <ns3:hr>100</ns3:hr>
          </ns3:TrackPointExtension>
        </extensions>
      </trkpt>
      <trkpt lat="36.87045849859714508056640625" lon="-118.446485884487628936767578125">
        <ele>2590.800048828125</ele>
        <time>2021-06-28T00:37:20.000Z</time>
        <extensions>
          <ns3:TrackPointExtension>
            <ns3:atemp>31.0</ns3:atemp>
            <ns3:hr>101</ns3:hr>
          </ns3:TrackPointExtension>
        </extensions>
      </trkpt>
      <trkpt lat="36.87044441699981689453125" lon="-118.44659225083887577056884765625">
        <ele>2592.800048828125</ele>
        <time>2021-06-28T00:37:27.000Z</time>
        <extensions>
          <ns3:TrackPointExtension>
            <ns3:atemp>31.0</ns3:atemp>
            <ns3:hr>100</ns3:hr>
          </ns3:TrackPointExtension>
        </extensions>
      </trkpt>
      <trkpt lat="36.8704375438392162322998046875" lon="-118.4466303884983062744140625">
        <ele>2592</ele>
        <time>2021-06-28T00:37:30.000Z</time>
        <extensions>
          <ns3:TrackPointExtension>
            <ns3:atemp>31.0</ns3:atemp>
            <ns3:hr>101</ns3:hr>
          </ns3:TrackPointExtension>
        </extensions>
      </trkpt>
      <trkpt lat="36.8704207800328731536865234375" lon="-118.446653187274932861328125">
        <ele>2591.800048828125</ele>
        <time>2021-06-28T00:37:32.000Z</time>
        <extensions>
          <ns3:TrackPointExtension>
            <ns3:atemp>31.0</ns3:atemp>
            <ns3:hr>104</ns3:hr>
          </ns3:TrackPointExtension>
        </extensions>
      </trkpt>
      <trkpt lat="36.8704040162265300750732421875" lon="-118.4466815181076526641845703125">
        <ele>2591.800048828125</ele>
        <time>2021-06-28T00:37:34.000Z</time>
        <extensions>
          <ns3:TrackPointExtension>
            <ns3:atemp>31.0</ns3:atemp>
            <ns3:hr>104</ns3:hr>
          </ns3:TrackPointExtension>
        </extensions>
      </trkpt>
      <trkpt lat="36.87040342949330806732177734375" lon="-118.44669819809496402740478515625">
        <ele>2591</ele>
        <time>2021-06-28T00:37:35.000Z</time>
        <extensions>
          <ns3:TrackPointExtension>
            <ns3:atemp>31.0</ns3:atemp>
            <ns3:hr>103</ns3:hr>
          </ns3:TrackPointExtension>
        </extensions>
      </trkpt>
      <trkpt lat="36.87040460295975208282470703125" lon="-118.44671127386391162872314453125">
        <ele>2590.800048828125</ele>
        <time>2021-06-28T00:37:36.000Z</time>
        <extensions>
          <ns3:TrackPointExtension>
            <ns3:atemp>31.0</ns3:atemp>
            <ns3:hr>103</ns3:hr>
          </ns3:TrackPointExtension>
        </extensions>
      </trkpt>
      <trkpt lat="36.8704056926071643829345703125" lon="-118.44679291360080242156982421875">
        <ele>2590</ele>
        <time>2021-06-28T00:37:40.000Z</time>
        <extensions>
          <ns3:TrackPointExtension>
            <ns3:atemp>31.0</ns3:atemp>
            <ns3:hr>99</ns3:hr>
          </ns3:TrackPointExtension>
        </extensions>
      </trkpt>
      <trkpt lat="36.87040694989264011383056640625" lon="-118.44680632464587688446044921875">
        <ele>2589.199951171875</ele>
        <time>2021-06-28T00:37:41.000Z</time>
        <extensions>
          <ns3:TrackPointExtension>
            <ns3:atemp>31.0</ns3:atemp>
            <ns3:hr>98</ns3:hr>
          </ns3:TrackPointExtension>
        </extensions>
      </trkpt>
      <trkpt lat="36.87040477059781551361083984375" lon="-118.4468243457376956939697265625">
        <ele>2589.199951171875</ele>
        <time>2021-06-28T00:37:43.000Z</time>
        <extensions>
          <ns3:TrackPointExtension>
            <ns3:atemp>31.0</ns3:atemp>
            <ns3:hr>94</ns3:hr>
          </ns3:TrackPointExtension>
        </extensions>
      </trkpt>
      <trkpt lat="36.87040577642619609832763671875" lon="-118.44682895578444004058837890625">
        <ele>2589</ele>
        <time>2021-06-28T00:37:44.000Z</time>
        <extensions>
          <ns3:TrackPointExtension>
            <ns3:atemp>31.0</ns3:atemp>
            <ns3:hr>94</ns3:hr>
          </ns3:TrackPointExtension>
        </extensions>
      </trkpt>
      <trkpt lat="36.870430000126361846923828125" lon="-118.44689550809562206268310546875">
        <ele>2589.39990234375</ele>
        <time>2021-06-28T00:37:51.000Z</time>
        <extensions>
          <ns3:TrackPointExtension>
            <ns3:atemp>31.0</ns3:atemp>
            <ns3:hr>94</ns3:hr>
          </ns3:TrackPointExtension>
        </extensions>
      </trkpt>
      <trkpt lat="36.87043595127761363983154296875" lon="-118.44690271653234958648681640625">
        <ele>2589.39990234375</ele>
        <time>2021-06-28T00:37:53.000Z</time>
        <extensions>
          <ns3:TrackPointExtension>
            <ns3:atemp>31.0</ns3:atemp>
            <ns3:hr>94</ns3:hr>
          </ns3:TrackPointExtension>
        </extensions>
      </trkpt>
      <trkpt lat="36.870452463626861572265625" lon="-118.44688612036406993865966796875">
        <ele>2589.60009765625</ele>
        <time>2021-06-28T00:37:56.000Z</time>
        <extensions>
          <ns3:TrackPointExtension>
            <ns3:atemp>31.0</ns3:atemp>
            <ns3:hr>93</ns3:hr>
          </ns3:TrackPointExtension>
        </extensions>
      </trkpt>
      <trkpt lat="36.87045070342719554901123046875" lon="-118.4468736313283443450927734375">
        <ele>2589.199951171875</ele>
        <time>2021-06-28T00:38:05.000Z</time>
        <extensions>
          <ns3:TrackPointExtension>
            <ns3:atemp>31.0</ns3:atemp>
            <ns3:hr>90</ns3:hr>
          </ns3:TrackPointExtension>
        </extensions>
      </trkpt>
      <trkpt lat="36.87045070342719554901123046875" lon="-118.4468736313283443450927734375">
        <ele>2589.39990234375</ele>
        <time>2021-06-28T00:38:06.000Z</time>
        <extensions>
          <ns3:TrackPointExtension>
            <ns3:atemp>31.0</ns3:atemp>
            <ns3:hr>90</ns3:hr>
          </ns3:TrackPointExtension>
        </extensions>
      </trkpt>
      <trkpt lat="36.87045070342719554901123046875" lon="-118.4468736313283443450927734375">
        <ele>2589.39990234375</ele>
        <time>2021-06-28T00:38:11.000Z</time>
        <extensions>
          <ns3:TrackPointExtension>
            <ns3:atemp>31.0</ns3:atemp>
            <ns3:hr>94</ns3:hr>
          </ns3:TrackPointExtension>
        </extensions>
      </trkpt>
      <trkpt lat="36.87045103870332241058349609375" lon="-118.4468736313283443450927734375">
        <ele>2589.39990234375</ele>
        <time>2021-06-28T00:38:12.000Z</time>
        <extensions>
          <ns3:TrackPointExtension>
            <ns3:atemp>31.0</ns3:atemp>
            <ns3:hr>91</ns3:hr>
          </ns3:TrackPointExtension>
        </extensions>
      </trkpt>
      <trkpt lat="36.8704496137797832489013671875" lon="-118.44694211147725582122802734375">
        <ele>2589.199951171875</ele>
        <time>2021-06-28T00:38:18.000Z</time>
        <extensions>
          <ns3:TrackPointExtension>
            <ns3:atemp>31.0</ns3:atemp>
            <ns3:hr>91</ns3:hr>
          </ns3:TrackPointExtension>
        </extensions>
      </trkpt>
      <trkpt lat="36.87045120634138584136962890625" lon="-118.44696222804486751556396484375">
        <ele>2589</ele>
        <time>2021-06-28T00:38:19.000Z</time>
        <extensions>
          <ns3:TrackPointExtension>
            <ns3:atemp>31.0</ns3:atemp>
            <ns3:hr>88</ns3:hr>
          </ns3:TrackPointExtension>
        </extensions>
      </trkpt>
      <trkpt lat="36.87046260572969913482666015625" lon="-118.44706146977841854095458984375">
        <ele>2588.199951171875</ele>
        <time>2021-06-28T00:38:24.000Z</time>
        <extensions>
          <ns3:TrackPointExtension>
            <ns3:atemp>31.0</ns3:atemp>
            <ns3:hr>91</ns3:hr>
          </ns3:TrackPointExtension>
        </extensions>
      </trkpt>
      <trkpt lat="36.8704854883253574371337890625" lon="-118.44711243174970149993896484375">
        <ele>2588.199951171875</ele>
        <time>2021-06-28T00:38:28.000Z</time>
        <extensions>
          <ns3:TrackPointExtension>
            <ns3:atemp>31.0</ns3:atemp>
            <ns3:hr>91</ns3:hr>
          </ns3:TrackPointExtension>
        </extensions>
      </trkpt>
      <trkpt lat="36.87050786800682544708251953125" lon="-118.447243608534336090087890625">
        <ele>2588.39990234375</ele>
        <time>2021-06-28T00:38:35.000Z</time>
        <extensions>
          <ns3:TrackPointExtension>
            <ns3:atemp>31.0</ns3:atemp>
            <ns3:hr>94</ns3:hr>
          </ns3:TrackPointExtension>
        </extensions>
      </trkpt>
      <trkpt lat="36.8705156631767749786376953125" lon="-118.4472622163593769073486328125">
        <ele>2587.39990234375</ele>
        <time>2021-06-28T00:38:36.000Z</time>
        <extensions>
          <ns3:TrackPointExtension>
            <ns3:atemp>31.0</ns3:atemp>
            <ns3:hr>94</ns3:hr>
          </ns3:TrackPointExtension>
        </extensions>
      </trkpt>
      <trkpt lat="36.870541982352733612060546875" lon="-118.44729331322014331817626953125">
        <ele>2587.39990234375</ele>
        <time>2021-06-28T00:38:39.000Z</time>
        <extensions>
          <ns3:TrackPointExtension>
            <ns3:atemp>31.0</ns3:atemp>
            <ns3:hr>96</ns3:hr>
          </ns3:TrackPointExtension>
        </extensions>
      </trkpt>
      <trkpt lat="36.870573498308658599853515625" lon="-118.44733606092631816864013671875">
        <ele>2588.199951171875</ele>
        <time>2021-06-28T00:38:43.000Z</time>
        <extensions>
          <ns3:TrackPointExtension>
            <ns3:atemp>32.0</ns3:atemp>
            <ns3:hr>91</ns3:hr>
          </ns3:TrackPointExtension>
        </extensions>
      </trkpt>
      <trkpt lat="36.87059168703854084014892578125" lon="-118.44738333486020565032958984375">
        <ele>2588.199951171875</ele>
        <time>2021-06-28T00:38:47.000Z</time>
        <extensions>
          <ns3:TrackPointExtension>
            <ns3:atemp>32.0</ns3:atemp>
            <ns3:hr>93</ns3:hr>
          </ns3:TrackPointExtension>
        </extensions>
      </trkpt>
      <trkpt lat="36.8706403858959674835205078125" lon="-118.4474425949156284332275390625">
        <ele>2587.39990234375</ele>
        <time>2021-06-28T00:38:53.000Z</time>
        <extensions>
          <ns3:TrackPointExtension>
            <ns3:atemp>32.0</ns3:atemp>
            <ns3:hr>94</ns3:hr>
          </ns3:TrackPointExtension>
        </extensions>
      </trkpt>
      <trkpt lat="36.8706437386572360992431640625" lon="-118.44745240174233913421630859375">
        <ele>2587.39990234375</ele>
        <time>2021-06-28T00:38:54.000Z</time>
        <extensions>
          <ns3:TrackPointExtension>
            <ns3:atemp>32.0</ns3:atemp>
            <ns3:hr>94</ns3:hr>
          </ns3:TrackPointExtension>
        </extensions>
      </trkpt>
      <trkpt lat="36.87065136618912220001220703125" lon="-118.44746262766420841217041015625">
        <ele>2586.800048828125</ele>
        <time>2021-06-28T00:38:55.000Z</time>
        <extensions>
          <ns3:TrackPointExtension>
            <ns3:atemp>32.0</ns3:atemp>
            <ns3:hr>94</ns3:hr>
          </ns3:TrackPointExtension>
        </extensions>
      </trkpt>
      <trkpt lat="36.8706715665757656097412109375" lon="-118.4474834986031055450439453125">
        <ele>2586.199951171875</ele>
        <time>2021-06-28T00:38:58.000Z</time>
        <extensions>
          <ns3:TrackPointExtension>
            <ns3:atemp>32.0</ns3:atemp>
            <ns3:hr>96</ns3:hr>
          </ns3:TrackPointExtension>
        </extensions>
      </trkpt>
      <trkpt lat="36.8706819601356983184814453125" lon="-118.44749615527689456939697265625">
        <ele>2585.60009765625</ele>
        <time>2021-06-28T00:39:00.000Z</time>
        <extensions>
          <ns3:TrackPointExtension>
            <ns3:atemp>32.0</ns3:atemp>
            <ns3:hr>97</ns3:hr>
          </ns3:TrackPointExtension>
        </extensions>
      </trkpt>
      <trkpt lat="36.8706963770091533660888671875" lon="-118.4474995918571949005126953125">
        <ele>2585.800048828125</ele>
        <time>2021-06-28T00:39:03.000Z</time>
        <extensions>
          <ns3:TrackPointExtension>
            <ns3:atemp>32.0</ns3:atemp>
            <ns3:hr>99</ns3:hr>
          </ns3:TrackPointExtension>
        </extensions>
      </trkpt>
      <trkpt lat="36.87069453299045562744140625" lon="-118.447496406733989715576171875">
        <ele>2585.800048828125</ele>
        <time>2021-06-28T00:39:05.000Z</time>
        <extensions>
          <ns3:TrackPointExtension>
            <ns3:atemp>32.0</ns3:atemp>
            <ns3:hr>99</ns3:hr>
          </ns3:TrackPointExtension>
        </extensions>
      </trkpt>
      <trkpt lat="36.8707054294645786285400390625" lon="-118.44748442061245441436767578125">
        <ele>2586</ele>
        <time>2021-06-28T00:39:07.000Z</time>
        <extensions>
          <ns3:TrackPointExtension>
            <ns3:atemp>32.0</ns3:atemp>
            <ns3:hr>99</ns3:hr>
          </ns3:TrackPointExtension>
        </extensions>
      </trkpt>
      <trkpt lat="36.8707322515547275543212890625" lon="-118.44744703732430934906005859375">
        <ele>2585.199951171875</ele>
        <time>2021-06-28T00:39:12.000Z</time>
        <extensions>
          <ns3:TrackPointExtension>
            <ns3:atemp>32.0</ns3:atemp>
            <ns3:hr>97</ns3:hr>
          </ns3:TrackPointExtension>
        </extensions>
      </trkpt>
      <trkpt lat="36.87074088491499423980712890625" lon="-118.44743647612631320953369140625">
        <ele>2584.39990234375</ele>
        <time>2021-06-28T00:39:21.000Z</time>
        <extensions>
          <ns3:TrackPointExtension>
            <ns3:atemp>32.0</ns3:atemp>
            <ns3:hr>94</ns3:hr>
          </ns3:TrackPointExtension>
        </extensions>
      </trkpt>
      <trkpt lat="36.87074524350464344024658203125" lon="-118.44743278808891773223876953125">
        <ele>2584.39990234375</ele>
        <time>2021-06-28T00:39:24.000Z</time>
        <extensions>
          <ns3:TrackPointExtension>
            <ns3:atemp>32.0</ns3:atemp>
            <ns3:hr>94</ns3:hr>
          </ns3:TrackPointExtension>
        </extensions>
      </trkpt>
      <trkpt lat="36.87074147164821624755859375" lon="-118.447430692613124847412109375">
        <ele>2584.199951171875</ele>
        <time>2021-06-28T00:39:27.000Z</time>
        <extensions>
          <ns3:TrackPointExtension>
            <ns3:atemp>32.0</ns3:atemp>
            <ns3:hr>93</ns3:hr>
          </ns3:TrackPointExtension>
        </extensions>
      </trkpt>
      <trkpt lat="36.87074147164821624755859375" lon="-118.44743194989860057830810546875">
        <ele>2583.199951171875</ele>
        <time>2021-06-28T00:39:35.000Z</time>
        <extensions>
          <ns3:TrackPointExtension>
            <ns3:atemp>32.0</ns3:atemp>
            <ns3:hr>94</ns3:hr>
          </ns3:TrackPointExtension>
        </extensions>
      </trkpt>
      <trkpt lat="36.87074147164821624755859375" lon="-118.44743245281279087066650390625">
        <ele>2583.199951171875</ele>
        <time>2021-06-28T00:39:36.000Z</time>
        <extensions>
          <ns3:TrackPointExtension>
            <ns3:atemp>32.0</ns3:atemp>
            <ns3:hr>91</ns3:hr>
          </ns3:TrackPointExtension>
        </extensions>
      </trkpt>
      <trkpt lat="36.87074415385723114013671875" lon="-118.4474385716021060943603515625">
        <ele>2583</ele>
        <time>2021-06-28T00:39:37.000Z</time>
        <extensions>
          <ns3:TrackPointExtension>
            <ns3:atemp>32.0</ns3:atemp>
            <ns3:hr>94</ns3:hr>
          </ns3:TrackPointExtension>
        </extensions>
      </trkpt>
      <trkpt lat="36.870741136372089385986328125" lon="-118.44745047390460968017578125">
        <ele>2583</ele>
        <time>2021-06-28T00:39:38.000Z</time>
        <extensions>
          <ns3:TrackPointExtension>
            <ns3:atemp>32.0</ns3:atemp>
            <ns3:hr>94</ns3:hr>
          </ns3:TrackPointExtension>
        </extensions>
      </trkpt>
      <trkpt lat="36.870728395879268646240234375" lon="-118.44749313779175281524658203125">
        <ele>2582.60009765625</ele>
        <time>2021-06-28T00:39:42.000Z</time>
        <extensions>
          <ns3:TrackPointExtension>
            <ns3:atemp>32.0</ns3:atemp>
            <ns3:hr>93</ns3:hr>
          </ns3:TrackPointExtension>
        </extensions>
      </trkpt>
      <trkpt lat="36.8707235343754291534423828125" lon="-118.44750554300844669342041015625">
        <ele>2582.199951171875</ele>
        <time>2021-06-28T00:39:43.000Z</time>
        <extensions>
          <ns3:TrackPointExtension>
            <ns3:atemp>32.0</ns3:atemp>
            <ns3:hr>91</ns3:hr>
          </ns3:TrackPointExtension>
        </extensions>
      </trkpt>
      <trkpt lat="36.87071842141449451446533203125" lon="-118.44751727767288684844970703125">
        <ele>2582.199951171875</ele>
        <time>2021-06-28T00:39:44.000Z</time>
        <extensions>
          <ns3:TrackPointExtension>
            <ns3:atemp>32.0</ns3:atemp>
            <ns3:hr>94</ns3:hr>
          </ns3:TrackPointExtension>
        </extensions>
      </trkpt>
      <trkpt lat="36.870692856609821319580078125" lon="-118.44754443503916263580322265625">
        <ele>2581.199951171875</ele>
        <time>2021-06-28T00:39:48.000Z</time>
        <extensions>
          <ns3:TrackPointExtension>
            <ns3:atemp>32.0</ns3:atemp>
            <ns3:hr>92</ns3:hr>
          </ns3:TrackPointExtension>
        </extensions>
      </trkpt>
      <trkpt lat="36.8706843070685863494873046875" lon="-118.4475575946271419525146484375">
        <ele>2580.800048828125</ele>
        <time>2021-06-28T00:39:50.000Z</time>
        <extensions>
          <ns3:TrackPointExtension>
            <ns3:atemp>32.0</ns3:atemp>
            <ns3:hr>90</ns3:hr>
          </ns3:TrackPointExtension>
        </extensions>
      </trkpt>
      <trkpt lat="36.87070417217910289764404296875" lon="-118.44757544808089733123779296875">
        <ele>2580.199951171875</ele>
        <time>2021-06-28T00:39:53.000Z</time>
        <extensions>
          <ns3:TrackPointExtension>
            <ns3:atemp>32.0</ns3:atemp>
            <ns3:hr>87</ns3:hr>
          </ns3:TrackPointExtension>
        </extensions>
      </trkpt>
      <trkpt lat="36.87071071006357669830322265625" lon="-118.44758064486086368560791015625">
        <ele>2579.800048828125</ele>
        <time>2021-06-28T00:39:54.000Z</time>
        <extensions>
          <ns3:TrackPointExtension>
            <ns3:atemp>32.0</ns3:atemp>
            <ns3:hr>86</ns3:hr>
          </ns3:TrackPointExtension>
        </extensions>
      </trkpt>
      <trkpt lat="36.8707273900508880615234375" lon="-118.4475904516875743865966796875">
        <ele>2579.39990234375</ele>
        <time>2021-06-28T00:39:57.000Z</time>
        <extensions>
          <ns3:TrackPointExtension>
            <ns3:atemp>32.0</ns3:atemp>
            <ns3:hr>84</ns3:hr>
          </ns3:TrackPointExtension>
        </extensions>
      </trkpt>
      <trkpt lat="36.8707278929650783538818359375" lon="-118.447601012885570526123046875">
        <ele>2578.60009765625</ele>
        <time>2021-06-28T00:39:59.000Z</time>
        <extensions>
          <ns3:TrackPointExtension>
            <ns3:atemp>32.0</ns3:atemp>
            <ns3:hr>83</ns3:hr>
          </ns3:TrackPointExtension>
        </extensions>
      </trkpt>
      <trkpt lat="36.8707074411213397979736328125" lon="-118.44761811196804046630859375">
        <ele>2578.39990234375</ele>
        <time>2021-06-28T00:40:03.000Z</time>
        <extensions>
          <ns3:TrackPointExtension>
            <ns3:atemp>32.0</ns3:atemp>
            <ns3:hr>83</ns3:hr>
          </ns3:TrackPointExtension>
        </extensions>
      </trkpt>
      <trkpt lat="36.87069461680948734283447265625" lon="-118.44762925989925861358642578125">
        <ele>2577.60009765625</ele>
        <time>2021-06-28T00:40:05.000Z</time>
        <extensions>
          <ns3:TrackPointExtension>
            <ns3:atemp>32.0</ns3:atemp>
            <ns3:hr>83</ns3:hr>
          </ns3:TrackPointExtension>
        </extensions>
      </trkpt>
      <trkpt lat="36.870680116117000579833984375" lon="-118.447640575468540191650390625">
        <ele>2577.199951171875</ele>
        <time>2021-06-28T00:40:07.000Z</time>
        <extensions>
          <ns3:TrackPointExtension>
            <ns3:atemp>32.0</ns3:atemp>
            <ns3:hr>84</ns3:hr>
          </ns3:TrackPointExtension>
        </extensions>
      </trkpt>
      <trkpt lat="36.87066477723419666290283203125" lon="-118.44765339978039264678955078125">
        <ele>2576.800048828125</ele>
        <time>2021-06-28T00:40:09.000Z</time>
        <extensions>
          <ns3:TrackPointExtension>
            <ns3:atemp>32.0</ns3:atemp>
            <ns3:hr>84</ns3:hr>
          </ns3:TrackPointExtension>
        </extensions>
      </trkpt>
      <trkpt lat="36.87065052799880504608154296875" lon="-118.44768114387989044189453125">
        <ele>2576.39990234375</ele>
        <time>2021-06-28T00:40:11.000Z</time>
        <extensions>
          <ns3:TrackPointExtension>
            <ns3:atemp>32.0</ns3:atemp>
            <ns3:hr>85</ns3:hr>
          </ns3:TrackPointExtension>
        </extensions>
      </trkpt>
      <trkpt lat="36.87065136618912220001220703125" lon="-118.4477004222571849822998046875">
        <ele>2576.39990234375</ele>
        <time>2021-06-28T00:40:12.000Z</time>
        <extensions>
          <ns3:TrackPointExtension>
            <ns3:atemp>32.0</ns3:atemp>
            <ns3:hr>85</ns3:hr>
          </ns3:TrackPointExtension>
        </extensions>
      </trkpt>
      <trkpt lat="36.87065874226391315460205078125" lon="-118.44772632233798503875732421875">
        <ele>2575.800048828125</ele>
        <time>2021-06-28T00:40:14.000Z</time>
        <extensions>
          <ns3:TrackPointExtension>
            <ns3:atemp>32.0</ns3:atemp>
            <ns3:hr>84</ns3:hr>
          </ns3:TrackPointExtension>
        </extensions>
      </trkpt>
      <trkpt lat="36.8706856481730937957763671875" lon="-118.447744846343994140625">
        <ele>2575.199951171875</ele>
        <time>2021-06-28T00:40:17.000Z</time>
        <extensions>
          <ns3:TrackPointExtension>
            <ns3:atemp>32.0</ns3:atemp>
            <ns3:hr>82</ns3:hr>
          </ns3:TrackPointExtension>
        </extensions>
      </trkpt>
      <trkpt lat="36.87069746665656566619873046875" lon="-118.44774962402880191802978515625">
        <ele>2575</ele>
        <time>2021-06-28T00:40:18.000Z</time>
        <extensions>
          <ns3:TrackPointExtension>
            <ns3:atemp>32.0</ns3:atemp>
            <ns3:hr>82</ns3:hr>
          </ns3:TrackPointExtension>
        </extensions>
      </trkpt>
      <trkpt lat="36.8707342632114887237548828125" lon="-118.447768986225128173828125">
        <ele>2574.60009765625</ele>
        <time>2021-06-28T00:40:22.000Z</time>
        <extensions>
          <ns3:TrackPointExtension>
            <ns3:atemp>32.0</ns3:atemp>
            <ns3:hr>81</ns3:hr>
          </ns3:TrackPointExtension>
        </extensions>
      </trkpt>
      <trkpt lat="36.87075932510197162628173828125" lon="-118.44779379665851593017578125">
        <ele>2573.800048828125</ele>
        <time>2021-06-28T00:40:26.000Z</time>
        <extensions>
          <ns3:TrackPointExtension>
            <ns3:atemp>32.0</ns3:atemp>
            <ns3:hr>82</ns3:hr>
          </ns3:TrackPointExtension>
        </extensions>
      </trkpt>
      <trkpt lat="36.8707825429737567901611328125" lon="-118.4478455968201160430908203125">
        <ele>2572.800048828125</ele>
        <time>2021-06-28T00:40:32.000Z</time>
        <extensions>
          <ns3:TrackPointExtension>
            <ns3:atemp>32.0</ns3:atemp>
            <ns3:hr>83</ns3:hr>
          </ns3:TrackPointExtension>
        </extensions>
      </trkpt>
      <trkpt lat="36.87078329734504222869873046875" lon="-118.44786227680742740631103515625">
        <ele>2572.60009765625</ele>
        <time>2021-06-28T00:40:33.000Z</time>
        <extensions>
          <ns3:TrackPointExtension>
            <ns3:atemp>32.0</ns3:atemp>
            <ns3:hr>84</ns3:hr>
          </ns3:TrackPointExtension>
        </extensions>
      </trkpt>
      <trkpt lat="36.870794780552387237548828125" lon="-118.44789094291627407073974609375">
        <ele>2572.60009765625</ele>
        <time>2021-06-28T00:40:35.000Z</time>
        <extensions>
          <ns3:TrackPointExtension>
            <ns3:atemp>32.0</ns3:atemp>
            <ns3:hr>84</ns3:hr>
          </ns3:TrackPointExtension>
        </extensions>
      </trkpt>
      <trkpt lat="36.870810873806476593017578125" lon="-118.44797174446284770965576171875">
        <ele>2572</ele>
        <time>2021-06-28T00:40:40.000Z</time>
        <extensions>
          <ns3:TrackPointExtension>
            <ns3:atemp>32.0</ns3:atemp>
            <ns3:hr>86</ns3:hr>
          </ns3:TrackPointExtension>
        </extensions>
      </trkpt>
      <trkpt lat="36.870807521045207977294921875" lon="-118.44798624515533447265625">
        <ele>2571.800048828125</ele>
        <time>2021-06-28T00:40:41.000Z</time>
        <extensions>
          <ns3:TrackPointExtension>
            <ns3:atemp>32.0</ns3:atemp>
            <ns3:hr>86</ns3:hr>
          </ns3:TrackPointExtension>
        </extensions>
      </trkpt>
      <trkpt lat="36.87080626375973224639892578125" lon="-118.4480065293610095977783203125">
        <ele>2571.39990234375</ele>
        <time>2021-06-28T00:40:43.000Z</time>
        <extensions>
          <ns3:TrackPointExtension>
            <ns3:atemp>32.0</ns3:atemp>
            <ns3:hr>87</ns3:hr>
          </ns3:TrackPointExtension>
        </extensions>
      </trkpt>
      <trkpt lat="36.8708120472729206085205078125" lon="-118.44802488572895526885986328125">
        <ele>2571.39990234375</ele>
        <time>2021-06-28T00:40:45.000Z</time>
        <extensions>
          <ns3:TrackPointExtension>
            <ns3:atemp>32.0</ns3:atemp>
            <ns3:hr>87</ns3:hr>
          </ns3:TrackPointExtension>
        </extensions>
      </trkpt>
      <trkpt lat="36.8708076886832714080810546875" lon="-118.44804885797202587127685546875">
        <ele>2571.39990234375</ele>
        <time>2021-06-28T00:40:47.000Z</time>
        <extensions>
          <ns3:TrackPointExtension>
            <ns3:atemp>32.0</ns3:atemp>
            <ns3:hr>87</ns3:hr>
          </ns3:TrackPointExtension>
        </extensions>
      </trkpt>
      <trkpt lat="36.87083861790597438812255859375" lon="-118.4481262229382991790771484375">
        <ele>2571.199951171875</ele>
        <time>2021-06-28T00:40:53.000Z</time>
        <extensions>
          <ns3:TrackPointExtension>
            <ns3:atemp>32.0</ns3:atemp>
            <ns3:hr>84</ns3:hr>
          </ns3:TrackPointExtension>
        </extensions>
      </trkpt>
      <trkpt lat="36.87084498815238475799560546875" lon="-118.44814038835465908050537109375">
        <ele>2571.199951171875</ele>
        <time>2021-06-28T00:40:54.000Z</time>
        <extensions>
          <ns3:TrackPointExtension>
            <ns3:atemp>32.0</ns3:atemp>
            <ns3:hr>84</ns3:hr>
          </ns3:TrackPointExtension>
        </extensions>
      </trkpt>
      <trkpt lat="36.8708613328635692596435546875" lon="-118.44816737808287143707275390625">
        <ele>2571.199951171875</ele>
        <time>2021-06-28T00:40:56.000Z</time>
        <extensions>
          <ns3:TrackPointExtension>
            <ns3:atemp>32.0</ns3:atemp>
            <ns3:hr>84</ns3:hr>
          </ns3:TrackPointExtension>
        </extensions>
      </trkpt>
      <trkpt lat="36.87090399675071239471435546875" lon="-118.44824440777301788330078125">
        <ele>2571.39990234375</ele>
        <time>2021-06-28T00:41:00.000Z</time>
        <extensions>
          <ns3:TrackPointExtension>
            <ns3:atemp>32.0</ns3:atemp>
            <ns3:hr>83</ns3:hr>
          </ns3:TrackPointExtension>
        </extensions>
      </trkpt>
      <trkpt lat="36.8709065951406955718994140625" lon="-118.44827114604413509368896484375">
        <ele>2571</ele>
        <time>2021-06-28T00:41:04.000Z</time>
        <extensions>
          <ns3:TrackPointExtension>
            <ns3:atemp>32.0</ns3:atemp>
            <ns3:hr>83</ns3:hr>
          </ns3:TrackPointExtension>
        </extensions>
      </trkpt>
      <trkpt lat="36.87090919353067874908447265625" lon="-118.4482998959720134735107421875">
        <ele>2570.800048828125</ele>
        <time>2021-06-28T00:41:06.000Z</time>
        <extensions>
          <ns3:TrackPointExtension>
            <ns3:atemp>32.0</ns3:atemp>
            <ns3:hr>83</ns3:hr>
          </ns3:TrackPointExtension>
        </extensions>
      </trkpt>
      <trkpt lat="36.87090617604553699493408203125" lon="-118.44831255264580249786376953125">
        <ele>2570.60009765625</ele>
        <time>2021-06-28T00:41:07.000Z</time>
        <extensions>
          <ns3:TrackPointExtension>
            <ns3:atemp>32.0</ns3:atemp>
            <ns3:hr>83</ns3:hr>
          </ns3:TrackPointExtension>
        </extensions>
      </trkpt>
      <trkpt lat="36.87090240418910980224609375" lon="-118.4483495168387889862060546875">
        <ele>2570.60009765625</ele>
        <time>2021-06-28T00:41:10.000Z</time>
        <extensions>
          <ns3:TrackPointExtension>
            <ns3:atemp>32.0</ns3:atemp>
            <ns3:hr>82</ns3:hr>
          </ns3:TrackPointExtension>
        </extensions>
      </trkpt>
      <trkpt lat="36.87091304920613765716552734375" lon="-118.44837491400539875030517578125">
        <ele>2570.60009765625</ele>
        <time>2021-06-28T00:41:13.000Z</time>
        <extensions>
          <ns3:TrackPointExtension>
            <ns3:atemp>32.0</ns3:atemp>
            <ns3:hr>78</ns3:hr>
          </ns3:TrackPointExtension>
        </extensions>
      </trkpt>
      <trkpt lat="36.8709097802639007568359375" lon="-118.4483853913843631744384765625">
        <ele>2570.60009765625</ele>
        <time>2021-06-28T00:41:14.000Z</time>
        <extensions>
          <ns3:TrackPointExtension>
            <ns3:atemp>32.0</ns3:atemp>
            <ns3:hr>77</ns3:hr>
          </ns3:TrackPointExtension>
        </extensions>
      </trkpt>
      <trkpt lat="36.8709366023540496826171875" lon="-118.44851388595998287200927734375">
        <ele>2570.60009765625</ele>
        <time>2021-06-28T00:41:22.000Z</time>
        <extensions>
          <ns3:TrackPointExtension>
            <ns3:atemp>32.0</ns3:atemp>
            <ns3:hr>77</ns3:hr>
          </ns3:TrackPointExtension>
        </extensions>
      </trkpt>
      <trkpt lat="36.8710105307400226593017578125" lon="-118.44863793812692165374755859375">
        <ele>2571</ele>
        <time>2021-06-28T00:41:32.000Z</time>
        <extensions>
          <ns3:TrackPointExtension>
            <ns3:atemp>32.0</ns3:atemp>
            <ns3:hr>78</ns3:hr>
          </ns3:TrackPointExtension>
        </extensions>
      </trkpt>
      <trkpt lat="36.87101866118609905242919921875" lon="-118.4486800990998744964599609375">
        <ele>2571.60009765625</ele>
        <time>2021-06-28T00:41:35.000Z</time>
        <extensions>
          <ns3:TrackPointExtension>
            <ns3:atemp>32.0</ns3:atemp>
            <ns3:hr>77</ns3:hr>
          </ns3:TrackPointExtension>
        </extensions>
      </trkpt>
      <trkpt lat="36.87102980911731719970703125" lon="-118.44869560562074184417724609375">
        <ele>2571.60009765625</ele>
        <time>2021-06-28T00:41:37.000Z</time>
        <extensions>
          <ns3:TrackPointExtension>
            <ns3:atemp>32.0</ns3:atemp>
            <ns3:hr>80</ns3:hr>
          </ns3:TrackPointExtension>
        </extensions>
      </trkpt>
      <trkpt lat="36.8710376881062984466552734375" lon="-118.4486992098391056060791015625">
        <ele>2571.60009765625</ele>
        <time>2021-06-28T00:41:38.000Z</time>
        <extensions>
          <ns3:TrackPointExtension>
            <ns3:atemp>32.0</ns3:atemp>
            <ns3:hr>81</ns3:hr>
          </ns3:TrackPointExtension>
        </extensions>
      </trkpt>
      <trkpt lat="36.8710437230765819549560546875" lon="-118.44870499335229396820068359375">
        <ele>2571.800048828125</ele>
        <time>2021-06-28T00:41:39.000Z</time>
        <extensions>
          <ns3:TrackPointExtension>
            <ns3:atemp>32.0</ns3:atemp>
            <ns3:hr>81</ns3:hr>
          </ns3:TrackPointExtension>
        </extensions>
      </trkpt>
      <trkpt lat="36.87108420766890048980712890625" lon="-118.44878361560404300689697265625">
        <ele>2572.39990234375</ele>
        <time>2021-06-28T00:41:44.000Z</time>
        <extensions>
          <ns3:TrackPointExtension>
            <ns3:atemp>32.0</ns3:atemp>
            <ns3:hr>84</ns3:hr>
          </ns3:TrackPointExtension>
        </extensions>
      </trkpt>
      <trkpt lat="36.87109326012432575225830078125" lon="-118.44880205579102039337158203125">
        <ele>2572.60009765625</ele>
        <time>2021-06-28T00:41:46.000Z</time>
        <extensions>
          <ns3:TrackPointExtension>
            <ns3:atemp>32.0</ns3:atemp>
            <ns3:hr>87</ns3:hr>
          </ns3:TrackPointExtension>
        </extensions>
      </trkpt>
      <trkpt lat="36.87109862454235553741455078125" lon="-118.44881211407482624053955078125">
        <ele>2572.800048828125</ele>
        <time>2021-06-28T00:41:47.000Z</time>
        <extensions>
          <ns3:TrackPointExtension>
            <ns3:atemp>32.0</ns3:atemp>
            <ns3:hr>89</ns3:hr>
          </ns3:TrackPointExtension>
        </extensions>
      </trkpt>
      <trkpt lat="36.8711136281490325927734375" lon="-118.44883826561272144317626953125">
        <ele>2573</ele>
        <time>2021-06-28T00:41:49.000Z</time>
        <extensions>
          <ns3:TrackPointExtension>
            <ns3:atemp>32.0</ns3:atemp>
            <ns3:hr>92</ns3:hr>
          </ns3:TrackPointExtension>
        </extensions>
      </trkpt>
      <trkpt lat="36.87112309969961643218994140625" lon="-118.44887631945312023162841796875">
        <ele>2573.199951171875</ele>
        <time>2021-06-28T00:41:52.000Z</time>
        <extensions>
          <ns3:TrackPointExtension>
            <ns3:atemp>32.0</ns3:atemp>
            <ns3:hr>93</ns3:hr>
          </ns3:TrackPointExtension>
        </extensions>
      </trkpt>
      <trkpt lat="36.87111522071063518524169921875" lon="-118.4489164687693119049072265625">
        <ele>2573.199951171875</ele>
        <time>2021-06-28T00:41:55.000Z</time>
        <extensions>
          <ns3:TrackPointExtension>
            <ns3:atemp>32.0</ns3:atemp>
            <ns3:hr>97</ns3:hr>
          </ns3:TrackPointExtension>
        </extensions>
      </trkpt>
      <trkpt lat="36.87111622653901576995849609375" lon="-118.44897036440670490264892578125">
        <ele>2573.39990234375</ele>
        <time>2021-06-28T00:41:58.000Z</time>
        <extensions>
          <ns3:TrackPointExtension>
            <ns3:atemp>32.0</ns3:atemp>
            <ns3:hr>99</ns3:hr>
          </ns3:TrackPointExtension>
        </extensions>
      </trkpt>
      <trkpt lat="36.87112041749060153961181640625" lon="-118.44897656701505184173583984375">
        <ele>2573.60009765625</ele>
        <time>2021-06-28T00:41:59.000Z</time>
        <extensions>
          <ns3:TrackPointExtension>
            <ns3:atemp>32.0</ns3:atemp>
            <ns3:hr>99</ns3:hr>
          </ns3:TrackPointExtension>
        </extensions>
      </trkpt>
      <trkpt lat="36.87113215215504169464111328125" lon="-118.44899450428783893585205078125">
        <ele>2573.800048828125</ele>
        <time>2021-06-28T00:42:01.000Z</time>
        <extensions>
          <ns3:TrackPointExtension>
            <ns3:atemp>32.0</ns3:atemp>
            <ns3:hr>100</ns3:hr>
          </ns3:TrackPointExtension>
        </extensions>
      </trkpt>
      <trkpt lat="36.8711439706385135650634765625" lon="-118.44904630444943904876708984375">
        <ele>2574</ele>
        <time>2021-06-28T00:42:06.000Z</time>
        <extensions>
          <ns3:TrackPointExtension>
            <ns3:atemp>32.0</ns3:atemp>
            <ns3:hr>102</ns3:hr>
          </ns3:TrackPointExtension>
        </extensions>
      </trkpt>
      <trkpt lat="36.8711687810719013214111328125" lon="-118.449095673859119415283203125">
        <ele>2574.39990234375</ele>
        <time>2021-06-28T00:42:10.000Z</time>
        <extensions>
          <ns3:TrackPointExtension>
            <ns3:atemp>32.0</ns3:atemp>
            <ns3:hr>102</ns3:hr>
          </ns3:TrackPointExtension>
        </extensions>
      </trkpt>
      <trkpt lat="36.87119367532432079315185546875" lon="-118.449131213128566741943359375">
        <ele>2574.60009765625</ele>
        <time>2021-06-28T00:42:14.000Z</time>
        <extensions>
          <ns3:TrackPointExtension>
            <ns3:atemp>32.0</ns3:atemp>
            <ns3:hr>97</ns3:hr>
          </ns3:TrackPointExtension>
        </extensions>
      </trkpt>
      <trkpt lat="36.8712029792368412017822265625" lon="-118.44914185814559459686279296875">
        <ele>2574.60009765625</ele>
        <time>2021-06-28T00:42:15.000Z</time>
        <extensions>
          <ns3:TrackPointExtension>
            <ns3:atemp>32.0</ns3:atemp>
            <ns3:hr>101</ns3:hr>
          </ns3:TrackPointExtension>
        </extensions>
      </trkpt>
      <trkpt lat="36.87122418545186519622802734375" lon="-118.44917437992990016937255859375">
        <ele>2574.60009765625</ele>
        <time>2021-06-28T00:42:17.000Z</time>
        <extensions>
          <ns3:TrackPointExtension>
            <ns3:atemp>32.0</ns3:atemp>
            <ns3:hr>101</ns3:hr>
          </ns3:TrackPointExtension>
        </extensions>
      </trkpt>
      <trkpt lat="36.87124731950461864471435546875" lon="-118.44920120202004909515380859375">
        <ele>2574.60009765625</ele>
        <time>2021-06-28T00:42:20.000Z</time>
        <extensions>
          <ns3:TrackPointExtension>
            <ns3:atemp>32.0</ns3:atemp>
            <ns3:hr>99</ns3:hr>
          </ns3:TrackPointExtension>
        </extensions>
      </trkpt>
      <trkpt lat="36.871247403323650360107421875" lon="-118.4492027945816516876220703125">
        <ele>2575.199951171875</ele>
        <time>2021-06-28T00:42:21.000Z</time>
        <extensions>
          <ns3:TrackPointExtension>
            <ns3:atemp>32.0</ns3:atemp>
            <ns3:hr>99</ns3:hr>
          </ns3:TrackPointExtension>
        </extensions>
      </trkpt>
      <trkpt lat="36.87125050462782382965087890625" lon="-118.44922366552054882049560546875">
        <ele>2575.39990234375</ele>
        <time>2021-06-28T00:42:25.000Z</time>
        <extensions>
          <ns3:TrackPointExtension>
            <ns3:atemp>32.0</ns3:atemp>
            <ns3:hr>98</ns3:hr>
          </ns3:TrackPointExtension>
        </extensions>
      </trkpt>
      <trkpt lat="36.87124396674335002899169921875" lon="-118.44925291836261749267578125">
        <ele>2575.39990234375</ele>
        <time>2021-06-28T00:42:27.000Z</time>
        <extensions>
          <ns3:TrackPointExtension>
            <ns3:atemp>32.0</ns3:atemp>
            <ns3:hr>97</ns3:hr>
          </ns3:TrackPointExtension>
        </extensions>
      </trkpt>
      <trkpt lat="36.8712398596107959747314453125" lon="-118.4493023715913295745849609375">
        <ele>2574.199951171875</ele>
        <time>2021-06-28T00:42:31.000Z</time>
        <extensions>
          <ns3:TrackPointExtension>
            <ns3:atemp>32.0</ns3:atemp>
            <ns3:hr>98</ns3:hr>
          </ns3:TrackPointExtension>
        </extensions>
      </trkpt>
      <trkpt lat="36.8712452240288257598876953125" lon="-118.44930781982839107513427734375">
        <ele>2574</ele>
        <time>2021-06-28T00:42:32.000Z</time>
        <extensions>
          <ns3:TrackPointExtension>
            <ns3:atemp>32.0</ns3:atemp>
            <ns3:hr>98</ns3:hr>
          </ns3:TrackPointExtension>
        </extensions>
      </trkpt>
      <trkpt lat="36.8712504208087921142578125" lon="-118.4493355639278888702392578125">
        <ele>2573.60009765625</ele>
        <time>2021-06-28T00:42:35.000Z</time>
        <extensions>
          <ns3:TrackPointExtension>
            <ns3:atemp>32.0</ns3:atemp>
            <ns3:hr>96</ns3:hr>
          </ns3:TrackPointExtension>
        </extensions>
      </trkpt>
      <trkpt lat="36.87124916352331638336181640625" lon="-118.449351824820041656494140625">
        <ele>2573.39990234375</ele>
        <time>2021-06-28T00:42:36.000Z</time>
        <extensions>
          <ns3:TrackPointExtension>
            <ns3:atemp>32.0</ns3:atemp>
            <ns3:hr>97</ns3:hr>
          </ns3:TrackPointExtension>
        </extensions>
      </trkpt>
      <trkpt lat="36.87122485600411891937255859375" lon="-118.44939918257296085357666015625">
        <ele>2572.199951171875</ele>
        <time>2021-06-28T00:42:39.000Z</time>
        <extensions>
          <ns3:TrackPointExtension>
            <ns3:atemp>32.0</ns3:atemp>
            <ns3:hr>97</ns3:hr>
          </ns3:TrackPointExtension>
        </extensions>
      </trkpt>
      <trkpt lat="36.8712222576141357421875" lon="-118.4494167007505893707275390625">
        <ele>2572.199951171875</ele>
        <time>2021-06-28T00:42:40.000Z</time>
        <extensions>
          <ns3:TrackPointExtension>
            <ns3:atemp>32.0</ns3:atemp>
            <ns3:hr>98</ns3:hr>
          </ns3:TrackPointExtension>
        </extensions>
      </trkpt>
      <trkpt lat="36.87121362425386905670166015625" lon="-118.44951770268380641937255859375">
        <ele>2572</ele>
        <time>2021-06-28T00:42:47.000Z</time>
        <extensions>
          <ns3:TrackPointExtension>
            <ns3:atemp>32.0</ns3:atemp>
            <ns3:hr>99</ns3:hr>
          </ns3:TrackPointExtension>
        </extensions>
      </trkpt>
      <trkpt lat="36.87120993621647357940673828125" lon="-118.449579812586307525634765625">
        <ele>2572.39990234375</ele>
        <time>2021-06-28T00:42:52.000Z</time>
        <extensions>
          <ns3:TrackPointExtension>
            <ns3:atemp>32.0</ns3:atemp>
            <ns3:hr>99</ns3:hr>
          </ns3:TrackPointExtension>
        </extensions>
      </trkpt>
      <trkpt lat="36.8712147139012813568115234375" lon="-118.44965332187712192535400390625">
        <ele>2572</ele>
        <time>2021-06-28T00:42:55.000Z</time>
        <extensions>
          <ns3:TrackPointExtension>
            <ns3:atemp>32.0</ns3:atemp>
            <ns3:hr>100</ns3:hr>
          </ns3:TrackPointExtension>
        </extensions>
      </trkpt>
      <trkpt lat="36.87121278606355190277099609375" lon="-118.44967796467244625091552734375">
        <ele>2572</ele>
        <time>2021-06-28T00:42:56.000Z</time>
        <extensions>
          <ns3:TrackPointExtension>
            <ns3:atemp>32.0</ns3:atemp>
            <ns3:hr>99</ns3:hr>
          </ns3:TrackPointExtension>
        </extensions>
      </trkpt>
      <trkpt lat="36.8712274543941020965576171875" lon="-118.44982028938829898834228515625">
        <ele>2572.60009765625</ele>
        <time>2021-06-28T00:43:04.000Z</time>
        <extensions>
          <ns3:TrackPointExtension>
            <ns3:atemp>32.0</ns3:atemp>
            <ns3:hr>99</ns3:hr>
          </ns3:TrackPointExtension>
        </extensions>
      </trkpt>
      <trkpt lat="36.871230639517307281494140625" lon="-118.44983504153788089752197265625">
        <ele>2572.60009765625</ele>
        <time>2021-06-28T00:43:05.000Z</time>
        <extensions>
          <ns3:TrackPointExtension>
            <ns3:atemp>32.0</ns3:atemp>
            <ns3:hr>99</ns3:hr>
          </ns3:TrackPointExtension>
        </extensions>
      </trkpt>
      <trkpt lat="36.8712526001036167144775390625" lon="-118.4498676471412181854248046875">
        <ele>2572.800048828125</ele>
        <time>2021-06-28T00:43:09.000Z</time>
        <extensions>
          <ns3:TrackPointExtension>
            <ns3:atemp>32.0</ns3:atemp>
            <ns3:hr>98</ns3:hr>
          </ns3:TrackPointExtension>
        </extensions>
      </trkpt>
      <trkpt lat="36.87125670723617076873779296875" lon="-118.4498785436153411865234375">
        <ele>2572.800048828125</ele>
        <time>2021-06-28T00:43:10.000Z</time>
        <extensions>
          <ns3:TrackPointExtension>
            <ns3:atemp>32.0</ns3:atemp>
            <ns3:hr>98</ns3:hr>
          </ns3:TrackPointExtension>
        </extensions>
      </trkpt>
      <trkpt lat="36.8713072501122951507568359375" lon="-118.44994467683136463165283203125">
        <ele>2572.60009765625</ele>
        <time>2021-06-28T00:43:16.000Z</time>
        <extensions>
          <ns3:TrackPointExtension>
            <ns3:atemp>32.0</ns3:atemp>
            <ns3:hr>97</ns3:hr>
          </ns3:TrackPointExtension>
        </extensions>
      </trkpt>
      <trkpt lat="36.87133851461112499237060546875" lon="-118.4500071220099925994873046875">
        <ele>2572.39990234375</ele>
        <time>2021-06-28T00:43:19.000Z</time>
        <extensions>
          <ns3:TrackPointExtension>
            <ns3:atemp>32.0</ns3:atemp>
            <ns3:hr>97</ns3:hr>
          </ns3:TrackPointExtension>
        </extensions>
      </trkpt>
      <trkpt lat="36.87134857289493083953857421875" lon="-118.45002816058695316314697265625">
        <ele>2572.60009765625</ele>
        <time>2021-06-28T00:43:21.000Z</time>
        <extensions>
          <ns3:TrackPointExtension>
            <ns3:atemp>32.0</ns3:atemp>
            <ns3:hr>97</ns3:hr>
          </ns3:TrackPointExtension>
        </extensions>
      </trkpt>
      <trkpt lat="36.871342621743679046630859375" lon="-118.45005355775356292724609375">
        <ele>2572.60009765625</ele>
        <time>2021-06-28T00:43:23.000Z</time>
        <extensions>
          <ns3:TrackPointExtension>
            <ns3:atemp>32.0</ns3:atemp>
            <ns3:hr>96</ns3:hr>
          </ns3:TrackPointExtension>
        </extensions>
      </trkpt>
      <trkpt lat="36.87134907580912113189697265625" lon="-118.45008381642401218414306640625">
        <ele>2572.800048828125</ele>
        <time>2021-06-28T00:43:25.000Z</time>
        <extensions>
          <ns3:TrackPointExtension>
            <ns3:atemp>32.0</ns3:atemp>
            <ns3:hr>96</ns3:hr>
          </ns3:TrackPointExtension>
        </extensions>
      </trkpt>
      <trkpt lat="36.87136298976838588714599609375" lon="-118.45015414059162139892578125">
        <ele>2573</ele>
        <time>2021-06-28T00:43:30.000Z</time>
        <extensions>
          <ns3:TrackPointExtension>
            <ns3:atemp>32.0</ns3:atemp>
            <ns3:hr>97</ns3:hr>
          </ns3:TrackPointExtension>
        </extensions>
      </trkpt>
      <trkpt lat="36.8713806755840778350830078125" lon="-118.4501901827752590179443359375">
        <ele>2573</ele>
        <time>2021-06-28T00:43:33.000Z</time>
        <extensions>
          <ns3:TrackPointExtension>
            <ns3:atemp>32.0</ns3:atemp>
            <ns3:hr>101</ns3:hr>
          </ns3:TrackPointExtension>
        </extensions>
      </trkpt>
      <trkpt lat="36.8713830225169658660888671875" lon="-118.450240977108478546142578125">
        <ele>2573</ele>
        <time>2021-06-28T00:43:35.000Z</time>
        <extensions>
          <ns3:TrackPointExtension>
            <ns3:atemp>32.0</ns3:atemp>
            <ns3:hr>104</ns3:hr>
          </ns3:TrackPointExtension>
        </extensions>
      </trkpt>
      <trkpt lat="36.87139567919075489044189453125" lon="-118.45027894712984561920166015625">
        <ele>2573</ele>
        <time>2021-06-28T00:43:37.000Z</time>
        <extensions>
          <ns3:TrackPointExtension>
            <ns3:atemp>32.0</ns3:atemp>
            <ns3:hr>107</ns3:hr>
          </ns3:TrackPointExtension>
        </extensions>
      </trkpt>
      <trkpt lat="36.871400289237499237060546875" lon="-118.450283221900463104248046875">
        <ele>2573</ele>
        <time>2021-06-28T00:43:40.000Z</time>
        <extensions>
          <ns3:TrackPointExtension>
            <ns3:atemp>32.0</ns3:atemp>
            <ns3:hr>108</ns3:hr>
          </ns3:TrackPointExtension>
        </extensions>
      </trkpt>
      <trkpt lat="36.87141395173966884613037109375" lon="-118.450293950736522674560546875">
        <ele>2573.199951171875</ele>
        <time>2021-06-28T00:43:42.000Z</time>
        <extensions>
          <ns3:TrackPointExtension>
            <ns3:atemp>32.0</ns3:atemp>
            <ns3:hr>108</ns3:hr>
          </ns3:TrackPointExtension>
        </extensions>
      </trkpt>
      <trkpt lat="36.87136114574968814849853515625" lon="-118.4503705613315105438232421875">
        <ele>2572.800048828125</ele>
        <time>2021-06-28T00:43:50.000Z</time>
        <extensions>
          <ns3:TrackPointExtension>
            <ns3:atemp>32.0</ns3:atemp>
            <ns3:hr>106</ns3:hr>
          </ns3:TrackPointExtension>
        </extensions>
      </trkpt>
      <trkpt lat="36.8713568709790706634521484375" lon="-118.45038204453885555267333984375">
        <ele>2572.800048828125</ele>
        <time>2021-06-28T00:43:51.000Z</time>
        <extensions>
          <ns3:TrackPointExtension>
            <ns3:atemp>32.0</ns3:atemp>
            <ns3:hr>106</ns3:hr>
          </ns3:TrackPointExtension>
        </extensions>
      </trkpt>
      <trkpt lat="36.87135578133165836334228515625" lon="-118.45041699707508087158203125">
        <ele>2572.199951171875</ele>
        <time>2021-06-28T00:43:55.000Z</time>
        <extensions>
          <ns3:TrackPointExtension>
            <ns3:atemp>32.0</ns3:atemp>
            <ns3:hr>103</ns3:hr>
          </ns3:TrackPointExtension>
        </extensions>
      </trkpt>
      <trkpt lat="36.87136734835803508758544921875" lon="-118.4504278935492038726806640625">
        <ele>2572.199951171875</ele>
        <time>2021-06-28T00:43:57.000Z</time>
        <extensions>
          <ns3:TrackPointExtension>
            <ns3:atemp>32.0</ns3:atemp>
            <ns3:hr>103</ns3:hr>
          </ns3:TrackPointExtension>
        </extensions>
      </trkpt>
      <trkpt lat="36.87138327397406101226806640625" lon="-118.4504399634897708892822265625">
        <ele>2572</ele>
        <time>2021-06-28T00:44:03.000Z</time>
        <extensions>
          <ns3:TrackPointExtension>
            <ns3:atemp>32.0</ns3:atemp>
            <ns3:hr>102</ns3:hr>
          </ns3:TrackPointExtension>
        </extensions>
      </trkpt>
      <trkpt lat="36.87137774191796779632568359375" lon="-118.45044088549911975860595703125">
        <ele>2572</ele>
        <time>2021-06-28T00:44:05.000Z</time>
        <extensions>
          <ns3:TrackPointExtension>
            <ns3:atemp>32.0</ns3:atemp>
            <ns3:hr>98</ns3:hr>
          </ns3:TrackPointExtension>
        </extensions>
      </trkpt>
      <trkpt lat="36.87137003056704998016357421875" lon="-118.45045731402933597564697265625">
        <ele>2571.800048828125</ele>
        <time>2021-06-28T00:44:10.000Z</time>
        <extensions>
          <ns3:TrackPointExtension>
            <ns3:atemp>32.0</ns3:atemp>
            <ns3:hr>94</ns3:hr>
          </ns3:TrackPointExtension>
        </extensions>
      </trkpt>
      <trkpt lat="36.8713692761957645416259765625" lon="-118.45047533512115478515625">
        <ele>2571.800048828125</ele>
        <time>2021-06-28T00:44:13.000Z</time>
        <extensions>
          <ns3:TrackPointExtension>
            <ns3:atemp>32.0</ns3:atemp>
            <ns3:hr>91</ns3:hr>
          </ns3:TrackPointExtension>
        </extensions>
      </trkpt>
      <trkpt lat="36.871370114386081695556640625" lon="-118.45052160322666168212890625">
        <ele>2571.60009765625</ele>
        <time>2021-06-28T00:44:17.000Z</time>
        <extensions>
          <ns3:TrackPointExtension>
            <ns3:atemp>32.0</ns3:atemp>
            <ns3:hr>91</ns3:hr>
          </ns3:TrackPointExtension>
        </extensions>
      </trkpt>
      <trkpt lat="36.87134438194334506988525390625" lon="-118.45057851634919643402099609375">
        <ele>2571.39990234375</ele>
        <time>2021-06-28T00:44:22.000Z</time>
        <extensions>
          <ns3:TrackPointExtension>
            <ns3:atemp>32.0</ns3:atemp>
            <ns3:hr>91</ns3:hr>
          </ns3:TrackPointExtension>
        </extensions>
      </trkpt>
      <trkpt lat="36.871338598430156707763671875" lon="-118.45059360377490520477294921875">
        <ele>2571.39990234375</ele>
        <time>2021-06-28T00:44:25.000Z</time>
        <extensions>
          <ns3:TrackPointExtension>
            <ns3:atemp>32.0</ns3:atemp>
            <ns3:hr>88</ns3:hr>
          </ns3:TrackPointExtension>
        </extensions>
      </trkpt>
      <trkpt lat="36.8713308870792388916015625" lon="-118.4506247006356716156005859375">
        <ele>2571.800048828125</ele>
        <time>2021-06-28T00:44:29.000Z</time>
        <extensions>
          <ns3:TrackPointExtension>
            <ns3:atemp>32.0</ns3:atemp>
            <ns3:hr>88</ns3:hr>
          </ns3:TrackPointExtension>
        </extensions>
      </trkpt>
      <trkpt lat="36.87131471000611782073974609375" lon="-118.45069569535553455352783203125">
        <ele>2571.800048828125</ele>
        <time>2021-06-28T00:44:37.000Z</time>
        <extensions>
          <ns3:TrackPointExtension>
            <ns3:atemp>32.0</ns3:atemp>
            <ns3:hr>87</ns3:hr>
          </ns3:TrackPointExtension>
        </extensions>
      </trkpt>
      <trkpt lat="36.87130666337907314300537109375" lon="-118.45070022158324718475341796875">
        <ele>2571.39990234375</ele>
        <time>2021-06-28T00:44:40.000Z</time>
        <extensions>
          <ns3:TrackPointExtension>
            <ns3:atemp>32.0</ns3:atemp>
            <ns3:hr>88</ns3:hr>
          </ns3:TrackPointExtension>
        </extensions>
      </trkpt>
      <trkpt lat="36.8713015504181385040283203125" lon="-118.45069468952715396881103515625">
        <ele>2571</ele>
        <time>2021-06-28T00:44:41.000Z</time>
        <extensions>
          <ns3:TrackPointExtension>
            <ns3:atemp>32.0</ns3:atemp>
            <ns3:hr>88</ns3:hr>
          </ns3:TrackPointExtension>
        </extensions>
      </trkpt>
      <trkpt lat="36.87129358761012554168701171875" lon="-118.450703658163547515869140625">
        <ele>2570.800048828125</ele>
        <time>2021-06-28T00:44:44.000Z</time>
        <extensions>
          <ns3:TrackPointExtension>
            <ns3:atemp>32.0</ns3:atemp>
            <ns3:hr>89</ns3:hr>
          </ns3:TrackPointExtension>
        </extensions>
      </trkpt>
      <trkpt lat="36.87129023484885692596435546875" lon="-118.45072142779827117919921875">
        <ele>2570.39990234375</ele>
        <time>2021-06-28T00:44:48.000Z</time>
        <extensions>
          <ns3:TrackPointExtension>
            <ns3:atemp>32.0</ns3:atemp>
            <ns3:hr>90</ns3:hr>
          </ns3:TrackPointExtension>
        </extensions>
      </trkpt>
      <trkpt lat="36.87128755263984203338623046875" lon="-118.4507207572460174560546875">
        <ele>2570.199951171875</ele>
        <time>2021-06-28T00:44:52.000Z</time>
        <extensions>
          <ns3:TrackPointExtension>
            <ns3:atemp>32.0</ns3:atemp>
            <ns3:hr>94</ns3:hr>
          </ns3:TrackPointExtension>
        </extensions>
      </trkpt>
      <trkpt lat="36.87128755263984203338623046875" lon="-118.4507207572460174560546875">
        <ele>2570.199951171875</ele>
        <time>2021-06-28T00:44:53.000Z</time>
        <extensions>
          <ns3:TrackPointExtension>
            <ns3:atemp>32.0</ns3:atemp>
            <ns3:hr>90</ns3:hr>
          </ns3:TrackPointExtension>
        </extensions>
      </trkpt>
      <trkpt lat="36.87128755263984203338623046875" lon="-118.4507207572460174560546875">
        <ele>2570</ele>
        <time>2021-06-28T00:44:54.000Z</time>
        <extensions>
          <ns3:TrackPointExtension>
            <ns3:atemp>32.0</ns3:atemp>
            <ns3:hr>89</ns3:hr>
          </ns3:TrackPointExtension>
        </extensions>
      </trkpt>
      <trkpt lat="36.87128034420311450958251953125" lon="-118.4507611580193042755126953125">
        <ele>2569.60009765625</ele>
        <time>2021-06-28T00:45:00.000Z</time>
        <extensions>
          <ns3:TrackPointExtension>
            <ns3:atemp>32.0</ns3:atemp>
            <ns3:hr>90</ns3:hr>
          </ns3:TrackPointExtension>
        </extensions>
      </trkpt>
      <trkpt lat="36.87128017656505107879638671875" lon="-118.45085729844868183135986328125">
        <ele>2569.199951171875</ele>
        <time>2021-06-28T00:45:04.000Z</time>
        <extensions>
          <ns3:TrackPointExtension>
            <ns3:atemp>32.0</ns3:atemp>
            <ns3:hr>87</ns3:hr>
          </ns3:TrackPointExtension>
        </extensions>
      </trkpt>
      <trkpt lat="36.87127565033733844757080078125" lon="-118.45091764815151691436767578125">
        <ele>2569</ele>
        <time>2021-06-28T00:45:08.000Z</time>
        <extensions>
          <ns3:TrackPointExtension>
            <ns3:atemp>32.0</ns3:atemp>
            <ns3:hr>87</ns3:hr>
          </ns3:TrackPointExtension>
        </extensions>
      </trkpt>
      <trkpt lat="36.871273554861545562744140625" lon="-118.45092837698757648468017578125">
        <ele>2569</ele>
        <time>2021-06-28T00:45:09.000Z</time>
        <extensions>
          <ns3:TrackPointExtension>
            <ns3:atemp>32.0</ns3:atemp>
            <ns3:hr>87</ns3:hr>
          </ns3:TrackPointExtension>
        </extensions>
      </trkpt>
      <trkpt lat="36.8712651729583740234375" lon="-118.45094011165201663970947265625">
        <ele>2569</ele>
        <time>2021-06-28T00:45:10.000Z</time>
        <extensions>
          <ns3:TrackPointExtension>
            <ns3:atemp>32.0</ns3:atemp>
            <ns3:hr>88</ns3:hr>
          </ns3:TrackPointExtension>
        </extensions>
      </trkpt>
      <trkpt lat="36.8712355010211467742919921875" lon="-118.45098587684333324432373046875">
        <ele>2568.39990234375</ele>
        <time>2021-06-28T00:45:13.000Z</time>
        <extensions>
          <ns3:TrackPointExtension>
            <ns3:atemp>32.0</ns3:atemp>
            <ns3:hr>92</ns3:hr>
          </ns3:TrackPointExtension>
        </extensions>
      </trkpt>
      <trkpt lat="36.871212534606456756591796875" lon="-118.45099501311779022216796875">
        <ele>2567.800048828125</ele>
        <time>2021-06-28T00:45:15.000Z</time>
        <extensions>
          <ns3:TrackPointExtension>
            <ns3:atemp>32.0</ns3:atemp>
            <ns3:hr>90</ns3:hr>
          </ns3:TrackPointExtension>
        </extensions>
      </trkpt>
      <trkpt lat="36.87119082547724246978759765625" lon="-118.45102049410343170166015625">
        <ele>2567.39990234375</ele>
        <time>2021-06-28T00:45:18.000Z</time>
        <extensions>
          <ns3:TrackPointExtension>
            <ns3:atemp>32.0</ns3:atemp>
            <ns3:hr>93</ns3:hr>
          </ns3:TrackPointExtension>
        </extensions>
      </trkpt>
      <trkpt lat="36.871189735829830169677734375" lon="-118.45101957209408283233642578125">
        <ele>2567.39990234375</ele>
        <time>2021-06-28T00:45:20.000Z</time>
        <extensions>
          <ns3:TrackPointExtension>
            <ns3:atemp>32.0</ns3:atemp>
            <ns3:hr>96</ns3:hr>
          </ns3:TrackPointExtension>
        </extensions>
      </trkpt>
      <trkpt lat="36.8711858801543712615966796875" lon="-118.45102711580693721771240234375">
        <ele>2567.39990234375</ele>
        <time>2021-06-28T00:45:21.000Z</time>
        <extensions>
          <ns3:TrackPointExtension>
            <ns3:atemp>32.0</ns3:atemp>
            <ns3:hr>94</ns3:hr>
          </ns3:TrackPointExtension>
        </extensions>
      </trkpt>
      <trkpt lat="36.8711778335273265838623046875" lon="-118.4510350786149501800537109375">
        <ele>2567.39990234375</ele>
        <time>2021-06-28T00:45:22.000Z</time>
        <extensions>
          <ns3:TrackPointExtension>
            <ns3:atemp>32.0</ns3:atemp>
            <ns3:hr>93</ns3:hr>
          </ns3:TrackPointExtension>
        </extensions>
      </trkpt>
      <trkpt lat="36.871138773858547210693359375" lon="-118.45104488544166088104248046875">
        <ele>2567.60009765625</ele>
        <time>2021-06-28T00:45:26.000Z</time>
        <extensions>
          <ns3:TrackPointExtension>
            <ns3:atemp>32.0</ns3:atemp>
            <ns3:hr>92</ns3:hr>
          </ns3:TrackPointExtension>
        </extensions>
      </trkpt>
      <trkpt lat="36.8711352534592151641845703125" lon="-118.451042287051677703857421875">
        <ele>2567.39990234375</ele>
        <time>2021-06-28T00:45:27.000Z</time>
        <extensions>
          <ns3:TrackPointExtension>
            <ns3:atemp>32.0</ns3:atemp>
            <ns3:hr>92</ns3:hr>
          </ns3:TrackPointExtension>
        </extensions>
      </trkpt>
      <trkpt lat="36.87114640139043331146240234375" lon="-118.45103717409074306488037109375">
        <ele>2567.199951171875</ele>
        <time>2021-06-28T00:45:34.000Z</time>
        <extensions>
          <ns3:TrackPointExtension>
            <ns3:atemp>32.0</ns3:atemp>
            <ns3:hr>90</ns3:hr>
          </ns3:TrackPointExtension>
        </extensions>
      </trkpt>
      <trkpt lat="36.87114941887557506561279296875" lon="-118.4510399401187896728515625">
        <ele>2567.199951171875</ele>
        <time>2021-06-28T00:45:35.000Z</time>
        <extensions>
          <ns3:TrackPointExtension>
            <ns3:atemp>32.0</ns3:atemp>
            <ns3:hr>90</ns3:hr>
          </ns3:TrackPointExtension>
        </extensions>
      </trkpt>
      <trkpt lat="36.87116970308125019073486328125" lon="-118.45110230147838592529296875">
        <ele>2567.800048828125</ele>
        <time>2021-06-28T00:45:48.000Z</time>
        <extensions>
          <ns3:TrackPointExtension>
            <ns3:atemp>31.0</ns3:atemp>
            <ns3:hr>88</ns3:hr>
          </ns3:TrackPointExtension>
        </extensions>
      </trkpt>
      <trkpt lat="36.87116970308125019073486328125" lon="-118.4511869587004184722900390625">
        <ele>2568.199951171875</ele>
        <time>2021-06-28T00:45:53.000Z</time>
        <extensions>
          <ns3:TrackPointExtension>
            <ns3:atemp>31.0</ns3:atemp>
            <ns3:hr>87</ns3:hr>
          </ns3:TrackPointExtension>
        </extensions>
      </trkpt>
      <trkpt lat="36.8711597286164760589599609375" lon="-118.45121227204799652099609375">
        <ele>2568.199951171875</ele>
        <time>2021-06-28T00:45:55.000Z</time>
        <extensions>
          <ns3:TrackPointExtension>
            <ns3:atemp>31.0</ns3:atemp>
            <ns3:hr>86</ns3:hr>
          </ns3:TrackPointExtension>
        </extensions>
      </trkpt>
      <trkpt lat="36.87112829647958278656005859375" lon="-118.451274968683719635009765625">
        <ele>2568</ele>
        <time>2021-06-28T00:46:00.000Z</time>
        <extensions>
          <ns3:TrackPointExtension>
            <ns3:atemp>31.0</ns3:atemp>
            <ns3:hr>83</ns3:hr>
          </ns3:TrackPointExtension>
        </extensions>
      </trkpt>
      <trkpt lat="36.8711168132722377777099609375" lon="-118.4512888826429843902587890625">
        <ele>2567.800048828125</ele>
        <time>2021-06-28T00:46:01.000Z</time>
        <extensions>
          <ns3:TrackPointExtension>
            <ns3:atemp>31.0</ns3:atemp>
            <ns3:hr>88</ns3:hr>
          </ns3:TrackPointExtension>
        </extensions>
      </trkpt>
      <trkpt lat="36.87110616825520992279052734375" lon="-118.45131360925734043121337890625">
        <ele>2567.800048828125</ele>
        <time>2021-06-28T00:46:03.000Z</time>
        <extensions>
          <ns3:TrackPointExtension>
            <ns3:atemp>31.0</ns3:atemp>
            <ns3:hr>85</ns3:hr>
          </ns3:TrackPointExtension>
        </extensions>
      </trkpt>
      <trkpt lat="36.87110331840813159942626953125" lon="-118.45132417045533657073974609375">
        <ele>2567.800048828125</ele>
        <time>2021-06-28T00:46:04.000Z</time>
        <extensions>
          <ns3:TrackPointExtension>
            <ns3:atemp>31.0</ns3:atemp>
            <ns3:hr>84</ns3:hr>
          </ns3:TrackPointExtension>
        </extensions>
      </trkpt>
      <trkpt lat="36.87107766978442668914794921875" lon="-118.45135116018354892730712890625">
        <ele>2567.800048828125</ele>
        <time>2021-06-28T00:46:08.000Z</time>
        <extensions>
          <ns3:TrackPointExtension>
            <ns3:atemp>31.0</ns3:atemp>
            <ns3:hr>84</ns3:hr>
          </ns3:TrackPointExtension>
        </extensions>
      </trkpt>
      <trkpt lat="36.87105889432132244110107421875" lon="-118.4513566084206104278564453125">
        <ele>2567.800048828125</ele>
        <time>2021-06-28T00:46:11.000Z</time>
        <extensions>
          <ns3:TrackPointExtension>
            <ns3:atemp>31.0</ns3:atemp>
            <ns3:hr>83</ns3:hr>
          </ns3:TrackPointExtension>
        </extensions>
      </trkpt>
      <trkpt lat="36.8710396997630596160888671875" lon="-118.45136515796184539794921875">
        <ele>2567.39990234375</ele>
        <time>2021-06-28T00:46:13.000Z</time>
        <extensions>
          <ns3:TrackPointExtension>
            <ns3:atemp>31.0</ns3:atemp>
            <ns3:hr>80</ns3:hr>
          </ns3:TrackPointExtension>
        </extensions>
      </trkpt>
      <trkpt lat="36.87101899646222591400146484375" lon="-118.45138267613947391510009765625">
        <ele>2566.800048828125</ele>
        <time>2021-06-28T00:46:15.000Z</time>
        <extensions>
          <ns3:TrackPointExtension>
            <ns3:atemp>31.0</ns3:atemp>
            <ns3:hr>78</ns3:hr>
          </ns3:TrackPointExtension>
        </extensions>
      </trkpt>
      <trkpt lat="36.87100726179778575897216796875" lon="-118.45142005942761898040771484375">
        <ele>2566.60009765625</ele>
        <time>2021-06-28T00:46:17.000Z</time>
        <extensions>
          <ns3:TrackPointExtension>
            <ns3:atemp>31.0</ns3:atemp>
            <ns3:hr>75</ns3:hr>
          </ns3:TrackPointExtension>
        </extensions>
      </trkpt>
      <trkpt lat="36.87100944109261035919189453125" lon="-118.45144118182361125946044921875">
        <ele>2566.60009765625</ele>
        <time>2021-06-28T00:46:18.000Z</time>
        <extensions>
          <ns3:TrackPointExtension>
            <ns3:atemp>31.0</ns3:atemp>
            <ns3:hr>75</ns3:hr>
          </ns3:TrackPointExtension>
        </extensions>
      </trkpt>
      <trkpt lat="36.8710447289049625396728515625" lon="-118.4515329636633396148681640625">
        <ele>2566.60009765625</ele>
        <time>2021-06-28T00:46:22.000Z</time>
        <extensions>
          <ns3:TrackPointExtension>
            <ns3:atemp>31.0</ns3:atemp>
            <ns3:hr>78</ns3:hr>
          </ns3:TrackPointExtension>
        </extensions>
      </trkpt>
      <trkpt lat="36.8710680305957794189453125" lon="-118.45155534334480762481689453125">
        <ele>2566.60009765625</ele>
        <time>2021-06-28T00:46:24.000Z</time>
        <extensions>
          <ns3:TrackPointExtension>
            <ns3:atemp>31.0</ns3:atemp>
            <ns3:hr>81</ns3:hr>
          </ns3:TrackPointExtension>
        </extensions>
      </trkpt>
      <trkpt lat="36.8710779212415218353271484375" lon="-118.45156808383762836456298828125">
        <ele>2566.60009765625</ele>
        <time>2021-06-28T00:46:25.000Z</time>
        <extensions>
          <ns3:TrackPointExtension>
            <ns3:atemp>31.0</ns3:atemp>
            <ns3:hr>81</ns3:hr>
          </ns3:TrackPointExtension>
        </extensions>
      </trkpt>
      <trkpt lat="36.8711392767727375030517578125" lon="-118.45164678990840911865234375">
        <ele>2566</ele>
        <time>2021-06-28T00:46:32.000Z</time>
        <extensions>
          <ns3:TrackPointExtension>
            <ns3:atemp>31.0</ns3:atemp>
            <ns3:hr>81</ns3:hr>
          </ns3:TrackPointExtension>
        </extensions>
      </trkpt>
      <trkpt lat="36.87113332562148571014404296875" lon="-118.45165844075381755828857421875">
        <ele>2566</ele>
        <time>2021-06-28T00:46:33.000Z</time>
        <extensions>
          <ns3:TrackPointExtension>
            <ns3:atemp>31.0</ns3:atemp>
            <ns3:hr>81</ns3:hr>
          </ns3:TrackPointExtension>
        </extensions>
      </trkpt>
      <trkpt lat="36.87111790291965007781982421875" lon="-118.45169113017618656158447265625">
        <ele>2566</ele>
        <time>2021-06-28T00:46:36.000Z</time>
        <extensions>
          <ns3:TrackPointExtension>
            <ns3:atemp>31.0</ns3:atemp>
            <ns3:hr>81</ns3:hr>
          </ns3:TrackPointExtension>
        </extensions>
      </trkpt>
      <trkpt lat="36.871128380298614501953125" lon="-118.45170219428837299346923828125">
        <ele>2566</ele>
        <time>2021-06-28T00:46:38.000Z</time>
        <extensions>
          <ns3:TrackPointExtension>
            <ns3:atemp>31.0</ns3:atemp>
            <ns3:hr>83</ns3:hr>
          </ns3:TrackPointExtension>
        </extensions>
      </trkpt>
      <trkpt lat="36.87114690430462360382080078125" lon="-118.4517317824065685272216796875">
        <ele>2565.60009765625</ele>
        <time>2021-06-28T00:46:40.000Z</time>
        <extensions>
          <ns3:TrackPointExtension>
            <ns3:atemp>31.0</ns3:atemp>
            <ns3:hr>83</ns3:hr>
          </ns3:TrackPointExtension>
        </extensions>
      </trkpt>
      <trkpt lat="36.87117733061313629150390625" lon="-118.451819121837615966796875">
        <ele>2565.199951171875</ele>
        <time>2021-06-28T00:46:44.000Z</time>
        <extensions>
          <ns3:TrackPointExtension>
            <ns3:atemp>31.0</ns3:atemp>
            <ns3:hr>83</ns3:hr>
          </ns3:TrackPointExtension>
        </extensions>
      </trkpt>
      <trkpt lat="36.871210522949695587158203125" lon="-118.45185843296349048614501953125">
        <ele>2565.199951171875</ele>
        <time>2021-06-28T00:46:47.000Z</time>
        <extensions>
          <ns3:TrackPointExtension>
            <ns3:atemp>31.0</ns3:atemp>
            <ns3:hr>83</ns3:hr>
          </ns3:TrackPointExtension>
        </extensions>
      </trkpt>
      <trkpt lat="36.87122250907123088836669921875" lon="-118.4518645517528057098388671875">
        <ele>2565.199951171875</ele>
        <time>2021-06-28T00:46:49.000Z</time>
        <extensions>
          <ns3:TrackPointExtension>
            <ns3:atemp>31.0</ns3:atemp>
            <ns3:hr>86</ns3:hr>
          </ns3:TrackPointExtension>
        </extensions>
      </trkpt>
      <trkpt lat="36.87122535891830921173095703125" lon="-118.451859690248966217041015625">
        <ele>2565.199951171875</ele>
        <time>2021-06-28T00:46:50.000Z</time>
        <extensions>
          <ns3:TrackPointExtension>
            <ns3:atemp>31.0</ns3:atemp>
            <ns3:hr>84</ns3:hr>
          </ns3:TrackPointExtension>
        </extensions>
      </trkpt>
      <trkpt lat="36.87123139388859272003173828125" lon="-118.451867066323757171630859375">
        <ele>2565.199951171875</ele>
        <time>2021-06-28T00:46:51.000Z</time>
        <extensions>
          <ns3:TrackPointExtension>
            <ns3:atemp>31.0</ns3:atemp>
            <ns3:hr>84</ns3:hr>
          </ns3:TrackPointExtension>
        </extensions>
      </trkpt>
      <trkpt lat="36.8712569586932659149169921875" lon="-118.45197259448468685150146484375">
        <ele>2565.60009765625</ele>
        <time>2021-06-28T00:46:57.000Z</time>
        <extensions>
          <ns3:TrackPointExtension>
            <ns3:atemp>31.0</ns3:atemp>
            <ns3:hr>83</ns3:hr>
          </ns3:TrackPointExtension>
        </extensions>
      </trkpt>
      <trkpt lat="36.87126575969159603118896484375" lon="-118.45199354924261569976806640625">
        <ele>2565.60009765625</ele>
        <time>2021-06-28T00:46:58.000Z</time>
        <extensions>
          <ns3:TrackPointExtension>
            <ns3:atemp>31.0</ns3:atemp>
            <ns3:hr>83</ns3:hr>
          </ns3:TrackPointExtension>
        </extensions>
      </trkpt>
      <trkpt lat="36.87128051184117794036865234375" lon="-118.45204618759453296661376953125">
        <ele>2565.60009765625</ele>
        <time>2021-06-28T00:47:01.000Z</time>
        <extensions>
          <ns3:TrackPointExtension>
            <ns3:atemp>31.0</ns3:atemp>
            <ns3:hr>85</ns3:hr>
          </ns3:TrackPointExtension>
        </extensions>
      </trkpt>
      <trkpt lat="36.87129626981914043426513671875" lon="-118.45212162472307682037353515625">
        <ele>2565.60009765625</ele>
        <time>2021-06-28T00:47:06.000Z</time>
        <extensions>
          <ns3:TrackPointExtension>
            <ns3:atemp>31.0</ns3:atemp>
            <ns3:hr>81</ns3:hr>
          </ns3:TrackPointExtension>
        </extensions>
      </trkpt>
      <trkpt lat="36.8713080883026123046875" lon="-118.45213453285396099090576171875">
        <ele>2565.39990234375</ele>
        <time>2021-06-28T00:47:07.000Z</time>
        <extensions>
          <ns3:TrackPointExtension>
            <ns3:atemp>31.0</ns3:atemp>
            <ns3:hr>85</ns3:hr>
          </ns3:TrackPointExtension>
        </extensions>
      </trkpt>
      <trkpt lat="36.87135972082614898681640625" lon="-118.45217627473175525665283203125">
        <ele>2565.800048828125</ele>
        <time>2021-06-28T00:47:12.000Z</time>
        <extensions>
          <ns3:TrackPointExtension>
            <ns3:atemp>31.0</ns3:atemp>
            <ns3:hr>86</ns3:hr>
          </ns3:TrackPointExtension>
        </extensions>
      </trkpt>
      <trkpt lat="36.8714205734431743621826171875" lon="-118.4522068686783313751220703125">
        <ele>2565.800048828125</ele>
        <time>2021-06-28T00:47:18.000Z</time>
        <extensions>
          <ns3:TrackPointExtension>
            <ns3:atemp>31.0</ns3:atemp>
            <ns3:hr>87</ns3:hr>
          </ns3:TrackPointExtension>
        </extensions>
      </trkpt>
      <trkpt lat="36.87142602168023586273193359375" lon="-118.452209718525409698486328125">
        <ele>2565.60009765625</ele>
        <time>2021-06-28T00:47:19.000Z</time>
        <extensions>
          <ns3:TrackPointExtension>
            <ns3:atemp>31.0</ns3:atemp>
            <ns3:hr>88</ns3:hr>
          </ns3:TrackPointExtension>
        </extensions>
      </trkpt>
      <trkpt lat="36.87143842689692974090576171875" lon="-118.452213071286678314208984375">
        <ele>2565.800048828125</ele>
        <time>2021-06-28T00:47:22.000Z</time>
        <extensions>
          <ns3:TrackPointExtension>
            <ns3:atemp>31.0</ns3:atemp>
            <ns3:hr>91</ns3:hr>
          </ns3:TrackPointExtension>
        </extensions>
      </trkpt>
      <trkpt lat="36.8714383430778980255126953125" lon="-118.4522132389247417449951171875">
        <ele>2565.800048828125</ele>
        <time>2021-06-28T00:47:23.000Z</time>
        <extensions>
          <ns3:TrackPointExtension>
            <ns3:atemp>31.0</ns3:atemp>
            <ns3:hr>94</ns3:hr>
          </ns3:TrackPointExtension>
        </extensions>
      </trkpt>
      <trkpt lat="36.87143482267856597900390625" lon="-118.45222354866564273834228515625">
        <ele>2565.800048828125</ele>
        <time>2021-06-28T00:47:25.000Z</time>
        <extensions>
          <ns3:TrackPointExtension>
            <ns3:atemp>31.0</ns3:atemp>
            <ns3:hr>95</ns3:hr>
          </ns3:TrackPointExtension>
        </extensions>
      </trkpt>
      <trkpt lat="36.87144295312464237213134765625" lon="-118.4522437490522861480712890625">
        <ele>2565.800048828125</ele>
        <time>2021-06-28T00:47:27.000Z</time>
        <extensions>
          <ns3:TrackPointExtension>
            <ns3:atemp>31.0</ns3:atemp>
            <ns3:hr>98</ns3:hr>
          </ns3:TrackPointExtension>
        </extensions>
      </trkpt>
      <trkpt lat="36.8714718706905841827392578125" lon="-118.4522782824933528900146484375">
        <ele>2565.60009765625</ele>
        <time>2021-06-28T00:47:31.000Z</time>
        <extensions>
          <ns3:TrackPointExtension>
            <ns3:atemp>31.0</ns3:atemp>
            <ns3:hr>97</ns3:hr>
          </ns3:TrackPointExtension>
        </extensions>
      </trkpt>
      <trkpt lat="36.8714795820415019989013671875" lon="-118.45227710902690887451171875">
        <ele>2565.800048828125</ele>
        <time>2021-06-28T00:47:32.000Z</time>
        <extensions>
          <ns3:TrackPointExtension>
            <ns3:atemp>31.0</ns3:atemp>
            <ns3:hr>99</ns3:hr>
          </ns3:TrackPointExtension>
        </extensions>
      </trkpt>
      <trkpt lat="36.87148771248757839202880859375" lon="-118.45233418978750705718994140625">
        <ele>2566.199951171875</ele>
        <time>2021-06-28T00:47:37.000Z</time>
        <extensions>
          <ns3:TrackPointExtension>
            <ns3:atemp>31.0</ns3:atemp>
            <ns3:hr>96</ns3:hr>
          </ns3:TrackPointExtension>
        </extensions>
      </trkpt>
      <trkpt lat="36.87148821540176868438720703125" lon="-118.45234391279518604278564453125">
        <ele>2566.199951171875</ele>
        <time>2021-06-28T00:47:38.000Z</time>
        <extensions>
          <ns3:TrackPointExtension>
            <ns3:atemp>31.0</ns3:atemp>
            <ns3:hr>97</ns3:hr>
          </ns3:TrackPointExtension>
        </extensions>
      </trkpt>
      <trkpt lat="36.8714960105717182159423828125" lon="-118.45237341709434986114501953125">
        <ele>2566.39990234375</ele>
        <time>2021-06-28T00:47:42.000Z</time>
        <extensions>
          <ns3:TrackPointExtension>
            <ns3:atemp>31.0</ns3:atemp>
            <ns3:hr>95</ns3:hr>
          </ns3:TrackPointExtension>
        </extensions>
      </trkpt>
      <trkpt lat="36.8715020455420017242431640625" lon="-118.4523949585855007171630859375">
        <ele>2566.60009765625</ele>
        <time>2021-06-28T00:47:44.000Z</time>
        <extensions>
          <ns3:TrackPointExtension>
            <ns3:atemp>31.0</ns3:atemp>
            <ns3:hr>98</ns3:hr>
          </ns3:TrackPointExtension>
        </extensions>
      </trkpt>
      <trkpt lat="36.87150967307388782501220703125" lon="-118.4524254687130451202392578125">
        <ele>2566.39990234375</ele>
        <time>2021-06-28T00:47:49.000Z</time>
        <extensions>
          <ns3:TrackPointExtension>
            <ns3:atemp>31.0</ns3:atemp>
            <ns3:hr>99</ns3:hr>
          </ns3:TrackPointExtension>
        </extensions>
      </trkpt>
      <trkpt lat="36.87152073718607425689697265625" lon="-118.45251004211604595184326171875">
        <ele>2566.199951171875</ele>
        <time>2021-06-28T00:48:02.000Z</time>
        <extensions>
          <ns3:TrackPointExtension>
            <ns3:atemp>32.0</ns3:atemp>
            <ns3:hr>96</ns3:hr>
          </ns3:TrackPointExtension>
        </extensions>
      </trkpt>
      <trkpt lat="36.87151285819709300994873046875" lon="-118.45251523889601230621337890625">
        <ele>2566</ele>
        <time>2021-06-28T00:48:03.000Z</time>
        <extensions>
          <ns3:TrackPointExtension>
            <ns3:atemp>32.0</ns3:atemp>
            <ns3:hr>95</ns3:hr>
          </ns3:TrackPointExtension>
        </extensions>
      </trkpt>
      <trkpt lat="36.871515624225139617919921875" lon="-118.45250375568866729736328125">
        <ele>2566</ele>
        <time>2021-06-28T00:48:07.000Z</time>
        <extensions>
          <ns3:TrackPointExtension>
            <ns3:atemp>32.0</ns3:atemp>
            <ns3:hr>95</ns3:hr>
          </ns3:TrackPointExtension>
        </extensions>
      </trkpt>
      <trkpt lat="36.8715198151767253875732421875" lon="-118.45253854058682918548583984375">
        <ele>2565.800048828125</ele>
        <time>2021-06-28T00:48:10.000Z</time>
        <extensions>
          <ns3:TrackPointExtension>
            <ns3:atemp>32.0</ns3:atemp>
            <ns3:hr>94</ns3:hr>
          </ns3:TrackPointExtension>
        </extensions>
      </trkpt>
      <trkpt lat="36.87150858342647552490234375" lon="-118.452599309384822845458984375">
        <ele>2565.60009765625</ele>
        <time>2021-06-28T00:48:16.000Z</time>
        <extensions>
          <ns3:TrackPointExtension>
            <ns3:atemp>32.0</ns3:atemp>
            <ns3:hr>94</ns3:hr>
          </ns3:TrackPointExtension>
        </extensions>
      </trkpt>
      <trkpt lat="36.87151738442480564117431640625" lon="-118.4527017362415790557861328125">
        <ele>2565.199951171875</ele>
        <time>2021-06-28T00:48:24.000Z</time>
        <extensions>
          <ns3:TrackPointExtension>
            <ns3:atemp>32.0</ns3:atemp>
            <ns3:hr>96</ns3:hr>
          </ns3:TrackPointExtension>
        </extensions>
      </trkpt>
      <trkpt lat="36.87152459286153316497802734375" lon="-118.4527164883911609649658203125">
        <ele>2565</ele>
        <time>2021-06-28T00:48:25.000Z</time>
        <extensions>
          <ns3:TrackPointExtension>
            <ns3:atemp>32.0</ns3:atemp>
            <ns3:hr>96</ns3:hr>
          </ns3:TrackPointExtension>
        </extensions>
      </trkpt>
      <trkpt lat="36.871557533740997314453125" lon="-118.452754877507686614990234375">
        <ele>2564.800048828125</ele>
        <time>2021-06-28T00:48:28.000Z</time>
        <extensions>
          <ns3:TrackPointExtension>
            <ns3:atemp>32.0</ns3:atemp>
            <ns3:hr>93</ns3:hr>
          </ns3:TrackPointExtension>
        </extensions>
      </trkpt>
      <trkpt lat="36.8715707771480083465576171875" lon="-118.4527677856385707855224609375">
        <ele>2564.60009765625</ele>
        <time>2021-06-28T00:48:29.000Z</time>
        <extensions>
          <ns3:TrackPointExtension>
            <ns3:atemp>32.0</ns3:atemp>
            <ns3:hr>92</ns3:hr>
          </ns3:TrackPointExtension>
        </extensions>
      </trkpt>
      <trkpt lat="36.87157253734767436981201171875" lon="-118.4527852199971675872802734375">
        <ele>2564.39990234375</ele>
        <time>2021-06-28T00:48:30.000Z</time>
        <extensions>
          <ns3:TrackPointExtension>
            <ns3:atemp>32.0</ns3:atemp>
            <ns3:hr>92</ns3:hr>
          </ns3:TrackPointExtension>
        </extensions>
      </trkpt>
      <trkpt lat="36.87157773412764072418212890625" lon="-118.45285772345960140228271484375">
        <ele>2564.39990234375</ele>
        <time>2021-06-28T00:48:36.000Z</time>
        <extensions>
          <ns3:TrackPointExtension>
            <ns3:atemp>32.0</ns3:atemp>
            <ns3:hr>90</ns3:hr>
          </ns3:TrackPointExtension>
        </extensions>
      </trkpt>
      <trkpt lat="36.87158963643014430999755859375" lon="-118.4529367648065090179443359375">
        <ele>2564.800048828125</ele>
        <time>2021-06-28T00:48:41.000Z</time>
        <extensions>
          <ns3:TrackPointExtension>
            <ns3:atemp>32.0</ns3:atemp>
            <ns3:hr>87</ns3:hr>
          </ns3:TrackPointExtension>
        </extensions>
      </trkpt>
      <trkpt lat="36.8715945817530155181884765625" lon="-118.45297188498079776763916015625">
        <ele>2564.60009765625</ele>
        <time>2021-06-28T00:48:43.000Z</time>
        <extensions>
          <ns3:TrackPointExtension>
            <ns3:atemp>32.0</ns3:atemp>
            <ns3:hr>86</ns3:hr>
          </ns3:TrackPointExtension>
        </extensions>
      </trkpt>
      <trkpt lat="36.8715965934097766876220703125" lon="-118.45298429019749164581298828125">
        <ele>2564.199951171875</ele>
        <time>2021-06-28T00:48:44.000Z</time>
        <extensions>
          <ns3:TrackPointExtension>
            <ns3:atemp>32.0</ns3:atemp>
            <ns3:hr>86</ns3:hr>
          </ns3:TrackPointExtension>
        </extensions>
      </trkpt>
      <trkpt lat="36.87164294533431529998779296875" lon="-118.4530886448919773101806640625">
        <ele>2565</ele>
        <time>2021-06-28T00:48:51.000Z</time>
        <extensions>
          <ns3:TrackPointExtension>
            <ns3:atemp>32.0</ns3:atemp>
            <ns3:hr>88</ns3:hr>
          </ns3:TrackPointExtension>
        </extensions>
      </trkpt>
      <trkpt lat="36.8716509081423282623291015625" lon="-118.45311270095407962799072265625">
        <ele>2565.199951171875</ele>
        <time>2021-06-28T00:48:53.000Z</time>
        <extensions>
          <ns3:TrackPointExtension>
            <ns3:atemp>32.0</ns3:atemp>
            <ns3:hr>91</ns3:hr>
          </ns3:TrackPointExtension>
        </extensions>
      </trkpt>
      <trkpt lat="36.87166708521544933319091796875" lon="-118.453136421740055084228515625">
        <ele>2565.199951171875</ele>
        <time>2021-06-28T00:48:55.000Z</time>
        <extensions>
          <ns3:TrackPointExtension>
            <ns3:atemp>32.0</ns3:atemp>
            <ns3:hr>94</ns3:hr>
          </ns3:TrackPointExtension>
        </extensions>
      </trkpt>
      <trkpt lat="36.87168820761144161224365234375" lon="-118.45317254774272441864013671875">
        <ele>2565.199951171875</ele>
        <time>2021-06-28T00:48:59.000Z</time>
        <extensions>
          <ns3:TrackPointExtension>
            <ns3:atemp>32.0</ns3:atemp>
            <ns3:hr>99</ns3:hr>
          </ns3:TrackPointExtension>
        </extensions>
      </trkpt>
      <trkpt lat="36.871702708303928375244140625" lon="-118.45327489078044891357421875">
        <ele>2565</ele>
        <time>2021-06-28T00:49:06.000Z</time>
        <extensions>
          <ns3:TrackPointExtension>
            <ns3:atemp>32.0</ns3:atemp>
            <ns3:hr>101</ns3:hr>
          </ns3:TrackPointExtension>
        </extensions>
      </trkpt>
      <trkpt lat="36.87171821482479572296142578125" lon="-118.45337019301950931549072265625">
        <ele>2565.199951171875</ele>
        <time>2021-06-28T00:49:10.000Z</time>
        <extensions>
          <ns3:TrackPointExtension>
            <ns3:atemp>32.0</ns3:atemp>
            <ns3:hr>100</ns3:hr>
          </ns3:TrackPointExtension>
        </extensions>
      </trkpt>
      <trkpt lat="36.8717350624501705169677734375" lon="-118.4533930756151676177978515625">
        <ele>2565.60009765625</ele>
        <time>2021-06-28T00:49:12.000Z</time>
        <extensions>
          <ns3:TrackPointExtension>
            <ns3:atemp>32.0</ns3:atemp>
            <ns3:hr>100</ns3:hr>
          </ns3:TrackPointExtension>
        </extensions>
      </trkpt>
      <trkpt lat="36.87175626866519451141357421875" lon="-118.4534152038395404815673828125">
        <ele>2565.800048828125</ele>
        <time>2021-06-28T00:49:14.000Z</time>
        <extensions>
          <ns3:TrackPointExtension>
            <ns3:atemp>32.0</ns3:atemp>
            <ns3:hr>99</ns3:hr>
          </ns3:TrackPointExtension>
        </extensions>
      </trkpt>
      <trkpt lat="36.8717970885336399078369140625" lon="-118.4534711949527263641357421875">
        <ele>2566.39990234375</ele>
        <time>2021-06-28T00:49:19.000Z</time>
        <extensions>
          <ns3:TrackPointExtension>
            <ns3:atemp>32.0</ns3:atemp>
            <ns3:hr>100</ns3:hr>
          </ns3:TrackPointExtension>
        </extensions>
      </trkpt>
      <trkpt lat="36.87180253677070140838623046875" lon="-118.453481085598468780517578125">
        <ele>2566.60009765625</ele>
        <time>2021-06-28T00:49:20.000Z</time>
        <extensions>
          <ns3:TrackPointExtension>
            <ns3:atemp>32.0</ns3:atemp>
            <ns3:hr>100</ns3:hr>
          </ns3:TrackPointExtension>
        </extensions>
      </trkpt>
      <trkpt lat="36.871816702187061309814453125" lon="-118.45349659211933612823486328125">
        <ele>2566.800048828125</ele>
        <time>2021-06-28T00:49:21.000Z</time>
        <extensions>
          <ns3:TrackPointExtension>
            <ns3:atemp>32.0</ns3:atemp>
            <ns3:hr>102</ns3:hr>
          </ns3:TrackPointExtension>
        </extensions>
      </trkpt>
      <trkpt lat="36.87185115180909633636474609375" lon="-118.45349893905222415924072265625">
        <ele>2567</ele>
        <time>2021-06-28T00:49:23.000Z</time>
        <extensions>
          <ns3:TrackPointExtension>
            <ns3:atemp>32.0</ns3:atemp>
            <ns3:hr>102</ns3:hr>
          </ns3:TrackPointExtension>
        </extensions>
      </trkpt>
      <trkpt lat="36.8718859367072582244873046875" lon="-118.45350597985088825225830078125">
        <ele>2567.199951171875</ele>
        <time>2021-06-28T00:49:26.000Z</time>
        <extensions>
          <ns3:TrackPointExtension>
            <ns3:atemp>32.0</ns3:atemp>
            <ns3:hr>105</ns3:hr>
          </ns3:TrackPointExtension>
        </extensions>
      </trkpt>
      <trkpt lat="36.87190848402678966522216796875" lon="-118.4535183012485504150390625">
        <ele>2567.199951171875</ele>
        <time>2021-06-28T00:49:28.000Z</time>
        <extensions>
          <ns3:TrackPointExtension>
            <ns3:atemp>32.0</ns3:atemp>
            <ns3:hr>108</ns3:hr>
          </ns3:TrackPointExtension>
        </extensions>
      </trkpt>
      <trkpt lat="36.871937401592731475830078125" lon="-118.45354772172868251800537109375">
        <ele>2567.39990234375</ele>
        <time>2021-06-28T00:49:32.000Z</time>
        <extensions>
          <ns3:TrackPointExtension>
            <ns3:atemp>32.0</ns3:atemp>
            <ns3:hr>110</ns3:hr>
          </ns3:TrackPointExtension>
        </extensions>
      </trkpt>
      <trkpt lat="36.8719533272087574005126953125" lon="-118.45355459488928318023681640625">
        <ele>2567.60009765625</ele>
        <time>2021-06-28T00:49:36.000Z</time>
        <extensions>
          <ns3:TrackPointExtension>
            <ns3:atemp>32.0</ns3:atemp>
            <ns3:hr>111</ns3:hr>
          </ns3:TrackPointExtension>
        </extensions>
      </trkpt>
      <trkpt lat="36.87195894308388233184814453125" lon="-118.4535674192011356353759765625">
        <ele>2567.800048828125</ele>
        <time>2021-06-28T00:49:38.000Z</time>
        <extensions>
          <ns3:TrackPointExtension>
            <ns3:atemp>32.0</ns3:atemp>
            <ns3:hr>111</ns3:hr>
          </ns3:TrackPointExtension>
        </extensions>
      </trkpt>
      <trkpt lat="36.871970929205417633056640625" lon="-118.45358460210263729095458984375">
        <ele>2568</ele>
        <time>2021-06-28T00:49:40.000Z</time>
        <extensions>
          <ns3:TrackPointExtension>
            <ns3:atemp>32.0</ns3:atemp>
            <ns3:hr>111</ns3:hr>
          </ns3:TrackPointExtension>
        </extensions>
      </trkpt>
      <trkpt lat="36.87203052453696727752685546875" lon="-118.45365199260413646697998046875">
        <ele>2568.39990234375</ele>
        <time>2021-06-28T00:49:48.000Z</time>
        <extensions>
          <ns3:TrackPointExtension>
            <ns3:atemp>32.0</ns3:atemp>
            <ns3:hr>111</ns3:hr>
          </ns3:TrackPointExtension>
        </extensions>
      </trkpt>
      <trkpt lat="36.8720488809049129486083984375" lon="-118.45367453992366790771484375">
        <ele>2568.800048828125</ele>
        <time>2021-06-28T00:49:50.000Z</time>
        <extensions>
          <ns3:TrackPointExtension>
            <ns3:atemp>32.0</ns3:atemp>
            <ns3:hr>111</ns3:hr>
          </ns3:TrackPointExtension>
        </extensions>
      </trkpt>
      <trkpt lat="36.8720431812107563018798828125" lon="-118.45369054935872554779052734375">
        <ele>2568.800048828125</ele>
        <time>2021-06-28T00:49:51.000Z</time>
        <extensions>
          <ns3:TrackPointExtension>
            <ns3:atemp>32.0</ns3:atemp>
            <ns3:hr>111</ns3:hr>
          </ns3:TrackPointExtension>
        </extensions>
      </trkpt>
      <trkpt lat="36.87204728834331035614013671875" lon="-118.453701697289943695068359375">
        <ele>2569</ele>
        <time>2021-06-28T00:49:53.000Z</time>
        <extensions>
          <ns3:TrackPointExtension>
            <ns3:atemp>32.0</ns3:atemp>
            <ns3:hr>110</ns3:hr>
          </ns3:TrackPointExtension>
        </extensions>
      </trkpt>
      <trkpt lat="36.8720803968608379364013671875" lon="-118.45373162068426609039306640625">
        <ele>2570</ele>
        <time>2021-06-28T00:49:57.000Z</time>
        <extensions>
          <ns3:TrackPointExtension>
            <ns3:atemp>32.0</ns3:atemp>
            <ns3:hr>108</ns3:hr>
          </ns3:TrackPointExtension>
        </extensions>
      </trkpt>
      <trkpt lat="36.87210939824581146240234375" lon="-118.45375257544219493865966796875">
        <ele>2570.199951171875</ele>
        <time>2021-06-28T00:50:00.000Z</time>
        <extensions>
          <ns3:TrackPointExtension>
            <ns3:atemp>32.0</ns3:atemp>
            <ns3:hr>108</ns3:hr>
          </ns3:TrackPointExtension>
        </extensions>
      </trkpt>
      <trkpt lat="36.87212624587118625640869140625" lon="-118.45378006808459758758544921875">
        <ele>2570.800048828125</ele>
        <time>2021-06-28T00:50:03.000Z</time>
        <extensions>
          <ns3:TrackPointExtension>
            <ns3:atemp>32.0</ns3:atemp>
            <ns3:hr>104</ns3:hr>
          </ns3:TrackPointExtension>
        </extensions>
      </trkpt>
      <trkpt lat="36.8721343763172626495361328125" lon="-118.45378107391297817230224609375">
        <ele>2570.800048828125</ele>
        <time>2021-06-28T00:50:04.000Z</time>
        <extensions>
          <ns3:TrackPointExtension>
            <ns3:atemp>32.0</ns3:atemp>
            <ns3:hr>109</ns3:hr>
          </ns3:TrackPointExtension>
        </extensions>
      </trkpt>
      <trkpt lat="36.8721444346010684967041015625" lon="-118.4537786431610584259033203125">
        <ele>2570.60009765625</ele>
        <time>2021-06-28T00:50:06.000Z</time>
        <extensions>
          <ns3:TrackPointExtension>
            <ns3:atemp>32.0</ns3:atemp>
            <ns3:hr>111</ns3:hr>
          </ns3:TrackPointExtension>
        </extensions>
      </trkpt>
      <trkpt lat="36.87214653007686138153076171875" lon="-118.45377570949494838714599609375">
        <ele>2570.39990234375</ele>
        <time>2021-06-28T00:50:07.000Z</time>
        <extensions>
          <ns3:TrackPointExtension>
            <ns3:atemp>32.0</ns3:atemp>
            <ns3:hr>112</ns3:hr>
          </ns3:TrackPointExtension>
        </extensions>
      </trkpt>
      <trkpt lat="36.87210428528487682342529296875" lon="-118.45374117605388164520263671875">
        <ele>2570.39990234375</ele>
        <time>2021-06-28T00:50:12.000Z</time>
        <extensions>
          <ns3:TrackPointExtension>
            <ns3:atemp>32.0</ns3:atemp>
            <ns3:hr>113</ns3:hr>
          </ns3:TrackPointExtension>
        </extensions>
      </trkpt>
      <trkpt lat="36.8721031956374645233154296875" lon="-118.45375911332666873931884765625">
        <ele>2570.39990234375</ele>
        <time>2021-06-28T00:50:14.000Z</time>
        <extensions>
          <ns3:TrackPointExtension>
            <ns3:atemp>32.0</ns3:atemp>
            <ns3:hr>113</ns3:hr>
          </ns3:TrackPointExtension>
        </extensions>
      </trkpt>
      <trkpt lat="36.87209657393395900726318359375" lon="-118.453795574605464935302734375">
        <ele>2570.39990234375</ele>
        <time>2021-06-28T00:50:18.000Z</time>
        <extensions>
          <ns3:TrackPointExtension>
            <ns3:atemp>32.0</ns3:atemp>
            <ns3:hr>113</ns3:hr>
          </ns3:TrackPointExtension>
        </extensions>
      </trkpt>
      <trkpt lat="36.87209196388721466064453125" lon="-118.45386371947824954986572265625">
        <ele>2569.39990234375</ele>
        <time>2021-06-28T00:50:25.000Z</time>
        <extensions>
          <ns3:TrackPointExtension>
            <ns3:atemp>32.0</ns3:atemp>
            <ns3:hr>110</ns3:hr>
          </ns3:TrackPointExtension>
        </extensions>
      </trkpt>
      <trkpt lat="36.872084252536296844482421875" lon="-118.45387428067624568939208984375">
        <ele>2568.800048828125</ele>
        <time>2021-06-28T00:50:26.000Z</time>
        <extensions>
          <ns3:TrackPointExtension>
            <ns3:atemp>32.0</ns3:atemp>
            <ns3:hr>109</ns3:hr>
          </ns3:TrackPointExtension>
        </extensions>
      </trkpt>
      <trkpt lat="36.8720582686364650726318359375" lon="-118.453929685056209564208984375">
        <ele>2568.60009765625</ele>
        <time>2021-06-28T00:50:31.000Z</time>
        <extensions>
          <ns3:TrackPointExtension>
            <ns3:atemp>32.0</ns3:atemp>
            <ns3:hr>109</ns3:hr>
          </ns3:TrackPointExtension>
        </extensions>
      </trkpt>
      <trkpt lat="36.87206170521676540374755859375" lon="-118.4539667330682277679443359375">
        <ele>2568.39990234375</ele>
        <time>2021-06-28T00:50:32.000Z</time>
        <extensions>
          <ns3:TrackPointExtension>
            <ns3:atemp>32.0</ns3:atemp>
            <ns3:hr>110</ns3:hr>
          </ns3:TrackPointExtension>
        </extensions>
      </trkpt>
      <trkpt lat="36.87208416871726512908935546875" lon="-118.45406538806855678558349609375">
        <ele>2568.199951171875</ele>
        <time>2021-06-28T00:50:38.000Z</time>
        <extensions>
          <ns3:TrackPointExtension>
            <ns3:atemp>32.0</ns3:atemp>
            <ns3:hr>108</ns3:hr>
          </ns3:TrackPointExtension>
        </extensions>
      </trkpt>
      <trkpt lat="36.8720899522304534912109375" lon="-118.45407779328525066375732421875">
        <ele>2567.800048828125</ele>
        <time>2021-06-28T00:50:39.000Z</time>
        <extensions>
          <ns3:TrackPointExtension>
            <ns3:atemp>32.0</ns3:atemp>
            <ns3:hr>108</ns3:hr>
          </ns3:TrackPointExtension>
        </extensions>
      </trkpt>
      <trkpt lat="36.87209330499172210693359375" lon="-118.4540877677500247955322265625">
        <ele>2567.800048828125</ele>
        <time>2021-06-28T00:50:40.000Z</time>
        <extensions>
          <ns3:TrackPointExtension>
            <ns3:atemp>32.0</ns3:atemp>
            <ns3:hr>107</ns3:hr>
          </ns3:TrackPointExtension>
        </extensions>
      </trkpt>
      <trkpt lat="36.87209003604948520660400390625" lon="-118.45411232672631740570068359375">
        <ele>2567.199951171875</ele>
        <time>2021-06-28T00:50:42.000Z</time>
        <extensions>
          <ns3:TrackPointExtension>
            <ns3:atemp>32.0</ns3:atemp>
            <ns3:hr>105</ns3:hr>
          </ns3:TrackPointExtension>
        </extensions>
      </trkpt>
      <trkpt lat="36.87208257615566253662109375" lon="-118.4541484527289867401123046875">
        <ele>2567</ele>
        <time>2021-06-28T00:50:46.000Z</time>
        <extensions>
          <ns3:TrackPointExtension>
            <ns3:atemp>32.0</ns3:atemp>
            <ns3:hr>102</ns3:hr>
          </ns3:TrackPointExtension>
        </extensions>
      </trkpt>
      <trkpt lat="36.872078888118267059326171875" lon="-118.45415172167122364044189453125">
        <ele>2566.800048828125</ele>
        <time>2021-06-28T00:50:47.000Z</time>
        <extensions>
          <ns3:TrackPointExtension>
            <ns3:atemp>32.0</ns3:atemp>
            <ns3:hr>102</ns3:hr>
          </ns3:TrackPointExtension>
        </extensions>
      </trkpt>
      <trkpt lat="36.87206421978771686553955078125" lon="-118.4541853331029415130615234375">
        <ele>2566</ele>
        <time>2021-06-28T00:50:52.000Z</time>
        <extensions>
          <ns3:TrackPointExtension>
            <ns3:atemp>32.0</ns3:atemp>
            <ns3:hr>103</ns3:hr>
          </ns3:TrackPointExtension>
        </extensions>
      </trkpt>
      <trkpt lat="36.872054748237133026123046875" lon="-118.45420553348958492279052734375">
        <ele>2565.60009765625</ele>
        <time>2021-06-28T00:50:54.000Z</time>
        <extensions>
          <ns3:TrackPointExtension>
            <ns3:atemp>32.0</ns3:atemp>
            <ns3:hr>103</ns3:hr>
          </ns3:TrackPointExtension>
        </extensions>
      </trkpt>
      <trkpt lat="36.8720445223152637481689453125" lon="-118.45424844883382320404052734375">
        <ele>2564.800048828125</ele>
        <time>2021-06-28T00:50:57.000Z</time>
        <extensions>
          <ns3:TrackPointExtension>
            <ns3:atemp>32.0</ns3:atemp>
            <ns3:hr>103</ns3:hr>
          </ns3:TrackPointExtension>
        </extensions>
      </trkpt>
      <trkpt lat="36.87204125337302684783935546875" lon="-118.45431013964116573333740234375">
        <ele>2564.199951171875</ele>
        <time>2021-06-28T00:51:00.000Z</time>
        <extensions>
          <ns3:TrackPointExtension>
            <ns3:atemp>32.0</ns3:atemp>
            <ns3:hr>106</ns3:hr>
          </ns3:TrackPointExtension>
        </extensions>
      </trkpt>
      <trkpt lat="36.87204712070524692535400390625" lon="-118.4543486125767230987548828125">
        <ele>2564</ele>
        <time>2021-06-28T00:51:02.000Z</time>
        <extensions>
          <ns3:TrackPointExtension>
            <ns3:atemp>32.0</ns3:atemp>
            <ns3:hr>106</ns3:hr>
          </ns3:TrackPointExtension>
        </extensions>
      </trkpt>
      <trkpt lat="36.87204913236200809478759765625" lon="-118.4543730877339839935302734375">
        <ele>2563.800048828125</ele>
        <time>2021-06-28T00:51:04.000Z</time>
        <extensions>
          <ns3:TrackPointExtension>
            <ns3:atemp>32.0</ns3:atemp>
            <ns3:hr>106</ns3:hr>
          </ns3:TrackPointExtension>
        </extensions>
      </trkpt>
      <trkpt lat="36.87203538604080677032470703125" lon="-118.4543980658054351806640625">
        <ele>2563.199951171875</ele>
        <time>2021-06-28T00:51:06.000Z</time>
        <extensions>
          <ns3:TrackPointExtension>
            <ns3:atemp>32.0</ns3:atemp>
            <ns3:hr>106</ns3:hr>
          </ns3:TrackPointExtension>
        </extensions>
      </trkpt>
      <trkpt lat="36.87200906686484813690185546875" lon="-118.454416505992412567138671875">
        <ele>2562.800048828125</ele>
        <time>2021-06-28T00:51:09.000Z</time>
        <extensions>
          <ns3:TrackPointExtension>
            <ns3:atemp>32.0</ns3:atemp>
            <ns3:hr>106</ns3:hr>
          </ns3:TrackPointExtension>
        </extensions>
      </trkpt>
      <trkpt lat="36.8719992600381374359130859375" lon="-118.45442245714366436004638671875">
        <ele>2562.800048828125</ele>
        <time>2021-06-28T00:51:10.000Z</time>
        <extensions>
          <ns3:TrackPointExtension>
            <ns3:atemp>32.0</ns3:atemp>
            <ns3:hr>103</ns3:hr>
          </ns3:TrackPointExtension>
        </extensions>
      </trkpt>
      <trkpt lat="36.87199314124882221221923828125" lon="-118.4544287435710430145263671875">
        <ele>2562.60009765625</ele>
        <time>2021-06-28T00:51:11.000Z</time>
        <extensions>
          <ns3:TrackPointExtension>
            <ns3:atemp>32.0</ns3:atemp>
            <ns3:hr>106</ns3:hr>
          </ns3:TrackPointExtension>
        </extensions>
      </trkpt>
      <trkpt lat="36.87197956256568431854248046875" lon="-118.4544503688812255859375">
        <ele>2562.39990234375</ele>
        <time>2021-06-28T00:51:13.000Z</time>
        <extensions>
          <ns3:TrackPointExtension>
            <ns3:atemp>32.0</ns3:atemp>
            <ns3:hr>105</ns3:hr>
          </ns3:TrackPointExtension>
        </extensions>
      </trkpt>
      <trkpt lat="36.87196598388254642486572265625" lon="-118.4544946253299713134765625">
        <ele>2562</ele>
        <time>2021-06-28T00:51:17.000Z</time>
        <extensions>
          <ns3:TrackPointExtension>
            <ns3:atemp>32.0</ns3:atemp>
            <ns3:hr>103</ns3:hr>
          </ns3:TrackPointExtension>
        </extensions>
      </trkpt>
      <trkpt lat="36.87195944599807262420654296875" lon="-118.45451080240309238433837890625">
        <ele>2562</ele>
        <time>2021-06-28T00:51:18.000Z</time>
        <extensions>
          <ns3:TrackPointExtension>
            <ns3:atemp>32.0</ns3:atemp>
            <ns3:hr>100</ns3:hr>
          </ns3:TrackPointExtension>
        </extensions>
      </trkpt>
      <trkpt lat="36.87195709906518459320068359375" lon="-118.4545424021780490875244140625">
        <ele>2562</ele>
        <time>2021-06-28T00:51:20.000Z</time>
        <extensions>
          <ns3:TrackPointExtension>
            <ns3:atemp>32.0</ns3:atemp>
            <ns3:hr>96</ns3:hr>
          </ns3:TrackPointExtension>
        </extensions>
      </trkpt>
      <trkpt lat="36.87195743434131145477294921875" lon="-118.454571403563022613525390625">
        <ele>2562</ele>
        <time>2021-06-28T00:51:22.000Z</time>
        <extensions>
          <ns3:TrackPointExtension>
            <ns3:atemp>32.0</ns3:atemp>
            <ns3:hr>92</ns3:hr>
          </ns3:TrackPointExtension>
        </extensions>
      </trkpt>
      <trkpt lat="36.87197302468121051788330078125" lon="-118.45464524812996387481689453125">
        <ele>2561.60009765625</ele>
        <time>2021-06-28T00:51:26.000Z</time>
        <extensions>
          <ns3:TrackPointExtension>
            <ns3:atemp>32.0</ns3:atemp>
            <ns3:hr>90</ns3:hr>
          </ns3:TrackPointExtension>
        </extensions>
      </trkpt>
      <trkpt lat="36.8719764612615108489990234375" lon="-118.4546577371656894683837890625">
        <ele>2561.60009765625</ele>
        <time>2021-06-28T00:51:27.000Z</time>
        <extensions>
          <ns3:TrackPointExtension>
            <ns3:atemp>32.0</ns3:atemp>
            <ns3:hr>89</ns3:hr>
          </ns3:TrackPointExtension>
        </extensions>
      </trkpt>
      <trkpt lat="36.87196983955800533294677734375" lon="-118.454737700521945953369140625">
        <ele>2561.60009765625</ele>
        <time>2021-06-28T00:51:33.000Z</time>
        <extensions>
          <ns3:TrackPointExtension>
            <ns3:atemp>32.0</ns3:atemp>
            <ns3:hr>86</ns3:hr>
          </ns3:TrackPointExtension>
        </extensions>
      </trkpt>
      <trkpt lat="36.87195458449423313140869140625" lon="-118.45477156341075897216796875">
        <ele>2561</ele>
        <time>2021-06-28T00:51:35.000Z</time>
        <extensions>
          <ns3:TrackPointExtension>
            <ns3:atemp>32.0</ns3:atemp>
            <ns3:hr>83</ns3:hr>
          </ns3:TrackPointExtension>
        </extensions>
      </trkpt>
      <trkpt lat="36.871949136257171630859375" lon="-118.45478254370391368865966796875">
        <ele>2561</ele>
        <time>2021-06-28T00:51:36.000Z</time>
        <extensions>
          <ns3:TrackPointExtension>
            <ns3:atemp>32.0</ns3:atemp>
            <ns3:hr>81</ns3:hr>
          </ns3:TrackPointExtension>
        </extensions>
      </trkpt>
      <trkpt lat="36.871942766010761260986328125" lon="-118.4547881595790386199951171875">
        <ele>2560.800048828125</ele>
        <time>2021-06-28T00:51:37.000Z</time>
        <extensions>
          <ns3:TrackPointExtension>
            <ns3:atemp>32.0</ns3:atemp>
            <ns3:hr>80</ns3:hr>
          </ns3:TrackPointExtension>
        </extensions>
      </trkpt>
      <trkpt lat="36.8719583563506603240966796875" lon="-118.45487977378070354461669921875">
        <ele>2560.800048828125</ele>
        <time>2021-06-28T00:51:43.000Z</time>
        <extensions>
          <ns3:TrackPointExtension>
            <ns3:atemp>32.0</ns3:atemp>
            <ns3:hr>79</ns3:hr>
          </ns3:TrackPointExtension>
        </extensions>
      </trkpt>
      <trkpt lat="36.87196631915867328643798828125" lon="-118.45490424893796443939208984375">
        <ele>2561</ele>
        <time>2021-06-28T00:51:45.000Z</time>
        <extensions>
          <ns3:TrackPointExtension>
            <ns3:atemp>32.0</ns3:atemp>
            <ns3:hr>79</ns3:hr>
          </ns3:TrackPointExtension>
        </extensions>
      </trkpt>
      <trkpt lat="36.871966235339641571044921875" lon="-118.45496065914630889892578125">
        <ele>2561.39990234375</ele>
        <time>2021-06-28T00:51:49.000Z</time>
        <extensions>
          <ns3:TrackPointExtension>
            <ns3:atemp>31.0</ns3:atemp>
            <ns3:hr>81</ns3:hr>
          </ns3:TrackPointExtension>
        </extensions>
      </trkpt>
      <trkpt lat="36.871964894235134124755859375" lon="-118.4549728967249393463134765625">
        <ele>2561.39990234375</ele>
        <time>2021-06-28T00:51:50.000Z</time>
        <extensions>
          <ns3:TrackPointExtension>
            <ns3:atemp>31.0</ns3:atemp>
            <ns3:hr>81</ns3:hr>
          </ns3:TrackPointExtension>
        </extensions>
      </trkpt>
      <trkpt lat="36.8719375692307949066162109375" lon="-118.45506191253662109375">
        <ele>2560.60009765625</ele>
        <time>2021-06-28T00:51:58.000Z</time>
        <extensions>
          <ns3:TrackPointExtension>
            <ns3:atemp>31.0</ns3:atemp>
            <ns3:hr>83</ns3:hr>
          </ns3:TrackPointExtension>
        </extensions>
      </trkpt>
      <trkpt lat="36.87194318510591983795166015625" lon="-118.45507540740072727203369140625">
        <ele>2560.199951171875</ele>
        <time>2021-06-28T00:51:59.000Z</time>
        <extensions>
          <ns3:TrackPointExtension>
            <ns3:atemp>31.0</ns3:atemp>
            <ns3:hr>83</ns3:hr>
          </ns3:TrackPointExtension>
        </extensions>
      </trkpt>
      <trkpt lat="36.87194201163947582244873046875" lon="-118.455091081559658050537109375">
        <ele>2560.199951171875</ele>
        <time>2021-06-28T00:52:01.000Z</time>
        <extensions>
          <ns3:TrackPointExtension>
            <ns3:atemp>31.0</ns3:atemp>
            <ns3:hr>84</ns3:hr>
          </ns3:TrackPointExtension>
        </extensions>
      </trkpt>
      <trkpt lat="36.871935389935970306396484375" lon="-118.45510591752827167510986328125">
        <ele>2560</ele>
        <time>2021-06-28T00:52:04.000Z</time>
        <extensions>
          <ns3:TrackPointExtension>
            <ns3:atemp>31.0</ns3:atemp>
            <ns3:hr>85</ns3:hr>
          </ns3:TrackPointExtension>
        </extensions>
      </trkpt>
      <trkpt lat="36.87193044461309909820556640625" lon="-118.45519828610122203826904296875">
        <ele>2560.199951171875</ele>
        <time>2021-06-28T00:52:11.000Z</time>
        <extensions>
          <ns3:TrackPointExtension>
            <ns3:atemp>31.0</ns3:atemp>
            <ns3:hr>84</ns3:hr>
          </ns3:TrackPointExtension>
        </extensions>
      </trkpt>
      <trkpt lat="36.8719298578798770904541015625" lon="-118.45522427000105381011962890625">
        <ele>2559.800048828125</ele>
        <time>2021-06-28T00:52:13.000Z</time>
        <extensions>
          <ns3:TrackPointExtension>
            <ns3:atemp>31.0</ns3:atemp>
            <ns3:hr>85</ns3:hr>
          </ns3:TrackPointExtension>
        </extensions>
      </trkpt>
      <trkpt lat="36.8719140999019145965576171875" lon="-118.45529057085514068603515625">
        <ele>2559.199951171875</ele>
        <time>2021-06-28T00:52:18.000Z</time>
        <extensions>
          <ns3:TrackPointExtension>
            <ns3:atemp>31.0</ns3:atemp>
            <ns3:hr>86</ns3:hr>
          </ns3:TrackPointExtension>
        </extensions>
      </trkpt>
      <trkpt lat="36.8719016946852207183837890625" lon="-118.4553410299122333526611328125">
        <ele>2558.800048828125</ele>
        <time>2021-06-28T00:52:22.000Z</time>
        <extensions>
          <ns3:TrackPointExtension>
            <ns3:atemp>31.0</ns3:atemp>
            <ns3:hr>86</ns3:hr>
          </ns3:TrackPointExtension>
        </extensions>
      </trkpt>
      <trkpt lat="36.87188719399273395538330078125" lon="-118.4553681872785091400146484375">
        <ele>2558.60009765625</ele>
        <time>2021-06-28T00:52:24.000Z</time>
        <extensions>
          <ns3:TrackPointExtension>
            <ns3:atemp>31.0</ns3:atemp>
            <ns3:hr>87</ns3:hr>
          </ns3:TrackPointExtension>
        </extensions>
      </trkpt>
      <trkpt lat="36.87187579460442066192626953125" lon="-118.45538738183677196502685546875">
        <ele>2558.39990234375</ele>
        <time>2021-06-28T00:52:26.000Z</time>
        <extensions>
          <ns3:TrackPointExtension>
            <ns3:atemp>31.0</ns3:atemp>
            <ns3:hr>86</ns3:hr>
          </ns3:TrackPointExtension>
        </extensions>
      </trkpt>
      <trkpt lat="36.8718470446765422821044921875" lon="-118.4554345719516277313232421875">
        <ele>2558</ele>
        <time>2021-06-28T00:52:31.000Z</time>
        <extensions>
          <ns3:TrackPointExtension>
            <ns3:atemp>31.0</ns3:atemp>
            <ns3:hr>85</ns3:hr>
          </ns3:TrackPointExtension>
        </extensions>
      </trkpt>
      <trkpt lat="36.8718512356281280517578125" lon="-118.455459885299205780029296875">
        <ele>2558</ele>
        <time>2021-06-28T00:52:32.000Z</time>
        <extensions>
          <ns3:TrackPointExtension>
            <ns3:atemp>31.0</ns3:atemp>
            <ns3:hr>88</ns3:hr>
          </ns3:TrackPointExtension>
        </extensions>
      </trkpt>
      <trkpt lat="36.87185282818973064422607421875" lon="-118.4554784931242465972900390625">
        <ele>2558</ele>
        <time>2021-06-28T00:52:33.000Z</time>
        <extensions>
          <ns3:TrackPointExtension>
            <ns3:atemp>31.0</ns3:atemp>
            <ns3:hr>85</ns3:hr>
          </ns3:TrackPointExtension>
        </extensions>
      </trkpt>
      <trkpt lat="36.87186188064515590667724609375" lon="-118.4555344842374324798583984375">
        <ele>2557.39990234375</ele>
        <time>2021-06-28T00:52:35.000Z</time>
        <extensions>
          <ns3:TrackPointExtension>
            <ns3:atemp>31.0</ns3:atemp>
            <ns3:hr>84</ns3:hr>
          </ns3:TrackPointExtension>
        </extensions>
      </trkpt>
      <trkpt lat="36.87188409268856048583984375" lon="-118.455667085945606231689453125">
        <ele>2557</ele>
        <time>2021-06-28T00:52:42.000Z</time>
        <extensions>
          <ns3:TrackPointExtension>
            <ns3:atemp>31.0</ns3:atemp>
            <ns3:hr>83</ns3:hr>
          </ns3:TrackPointExtension>
        </extensions>
      </trkpt>
      <trkpt lat="36.8718762136995792388916015625" lon="-118.4557329677045345306396484375">
        <ele>2556.39990234375</ele>
        <time>2021-06-28T00:52:47.000Z</time>
        <extensions>
          <ns3:TrackPointExtension>
            <ns3:atemp>31.0</ns3:atemp>
            <ns3:hr>82</ns3:hr>
          </ns3:TrackPointExtension>
        </extensions>
      </trkpt>
      <trkpt lat="36.87186674214899539947509765625" lon="-118.455769680440425872802734375">
        <ele>2555.60009765625</ele>
        <time>2021-06-28T00:52:50.000Z</time>
        <extensions>
          <ns3:TrackPointExtension>
            <ns3:atemp>31.0</ns3:atemp>
            <ns3:hr>80</ns3:hr>
          </ns3:TrackPointExtension>
        </extensions>
      </trkpt>
      <trkpt lat="36.87187277711927890777587890625" lon="-118.455810248851776123046875">
        <ele>2555.39990234375</ele>
        <time>2021-06-28T00:52:52.000Z</time>
        <extensions>
          <ns3:TrackPointExtension>
            <ns3:atemp>31.0</ns3:atemp>
            <ns3:hr>79</ns3:hr>
          </ns3:TrackPointExtension>
        </extensions>
      </trkpt>
      <trkpt lat="36.87187780626118183135986328125" lon="-118.45582860521972179412841796875">
        <ele>2555.39990234375</ele>
        <time>2021-06-28T00:52:53.000Z</time>
        <extensions>
          <ns3:TrackPointExtension>
            <ns3:atemp>31.0</ns3:atemp>
            <ns3:hr>79</ns3:hr>
          </ns3:TrackPointExtension>
        </extensions>
      </trkpt>
      <trkpt lat="36.8718778900802135467529296875" lon="-118.455873616039752960205078125">
        <ele>2554.199951171875</ele>
        <time>2021-06-28T00:52:57.000Z</time>
        <extensions>
          <ns3:TrackPointExtension>
            <ns3:atemp>31.0</ns3:atemp>
            <ns3:hr>80</ns3:hr>
          </ns3:TrackPointExtension>
        </extensions>
      </trkpt>
      <trkpt lat="36.87187068164348602294921875" lon="-118.45592164434492588043212890625">
        <ele>2553.800048828125</ele>
        <time>2021-06-28T00:53:01.000Z</time>
        <extensions>
          <ns3:TrackPointExtension>
            <ns3:atemp>31.0</ns3:atemp>
            <ns3:hr>81</ns3:hr>
          </ns3:TrackPointExtension>
        </extensions>
      </trkpt>
      <trkpt lat="36.87186070717871189117431640625" lon="-118.45595768652856349945068359375">
        <ele>2553.39990234375</ele>
        <time>2021-06-28T00:53:04.000Z</time>
        <extensions>
          <ns3:TrackPointExtension>
            <ns3:atemp>31.0</ns3:atemp>
            <ns3:hr>80</ns3:hr>
          </ns3:TrackPointExtension>
        </extensions>
      </trkpt>
      <trkpt lat="36.871852912008762359619140625" lon="-118.4559954889118671417236328125">
        <ele>2553.60009765625</ele>
        <time>2021-06-28T00:53:07.000Z</time>
        <extensions>
          <ns3:TrackPointExtension>
            <ns3:atemp>31.0</ns3:atemp>
            <ns3:hr>80</ns3:hr>
          </ns3:TrackPointExtension>
        </extensions>
      </trkpt>
      <trkpt lat="36.87186439521610736846923828125" lon="-118.456088192760944366455078125">
        <ele>2553.39990234375</ele>
        <time>2021-06-28T00:53:13.000Z</time>
        <extensions>
          <ns3:TrackPointExtension>
            <ns3:atemp>31.0</ns3:atemp>
            <ns3:hr>79</ns3:hr>
          </ns3:TrackPointExtension>
        </extensions>
      </trkpt>
      <trkpt lat="36.87192306853830814361572265625" lon="-118.45619958825409412384033203125">
        <ele>2553.199951171875</ele>
        <time>2021-06-28T00:53:21.000Z</time>
        <extensions>
          <ns3:TrackPointExtension>
            <ns3:atemp>31.0</ns3:atemp>
            <ns3:hr>80</ns3:hr>
          </ns3:TrackPointExtension>
        </extensions>
      </trkpt>
      <trkpt lat="36.87193765304982662200927734375" lon="-118.456220962107181549072265625">
        <ele>2553.199951171875</ele>
        <time>2021-06-28T00:53:23.000Z</time>
        <extensions>
          <ns3:TrackPointExtension>
            <ns3:atemp>31.0</ns3:atemp>
            <ns3:hr>80</ns3:hr>
          </ns3:TrackPointExtension>
        </extensions>
      </trkpt>
      <trkpt lat="36.8719451129436492919921875" lon="-118.45623345114290714263916015625">
        <ele>2553.199951171875</ele>
        <time>2021-06-28T00:53:25.000Z</time>
        <extensions>
          <ns3:TrackPointExtension>
            <ns3:atemp>31.0</ns3:atemp>
            <ns3:hr>81</ns3:hr>
          </ns3:TrackPointExtension>
        </extensions>
      </trkpt>
      <trkpt lat="36.87194268219172954559326171875" lon="-118.45625960268080234527587890625">
        <ele>2553.199951171875</ele>
        <time>2021-06-28T00:53:28.000Z</time>
        <extensions>
          <ns3:TrackPointExtension>
            <ns3:atemp>31.0</ns3:atemp>
            <ns3:hr>82</ns3:hr>
          </ns3:TrackPointExtension>
        </extensions>
      </trkpt>
      <trkpt lat="36.8719519861042499542236328125" lon="-118.45626513473689556121826171875">
        <ele>2553.199951171875</ele>
        <time>2021-06-28T00:53:30.000Z</time>
        <extensions>
          <ns3:TrackPointExtension>
            <ns3:atemp>31.0</ns3:atemp>
            <ns3:hr>82</ns3:hr>
          </ns3:TrackPointExtension>
        </extensions>
      </trkpt>
      <trkpt lat="36.87195919454097747802734375" lon="-118.45626689493656158447265625">
        <ele>2553.199951171875</ele>
        <time>2021-06-28T00:53:33.000Z</time>
        <extensions>
          <ns3:TrackPointExtension>
            <ns3:atemp>32.0</ns3:atemp>
            <ns3:hr>85</ns3:hr>
          </ns3:TrackPointExtension>
        </extensions>
      </trkpt>
      <trkpt lat="36.87195927836000919342041015625" lon="-118.45626245252788066864013671875">
        <ele>2553.199951171875</ele>
        <time>2021-06-28T00:53:35.000Z</time>
        <extensions>
          <ns3:TrackPointExtension>
            <ns3:atemp>32.0</ns3:atemp>
            <ns3:hr>88</ns3:hr>
          </ns3:TrackPointExtension>
        </extensions>
      </trkpt>
      <trkpt lat="36.87196380458772182464599609375" lon="-118.4562496282160282135009765625">
        <ele>2553.199951171875</ele>
        <time>2021-06-28T00:53:38.000Z</time>
        <extensions>
          <ns3:TrackPointExtension>
            <ns3:atemp>32.0</ns3:atemp>
            <ns3:hr>91</ns3:hr>
          </ns3:TrackPointExtension>
        </extensions>
      </trkpt>
      <trkpt lat="36.87195559032261371612548828125" lon="-118.4562496282160282135009765625">
        <ele>2552.60009765625</ele>
        <time>2021-06-28T00:53:55.000Z</time>
        <extensions>
          <ns3:TrackPointExtension>
            <ns3:atemp>32.0</ns3:atemp>
            <ns3:hr>92</ns3:hr>
          </ns3:TrackPointExtension>
        </extensions>
      </trkpt>
      <trkpt lat="36.87195223756134510040283203125" lon="-118.4562496282160282135009765625">
        <ele>2552.60009765625</ele>
        <time>2021-06-28T00:54:00.000Z</time>
        <extensions>
          <ns3:TrackPointExtension>
            <ns3:atemp>32.0</ns3:atemp>
            <ns3:hr>95</ns3:hr>
          </ns3:TrackPointExtension>
        </extensions>
      </trkpt>
      <trkpt lat="36.87197989784181118011474609375" lon="-118.4563307650387287139892578125">
        <ele>2553</ele>
        <time>2021-06-28T00:54:21.000Z</time>
        <extensions>
          <ns3:TrackPointExtension>
            <ns3:atemp>32.0</ns3:atemp>
            <ns3:hr>93</ns3:hr>
          </ns3:TrackPointExtension>
        </extensions>
      </trkpt>
      <trkpt lat="36.87198760919272899627685546875" lon="-118.4563663043081760406494140625">
        <ele>2553</ele>
        <time>2021-06-28T00:54:23.000Z</time>
        <extensions>
          <ns3:TrackPointExtension>
            <ns3:atemp>32.0</ns3:atemp>
            <ns3:hr>93</ns3:hr>
          </ns3:TrackPointExtension>
        </extensions>
      </trkpt>
      <trkpt lat="36.8719824962317943572998046875" lon="-118.4564323537051677703857421875">
        <ele>2553</ele>
        <time>2021-06-28T00:54:27.000Z</time>
        <extensions>
          <ns3:TrackPointExtension>
            <ns3:atemp>32.0</ns3:atemp>
            <ns3:hr>94</ns3:hr>
          </ns3:TrackPointExtension>
        </extensions>
      </trkpt>
      <trkpt lat="36.87198090367019176483154296875" lon="-118.4565223753452301025390625">
        <ele>2552.800048828125</ele>
        <time>2021-06-28T00:54:34.000Z</time>
        <extensions>
          <ns3:TrackPointExtension>
            <ns3:atemp>32.0</ns3:atemp>
            <ns3:hr>92</ns3:hr>
          </ns3:TrackPointExtension>
        </extensions>
      </trkpt>
      <trkpt lat="36.8719721026718616485595703125" lon="-118.45657912082970142364501953125">
        <ele>2552.60009765625</ele>
        <time>2021-06-28T00:54:38.000Z</time>
        <extensions>
          <ns3:TrackPointExtension>
            <ns3:atemp>32.0</ns3:atemp>
            <ns3:hr>95</ns3:hr>
          </ns3:TrackPointExtension>
        </extensions>
      </trkpt>
      <trkpt lat="36.87198174186050891876220703125" lon="-118.45662094652652740478515625">
        <ele>2552.39990234375</ele>
        <time>2021-06-28T00:54:41.000Z</time>
        <extensions>
          <ns3:TrackPointExtension>
            <ns3:atemp>32.0</ns3:atemp>
            <ns3:hr>98</ns3:hr>
          </ns3:TrackPointExtension>
        </extensions>
      </trkpt>
      <trkpt lat="36.87199096195399761199951171875" lon="-118.45663276500999927520751953125">
        <ele>2551.800048828125</ele>
        <time>2021-06-28T00:54:42.000Z</time>
        <extensions>
          <ns3:TrackPointExtension>
            <ns3:atemp>32.0</ns3:atemp>
            <ns3:hr>99</ns3:hr>
          </ns3:TrackPointExtension>
        </extensions>
      </trkpt>
      <trkpt lat="36.87200169079005718231201171875" lon="-118.45664315856993198394775390625">
        <ele>2551.60009765625</ele>
        <time>2021-06-28T00:54:43.000Z</time>
        <extensions>
          <ns3:TrackPointExtension>
            <ns3:atemp>32.0</ns3:atemp>
            <ns3:hr>99</ns3:hr>
          </ns3:TrackPointExtension>
        </extensions>
      </trkpt>
      <trkpt lat="36.87202549539506435394287109375" lon="-118.456652797758579254150390625">
        <ele>2551.60009765625</ele>
        <time>2021-06-28T00:54:45.000Z</time>
        <extensions>
          <ns3:TrackPointExtension>
            <ns3:atemp>32.0</ns3:atemp>
            <ns3:hr>102</ns3:hr>
          </ns3:TrackPointExtension>
        </extensions>
      </trkpt>
      <trkpt lat="36.87203404493629932403564453125" lon="-118.45665849745273590087890625">
        <ele>2551.60009765625</ele>
        <time>2021-06-28T00:54:46.000Z</time>
        <extensions>
          <ns3:TrackPointExtension>
            <ns3:atemp>32.0</ns3:atemp>
            <ns3:hr>99</ns3:hr>
          </ns3:TrackPointExtension>
        </extensions>
      </trkpt>
      <trkpt lat="36.872042007744312286376953125" lon="-118.4566620178520679473876953125">
        <ele>2551.60009765625</ele>
        <time>2021-06-28T00:54:47.000Z</time>
        <extensions>
          <ns3:TrackPointExtension>
            <ns3:atemp>32.0</ns3:atemp>
            <ns3:hr>99</ns3:hr>
          </ns3:TrackPointExtension>
        </extensions>
      </trkpt>
      <trkpt lat="36.8720485456287860870361328125" lon="-118.45668791793286800384521484375">
        <ele>2551.60009765625</ele>
        <time>2021-06-28T00:54:50.000Z</time>
        <extensions>
          <ns3:TrackPointExtension>
            <ns3:atemp>32.0</ns3:atemp>
            <ns3:hr>100</ns3:hr>
          </ns3:TrackPointExtension>
        </extensions>
      </trkpt>
      <trkpt lat="36.87212188728153705596923828125" lon="-118.4567964635789394378662109375">
        <ele>2552.199951171875</ele>
        <time>2021-06-28T00:55:00.000Z</time>
        <extensions>
          <ns3:TrackPointExtension>
            <ns3:atemp>32.0</ns3:atemp>
            <ns3:hr>100</ns3:hr>
          </ns3:TrackPointExtension>
        </extensions>
      </trkpt>
      <trkpt lat="36.87217888422310352325439453125" lon="-118.45685589127242565155029296875">
        <ele>2552.60009765625</ele>
        <time>2021-06-28T00:55:07.000Z</time>
        <extensions>
          <ns3:TrackPointExtension>
            <ns3:atemp>32.0</ns3:atemp>
            <ns3:hr>101</ns3:hr>
          </ns3:TrackPointExtension>
        </extensions>
      </trkpt>
      <trkpt lat="36.8721839971840381622314453125" lon="-118.45686678774654865264892578125">
        <ele>2552.60009765625</ele>
        <time>2021-06-28T00:55:08.000Z</time>
        <extensions>
          <ns3:TrackPointExtension>
            <ns3:atemp>32.0</ns3:atemp>
            <ns3:hr>101</ns3:hr>
          </ns3:TrackPointExtension>
        </extensions>
      </trkpt>
      <trkpt lat="36.87218827195465564727783203125" lon="-118.4568755887448787689208984375">
        <ele>2552.60009765625</ele>
        <time>2021-06-28T00:55:09.000Z</time>
        <extensions>
          <ns3:TrackPointExtension>
            <ns3:atemp>32.0</ns3:atemp>
            <ns3:hr>101</ns3:hr>
          </ns3:TrackPointExtension>
        </extensions>
      </trkpt>
      <trkpt lat="36.87220059335231781005859375" lon="-118.45691741444170475006103515625">
        <ele>2552.199951171875</ele>
        <time>2021-06-28T00:55:13.000Z</time>
        <extensions>
          <ns3:TrackPointExtension>
            <ns3:atemp>32.0</ns3:atemp>
            <ns3:hr>102</ns3:hr>
          </ns3:TrackPointExtension>
        </extensions>
      </trkpt>
      <trkpt lat="36.87221534550189971923828125" lon="-118.45695613883435726165771484375">
        <ele>2552.199951171875</ele>
        <time>2021-06-28T00:55:16.000Z</time>
        <extensions>
          <ns3:TrackPointExtension>
            <ns3:atemp>32.0</ns3:atemp>
            <ns3:hr>104</ns3:hr>
          </ns3:TrackPointExtension>
        </extensions>
      </trkpt>
      <trkpt lat="36.8722533993422985076904296875" lon="-118.45703266561031341552734375">
        <ele>2551.39990234375</ele>
        <time>2021-06-28T00:55:22.000Z</time>
        <extensions>
          <ns3:TrackPointExtension>
            <ns3:atemp>32.0</ns3:atemp>
            <ns3:hr>100</ns3:hr>
          </ns3:TrackPointExtension>
        </extensions>
      </trkpt>
      <trkpt lat="36.87225700356066226959228515625" lon="-118.45704607665538787841796875">
        <ele>2551.39990234375</ele>
        <time>2021-06-28T00:55:23.000Z</time>
        <extensions>
          <ns3:TrackPointExtension>
            <ns3:atemp>32.0</ns3:atemp>
            <ns3:hr>99</ns3:hr>
          </ns3:TrackPointExtension>
        </extensions>
      </trkpt>
      <trkpt lat="36.8722674809396266937255859375" lon="-118.45709661953151226043701171875">
        <ele>2550.60009765625</ele>
        <time>2021-06-28T00:55:27.000Z</time>
        <extensions>
          <ns3:TrackPointExtension>
            <ns3:atemp>32.0</ns3:atemp>
            <ns3:hr>97</ns3:hr>
          </ns3:TrackPointExtension>
        </extensions>
      </trkpt>
      <trkpt lat="36.87229170463979244232177734375" lon="-118.45714573748409748077392578125">
        <ele>2550.39990234375</ele>
        <time>2021-06-28T00:55:32.000Z</time>
        <extensions>
          <ns3:TrackPointExtension>
            <ns3:atemp>32.0</ns3:atemp>
            <ns3:hr>94</ns3:hr>
          </ns3:TrackPointExtension>
        </extensions>
      </trkpt>
      <trkpt lat="36.87228634022176265716552734375" lon="-118.45725973136723041534423828125">
        <ele>2549.39990234375</ele>
        <time>2021-06-28T00:55:40.000Z</time>
        <extensions>
          <ns3:TrackPointExtension>
            <ns3:atemp>32.0</ns3:atemp>
            <ns3:hr>96</ns3:hr>
          </ns3:TrackPointExtension>
        </extensions>
      </trkpt>
      <trkpt lat="36.8722956441342830657958984375" lon="-118.45730247907340526580810546875">
        <ele>2548.39990234375</ele>
        <time>2021-06-28T00:55:44.000Z</time>
        <extensions>
          <ns3:TrackPointExtension>
            <ns3:atemp>32.0</ns3:atemp>
            <ns3:hr>99</ns3:hr>
          </ns3:TrackPointExtension>
        </extensions>
      </trkpt>
      <trkpt lat="36.8722926266491413116455078125" lon="-118.45732695423066616058349609375">
        <ele>2548.39990234375</ele>
        <time>2021-06-28T00:55:46.000Z</time>
        <extensions>
          <ns3:TrackPointExtension>
            <ns3:atemp>32.0</ns3:atemp>
            <ns3:hr>98</ns3:hr>
          </ns3:TrackPointExtension>
        </extensions>
      </trkpt>
      <trkpt lat="36.8722993321716785430908203125" lon="-118.457354865968227386474609375">
        <ele>2547.39990234375</ele>
        <time>2021-06-28T00:55:48.000Z</time>
        <extensions>
          <ns3:TrackPointExtension>
            <ns3:atemp>32.0</ns3:atemp>
            <ns3:hr>97</ns3:hr>
          </ns3:TrackPointExtension>
        </extensions>
      </trkpt>
      <trkpt lat="36.87228617258369922637939453125" lon="-118.45739970915019512176513671875">
        <ele>2547</ele>
        <time>2021-06-28T00:55:52.000Z</time>
        <extensions>
          <ns3:TrackPointExtension>
            <ns3:atemp>32.0</ns3:atemp>
            <ns3:hr>94</ns3:hr>
          </ns3:TrackPointExtension>
        </extensions>
      </trkpt>
      <trkpt lat="36.8722922913730144500732421875" lon="-118.45740876160562038421630859375">
        <ele>2546.800048828125</ele>
        <time>2021-06-28T00:55:53.000Z</time>
        <extensions>
          <ns3:TrackPointExtension>
            <ns3:atemp>32.0</ns3:atemp>
            <ns3:hr>93</ns3:hr>
          </ns3:TrackPointExtension>
        </extensions>
      </trkpt>
      <trkpt lat="36.8722993321716785430908203125" lon="-118.45744564197957515716552734375">
        <ele>2546</ele>
        <time>2021-06-28T00:55:56.000Z</time>
        <extensions>
          <ns3:TrackPointExtension>
            <ns3:atemp>32.0</ns3:atemp>
            <ns3:hr>92</ns3:hr>
          </ns3:TrackPointExtension>
        </extensions>
      </trkpt>
      <trkpt lat="36.8722772039473056793212890625" lon="-118.4574599750339984893798828125">
        <ele>2546</ele>
        <time>2021-06-28T00:56:00.000Z</time>
        <extensions>
          <ns3:TrackPointExtension>
            <ns3:atemp>32.0</ns3:atemp>
            <ns3:hr>91</ns3:hr>
          </ns3:TrackPointExtension>
        </extensions>
      </trkpt>
      <trkpt lat="36.87227762304246425628662109375" lon="-118.4574837796390056610107421875">
        <ele>2545.60009765625</ele>
        <time>2021-06-28T00:56:02.000Z</time>
        <extensions>
          <ns3:TrackPointExtension>
            <ns3:atemp>32.0</ns3:atemp>
            <ns3:hr>88</ns3:hr>
          </ns3:TrackPointExtension>
        </extensions>
      </trkpt>
      <trkpt lat="36.872283406555652618408203125" lon="-118.45750364474952220916748046875">
        <ele>2545</ele>
        <time>2021-06-28T00:56:04.000Z</time>
        <extensions>
          <ns3:TrackPointExtension>
            <ns3:atemp>32.0</ns3:atemp>
            <ns3:hr>85</ns3:hr>
          </ns3:TrackPointExtension>
        </extensions>
      </trkpt>
      <trkpt lat="36.8722825683653354644775390625" lon="-118.45753080211579799652099609375">
        <ele>2544.60009765625</ele>
        <time>2021-06-28T00:56:06.000Z</time>
        <extensions>
          <ns3:TrackPointExtension>
            <ns3:atemp>32.0</ns3:atemp>
            <ns3:hr>86</ns3:hr>
          </ns3:TrackPointExtension>
        </extensions>
      </trkpt>
      <trkpt lat="36.872276030480861663818359375" lon="-118.45757556147873401641845703125">
        <ele>2543.60009765625</ele>
        <time>2021-06-28T00:56:10.000Z</time>
        <extensions>
          <ns3:TrackPointExtension>
            <ns3:atemp>32.0</ns3:atemp>
            <ns3:hr>86</ns3:hr>
          </ns3:TrackPointExtension>
        </extensions>
      </trkpt>
      <trkpt lat="36.87227896414697170257568359375" lon="-118.457589559257030487060546875">
        <ele>2543.39990234375</ele>
        <time>2021-06-28T00:56:11.000Z</time>
        <extensions>
          <ns3:TrackPointExtension>
            <ns3:atemp>32.0</ns3:atemp>
            <ns3:hr>86</ns3:hr>
          </ns3:TrackPointExtension>
        </extensions>
      </trkpt>
      <trkpt lat="36.8722842447459697723388671875" lon="-118.4576011262834072113037109375">
        <ele>2543.39990234375</ele>
        <time>2021-06-28T00:56:12.000Z</time>
        <extensions>
          <ns3:TrackPointExtension>
            <ns3:atemp>32.0</ns3:atemp>
            <ns3:hr>91</ns3:hr>
          </ns3:TrackPointExtension>
        </extensions>
      </trkpt>
      <trkpt lat="36.87230494804680347442626953125" lon="-118.4576408565044403076171875">
        <ele>2543.199951171875</ele>
        <time>2021-06-28T00:56:15.000Z</time>
        <extensions>
          <ns3:TrackPointExtension>
            <ns3:atemp>32.0</ns3:atemp>
            <ns3:hr>91</ns3:hr>
          </ns3:TrackPointExtension>
        </extensions>
      </trkpt>
      <trkpt lat="36.87234166078269481658935546875" lon="-118.45770330168306827545166015625">
        <ele>2543.199951171875</ele>
        <time>2021-06-28T00:56:20.000Z</time>
        <extensions>
          <ns3:TrackPointExtension>
            <ns3:atemp>32.0</ns3:atemp>
            <ns3:hr>95</ns3:hr>
          </ns3:TrackPointExtension>
        </extensions>
      </trkpt>
      <trkpt lat="36.8723509646952152252197265625" lon="-118.457728363573551177978515625">
        <ele>2543.199951171875</ele>
        <time>2021-06-28T00:56:22.000Z</time>
        <extensions>
          <ns3:TrackPointExtension>
            <ns3:atemp>32.0</ns3:atemp>
            <ns3:hr>96</ns3:hr>
          </ns3:TrackPointExtension>
        </extensions>
      </trkpt>
      <trkpt lat="36.87237502075731754302978515625" lon="-118.4578851051628589630126953125">
        <ele>2543</ele>
        <time>2021-06-28T00:56:31.000Z</time>
        <extensions>
          <ns3:TrackPointExtension>
            <ns3:atemp>32.0</ns3:atemp>
            <ns3:hr>92</ns3:hr>
          </ns3:TrackPointExtension>
        </extensions>
      </trkpt>
      <trkpt lat="36.87238792888820171356201171875" lon="-118.457915447652339935302734375">
        <ele>2542.60009765625</ele>
        <time>2021-06-28T00:56:33.000Z</time>
        <extensions>
          <ns3:TrackPointExtension>
            <ns3:atemp>32.0</ns3:atemp>
            <ns3:hr>90</ns3:hr>
          </ns3:TrackPointExtension>
        </extensions>
      </trkpt>
      <trkpt lat="36.8723932094871997833251953125" lon="-118.45793413929641246795654296875">
        <ele>2542.60009765625</ele>
        <time>2021-06-28T00:56:34.000Z</time>
        <extensions>
          <ns3:TrackPointExtension>
            <ns3:atemp>32.0</ns3:atemp>
            <ns3:hr>87</ns3:hr>
          </ns3:TrackPointExtension>
        </extensions>
      </trkpt>
      <trkpt lat="36.872407458722591400146484375" lon="-118.45797068439424037933349609375">
        <ele>2542.39990234375</ele>
        <time>2021-06-28T00:56:37.000Z</time>
        <extensions>
          <ns3:TrackPointExtension>
            <ns3:atemp>32.0</ns3:atemp>
            <ns3:hr>87</ns3:hr>
          </ns3:TrackPointExtension>
        </extensions>
      </trkpt>
      <trkpt lat="36.8724186904728412628173828125" lon="-118.45799264498054981231689453125">
        <ele>2542.39990234375</ele>
        <time>2021-06-28T00:56:39.000Z</time>
        <extensions>
          <ns3:TrackPointExtension>
            <ns3:atemp>32.0</ns3:atemp>
            <ns3:hr>87</ns3:hr>
          </ns3:TrackPointExtension>
        </extensions>
      </trkpt>
      <trkpt lat="36.872441656887531280517578125" lon="-118.45800756476819515228271484375">
        <ele>2542.199951171875</ele>
        <time>2021-06-28T00:56:41.000Z</time>
        <extensions>
          <ns3:TrackPointExtension>
            <ns3:atemp>32.0</ns3:atemp>
            <ns3:hr>88</ns3:hr>
          </ns3:TrackPointExtension>
        </extensions>
      </trkpt>
      <trkpt lat="36.87250108458101749420166015625" lon="-118.45808920450508594512939453125">
        <ele>2541.39990234375</ele>
        <time>2021-06-28T00:56:48.000Z</time>
        <extensions>
          <ns3:TrackPointExtension>
            <ns3:atemp>32.0</ns3:atemp>
            <ns3:hr>91</ns3:hr>
          </ns3:TrackPointExtension>
        </extensions>
      </trkpt>
      <trkpt lat="36.87250846065580844879150390625" lon="-118.4581021964550018310546875">
        <ele>2541.199951171875</ele>
        <time>2021-06-28T00:56:49.000Z</time>
        <extensions>
          <ns3:TrackPointExtension>
            <ns3:atemp>32.0</ns3:atemp>
            <ns3:hr>91</ns3:hr>
          </ns3:TrackPointExtension>
        </extensions>
      </trkpt>
      <trkpt lat="36.87251701019704341888427734375" lon="-118.45811535604298114776611328125">
        <ele>2541.199951171875</ele>
        <time>2021-06-28T00:56:50.000Z</time>
        <extensions>
          <ns3:TrackPointExtension>
            <ns3:atemp>32.0</ns3:atemp>
            <ns3:hr>90</ns3:hr>
          </ns3:TrackPointExtension>
        </extensions>
      </trkpt>
      <trkpt lat="36.8725648708641529083251953125" lon="-118.45824795775115489959716796875">
        <ele>2541.199951171875</ele>
        <time>2021-06-28T00:57:00.000Z</time>
        <extensions>
          <ns3:TrackPointExtension>
            <ns3:atemp>32.0</ns3:atemp>
            <ns3:hr>91</ns3:hr>
          </ns3:TrackPointExtension>
        </extensions>
      </trkpt>
      <trkpt lat="36.8725849874317646026611328125" lon="-118.4583283402025699615478515625">
        <ele>2541.60009765625</ele>
        <time>2021-06-28T00:57:06.000Z</time>
        <extensions>
          <ns3:TrackPointExtension>
            <ns3:atemp>32.0</ns3:atemp>
            <ns3:hr>94</ns3:hr>
          </ns3:TrackPointExtension>
        </extensions>
      </trkpt>
      <trkpt lat="36.87260434962809085845947265625" lon="-118.45836748369038105010986328125">
        <ele>2541.60009765625</ele>
        <time>2021-06-28T00:57:09.000Z</time>
        <extensions>
          <ns3:TrackPointExtension>
            <ns3:atemp>32.0</ns3:atemp>
            <ns3:hr>94</ns3:hr>
          </ns3:TrackPointExtension>
        </extensions>
      </trkpt>
      <trkpt lat="36.87262278981506824493408203125" lon="-118.4584671445190906524658203125">
        <ele>2540.800048828125</ele>
        <time>2021-06-28T00:57:16.000Z</time>
        <extensions>
          <ns3:TrackPointExtension>
            <ns3:atemp>32.0</ns3:atemp>
            <ns3:hr>93</ns3:hr>
          </ns3:TrackPointExtension>
        </extensions>
      </trkpt>
      <trkpt lat="36.8726473487913608551025390625" lon="-118.45851902849972248077392578125">
        <ele>2539.800048828125</ele>
        <time>2021-06-28T00:57:20.000Z</time>
        <extensions>
          <ns3:TrackPointExtension>
            <ns3:atemp>33.0</ns3:atemp>
            <ns3:hr>94</ns3:hr>
          </ns3:TrackPointExtension>
        </extensions>
      </trkpt>
      <trkpt lat="36.87266168184578418731689453125" lon="-118.4585502929985523223876953125">
        <ele>2539.199951171875</ele>
        <time>2021-06-28T00:57:23.000Z</time>
        <extensions>
          <ns3:TrackPointExtension>
            <ns3:atemp>33.0</ns3:atemp>
            <ns3:hr>94</ns3:hr>
          </ns3:TrackPointExtension>
        </extensions>
      </trkpt>
      <trkpt lat="36.872671656310558319091796875" lon="-118.4585796296596527099609375">
        <ele>2538.800048828125</ele>
        <time>2021-06-28T00:57:26.000Z</time>
        <extensions>
          <ns3:TrackPointExtension>
            <ns3:atemp>33.0</ns3:atemp>
            <ns3:hr>96</ns3:hr>
          </ns3:TrackPointExtension>
        </extensions>
      </trkpt>
      <trkpt lat="36.87267375178635120391845703125" lon="-118.458588011562824249267578125">
        <ele>2538.800048828125</ele>
        <time>2021-06-28T00:57:27.000Z</time>
        <extensions>
          <ns3:TrackPointExtension>
            <ns3:atemp>33.0</ns3:atemp>
            <ns3:hr>96</ns3:hr>
          </ns3:TrackPointExtension>
        </extensions>
      </trkpt>
      <trkpt lat="36.8726574070751667022705078125" lon="-118.4586183540523052215576171875">
        <ele>2538.199951171875</ele>
        <time>2021-06-28T00:57:31.000Z</time>
        <extensions>
          <ns3:TrackPointExtension>
            <ns3:atemp>33.0</ns3:atemp>
            <ns3:hr>95</ns3:hr>
          </ns3:TrackPointExtension>
        </extensions>
      </trkpt>
      <trkpt lat="36.87264994718134403228759765625" lon="-118.45866554416716098785400390625">
        <ele>2537.60009765625</ele>
        <time>2021-06-28T00:57:34.000Z</time>
        <extensions>
          <ns3:TrackPointExtension>
            <ns3:atemp>33.0</ns3:atemp>
            <ns3:hr>95</ns3:hr>
          </ns3:TrackPointExtension>
        </extensions>
      </trkpt>
      <trkpt lat="36.872656904160976409912109375" lon="-118.45868415199220180511474609375">
        <ele>2537.199951171875</ele>
        <time>2021-06-28T00:57:35.000Z</time>
        <extensions>
          <ns3:TrackPointExtension>
            <ns3:atemp>33.0</ns3:atemp>
            <ns3:hr>95</ns3:hr>
          </ns3:TrackPointExtension>
        </extensions>
      </trkpt>
      <trkpt lat="36.872662603855133056640625" lon="-118.45870477147400379180908203125">
        <ele>2537</ele>
        <time>2021-06-28T00:57:36.000Z</time>
        <extensions>
          <ns3:TrackPointExtension>
            <ns3:atemp>33.0</ns3:atemp>
            <ns3:hr>95</ns3:hr>
          </ns3:TrackPointExtension>
        </extensions>
      </trkpt>
      <trkpt lat="36.872736029326915740966796875" lon="-118.4587732516229152679443359375">
        <ele>2536.60009765625</ele>
        <time>2021-06-28T00:57:45.000Z</time>
        <extensions>
          <ns3:TrackPointExtension>
            <ns3:atemp>33.0</ns3:atemp>
            <ns3:hr>99</ns3:hr>
          </ns3:TrackPointExtension>
        </extensions>
      </trkpt>
      <trkpt lat="36.87275069765746593475341796875" lon="-118.45878020860254764556884765625">
        <ele>2536.60009765625</ele>
        <time>2021-06-28T00:57:46.000Z</time>
        <extensions>
          <ns3:TrackPointExtension>
            <ns3:atemp>33.0</ns3:atemp>
            <ns3:hr>96</ns3:hr>
          </ns3:TrackPointExtension>
        </extensions>
      </trkpt>
      <trkpt lat="36.87275522388517856597900390625" lon="-118.4587839804589748382568359375">
        <ele>2536.60009765625</ele>
        <time>2021-06-28T00:57:47.000Z</time>
        <extensions>
          <ns3:TrackPointExtension>
            <ns3:atemp>33.0</ns3:atemp>
            <ns3:hr>94</ns3:hr>
          </ns3:TrackPointExtension>
        </extensions>
      </trkpt>
      <trkpt lat="36.87275757081806659698486328125" lon="-118.45879211090505123138427734375">
        <ele>2536.39990234375</ele>
        <time>2021-06-28T00:57:48.000Z</time>
        <extensions>
          <ns3:TrackPointExtension>
            <ns3:atemp>33.0</ns3:atemp>
            <ns3:hr>94</ns3:hr>
          </ns3:TrackPointExtension>
        </extensions>
      </trkpt>
      <trkpt lat="36.87278003431856632232666015625" lon="-118.45883469097316265106201171875">
        <ele>2536</ele>
        <time>2021-06-28T00:57:51.000Z</time>
        <extensions>
          <ns3:TrackPointExtension>
            <ns3:atemp>33.0</ns3:atemp>
            <ns3:hr>94</ns3:hr>
          </ns3:TrackPointExtension>
        </extensions>
      </trkpt>
      <trkpt lat="36.8728079460561275482177734375" lon="-118.4588865749537944793701171875">
        <ele>2535.199951171875</ele>
        <time>2021-06-28T00:57:57.000Z</time>
        <extensions>
          <ns3:TrackPointExtension>
            <ns3:atemp>33.0</ns3:atemp>
            <ns3:hr>97</ns3:hr>
          </ns3:TrackPointExtension>
        </extensions>
      </trkpt>
      <trkpt lat="36.87281406484544277191162109375" lon="-118.45890216529369354248046875">
        <ele>2534.60009765625</ele>
        <time>2021-06-28T00:57:58.000Z</time>
        <extensions>
          <ns3:TrackPointExtension>
            <ns3:atemp>33.0</ns3:atemp>
            <ns3:hr>94</ns3:hr>
          </ns3:TrackPointExtension>
        </extensions>
      </trkpt>
      <trkpt lat="36.8727962113916873931884765625" lon="-118.4589556418359279632568359375">
        <ele>2534.39990234375</ele>
        <time>2021-06-28T00:58:02.000Z</time>
        <extensions>
          <ns3:TrackPointExtension>
            <ns3:atemp>33.0</ns3:atemp>
            <ns3:hr>94</ns3:hr>
          </ns3:TrackPointExtension>
        </extensions>
      </trkpt>
      <trkpt lat="36.87278137542307376861572265625" lon="-118.45897433348000049591064453125">
        <ele>2534.39990234375</ele>
        <time>2021-06-28T00:58:04.000Z</time>
        <extensions>
          <ns3:TrackPointExtension>
            <ns3:atemp>33.0</ns3:atemp>
            <ns3:hr>91</ns3:hr>
          </ns3:TrackPointExtension>
        </extensions>
      </trkpt>
      <trkpt lat="36.872782967984676361083984375" lon="-118.459019847214221954345703125">
        <ele>2534.199951171875</ele>
        <time>2021-06-28T00:58:07.000Z</time>
        <extensions>
          <ns3:TrackPointExtension>
            <ns3:atemp>33.0</ns3:atemp>
            <ns3:hr>90</ns3:hr>
          </ns3:TrackPointExtension>
        </extensions>
      </trkpt>
      <trkpt lat="36.87278271652758121490478515625" lon="-118.45903183333575725555419921875">
        <ele>2534.199951171875</ele>
        <time>2021-06-28T00:58:08.000Z</time>
        <extensions>
          <ns3:TrackPointExtension>
            <ns3:atemp>33.0</ns3:atemp>
            <ns3:hr>90</ns3:hr>
          </ns3:TrackPointExtension>
        </extensions>
      </trkpt>
      <trkpt lat="36.8727988936007022857666015625" lon="-118.45910693518817424774169921875">
        <ele>2533.199951171875</ele>
        <time>2021-06-28T00:58:12.000Z</time>
        <extensions>
          <ns3:TrackPointExtension>
            <ns3:atemp>33.0</ns3:atemp>
            <ns3:hr>90</ns3:hr>
          </ns3:TrackPointExtension>
        </extensions>
      </trkpt>
      <trkpt lat="36.87280534766614437103271484375" lon="-118.4591239504516124725341796875">
        <ele>2532.60009765625</ele>
        <time>2021-06-28T00:58:13.000Z</time>
        <extensions>
          <ns3:TrackPointExtension>
            <ns3:atemp>33.0</ns3:atemp>
            <ns3:hr>90</ns3:hr>
          </ns3:TrackPointExtension>
        </extensions>
      </trkpt>
      <trkpt lat="36.87281574122607707977294921875" lon="-118.45913677476346492767333984375">
        <ele>2532.60009765625</ele>
        <time>2021-06-28T00:58:14.000Z</time>
        <extensions>
          <ns3:TrackPointExtension>
            <ns3:atemp>33.0</ns3:atemp>
            <ns3:hr>90</ns3:hr>
          </ns3:TrackPointExtension>
        </extensions>
      </trkpt>
      <trkpt lat="36.8728552199900150299072265625" lon="-118.459203243255615234375">
        <ele>2532.60009765625</ele>
        <time>2021-06-28T00:58:19.000Z</time>
        <extensions>
          <ns3:TrackPointExtension>
            <ns3:atemp>33.0</ns3:atemp>
            <ns3:hr>91</ns3:hr>
          </ns3:TrackPointExtension>
        </extensions>
      </trkpt>
      <trkpt lat="36.87287307344377040863037109375" lon="-118.459236435592174530029296875">
        <ele>2532</ele>
        <time>2021-06-28T00:58:21.000Z</time>
        <extensions>
          <ns3:TrackPointExtension>
            <ns3:atemp>33.0</ns3:atemp>
            <ns3:hr>90</ns3:hr>
          </ns3:TrackPointExtension>
        </extensions>
      </trkpt>
      <trkpt lat="36.872882544994354248046875" lon="-118.45926049165427684783935546875">
        <ele>2531.60009765625</ele>
        <time>2021-06-28T00:58:23.000Z</time>
        <extensions>
          <ns3:TrackPointExtension>
            <ns3:atemp>33.0</ns3:atemp>
            <ns3:hr>89</ns3:hr>
          </ns3:TrackPointExtension>
        </extensions>
      </trkpt>
      <trkpt lat="36.872876845300197601318359375" lon="-118.45928949303925037384033203125">
        <ele>2531</ele>
        <time>2021-06-28T00:58:26.000Z</time>
        <extensions>
          <ns3:TrackPointExtension>
            <ns3:atemp>33.0</ns3:atemp>
            <ns3:hr>87</ns3:hr>
          </ns3:TrackPointExtension>
        </extensions>
      </trkpt>
      <trkpt lat="36.87287290580570697784423828125" lon="-118.45930290408432483673095703125">
        <ele>2530.60009765625</ele>
        <time>2021-06-28T00:58:27.000Z</time>
        <extensions>
          <ns3:TrackPointExtension>
            <ns3:atemp>33.0</ns3:atemp>
            <ns3:hr>86</ns3:hr>
          </ns3:TrackPointExtension>
        </extensions>
      </trkpt>
      <trkpt lat="36.8728800304234027862548828125" lon="-118.459344394505023956298828125">
        <ele>2530.199951171875</ele>
        <time>2021-06-28T00:58:29.000Z</time>
        <extensions>
          <ns3:TrackPointExtension>
            <ns3:atemp>33.0</ns3:atemp>
            <ns3:hr>87</ns3:hr>
          </ns3:TrackPointExtension>
        </extensions>
      </trkpt>
      <trkpt lat="36.87288849614560604095458984375" lon="-118.45939745195209980010986328125">
        <ele>2529.199951171875</ele>
        <time>2021-06-28T00:58:32.000Z</time>
        <extensions>
          <ns3:TrackPointExtension>
            <ns3:atemp>33.0</ns3:atemp>
            <ns3:hr>88</ns3:hr>
          </ns3:TrackPointExtension>
        </extensions>
      </trkpt>
      <trkpt lat="36.8728927709162235260009765625" lon="-118.45941337756812572479248046875">
        <ele>2528.800048828125</ele>
        <time>2021-06-28T00:58:33.000Z</time>
        <extensions>
          <ns3:TrackPointExtension>
            <ns3:atemp>33.0</ns3:atemp>
            <ns3:hr>89</ns3:hr>
          </ns3:TrackPointExtension>
        </extensions>
      </trkpt>
      <trkpt lat="36.872930824756622314453125" lon="-118.45946408808231353759765625">
        <ele>2528.39990234375</ele>
        <time>2021-06-28T00:58:37.000Z</time>
        <extensions>
          <ns3:TrackPointExtension>
            <ns3:atemp>33.0</ns3:atemp>
            <ns3:hr>92</ns3:hr>
          </ns3:TrackPointExtension>
        </extensions>
      </trkpt>
      <trkpt lat="36.87293610535562038421630859375" lon="-118.4594800136983394622802734375">
        <ele>2528.39990234375</ele>
        <time>2021-06-28T00:58:38.000Z</time>
        <extensions>
          <ns3:TrackPointExtension>
            <ns3:atemp>33.0</ns3:atemp>
            <ns3:hr>93</ns3:hr>
          </ns3:TrackPointExtension>
        </extensions>
      </trkpt>
      <trkpt lat="36.87295387499034404754638671875" lon="-118.4595065005123615264892578125">
        <ele>2527.800048828125</ele>
        <time>2021-06-28T00:58:40.000Z</time>
        <extensions>
          <ns3:TrackPointExtension>
            <ns3:atemp>33.0</ns3:atemp>
            <ns3:hr>92</ns3:hr>
          </ns3:TrackPointExtension>
        </extensions>
      </trkpt>
      <trkpt lat="36.872964687645435333251953125" lon="-118.45951915718615055084228515625">
        <ele>2527.60009765625</ele>
        <time>2021-06-28T00:58:41.000Z</time>
        <extensions>
          <ns3:TrackPointExtension>
            <ns3:atemp>33.0</ns3:atemp>
            <ns3:hr>92</ns3:hr>
          </ns3:TrackPointExtension>
        </extensions>
      </trkpt>
      <trkpt lat="36.8730067647993564605712890625" lon="-118.45956458710134029388427734375">
        <ele>2527.199951171875</ele>
        <time>2021-06-28T00:58:45.000Z</time>
        <extensions>
          <ns3:TrackPointExtension>
            <ns3:atemp>33.0</ns3:atemp>
            <ns3:hr>90</ns3:hr>
          </ns3:TrackPointExtension>
        </extensions>
      </trkpt>
      <trkpt lat="36.87299410812556743621826171875" lon="-118.45959476195275783538818359375">
        <ele>2526.800048828125</ele>
        <time>2021-06-28T00:58:49.000Z</time>
        <extensions>
          <ns3:TrackPointExtension>
            <ns3:atemp>33.0</ns3:atemp>
            <ns3:hr>88</ns3:hr>
          </ns3:TrackPointExtension>
        </extensions>
      </trkpt>
      <trkpt lat="36.87299880199134349822998046875" lon="-118.4596255235373973846435546875">
        <ele>2526.60009765625</ele>
        <time>2021-06-28T00:58:51.000Z</time>
        <extensions>
          <ns3:TrackPointExtension>
            <ns3:atemp>33.0</ns3:atemp>
            <ns3:hr>88</ns3:hr>
          </ns3:TrackPointExtension>
        </extensions>
      </trkpt>
      <trkpt lat="36.87300793826580047607421875" lon="-118.4596583805978298187255859375">
        <ele>2526.39990234375</ele>
        <time>2021-06-28T00:58:54.000Z</time>
        <extensions>
          <ns3:TrackPointExtension>
            <ns3:atemp>33.0</ns3:atemp>
            <ns3:hr>91</ns3:hr>
          </ns3:TrackPointExtension>
        </extensions>
      </trkpt>
      <trkpt lat="36.87301305122673511505126953125" lon="-118.4596684388816356658935546875">
        <ele>2526</ele>
        <time>2021-06-28T00:58:55.000Z</time>
        <extensions>
          <ns3:TrackPointExtension>
            <ns3:atemp>33.0</ns3:atemp>
            <ns3:hr>88</ns3:hr>
          </ns3:TrackPointExtension>
        </extensions>
      </trkpt>
      <trkpt lat="36.87302193604409694671630859375" lon="-118.459683358669281005859375">
        <ele>2526</ele>
        <time>2021-06-28T00:58:56.000Z</time>
        <extensions>
          <ns3:TrackPointExtension>
            <ns3:atemp>33.0</ns3:atemp>
            <ns3:hr>88</ns3:hr>
          </ns3:TrackPointExtension>
        </extensions>
      </trkpt>
      <trkpt lat="36.8730466626584529876708984375" lon="-118.45971495844423770904541015625">
        <ele>2525.800048828125</ele>
        <time>2021-06-28T00:58:59.000Z</time>
        <extensions>
          <ns3:TrackPointExtension>
            <ns3:atemp>33.0</ns3:atemp>
            <ns3:hr>87</ns3:hr>
          </ns3:TrackPointExtension>
        </extensions>
      </trkpt>
      <trkpt lat="36.8730483390390872955322265625" lon="-118.45977547578513622283935546875">
        <ele>2525.60009765625</ele>
        <time>2021-06-28T00:59:04.000Z</time>
        <extensions>
          <ns3:TrackPointExtension>
            <ns3:atemp>33.0</ns3:atemp>
            <ns3:hr>87</ns3:hr>
          </ns3:TrackPointExtension>
        </extensions>
      </trkpt>
      <trkpt lat="36.87307708896696567535400390625" lon="-118.459825180470943450927734375">
        <ele>2524.39990234375</ele>
        <time>2021-06-28T00:59:08.000Z</time>
        <extensions>
          <ns3:TrackPointExtension>
            <ns3:atemp>33.0</ns3:atemp>
            <ns3:hr>90</ns3:hr>
          </ns3:TrackPointExtension>
        </extensions>
      </trkpt>
      <trkpt lat="36.8731157295405864715576171875" lon="-118.459911011159420013427734375">
        <ele>2523.60009765625</ele>
        <time>2021-06-28T00:59:13.000Z</time>
        <extensions>
          <ns3:TrackPointExtension>
            <ns3:atemp>33.0</ns3:atemp>
            <ns3:hr>92</ns3:hr>
          </ns3:TrackPointExtension>
        </extensions>
      </trkpt>
      <trkpt lat="36.87314431183040142059326171875" lon="-118.45996423624455928802490234375">
        <ele>2523.39990234375</ele>
        <time>2021-06-28T00:59:18.000Z</time>
        <extensions>
          <ns3:TrackPointExtension>
            <ns3:atemp>33.0</ns3:atemp>
            <ns3:hr>92</ns3:hr>
          </ns3:TrackPointExtension>
        </extensions>
      </trkpt>
      <trkpt lat="36.87315822578966617584228515625" lon="-118.4599805809557437896728515625">
        <ele>2522.60009765625</ele>
        <time>2021-06-28T00:59:20.000Z</time>
        <extensions>
          <ns3:TrackPointExtension>
            <ns3:atemp>33.0</ns3:atemp>
            <ns3:hr>91</ns3:hr>
          </ns3:TrackPointExtension>
        </extensions>
      </trkpt>
      <trkpt lat="36.873167194426059722900390625" lon="-118.4599913097918033599853515625">
        <ele>2522</ele>
        <time>2021-06-28T00:59:21.000Z</time>
        <extensions>
          <ns3:TrackPointExtension>
            <ns3:atemp>33.0</ns3:atemp>
            <ns3:hr>91</ns3:hr>
          </ns3:TrackPointExtension>
        </extensions>
      </trkpt>
      <trkpt lat="36.873192675411701202392578125" lon="-118.46009918488562107086181640625">
        <ele>2521</ele>
        <time>2021-06-28T00:59:30.000Z</time>
        <extensions>
          <ns3:TrackPointExtension>
            <ns3:atemp>33.0</ns3:atemp>
            <ns3:hr>93</ns3:hr>
          </ns3:TrackPointExtension>
        </extensions>
      </trkpt>
      <trkpt lat="36.87320047058165073394775390625" lon="-118.4601525776088237762451171875">
        <ele>2520.60009765625</ele>
        <time>2021-06-28T00:59:32.000Z</time>
        <extensions>
          <ns3:TrackPointExtension>
            <ns3:atemp>33.0</ns3:atemp>
            <ns3:hr>92</ns3:hr>
          </ns3:TrackPointExtension>
        </extensions>
      </trkpt>
      <trkpt lat="36.87322813086211681365966796875" lon="-118.460176549851894378662109375">
        <ele>2520.60009765625</ele>
        <time>2021-06-28T00:59:37.000Z</time>
        <extensions>
          <ns3:TrackPointExtension>
            <ns3:atemp>33.0</ns3:atemp>
            <ns3:hr>94</ns3:hr>
          </ns3:TrackPointExtension>
        </extensions>
      </trkpt>
      <trkpt lat="36.87324623577296733856201171875" lon="-118.46019255928695201873779296875">
        <ele>2520.60009765625</ele>
        <time>2021-06-28T00:59:40.000Z</time>
        <extensions>
          <ns3:TrackPointExtension>
            <ns3:atemp>33.0</ns3:atemp>
            <ns3:hr>91</ns3:hr>
          </ns3:TrackPointExtension>
        </extensions>
      </trkpt>
      <trkpt lat="36.87326501123607158660888671875" lon="-118.4602283500134944915771484375">
        <ele>2520.39990234375</ele>
        <time>2021-06-28T00:59:43.000Z</time>
        <extensions>
          <ns3:TrackPointExtension>
            <ns3:atemp>33.0</ns3:atemp>
            <ns3:hr>89</ns3:hr>
          </ns3:TrackPointExtension>
        </extensions>
      </trkpt>
      <trkpt lat="36.87330222688615322113037109375" lon="-118.46030940301716327667236328125">
        <ele>2519.60009765625</ele>
        <time>2021-06-28T00:59:47.000Z</time>
        <extensions>
          <ns3:TrackPointExtension>
            <ns3:atemp>33.0</ns3:atemp>
            <ns3:hr>89</ns3:hr>
          </ns3:TrackPointExtension>
        </extensions>
      </trkpt>
      <trkpt lat="36.87330977059900760650634765625" lon="-118.4603359736502170562744140625">
        <ele>2519</ele>
        <time>2021-06-28T00:59:49.000Z</time>
        <extensions>
          <ns3:TrackPointExtension>
            <ns3:atemp>33.0</ns3:atemp>
            <ns3:hr>90</ns3:hr>
          </ns3:TrackPointExtension>
        </extensions>
      </trkpt>
      <trkpt lat="36.87334530986845493316650390625" lon="-118.46038274466991424560546875">
        <ele>2518.39990234375</ele>
        <time>2021-06-28T00:59:54.000Z</time>
        <extensions>
          <ns3:TrackPointExtension>
            <ns3:atemp>33.0</ns3:atemp>
            <ns3:hr>89</ns3:hr>
          </ns3:TrackPointExtension>
        </extensions>
      </trkpt>
      <trkpt lat="36.87335268594324588775634765625" lon="-118.4603936411440372467041015625">
        <ele>2518.39990234375</ele>
        <time>2021-06-28T00:59:55.000Z</time>
        <extensions>
          <ns3:TrackPointExtension>
            <ns3:atemp>33.0</ns3:atemp>
            <ns3:hr>89</ns3:hr>
          </ns3:TrackPointExtension>
        </extensions>
      </trkpt>
      <trkpt lat="36.873362325131893157958984375" lon="-118.4604156017303466796875">
        <ele>2517.800048828125</ele>
        <time>2021-06-28T00:59:56.000Z</time>
        <extensions>
          <ns3:TrackPointExtension>
            <ns3:atemp>33.0</ns3:atemp>
            <ns3:hr>89</ns3:hr>
          </ns3:TrackPointExtension>
        </extensions>
      </trkpt>
      <trkpt lat="36.87338168732821941375732421875" lon="-118.46043429337441921234130859375">
        <ele>2517.800048828125</ele>
        <time>2021-06-28T00:59:58.000Z</time>
        <extensions>
          <ns3:TrackPointExtension>
            <ns3:atemp>33.0</ns3:atemp>
            <ns3:hr>87</ns3:hr>
          </ns3:TrackPointExtension>
        </extensions>
      </trkpt>
      <trkpt lat="36.8733953498303890228271484375" lon="-118.46045390702784061431884765625">
        <ele>2517.39990234375</ele>
        <time>2021-06-28T01:00:00.000Z</time>
        <extensions>
          <ns3:TrackPointExtension>
            <ns3:atemp>33.0</ns3:atemp>
            <ns3:hr>86</ns3:hr>
          </ns3:TrackPointExtension>
        </extensions>
      </trkpt>
      <trkpt lat="36.87341186217963695526123046875" lon="-118.46049464307725429534912109375">
        <ele>2517.199951171875</ele>
        <time>2021-06-28T01:00:03.000Z</time>
        <extensions>
          <ns3:TrackPointExtension>
            <ns3:atemp>32.0</ns3:atemp>
            <ns3:hr>85</ns3:hr>
          </ns3:TrackPointExtension>
        </extensions>
      </trkpt>
      <trkpt lat="36.87342594377696514129638671875" lon="-118.46052825450897216796875">
        <ele>2517</ele>
        <time>2021-06-28T01:00:05.000Z</time>
        <extensions>
          <ns3:TrackPointExtension>
            <ns3:atemp>32.0</ns3:atemp>
            <ns3:hr>85</ns3:hr>
          </ns3:TrackPointExtension>
        </extensions>
      </trkpt>
      <trkpt lat="36.87344647943973541259765625" lon="-118.4605669789016246795654296875">
        <ele>2516.800048828125</ele>
        <time>2021-06-28T01:00:09.000Z</time>
        <extensions>
          <ns3:TrackPointExtension>
            <ns3:atemp>32.0</ns3:atemp>
            <ns3:hr>88</ns3:hr>
          </ns3:TrackPointExtension>
        </extensions>
      </trkpt>
      <trkpt lat="36.87344874255359172821044921875" lon="-118.4605773724615573883056640625">
        <ele>2516.800048828125</ele>
        <time>2021-06-28T01:00:10.000Z</time>
        <extensions>
          <ns3:TrackPointExtension>
            <ns3:atemp>32.0</ns3:atemp>
            <ns3:hr>91</ns3:hr>
          </ns3:TrackPointExtension>
        </extensions>
      </trkpt>
      <trkpt lat="36.8734969384968280792236328125" lon="-118.4606139175593852996826171875">
        <ele>2517</ele>
        <time>2021-06-28T01:00:16.000Z</time>
        <extensions>
          <ns3:TrackPointExtension>
            <ns3:atemp>32.0</ns3:atemp>
            <ns3:hr>86</ns3:hr>
          </ns3:TrackPointExtension>
        </extensions>
      </trkpt>
      <trkpt lat="36.87352099455893039703369140625" lon="-118.46064023673534393310546875">
        <ele>2516.800048828125</ele>
        <time>2021-06-28T01:00:19.000Z</time>
        <extensions>
          <ns3:TrackPointExtension>
            <ns3:atemp>32.0</ns3:atemp>
            <ns3:hr>84</ns3:hr>
          </ns3:TrackPointExtension>
        </extensions>
      </trkpt>
      <trkpt lat="36.873542368412017822265625" lon="-118.460658676922321319580078125">
        <ele>2516.199951171875</ele>
        <time>2021-06-28T01:00:21.000Z</time>
        <extensions>
          <ns3:TrackPointExtension>
            <ns3:atemp>32.0</ns3:atemp>
            <ns3:hr>83</ns3:hr>
          </ns3:TrackPointExtension>
        </extensions>
      </trkpt>
      <trkpt lat="36.873556114733219146728515625" lon="-118.46067435108125209808349609375">
        <ele>2515.800048828125</ele>
        <time>2021-06-28T01:00:22.000Z</time>
        <extensions>
          <ns3:TrackPointExtension>
            <ns3:atemp>32.0</ns3:atemp>
            <ns3:hr>82</ns3:hr>
          </ns3:TrackPointExtension>
        </extensions>
      </trkpt>
      <trkpt lat="36.8735663406550884246826171875" lon="-118.460690192878246307373046875">
        <ele>2515.199951171875</ele>
        <time>2021-06-28T01:00:24.000Z</time>
        <extensions>
          <ns3:TrackPointExtension>
            <ns3:atemp>32.0</ns3:atemp>
            <ns3:hr>81</ns3:hr>
          </ns3:TrackPointExtension>
        </extensions>
      </trkpt>
      <trkpt lat="36.873568855226039886474609375" lon="-118.46069991588592529296875">
        <ele>2515</ele>
        <time>2021-06-28T01:00:25.000Z</time>
        <extensions>
          <ns3:TrackPointExtension>
            <ns3:atemp>32.0</ns3:atemp>
            <ns3:hr>82</ns3:hr>
          </ns3:TrackPointExtension>
        </extensions>
      </trkpt>
      <trkpt lat="36.87356944195926189422607421875" lon="-118.4607124887406826019287109375">
        <ele>2514.800048828125</ele>
        <time>2021-06-28T01:00:26.000Z</time>
        <extensions>
          <ns3:TrackPointExtension>
            <ns3:atemp>32.0</ns3:atemp>
            <ns3:hr>82</ns3:hr>
          </ns3:TrackPointExtension>
        </extensions>
      </trkpt>
      <trkpt lat="36.873574554920196533203125" lon="-118.46073453314602375030517578125">
        <ele>2513.800048828125</ele>
        <time>2021-06-28T01:00:28.000Z</time>
        <extensions>
          <ns3:TrackPointExtension>
            <ns3:atemp>32.0</ns3:atemp>
            <ns3:hr>82</ns3:hr>
          </ns3:TrackPointExtension>
        </extensions>
      </trkpt>
      <trkpt lat="36.87359961681067943572998046875" lon="-118.46077996306121349334716796875">
        <ele>2513.199951171875</ele>
        <time>2021-06-28T01:00:32.000Z</time>
        <extensions>
          <ns3:TrackPointExtension>
            <ns3:atemp>32.0</ns3:atemp>
            <ns3:hr>82</ns3:hr>
          </ns3:TrackPointExtension>
        </extensions>
      </trkpt>
      <trkpt lat="36.8736099265515804290771484375" lon="-118.4608020074665546417236328125">
        <ele>2512.800048828125</ele>
        <time>2021-06-28T01:00:34.000Z</time>
        <extensions>
          <ns3:TrackPointExtension>
            <ns3:atemp>32.0</ns3:atemp>
            <ns3:hr>83</ns3:hr>
          </ns3:TrackPointExtension>
        </extensions>
      </trkpt>
      <trkpt lat="36.8736209906637668609619140625" lon="-118.4608167596161365509033203125">
        <ele>2512.800048828125</ele>
        <time>2021-06-28T01:00:35.000Z</time>
        <extensions>
          <ns3:TrackPointExtension>
            <ns3:atemp>32.0</ns3:atemp>
            <ns3:hr>83</ns3:hr>
          </ns3:TrackPointExtension>
        </extensions>
      </trkpt>
      <trkpt lat="36.8736608885228633880615234375" lon="-118.460871241986751556396484375">
        <ele>2512.800048828125</ele>
        <time>2021-06-28T01:00:40.000Z</time>
        <extensions>
          <ns3:TrackPointExtension>
            <ns3:atemp>32.0</ns3:atemp>
            <ns3:hr>83</ns3:hr>
          </ns3:TrackPointExtension>
        </extensions>
      </trkpt>
      <trkpt lat="36.87366130761802196502685546875" lon="-118.46088540740311145782470703125">
        <ele>2513</ele>
        <time>2021-06-28T01:00:41.000Z</time>
        <extensions>
          <ns3:TrackPointExtension>
            <ns3:atemp>32.0</ns3:atemp>
            <ns3:hr>83</ns3:hr>
          </ns3:TrackPointExtension>
        </extensions>
      </trkpt>
      <trkpt lat="36.87366105616092681884765625" lon="-118.460912145674228668212890625">
        <ele>2513</ele>
        <time>2021-06-28T01:00:43.000Z</time>
        <extensions>
          <ns3:TrackPointExtension>
            <ns3:atemp>32.0</ns3:atemp>
            <ns3:hr>84</ns3:hr>
          </ns3:TrackPointExtension>
        </extensions>
      </trkpt>
      <trkpt lat="36.8736679293215274810791015625" lon="-118.460965789854526519775390625">
        <ele>2513.199951171875</ele>
        <time>2021-06-28T01:00:46.000Z</time>
        <extensions>
          <ns3:TrackPointExtension>
            <ns3:atemp>32.0</ns3:atemp>
            <ns3:hr>85</ns3:hr>
          </ns3:TrackPointExtension>
        </extensions>
      </trkpt>
      <trkpt lat="36.87367253936827182769775390625" lon="-118.46098867245018482208251953125">
        <ele>2513.199951171875</ele>
        <time>2021-06-28T01:00:47.000Z</time>
        <extensions>
          <ns3:TrackPointExtension>
            <ns3:atemp>32.0</ns3:atemp>
            <ns3:hr>85</ns3:hr>
          </ns3:TrackPointExtension>
        </extensions>
      </trkpt>
      <trkpt lat="36.87373423017561435699462890625" lon="-118.4610782749950885772705078125">
        <ele>2513.199951171875</ele>
        <time>2021-06-28T01:00:53.000Z</time>
        <extensions>
          <ns3:TrackPointExtension>
            <ns3:atemp>32.0</ns3:atemp>
            <ns3:hr>87</ns3:hr>
          </ns3:TrackPointExtension>
        </extensions>
      </trkpt>
      <trkpt lat="36.87375099398195743560791015625" lon="-118.46119184978306293487548828125">
        <ele>2513</ele>
        <time>2021-06-28T01:01:02.000Z</time>
        <extensions>
          <ns3:TrackPointExtension>
            <ns3:atemp>32.0</ns3:atemp>
            <ns3:hr>89</ns3:hr>
          </ns3:TrackPointExtension>
        </extensions>
      </trkpt>
      <trkpt lat="36.8738033808767795562744140625" lon="-118.46126519143581390380859375">
        <ele>2512.800048828125</ele>
        <time>2021-06-28T01:01:07.000Z</time>
        <extensions>
          <ns3:TrackPointExtension>
            <ns3:atemp>32.0</ns3:atemp>
            <ns3:hr>85</ns3:hr>
          </ns3:TrackPointExtension>
        </extensions>
      </trkpt>
      <trkpt lat="36.87382777221500873565673828125" lon="-118.46130098216235637664794921875">
        <ele>2512.39990234375</ele>
        <time>2021-06-28T01:01:10.000Z</time>
        <extensions>
          <ns3:TrackPointExtension>
            <ns3:atemp>32.0</ns3:atemp>
            <ns3:hr>85</ns3:hr>
          </ns3:TrackPointExtension>
        </extensions>
      </trkpt>
      <trkpt lat="36.8738628923892974853515625" lon="-118.46141380257904529571533203125">
        <ele>2511.60009765625</ele>
        <time>2021-06-28T01:01:16.000Z</time>
        <extensions>
          <ns3:TrackPointExtension>
            <ns3:atemp>32.0</ns3:atemp>
            <ns3:hr>83</ns3:hr>
          </ns3:TrackPointExtension>
        </extensions>
      </trkpt>
      <trkpt lat="36.873884014785289764404296875" lon="-118.4614549577236175537109375">
        <ele>2511</ele>
        <time>2021-06-28T01:01:19.000Z</time>
        <extensions>
          <ns3:TrackPointExtension>
            <ns3:atemp>32.0</ns3:atemp>
            <ns3:hr>84</ns3:hr>
          </ns3:TrackPointExtension>
        </extensions>
      </trkpt>
      <trkpt lat="36.87389465980231761932373046875" lon="-118.461471386253833770751953125">
        <ele>2511</ele>
        <time>2021-06-28T01:01:20.000Z</time>
        <extensions>
          <ns3:TrackPointExtension>
            <ns3:atemp>32.0</ns3:atemp>
            <ns3:hr>84</ns3:hr>
          </ns3:TrackPointExtension>
        </extensions>
      </trkpt>
      <trkpt lat="36.873903460800647735595703125" lon="-118.46151589415967464447021484375">
        <ele>2510.199951171875</ele>
        <time>2021-06-28T01:01:24.000Z</time>
        <extensions>
          <ns3:TrackPointExtension>
            <ns3:atemp>32.0</ns3:atemp>
            <ns3:hr>82</ns3:hr>
          </ns3:TrackPointExtension>
        </extensions>
      </trkpt>
      <trkpt lat="36.8739099986851215362548828125" lon="-118.46155160106718540191650390625">
        <ele>2509.60009765625</ele>
        <time>2021-06-28T01:01:26.000Z</time>
        <extensions>
          <ns3:TrackPointExtension>
            <ns3:atemp>32.0</ns3:atemp>
            <ns3:hr>82</ns3:hr>
          </ns3:TrackPointExtension>
        </extensions>
      </trkpt>
      <trkpt lat="36.8739948235452175140380859375" lon="-118.46168990246951580047607421875">
        <ele>2509.60009765625</ele>
        <time>2021-06-28T01:01:36.000Z</time>
        <extensions>
          <ns3:TrackPointExtension>
            <ns3:atemp>32.0</ns3:atemp>
            <ns3:hr>83</ns3:hr>
          </ns3:TrackPointExtension>
        </extensions>
      </trkpt>
      <trkpt lat="36.873998679220676422119140625" lon="-118.46171773038804531097412109375">
        <ele>2509.199951171875</ele>
        <time>2021-06-28T01:01:38.000Z</time>
        <extensions>
          <ns3:TrackPointExtension>
            <ns3:atemp>32.0</ns3:atemp>
            <ns3:hr>83</ns3:hr>
          </ns3:TrackPointExtension>
        </extensions>
      </trkpt>
      <trkpt lat="36.8740166164934635162353515625" lon="-118.46180758439004421234130859375">
        <ele>2508.60009765625</ele>
        <time>2021-06-28T01:01:44.000Z</time>
        <extensions>
          <ns3:TrackPointExtension>
            <ns3:atemp>32.0</ns3:atemp>
            <ns3:hr>83</ns3:hr>
          </ns3:TrackPointExtension>
        </extensions>
      </trkpt>
      <trkpt lat="36.874039582908153533935546875" lon="-118.46183893270790576934814453125">
        <ele>2508.60009765625</ele>
        <time>2021-06-28T01:01:47.000Z</time>
        <extensions>
          <ns3:TrackPointExtension>
            <ns3:atemp>32.0</ns3:atemp>
            <ns3:hr>83</ns3:hr>
          </ns3:TrackPointExtension>
        </extensions>
      </trkpt>
      <trkpt lat="36.87408559955656528472900390625" lon="-118.461893834173679351806640625">
        <ele>2508.199951171875</ele>
        <time>2021-06-28T01:01:52.000Z</time>
        <extensions>
          <ns3:TrackPointExtension>
            <ns3:atemp>32.0</ns3:atemp>
            <ns3:hr>84</ns3:hr>
          </ns3:TrackPointExtension>
        </extensions>
      </trkpt>
      <trkpt lat="36.8741111643612384796142578125" lon="-118.461982347071170806884765625">
        <ele>2508.199951171875</ele>
        <time>2021-06-28T01:01:58.000Z</time>
        <extensions>
          <ns3:TrackPointExtension>
            <ns3:atemp>32.0</ns3:atemp>
            <ns3:hr>87</ns3:hr>
          </ns3:TrackPointExtension>
        </extensions>
      </trkpt>
      <trkpt lat="36.8741215579211711883544921875" lon="-118.4620207361876964569091796875">
        <ele>2508.199951171875</ele>
        <time>2021-06-28T01:02:01.000Z</time>
        <extensions>
          <ns3:TrackPointExtension>
            <ns3:atemp>32.0</ns3:atemp>
            <ns3:hr>91</ns3:hr>
          </ns3:TrackPointExtension>
        </extensions>
      </trkpt>
      <trkpt lat="36.874122060835361480712890625" lon="-118.46203305758535861968994140625">
        <ele>2508.199951171875</ele>
        <time>2021-06-28T01:02:02.000Z</time>
        <extensions>
          <ns3:TrackPointExtension>
            <ns3:atemp>32.0</ns3:atemp>
            <ns3:hr>91</ns3:hr>
          </ns3:TrackPointExtension>
        </extensions>
      </trkpt>
      <trkpt lat="36.87411292456090450286865234375" lon="-118.46211922354996204376220703125">
        <ele>2508.199951171875</ele>
        <time>2021-06-28T01:02:08.000Z</time>
        <extensions>
          <ns3:TrackPointExtension>
            <ns3:atemp>32.0</ns3:atemp>
            <ns3:hr>89</ns3:hr>
          </ns3:TrackPointExtension>
        </extensions>
      </trkpt>
      <trkpt lat="36.874035559594631195068359375" lon="-118.4622408449649810791015625">
        <ele>2508.39990234375</ele>
        <time>2021-06-28T01:02:18.000Z</time>
        <extensions>
          <ns3:TrackPointExtension>
            <ns3:atemp>32.0</ns3:atemp>
            <ns3:hr>89</ns3:hr>
          </ns3:TrackPointExtension>
        </extensions>
      </trkpt>
      <trkpt lat="36.87397747300565242767333984375" lon="-118.462304882705211639404296875">
        <ele>2508.39990234375</ele>
        <time>2021-06-28T01:02:25.000Z</time>
        <extensions>
          <ns3:TrackPointExtension>
            <ns3:atemp>32.0</ns3:atemp>
            <ns3:hr>92</ns3:hr>
          </ns3:TrackPointExtension>
        </extensions>
      </trkpt>
      <trkpt lat="36.8739431910216808319091796875" lon="-118.4623221494257450103759765625">
        <ele>2508.60009765625</ele>
        <time>2021-06-28T01:02:29.000Z</time>
        <extensions>
          <ns3:TrackPointExtension>
            <ns3:atemp>32.0</ns3:atemp>
            <ns3:hr>92</ns3:hr>
          </ns3:TrackPointExtension>
        </extensions>
      </trkpt>
      <trkpt lat="36.87388225458562374114990234375" lon="-118.462365902960300445556640625">
        <ele>2509.199951171875</ele>
        <time>2021-06-28T01:02:35.000Z</time>
        <extensions>
          <ns3:TrackPointExtension>
            <ns3:atemp>32.0</ns3:atemp>
            <ns3:hr>90</ns3:hr>
          </ns3:TrackPointExtension>
        </extensions>
      </trkpt>
      <trkpt lat="36.873873285949230194091796875" lon="-118.46237202174961566925048828125">
        <ele>2509.199951171875</ele>
        <time>2021-06-28T01:02:36.000Z</time>
        <extensions>
          <ns3:TrackPointExtension>
            <ns3:atemp>32.0</ns3:atemp>
            <ns3:hr>89</ns3:hr>
          </ns3:TrackPointExtension>
        </extensions>
      </trkpt>
      <trkpt lat="36.87385895289480686187744140625" lon="-118.46238878555595874786376953125">
        <ele>2509.60009765625</ele>
        <time>2021-06-28T01:02:38.000Z</time>
        <extensions>
          <ns3:TrackPointExtension>
            <ns3:atemp>32.0</ns3:atemp>
            <ns3:hr>89</ns3:hr>
          </ns3:TrackPointExtension>
        </extensions>
      </trkpt>
      <trkpt lat="36.87384336255490779876708984375" lon="-118.46246355213224887847900390625">
        <ele>2510</ele>
        <time>2021-06-28T01:02:43.000Z</time>
        <extensions>
          <ns3:TrackPointExtension>
            <ns3:atemp>32.0</ns3:atemp>
            <ns3:hr>94</ns3:hr>
          </ns3:TrackPointExtension>
        </extensions>
      </trkpt>
      <trkpt lat="36.873834393918514251708984375" lon="-118.462474532425403594970703125">
        <ele>2510.39990234375</ele>
        <time>2021-06-28T01:02:44.000Z</time>
        <extensions>
          <ns3:TrackPointExtension>
            <ns3:atemp>32.0</ns3:atemp>
            <ns3:hr>96</ns3:hr>
          </ns3:TrackPointExtension>
        </extensions>
      </trkpt>
      <trkpt lat="36.8738255091011524200439453125" lon="-118.462504036724567413330078125">
        <ele>2510.60009765625</ele>
        <time>2021-06-28T01:02:46.000Z</time>
        <extensions>
          <ns3:TrackPointExtension>
            <ns3:atemp>32.0</ns3:atemp>
            <ns3:hr>99</ns3:hr>
          </ns3:TrackPointExtension>
        </extensions>
      </trkpt>
      <trkpt lat="36.87381528317928314208984375" lon="-118.46251267008483409881591796875">
        <ele>2510.60009765625</ele>
        <time>2021-06-28T01:02:47.000Z</time>
        <extensions>
          <ns3:TrackPointExtension>
            <ns3:atemp>32.0</ns3:atemp>
            <ns3:hr>99</ns3:hr>
          </ns3:TrackPointExtension>
        </extensions>
      </trkpt>
      <trkpt lat="36.8738010339438915252685546875" lon="-118.4625296853482723236083984375">
        <ele>2510.60009765625</ele>
        <time>2021-06-28T01:02:49.000Z</time>
        <extensions>
          <ns3:TrackPointExtension>
            <ns3:atemp>32.0</ns3:atemp>
            <ns3:hr>102</ns3:hr>
          </ns3:TrackPointExtension>
        </extensions>
      </trkpt>
      <trkpt lat="36.87376775778830051422119140625" lon="-118.46257301978766918182373046875">
        <ele>2510.800048828125</ele>
        <time>2021-06-28T01:02:53.000Z</time>
        <extensions>
          <ns3:TrackPointExtension>
            <ns3:atemp>32.0</ns3:atemp>
            <ns3:hr>104</ns3:hr>
          </ns3:TrackPointExtension>
        </extensions>
      </trkpt>
      <trkpt lat="36.8737520836293697357177734375" lon="-118.462628424167633056640625">
        <ele>2510</ele>
        <time>2021-06-28T01:02:57.000Z</time>
        <extensions>
          <ns3:TrackPointExtension>
            <ns3:atemp>32.0</ns3:atemp>
            <ns3:hr>106</ns3:hr>
          </ns3:TrackPointExtension>
        </extensions>
      </trkpt>
      <trkpt lat="36.87374889850616455078125" lon="-118.46264946274459362030029296875">
        <ele>2509.60009765625</ele>
        <time>2021-06-28T01:02:59.000Z</time>
        <extensions>
          <ns3:TrackPointExtension>
            <ns3:atemp>32.0</ns3:atemp>
            <ns3:hr>106</ns3:hr>
          </ns3:TrackPointExtension>
        </extensions>
      </trkpt>
      <trkpt lat="36.8737453781068325042724609375" lon="-118.4626621194183826446533203125">
        <ele>2509.39990234375</ele>
        <time>2021-06-28T01:03:00.000Z</time>
        <extensions>
          <ns3:TrackPointExtension>
            <ns3:atemp>32.0</ns3:atemp>
            <ns3:hr>106</ns3:hr>
          </ns3:TrackPointExtension>
        </extensions>
      </trkpt>
      <trkpt lat="36.873739175498485565185546875" lon="-118.4626758657395839691162109375">
        <ele>2509.39990234375</ele>
        <time>2021-06-28T01:03:01.000Z</time>
        <extensions>
          <ns3:TrackPointExtension>
            <ns3:atemp>32.0</ns3:atemp>
            <ns3:hr>107</ns3:hr>
          </ns3:TrackPointExtension>
        </extensions>
      </trkpt>
      <trkpt lat="36.87369785271584987640380859375" lon="-118.46278625540435314178466796875">
        <ele>2508.60009765625</ele>
        <time>2021-06-28T01:03:09.000Z</time>
        <extensions>
          <ns3:TrackPointExtension>
            <ns3:atemp>32.0</ns3:atemp>
            <ns3:hr>105</ns3:hr>
          </ns3:TrackPointExtension>
        </extensions>
      </trkpt>
      <trkpt lat="36.87369248829782009124755859375" lon="-118.46288214437663555145263671875">
        <ele>2509</ele>
        <time>2021-06-28T01:03:16.000Z</time>
        <extensions>
          <ns3:TrackPointExtension>
            <ns3:atemp>32.0</ns3:atemp>
            <ns3:hr>103</ns3:hr>
          </ns3:TrackPointExtension>
        </extensions>
      </trkpt>
      <trkpt lat="36.87369366176426410675048828125" lon="-118.46290712244808673858642578125">
        <ele>2509.199951171875</ele>
        <time>2021-06-28T01:03:18.000Z</time>
        <extensions>
          <ns3:TrackPointExtension>
            <ns3:atemp>32.0</ns3:atemp>
            <ns3:hr>103</ns3:hr>
          </ns3:TrackPointExtension>
        </extensions>
      </trkpt>
      <trkpt lat="36.873686872422695159912109375" lon="-118.4630111418664455413818359375">
        <ele>2509.39990234375</ele>
        <time>2021-06-28T01:03:25.000Z</time>
        <extensions>
          <ns3:TrackPointExtension>
            <ns3:atemp>32.0</ns3:atemp>
            <ns3:hr>100</ns3:hr>
          </ns3:TrackPointExtension>
        </extensions>
      </trkpt>
      <trkpt lat="36.8736759759485721588134765625" lon="-118.46301130950450897216796875">
        <ele>2509.199951171875</ele>
        <time>2021-06-28T01:03:28.000Z</time>
        <extensions>
          <ns3:TrackPointExtension>
            <ns3:atemp>32.0</ns3:atemp>
            <ns3:hr>99</ns3:hr>
          </ns3:TrackPointExtension>
        </extensions>
      </trkpt>
      <trkpt lat="36.8736598826944828033447265625" lon="-118.46299345605075359344482421875">
        <ele>2508.60009765625</ele>
        <time>2021-06-28T01:03:32.000Z</time>
        <extensions>
          <ns3:TrackPointExtension>
            <ns3:atemp>32.0</ns3:atemp>
            <ns3:hr>99</ns3:hr>
          </ns3:TrackPointExtension>
        </extensions>
      </trkpt>
      <trkpt lat="36.873659379780292510986328125" lon="-118.4630101360380649566650390625">
        <ele>2508.39990234375</ele>
        <time>2021-06-28T01:03:34.000Z</time>
        <extensions>
          <ns3:TrackPointExtension>
            <ns3:atemp>32.0</ns3:atemp>
            <ns3:hr>99</ns3:hr>
          </ns3:TrackPointExtension>
        </extensions>
      </trkpt>
      <trkpt lat="36.87365091405808925628662109375" lon="-118.4630320966243743896484375">
        <ele>2508.60009765625</ele>
        <time>2021-06-28T01:03:44.000Z</time>
        <extensions>
          <ns3:TrackPointExtension>
            <ns3:atemp>32.0</ns3:atemp>
            <ns3:hr>96</ns3:hr>
          </ns3:TrackPointExtension>
        </extensions>
      </trkpt>
      <trkpt lat="36.87365544028580188751220703125" lon="-118.4630299173295497894287109375">
        <ele>2508.199951171875</ele>
        <time>2021-06-28T01:03:48.000Z</time>
        <extensions>
          <ns3:TrackPointExtension>
            <ns3:atemp>32.0</ns3:atemp>
            <ns3:hr>97</ns3:hr>
          </ns3:TrackPointExtension>
        </extensions>
      </trkpt>
      <trkpt lat="36.87365795485675334930419921875" lon="-118.4630294144153594970703125">
        <ele>2508.199951171875</ele>
        <time>2021-06-28T01:03:49.000Z</time>
        <extensions>
          <ns3:TrackPointExtension>
            <ns3:atemp>32.0</ns3:atemp>
            <ns3:hr>97</ns3:hr>
          </ns3:TrackPointExtension>
        </extensions>
      </trkpt>
      <trkpt lat="36.873668767511844635009765625" lon="-118.46301407553255558013916015625">
        <ele>2508.199951171875</ele>
        <time>2021-06-28T01:03:57.000Z</time>
        <extensions>
          <ns3:TrackPointExtension>
            <ns3:atemp>32.0</ns3:atemp>
            <ns3:hr>94</ns3:hr>
          </ns3:TrackPointExtension>
        </extensions>
      </trkpt>
      <trkpt lat="36.87367455102503299713134765625" lon="-118.46301441080868244171142578125">
        <ele>2508</ele>
        <time>2021-06-28T01:04:05.000Z</time>
        <extensions>
          <ns3:TrackPointExtension>
            <ns3:atemp>32.0</ns3:atemp>
            <ns3:hr>91</ns3:hr>
          </ns3:TrackPointExtension>
        </extensions>
      </trkpt>
      <trkpt lat="36.87367455102503299713134765625" lon="-118.463027738034725189208984375">
        <ele>2508.199951171875</ele>
        <time>2021-06-28T01:04:17.000Z</time>
        <extensions>
          <ns3:TrackPointExtension>
            <ns3:atemp>32.0</ns3:atemp>
            <ns3:hr>88</ns3:hr>
          </ns3:TrackPointExtension>
        </extensions>
      </trkpt>
      <trkpt lat="36.873667426407337188720703125" lon="-118.46304240636527538299560546875">
        <ele>2508.199951171875</ele>
        <time>2021-06-28T01:04:20.000Z</time>
        <extensions>
          <ns3:TrackPointExtension>
            <ns3:atemp>32.0</ns3:atemp>
            <ns3:hr>85</ns3:hr>
          </ns3:TrackPointExtension>
        </extensions>
      </trkpt>
      <trkpt lat="36.87363666482269763946533203125" lon="-118.4630889259278774261474609375">
        <ele>2507.199951171875</ele>
        <time>2021-06-28T01:04:25.000Z</time>
        <extensions>
          <ns3:TrackPointExtension>
            <ns3:atemp>32.0</ns3:atemp>
            <ns3:hr>83</ns3:hr>
          </ns3:TrackPointExtension>
        </extensions>
      </trkpt>
      <trkpt lat="36.873624511063098907470703125" lon="-118.46310527063906192779541015625">
        <ele>2507.199951171875</ele>
        <time>2021-06-28T01:04:26.000Z</time>
        <extensions>
          <ns3:TrackPointExtension>
            <ns3:atemp>32.0</ns3:atemp>
            <ns3:hr>83</ns3:hr>
          </ns3:TrackPointExtension>
        </extensions>
      </trkpt>
      <trkpt lat="36.87361889518797397613525390625" lon="-118.46319973468780517578125">
        <ele>2506.60009765625</ele>
        <time>2021-06-28T01:04:32.000Z</time>
        <extensions>
          <ns3:TrackPointExtension>
            <ns3:atemp>32.0</ns3:atemp>
            <ns3:hr>83</ns3:hr>
          </ns3:TrackPointExtension>
        </extensions>
      </trkpt>
      <trkpt lat="36.87363213859498500823974609375" lon="-118.46322630532085895538330078125">
        <ele>2506.39990234375</ele>
        <time>2021-06-28T01:04:35.000Z</time>
        <extensions>
          <ns3:TrackPointExtension>
            <ns3:atemp>32.0</ns3:atemp>
            <ns3:hr>83</ns3:hr>
          </ns3:TrackPointExtension>
        </extensions>
      </trkpt>
      <trkpt lat="36.8736350722610950469970703125" lon="-118.46323619596660137176513671875">
        <ele>2506.199951171875</ele>
        <time>2021-06-28T01:04:36.000Z</time>
        <extensions>
          <ns3:TrackPointExtension>
            <ns3:atemp>32.0</ns3:atemp>
            <ns3:hr>83</ns3:hr>
          </ns3:TrackPointExtension>
        </extensions>
      </trkpt>
      <trkpt lat="36.87363649718463420867919921875" lon="-118.46324600279331207275390625">
        <ele>2506</ele>
        <time>2021-06-28T01:04:37.000Z</time>
        <extensions>
          <ns3:TrackPointExtension>
            <ns3:atemp>32.0</ns3:atemp>
            <ns3:hr>84</ns3:hr>
          </ns3:TrackPointExtension>
        </extensions>
      </trkpt>
      <trkpt lat="36.8736360780894756317138671875" lon="-118.46326209604740142822265625">
        <ele>2506.199951171875</ele>
        <time>2021-06-28T01:04:39.000Z</time>
        <extensions>
          <ns3:TrackPointExtension>
            <ns3:atemp>32.0</ns3:atemp>
            <ns3:hr>83</ns3:hr>
          </ns3:TrackPointExtension>
        </extensions>
      </trkpt>
      <trkpt lat="36.87361009418964385986328125" lon="-118.46338556148111820220947265625">
        <ele>2505.39990234375</ele>
        <time>2021-06-28T01:04:45.000Z</time>
        <extensions>
          <ns3:TrackPointExtension>
            <ns3:atemp>32.0</ns3:atemp>
            <ns3:hr>84</ns3:hr>
          </ns3:TrackPointExtension>
        </extensions>
      </trkpt>
      <trkpt lat="36.8736107647418975830078125" lon="-118.4634087793529033660888671875">
        <ele>2505.199951171875</ele>
        <time>2021-06-28T01:04:46.000Z</time>
        <extensions>
          <ns3:TrackPointExtension>
            <ns3:atemp>32.0</ns3:atemp>
            <ns3:hr>84</ns3:hr>
          </ns3:TrackPointExtension>
        </extensions>
      </trkpt>
      <trkpt lat="36.873614788055419921875" lon="-118.46343216486275196075439453125">
        <ele>2505.199951171875</ele>
        <time>2021-06-28T01:04:47.000Z</time>
        <extensions>
          <ns3:TrackPointExtension>
            <ns3:atemp>32.0</ns3:atemp>
            <ns3:hr>84</ns3:hr>
          </ns3:TrackPointExtension>
        </extensions>
      </trkpt>
      <trkpt lat="36.8736736290156841278076171875" lon="-118.46351162530481815338134765625">
        <ele>2505</ele>
        <time>2021-06-28T01:04:54.000Z</time>
        <extensions>
          <ns3:TrackPointExtension>
            <ns3:atemp>32.0</ns3:atemp>
            <ns3:hr>83</ns3:hr>
          </ns3:TrackPointExtension>
        </extensions>
      </trkpt>
      <trkpt lat="36.87368075363337993621826171875" lon="-118.463534675538539886474609375">
        <ele>2505</ele>
        <time>2021-06-28T01:04:56.000Z</time>
        <extensions>
          <ns3:TrackPointExtension>
            <ns3:atemp>32.0</ns3:atemp>
            <ns3:hr>83</ns3:hr>
          </ns3:TrackPointExtension>
        </extensions>
      </trkpt>
      <trkpt lat="36.87366549856960773468017578125" lon="-118.46357532776892185211181640625">
        <ele>2504.39990234375</ele>
        <time>2021-06-28T01:05:00.000Z</time>
        <extensions>
          <ns3:TrackPointExtension>
            <ns3:atemp>32.0</ns3:atemp>
            <ns3:hr>80</ns3:hr>
          </ns3:TrackPointExtension>
        </extensions>
      </trkpt>
      <trkpt lat="36.8736501596868038177490234375" lon="-118.46364188008010387420654296875">
        <ele>2504</ele>
        <time>2021-06-28T01:05:04.000Z</time>
        <extensions>
          <ns3:TrackPointExtension>
            <ns3:atemp>32.0</ns3:atemp>
            <ns3:hr>83</ns3:hr>
          </ns3:TrackPointExtension>
        </extensions>
      </trkpt>
      <trkpt lat="36.87363834120333194732666015625" lon="-118.46369720064103603363037109375">
        <ele>2503.800048828125</ele>
        <time>2021-06-28T01:05:07.000Z</time>
        <extensions>
          <ns3:TrackPointExtension>
            <ns3:atemp>32.0</ns3:atemp>
            <ns3:hr>86</ns3:hr>
          </ns3:TrackPointExtension>
        </extensions>
      </trkpt>
      <trkpt lat="36.8736183084547519683837890625" lon="-118.463715724647045135498046875">
        <ele>2503.60009765625</ele>
        <time>2021-06-28T01:05:10.000Z</time>
        <extensions>
          <ns3:TrackPointExtension>
            <ns3:atemp>32.0</ns3:atemp>
            <ns3:hr>90</ns3:hr>
          </ns3:TrackPointExtension>
        </extensions>
      </trkpt>
      <trkpt lat="36.87359961681067943572998046875" lon="-118.4637299738824367523193359375">
        <ele>2503.39990234375</ele>
        <time>2021-06-28T01:05:13.000Z</time>
        <extensions>
          <ns3:TrackPointExtension>
            <ns3:atemp>32.0</ns3:atemp>
            <ns3:hr>93</ns3:hr>
          </ns3:TrackPointExtension>
        </extensions>
      </trkpt>
      <trkpt lat="36.8735485710203647613525390625" lon="-118.46376609988510608673095703125">
        <ele>2503</ele>
        <time>2021-06-28T01:05:18.000Z</time>
        <extensions>
          <ns3:TrackPointExtension>
            <ns3:atemp>32.0</ns3:atemp>
            <ns3:hr>93</ns3:hr>
          </ns3:TrackPointExtension>
        </extensions>
      </trkpt>
      <trkpt lat="36.8735410273075103759765625" lon="-118.4637722186744213104248046875">
        <ele>2503.199951171875</ele>
        <time>2021-06-28T01:05:19.000Z</time>
        <extensions>
          <ns3:TrackPointExtension>
            <ns3:atemp>32.0</ns3:atemp>
            <ns3:hr>93</ns3:hr>
          </ns3:TrackPointExtension>
        </extensions>
      </trkpt>
      <trkpt lat="36.87350439839065074920654296875" lon="-118.463837094604969024658203125">
        <ele>2502</ele>
        <time>2021-06-28T01:05:25.000Z</time>
        <extensions>
          <ns3:TrackPointExtension>
            <ns3:atemp>32.0</ns3:atemp>
            <ns3:hr>92</ns3:hr>
          </ns3:TrackPointExtension>
        </extensions>
      </trkpt>
      <trkpt lat="36.87348947860300540924072265625" lon="-118.4638530202209949493408203125">
        <ele>2502</ele>
        <time>2021-06-28T01:05:27.000Z</time>
        <extensions>
          <ns3:TrackPointExtension>
            <ns3:atemp>32.0</ns3:atemp>
            <ns3:hr>91</ns3:hr>
          </ns3:TrackPointExtension>
        </extensions>
      </trkpt>
      <trkpt lat="36.87342393212020397186279296875" lon="-118.4639341570436954498291015625">
        <ele>2502.199951171875</ele>
        <time>2021-06-28T01:05:36.000Z</time>
        <extensions>
          <ns3:TrackPointExtension>
            <ns3:atemp>32.0</ns3:atemp>
            <ns3:hr>91</ns3:hr>
          </ns3:TrackPointExtension>
        </extensions>
      </trkpt>
      <trkpt lat="36.8734158016741275787353515625" lon="-118.4639381803572177886962890625">
        <ele>2502.199951171875</ele>
        <time>2021-06-28T01:05:37.000Z</time>
        <extensions>
          <ns3:TrackPointExtension>
            <ns3:atemp>32.0</ns3:atemp>
            <ns3:hr>90</ns3:hr>
          </ns3:TrackPointExtension>
        </extensions>
      </trkpt>
      <trkpt lat="36.873344220221042633056640625" lon="-118.4639395214617252349853515625">
        <ele>2501.60009765625</ele>
        <time>2021-06-28T01:05:44.000Z</time>
        <extensions>
          <ns3:TrackPointExtension>
            <ns3:atemp>32.0</ns3:atemp>
            <ns3:hr>88</ns3:hr>
          </ns3:TrackPointExtension>
        </extensions>
      </trkpt>
      <trkpt lat="36.87332619912922382354736328125" lon="-118.4639401920139789581298828125">
        <ele>2501.60009765625</ele>
        <time>2021-06-28T01:05:46.000Z</time>
        <extensions>
          <ns3:TrackPointExtension>
            <ns3:atemp>32.0</ns3:atemp>
            <ns3:hr>87</ns3:hr>
          </ns3:TrackPointExtension>
        </extensions>
      </trkpt>
      <trkpt lat="36.8732820264995098114013671875" lon="-118.46399509347975254058837890625">
        <ele>2501.60009765625</ele>
        <time>2021-06-28T01:05:51.000Z</time>
        <extensions>
          <ns3:TrackPointExtension>
            <ns3:atemp>32.0</ns3:atemp>
            <ns3:hr>89</ns3:hr>
          </ns3:TrackPointExtension>
        </extensions>
      </trkpt>
      <trkpt lat="36.8732620775699615478515625" lon="-118.46407153643667697906494140625">
        <ele>2500.800048828125</ele>
        <time>2021-06-28T01:05:56.000Z</time>
        <extensions>
          <ns3:TrackPointExtension>
            <ns3:atemp>32.0</ns3:atemp>
            <ns3:hr>90</ns3:hr>
          </ns3:TrackPointExtension>
        </extensions>
      </trkpt>
      <trkpt lat="36.87323726713657379150390625" lon="-118.464156277477741241455078125">
        <ele>2500.199951171875</ele>
        <time>2021-06-28T01:06:02.000Z</time>
        <extensions>
          <ns3:TrackPointExtension>
            <ns3:atemp>32.0</ns3:atemp>
            <ns3:hr>89</ns3:hr>
          </ns3:TrackPointExtension>
        </extensions>
      </trkpt>
      <trkpt lat="36.87323450110852718353271484375" lon="-118.464168347418308258056640625">
        <ele>2499.800048828125</ele>
        <time>2021-06-28T01:06:03.000Z</time>
        <extensions>
          <ns3:TrackPointExtension>
            <ns3:atemp>32.0</ns3:atemp>
            <ns3:hr>89</ns3:hr>
          </ns3:TrackPointExtension>
        </extensions>
      </trkpt>
      <trkpt lat="36.8732089363038539886474609375" lon="-118.46431092359125614166259765625">
        <ele>2499.39990234375</ele>
        <time>2021-06-28T01:06:12.000Z</time>
        <extensions>
          <ns3:TrackPointExtension>
            <ns3:atemp>32.0</ns3:atemp>
            <ns3:hr>88</ns3:hr>
          </ns3:TrackPointExtension>
        </extensions>
      </trkpt>
      <trkpt lat="36.87315437011420726776123046875" lon="-118.4644162841141223907470703125">
        <ele>2498.60009765625</ele>
        <time>2021-06-28T01:06:20.000Z</time>
        <extensions>
          <ns3:TrackPointExtension>
            <ns3:atemp>32.0</ns3:atemp>
            <ns3:hr>90</ns3:hr>
          </ns3:TrackPointExtension>
        </extensions>
      </trkpt>
      <trkpt lat="36.87315680086612701416015625" lon="-118.464502282440662384033203125">
        <ele>2498.60009765625</ele>
        <time>2021-06-28T01:06:26.000Z</time>
        <extensions>
          <ns3:TrackPointExtension>
            <ns3:atemp>32.0</ns3:atemp>
            <ns3:hr>91</ns3:hr>
          </ns3:TrackPointExtension>
        </extensions>
      </trkpt>
      <trkpt lat="36.87316224910318851470947265625" lon="-118.46453606151044368743896484375">
        <ele>2498.60009765625</ele>
        <time>2021-06-28T01:06:28.000Z</time>
        <extensions>
          <ns3:TrackPointExtension>
            <ns3:atemp>32.0</ns3:atemp>
            <ns3:hr>90</ns3:hr>
          </ns3:TrackPointExtension>
        </extensions>
      </trkpt>
      <trkpt lat="36.87319711782038211822509765625" lon="-118.46455098129808902740478515625">
        <ele>2497.800048828125</ele>
        <time>2021-06-28T01:06:32.000Z</time>
        <extensions>
          <ns3:TrackPointExtension>
            <ns3:atemp>32.0</ns3:atemp>
            <ns3:hr>89</ns3:hr>
          </ns3:TrackPointExtension>
        </extensions>
      </trkpt>
      <trkpt lat="36.873203404247760772705078125" lon="-118.46454679034650325775146484375">
        <ele>2497.800048828125</ele>
        <time>2021-06-28T01:06:33.000Z</time>
        <extensions>
          <ns3:TrackPointExtension>
            <ns3:atemp>32.0</ns3:atemp>
            <ns3:hr>87</ns3:hr>
          </ns3:TrackPointExtension>
        </extensions>
      </trkpt>
      <trkpt lat="36.8732012249529361724853515625" lon="-118.4645530767738819122314453125">
        <ele>2497.800048828125</ele>
        <time>2021-06-28T01:06:35.000Z</time>
        <extensions>
          <ns3:TrackPointExtension>
            <ns3:atemp>32.0</ns3:atemp>
            <ns3:hr>85</ns3:hr>
          </ns3:TrackPointExtension>
        </extensions>
      </trkpt>
      <trkpt lat="36.8732030689716339111328125" lon="-118.464549221098423004150390625">
        <ele>2497.800048828125</ele>
        <time>2021-06-28T01:06:37.000Z</time>
        <extensions>
          <ns3:TrackPointExtension>
            <ns3:atemp>32.0</ns3:atemp>
            <ns3:hr>83</ns3:hr>
          </ns3:TrackPointExtension>
        </extensions>
      </trkpt>
      <trkpt lat="36.873217485845088958740234375" lon="-118.46454746089875698089599609375">
        <ele>2498</ele>
        <time>2021-06-28T01:06:43.000Z</time>
        <extensions>
          <ns3:TrackPointExtension>
            <ns3:atemp>32.0</ns3:atemp>
            <ns3:hr>85</ns3:hr>
          </ns3:TrackPointExtension>
        </extensions>
      </trkpt>
      <trkpt lat="36.873217485845088958740234375" lon="-118.46454746089875698089599609375">
        <ele>2498</ele>
        <time>2021-06-28T01:06:59.000Z</time>
        <extensions>
          <ns3:TrackPointExtension>
            <ns3:atemp>32.0</ns3:atemp>
            <ns3:hr>88</ns3:hr>
          </ns3:TrackPointExtension>
        </extensions>
      </trkpt>
      <trkpt lat="36.8732253648340702056884765625" lon="-118.464598171412944793701171875">
        <ele>2497.60009765625</ele>
        <time>2021-06-28T01:07:04.000Z</time>
        <extensions>
          <ns3:TrackPointExtension>
            <ns3:atemp>32.0</ns3:atemp>
            <ns3:hr>90</ns3:hr>
          </ns3:TrackPointExtension>
        </extensions>
      </trkpt>
      <trkpt lat="36.873226873576641082763671875" lon="-118.464600183069705963134765625">
        <ele>2497.60009765625</ele>
        <time>2021-06-28T01:07:05.000Z</time>
        <extensions>
          <ns3:TrackPointExtension>
            <ns3:atemp>32.0</ns3:atemp>
            <ns3:hr>91</ns3:hr>
          </ns3:TrackPointExtension>
        </extensions>
      </trkpt>
      <trkpt lat="36.87323483638465404510498046875" lon="-118.4646110795438289642333984375">
        <ele>2497.800048828125</ele>
        <time>2021-06-28T01:07:09.000Z</time>
        <extensions>
          <ns3:TrackPointExtension>
            <ns3:atemp>32.0</ns3:atemp>
            <ns3:hr>94</ns3:hr>
          </ns3:TrackPointExtension>
        </extensions>
      </trkpt>
      <trkpt lat="36.87324606813490390777587890625" lon="-118.464607559144496917724609375">
        <ele>2497.800048828125</ele>
        <time>2021-06-28T01:07:11.000Z</time>
        <extensions>
          <ns3:TrackPointExtension>
            <ns3:atemp>32.0</ns3:atemp>
            <ns3:hr>93</ns3:hr>
          </ns3:TrackPointExtension>
        </extensions>
      </trkpt>
      <trkpt lat="36.8732635863125324249267578125" lon="-118.46459406428039073944091796875">
        <ele>2497.800048828125</ele>
        <time>2021-06-28T01:07:18.000Z</time>
        <extensions>
          <ns3:TrackPointExtension>
            <ns3:atemp>32.0</ns3:atemp>
            <ns3:hr>90</ns3:hr>
          </ns3:TrackPointExtension>
        </extensions>
      </trkpt>
      <trkpt lat="36.87324925325810909271240234375" lon="-118.46464402042329311370849609375">
        <ele>2497.800048828125</ele>
        <time>2021-06-28T01:07:28.000Z</time>
        <extensions>
          <ns3:TrackPointExtension>
            <ns3:atemp>32.0</ns3:atemp>
            <ns3:hr>91</ns3:hr>
          </ns3:TrackPointExtension>
        </extensions>
      </trkpt>
      <trkpt lat="36.8732411228120326995849609375" lon="-118.4646938927471637725830078125">
        <ele>2497.60009765625</ele>
        <time>2021-06-28T01:07:31.000Z</time>
        <extensions>
          <ns3:TrackPointExtension>
            <ns3:atemp>32.0</ns3:atemp>
            <ns3:hr>94</ns3:hr>
          </ns3:TrackPointExtension>
        </extensions>
      </trkpt>
      <trkpt lat="36.8732035718858242034912109375" lon="-118.464772514998912811279296875">
        <ele>2497.39990234375</ele>
        <time>2021-06-28T01:07:36.000Z</time>
        <extensions>
          <ns3:TrackPointExtension>
            <ns3:atemp>32.0</ns3:atemp>
            <ns3:hr>97</ns3:hr>
          </ns3:TrackPointExtension>
        </extensions>
      </trkpt>
      <trkpt lat="36.8732003867626190185546875" lon="-118.4647897817194461822509765625">
        <ele>2497.39990234375</ele>
        <time>2021-06-28T01:07:37.000Z</time>
        <extensions>
          <ns3:TrackPointExtension>
            <ns3:atemp>32.0</ns3:atemp>
            <ns3:hr>95</ns3:hr>
          </ns3:TrackPointExtension>
        </extensions>
      </trkpt>
      <trkpt lat="36.873202063143253326416015625" lon="-118.4648618660867214202880859375">
        <ele>2497.60009765625</ele>
        <time>2021-06-28T01:07:42.000Z</time>
        <extensions>
          <ns3:TrackPointExtension>
            <ns3:atemp>32.0</ns3:atemp>
            <ns3:hr>90</ns3:hr>
          </ns3:TrackPointExtension>
        </extensions>
      </trkpt>
      <trkpt lat="36.87319879420101642608642578125" lon="-118.46487519331276416778564453125">
        <ele>2497.60009765625</ele>
        <time>2021-06-28T01:07:43.000Z</time>
        <extensions>
          <ns3:TrackPointExtension>
            <ns3:atemp>32.0</ns3:atemp>
            <ns3:hr>95</ns3:hr>
          </ns3:TrackPointExtension>
        </extensions>
      </trkpt>
      <trkpt lat="36.8731757439672946929931640625" lon="-118.46493034623563289642333984375">
        <ele>2497.39990234375</ele>
        <time>2021-06-28T01:07:48.000Z</time>
        <extensions>
          <ns3:TrackPointExtension>
            <ns3:atemp>32.0</ns3:atemp>
            <ns3:hr>98</ns3:hr>
          </ns3:TrackPointExtension>
        </extensions>
      </trkpt>
      <trkpt lat="36.87317423522472381591796875" lon="-118.4649423323571681976318359375">
        <ele>2497.39990234375</ele>
        <time>2021-06-28T01:07:49.000Z</time>
        <extensions>
          <ns3:TrackPointExtension>
            <ns3:atemp>32.0</ns3:atemp>
            <ns3:hr>96</ns3:hr>
          </ns3:TrackPointExtension>
        </extensions>
      </trkpt>
      <trkpt lat="36.87317733652889728546142578125" lon="-118.464975021779537200927734375">
        <ele>2497</ele>
        <time>2021-06-28T01:07:51.000Z</time>
        <extensions>
          <ns3:TrackPointExtension>
            <ns3:atemp>32.0</ns3:atemp>
            <ns3:hr>94</ns3:hr>
          </ns3:TrackPointExtension>
        </extensions>
      </trkpt>
      <trkpt lat="36.8731837905943393707275390625" lon="-118.464990444481372833251953125">
        <ele>2497</ele>
        <time>2021-06-28T01:07:52.000Z</time>
        <extensions>
          <ns3:TrackPointExtension>
            <ns3:atemp>32.0</ns3:atemp>
            <ns3:hr>92</ns3:hr>
          </ns3:TrackPointExtension>
        </extensions>
      </trkpt>
      <trkpt lat="36.87319108285009860992431640625" lon="-118.46502036787569522857666015625">
        <ele>2496.800048828125</ele>
        <time>2021-06-28T01:07:54.000Z</time>
        <extensions>
          <ns3:TrackPointExtension>
            <ns3:atemp>32.0</ns3:atemp>
            <ns3:hr>94</ns3:hr>
          </ns3:TrackPointExtension>
        </extensions>
      </trkpt>
      <trkpt lat="36.87320097349584102630615234375" lon="-118.46506847999989986419677734375">
        <ele>2497</ele>
        <time>2021-06-28T01:07:57.000Z</time>
        <extensions>
          <ns3:TrackPointExtension>
            <ns3:atemp>32.0</ns3:atemp>
            <ns3:hr>95</ns3:hr>
          </ns3:TrackPointExtension>
        </extensions>
      </trkpt>
      <trkpt lat="36.873231567442417144775390625" lon="-118.46520602703094482421875">
        <ele>2496.800048828125</ele>
        <time>2021-06-28T01:08:06.000Z</time>
        <extensions>
          <ns3:TrackPointExtension>
            <ns3:atemp>32.0</ns3:atemp>
            <ns3:hr>92</ns3:hr>
          </ns3:TrackPointExtension>
        </extensions>
      </trkpt>
      <trkpt lat="36.87325160019099712371826171875" lon="-118.46526034176349639892578125">
        <ele>2496.39990234375</ele>
        <time>2021-06-28T01:08:10.000Z</time>
        <extensions>
          <ns3:TrackPointExtension>
            <ns3:atemp>32.0</ns3:atemp>
            <ns3:hr>91</ns3:hr>
          </ns3:TrackPointExtension>
        </extensions>
      </trkpt>
      <trkpt lat="36.87325604259967803955078125" lon="-118.4652744233608245849609375">
        <ele>2496.39990234375</ele>
        <time>2021-06-28T01:08:11.000Z</time>
        <extensions>
          <ns3:TrackPointExtension>
            <ns3:atemp>32.0</ns3:atemp>
            <ns3:hr>94</ns3:hr>
          </ns3:TrackPointExtension>
        </extensions>
      </trkpt>
      <trkpt lat="36.87328630127012729644775390625" lon="-118.4653071127831935882568359375">
        <ele>2496.199951171875</ele>
        <time>2021-06-28T01:08:14.000Z</time>
        <extensions>
          <ns3:TrackPointExtension>
            <ns3:atemp>32.0</ns3:atemp>
            <ns3:hr>96</ns3:hr>
          </ns3:TrackPointExtension>
        </extensions>
      </trkpt>
      <trkpt lat="36.87335838563740253448486328125" lon="-118.46534625627100467681884765625">
        <ele>2495.60009765625</ele>
        <time>2021-06-28T01:08:21.000Z</time>
        <extensions>
          <ns3:TrackPointExtension>
            <ns3:atemp>32.0</ns3:atemp>
            <ns3:hr>94</ns3:hr>
          </ns3:TrackPointExtension>
        </extensions>
      </trkpt>
      <trkpt lat="36.87338219024240970611572265625" lon="-118.4653812088072299957275390625">
        <ele>2495.39990234375</ele>
        <time>2021-06-28T01:08:24.000Z</time>
        <extensions>
          <ns3:TrackPointExtension>
            <ns3:atemp>32.0</ns3:atemp>
            <ns3:hr>93</ns3:hr>
          </ns3:TrackPointExtension>
        </extensions>
      </trkpt>
      <trkpt lat="36.87341420911252498626708984375" lon="-118.4654348529875278472900390625">
        <ele>2495.39990234375</ele>
        <time>2021-06-28T01:08:29.000Z</time>
        <extensions>
          <ns3:TrackPointExtension>
            <ns3:atemp>32.0</ns3:atemp>
            <ns3:hr>94</ns3:hr>
          </ns3:TrackPointExtension>
        </extensions>
      </trkpt>
      <trkpt lat="36.87343130819499492645263671875" lon="-118.46547131426632404327392578125">
        <ele>2495.39990234375</ele>
        <time>2021-06-28T01:08:32.000Z</time>
        <extensions>
          <ns3:TrackPointExtension>
            <ns3:atemp>32.0</ns3:atemp>
            <ns3:hr>91</ns3:hr>
          </ns3:TrackPointExtension>
        </extensions>
      </trkpt>
      <trkpt lat="36.87351110391318798065185546875" lon="-118.4655511938035488128662109375">
        <ele>2496.199951171875</ele>
        <time>2021-06-28T01:08:40.000Z</time>
        <extensions>
          <ns3:TrackPointExtension>
            <ns3:atemp>32.0</ns3:atemp>
            <ns3:hr>94</ns3:hr>
          </ns3:TrackPointExtension>
        </extensions>
      </trkpt>
      <trkpt lat="36.8735914863646030426025390625" lon="-118.465621769428253173828125">
        <ele>2496.199951171875</ele>
        <time>2021-06-28T01:08:48.000Z</time>
        <extensions>
          <ns3:TrackPointExtension>
            <ns3:atemp>32.0</ns3:atemp>
            <ns3:hr>98</ns3:hr>
          </ns3:TrackPointExtension>
        </extensions>
      </trkpt>
      <trkpt lat="36.8736188113689422607421875" lon="-118.465621434152126312255859375">
        <ele>2496</ele>
        <time>2021-06-28T01:08:50.000Z</time>
        <extensions>
          <ns3:TrackPointExtension>
            <ns3:atemp>32.0</ns3:atemp>
            <ns3:hr>97</ns3:hr>
          </ns3:TrackPointExtension>
        </extensions>
      </trkpt>
      <trkpt lat="36.87367052771151065826416015625" lon="-118.465642221271991729736328125">
        <ele>2496.39990234375</ele>
        <time>2021-06-28T01:08:55.000Z</time>
        <extensions>
          <ns3:TrackPointExtension>
            <ns3:atemp>32.0</ns3:atemp>
            <ns3:hr>98</ns3:hr>
          </ns3:TrackPointExtension>
        </extensions>
      </trkpt>
      <trkpt lat="36.87367354519665241241455078125" lon="-118.46567348577082157135009765625">
        <ele>2496.800048828125</ele>
        <time>2021-06-28T01:08:57.000Z</time>
        <extensions>
          <ns3:TrackPointExtension>
            <ns3:atemp>32.0</ns3:atemp>
            <ns3:hr>99</ns3:hr>
          </ns3:TrackPointExtension>
        </extensions>
      </trkpt>
      <trkpt lat="36.87375091016292572021484375" lon="-118.46575294621288776397705078125">
        <ele>2496.800048828125</ele>
        <time>2021-06-28T01:09:06.000Z</time>
        <extensions>
          <ns3:TrackPointExtension>
            <ns3:atemp>32.0</ns3:atemp>
            <ns3:hr>101</ns3:hr>
          </ns3:TrackPointExtension>
        </extensions>
      </trkpt>
      <trkpt lat="36.8737869523465633392333984375" lon="-118.465777672827243804931640625">
        <ele>2496.60009765625</ele>
        <time>2021-06-28T01:09:09.000Z</time>
        <extensions>
          <ns3:TrackPointExtension>
            <ns3:atemp>32.0</ns3:atemp>
            <ns3:hr>101</ns3:hr>
          </ns3:TrackPointExtension>
        </extensions>
      </trkpt>
      <trkpt lat="36.873822323977947235107421875" lon="-118.46580156125128269195556640625">
        <ele>2496.39990234375</ele>
        <time>2021-06-28T01:09:13.000Z</time>
        <extensions>
          <ns3:TrackPointExtension>
            <ns3:atemp>32.0</ns3:atemp>
            <ns3:hr>101</ns3:hr>
          </ns3:TrackPointExtension>
        </extensions>
      </trkpt>
      <trkpt lat="36.873883344233036041259765625" lon="-118.465856797993183135986328125">
        <ele>2496.60009765625</ele>
        <time>2021-06-28T01:09:20.000Z</time>
        <extensions>
          <ns3:TrackPointExtension>
            <ns3:atemp>32.0</ns3:atemp>
            <ns3:hr>100</ns3:hr>
          </ns3:TrackPointExtension>
        </extensions>
      </trkpt>
      <trkpt lat="36.8738923966884613037109375" lon="-118.4658633358776569366455078125">
        <ele>2496.60009765625</ele>
        <time>2021-06-28T01:09:21.000Z</time>
        <extensions>
          <ns3:TrackPointExtension>
            <ns3:atemp>32.0</ns3:atemp>
            <ns3:hr>100</ns3:hr>
          </ns3:TrackPointExtension>
        </extensions>
      </trkpt>
      <trkpt lat="36.87395098619163036346435546875" lon="-118.46593231894075870513916015625">
        <ele>2497</ele>
        <time>2021-06-28T01:09:28.000Z</time>
        <extensions>
          <ns3:TrackPointExtension>
            <ns3:atemp>32.0</ns3:atemp>
            <ns3:hr>100</ns3:hr>
          </ns3:TrackPointExtension>
        </extensions>
      </trkpt>
      <trkpt lat="36.873986609280109405517578125" lon="-118.46598814241588115692138671875">
        <ele>2497</ele>
        <time>2021-06-28T01:09:33.000Z</time>
        <extensions>
          <ns3:TrackPointExtension>
            <ns3:atemp>32.0</ns3:atemp>
            <ns3:hr>103</ns3:hr>
          </ns3:TrackPointExtension>
        </extensions>
      </trkpt>
      <trkpt lat="36.873998679220676422119140625" lon="-118.46599551849067211151123046875">
        <ele>2497</ele>
        <time>2021-06-28T01:09:34.000Z</time>
        <extensions>
          <ns3:TrackPointExtension>
            <ns3:atemp>32.0</ns3:atemp>
            <ns3:hr>100</ns3:hr>
          </ns3:TrackPointExtension>
        </extensions>
      </trkpt>
      <trkpt lat="36.8740213103592395782470703125" lon="-118.46600742079317569732666015625">
        <ele>2497.60009765625</ele>
        <time>2021-06-28T01:09:36.000Z</time>
        <extensions>
          <ns3:TrackPointExtension>
            <ns3:atemp>32.0</ns3:atemp>
            <ns3:hr>100</ns3:hr>
          </ns3:TrackPointExtension>
        </extensions>
      </trkpt>
      <trkpt lat="36.874032877385616302490234375" lon="-118.46601295284926891326904296875">
        <ele>2497.800048828125</ele>
        <time>2021-06-28T01:09:37.000Z</time>
        <extensions>
          <ns3:TrackPointExtension>
            <ns3:atemp>32.0</ns3:atemp>
            <ns3:hr>100</ns3:hr>
          </ns3:TrackPointExtension>
        </extensions>
      </trkpt>
      <trkpt lat="36.874113343656063079833984375" lon="-118.4660953469574451446533203125">
        <ele>2497.800048828125</ele>
        <time>2021-06-28T01:09:46.000Z</time>
        <extensions>
          <ns3:TrackPointExtension>
            <ns3:atemp>32.0</ns3:atemp>
            <ns3:hr>102</ns3:hr>
          </ns3:TrackPointExtension>
        </extensions>
      </trkpt>
      <trkpt lat="36.8741500563919544219970703125" lon="-118.4661590494215488433837890625">
        <ele>2498.39990234375</ele>
        <time>2021-06-28T01:09:52.000Z</time>
        <extensions>
          <ns3:TrackPointExtension>
            <ns3:atemp>33.0</ns3:atemp>
            <ns3:hr>105</ns3:hr>
          </ns3:TrackPointExtension>
        </extensions>
      </trkpt>
      <trkpt lat="36.874162293970584869384765625" lon="-118.466177321970462799072265625">
        <ele>2498.39990234375</ele>
        <time>2021-06-28T01:09:54.000Z</time>
        <extensions>
          <ns3:TrackPointExtension>
            <ns3:atemp>33.0</ns3:atemp>
            <ns3:hr>105</ns3:hr>
          </ns3:TrackPointExtension>
        </extensions>
      </trkpt>
      <trkpt lat="36.87417293898761272430419921875" lon="-118.46619031392037868499755859375">
        <ele>2498.39990234375</ele>
        <time>2021-06-28T01:09:55.000Z</time>
        <extensions>
          <ns3:TrackPointExtension>
            <ns3:atemp>33.0</ns3:atemp>
            <ns3:hr>105</ns3:hr>
          </ns3:TrackPointExtension>
        </extensions>
      </trkpt>
      <trkpt lat="36.87419439665973186492919921875" lon="-118.46624814905226230621337890625">
        <ele>2498.60009765625</ele>
        <time>2021-06-28T01:10:01.000Z</time>
        <extensions>
          <ns3:TrackPointExtension>
            <ns3:atemp>33.0</ns3:atemp>
            <ns3:hr>107</ns3:hr>
          </ns3:TrackPointExtension>
        </extensions>
      </trkpt>
      <trkpt lat="36.87419875524938106536865234375" lon="-118.46625871025025844573974609375">
        <ele>2498.60009765625</ele>
        <time>2021-06-28T01:10:02.000Z</time>
        <extensions>
          <ns3:TrackPointExtension>
            <ns3:atemp>33.0</ns3:atemp>
            <ns3:hr>108</ns3:hr>
          </ns3:TrackPointExtension>
        </extensions>
      </trkpt>
      <trkpt lat="36.87425625510513782501220703125" lon="-118.46639650873839855194091796875">
        <ele>2499.199951171875</ele>
        <time>2021-06-28T01:10:13.000Z</time>
        <extensions>
          <ns3:TrackPointExtension>
            <ns3:atemp>33.0</ns3:atemp>
            <ns3:hr>108</ns3:hr>
          </ns3:TrackPointExtension>
        </extensions>
      </trkpt>
      <trkpt lat="36.8742610327899456024169921875" lon="-118.46651284955441951751708984375">
        <ele>2499.199951171875</ele>
        <time>2021-06-28T01:10:22.000Z</time>
        <extensions>
          <ns3:TrackPointExtension>
            <ns3:atemp>33.0</ns3:atemp>
            <ns3:hr>108</ns3:hr>
          </ns3:TrackPointExtension>
        </extensions>
      </trkpt>
      <trkpt lat="36.874258518218994140625" lon="-118.46653665415942668914794921875">
        <ele>2499.39990234375</ele>
        <time>2021-06-28T01:10:24.000Z</time>
        <extensions>
          <ns3:TrackPointExtension>
            <ns3:atemp>33.0</ns3:atemp>
            <ns3:hr>105</ns3:hr>
          </ns3:TrackPointExtension>
        </extensions>
      </trkpt>
      <trkpt lat="36.87425826676189899444580078125" lon="-118.46659482456743717193603515625">
        <ele>2499.39990234375</ele>
        <time>2021-06-28T01:10:28.000Z</time>
        <extensions>
          <ns3:TrackPointExtension>
            <ns3:atemp>33.0</ns3:atemp>
            <ns3:hr>104</ns3:hr>
          </ns3:TrackPointExtension>
        </extensions>
      </trkpt>
      <trkpt lat="36.87426765449345111846923828125" lon="-118.4666155278682708740234375">
        <ele>2499.60009765625</ele>
        <time>2021-06-28T01:10:30.000Z</time>
        <extensions>
          <ns3:TrackPointExtension>
            <ns3:atemp>33.0</ns3:atemp>
            <ns3:hr>103</ns3:hr>
          </ns3:TrackPointExtension>
        </extensions>
      </trkpt>
      <trkpt lat="36.87428257428109645843505859375" lon="-118.466631285846233367919921875">
        <ele>2499.60009765625</ele>
        <time>2021-06-28T01:10:33.000Z</time>
        <extensions>
          <ns3:TrackPointExtension>
            <ns3:atemp>33.0</ns3:atemp>
            <ns3:hr>101</ns3:hr>
          </ns3:TrackPointExtension>
        </extensions>
      </trkpt>
      <trkpt lat="36.87429548241198062896728515625" lon="-118.4666696749627590179443359375">
        <ele>2499.39990234375</ele>
        <time>2021-06-28T01:10:36.000Z</time>
        <extensions>
          <ns3:TrackPointExtension>
            <ns3:atemp>33.0</ns3:atemp>
            <ns3:hr>102</ns3:hr>
          </ns3:TrackPointExtension>
        </extensions>
      </trkpt>
      <trkpt lat="36.87429883517324924468994140625" lon="-118.4666864387691020965576171875">
        <ele>2499.39990234375</ele>
        <time>2021-06-28T01:10:37.000Z</time>
        <extensions>
          <ns3:TrackPointExtension>
            <ns3:atemp>33.0</ns3:atemp>
            <ns3:hr>101</ns3:hr>
          </ns3:TrackPointExtension>
        </extensions>
      </trkpt>
      <trkpt lat="36.87429808080196380615234375" lon="-118.466731198132038116455078125">
        <ele>2499.199951171875</ele>
        <time>2021-06-28T01:10:41.000Z</time>
        <extensions>
          <ns3:TrackPointExtension>
            <ns3:atemp>33.0</ns3:atemp>
            <ns3:hr>101</ns3:hr>
          </ns3:TrackPointExtension>
        </extensions>
      </trkpt>
      <trkpt lat="36.87428257428109645843505859375" lon="-118.466752655804157257080078125">
        <ele>2499</ele>
        <time>2021-06-28T01:10:43.000Z</time>
        <extensions>
          <ns3:TrackPointExtension>
            <ns3:atemp>33.0</ns3:atemp>
            <ns3:hr>101</ns3:hr>
          </ns3:TrackPointExtension>
        </extensions>
      </trkpt>
      <trkpt lat="36.87426094897091388702392578125" lon="-118.4667943976819515228271484375">
        <ele>2498.60009765625</ele>
        <time>2021-06-28T01:10:49.000Z</time>
        <extensions>
          <ns3:TrackPointExtension>
            <ns3:atemp>33.0</ns3:atemp>
            <ns3:hr>103</ns3:hr>
          </ns3:TrackPointExtension>
        </extensions>
      </trkpt>
      <trkpt lat="36.87426480464637279510498046875" lon="-118.46679330803453922271728515625">
        <ele>2498.60009765625</ele>
        <time>2021-06-28T01:10:50.000Z</time>
        <extensions>
          <ns3:TrackPointExtension>
            <ns3:atemp>33.0</ns3:atemp>
            <ns3:hr>104</ns3:hr>
          </ns3:TrackPointExtension>
        </extensions>
      </trkpt>
      <trkpt lat="36.8742684088647365570068359375" lon="-118.46679062582552433013916015625">
        <ele>2498.800048828125</ele>
        <time>2021-06-28T01:10:51.000Z</time>
        <extensions>
          <ns3:TrackPointExtension>
            <ns3:atemp>33.0</ns3:atemp>
            <ns3:hr>104</ns3:hr>
          </ns3:TrackPointExtension>
        </extensions>
      </trkpt>
      <trkpt lat="36.874276287853717803955078125" lon="-118.46677847206592559814453125">
        <ele>2498.800048828125</ele>
        <time>2021-06-28T01:11:01.000Z</time>
        <extensions>
          <ns3:TrackPointExtension>
            <ns3:atemp>33.0</ns3:atemp>
            <ns3:hr>101</ns3:hr>
          </ns3:TrackPointExtension>
        </extensions>
      </trkpt>
      <trkpt lat="36.874276287853717803955078125" lon="-118.46677847206592559814453125">
        <ele>2498.800048828125</ele>
        <time>2021-06-28T01:11:03.000Z</time>
        <extensions>
          <ns3:TrackPointExtension>
            <ns3:atemp>33.0</ns3:atemp>
            <ns3:hr>98</ns3:hr>
          </ns3:TrackPointExtension>
        </extensions>
      </trkpt>
      <trkpt lat="36.874276287853717803955078125" lon="-118.46677847206592559814453125">
        <ele>2498.800048828125</ele>
        <time>2021-06-28T01:11:04.000Z</time>
        <extensions>
          <ns3:TrackPointExtension>
            <ns3:atemp>33.0</ns3:atemp>
            <ns3:hr>93</ns3:hr>
          </ns3:TrackPointExtension>
        </extensions>
      </trkpt>
      <trkpt lat="36.874276287853717803955078125" lon="-118.46677847206592559814453125">
        <ele>2498.800048828125</ele>
        <time>2021-06-28T01:11:07.000Z</time>
        <extensions>
          <ns3:TrackPointExtension>
            <ns3:atemp>33.0</ns3:atemp>
            <ns3:hr>90</ns3:hr>
          </ns3:TrackPointExtension>
        </extensions>
      </trkpt>
      <trkpt lat="36.874276287853717803955078125" lon="-118.46677889116108417510986328125">
        <ele>2498.800048828125</ele>
        <time>2021-06-28T01:11:10.000Z</time>
        <extensions>
          <ns3:TrackPointExtension>
            <ns3:atemp>33.0</ns3:atemp>
            <ns3:hr>87</ns3:hr>
          </ns3:TrackPointExtension>
        </extensions>
      </trkpt>
      <trkpt lat="36.8742905370891094207763671875" lon="-118.46678241156041622161865234375">
        <ele>2498.800048828125</ele>
        <time>2021-06-28T01:11:29.000Z</time>
        <extensions>
          <ns3:TrackPointExtension>
            <ns3:atemp>33.0</ns3:atemp>
            <ns3:hr>89</ns3:hr>
          </ns3:TrackPointExtension>
        </extensions>
      </trkpt>
      <trkpt lat="36.87429548241198062896728515625" lon="-118.4667907096445560455322265625">
        <ele>2498.800048828125</ele>
        <time>2021-06-28T01:11:42.000Z</time>
        <extensions>
          <ns3:TrackPointExtension>
            <ns3:atemp>32.0</ns3:atemp>
            <ns3:hr>92</ns3:hr>
          </ns3:TrackPointExtension>
        </extensions>
      </trkpt>
      <trkpt lat="36.87429414130747318267822265625" lon="-118.46679414622485637664794921875">
        <ele>2498.800048828125</ele>
        <time>2021-06-28T01:11:45.000Z</time>
        <extensions>
          <ns3:TrackPointExtension>
            <ns3:atemp>32.0</ns3:atemp>
            <ns3:hr>95</ns3:hr>
          </ns3:TrackPointExtension>
        </extensions>
      </trkpt>
      <trkpt lat="36.874255500733852386474609375" lon="-118.46683186478912830352783203125">
        <ele>2498.800048828125</ele>
        <time>2021-06-28T01:11:56.000Z</time>
        <extensions>
          <ns3:TrackPointExtension>
            <ns3:atemp>32.0</ns3:atemp>
            <ns3:hr>94</ns3:hr>
          </ns3:TrackPointExtension>
        </extensions>
      </trkpt>
      <trkpt lat="36.8742399103939533233642578125" lon="-118.4668430127203464508056640625">
        <ele>2498.800048828125</ele>
        <time>2021-06-28T01:11:58.000Z</time>
        <extensions>
          <ns3:TrackPointExtension>
            <ns3:atemp>32.0</ns3:atemp>
            <ns3:hr>91</ns3:hr>
          </ns3:TrackPointExtension>
        </extensions>
      </trkpt>
      <trkpt lat="36.8742303550243377685546875" lon="-118.46686170436441898345947265625">
        <ele>2498.800048828125</ele>
        <time>2021-06-28T01:12:00.000Z</time>
        <extensions>
          <ns3:TrackPointExtension>
            <ns3:atemp>32.0</ns3:atemp>
            <ns3:hr>88</ns3:hr>
          </ns3:TrackPointExtension>
        </extensions>
      </trkpt>
      <trkpt lat="36.87422825954854488372802734375" lon="-118.46686522476375102996826171875">
        <ele>2498.800048828125</ele>
        <time>2021-06-28T01:12:02.000Z</time>
        <extensions>
          <ns3:TrackPointExtension>
            <ns3:atemp>32.0</ns3:atemp>
            <ns3:hr>84</ns3:hr>
          </ns3:TrackPointExtension>
        </extensions>
      </trkpt>
      <trkpt lat="36.87423245050013065338134765625" lon="-118.46687771379947662353515625">
        <ele>2498.800048828125</ele>
        <time>2021-06-28T01:12:09.000Z</time>
        <extensions>
          <ns3:TrackPointExtension>
            <ns3:atemp>32.0</ns3:atemp>
            <ns3:hr>85</ns3:hr>
          </ns3:TrackPointExtension>
        </extensions>
      </trkpt>
      <trkpt lat="36.87423638999462127685546875" lon="-118.46687771379947662353515625">
        <ele>2498.800048828125</ele>
        <time>2021-06-28T01:12:24.000Z</time>
        <extensions>
          <ns3:TrackPointExtension>
            <ns3:atemp>32.0</ns3:atemp>
            <ns3:hr>85</ns3:hr>
          </ns3:TrackPointExtension>
        </extensions>
      </trkpt>
      <trkpt lat="36.87425575219094753265380859375" lon="-118.46687997691333293914794921875">
        <ele>2498.800048828125</ele>
        <time>2021-06-28T01:12:38.000Z</time>
        <extensions>
          <ns3:TrackPointExtension>
            <ns3:atemp>32.0</ns3:atemp>
            <ns3:hr>88</ns3:hr>
          </ns3:TrackPointExtension>
        </extensions>
      </trkpt>
      <trkpt lat="36.8742385692894458770751953125" lon="-118.4669722616672515869140625">
        <ele>2498.800048828125</ele>
        <time>2021-06-28T01:12:44.000Z</time>
        <extensions>
          <ns3:TrackPointExtension>
            <ns3:atemp>32.0</ns3:atemp>
            <ns3:hr>87</ns3:hr>
          </ns3:TrackPointExtension>
        </extensions>
      </trkpt>
      <trkpt lat="36.87419372610747814178466796875" lon="-118.46708290278911590576171875">
        <ele>2498.800048828125</ele>
        <time>2021-06-28T01:12:51.000Z</time>
        <extensions>
          <ns3:TrackPointExtension>
            <ns3:atemp>32.0</ns3:atemp>
            <ns3:hr>84</ns3:hr>
          </ns3:TrackPointExtension>
        </extensions>
      </trkpt>
      <trkpt lat="36.87416086904704570770263671875" lon="-118.46712254919111728668212890625">
        <ele>2498.39990234375</ele>
        <time>2021-06-28T01:12:55.000Z</time>
        <extensions>
          <ns3:TrackPointExtension>
            <ns3:atemp>32.0</ns3:atemp>
            <ns3:hr>84</ns3:hr>
          </ns3:TrackPointExtension>
        </extensions>
      </trkpt>
      <trkpt lat="36.87410227954387664794921875" lon="-118.4671841561794281005859375">
        <ele>2497.39990234375</ele>
        <time>2021-06-28T01:13:01.000Z</time>
        <extensions>
          <ns3:TrackPointExtension>
            <ns3:atemp>32.0</ns3:atemp>
            <ns3:hr>85</ns3:hr>
          </ns3:TrackPointExtension>
        </extensions>
      </trkpt>
      <trkpt lat="36.87408023513853549957275390625" lon="-118.467228412628173828125">
        <ele>2496.800048828125</ele>
        <time>2021-06-28T01:13:03.000Z</time>
        <extensions>
          <ns3:TrackPointExtension>
            <ns3:atemp>32.0</ns3:atemp>
            <ns3:hr>85</ns3:hr>
          </ns3:TrackPointExtension>
        </extensions>
      </trkpt>
      <trkpt lat="36.87403882853686809539794921875" lon="-118.46734785474836826324462890625">
        <ele>2497</ele>
        <time>2021-06-28T01:13:11.000Z</time>
        <extensions>
          <ns3:TrackPointExtension>
            <ns3:atemp>32.0</ns3:atemp>
            <ns3:hr>84</ns3:hr>
          </ns3:TrackPointExtension>
        </extensions>
      </trkpt>
      <trkpt lat="36.874025501310825347900390625" lon="-118.4673853218555450439453125">
        <ele>2497.800048828125</ele>
        <time>2021-06-28T01:13:14.000Z</time>
        <extensions>
          <ns3:TrackPointExtension>
            <ns3:atemp>32.0</ns3:atemp>
            <ns3:hr>81</ns3:hr>
          </ns3:TrackPointExtension>
        </extensions>
      </trkpt>
      <trkpt lat="36.8740105815231800079345703125" lon="-118.467405773699283599853515625">
        <ele>2497.800048828125</ele>
        <time>2021-06-28T01:13:19.000Z</time>
        <extensions>
          <ns3:TrackPointExtension>
            <ns3:atemp>32.0</ns3:atemp>
            <ns3:hr>80</ns3:hr>
          </ns3:TrackPointExtension>
        </extensions>
      </trkpt>
      <trkpt lat="36.87402005307376384735107421875" lon="-118.4673960506916046142578125">
        <ele>2497.800048828125</ele>
        <time>2021-06-28T01:13:20.000Z</time>
        <extensions>
          <ns3:TrackPointExtension>
            <ns3:atemp>32.0</ns3:atemp>
            <ns3:hr>79</ns3:hr>
          </ns3:TrackPointExtension>
        </extensions>
      </trkpt>
      <trkpt lat="36.8740139342844486236572265625" lon="-118.46742295660078525543212890625">
        <ele>2497.800048828125</ele>
        <time>2021-06-28T01:13:24.000Z</time>
        <extensions>
          <ns3:TrackPointExtension>
            <ns3:atemp>32.0</ns3:atemp>
            <ns3:hr>82</ns3:hr>
          </ns3:TrackPointExtension>
        </extensions>
      </trkpt>
      <trkpt lat="36.87401955015957355499267578125" lon="-118.46742580644786357879638671875">
        <ele>2497.60009765625</ele>
        <time>2021-06-28T01:13:31.000Z</time>
        <extensions>
          <ns3:TrackPointExtension>
            <ns3:atemp>32.0</ns3:atemp>
            <ns3:hr>84</ns3:hr>
          </ns3:TrackPointExtension>
        </extensions>
      </trkpt>
      <trkpt lat="36.87401955015957355499267578125" lon="-118.46742580644786357879638671875">
        <ele>2498</ele>
        <time>2021-06-28T01:13:40.000Z</time>
        <extensions>
          <ns3:TrackPointExtension>
            <ns3:atemp>31.0</ns3:atemp>
            <ns3:hr>86</ns3:hr>
          </ns3:TrackPointExtension>
        </extensions>
      </trkpt>
      <trkpt lat="36.8740139342844486236572265625" lon="-118.4674263931810855865478515625">
        <ele>2497.800048828125</ele>
        <time>2021-06-28T01:13:48.000Z</time>
        <extensions>
          <ns3:TrackPointExtension>
            <ns3:atemp>31.0</ns3:atemp>
            <ns3:hr>89</ns3:hr>
          </ns3:TrackPointExtension>
        </extensions>
      </trkpt>
      <trkpt lat="36.873973868787288665771484375" lon="-118.467490263283252716064453125">
        <ele>2497.60009765625</ele>
        <time>2021-06-28T01:13:59.000Z</time>
        <extensions>
          <ns3:TrackPointExtension>
            <ns3:atemp>31.0</ns3:atemp>
            <ns3:hr>88</ns3:hr>
          </ns3:TrackPointExtension>
        </extensions>
      </trkpt>
      <trkpt lat="36.87386867590248584747314453125" lon="-118.46758271567523479461669921875">
        <ele>2497.39990234375</ele>
        <time>2021-06-28T01:14:07.000Z</time>
        <extensions>
          <ns3:TrackPointExtension>
            <ns3:atemp>31.0</ns3:atemp>
            <ns3:hr>84</ns3:hr>
          </ns3:TrackPointExtension>
        </extensions>
      </trkpt>
      <trkpt lat="36.87386096455156803131103515625" lon="-118.46759595908224582672119140625">
        <ele>2497.60009765625</ele>
        <time>2021-06-28T01:14:08.000Z</time>
        <extensions>
          <ns3:TrackPointExtension>
            <ns3:atemp>31.0</ns3:atemp>
            <ns3:hr>87</ns3:hr>
          </ns3:TrackPointExtension>
        </extensions>
      </trkpt>
      <trkpt lat="36.873751580715179443359375" lon="-118.46765094436705112457275390625">
        <ele>2497.800048828125</ele>
        <time>2021-06-28T01:14:17.000Z</time>
        <extensions>
          <ns3:TrackPointExtension>
            <ns3:atemp>31.0</ns3:atemp>
            <ns3:hr>89</ns3:hr>
          </ns3:TrackPointExtension>
        </extensions>
      </trkpt>
      <trkpt lat="36.873702295124530792236328125" lon="-118.4677509404718875885009765625">
        <ele>2498</ele>
        <time>2021-06-28T01:14:24.000Z</time>
        <extensions>
          <ns3:TrackPointExtension>
            <ns3:atemp>31.0</ns3:atemp>
            <ns3:hr>89</ns3:hr>
          </ns3:TrackPointExtension>
        </extensions>
      </trkpt>
      <trkpt lat="36.87368678860366344451904296875" lon="-118.46780651248991489410400390625">
        <ele>2498.199951171875</ele>
        <time>2021-06-28T01:14:28.000Z</time>
        <extensions>
          <ns3:TrackPointExtension>
            <ns3:atemp>31.0</ns3:atemp>
            <ns3:hr>85</ns3:hr>
          </ns3:TrackPointExtension>
        </extensions>
      </trkpt>
      <trkpt lat="36.8736803345382213592529296875" lon="-118.46781958825886249542236328125">
        <ele>2498.39990234375</ele>
        <time>2021-06-28T01:14:29.000Z</time>
        <extensions>
          <ns3:TrackPointExtension>
            <ns3:atemp>31.0</ns3:atemp>
            <ns3:hr>88</ns3:hr>
          </ns3:TrackPointExtension>
        </extensions>
      </trkpt>
      <trkpt lat="36.87367237173020839691162109375" lon="-118.46785143949091434478759765625">
        <ele>2498.39990234375</ele>
        <time>2021-06-28T01:14:32.000Z</time>
        <extensions>
          <ns3:TrackPointExtension>
            <ns3:atemp>31.0</ns3:atemp>
            <ns3:hr>91</ns3:hr>
          </ns3:TrackPointExtension>
        </extensions>
      </trkpt>
      <trkpt lat="36.87366834841668605804443359375" lon="-118.46786283887922763824462890625">
        <ele>2498.60009765625</ele>
        <time>2021-06-28T01:14:33.000Z</time>
        <extensions>
          <ns3:TrackPointExtension>
            <ns3:atemp>31.0</ns3:atemp>
            <ns3:hr>92</ns3:hr>
          </ns3:TrackPointExtension>
        </extensions>
      </trkpt>
      <trkpt lat="36.87366398982703685760498046875" lon="-118.46787038259208202362060546875">
        <ele>2498.800048828125</ele>
        <time>2021-06-28T01:14:34.000Z</time>
        <extensions>
          <ns3:TrackPointExtension>
            <ns3:atemp>31.0</ns3:atemp>
            <ns3:hr>91</ns3:hr>
          </ns3:TrackPointExtension>
        </extensions>
      </trkpt>
      <trkpt lat="36.87363498844206333160400390625" lon="-118.46792100928723812103271484375">
        <ele>2498</ele>
        <time>2021-06-28T01:14:39.000Z</time>
        <extensions>
          <ns3:TrackPointExtension>
            <ns3:atemp>31.0</ns3:atemp>
            <ns3:hr>94</ns3:hr>
          </ns3:TrackPointExtension>
        </extensions>
      </trkpt>
      <trkpt lat="36.87360917218029499053955078125" lon="-118.4679517708718776702880859375">
        <ele>2497.800048828125</ele>
        <time>2021-06-28T01:14:41.000Z</time>
        <extensions>
          <ns3:TrackPointExtension>
            <ns3:atemp>31.0</ns3:atemp>
            <ns3:hr>94</ns3:hr>
          </ns3:TrackPointExtension>
        </extensions>
      </trkpt>
      <trkpt lat="36.87357245944440364837646484375" lon="-118.468040786683559417724609375">
        <ele>2497.60009765625</ele>
        <time>2021-06-28T01:14:46.000Z</time>
        <extensions>
          <ns3:TrackPointExtension>
            <ns3:atemp>31.0</ns3:atemp>
            <ns3:hr>94</ns3:hr>
          </ns3:TrackPointExtension>
        </extensions>
      </trkpt>
      <trkpt lat="36.87357145361602306365966796875" lon="-118.4680540300905704498291015625">
        <ele>2497.60009765625</ele>
        <time>2021-06-28T01:14:47.000Z</time>
        <extensions>
          <ns3:TrackPointExtension>
            <ns3:atemp>31.0</ns3:atemp>
            <ns3:hr>92</ns3:hr>
          </ns3:TrackPointExtension>
        </extensions>
      </trkpt>
      <trkpt lat="36.87357396818697452545166015625" lon="-118.46806861460208892822265625">
        <ele>2497.39990234375</ele>
        <time>2021-06-28T01:14:48.000Z</time>
        <extensions>
          <ns3:TrackPointExtension>
            <ns3:atemp>31.0</ns3:atemp>
            <ns3:hr>92</ns3:hr>
          </ns3:TrackPointExtension>
        </extensions>
      </trkpt>
      <trkpt lat="36.87358419410884380340576171875" lon="-118.46809702925384044647216796875">
        <ele>2497.60009765625</ele>
        <time>2021-06-28T01:14:50.000Z</time>
        <extensions>
          <ns3:TrackPointExtension>
            <ns3:atemp>31.0</ns3:atemp>
            <ns3:hr>92</ns3:hr>
          </ns3:TrackPointExtension>
        </extensions>
      </trkpt>
      <trkpt lat="36.87359877862036228179931640625" lon="-118.46812619827687740325927734375">
        <ele>2497.60009765625</ele>
        <time>2021-06-28T01:14:52.000Z</time>
        <extensions>
          <ns3:TrackPointExtension>
            <ns3:atemp>31.0</ns3:atemp>
            <ns3:hr>91</ns3:hr>
          </ns3:TrackPointExtension>
        </extensions>
      </trkpt>
      <trkpt lat="36.8736099265515804290771484375" lon="-118.46817699261009693145751953125">
        <ele>2497.60009765625</ele>
        <time>2021-06-28T01:14:56.000Z</time>
        <extensions>
          <ns3:TrackPointExtension>
            <ns3:atemp>31.0</ns3:atemp>
            <ns3:hr>94</ns3:hr>
          </ns3:TrackPointExtension>
        </extensions>
      </trkpt>
      <trkpt lat="36.8736159615218639373779296875" lon="-118.46819065511226654052734375">
        <ele>2497.800048828125</ele>
        <time>2021-06-28T01:14:57.000Z</time>
        <extensions>
          <ns3:TrackPointExtension>
            <ns3:atemp>31.0</ns3:atemp>
            <ns3:hr>94</ns3:hr>
          </ns3:TrackPointExtension>
        </extensions>
      </trkpt>
      <trkpt lat="36.87363649718463420867919921875" lon="-118.4682266972959041595458984375">
        <ele>2498.39990234375</ele>
        <time>2021-06-28T01:15:00.000Z</time>
        <extensions>
          <ns3:TrackPointExtension>
            <ns3:atemp>31.0</ns3:atemp>
            <ns3:hr>93</ns3:hr>
          </ns3:TrackPointExtension>
        </extensions>
      </trkpt>
      <trkpt lat="36.87365527264773845672607421875" lon="-118.4682555310428142547607421875">
        <ele>2498.60009765625</ele>
        <time>2021-06-28T01:15:03.000Z</time>
        <extensions>
          <ns3:TrackPointExtension>
            <ns3:atemp>31.0</ns3:atemp>
            <ns3:hr>94</ns3:hr>
          </ns3:TrackPointExtension>
        </extensions>
      </trkpt>
      <trkpt lat="36.87367337755858898162841796875" lon="-118.46830138005316257476806640625">
        <ele>2499</ele>
        <time>2021-06-28T01:15:07.000Z</time>
        <extensions>
          <ns3:TrackPointExtension>
            <ns3:atemp>32.0</ns3:atemp>
            <ns3:hr>89</ns3:hr>
          </ns3:TrackPointExtension>
        </extensions>
      </trkpt>
      <trkpt lat="36.87367840670049190521240234375" lon="-118.4683111868798732757568359375">
        <ele>2499.199951171875</ele>
        <time>2021-06-28T01:15:08.000Z</time>
        <extensions>
          <ns3:TrackPointExtension>
            <ns3:atemp>31.0</ns3:atemp>
            <ns3:hr>93</ns3:hr>
          </ns3:TrackPointExtension>
        </extensions>
      </trkpt>
      <trkpt lat="36.87368846498429775238037109375" lon="-118.4683292917907238006591796875">
        <ele>2499.800048828125</ele>
        <time>2021-06-28T01:15:10.000Z</time>
        <extensions>
          <ns3:TrackPointExtension>
            <ns3:atemp>32.0</ns3:atemp>
            <ns3:hr>95</ns3:hr>
          </ns3:TrackPointExtension>
        </extensions>
      </trkpt>
      <trkpt lat="36.87368729151785373687744140625" lon="-118.468329794704914093017578125">
        <ele>2499.800048828125</ele>
        <time>2021-06-28T01:15:12.000Z</time>
        <extensions>
          <ns3:TrackPointExtension>
            <ns3:atemp>32.0</ns3:atemp>
            <ns3:hr>97</ns3:hr>
          </ns3:TrackPointExtension>
        </extensions>
      </trkpt>
      <trkpt lat="36.8736960925161838531494140625" lon="-118.46832585521042346954345703125">
        <ele>2499.800048828125</ele>
        <time>2021-06-28T01:15:15.000Z</time>
        <extensions>
          <ns3:TrackPointExtension>
            <ns3:atemp>32.0</ns3:atemp>
            <ns3:hr>100</ns3:hr>
          </ns3:TrackPointExtension>
        </extensions>
      </trkpt>
      <trkpt lat="36.87374127097427845001220703125" lon="-118.46837170422077178955078125">
        <ele>2499.60009765625</ele>
        <time>2021-06-28T01:15:19.000Z</time>
        <extensions>
          <ns3:TrackPointExtension>
            <ns3:atemp>32.0</ns3:atemp>
            <ns3:hr>102</ns3:hr>
          </ns3:TrackPointExtension>
        </extensions>
      </trkpt>
      <trkpt lat="36.87375920824706554412841796875" lon="-118.46840866841375827789306640625">
        <ele>2499.800048828125</ele>
        <time>2021-06-28T01:15:22.000Z</time>
        <extensions>
          <ns3:TrackPointExtension>
            <ns3:atemp>32.0</ns3:atemp>
            <ns3:hr>102</ns3:hr>
          </ns3:TrackPointExtension>
        </extensions>
      </trkpt>
      <trkpt lat="36.8737933225929737091064453125" lon="-118.46851109527051448822021484375">
        <ele>2501.199951171875</ele>
        <time>2021-06-28T01:15:31.000Z</time>
        <extensions>
          <ns3:TrackPointExtension>
            <ns3:atemp>32.0</ns3:atemp>
            <ns3:hr>101</ns3:hr>
          </ns3:TrackPointExtension>
        </extensions>
      </trkpt>
      <trkpt lat="36.87379357405006885528564453125" lon="-118.46861100755631923675537109375">
        <ele>2501.199951171875</ele>
        <time>2021-06-28T01:15:39.000Z</time>
        <extensions>
          <ns3:TrackPointExtension>
            <ns3:atemp>32.0</ns3:atemp>
            <ns3:hr>101</ns3:hr>
          </ns3:TrackPointExtension>
        </extensions>
      </trkpt>
      <trkpt lat="36.8738003633916378021240234375" lon="-118.4686239995062351226806640625">
        <ele>2501.60009765625</ele>
        <time>2021-06-28T01:15:40.000Z</time>
        <extensions>
          <ns3:TrackPointExtension>
            <ns3:atemp>32.0</ns3:atemp>
            <ns3:hr>101</ns3:hr>
          </ns3:TrackPointExtension>
        </extensions>
      </trkpt>
      <trkpt lat="36.87381972558796405792236328125" lon="-118.4686954133212566375732421875">
        <ele>2502.39990234375</ele>
        <time>2021-06-28T01:15:46.000Z</time>
        <extensions>
          <ns3:TrackPointExtension>
            <ns3:atemp>32.0</ns3:atemp>
            <ns3:hr>100</ns3:hr>
          </ns3:TrackPointExtension>
        </extensions>
      </trkpt>
      <trkpt lat="36.87381821684539318084716796875" lon="-118.46879255957901477813720703125">
        <ele>2502.800048828125</ele>
        <time>2021-06-28T01:15:55.000Z</time>
        <extensions>
          <ns3:TrackPointExtension>
            <ns3:atemp>32.0</ns3:atemp>
            <ns3:hr>100</ns3:hr>
          </ns3:TrackPointExtension>
        </extensions>
      </trkpt>
      <trkpt lat="36.8738199770450592041015625" lon="-118.4688332118093967437744140625">
        <ele>2502.800048828125</ele>
        <time>2021-06-28T01:15:58.000Z</time>
        <extensions>
          <ns3:TrackPointExtension>
            <ns3:atemp>32.0</ns3:atemp>
            <ns3:hr>97</ns3:hr>
          </ns3:TrackPointExtension>
        </extensions>
      </trkpt>
      <trkpt lat="36.87383414246141910552978515625" lon="-118.46888995729386806488037109375">
        <ele>2502.60009765625</ele>
        <time>2021-06-28T01:16:02.000Z</time>
        <extensions>
          <ns3:TrackPointExtension>
            <ns3:atemp>32.0</ns3:atemp>
            <ns3:hr>98</ns3:hr>
          </ns3:TrackPointExtension>
        </extensions>
      </trkpt>
      <trkpt lat="36.8738694302737712860107421875" lon="-118.468965478241443634033203125">
        <ele>2502.60009765625</ele>
        <time>2021-06-28T01:16:07.000Z</time>
        <extensions>
          <ns3:TrackPointExtension>
            <ns3:atemp>32.0</ns3:atemp>
            <ns3:hr>95</ns3:hr>
          </ns3:TrackPointExtension>
        </extensions>
      </trkpt>
      <trkpt lat="36.87388828955590724945068359375" lon="-118.46903261728584766387939453125">
        <ele>2502.800048828125</ele>
        <time>2021-06-28T01:16:12.000Z</time>
        <extensions>
          <ns3:TrackPointExtension>
            <ns3:atemp>32.0</ns3:atemp>
            <ns3:hr>96</ns3:hr>
          </ns3:TrackPointExtension>
        </extensions>
      </trkpt>
      <trkpt lat="36.8739187158644199371337890625" lon="-118.46915231086313724517822265625">
        <ele>2503.199951171875</ele>
        <time>2021-06-28T01:16:21.000Z</time>
        <extensions>
          <ns3:TrackPointExtension>
            <ns3:atemp>32.0</ns3:atemp>
            <ns3:hr>96</ns3:hr>
          </ns3:TrackPointExtension>
        </extensions>
      </trkpt>
      <trkpt lat="36.87391050159931182861328125" lon="-118.46916974522173404693603515625">
        <ele>2503.199951171875</ele>
        <time>2021-06-28T01:16:23.000Z</time>
        <extensions>
          <ns3:TrackPointExtension>
            <ns3:atemp>32.0</ns3:atemp>
            <ns3:hr>95</ns3:hr>
          </ns3:TrackPointExtension>
        </extensions>
      </trkpt>
      <trkpt lat="36.8738942407071590423583984375" lon="-118.4692199528217315673828125">
        <ele>2502.800048828125</ele>
        <time>2021-06-28T01:16:28.000Z</time>
        <extensions>
          <ns3:TrackPointExtension>
            <ns3:atemp>32.0</ns3:atemp>
            <ns3:hr>96</ns3:hr>
          </ns3:TrackPointExtension>
        </extensions>
      </trkpt>
      <trkpt lat="36.873896084725856781005859375" lon="-118.469238393008708953857421875">
        <ele>2502.800048828125</ele>
        <time>2021-06-28T01:16:29.000Z</time>
        <extensions>
          <ns3:TrackPointExtension>
            <ns3:atemp>32.0</ns3:atemp>
            <ns3:hr>95</ns3:hr>
          </ns3:TrackPointExtension>
        </extensions>
      </trkpt>
      <trkpt lat="36.8739244155585765838623046875" lon="-118.469275943934917449951171875">
        <ele>2502.800048828125</ele>
        <time>2021-06-28T01:16:32.000Z</time>
        <extensions>
          <ns3:TrackPointExtension>
            <ns3:atemp>32.0</ns3:atemp>
            <ns3:hr>95</ns3:hr>
          </ns3:TrackPointExtension>
        </extensions>
      </trkpt>
      <trkpt lat="36.87394478358328342437744140625" lon="-118.46930033527314662933349609375">
        <ele>2502.800048828125</ele>
        <time>2021-06-28T01:16:34.000Z</time>
        <extensions>
          <ns3:TrackPointExtension>
            <ns3:atemp>32.0</ns3:atemp>
            <ns3:hr>96</ns3:hr>
          </ns3:TrackPointExtension>
        </extensions>
      </trkpt>
      <trkpt lat="36.873971857130527496337890625" lon="-118.4693274088203907012939453125">
        <ele>2503.39990234375</ele>
        <time>2021-06-28T01:16:38.000Z</time>
        <extensions>
          <ns3:TrackPointExtension>
            <ns3:atemp>32.0</ns3:atemp>
            <ns3:hr>96</ns3:hr>
          </ns3:TrackPointExtension>
        </extensions>
      </trkpt>
      <trkpt lat="36.87396892346441745758056640625" lon="-118.469355069100856781005859375">
        <ele>2503.199951171875</ele>
        <time>2021-06-28T01:16:40.000Z</time>
        <extensions>
          <ns3:TrackPointExtension>
            <ns3:atemp>32.0</ns3:atemp>
            <ns3:hr>97</ns3:hr>
          </ns3:TrackPointExtension>
        </extensions>
      </trkpt>
      <trkpt lat="36.87396825291216373443603515625" lon="-118.46941969357430934906005859375">
        <ele>2503.199951171875</ele>
        <time>2021-06-28T01:16:44.000Z</time>
        <extensions>
          <ns3:TrackPointExtension>
            <ns3:atemp>32.0</ns3:atemp>
            <ns3:hr>99</ns3:hr>
          </ns3:TrackPointExtension>
        </extensions>
      </trkpt>
      <trkpt lat="36.87396573834121227264404296875" lon="-118.46944048069417476654052734375">
        <ele>2503.39990234375</ele>
        <time>2021-06-28T01:16:47.000Z</time>
        <extensions>
          <ns3:TrackPointExtension>
            <ns3:atemp>32.0</ns3:atemp>
            <ns3:hr>99</ns3:hr>
          </ns3:TrackPointExtension>
        </extensions>
      </trkpt>
      <trkpt lat="36.87397420406341552734375" lon="-118.4694345295429229736328125">
        <ele>2503.800048828125</ele>
        <time>2021-06-28T01:16:53.000Z</time>
        <extensions>
          <ns3:TrackPointExtension>
            <ns3:atemp>32.0</ns3:atemp>
            <ns3:hr>98</ns3:hr>
          </ns3:TrackPointExtension>
        </extensions>
      </trkpt>
      <trkpt lat="36.8739884532988071441650390625" lon="-118.4694430790841579437255859375">
        <ele>2503.800048828125</ele>
        <time>2021-06-28T01:16:56.000Z</time>
        <extensions>
          <ns3:TrackPointExtension>
            <ns3:atemp>32.0</ns3:atemp>
            <ns3:hr>103</ns3:hr>
          </ns3:TrackPointExtension>
        </extensions>
      </trkpt>
      <trkpt lat="36.87399406917393207550048828125" lon="-118.46944366581737995147705078125">
        <ele>2503.800048828125</ele>
        <time>2021-06-28T01:16:59.000Z</time>
        <extensions>
          <ns3:TrackPointExtension>
            <ns3:atemp>32.0</ns3:atemp>
            <ns3:hr>106</ns3:hr>
          </ns3:TrackPointExtension>
        </extensions>
      </trkpt>
      <trkpt lat="36.874000690877437591552734375" lon="-118.46943930722773075103759765625">
        <ele>2503.39990234375</ele>
        <time>2021-06-28T01:17:02.000Z</time>
        <extensions>
          <ns3:TrackPointExtension>
            <ns3:atemp>32.0</ns3:atemp>
            <ns3:hr>103</ns3:hr>
          </ns3:TrackPointExtension>
        </extensions>
      </trkpt>
      <trkpt lat="36.8740032054483890533447265625" lon="-118.4694393910467624664306640625">
        <ele>2503.39990234375</ele>
        <time>2021-06-28T01:17:05.000Z</time>
        <extensions>
          <ns3:TrackPointExtension>
            <ns3:atemp>32.0</ns3:atemp>
            <ns3:hr>102</ns3:hr>
          </ns3:TrackPointExtension>
        </extensions>
      </trkpt>
      <trkpt lat="36.8740032054483890533447265625" lon="-118.4694393910467624664306640625">
        <ele>2503.39990234375</ele>
        <time>2021-06-28T01:17:08.000Z</time>
        <extensions>
          <ns3:TrackPointExtension>
            <ns3:atemp>32.0</ns3:atemp>
            <ns3:hr>99</ns3:hr>
          </ns3:TrackPointExtension>
        </extensions>
      </trkpt>
      <trkpt lat="36.8740025348961353302001953125" lon="-118.469442911446094512939453125">
        <ele>2503.800048828125</ele>
        <time>2021-06-28T01:17:20.000Z</time>
        <extensions>
          <ns3:TrackPointExtension>
            <ns3:atemp>32.0</ns3:atemp>
            <ns3:hr>96</ns3:hr>
          </ns3:TrackPointExtension>
        </extensions>
      </trkpt>
      <trkpt lat="36.87400965951383113861083984375" lon="-118.4694316796958446502685546875">
        <ele>2503.800048828125</ele>
        <time>2021-06-28T01:17:48.000Z</time>
        <extensions>
          <ns3:TrackPointExtension>
            <ns3:atemp>32.0</ns3:atemp>
            <ns3:hr>93</ns3:hr>
          </ns3:TrackPointExtension>
        </extensions>
      </trkpt>
      <trkpt lat="36.87401804141700267791748046875" lon="-118.46943595446646213531494140625">
        <ele>2503.39990234375</ele>
        <time>2021-06-28T01:18:05.000Z</time>
        <extensions>
          <ns3:TrackPointExtension>
            <ns3:atemp>32.0</ns3:atemp>
            <ns3:hr>96</ns3:hr>
          </ns3:TrackPointExtension>
        </extensions>
      </trkpt>
      <trkpt lat="36.87401871196925640106201171875" lon="-118.46943913958966732025146484375">
        <ele>2503.39990234375</ele>
        <time>2021-06-28T01:18:11.000Z</time>
        <extensions>
          <ns3:TrackPointExtension>
            <ns3:atemp>32.0</ns3:atemp>
            <ns3:hr>93</ns3:hr>
          </ns3:TrackPointExtension>
        </extensions>
      </trkpt>
      <trkpt lat="36.87401837669312953948974609375" lon="-118.46944064833223819732666015625">
        <ele>2503.39990234375</ele>
        <time>2021-06-28T01:18:17.000Z</time>
        <extensions>
          <ns3:TrackPointExtension>
            <ns3:atemp>32.0</ns3:atemp>
            <ns3:hr>90</ns3:hr>
          </ns3:TrackPointExtension>
        </extensions>
      </trkpt>
      <trkpt lat="36.874018125236034393310546875" lon="-118.46951357088983058929443359375">
        <ele>2503.39990234375</ele>
        <time>2021-06-28T01:18:27.000Z</time>
        <extensions>
          <ns3:TrackPointExtension>
            <ns3:atemp>32.0</ns3:atemp>
            <ns3:hr>87</ns3:hr>
          </ns3:TrackPointExtension>
        </extensions>
      </trkpt>
      <trkpt lat="36.874004043638706207275390625" lon="-118.46961063332855701446533203125">
        <ele>2503.39990234375</ele>
        <time>2021-06-28T01:18:33.000Z</time>
        <extensions>
          <ns3:TrackPointExtension>
            <ns3:atemp>32.0</ns3:atemp>
            <ns3:hr>90</ns3:hr>
          </ns3:TrackPointExtension>
        </extensions>
      </trkpt>
      <trkpt lat="36.87400781549513339996337890625" lon="-118.46962790004909038543701171875">
        <ele>2503.60009765625</ele>
        <time>2021-06-28T01:18:35.000Z</time>
        <extensions>
          <ns3:TrackPointExtension>
            <ns3:atemp>32.0</ns3:atemp>
            <ns3:hr>91</ns3:hr>
          </ns3:TrackPointExtension>
        </extensions>
      </trkpt>
      <trkpt lat="36.8740117549896240234375" lon="-118.46964114345610141754150390625">
        <ele>2504.39990234375</ele>
        <time>2021-06-28T01:18:37.000Z</time>
        <extensions>
          <ns3:TrackPointExtension>
            <ns3:atemp>32.0</ns3:atemp>
            <ns3:hr>94</ns3:hr>
          </ns3:TrackPointExtension>
        </extensions>
      </trkpt>
      <trkpt lat="36.874011419713497161865234375" lon="-118.46965170465409755706787109375">
        <ele>2504.39990234375</ele>
        <time>2021-06-28T01:18:39.000Z</time>
        <extensions>
          <ns3:TrackPointExtension>
            <ns3:atemp>32.0</ns3:atemp>
            <ns3:hr>94</ns3:hr>
          </ns3:TrackPointExtension>
        </extensions>
      </trkpt>
      <trkpt lat="36.8740008585155010223388671875" lon="-118.4696651995182037353515625">
        <ele>2504.800048828125</ele>
        <time>2021-06-28T01:18:42.000Z</time>
        <extensions>
          <ns3:TrackPointExtension>
            <ns3:atemp>32.0</ns3:atemp>
            <ns3:hr>94</ns3:hr>
          </ns3:TrackPointExtension>
        </extensions>
      </trkpt>
      <trkpt lat="36.87400932423770427703857421875" lon="-118.46970501355826854705810546875">
        <ele>2505.60009765625</ele>
        <time>2021-06-28T01:18:46.000Z</time>
        <extensions>
          <ns3:TrackPointExtension>
            <ns3:atemp>32.0</ns3:atemp>
            <ns3:hr>96</ns3:hr>
          </ns3:TrackPointExtension>
        </extensions>
      </trkpt>
      <trkpt lat="36.87401502393186092376708984375" lon="-118.46971088089048862457275390625">
        <ele>2505.800048828125</ele>
        <time>2021-06-28T01:18:47.000Z</time>
        <extensions>
          <ns3:TrackPointExtension>
            <ns3:atemp>32.0</ns3:atemp>
            <ns3:hr>96</ns3:hr>
          </ns3:TrackPointExtension>
        </extensions>
      </trkpt>
      <trkpt lat="36.874028854072093963623046875" lon="-118.469718508422374725341796875">
        <ele>2505.800048828125</ele>
        <time>2021-06-28T01:18:49.000Z</time>
        <extensions>
          <ns3:TrackPointExtension>
            <ns3:atemp>32.0</ns3:atemp>
            <ns3:hr>95</ns3:hr>
          </ns3:TrackPointExtension>
        </extensions>
      </trkpt>
      <trkpt lat="36.87402776442468166351318359375" lon="-118.469717167317867279052734375">
        <ele>2505.800048828125</ele>
        <time>2021-06-28T01:18:50.000Z</time>
        <extensions>
          <ns3:TrackPointExtension>
            <ns3:atemp>32.0</ns3:atemp>
            <ns3:hr>96</ns3:hr>
          </ns3:TrackPointExtension>
        </extensions>
      </trkpt>
      <trkpt lat="36.874046958982944488525390625" lon="-118.46971280872821807861328125">
        <ele>2505.60009765625</ele>
        <time>2021-06-28T01:18:56.000Z</time>
        <extensions>
          <ns3:TrackPointExtension>
            <ns3:atemp>32.0</ns3:atemp>
            <ns3:hr>95</ns3:hr>
          </ns3:TrackPointExtension>
        </extensions>
      </trkpt>
      <trkpt lat="36.874097250401973724365234375" lon="-118.46965488977730274200439453125">
        <ele>2506.199951171875</ele>
        <time>2021-06-28T01:19:04.000Z</time>
        <extensions>
          <ns3:TrackPointExtension>
            <ns3:atemp>32.0</ns3:atemp>
            <ns3:hr>96</ns3:hr>
          </ns3:TrackPointExtension>
        </extensions>
      </trkpt>
      <trkpt lat="36.87411108054220676422119140625" lon="-118.4696415625512599945068359375">
        <ele>2507</ele>
        <time>2021-06-28T01:19:06.000Z</time>
        <extensions>
          <ns3:TrackPointExtension>
            <ns3:atemp>32.0</ns3:atemp>
            <ns3:hr>98</ns3:hr>
          </ns3:TrackPointExtension>
        </extensions>
      </trkpt>
      <trkpt lat="36.8741379864513874053955078125" lon="-118.46962320618331432342529296875">
        <ele>2508</ele>
        <time>2021-06-28T01:19:12.000Z</time>
        <extensions>
          <ns3:TrackPointExtension>
            <ns3:atemp>32.0</ns3:atemp>
            <ns3:hr>102</ns3:hr>
          </ns3:TrackPointExtension>
        </extensions>
      </trkpt>
      <trkpt lat="36.874141506850719451904296875" lon="-118.469636701047420501708984375">
        <ele>2508.199951171875</ele>
        <time>2021-06-28T01:19:14.000Z</time>
        <extensions>
          <ns3:TrackPointExtension>
            <ns3:atemp>32.0</ns3:atemp>
            <ns3:hr>102</ns3:hr>
          </ns3:TrackPointExtension>
        </extensions>
      </trkpt>
      <trkpt lat="36.87414041720330715179443359375" lon="-118.4696563147008419036865234375">
        <ele>2509.39990234375</ele>
        <time>2021-06-28T01:19:16.000Z</time>
        <extensions>
          <ns3:TrackPointExtension>
            <ns3:atemp>32.0</ns3:atemp>
            <ns3:hr>103</ns3:hr>
          </ns3:TrackPointExtension>
        </extensions>
      </trkpt>
      <trkpt lat="36.87413656152784824371337890625" lon="-118.46967986784875392913818359375">
        <ele>2509.60009765625</ele>
        <time>2021-06-28T01:19:18.000Z</time>
        <extensions>
          <ns3:TrackPointExtension>
            <ns3:atemp>32.0</ns3:atemp>
            <ns3:hr>105</ns3:hr>
          </ns3:TrackPointExtension>
        </extensions>
      </trkpt>
      <trkpt lat="36.87413136474788188934326171875" lon="-118.4697216935455799102783203125">
        <ele>2510.39990234375</ele>
        <time>2021-06-28T01:19:23.000Z</time>
        <extensions>
          <ns3:TrackPointExtension>
            <ns3:atemp>32.0</ns3:atemp>
            <ns3:hr>108</ns3:hr>
          </ns3:TrackPointExtension>
        </extensions>
      </trkpt>
      <trkpt lat="36.87413320876657962799072265625" lon="-118.4697310812771320343017578125">
        <ele>2510.39990234375</ele>
        <time>2021-06-28T01:19:24.000Z</time>
        <extensions>
          <ns3:TrackPointExtension>
            <ns3:atemp>32.0</ns3:atemp>
            <ns3:hr>108</ns3:hr>
          </ns3:TrackPointExtension>
        </extensions>
      </trkpt>
      <trkpt lat="36.874132119119167327880859375" lon="-118.46974105574190616607666015625">
        <ele>2510.39990234375</ele>
        <time>2021-06-28T01:19:25.000Z</time>
        <extensions>
          <ns3:TrackPointExtension>
            <ns3:atemp>32.0</ns3:atemp>
            <ns3:hr>109</ns3:hr>
          </ns3:TrackPointExtension>
        </extensions>
      </trkpt>
      <trkpt lat="36.8741292692720890045166015625" lon="-118.46977491863071918487548828125">
        <ele>2510.39990234375</ele>
        <time>2021-06-28T01:19:28.000Z</time>
        <extensions>
          <ns3:TrackPointExtension>
            <ns3:atemp>32.0</ns3:atemp>
            <ns3:hr>106</ns3:hr>
          </ns3:TrackPointExtension>
        </extensions>
      </trkpt>
      <trkpt lat="36.8741302751004695892333984375" lon="-118.46981146372854709625244140625">
        <ele>2511.39990234375</ele>
        <time>2021-06-28T01:19:32.000Z</time>
        <extensions>
          <ns3:TrackPointExtension>
            <ns3:atemp>32.0</ns3:atemp>
            <ns3:hr>106</ns3:hr>
          </ns3:TrackPointExtension>
        </extensions>
      </trkpt>
      <trkpt lat="36.87413220293819904327392578125" lon="-118.469822444021701812744140625">
        <ele>2511.39990234375</ele>
        <time>2021-06-28T01:19:33.000Z</time>
        <extensions>
          <ns3:TrackPointExtension>
            <ns3:atemp>32.0</ns3:atemp>
            <ns3:hr>106</ns3:hr>
          </ns3:TrackPointExtension>
        </extensions>
      </trkpt>
      <trkpt lat="36.87413605861365795135498046875" lon="-118.46985655836760997772216796875">
        <ele>2512</ele>
        <time>2021-06-28T01:19:36.000Z</time>
        <extensions>
          <ns3:TrackPointExtension>
            <ns3:atemp>32.0</ns3:atemp>
            <ns3:hr>103</ns3:hr>
          </ns3:TrackPointExtension>
        </extensions>
      </trkpt>
      <trkpt lat="36.87413102947175502777099609375" lon="-118.46986846067011356353759765625">
        <ele>2512.199951171875</ele>
        <time>2021-06-28T01:19:37.000Z</time>
        <extensions>
          <ns3:TrackPointExtension>
            <ns3:atemp>32.0</ns3:atemp>
            <ns3:hr>106</ns3:hr>
          </ns3:TrackPointExtension>
        </extensions>
      </trkpt>
      <trkpt lat="36.87412105500698089599609375" lon="-118.4698980487883090972900390625">
        <ele>2512.39990234375</ele>
        <time>2021-06-28T01:19:40.000Z</time>
        <extensions>
          <ns3:TrackPointExtension>
            <ns3:atemp>32.0</ns3:atemp>
            <ns3:hr>105</ns3:hr>
          </ns3:TrackPointExtension>
        </extensions>
      </trkpt>
      <trkpt lat="36.8741171993315219879150390625" lon="-118.4699077717959880828857421875">
        <ele>2513.199951171875</ele>
        <time>2021-06-28T01:19:41.000Z</time>
        <extensions>
          <ns3:TrackPointExtension>
            <ns3:atemp>32.0</ns3:atemp>
            <ns3:hr>105</ns3:hr>
          </ns3:TrackPointExtension>
        </extensions>
      </trkpt>
      <trkpt lat="36.87411191873252391815185546875" lon="-118.46995077095925807952880859375">
        <ele>2514.199951171875</ele>
        <time>2021-06-28T01:19:46.000Z</time>
        <extensions>
          <ns3:TrackPointExtension>
            <ns3:atemp>32.0</ns3:atemp>
            <ns3:hr>108</ns3:hr>
          </ns3:TrackPointExtension>
        </extensions>
      </trkpt>
      <trkpt lat="36.8741078115999698638916015625" lon="-118.46995881758630275726318359375">
        <ele>2514.199951171875</ele>
        <time>2021-06-28T01:19:47.000Z</time>
        <extensions>
          <ns3:TrackPointExtension>
            <ns3:atemp>32.0</ns3:atemp>
            <ns3:hr>109</ns3:hr>
          </ns3:TrackPointExtension>
        </extensions>
      </trkpt>
      <trkpt lat="36.87410454265773296356201171875" lon="-118.46996870823204517364501953125">
        <ele>2514.39990234375</ele>
        <time>2021-06-28T01:19:48.000Z</time>
        <extensions>
          <ns3:TrackPointExtension>
            <ns3:atemp>32.0</ns3:atemp>
            <ns3:hr>109</ns3:hr>
          </ns3:TrackPointExtension>
        </extensions>
      </trkpt>
      <trkpt lat="36.874098591506481170654296875" lon="-118.470000810921192169189453125">
        <ele>2514.60009765625</ele>
        <time>2021-06-28T01:19:51.000Z</time>
        <extensions>
          <ns3:TrackPointExtension>
            <ns3:atemp>32.0</ns3:atemp>
            <ns3:hr>112</ns3:hr>
          </ns3:TrackPointExtension>
        </extensions>
      </trkpt>
      <trkpt lat="36.87408358789980411529541015625" lon="-118.47005990333855152130126953125">
        <ele>2514.60009765625</ele>
        <time>2021-06-28T01:19:56.000Z</time>
        <extensions>
          <ns3:TrackPointExtension>
            <ns3:atemp>32.0</ns3:atemp>
            <ns3:hr>115</ns3:hr>
          </ns3:TrackPointExtension>
        </extensions>
      </trkpt>
      <trkpt lat="36.87407017685472965240478515625" lon="-118.470136933028697967529296875">
        <ele>2514.800048828125</ele>
        <time>2021-06-28T01:20:05.000Z</time>
        <extensions>
          <ns3:TrackPointExtension>
            <ns3:atemp>32.0</ns3:atemp>
            <ns3:hr>115</ns3:hr>
          </ns3:TrackPointExtension>
        </extensions>
      </trkpt>
      <trkpt lat="36.87406950630247592926025390625" lon="-118.47014673985540866851806640625">
        <ele>2515</ele>
        <time>2021-06-28T01:20:06.000Z</time>
        <extensions>
          <ns3:TrackPointExtension>
            <ns3:atemp>32.0</ns3:atemp>
            <ns3:hr>115</ns3:hr>
          </ns3:TrackPointExtension>
        </extensions>
      </trkpt>
      <trkpt lat="36.87406833283603191375732421875" lon="-118.4701763279736042022705078125">
        <ele>2515.199951171875</ele>
        <time>2021-06-28T01:20:09.000Z</time>
        <extensions>
          <ns3:TrackPointExtension>
            <ns3:atemp>32.0</ns3:atemp>
            <ns3:hr>116</ns3:hr>
          </ns3:TrackPointExtension>
        </extensions>
      </trkpt>
      <trkpt lat="36.87404997646808624267578125" lon="-118.47023324109613895416259765625">
        <ele>2515.800048828125</ele>
        <time>2021-06-28T01:20:15.000Z</time>
        <extensions>
          <ns3:TrackPointExtension>
            <ns3:atemp>32.0</ns3:atemp>
            <ns3:hr>114</ns3:hr>
          </ns3:TrackPointExtension>
        </extensions>
      </trkpt>
      <trkpt lat="36.87405559234321117401123046875" lon="-118.47026173956692218780517578125">
        <ele>2516.199951171875</ele>
        <time>2021-06-28T01:20:18.000Z</time>
        <extensions>
          <ns3:TrackPointExtension>
            <ns3:atemp>32.0</ns3:atemp>
            <ns3:hr>114</ns3:hr>
          </ns3:TrackPointExtension>
        </extensions>
      </trkpt>
      <trkpt lat="36.87403731979429721832275390625" lon="-118.4703131206333637237548828125">
        <ele>2516.800048828125</ele>
        <time>2021-06-28T01:20:22.000Z</time>
        <extensions>
          <ns3:TrackPointExtension>
            <ns3:atemp>32.0</ns3:atemp>
            <ns3:hr>114</ns3:hr>
          </ns3:TrackPointExtension>
        </extensions>
      </trkpt>
      <trkpt lat="36.87400831840932369232177734375" lon="-118.47043977119028568267822265625">
        <ele>2517</ele>
        <time>2021-06-28T01:20:32.000Z</time>
        <extensions>
          <ns3:TrackPointExtension>
            <ns3:atemp>32.0</ns3:atemp>
            <ns3:hr>116</ns3:hr>
          </ns3:TrackPointExtension>
        </extensions>
      </trkpt>
      <trkpt lat="36.8740065582096576690673828125" lon="-118.4704857878386974334716796875">
        <ele>2517.39990234375</ele>
        <time>2021-06-28T01:20:37.000Z</time>
        <extensions>
          <ns3:TrackPointExtension>
            <ns3:atemp>32.0</ns3:atemp>
            <ns3:hr>115</ns3:hr>
          </ns3:TrackPointExtension>
        </extensions>
      </trkpt>
      <trkpt lat="36.87398920767009258270263671875" lon="-118.47051889635622501373291015625">
        <ele>2518</ele>
        <time>2021-06-28T01:20:40.000Z</time>
        <extensions>
          <ns3:TrackPointExtension>
            <ns3:atemp>32.0</ns3:atemp>
            <ns3:hr>114</ns3:hr>
          </ns3:TrackPointExtension>
        </extensions>
      </trkpt>
      <trkpt lat="36.87398702837526798248291015625" lon="-118.4705779887735843658447265625">
        <ele>2518.199951171875</ele>
        <time>2021-06-28T01:20:45.000Z</time>
        <extensions>
          <ns3:TrackPointExtension>
            <ns3:atemp>32.0</ns3:atemp>
            <ns3:hr>111</ns3:hr>
          </ns3:TrackPointExtension>
        </extensions>
      </trkpt>
      <trkpt lat="36.8739889562129974365234375" lon="-118.470598943531513214111328125">
        <ele>2518.199951171875</ele>
        <time>2021-06-28T01:20:47.000Z</time>
        <extensions>
          <ns3:TrackPointExtension>
            <ns3:atemp>32.0</ns3:atemp>
            <ns3:hr>111</ns3:hr>
          </ns3:TrackPointExtension>
        </extensions>
      </trkpt>
      <trkpt lat="36.873987279832363128662109375" lon="-118.470618724822998046875">
        <ele>2518.60009765625</ele>
        <time>2021-06-28T01:20:49.000Z</time>
        <extensions>
          <ns3:TrackPointExtension>
            <ns3:atemp>32.0</ns3:atemp>
            <ns3:hr>111</ns3:hr>
          </ns3:TrackPointExtension>
        </extensions>
      </trkpt>
      <trkpt lat="36.874000020325183868408203125" lon="-118.470653258264064788818359375">
        <ele>2518.800048828125</ele>
        <time>2021-06-28T01:20:52.000Z</time>
        <extensions>
          <ns3:TrackPointExtension>
            <ns3:atemp>32.0</ns3:atemp>
            <ns3:hr>111</ns3:hr>
          </ns3:TrackPointExtension>
        </extensions>
      </trkpt>
      <trkpt lat="36.87402105890214443206787109375" lon="-118.47073179669678211212158203125">
        <ele>2519.60009765625</ele>
        <time>2021-06-28T01:21:00.000Z</time>
        <extensions>
          <ns3:TrackPointExtension>
            <ns3:atemp>31.0</ns3:atemp>
            <ns3:hr>112</ns3:hr>
          </ns3:TrackPointExtension>
        </extensions>
      </trkpt>
      <trkpt lat="36.874025501310825347900390625" lon="-118.4707395918667316436767578125">
        <ele>2519.60009765625</ele>
        <time>2021-06-28T01:21:01.000Z</time>
        <extensions>
          <ns3:TrackPointExtension>
            <ns3:atemp>32.0</ns3:atemp>
            <ns3:hr>113</ns3:hr>
          </ns3:TrackPointExtension>
        </extensions>
      </trkpt>
      <trkpt lat="36.8740291893482208251953125" lon="-118.47080823965370655059814453125">
        <ele>2520.800048828125</ele>
        <time>2021-06-28T01:21:08.000Z</time>
        <extensions>
          <ns3:TrackPointExtension>
            <ns3:atemp>32.0</ns3:atemp>
            <ns3:hr>113</ns3:hr>
          </ns3:TrackPointExtension>
        </extensions>
      </trkpt>
      <trkpt lat="36.87404251657426357269287109375" lon="-118.4709022007882595062255859375">
        <ele>2521.199951171875</ele>
        <time>2021-06-28T01:21:17.000Z</time>
        <extensions>
          <ns3:TrackPointExtension>
            <ns3:atemp>32.0</ns3:atemp>
            <ns3:hr>111</ns3:hr>
          </ns3:TrackPointExtension>
        </extensions>
      </trkpt>
      <trkpt lat="36.87404268421232700347900390625" lon="-118.4709213115274906158447265625">
        <ele>2521.199951171875</ele>
        <time>2021-06-28T01:21:18.000Z</time>
        <extensions>
          <ns3:TrackPointExtension>
            <ns3:atemp>32.0</ns3:atemp>
            <ns3:hr>110</ns3:hr>
          </ns3:TrackPointExtension>
        </extensions>
      </trkpt>
      <trkpt lat="36.87404436059296131134033203125" lon="-118.47097973339259624481201171875">
        <ele>2521</ele>
        <time>2021-06-28T01:21:24.000Z</time>
        <extensions>
          <ns3:TrackPointExtension>
            <ns3:atemp>32.0</ns3:atemp>
            <ns3:hr>112</ns3:hr>
          </ns3:TrackPointExtension>
        </extensions>
      </trkpt>
      <trkpt lat="36.874046623706817626953125" lon="-118.4709866903722286224365234375">
        <ele>2520.39990234375</ele>
        <time>2021-06-28T01:21:27.000Z</time>
        <extensions>
          <ns3:TrackPointExtension>
            <ns3:atemp>32.0</ns3:atemp>
            <ns3:hr>113</ns3:hr>
          </ns3:TrackPointExtension>
        </extensions>
      </trkpt>
      <trkpt lat="36.874034889042377471923828125" lon="-118.4710138477385044097900390625">
        <ele>2520.39990234375</ele>
        <time>2021-06-28T01:21:30.000Z</time>
        <extensions>
          <ns3:TrackPointExtension>
            <ns3:atemp>32.0</ns3:atemp>
            <ns3:hr>113</ns3:hr>
          </ns3:TrackPointExtension>
        </extensions>
      </trkpt>
      <trkpt lat="36.87402474693953990936279296875" lon="-118.47104947082698345184326171875">
        <ele>2520.39990234375</ele>
        <time>2021-06-28T01:21:32.000Z</time>
        <extensions>
          <ns3:TrackPointExtension>
            <ns3:atemp>32.0</ns3:atemp>
            <ns3:hr>109</ns3:hr>
          </ns3:TrackPointExtension>
        </extensions>
      </trkpt>
      <trkpt lat="36.873999349772930145263671875" lon="-118.4710996784269809722900390625">
        <ele>2520.39990234375</ele>
        <time>2021-06-28T01:21:37.000Z</time>
        <extensions>
          <ns3:TrackPointExtension>
            <ns3:atemp>32.0</ns3:atemp>
            <ns3:hr>106</ns3:hr>
          </ns3:TrackPointExtension>
        </extensions>
      </trkpt>
      <trkpt lat="36.8739881180226802825927734375" lon="-118.47113044001162052154541015625">
        <ele>2519.60009765625</ele>
        <time>2021-06-28T01:21:39.000Z</time>
        <extensions>
          <ns3:TrackPointExtension>
            <ns3:atemp>32.0</ns3:atemp>
            <ns3:hr>106</ns3:hr>
          </ns3:TrackPointExtension>
        </extensions>
      </trkpt>
      <trkpt lat="36.87397353351116180419921875" lon="-118.47118341363966464996337890625">
        <ele>2519.39990234375</ele>
        <time>2021-06-28T01:21:44.000Z</time>
        <extensions>
          <ns3:TrackPointExtension>
            <ns3:atemp>32.0</ns3:atemp>
            <ns3:hr>107</ns3:hr>
          </ns3:TrackPointExtension>
        </extensions>
      </trkpt>
      <trkpt lat="36.873953081667423248291015625" lon="-118.4712421707808971405029296875">
        <ele>2518.39990234375</ele>
        <time>2021-06-28T01:21:48.000Z</time>
        <extensions>
          <ns3:TrackPointExtension>
            <ns3:atemp>32.0</ns3:atemp>
            <ns3:hr>108</ns3:hr>
          </ns3:TrackPointExtension>
        </extensions>
      </trkpt>
      <trkpt lat="36.87394059263169765472412109375" lon="-118.4712931327521800994873046875">
        <ele>2518.199951171875</ele>
        <time>2021-06-28T01:21:52.000Z</time>
        <extensions>
          <ns3:TrackPointExtension>
            <ns3:atemp>32.0</ns3:atemp>
            <ns3:hr>107</ns3:hr>
          </ns3:TrackPointExtension>
        </extensions>
      </trkpt>
      <trkpt lat="36.873942352831363677978515625" lon="-118.4714228846132755279541015625">
        <ele>2518</ele>
        <time>2021-06-28T01:22:02.000Z</time>
        <extensions>
          <ns3:TrackPointExtension>
            <ns3:atemp>31.0</ns3:atemp>
            <ns3:hr>104</ns3:hr>
          </ns3:TrackPointExtension>
        </extensions>
      </trkpt>
      <trkpt lat="36.87394143082201480865478515625" lon="-118.47143386490643024444580078125">
        <ele>2517.800048828125</ele>
        <time>2021-06-28T01:22:03.000Z</time>
        <extensions>
          <ns3:TrackPointExtension>
            <ns3:atemp>31.0</ns3:atemp>
            <ns3:hr>105</ns3:hr>
          </ns3:TrackPointExtension>
        </extensions>
      </trkpt>
      <trkpt lat="36.87394729815423488616943359375" lon="-118.4715506248176097869873046875">
        <ele>2517</ele>
        <time>2021-06-28T01:22:14.000Z</time>
        <extensions>
          <ns3:TrackPointExtension>
            <ns3:atemp>31.0</ns3:atemp>
            <ns3:hr>105</ns3:hr>
          </ns3:TrackPointExtension>
        </extensions>
      </trkpt>
      <trkpt lat="36.87394478358328342437744140625" lon="-118.47156110219657421112060546875">
        <ele>2516.800048828125</ele>
        <time>2021-06-28T01:22:15.000Z</time>
        <extensions>
          <ns3:TrackPointExtension>
            <ns3:atemp>31.0</ns3:atemp>
            <ns3:hr>105</ns3:hr>
          </ns3:TrackPointExtension>
        </extensions>
      </trkpt>
      <trkpt lat="36.87391410581767559051513671875" lon="-118.47164927981793880462646484375">
        <ele>2516.199951171875</ele>
        <time>2021-06-28T01:22:22.000Z</time>
        <extensions>
          <ns3:TrackPointExtension>
            <ns3:atemp>31.0</ns3:atemp>
            <ns3:hr>105</ns3:hr>
          </ns3:TrackPointExtension>
        </extensions>
      </trkpt>
      <trkpt lat="36.87389583326876163482666015625" lon="-118.4717511199414730072021484375">
        <ele>2516.39990234375</ele>
        <time>2021-06-28T01:22:29.000Z</time>
        <extensions>
          <ns3:TrackPointExtension>
            <ns3:atemp>31.0</ns3:atemp>
            <ns3:hr>102</ns3:hr>
          </ns3:TrackPointExtension>
        </extensions>
      </trkpt>
      <trkpt lat="36.873893402516841888427734375" lon="-118.47178305499255657196044921875">
        <ele>2516</ele>
        <time>2021-06-28T01:22:32.000Z</time>
        <extensions>
          <ns3:TrackPointExtension>
            <ns3:atemp>31.0</ns3:atemp>
            <ns3:hr>101</ns3:hr>
          </ns3:TrackPointExtension>
        </extensions>
      </trkpt>
      <trkpt lat="36.87388963066041469573974609375" lon="-118.47181641496717929840087890625">
        <ele>2516</ele>
        <time>2021-06-28T01:22:35.000Z</time>
        <extensions>
          <ns3:TrackPointExtension>
            <ns3:atemp>31.0</ns3:atemp>
            <ns3:hr>99</ns3:hr>
          </ns3:TrackPointExtension>
        </extensions>
      </trkpt>
      <trkpt lat="36.87389164231717586517333984375" lon="-118.4718701429665088653564453125">
        <ele>2515.800048828125</ele>
        <time>2021-06-28T01:22:39.000Z</time>
        <extensions>
          <ns3:TrackPointExtension>
            <ns3:atemp>31.0</ns3:atemp>
            <ns3:hr>96</ns3:hr>
          </ns3:TrackPointExtension>
        </extensions>
      </trkpt>
      <trkpt lat="36.87389013357460498809814453125" lon="-118.47188497893512248992919921875">
        <ele>2515.60009765625</ele>
        <time>2021-06-28T01:22:40.000Z</time>
        <extensions>
          <ns3:TrackPointExtension>
            <ns3:atemp>31.0</ns3:atemp>
            <ns3:hr>95</ns3:hr>
          </ns3:TrackPointExtension>
        </extensions>
      </trkpt>
      <trkpt lat="36.873897425830364227294921875" lon="-118.47192806191742420196533203125">
        <ele>2515.800048828125</ele>
        <time>2021-06-28T01:22:44.000Z</time>
        <extensions>
          <ns3:TrackPointExtension>
            <ns3:atemp>31.0</ns3:atemp>
            <ns3:hr>94</ns3:hr>
          </ns3:TrackPointExtension>
        </extensions>
      </trkpt>
      <trkpt lat="36.87388460151851177215576171875" lon="-118.4719542972743511199951171875">
        <ele>2515.39990234375</ele>
        <time>2021-06-28T01:22:47.000Z</time>
        <extensions>
          <ns3:TrackPointExtension>
            <ns3:atemp>31.0</ns3:atemp>
            <ns3:hr>95</ns3:hr>
          </ns3:TrackPointExtension>
        </extensions>
      </trkpt>
      <trkpt lat="36.873869597911834716796875" lon="-118.4720015712082386016845703125">
        <ele>2515</ele>
        <time>2021-06-28T01:22:51.000Z</time>
        <extensions>
          <ns3:TrackPointExtension>
            <ns3:atemp>31.0</ns3:atemp>
            <ns3:hr>96</ns3:hr>
          </ns3:TrackPointExtension>
        </extensions>
      </trkpt>
      <trkpt lat="36.87386632896959781646728515625" lon="-118.47202428616583347320556640625">
        <ele>2514.199951171875</ele>
        <time>2021-06-28T01:22:55.000Z</time>
        <extensions>
          <ns3:TrackPointExtension>
            <ns3:atemp>31.0</ns3:atemp>
            <ns3:hr>97</ns3:hr>
          </ns3:TrackPointExtension>
        </extensions>
      </trkpt>
      <trkpt lat="36.87387102283537387847900390625" lon="-118.472020514309406280517578125">
        <ele>2514</ele>
        <time>2021-06-28T01:22:56.000Z</time>
        <extensions>
          <ns3:TrackPointExtension>
            <ns3:atemp>31.0</ns3:atemp>
            <ns3:hr>97</ns3:hr>
          </ns3:TrackPointExtension>
        </extensions>
      </trkpt>
      <trkpt lat="36.8738747946918010711669921875" lon="-118.47201171331107616424560546875">
        <ele>2513.800048828125</ele>
        <time>2021-06-28T01:22:57.000Z</time>
        <extensions>
          <ns3:TrackPointExtension>
            <ns3:atemp>31.0</ns3:atemp>
            <ns3:hr>96</ns3:hr>
          </ns3:TrackPointExtension>
        </extensions>
      </trkpt>
      <trkpt lat="36.87387160956859588623046875" lon="-118.47199813462793827056884765625">
        <ele>2513.39990234375</ele>
        <time>2021-06-28T01:22:58.000Z</time>
        <extensions>
          <ns3:TrackPointExtension>
            <ns3:atemp>31.0</ns3:atemp>
            <ns3:hr>96</ns3:hr>
          </ns3:TrackPointExtension>
        </extensions>
      </trkpt>
      <trkpt lat="36.8738556839525699615478515625" lon="-118.47198740579187870025634765625">
        <ele>2513</ele>
        <time>2021-06-28T01:23:00.000Z</time>
        <extensions>
          <ns3:TrackPointExtension>
            <ns3:atemp>31.0</ns3:atemp>
            <ns3:hr>96</ns3:hr>
          </ns3:TrackPointExtension>
        </extensions>
      </trkpt>
      <trkpt lat="36.87384939752519130706787109375" lon="-118.47200031392276287078857421875">
        <ele>2512.60009765625</ele>
        <time>2021-06-28T01:23:02.000Z</time>
        <extensions>
          <ns3:TrackPointExtension>
            <ns3:atemp>31.0</ns3:atemp>
            <ns3:hr>95</ns3:hr>
          </ns3:TrackPointExtension>
        </extensions>
      </trkpt>
      <trkpt lat="36.8738446198403835296630859375" lon="-118.47203752957284450531005859375">
        <ele>2512</ele>
        <time>2021-06-28T01:23:05.000Z</time>
        <extensions>
          <ns3:TrackPointExtension>
            <ns3:atemp>31.0</ns3:atemp>
            <ns3:hr>97</ns3:hr>
          </ns3:TrackPointExtension>
        </extensions>
      </trkpt>
      <trkpt lat="36.87384705059230327606201171875" lon="-118.4720582328736782073974609375">
        <ele>2511.39990234375</ele>
        <time>2021-06-28T01:23:08.000Z</time>
        <extensions>
          <ns3:TrackPointExtension>
            <ns3:atemp>31.0</ns3:atemp>
            <ns3:hr>96</ns3:hr>
          </ns3:TrackPointExtension>
        </extensions>
      </trkpt>
      <trkpt lat="36.87383715994656085968017578125" lon="-118.47210466861724853515625">
        <ele>2511.199951171875</ele>
        <time>2021-06-28T01:23:12.000Z</time>
        <extensions>
          <ns3:TrackPointExtension>
            <ns3:atemp>31.0</ns3:atemp>
            <ns3:hr>93</ns3:hr>
          </ns3:TrackPointExtension>
        </extensions>
      </trkpt>
      <trkpt lat="36.873829700052738189697265625" lon="-118.47213744185864925384521484375">
        <ele>2510</ele>
        <time>2021-06-28T01:23:14.000Z</time>
        <extensions>
          <ns3:TrackPointExtension>
            <ns3:atemp>31.0</ns3:atemp>
            <ns3:hr>94</ns3:hr>
          </ns3:TrackPointExtension>
        </extensions>
      </trkpt>
      <trkpt lat="36.873819641768932342529296875" lon="-118.47216845490038394927978515625">
        <ele>2509.800048828125</ele>
        <time>2021-06-28T01:23:16.000Z</time>
        <extensions>
          <ns3:TrackPointExtension>
            <ns3:atemp>31.0</ns3:atemp>
            <ns3:hr>93</ns3:hr>
          </ns3:TrackPointExtension>
        </extensions>
      </trkpt>
      <trkpt lat="36.87381218187510967254638671875" lon="-118.4721732325851917266845703125">
        <ele>2509.60009765625</ele>
        <time>2021-06-28T01:23:19.000Z</time>
        <extensions>
          <ns3:TrackPointExtension>
            <ns3:atemp>31.0</ns3:atemp>
            <ns3:hr>95</ns3:hr>
          </ns3:TrackPointExtension>
        </extensions>
      </trkpt>
      <trkpt lat="36.8738074041903018951416015625" lon="-118.47216677851974964141845703125">
        <ele>2509.60009765625</ele>
        <time>2021-06-28T01:23:20.000Z</time>
        <extensions>
          <ns3:TrackPointExtension>
            <ns3:atemp>31.0</ns3:atemp>
            <ns3:hr>93</ns3:hr>
          </ns3:TrackPointExtension>
        </extensions>
      </trkpt>
      <trkpt lat="36.873779408633708953857421875" lon="-118.472169376909732818603515625">
        <ele>2509.39990234375</ele>
        <time>2021-06-28T01:23:24.000Z</time>
        <extensions>
          <ns3:TrackPointExtension>
            <ns3:atemp>31.0</ns3:atemp>
            <ns3:hr>94</ns3:hr>
          </ns3:TrackPointExtension>
        </extensions>
      </trkpt>
      <trkpt lat="36.873776726424694061279296875" lon="-118.47217733971774578094482421875">
        <ele>2509.199951171875</ele>
        <time>2021-06-28T01:23:25.000Z</time>
        <extensions>
          <ns3:TrackPointExtension>
            <ns3:atemp>31.0</ns3:atemp>
            <ns3:hr>93</ns3:hr>
          </ns3:TrackPointExtension>
        </extensions>
      </trkpt>
      <trkpt lat="36.873774714767932891845703125" lon="-118.47218253649771213531494140625">
        <ele>2509</ele>
        <time>2021-06-28T01:23:26.000Z</time>
        <extensions>
          <ns3:TrackPointExtension>
            <ns3:atemp>31.0</ns3:atemp>
            <ns3:hr>93</ns3:hr>
          </ns3:TrackPointExtension>
        </extensions>
      </trkpt>
      <trkpt lat="36.87375895678997039794921875" lon="-118.4722198359668254852294921875">
        <ele>2508.800048828125</ele>
        <time>2021-06-28T01:23:29.000Z</time>
        <extensions>
          <ns3:TrackPointExtension>
            <ns3:atemp>31.0</ns3:atemp>
            <ns3:hr>89</ns3:hr>
          </ns3:TrackPointExtension>
        </extensions>
      </trkpt>
      <trkpt lat="36.87374160625040531158447265625" lon="-118.47225420176982879638671875">
        <ele>2508.39990234375</ele>
        <time>2021-06-28T01:23:33.000Z</time>
        <extensions>
          <ns3:TrackPointExtension>
            <ns3:atemp>31.0</ns3:atemp>
            <ns3:hr>86</ns3:hr>
          </ns3:TrackPointExtension>
        </extensions>
      </trkpt>
      <trkpt lat="36.87372065149247646331787109375" lon="-118.47227658145129680633544921875">
        <ele>2508</ele>
        <time>2021-06-28T01:23:35.000Z</time>
        <extensions>
          <ns3:TrackPointExtension>
            <ns3:atemp>31.0</ns3:atemp>
            <ns3:hr>86</ns3:hr>
          </ns3:TrackPointExtension>
        </extensions>
      </trkpt>
      <trkpt lat="36.87370204366743564605712890625" lon="-118.47232603468000888824462890625">
        <ele>2506.800048828125</ele>
        <time>2021-06-28T01:23:39.000Z</time>
        <extensions>
          <ns3:TrackPointExtension>
            <ns3:atemp>31.0</ns3:atemp>
            <ns3:hr>87</ns3:hr>
          </ns3:TrackPointExtension>
        </extensions>
      </trkpt>
      <trkpt lat="36.8737044744193553924560546875" lon="-118.47233827225863933563232421875">
        <ele>2506.800048828125</ele>
        <time>2021-06-28T01:23:40.000Z</time>
        <extensions>
          <ns3:TrackPointExtension>
            <ns3:atemp>31.0</ns3:atemp>
            <ns3:hr>87</ns3:hr>
          </ns3:TrackPointExtension>
        </extensions>
      </trkpt>
      <trkpt lat="36.8737145327031612396240234375" lon="-118.4723635017871856689453125">
        <ele>2506.39990234375</ele>
        <time>2021-06-28T01:23:42.000Z</time>
        <extensions>
          <ns3:TrackPointExtension>
            <ns3:atemp>31.0</ns3:atemp>
            <ns3:hr>87</ns3:hr>
          </ns3:TrackPointExtension>
        </extensions>
      </trkpt>
      <trkpt lat="36.8737182207405567169189453125" lon="-118.472419492900371551513671875">
        <ele>2506</ele>
        <time>2021-06-28T01:23:47.000Z</time>
        <extensions>
          <ns3:TrackPointExtension>
            <ns3:atemp>31.0</ns3:atemp>
            <ns3:hr>90</ns3:hr>
          </ns3:TrackPointExtension>
        </extensions>
      </trkpt>
      <trkpt lat="36.8737073242664337158203125" lon="-118.47240482456982135772705078125">
        <ele>2506.199951171875</ele>
        <time>2021-06-28T01:23:50.000Z</time>
        <extensions>
          <ns3:TrackPointExtension>
            <ns3:atemp>31.0</ns3:atemp>
            <ns3:hr>90</ns3:hr>
          </ns3:TrackPointExtension>
        </extensions>
      </trkpt>
      <trkpt lat="36.873675473034381866455078125" lon="-118.47243164665997028350830078125">
        <ele>2506</ele>
        <time>2021-06-28T01:23:53.000Z</time>
        <extensions>
          <ns3:TrackPointExtension>
            <ns3:atemp>31.0</ns3:atemp>
            <ns3:hr>91</ns3:hr>
          </ns3:TrackPointExtension>
        </extensions>
      </trkpt>
      <trkpt lat="36.87366851605474948883056640625" lon="-118.47244505770504474639892578125">
        <ele>2505.199951171875</ele>
        <time>2021-06-28T01:23:55.000Z</time>
        <extensions>
          <ns3:TrackPointExtension>
            <ns3:atemp>31.0</ns3:atemp>
            <ns3:hr>92</ns3:hr>
          </ns3:TrackPointExtension>
        </extensions>
      </trkpt>
      <trkpt lat="36.87366516329348087310791015625" lon="-118.47246802411973476409912109375">
        <ele>2504.800048828125</ele>
        <time>2021-06-28T01:23:58.000Z</time>
        <extensions>
          <ns3:TrackPointExtension>
            <ns3:atemp>31.0</ns3:atemp>
            <ns3:hr>92</ns3:hr>
          </ns3:TrackPointExtension>
        </extensions>
      </trkpt>
      <trkpt lat="36.87366239726543426513671875" lon="-118.47248260863125324249267578125">
        <ele>2504.199951171875</ele>
        <time>2021-06-28T01:24:00.000Z</time>
        <extensions>
          <ns3:TrackPointExtension>
            <ns3:atemp>31.0</ns3:atemp>
            <ns3:hr>92</ns3:hr>
          </ns3:TrackPointExtension>
        </extensions>
      </trkpt>
      <trkpt lat="36.87364588491618633270263671875" lon="-118.4725034795701503753662109375">
        <ele>2503.39990234375</ele>
        <time>2021-06-28T01:24:02.000Z</time>
        <extensions>
          <ns3:TrackPointExtension>
            <ns3:atemp>31.0</ns3:atemp>
            <ns3:hr>93</ns3:hr>
          </ns3:TrackPointExtension>
        </extensions>
      </trkpt>
      <trkpt lat="36.873638927936553955078125" lon="-118.47253155894577503204345703125">
        <ele>2503</ele>
        <time>2021-06-28T01:24:04.000Z</time>
        <extensions>
          <ns3:TrackPointExtension>
            <ns3:atemp>31.0</ns3:atemp>
            <ns3:hr>94</ns3:hr>
          </ns3:TrackPointExtension>
        </extensions>
      </trkpt>
      <trkpt lat="36.87364001758396625518798828125" lon="-118.47254245541989803314208984375">
        <ele>2503</ele>
        <time>2021-06-28T01:24:05.000Z</time>
        <extensions>
          <ns3:TrackPointExtension>
            <ns3:atemp>31.0</ns3:atemp>
            <ns3:hr>95</ns3:hr>
          </ns3:TrackPointExtension>
        </extensions>
      </trkpt>
      <trkpt lat="36.87363264150917530059814453125" lon="-118.4726097621023654937744140625">
        <ele>2502.800048828125</ele>
        <time>2021-06-28T01:24:10.000Z</time>
        <extensions>
          <ns3:TrackPointExtension>
            <ns3:atemp>31.0</ns3:atemp>
            <ns3:hr>95</ns3:hr>
          </ns3:TrackPointExtension>
        </extensions>
      </trkpt>
      <trkpt lat="36.8736233375966548919677734375" lon="-118.472622670233249664306640625">
        <ele>2502.39990234375</ele>
        <time>2021-06-28T01:24:11.000Z</time>
        <extensions>
          <ns3:TrackPointExtension>
            <ns3:atemp>31.0</ns3:atemp>
            <ns3:hr>96</ns3:hr>
          </ns3:TrackPointExtension>
        </extensions>
      </trkpt>
      <trkpt lat="36.873601712286472320556640625" lon="-118.47263566218316555023193359375">
        <ele>2501.800048828125</ele>
        <time>2021-06-28T01:24:14.000Z</time>
        <extensions>
          <ns3:TrackPointExtension>
            <ns3:atemp>31.0</ns3:atemp>
            <ns3:hr>95</ns3:hr>
          </ns3:TrackPointExtension>
        </extensions>
      </trkpt>
      <trkpt lat="36.87359609641134738922119140625" lon="-118.47264488227665424346923828125">
        <ele>2501.800048828125</ele>
        <time>2021-06-28T01:24:16.000Z</time>
        <extensions>
          <ns3:TrackPointExtension>
            <ns3:atemp>31.0</ns3:atemp>
            <ns3:hr>95</ns3:hr>
          </ns3:TrackPointExtension>
        </extensions>
      </trkpt>
      <trkpt lat="36.87359190545976161956787109375" lon="-118.47266457974910736083984375">
        <ele>2501.60009765625</ele>
        <time>2021-06-28T01:24:17.000Z</time>
        <extensions>
          <ns3:TrackPointExtension>
            <ns3:atemp>31.0</ns3:atemp>
            <ns3:hr>94</ns3:hr>
          </ns3:TrackPointExtension>
        </extensions>
      </trkpt>
      <trkpt lat="36.87358050607144832611083984375" lon="-118.472706489264965057373046875">
        <ele>2501.199951171875</ele>
        <time>2021-06-28T01:24:20.000Z</time>
        <extensions>
          <ns3:TrackPointExtension>
            <ns3:atemp>31.0</ns3:atemp>
            <ns3:hr>94</ns3:hr>
          </ns3:TrackPointExtension>
        </extensions>
      </trkpt>
      <trkpt lat="36.8735660053789615631103515625" lon="-118.47274412401020526885986328125">
        <ele>2500.60009765625</ele>
        <time>2021-06-28T01:24:23.000Z</time>
        <extensions>
          <ns3:TrackPointExtension>
            <ns3:atemp>31.0</ns3:atemp>
            <ns3:hr>92</ns3:hr>
          </ns3:TrackPointExtension>
        </extensions>
      </trkpt>
      <trkpt lat="36.873558126389980316162109375" lon="-118.4727604687213897705078125">
        <ele>2500.199951171875</ele>
        <time>2021-06-28T01:24:25.000Z</time>
        <extensions>
          <ns3:TrackPointExtension>
            <ns3:atemp>31.0</ns3:atemp>
            <ns3:hr>92</ns3:hr>
          </ns3:TrackPointExtension>
        </extensions>
      </trkpt>
      <trkpt lat="36.87355033122003078460693359375" lon="-118.47276323474943637847900390625">
        <ele>2500</ele>
        <time>2021-06-28T01:24:26.000Z</time>
        <extensions>
          <ns3:TrackPointExtension>
            <ns3:atemp>31.0</ns3:atemp>
            <ns3:hr>92</ns3:hr>
          </ns3:TrackPointExtension>
        </extensions>
      </trkpt>
      <trkpt lat="36.8735396862030029296875" lon="-118.47275803796947002410888671875">
        <ele>2499.60009765625</ele>
        <time>2021-06-28T01:24:28.000Z</time>
        <extensions>
          <ns3:TrackPointExtension>
            <ns3:atemp>31.0</ns3:atemp>
            <ns3:hr>93</ns3:hr>
          </ns3:TrackPointExtension>
        </extensions>
      </trkpt>
      <trkpt lat="36.87353189103305339813232421875" lon="-118.4727559424936771392822265625">
        <ele>2499.199951171875</ele>
        <time>2021-06-28T01:24:29.000Z</time>
        <extensions>
          <ns3:TrackPointExtension>
            <ns3:atemp>31.0</ns3:atemp>
            <ns3:hr>91</ns3:hr>
          </ns3:TrackPointExtension>
        </extensions>
      </trkpt>
      <trkpt lat="36.87351546250283718109130859375" lon="-118.4727428667247295379638671875">
        <ele>2498.800048828125</ele>
        <time>2021-06-28T01:24:31.000Z</time>
        <extensions>
          <ns3:TrackPointExtension>
            <ns3:atemp>31.0</ns3:atemp>
            <ns3:hr>91</ns3:hr>
          </ns3:TrackPointExtension>
        </extensions>
      </trkpt>
      <trkpt lat="36.8734959326684474945068359375" lon="-118.4727401845157146453857421875">
        <ele>2498</ele>
        <time>2021-06-28T01:24:34.000Z</time>
        <extensions>
          <ns3:TrackPointExtension>
            <ns3:atemp>31.0</ns3:atemp>
            <ns3:hr>89</ns3:hr>
          </ns3:TrackPointExtension>
        </extensions>
      </trkpt>
      <trkpt lat="36.87348671257495880126953125" lon="-118.472740352153778076171875">
        <ele>2497.800048828125</ele>
        <time>2021-06-28T01:24:37.000Z</time>
        <extensions>
          <ns3:TrackPointExtension>
            <ns3:atemp>31.0</ns3:atemp>
            <ns3:hr>90</ns3:hr>
          </ns3:TrackPointExtension>
        </extensions>
      </trkpt>
      <trkpt lat="36.873489730060100555419921875" lon="-118.47273590974509716033935546875">
        <ele>2497.60009765625</ele>
        <time>2021-06-28T01:24:38.000Z</time>
        <extensions>
          <ns3:TrackPointExtension>
            <ns3:atemp>31.0</ns3:atemp>
            <ns3:hr>91</ns3:hr>
          </ns3:TrackPointExtension>
        </extensions>
      </trkpt>
      <trkpt lat="36.87348403036594390869140625" lon="-118.4727244265377521514892578125">
        <ele>2497</ele>
        <time>2021-06-28T01:24:41.000Z</time>
        <extensions>
          <ns3:TrackPointExtension>
            <ns3:atemp>31.0</ns3:atemp>
            <ns3:hr>91</ns3:hr>
          </ns3:TrackPointExtension>
        </extensions>
      </trkpt>
      <trkpt lat="36.87349232845008373260498046875" lon="-118.47271026112139225006103515625">
        <ele>2497.199951171875</ele>
        <time>2021-06-28T01:24:47.000Z</time>
        <extensions>
          <ns3:TrackPointExtension>
            <ns3:atemp>31.0</ns3:atemp>
            <ns3:hr>90</ns3:hr>
          </ns3:TrackPointExtension>
        </extensions>
      </trkpt>
      <trkpt lat="36.8734831921756267547607421875" lon="-118.47272492945194244384765625">
        <ele>2496.60009765625</ele>
        <time>2021-06-28T01:24:52.000Z</time>
        <extensions>
          <ns3:TrackPointExtension>
            <ns3:atemp>31.0</ns3:atemp>
            <ns3:hr>87</ns3:hr>
          </ns3:TrackPointExtension>
        </extensions>
      </trkpt>
      <trkpt lat="36.8734791688621044158935546875" lon="-118.47276323474943637847900390625">
        <ele>2496.39990234375</ele>
        <time>2021-06-28T01:24:54.000Z</time>
        <extensions>
          <ns3:TrackPointExtension>
            <ns3:atemp>31.0</ns3:atemp>
            <ns3:hr>84</ns3:hr>
          </ns3:TrackPointExtension>
        </extensions>
      </trkpt>
      <trkpt lat="36.8734808452427387237548828125" lon="-118.4727807529270648956298828125">
        <ele>2496.39990234375</ele>
        <time>2021-06-28T01:24:55.000Z</time>
        <extensions>
          <ns3:TrackPointExtension>
            <ns3:atemp>31.0</ns3:atemp>
            <ns3:hr>83</ns3:hr>
          </ns3:TrackPointExtension>
        </extensions>
      </trkpt>
      <trkpt lat="36.87347388826310634613037109375" lon="-118.47280296497046947479248046875">
        <ele>2495.60009765625</ele>
        <time>2021-06-28T01:24:57.000Z</time>
        <extensions>
          <ns3:TrackPointExtension>
            <ns3:atemp>31.0</ns3:atemp>
            <ns3:hr>80</ns3:hr>
          </ns3:TrackPointExtension>
        </extensions>
      </trkpt>
      <trkpt lat="36.87345393933355808258056640625" lon="-118.47282375209033489227294921875">
        <ele>2494.800048828125</ele>
        <time>2021-06-28T01:24:59.000Z</time>
        <extensions>
          <ns3:TrackPointExtension>
            <ns3:atemp>31.0</ns3:atemp>
            <ns3:hr>77</ns3:hr>
          </ns3:TrackPointExtension>
        </extensions>
      </trkpt>
      <trkpt lat="36.8734402768313884735107421875" lon="-118.47286247648298740386962890625">
        <ele>2494.60009765625</ele>
        <time>2021-06-28T01:25:02.000Z</time>
        <extensions>
          <ns3:TrackPointExtension>
            <ns3:atemp>31.0</ns3:atemp>
            <ns3:hr>77</ns3:hr>
          </ns3:TrackPointExtension>
        </extensions>
      </trkpt>
      <trkpt lat="36.87342326156795024871826171875" lon="-118.47293254919350147247314453125">
        <ele>2493</ele>
        <time>2021-06-28T01:25:07.000Z</time>
        <extensions>
          <ns3:TrackPointExtension>
            <ns3:atemp>31.0</ns3:atemp>
            <ns3:hr>80</ns3:hr>
          </ns3:TrackPointExtension>
        </extensions>
      </trkpt>
      <trkpt lat="36.87340834178030490875244140625" lon="-118.4729587845504283905029296875">
        <ele>2492.60009765625</ele>
        <time>2021-06-28T01:25:09.000Z</time>
        <extensions>
          <ns3:TrackPointExtension>
            <ns3:atemp>31.0</ns3:atemp>
            <ns3:hr>80</ns3:hr>
          </ns3:TrackPointExtension>
        </extensions>
      </trkpt>
      <trkpt lat="36.873403228819370269775390625" lon="-118.47297026775777339935302734375">
        <ele>2492.60009765625</ele>
        <time>2021-06-28T01:25:10.000Z</time>
        <extensions>
          <ns3:TrackPointExtension>
            <ns3:atemp>31.0</ns3:atemp>
            <ns3:hr>80</ns3:hr>
          </ns3:TrackPointExtension>
        </extensions>
      </trkpt>
      <trkpt lat="36.87340113334357738494873046875" lon="-118.47302206791937351226806640625">
        <ele>2492.39990234375</ele>
        <time>2021-06-28T01:25:14.000Z</time>
        <extensions>
          <ns3:TrackPointExtension>
            <ns3:atemp>31.0</ns3:atemp>
            <ns3:hr>80</ns3:hr>
          </ns3:TrackPointExtension>
        </extensions>
      </trkpt>
      <trkpt lat="36.87339912168681621551513671875" lon="-118.47303472459316253662109375">
        <ele>2492.39990234375</ele>
        <time>2021-06-28T01:25:15.000Z</time>
        <extensions>
          <ns3:TrackPointExtension>
            <ns3:atemp>31.0</ns3:atemp>
            <ns3:hr>77</ns3:hr>
          </ns3:TrackPointExtension>
        </extensions>
      </trkpt>
      <trkpt lat="36.87339954078197479248046875" lon="-118.4730493091046810150146484375">
        <ele>2492.39990234375</ele>
        <time>2021-06-28T01:25:16.000Z</time>
        <extensions>
          <ns3:TrackPointExtension>
            <ns3:atemp>31.0</ns3:atemp>
            <ns3:hr>80</ns3:hr>
          </ns3:TrackPointExtension>
        </extensions>
      </trkpt>
      <trkpt lat="36.8733976967632770538330078125" lon="-118.47308702766895294189453125">
        <ele>2492</ele>
        <time>2021-06-28T01:25:19.000Z</time>
        <extensions>
          <ns3:TrackPointExtension>
            <ns3:atemp>31.0</ns3:atemp>
            <ns3:hr>82</ns3:hr>
          </ns3:TrackPointExtension>
        </extensions>
      </trkpt>
      <trkpt lat="36.8733935058116912841796875" lon="-118.47309482283890247344970703125">
        <ele>2491.800048828125</ele>
        <time>2021-06-28T01:25:20.000Z</time>
        <extensions>
          <ns3:TrackPointExtension>
            <ns3:atemp>31.0</ns3:atemp>
            <ns3:hr>82</ns3:hr>
          </ns3:TrackPointExtension>
        </extensions>
      </trkpt>
      <trkpt lat="36.87338420189917087554931640625" lon="-118.47316305153071880340576171875">
        <ele>2490.800048828125</ele>
        <time>2021-06-28T01:25:25.000Z</time>
        <extensions>
          <ns3:TrackPointExtension>
            <ns3:atemp>31.0</ns3:atemp>
            <ns3:hr>80</ns3:hr>
          </ns3:TrackPointExtension>
        </extensions>
      </trkpt>
      <trkpt lat="36.87337481416761875152587890625" lon="-118.47319423221051692962646484375">
        <ele>2490.39990234375</ele>
        <time>2021-06-28T01:25:27.000Z</time>
        <extensions>
          <ns3:TrackPointExtension>
            <ns3:atemp>31.0</ns3:atemp>
            <ns3:hr>80</ns3:hr>
          </ns3:TrackPointExtension>
        </extensions>
      </trkpt>
      <trkpt lat="36.873366348445415496826171875" lon="-118.47322457469999790191650390625">
        <ele>2490.199951171875</ele>
        <time>2021-06-28T01:25:30.000Z</time>
        <extensions>
          <ns3:TrackPointExtension>
            <ns3:atemp>31.0</ns3:atemp>
            <ns3:hr>80</ns3:hr>
          </ns3:TrackPointExtension>
        </extensions>
      </trkpt>
      <trkpt lat="36.87334229238331317901611328125" lon="-118.4732410870492458343505859375">
        <ele>2490</ele>
        <time>2021-06-28T01:25:32.000Z</time>
        <extensions>
          <ns3:TrackPointExtension>
            <ns3:atemp>31.0</ns3:atemp>
            <ns3:hr>80</ns3:hr>
          </ns3:TrackPointExtension>
        </extensions>
      </trkpt>
      <trkpt lat="36.87332578003406524658203125" lon="-118.473254330456256866455078125">
        <ele>2489.60009765625</ele>
        <time>2021-06-28T01:25:34.000Z</time>
        <extensions>
          <ns3:TrackPointExtension>
            <ns3:atemp>31.0</ns3:atemp>
            <ns3:hr>82</ns3:hr>
          </ns3:TrackPointExtension>
        </extensions>
      </trkpt>
      <trkpt lat="36.8733041547238826751708984375" lon="-118.4733205474913120269775390625">
        <ele>2488.39990234375</ele>
        <time>2021-06-28T01:25:40.000Z</time>
        <extensions>
          <ns3:TrackPointExtension>
            <ns3:atemp>31.0</ns3:atemp>
            <ns3:hr>81</ns3:hr>
          </ns3:TrackPointExtension>
        </extensions>
      </trkpt>
      <trkpt lat="36.87327406369149684906005859375" lon="-118.47337930463254451751708984375">
        <ele>2486.800048828125</ele>
        <time>2021-06-28T01:25:46.000Z</time>
        <extensions>
          <ns3:TrackPointExtension>
            <ns3:atemp>31.0</ns3:atemp>
            <ns3:hr>80</ns3:hr>
          </ns3:TrackPointExtension>
        </extensions>
      </trkpt>
      <trkpt lat="36.87326936982572078704833984375" lon="-118.473400175571441650390625">
        <ele>2486.800048828125</ele>
        <time>2021-06-28T01:25:47.000Z</time>
        <extensions>
          <ns3:TrackPointExtension>
            <ns3:atemp>31.0</ns3:atemp>
            <ns3:hr>80</ns3:hr>
          </ns3:TrackPointExtension>
        </extensions>
      </trkpt>
      <trkpt lat="36.873261071741580963134765625" lon="-118.4734556637704372406005859375">
        <ele>2485.800048828125</ele>
        <time>2021-06-28T01:25:50.000Z</time>
        <extensions>
          <ns3:TrackPointExtension>
            <ns3:atemp>31.0</ns3:atemp>
            <ns3:hr>80</ns3:hr>
          </ns3:TrackPointExtension>
        </extensions>
      </trkpt>
      <trkpt lat="36.8732417933642864227294921875" lon="-118.4735066257417201995849609375">
        <ele>2485.199951171875</ele>
        <time>2021-06-28T01:25:55.000Z</time>
        <extensions>
          <ns3:TrackPointExtension>
            <ns3:atemp>31.0</ns3:atemp>
            <ns3:hr>77</ns3:hr>
          </ns3:TrackPointExtension>
        </extensions>
      </trkpt>
      <trkpt lat="36.87323265708982944488525390625" lon="-118.47354459576308727264404296875">
        <ele>2485</ele>
        <time>2021-06-28T01:25:58.000Z</time>
        <extensions>
          <ns3:TrackPointExtension>
            <ns3:atemp>31.0</ns3:atemp>
            <ns3:hr>77</ns3:hr>
          </ns3:TrackPointExtension>
        </extensions>
      </trkpt>
      <trkpt lat="36.87322913669049739837646484375" lon="-118.4735584259033203125">
        <ele>2484.60009765625</ele>
        <time>2021-06-28T01:25:59.000Z</time>
        <extensions>
          <ns3:TrackPointExtension>
            <ns3:atemp>31.0</ns3:atemp>
            <ns3:hr>76</ns3:hr>
          </ns3:TrackPointExtension>
        </extensions>
      </trkpt>
      <trkpt lat="36.87322251498699188232421875" lon="-118.473581559956073760986328125">
        <ele>2484.39990234375</ele>
        <time>2021-06-28T01:26:01.000Z</time>
        <extensions>
          <ns3:TrackPointExtension>
            <ns3:atemp>31.0</ns3:atemp>
            <ns3:hr>79</ns3:hr>
          </ns3:TrackPointExtension>
        </extensions>
      </trkpt>
      <trkpt lat="36.8732075951993465423583984375" lon="-118.4736253134906291961669921875">
        <ele>2484.199951171875</ele>
        <time>2021-06-28T01:26:05.000Z</time>
        <extensions>
          <ns3:TrackPointExtension>
            <ns3:atemp>31.0</ns3:atemp>
            <ns3:hr>82</ns3:hr>
          </ns3:TrackPointExtension>
        </extensions>
      </trkpt>
      <trkpt lat="36.8732035718858242034912109375" lon="-118.47363646142184734344482421875">
        <ele>2483.60009765625</ele>
        <time>2021-06-28T01:26:06.000Z</time>
        <extensions>
          <ns3:TrackPointExtension>
            <ns3:atemp>31.0</ns3:atemp>
            <ns3:hr>83</ns3:hr>
          </ns3:TrackPointExtension>
        </extensions>
      </trkpt>
      <trkpt lat="36.87318890355527400970458984375" lon="-118.4736645407974720001220703125">
        <ele>2482.800048828125</ele>
        <time>2021-06-28T01:26:09.000Z</time>
        <extensions>
          <ns3:TrackPointExtension>
            <ns3:atemp>31.0</ns3:atemp>
            <ns3:hr>87</ns3:hr>
          </ns3:TrackPointExtension>
        </extensions>
      </trkpt>
      <trkpt lat="36.873173229396343231201171875" lon="-118.473671413958072662353515625">
        <ele>2482.800048828125</ele>
        <time>2021-06-28T01:26:11.000Z</time>
        <extensions>
          <ns3:TrackPointExtension>
            <ns3:atemp>31.0</ns3:atemp>
            <ns3:hr>85</ns3:hr>
          </ns3:TrackPointExtension>
        </extensions>
      </trkpt>
      <trkpt lat="36.87316308729350566864013671875" lon="-118.473675437271595001220703125">
        <ele>2482.60009765625</ele>
        <time>2021-06-28T01:26:12.000Z</time>
        <extensions>
          <ns3:TrackPointExtension>
            <ns3:atemp>31.0</ns3:atemp>
            <ns3:hr>85</ns3:hr>
          </ns3:TrackPointExtension>
        </extensions>
      </trkpt>
      <trkpt lat="36.873158477246761322021484375" lon="-118.4736751019954681396484375">
        <ele>2482.60009765625</ele>
        <time>2021-06-28T01:26:13.000Z</time>
        <extensions>
          <ns3:TrackPointExtension>
            <ns3:atemp>31.0</ns3:atemp>
            <ns3:hr>85</ns3:hr>
          </ns3:TrackPointExtension>
        </extensions>
      </trkpt>
      <trkpt lat="36.8731294758617877960205078125" lon="-118.473684489727020263671875">
        <ele>2481.199951171875</ele>
        <time>2021-06-28T01:26:17.000Z</time>
        <extensions>
          <ns3:TrackPointExtension>
            <ns3:atemp>31.0</ns3:atemp>
            <ns3:hr>84</ns3:hr>
          </ns3:TrackPointExtension>
        </extensions>
      </trkpt>
      <trkpt lat="36.87311111949384212493896484375" lon="-118.4736984036862850189208984375">
        <ele>2480.60009765625</ele>
        <time>2021-06-28T01:26:20.000Z</time>
        <extensions>
          <ns3:TrackPointExtension>
            <ns3:atemp>31.0</ns3:atemp>
            <ns3:hr>84</ns3:hr>
          </ns3:TrackPointExtension>
        </extensions>
      </trkpt>
      <trkpt lat="36.87309485860168933868408203125" lon="-118.47372673451900482177734375">
        <ele>2480.199951171875</ele>
        <time>2021-06-28T01:26:23.000Z</time>
        <extensions>
          <ns3:TrackPointExtension>
            <ns3:atemp>31.0</ns3:atemp>
            <ns3:hr>85</ns3:hr>
          </ns3:TrackPointExtension>
        </extensions>
      </trkpt>
      <trkpt lat="36.8730922602117061614990234375" lon="-118.473735786974430084228515625">
        <ele>2479.39990234375</ele>
        <time>2021-06-28T01:26:24.000Z</time>
        <extensions>
          <ns3:TrackPointExtension>
            <ns3:atemp>31.0</ns3:atemp>
            <ns3:hr>85</ns3:hr>
          </ns3:TrackPointExtension>
        </extensions>
      </trkpt>
      <trkpt lat="36.8730823695659637451171875" lon="-118.473747186362743377685546875">
        <ele>2479.39990234375</ele>
        <time>2021-06-28T01:26:26.000Z</time>
        <extensions>
          <ns3:TrackPointExtension>
            <ns3:atemp>31.0</ns3:atemp>
            <ns3:hr>85</ns3:hr>
          </ns3:TrackPointExtension>
        </extensions>
      </trkpt>
      <trkpt lat="36.87306853942573070526123046875" lon="-118.47375229932367801666259765625">
        <ele>2479.199951171875</ele>
        <time>2021-06-28T01:26:28.000Z</time>
        <extensions>
          <ns3:TrackPointExtension>
            <ns3:atemp>31.0</ns3:atemp>
            <ns3:hr>84</ns3:hr>
          </ns3:TrackPointExtension>
        </extensions>
      </trkpt>
      <trkpt lat="36.87303484417498111724853515625" lon="-118.47377635538578033447265625">
        <ele>2478.60009765625</ele>
        <time>2021-06-28T01:26:32.000Z</time>
        <extensions>
          <ns3:TrackPointExtension>
            <ns3:atemp>31.0</ns3:atemp>
            <ns3:hr>83</ns3:hr>
          </ns3:TrackPointExtension>
        </extensions>
      </trkpt>
      <trkpt lat="36.87302931211888790130615234375" lon="-118.4737797081470489501953125">
        <ele>2478.39990234375</ele>
        <time>2021-06-28T01:26:33.000Z</time>
        <extensions>
          <ns3:TrackPointExtension>
            <ns3:atemp>31.0</ns3:atemp>
            <ns3:hr>81</ns3:hr>
          </ns3:TrackPointExtension>
        </extensions>
      </trkpt>
      <trkpt lat="36.8730191700160503387451171875" lon="-118.4737828932702541351318359375">
        <ele>2477.800048828125</ele>
        <time>2021-06-28T01:26:35.000Z</time>
        <extensions>
          <ns3:TrackPointExtension>
            <ns3:atemp>31.0</ns3:atemp>
            <ns3:hr>76</ns3:hr>
          </ns3:TrackPointExtension>
        </extensions>
      </trkpt>
      <trkpt lat="36.8730134703218936920166015625" lon="-118.473791442811489105224609375">
        <ele>2477.60009765625</ele>
        <time>2021-06-28T01:26:36.000Z</time>
        <extensions>
          <ns3:TrackPointExtension>
            <ns3:atemp>31.0</ns3:atemp>
            <ns3:hr>76</ns3:hr>
          </ns3:TrackPointExtension>
        </extensions>
      </trkpt>
      <trkpt lat="36.87301070429384708404541015625" lon="-118.47380812279880046844482421875">
        <ele>2477.199951171875</ele>
        <time>2021-06-28T01:26:37.000Z</time>
        <extensions>
          <ns3:TrackPointExtension>
            <ns3:atemp>31.0</ns3:atemp>
            <ns3:hr>74</ns3:hr>
          </ns3:TrackPointExtension>
        </extensions>
      </trkpt>
      <trkpt lat="36.87300818972289562225341796875" lon="-118.47385657019913196563720703125">
        <ele>2477</ele>
        <time>2021-06-28T01:26:41.000Z</time>
        <extensions>
          <ns3:TrackPointExtension>
            <ns3:atemp>31.0</ns3:atemp>
            <ns3:hr>72</ns3:hr>
          </ns3:TrackPointExtension>
        </extensions>
      </trkpt>
      <trkpt lat="36.873007602989673614501953125" lon="-118.47386679612100124359130859375">
        <ele>2476.800048828125</ele>
        <time>2021-06-28T01:26:42.000Z</time>
        <extensions>
          <ns3:TrackPointExtension>
            <ns3:atemp>31.0</ns3:atemp>
            <ns3:hr>72</ns3:hr>
          </ns3:TrackPointExtension>
        </extensions>
      </trkpt>
      <trkpt lat="36.8729963712394237518310546875" lon="-118.4738801233470439910888671875">
        <ele>2476.60009765625</ele>
        <time>2021-06-28T01:26:44.000Z</time>
        <extensions>
          <ns3:TrackPointExtension>
            <ns3:atemp>31.0</ns3:atemp>
            <ns3:hr>72</ns3:hr>
          </ns3:TrackPointExtension>
        </extensions>
      </trkpt>
      <trkpt lat="36.8729822896420955657958984375" lon="-118.47390434704720973968505859375">
        <ele>2476.39990234375</ele>
        <time>2021-06-28T01:26:46.000Z</time>
        <extensions>
          <ns3:TrackPointExtension>
            <ns3:atemp>31.0</ns3:atemp>
            <ns3:hr>72</ns3:hr>
          </ns3:TrackPointExtension>
        </extensions>
      </trkpt>
      <trkpt lat="36.8729742430150508880615234375" lon="-118.47391423769295215606689453125">
        <ele>2476</ele>
        <time>2021-06-28T01:26:47.000Z</time>
        <extensions>
          <ns3:TrackPointExtension>
            <ns3:atemp>31.0</ns3:atemp>
            <ns3:hr>70</ns3:hr>
          </ns3:TrackPointExtension>
        </extensions>
      </trkpt>
      <trkpt lat="36.87296359799802303314208984375" lon="-118.47392580471932888031005859375">
        <ele>2475.800048828125</ele>
        <time>2021-06-28T01:26:48.000Z</time>
        <extensions>
          <ns3:TrackPointExtension>
            <ns3:atemp>31.0</ns3:atemp>
            <ns3:hr>70</ns3:hr>
          </ns3:TrackPointExtension>
        </extensions>
      </trkpt>
      <trkpt lat="36.87295890413224697113037109375" lon="-118.47393670119345188140869140625">
        <ele>2475.60009765625</ele>
        <time>2021-06-28T01:26:49.000Z</time>
        <extensions>
          <ns3:TrackPointExtension>
            <ns3:atemp>31.0</ns3:atemp>
            <ns3:hr>73</ns3:hr>
          </ns3:TrackPointExtension>
        </extensions>
      </trkpt>
      <trkpt lat="36.87294180504977703094482421875" lon="-118.4739877469837665557861328125">
        <ele>2475.60009765625</ele>
        <time>2021-06-28T01:26:52.000Z</time>
        <extensions>
          <ns3:TrackPointExtension>
            <ns3:atemp>31.0</ns3:atemp>
            <ns3:hr>76</ns3:hr>
          </ns3:TrackPointExtension>
        </extensions>
      </trkpt>
      <trkpt lat="36.87292437069118022918701171875" lon="-118.47402940504252910614013671875">
        <ele>2475.60009765625</ele>
        <time>2021-06-28T01:26:55.000Z</time>
        <extensions>
          <ns3:TrackPointExtension>
            <ns3:atemp>31.0</ns3:atemp>
            <ns3:hr>79</ns3:hr>
          </ns3:TrackPointExtension>
        </extensions>
      </trkpt>
      <trkpt lat="36.87291934154927730560302734375" lon="-118.4740398824214935302734375">
        <ele>2475.60009765625</ele>
        <time>2021-06-28T01:26:56.000Z</time>
        <extensions>
          <ns3:TrackPointExtension>
            <ns3:atemp>31.0</ns3:atemp>
            <ns3:hr>80</ns3:hr>
          </ns3:TrackPointExtension>
        </extensions>
      </trkpt>
      <trkpt lat="36.87290542759001255035400390625" lon="-118.47405756823718547821044921875">
        <ele>2474.800048828125</ele>
        <time>2021-06-28T01:26:59.000Z</time>
        <extensions>
          <ns3:TrackPointExtension>
            <ns3:atemp>31.0</ns3:atemp>
            <ns3:hr>80</ns3:hr>
          </ns3:TrackPointExtension>
        </extensions>
      </trkpt>
      <trkpt lat="36.8728988058865070343017578125" lon="-118.47406846471130847930908203125">
        <ele>2474.199951171875</ele>
        <time>2021-06-28T01:27:00.000Z</time>
        <extensions>
          <ns3:TrackPointExtension>
            <ns3:atemp>31.0</ns3:atemp>
            <ns3:hr>80</ns3:hr>
          </ns3:TrackPointExtension>
        </extensions>
      </trkpt>
      <trkpt lat="36.87288732267916202545166015625" lon="-118.4740962088108062744140625">
        <ele>2474</ele>
        <time>2021-06-28T01:27:03.000Z</time>
        <extensions>
          <ns3:TrackPointExtension>
            <ns3:atemp>31.0</ns3:atemp>
            <ns3:hr>81</ns3:hr>
          </ns3:TrackPointExtension>
        </extensions>
      </trkpt>
      <trkpt lat="36.872879527509212493896484375" lon="-118.47411297261714935302734375">
        <ele>2473.60009765625</ele>
        <time>2021-06-28T01:27:05.000Z</time>
        <extensions>
          <ns3:TrackPointExtension>
            <ns3:atemp>31.0</ns3:atemp>
            <ns3:hr>81</ns3:hr>
          </ns3:TrackPointExtension>
        </extensions>
      </trkpt>
      <trkpt lat="36.87285664491355419158935546875" lon="-118.47418430261313915252685546875">
        <ele>2472.60009765625</ele>
        <time>2021-06-28T01:27:10.000Z</time>
        <extensions>
          <ns3:TrackPointExtension>
            <ns3:atemp>31.0</ns3:atemp>
            <ns3:hr>81</ns3:hr>
          </ns3:TrackPointExtension>
        </extensions>
      </trkpt>
      <trkpt lat="36.87283367849886417388916015625" lon="-118.47426912747323513031005859375">
        <ele>2472.60009765625</ele>
        <time>2021-06-28T01:27:17.000Z</time>
        <extensions>
          <ns3:TrackPointExtension>
            <ns3:atemp>31.0</ns3:atemp>
            <ns3:hr>82</ns3:hr>
          </ns3:TrackPointExtension>
        </extensions>
      </trkpt>
      <trkpt lat="36.87283049337565898895263671875" lon="-118.474277593195438385009765625">
        <ele>2472.39990234375</ele>
        <time>2021-06-28T01:27:18.000Z</time>
        <extensions>
          <ns3:TrackPointExtension>
            <ns3:atemp>31.0</ns3:atemp>
            <ns3:hr>82</ns3:hr>
          </ns3:TrackPointExtension>
        </extensions>
      </trkpt>
      <trkpt lat="36.8728248775005340576171875" lon="-118.47428337670862674713134765625">
        <ele>2472.39990234375</ele>
        <time>2021-06-28T01:27:19.000Z</time>
        <extensions>
          <ns3:TrackPointExtension>
            <ns3:atemp>31.0</ns3:atemp>
            <ns3:hr>83</ns3:hr>
          </ns3:TrackPointExtension>
        </extensions>
      </trkpt>
      <trkpt lat="36.87279277481138706207275390625" lon="-118.47431019879877567291259765625">
        <ele>2471.60009765625</ele>
        <time>2021-06-28T01:27:23.000Z</time>
        <extensions>
          <ns3:TrackPointExtension>
            <ns3:atemp>31.0</ns3:atemp>
            <ns3:hr>86</ns3:hr>
          </ns3:TrackPointExtension>
        </extensions>
      </trkpt>
      <trkpt lat="36.8727885000407695770263671875" lon="-118.47432008944451808929443359375">
        <ele>2471.60009765625</ele>
        <time>2021-06-28T01:27:24.000Z</time>
        <extensions>
          <ns3:TrackPointExtension>
            <ns3:atemp>31.0</ns3:atemp>
            <ns3:hr>86</ns3:hr>
          </ns3:TrackPointExtension>
        </extensions>
      </trkpt>
      <trkpt lat="36.87278808094561100006103515625" lon="-118.474334590137004852294921875">
        <ele>2470.800048828125</ele>
        <time>2021-06-28T01:27:25.000Z</time>
        <extensions>
          <ns3:TrackPointExtension>
            <ns3:atemp>31.0</ns3:atemp>
            <ns3:hr>88</ns3:hr>
          </ns3:TrackPointExtension>
        </extensions>
      </trkpt>
      <trkpt lat="36.87276410870254039764404296875" lon="-118.474378176033496856689453125">
        <ele>2470.39990234375</ele>
        <time>2021-06-28T01:27:30.000Z</time>
        <extensions>
          <ns3:TrackPointExtension>
            <ns3:atemp>31.0</ns3:atemp>
            <ns3:hr>89</ns3:hr>
          </ns3:TrackPointExtension>
        </extensions>
      </trkpt>
      <trkpt lat="36.8727556429803371429443359375" lon="-118.474401645362377166748046875">
        <ele>2470.199951171875</ele>
        <time>2021-06-28T01:27:32.000Z</time>
        <extensions>
          <ns3:TrackPointExtension>
            <ns3:atemp>31.0</ns3:atemp>
            <ns3:hr>90</ns3:hr>
          </ns3:TrackPointExtension>
        </extensions>
      </trkpt>
      <trkpt lat="36.87275170348584651947021484375" lon="-118.47442436031997203826904296875">
        <ele>2469.60009765625</ele>
        <time>2021-06-28T01:27:34.000Z</time>
        <extensions>
          <ns3:TrackPointExtension>
            <ns3:atemp>31.0</ns3:atemp>
            <ns3:hr>88</ns3:hr>
          </ns3:TrackPointExtension>
        </extensions>
      </trkpt>
      <trkpt lat="36.87274374067783355712890625" lon="-118.47445352934300899505615234375">
        <ele>2469.39990234375</ele>
        <time>2021-06-28T01:27:36.000Z</time>
        <extensions>
          <ns3:TrackPointExtension>
            <ns3:atemp>31.0</ns3:atemp>
            <ns3:hr>87</ns3:hr>
          </ns3:TrackPointExtension>
        </extensions>
      </trkpt>
      <trkpt lat="36.87271147035062313079833984375" lon="-118.474517650902271270751953125">
        <ele>2468.39990234375</ele>
        <time>2021-06-28T01:27:44.000Z</time>
        <extensions>
          <ns3:TrackPointExtension>
            <ns3:atemp>31.0</ns3:atemp>
            <ns3:hr>85</ns3:hr>
          </ns3:TrackPointExtension>
        </extensions>
      </trkpt>
      <trkpt lat="36.87270560301840305328369140625" lon="-118.47453164868056774139404296875">
        <ele>2468.39990234375</ele>
        <time>2021-06-28T01:27:45.000Z</time>
        <extensions>
          <ns3:TrackPointExtension>
            <ns3:atemp>31.0</ns3:atemp>
            <ns3:hr>85</ns3:hr>
          </ns3:TrackPointExtension>
        </extensions>
      </trkpt>
      <trkpt lat="36.8726597540080547332763671875" lon="-118.474619574844837188720703125">
        <ele>2468.39990234375</ele>
        <time>2021-06-28T01:27:54.000Z</time>
        <extensions>
          <ns3:TrackPointExtension>
            <ns3:atemp>31.0</ns3:atemp>
            <ns3:hr>85</ns3:hr>
          </ns3:TrackPointExtension>
        </extensions>
      </trkpt>
      <trkpt lat="36.8726570717990398406982421875" lon="-118.47462929785251617431640625">
        <ele>2468.39990234375</ele>
        <time>2021-06-28T01:27:55.000Z</time>
        <extensions>
          <ns3:TrackPointExtension>
            <ns3:atemp>31.0</ns3:atemp>
            <ns3:hr>85</ns3:hr>
          </ns3:TrackPointExtension>
        </extensions>
      </trkpt>
      <trkpt lat="36.87260636128485202789306640625" lon="-118.4747265279293060302734375">
        <ele>2467.39990234375</ele>
        <time>2021-06-28T01:28:05.000Z</time>
        <extensions>
          <ns3:TrackPointExtension>
            <ns3:atemp>31.0</ns3:atemp>
            <ns3:hr>87</ns3:hr>
          </ns3:TrackPointExtension>
        </extensions>
      </trkpt>
      <trkpt lat="36.87256428413093090057373046875" lon="-118.4747826866805553436279296875">
        <ele>2466.60009765625</ele>
        <time>2021-06-28T01:28:10.000Z</time>
        <extensions>
          <ns3:TrackPointExtension>
            <ns3:atemp>31.0</ns3:atemp>
            <ns3:hr>84</ns3:hr>
          </ns3:TrackPointExtension>
        </extensions>
      </trkpt>
      <trkpt lat="36.87255196273326873779296875" lon="-118.47480070777237415313720703125">
        <ele>2466.39990234375</ele>
        <time>2021-06-28T01:28:12.000Z</time>
        <extensions>
          <ns3:TrackPointExtension>
            <ns3:atemp>31.0</ns3:atemp>
            <ns3:hr>83</ns3:hr>
          </ns3:TrackPointExtension>
        </extensions>
      </trkpt>
      <trkpt lat="36.87251701019704341888427734375" lon="-118.4749134443700313568115234375">
        <ele>2465</ele>
        <time>2021-06-28T01:28:22.000Z</time>
        <extensions>
          <ns3:TrackPointExtension>
            <ns3:atemp>31.0</ns3:atemp>
            <ns3:hr>84</ns3:hr>
          </ns3:TrackPointExtension>
        </extensions>
      </trkpt>
      <trkpt lat="36.8725217878818511962890625" lon="-118.47491763532161712646484375">
        <ele>2464.800048828125</ele>
        <time>2021-06-28T01:28:26.000Z</time>
        <extensions>
          <ns3:TrackPointExtension>
            <ns3:atemp>31.0</ns3:atemp>
            <ns3:hr>85</ns3:hr>
          </ns3:TrackPointExtension>
        </extensions>
      </trkpt>
      <trkpt lat="36.87251575291156768798828125" lon="-118.47492056898772716522216796875">
        <ele>2464.800048828125</ele>
        <time>2021-06-28T01:28:29.000Z</time>
        <extensions>
          <ns3:TrackPointExtension>
            <ns3:atemp>31.0</ns3:atemp>
            <ns3:hr>82</ns3:hr>
          </ns3:TrackPointExtension>
        </extensions>
      </trkpt>
      <trkpt lat="36.87249940820038318634033203125" lon="-118.47492576576769351959228515625">
        <ele>2464.800048828125</ele>
        <time>2021-06-28T01:28:30.000Z</time>
        <extensions>
          <ns3:TrackPointExtension>
            <ns3:atemp>31.0</ns3:atemp>
            <ns3:hr>85</ns3:hr>
          </ns3:TrackPointExtension>
        </extensions>
      </trkpt>
      <trkpt lat="36.87248163856565952301025390625" lon="-118.47495158202946186065673828125">
        <ele>2464.800048828125</ele>
        <time>2021-06-28T01:28:33.000Z</time>
        <extensions>
          <ns3:TrackPointExtension>
            <ns3:atemp>31.0</ns3:atemp>
            <ns3:hr>84</ns3:hr>
          </ns3:TrackPointExtension>
        </extensions>
      </trkpt>
      <trkpt lat="36.87247359193861484527587890625" lon="-118.47496717236936092376708984375">
        <ele>2464.800048828125</ele>
        <time>2021-06-28T01:28:38.000Z</time>
        <extensions>
          <ns3:TrackPointExtension>
            <ns3:atemp>31.0</ns3:atemp>
            <ns3:hr>81</ns3:hr>
          </ns3:TrackPointExtension>
        </extensions>
      </trkpt>
      <trkpt lat="36.87247141264379024505615234375" lon="-118.47498334944248199462890625">
        <ele>2464.39990234375</ele>
        <time>2021-06-28T01:28:40.000Z</time>
        <extensions>
          <ns3:TrackPointExtension>
            <ns3:atemp>31.0</ns3:atemp>
            <ns3:hr>82</ns3:hr>
          </ns3:TrackPointExtension>
        </extensions>
      </trkpt>
      <trkpt lat="36.872465796768665313720703125" lon="-118.47501779906451702117919921875">
        <ele>2464</ele>
        <time>2021-06-28T01:28:44.000Z</time>
        <extensions>
          <ns3:TrackPointExtension>
            <ns3:atemp>31.0</ns3:atemp>
            <ns3:hr>83</ns3:hr>
          </ns3:TrackPointExtension>
        </extensions>
      </trkpt>
      <trkpt lat="36.87246487475931644439697265625" lon="-118.47504294477403163909912109375">
        <ele>2463</ele>
        <time>2021-06-28T01:28:47.000Z</time>
        <extensions>
          <ns3:TrackPointExtension>
            <ns3:atemp>31.0</ns3:atemp>
            <ns3:hr>83</ns3:hr>
          </ns3:TrackPointExtension>
        </extensions>
      </trkpt>
      <trkpt lat="36.8724662996828556060791015625" lon="-118.4751421026885509490966796875">
        <ele>2462.39990234375</ele>
        <time>2021-06-28T01:28:54.000Z</time>
        <extensions>
          <ns3:TrackPointExtension>
            <ns3:atemp>31.0</ns3:atemp>
            <ns3:hr>84</ns3:hr>
          </ns3:TrackPointExtension>
        </extensions>
      </trkpt>
      <trkpt lat="36.87246772460639476776123046875" lon="-118.47515325061976909637451171875">
        <ele>2462.199951171875</ele>
        <time>2021-06-28T01:28:55.000Z</time>
        <extensions>
          <ns3:TrackPointExtension>
            <ns3:atemp>31.0</ns3:atemp>
            <ns3:hr>84</ns3:hr>
          </ns3:TrackPointExtension>
        </extensions>
      </trkpt>
      <trkpt lat="36.87248398549854755401611328125" lon="-118.47523053176701068878173828125">
        <ele>2461</ele>
        <time>2021-06-28T01:29:03.000Z</time>
        <extensions>
          <ns3:TrackPointExtension>
            <ns3:atemp>31.0</ns3:atemp>
            <ns3:hr>85</ns3:hr>
          </ns3:TrackPointExtension>
        </extensions>
      </trkpt>
      <trkpt lat="36.87245096080005168914794921875" lon="-118.4752463735640048980712890625">
        <ele>2460.60009765625</ele>
        <time>2021-06-28T01:29:07.000Z</time>
        <extensions>
          <ns3:TrackPointExtension>
            <ns3:atemp>31.0</ns3:atemp>
            <ns3:hr>82</ns3:hr>
          </ns3:TrackPointExtension>
        </extensions>
      </trkpt>
      <trkpt lat="36.87241357751190662384033203125" lon="-118.47527696751058101654052734375">
        <ele>2460.199951171875</ele>
        <time>2021-06-28T01:29:11.000Z</time>
        <extensions>
          <ns3:TrackPointExtension>
            <ns3:atemp>31.0</ns3:atemp>
            <ns3:hr>82</ns3:hr>
          </ns3:TrackPointExtension>
        </extensions>
      </trkpt>
      <trkpt lat="36.8724093027412891387939453125" lon="-118.47528920508921146392822265625">
        <ele>2459.800048828125</ele>
        <time>2021-06-28T01:29:12.000Z</time>
        <extensions>
          <ns3:TrackPointExtension>
            <ns3:atemp>31.0</ns3:atemp>
            <ns3:hr>82</ns3:hr>
          </ns3:TrackPointExtension>
        </extensions>
      </trkpt>
      <trkpt lat="36.87240854837000370025634765625" lon="-118.4753010235726833343505859375">
        <ele>2459.60009765625</ele>
        <time>2021-06-28T01:29:13.000Z</time>
        <extensions>
          <ns3:TrackPointExtension>
            <ns3:atemp>31.0</ns3:atemp>
            <ns3:hr>82</ns3:hr>
          </ns3:TrackPointExtension>
        </extensions>
      </trkpt>
      <trkpt lat="36.87241408042609691619873046875" lon="-118.47533966414630413055419921875">
        <ele>2459.199951171875</ele>
        <time>2021-06-28T01:29:17.000Z</time>
        <extensions>
          <ns3:TrackPointExtension>
            <ns3:atemp>31.0</ns3:atemp>
            <ns3:hr>80</ns3:hr>
          </ns3:TrackPointExtension>
        </extensions>
      </trkpt>
      <trkpt lat="36.87240553088486194610595703125" lon="-118.475405462086200714111328125">
        <ele>2459</ele>
        <time>2021-06-28T01:29:21.000Z</time>
        <extensions>
          <ns3:TrackPointExtension>
            <ns3:atemp>31.0</ns3:atemp>
            <ns3:hr>83</ns3:hr>
          </ns3:TrackPointExtension>
        </extensions>
      </trkpt>
      <trkpt lat="36.8723982386291027069091796875" lon="-118.47542163915932178497314453125">
        <ele>2458.60009765625</ele>
        <time>2021-06-28T01:29:22.000Z</time>
        <extensions>
          <ns3:TrackPointExtension>
            <ns3:atemp>31.0</ns3:atemp>
            <ns3:hr>83</ns3:hr>
          </ns3:TrackPointExtension>
        </extensions>
      </trkpt>
      <trkpt lat="36.8723849952220916748046875" lon="-118.475480563938617706298828125">
        <ele>2458</ele>
        <time>2021-06-28T01:29:26.000Z</time>
        <extensions>
          <ns3:TrackPointExtension>
            <ns3:atemp>31.0</ns3:atemp>
            <ns3:hr>83</ns3:hr>
          </ns3:TrackPointExtension>
        </extensions>
      </trkpt>
      <trkpt lat="36.87236957252025604248046875" lon="-118.475510068237781524658203125">
        <ele>2458</ele>
        <time>2021-06-28T01:29:28.000Z</time>
        <extensions>
          <ns3:TrackPointExtension>
            <ns3:atemp>31.0</ns3:atemp>
            <ns3:hr>84</ns3:hr>
          </ns3:TrackPointExtension>
        </extensions>
      </trkpt>
      <trkpt lat="36.87238373793661594390869140625" lon="-118.47553663887083530426025390625">
        <ele>2457.39990234375</ele>
        <time>2021-06-28T01:29:30.000Z</time>
        <extensions>
          <ns3:TrackPointExtension>
            <ns3:atemp>31.0</ns3:atemp>
            <ns3:hr>85</ns3:hr>
          </ns3:TrackPointExtension>
        </extensions>
      </trkpt>
      <trkpt lat="36.8724052794277667999267578125" lon="-118.475566394627094268798828125">
        <ele>2457.39990234375</ele>
        <time>2021-06-28T01:29:33.000Z</time>
        <extensions>
          <ns3:TrackPointExtension>
            <ns3:atemp>31.0</ns3:atemp>
            <ns3:hr>86</ns3:hr>
          </ns3:TrackPointExtension>
        </extensions>
      </trkpt>
      <trkpt lat="36.87241642735898494720458984375" lon="-118.47559816204011440277099609375">
        <ele>2458.199951171875</ele>
        <time>2021-06-28T01:29:37.000Z</time>
        <extensions>
          <ns3:TrackPointExtension>
            <ns3:atemp>31.0</ns3:atemp>
            <ns3:hr>83</ns3:hr>
          </ns3:TrackPointExtension>
        </extensions>
      </trkpt>
      <trkpt lat="36.872420869767665863037109375" lon="-118.4756245650351047515869140625">
        <ele>2458.199951171875</ele>
        <time>2021-06-28T01:29:40.000Z</time>
        <extensions>
          <ns3:TrackPointExtension>
            <ns3:atemp>31.0</ns3:atemp>
            <ns3:hr>82</ns3:hr>
          </ns3:TrackPointExtension>
        </extensions>
      </trkpt>
      <trkpt lat="36.87244526110589504241943359375" lon="-118.47570377402007579803466796875">
        <ele>2457.39990234375</ele>
        <time>2021-06-28T01:29:49.000Z</time>
        <extensions>
          <ns3:TrackPointExtension>
            <ns3:atemp>31.0</ns3:atemp>
            <ns3:hr>82</ns3:hr>
          </ns3:TrackPointExtension>
        </extensions>
      </trkpt>
      <trkpt lat="36.87244375236332416534423828125" lon="-118.47577367909252643585205078125">
        <ele>2456.60009765625</ele>
        <time>2021-06-28T01:29:57.000Z</time>
        <extensions>
          <ns3:TrackPointExtension>
            <ns3:atemp>31.0</ns3:atemp>
            <ns3:hr>82</ns3:hr>
          </ns3:TrackPointExtension>
        </extensions>
      </trkpt>
      <trkpt lat="36.8724518828094005584716796875" lon="-118.4758029319345951080322265625">
        <ele>2456.39990234375</ele>
        <time>2021-06-28T01:29:59.000Z</time>
        <extensions>
          <ns3:TrackPointExtension>
            <ns3:atemp>31.0</ns3:atemp>
            <ns3:hr>84</ns3:hr>
          </ns3:TrackPointExtension>
        </extensions>
      </trkpt>
      <trkpt lat="36.8724662996828556060791015625" lon="-118.4759088791906833648681640625">
        <ele>2456</ele>
        <time>2021-06-28T01:30:07.000Z</time>
        <extensions>
          <ns3:TrackPointExtension>
            <ns3:atemp>31.0</ns3:atemp>
            <ns3:hr>85</ns3:hr>
          </ns3:TrackPointExtension>
        </extensions>
      </trkpt>
      <trkpt lat="36.87248490750789642333984375" lon="-118.4759762696921825408935546875">
        <ele>2455.199951171875</ele>
        <time>2021-06-28T01:30:13.000Z</time>
        <extensions>
          <ns3:TrackPointExtension>
            <ns3:atemp>31.0</ns3:atemp>
            <ns3:hr>84</ns3:hr>
          </ns3:TrackPointExtension>
        </extensions>
      </trkpt>
      <trkpt lat="36.8724864162504673004150390625" lon="-118.47601608373224735260009765625">
        <ele>2455.199951171875</ele>
        <time>2021-06-28T01:30:16.000Z</time>
        <extensions>
          <ns3:TrackPointExtension>
            <ns3:atemp>31.0</ns3:atemp>
            <ns3:hr>83</ns3:hr>
          </ns3:TrackPointExtension>
        </extensions>
      </trkpt>
      <trkpt lat="36.87248800881206989288330078125" lon="-118.4760393016040325164794921875">
        <ele>2455</ele>
        <time>2021-06-28T01:30:18.000Z</time>
        <extensions>
          <ns3:TrackPointExtension>
            <ns3:atemp>31.0</ns3:atemp>
            <ns3:hr>82</ns3:hr>
          </ns3:TrackPointExtension>
        </extensions>
      </trkpt>
      <trkpt lat="36.87249354086816310882568359375" lon="-118.47606553696095943450927734375">
        <ele>2455</ele>
        <time>2021-06-28T01:30:20.000Z</time>
        <extensions>
          <ns3:TrackPointExtension>
            <ns3:atemp>31.0</ns3:atemp>
            <ns3:hr>82</ns3:hr>
          </ns3:TrackPointExtension>
        </extensions>
      </trkpt>
      <trkpt lat="36.8725031800568103790283203125" lon="-118.4761207737028598785400390625">
        <ele>2455</ele>
        <time>2021-06-28T01:30:24.000Z</time>
        <extensions>
          <ns3:TrackPointExtension>
            <ns3:atemp>31.0</ns3:atemp>
            <ns3:hr>82</ns3:hr>
          </ns3:TrackPointExtension>
        </extensions>
      </trkpt>
      <trkpt lat="36.87250678427517414093017578125" lon="-118.47613259218633174896240234375">
        <ele>2455</ele>
        <time>2021-06-28T01:30:25.000Z</time>
        <extensions>
          <ns3:TrackPointExtension>
            <ns3:atemp>31.0</ns3:atemp>
            <ns3:hr>82</ns3:hr>
          </ns3:TrackPointExtension>
        </extensions>
      </trkpt>
      <trkpt lat="36.8725102208554744720458984375" lon="-118.47614835016429424285888671875">
        <ele>2454.39990234375</ele>
        <time>2021-06-28T01:30:26.000Z</time>
        <extensions>
          <ns3:TrackPointExtension>
            <ns3:atemp>31.0</ns3:atemp>
            <ns3:hr>77</ns3:hr>
          </ns3:TrackPointExtension>
        </extensions>
      </trkpt>
      <trkpt lat="36.87251231633126735687255859375" lon="-118.47616218030452728271484375">
        <ele>2454.199951171875</ele>
        <time>2021-06-28T01:30:27.000Z</time>
        <extensions>
          <ns3:TrackPointExtension>
            <ns3:atemp>31.0</ns3:atemp>
            <ns3:hr>82</ns3:hr>
          </ns3:TrackPointExtension>
        </extensions>
      </trkpt>
      <trkpt lat="36.87250326387584209442138671875" lon="-118.47618740983307361602783203125">
        <ele>2454</ele>
        <time>2021-06-28T01:30:29.000Z</time>
        <extensions>
          <ns3:TrackPointExtension>
            <ns3:atemp>31.0</ns3:atemp>
            <ns3:hr>83</ns3:hr>
          </ns3:TrackPointExtension>
        </extensions>
      </trkpt>
      <trkpt lat="36.872497312724590301513671875" lon="-118.47619445063173770904541015625">
        <ele>2454</ele>
        <time>2021-06-28T01:30:30.000Z</time>
        <extensions>
          <ns3:TrackPointExtension>
            <ns3:atemp>31.0</ns3:atemp>
            <ns3:hr>82</ns3:hr>
          </ns3:TrackPointExtension>
        </extensions>
      </trkpt>
      <trkpt lat="36.872516758739948272705078125" lon="-118.47621624357998371124267578125">
        <ele>2453.800048828125</ele>
        <time>2021-06-28T01:30:35.000Z</time>
        <extensions>
          <ns3:TrackPointExtension>
            <ns3:atemp>31.0</ns3:atemp>
            <ns3:hr>83</ns3:hr>
          </ns3:TrackPointExtension>
        </extensions>
      </trkpt>
      <trkpt lat="36.87251348979771137237548828125" lon="-118.4762247093021869659423828125">
        <ele>2453.60009765625</ele>
        <time>2021-06-28T01:30:36.000Z</time>
        <extensions>
          <ns3:TrackPointExtension>
            <ns3:atemp>31.0</ns3:atemp>
            <ns3:hr>82</ns3:hr>
          </ns3:TrackPointExtension>
        </extensions>
      </trkpt>
      <trkpt lat="36.872508041560649871826171875" lon="-118.47622043453156948089599609375">
        <ele>2453.60009765625</ele>
        <time>2021-06-28T01:30:43.000Z</time>
        <extensions>
          <ns3:TrackPointExtension>
            <ns3:atemp>31.0</ns3:atemp>
            <ns3:hr>80</ns3:hr>
          </ns3:TrackPointExtension>
        </extensions>
      </trkpt>
      <trkpt lat="36.8725045211613178253173828125" lon="-118.476226888597011566162109375">
        <ele>2453.60009765625</ele>
        <time>2021-06-28T01:30:44.000Z</time>
        <extensions>
          <ns3:TrackPointExtension>
            <ns3:atemp>31.0</ns3:atemp>
            <ns3:hr>77</ns3:hr>
          </ns3:TrackPointExtension>
        </extensions>
      </trkpt>
      <trkpt lat="36.87249991111457347869873046875" lon="-118.47623015753924846649169921875">
        <ele>2453</ele>
        <time>2021-06-28T01:30:51.000Z</time>
        <extensions>
          <ns3:TrackPointExtension>
            <ns3:atemp>31.0</ns3:atemp>
            <ns3:hr>76</ns3:hr>
          </ns3:TrackPointExtension>
        </extensions>
      </trkpt>
      <trkpt lat="36.8724971450865268707275390625" lon="-118.47623015753924846649169921875">
        <ele>2452.60009765625</ele>
        <time>2021-06-28T01:31:01.000Z</time>
        <extensions>
          <ns3:TrackPointExtension>
            <ns3:atemp>31.0</ns3:atemp>
            <ns3:hr>77</ns3:hr>
          </ns3:TrackPointExtension>
        </extensions>
      </trkpt>
      <trkpt lat="36.87245213426649570465087890625" lon="-118.47623334266245365142822265625">
        <ele>2452</ele>
        <time>2021-06-28T01:31:07.000Z</time>
        <extensions>
          <ns3:TrackPointExtension>
            <ns3:atemp>31.0</ns3:atemp>
            <ns3:hr>77</ns3:hr>
          </ns3:TrackPointExtension>
        </extensions>
      </trkpt>
      <trkpt lat="36.87240771017968654632568359375" lon="-118.47623434849083423614501953125">
        <ele>2450.800048828125</ele>
        <time>2021-06-28T01:31:10.000Z</time>
        <extensions>
          <ns3:TrackPointExtension>
            <ns3:atemp>31.0</ns3:atemp>
            <ns3:hr>78</ns3:hr>
          </ns3:TrackPointExtension>
        </extensions>
      </trkpt>
      <trkpt lat="36.87236345373094081878662109375" lon="-118.4762766771018505096435546875">
        <ele>2449.60009765625</ele>
        <time>2021-06-28T01:31:13.000Z</time>
        <extensions>
          <ns3:TrackPointExtension>
            <ns3:atemp>31.0</ns3:atemp>
            <ns3:hr>77</ns3:hr>
          </ns3:TrackPointExtension>
        </extensions>
      </trkpt>
      <trkpt lat="36.872349120676517486572265625" lon="-118.47628681920468807220458984375">
        <ele>2449.60009765625</ele>
        <time>2021-06-28T01:31:15.000Z</time>
        <extensions>
          <ns3:TrackPointExtension>
            <ns3:atemp>31.0</ns3:atemp>
            <ns3:hr>80</ns3:hr>
          </ns3:TrackPointExtension>
        </extensions>
      </trkpt>
      <trkpt lat="36.87235440127551555633544921875" lon="-118.47630207426846027374267578125">
        <ele>2449.39990234375</ele>
        <time>2021-06-28T01:31:18.000Z</time>
        <extensions>
          <ns3:TrackPointExtension>
            <ns3:atemp>31.0</ns3:atemp>
            <ns3:hr>83</ns3:hr>
          </ns3:TrackPointExtension>
        </extensions>
      </trkpt>
      <trkpt lat="36.872351802885532379150390625" lon="-118.4763249568641185760498046875">
        <ele>2449.39990234375</ele>
        <time>2021-06-28T01:31:20.000Z</time>
        <extensions>
          <ns3:TrackPointExtension>
            <ns3:atemp>31.0</ns3:atemp>
            <ns3:hr>86</ns3:hr>
          </ns3:TrackPointExtension>
        </extensions>
      </trkpt>
      <trkpt lat="36.87235574238002300262451171875" lon="-118.47634725272655487060546875">
        <ele>2449.199951171875</ele>
        <time>2021-06-28T01:31:22.000Z</time>
        <extensions>
          <ns3:TrackPointExtension>
            <ns3:atemp>31.0</ns3:atemp>
            <ns3:hr>91</ns3:hr>
          </ns3:TrackPointExtension>
        </extensions>
      </trkpt>
      <trkpt lat="36.87235574238002300262451171875" lon="-118.47635689191520214080810546875">
        <ele>2449.199951171875</ele>
        <time>2021-06-28T01:31:23.000Z</time>
        <extensions>
          <ns3:TrackPointExtension>
            <ns3:atemp>31.0</ns3:atemp>
            <ns3:hr>91</ns3:hr>
          </ns3:TrackPointExtension>
        </extensions>
      </trkpt>
      <trkpt lat="36.87234518118202686309814453125" lon="-118.476377762854099273681640625">
        <ele>2448.60009765625</ele>
        <time>2021-06-28T01:31:26.000Z</time>
        <extensions>
          <ns3:TrackPointExtension>
            <ns3:atemp>31.0</ns3:atemp>
            <ns3:hr>94</ns3:hr>
          </ns3:TrackPointExtension>
        </extensions>
      </trkpt>
      <trkpt lat="36.87232875265181064605712890625" lon="-118.47638354636728763580322265625">
        <ele>2448.39990234375</ele>
        <time>2021-06-28T01:31:28.000Z</time>
        <extensions>
          <ns3:TrackPointExtension>
            <ns3:atemp>31.0</ns3:atemp>
            <ns3:hr>95</ns3:hr>
          </ns3:TrackPointExtension>
        </extensions>
      </trkpt>
      <trkpt lat="36.87230763025581836700439453125" lon="-118.476395867764949798583984375">
        <ele>2447.60009765625</ele>
        <time>2021-06-28T01:31:30.000Z</time>
        <extensions>
          <ns3:TrackPointExtension>
            <ns3:atemp>31.0</ns3:atemp>
            <ns3:hr>98</ns3:hr>
          </ns3:TrackPointExtension>
        </extensions>
      </trkpt>
      <trkpt lat="36.8722839094698429107666015625" lon="-118.47644942812621593475341796875">
        <ele>2447</ele>
        <time>2021-06-28T01:31:35.000Z</time>
        <extensions>
          <ns3:TrackPointExtension>
            <ns3:atemp>31.0</ns3:atemp>
            <ns3:hr>97</ns3:hr>
          </ns3:TrackPointExtension>
        </extensions>
      </trkpt>
      <trkpt lat="36.8722788803279399871826171875" lon="-118.476468957960605621337890625">
        <ele>2446.800048828125</ele>
        <time>2021-06-28T01:31:37.000Z</time>
        <extensions>
          <ns3:TrackPointExtension>
            <ns3:atemp>31.0</ns3:atemp>
            <ns3:hr>96</ns3:hr>
          </ns3:TrackPointExtension>
        </extensions>
      </trkpt>
      <trkpt lat="36.8722855858504772186279296875" lon="-118.47648781724274158477783203125">
        <ele>2445.39990234375</ele>
        <time>2021-06-28T01:31:39.000Z</time>
        <extensions>
          <ns3:TrackPointExtension>
            <ns3:atemp>31.0</ns3:atemp>
            <ns3:hr>95</ns3:hr>
          </ns3:TrackPointExtension>
        </extensions>
      </trkpt>
      <trkpt lat="36.8722912855446338653564453125" lon="-118.476501815021038055419921875">
        <ele>2445.39990234375</ele>
        <time>2021-06-28T01:31:42.000Z</time>
        <extensions>
          <ns3:TrackPointExtension>
            <ns3:atemp>31.0</ns3:atemp>
            <ns3:hr>94</ns3:hr>
          </ns3:TrackPointExtension>
        </extensions>
      </trkpt>
      <trkpt lat="36.87227192334830760955810546875" lon="-118.47657733596861362457275390625">
        <ele>2444.39990234375</ele>
        <time>2021-06-28T01:31:49.000Z</time>
        <extensions>
          <ns3:TrackPointExtension>
            <ns3:atemp>31.0</ns3:atemp>
            <ns3:hr>92</ns3:hr>
          </ns3:TrackPointExtension>
        </extensions>
      </trkpt>
      <trkpt lat="36.87226764857769012451171875" lon="-118.4765858016908168792724609375">
        <ele>2444.39990234375</ele>
        <time>2021-06-28T01:31:50.000Z</time>
        <extensions>
          <ns3:TrackPointExtension>
            <ns3:atemp>31.0</ns3:atemp>
            <ns3:hr>92</ns3:hr>
          </ns3:TrackPointExtension>
        </extensions>
      </trkpt>
      <trkpt lat="36.87225063331425189971923828125" lon="-118.47660030238330364227294921875">
        <ele>2443.800048828125</ele>
        <time>2021-06-28T01:31:52.000Z</time>
        <extensions>
          <ns3:TrackPointExtension>
            <ns3:atemp>31.0</ns3:atemp>
            <ns3:hr>91</ns3:hr>
          </ns3:TrackPointExtension>
        </extensions>
      </trkpt>
      <trkpt lat="36.87224308960139751434326171875" lon="-118.47662695683538913726806640625">
        <ele>2443.39990234375</ele>
        <time>2021-06-28T01:31:54.000Z</time>
        <extensions>
          <ns3:TrackPointExtension>
            <ns3:atemp>31.0</ns3:atemp>
            <ns3:hr>90</ns3:hr>
          </ns3:TrackPointExtension>
        </extensions>
      </trkpt>
      <trkpt lat="36.87223638407886028289794921875" lon="-118.4766622446477413177490234375">
        <ele>2442.60009765625</ele>
        <time>2021-06-28T01:31:56.000Z</time>
        <extensions>
          <ns3:TrackPointExtension>
            <ns3:atemp>31.0</ns3:atemp>
            <ns3:hr>89</ns3:hr>
          </ns3:TrackPointExtension>
        </extensions>
      </trkpt>
      <trkpt lat="36.8722463585436344146728515625" lon="-118.4767021425068378448486328125">
        <ele>2442.199951171875</ele>
        <time>2021-06-28T01:31:59.000Z</time>
        <extensions>
          <ns3:TrackPointExtension>
            <ns3:atemp>31.0</ns3:atemp>
            <ns3:hr>88</ns3:hr>
          </ns3:TrackPointExtension>
        </extensions>
      </trkpt>
      <trkpt lat="36.87224694527685642242431640625" lon="-118.4767427109181880950927734375">
        <ele>2441.800048828125</ele>
        <time>2021-06-28T01:32:04.000Z</time>
        <extensions>
          <ns3:TrackPointExtension>
            <ns3:atemp>31.0</ns3:atemp>
            <ns3:hr>87</ns3:hr>
          </ns3:TrackPointExtension>
        </extensions>
      </trkpt>
      <trkpt lat="36.8722383119165897369384765625" lon="-118.47676307894289493560791015625">
        <ele>2441</ele>
        <time>2021-06-28T01:32:06.000Z</time>
        <extensions>
          <ns3:TrackPointExtension>
            <ns3:atemp>31.0</ns3:atemp>
            <ns3:hr>87</ns3:hr>
          </ns3:TrackPointExtension>
        </extensions>
      </trkpt>
      <trkpt lat="36.872239820659160614013671875" lon="-118.47678839229047298431396484375">
        <ele>2440.39990234375</ele>
        <time>2021-06-28T01:32:08.000Z</time>
        <extensions>
          <ns3:TrackPointExtension>
            <ns3:atemp>31.0</ns3:atemp>
            <ns3:hr>88</ns3:hr>
          </ns3:TrackPointExtension>
        </extensions>
      </trkpt>
      <trkpt lat="36.872240491211414337158203125" lon="-118.476823009550571441650390625">
        <ele>2439.60009765625</ele>
        <time>2021-06-28T01:32:11.000Z</time>
        <extensions>
          <ns3:TrackPointExtension>
            <ns3:atemp>31.0</ns3:atemp>
            <ns3:hr>87</ns3:hr>
          </ns3:TrackPointExtension>
        </extensions>
      </trkpt>
      <trkpt lat="36.87223839573562145233154296875" lon="-118.4768278710544109344482421875">
        <ele>2439.39990234375</ele>
        <time>2021-06-28T01:32:12.000Z</time>
        <extensions>
          <ns3:TrackPointExtension>
            <ns3:atemp>31.0</ns3:atemp>
            <ns3:hr>86</ns3:hr>
          </ns3:TrackPointExtension>
        </extensions>
      </trkpt>
      <trkpt lat="36.8722148425877094268798828125" lon="-118.47684270702302455902099609375">
        <ele>2439</ele>
        <time>2021-06-28T01:32:15.000Z</time>
        <extensions>
          <ns3:TrackPointExtension>
            <ns3:atemp>31.0</ns3:atemp>
            <ns3:hr>83</ns3:hr>
          </ns3:TrackPointExtension>
        </extensions>
      </trkpt>
      <trkpt lat="36.87220889143645763397216796875" lon="-118.4768399409949779510498046875">
        <ele>2438.800048828125</ele>
        <time>2021-06-28T01:32:16.000Z</time>
        <extensions>
          <ns3:TrackPointExtension>
            <ns3:atemp>31.0</ns3:atemp>
            <ns3:hr>81</ns3:hr>
          </ns3:TrackPointExtension>
        </extensions>
      </trkpt>
      <trkpt lat="36.8721997551620006561279296875" lon="-118.47683851607143878936767578125">
        <ele>2438.60009765625</ele>
        <time>2021-06-28T01:32:17.000Z</time>
        <extensions>
          <ns3:TrackPointExtension>
            <ns3:atemp>31.0</ns3:atemp>
            <ns3:hr>80</ns3:hr>
          </ns3:TrackPointExtension>
        </extensions>
      </trkpt>
      <trkpt lat="36.8721782974898815155029296875" lon="-118.47683432511985301971435546875">
        <ele>2437.800048828125</ele>
        <time>2021-06-28T01:32:19.000Z</time>
        <extensions>
          <ns3:TrackPointExtension>
            <ns3:atemp>31.0</ns3:atemp>
            <ns3:hr>79</ns3:hr>
          </ns3:TrackPointExtension>
        </extensions>
      </trkpt>
      <trkpt lat="36.8721635453402996063232421875" lon="-118.4768342413008213043212890625">
        <ele>2437.199951171875</ele>
        <time>2021-06-28T01:32:21.000Z</time>
        <extensions>
          <ns3:TrackPointExtension>
            <ns3:atemp>31.0</ns3:atemp>
            <ns3:hr>77</ns3:hr>
          </ns3:TrackPointExtension>
        </extensions>
      </trkpt>
      <trkpt lat="36.872142255306243896484375" lon="-118.4768862091004848480224609375">
        <ele>2436</ele>
        <time>2021-06-28T01:32:24.000Z</time>
        <extensions>
          <ns3:TrackPointExtension>
            <ns3:atemp>31.0</ns3:atemp>
            <ns3:hr>78</ns3:hr>
          </ns3:TrackPointExtension>
        </extensions>
      </trkpt>
      <trkpt lat="36.87213714234530925750732421875" lon="-118.47690322436392307281494140625">
        <ele>2436</ele>
        <time>2021-06-28T01:32:25.000Z</time>
        <extensions>
          <ns3:TrackPointExtension>
            <ns3:atemp>31.0</ns3:atemp>
            <ns3:hr>80</ns3:hr>
          </ns3:TrackPointExtension>
        </extensions>
      </trkpt>
      <trkpt lat="36.8721420876681804656982421875" lon="-118.47691428847610950469970703125">
        <ele>2436</ele>
        <time>2021-06-28T01:32:26.000Z</time>
        <extensions>
          <ns3:TrackPointExtension>
            <ns3:atemp>31.0</ns3:atemp>
            <ns3:hr>77</ns3:hr>
          </ns3:TrackPointExtension>
        </extensions>
      </trkpt>
      <trkpt lat="36.8721712566912174224853515625" lon="-118.47696592099964618682861328125">
        <ele>2435</ele>
        <time>2021-06-28T01:32:33.000Z</time>
        <extensions>
          <ns3:TrackPointExtension>
            <ns3:atemp>31.0</ns3:atemp>
            <ns3:hr>75</ns3:hr>
          </ns3:TrackPointExtension>
        </extensions>
      </trkpt>
      <trkpt lat="36.8721585161983966827392578125" lon="-118.47697623074054718017578125">
        <ele>2434.800048828125</ele>
        <time>2021-06-28T01:32:35.000Z</time>
        <extensions>
          <ns3:TrackPointExtension>
            <ns3:atemp>31.0</ns3:atemp>
            <ns3:hr>76</ns3:hr>
          </ns3:TrackPointExtension>
        </extensions>
      </trkpt>
      <trkpt lat="36.87214049510657787322998046875" lon="-118.4769750572741031646728515625">
        <ele>2434.199951171875</ele>
        <time>2021-06-28T01:32:38.000Z</time>
        <extensions>
          <ns3:TrackPointExtension>
            <ns3:atemp>31.0</ns3:atemp>
            <ns3:hr>79</ns3:hr>
          </ns3:TrackPointExtension>
        </extensions>
      </trkpt>
      <trkpt lat="36.87213093973696231842041015625" lon="-118.47697664983570575714111328125">
        <ele>2434.199951171875</ele>
        <time>2021-06-28T01:32:39.000Z</time>
        <extensions>
          <ns3:TrackPointExtension>
            <ns3:atemp>31.0</ns3:atemp>
            <ns3:hr>78</ns3:hr>
          </ns3:TrackPointExtension>
        </extensions>
      </trkpt>
      <trkpt lat="36.8721266649663448333740234375" lon="-118.47697765566408634185791015625">
        <ele>2433.800048828125</ele>
        <time>2021-06-28T01:32:40.000Z</time>
        <extensions>
          <ns3:TrackPointExtension>
            <ns3:atemp>31.0</ns3:atemp>
            <ns3:hr>78</ns3:hr>
          </ns3:TrackPointExtension>
        </extensions>
      </trkpt>
      <trkpt lat="36.87211803160607814788818359375" lon="-118.47698017023503780364990234375">
        <ele>2433.60009765625</ele>
        <time>2021-06-28T01:32:41.000Z</time>
        <extensions>
          <ns3:TrackPointExtension>
            <ns3:atemp>31.0</ns3:atemp>
            <ns3:hr>78</ns3:hr>
          </ns3:TrackPointExtension>
        </extensions>
      </trkpt>
      <trkpt lat="36.87209757976233959197998046875" lon="-118.47699098289012908935546875">
        <ele>2433.39990234375</ele>
        <time>2021-06-28T01:32:43.000Z</time>
        <extensions>
          <ns3:TrackPointExtension>
            <ns3:atemp>31.0</ns3:atemp>
            <ns3:hr>78</ns3:hr>
          </ns3:TrackPointExtension>
        </extensions>
      </trkpt>
      <trkpt lat="36.872093640267848968505859375" lon="-118.47702023573219776153564453125">
        <ele>2432.800048828125</ele>
        <time>2021-06-28T01:32:46.000Z</time>
        <extensions>
          <ns3:TrackPointExtension>
            <ns3:atemp>31.0</ns3:atemp>
            <ns3:hr>78</ns3:hr>
          </ns3:TrackPointExtension>
        </extensions>
      </trkpt>
      <trkpt lat="36.87211400829255580902099609375" lon="-118.47709366120398044586181640625">
        <ele>2432.60009765625</ele>
        <time>2021-06-28T01:32:52.000Z</time>
        <extensions>
          <ns3:TrackPointExtension>
            <ns3:atemp>31.0</ns3:atemp>
            <ns3:hr>79</ns3:hr>
          </ns3:TrackPointExtension>
        </extensions>
      </trkpt>
      <trkpt lat="36.87211501412093639373779296875" lon="-118.47712232731282711029052734375">
        <ele>2431.800048828125</ele>
        <time>2021-06-28T01:32:55.000Z</time>
        <extensions>
          <ns3:TrackPointExtension>
            <ns3:atemp>31.0</ns3:atemp>
            <ns3:hr>82</ns3:hr>
          </ns3:TrackPointExtension>
        </extensions>
      </trkpt>
      <trkpt lat="36.872118450701236724853515625" lon="-118.4771554358303546905517578125">
        <ele>2431.60009765625</ele>
        <time>2021-06-28T01:32:58.000Z</time>
        <extensions>
          <ns3:TrackPointExtension>
            <ns3:atemp>31.0</ns3:atemp>
            <ns3:hr>83</ns3:hr>
          </ns3:TrackPointExtension>
        </extensions>
      </trkpt>
      <trkpt lat="36.8721223063766956329345703125" lon="-118.47717203199863433837890625">
        <ele>2431</ele>
        <time>2021-06-28T01:33:00.000Z</time>
        <extensions>
          <ns3:TrackPointExtension>
            <ns3:atemp>31.0</ns3:atemp>
            <ns3:hr>83</ns3:hr>
          </ns3:TrackPointExtension>
        </extensions>
      </trkpt>
      <trkpt lat="36.87212549149990081787109375" lon="-118.47721285186707973480224609375">
        <ele>2430.39990234375</ele>
        <time>2021-06-28T01:33:04.000Z</time>
        <extensions>
          <ns3:TrackPointExtension>
            <ns3:atemp>31.0</ns3:atemp>
            <ns3:hr>80</ns3:hr>
          </ns3:TrackPointExtension>
        </extensions>
      </trkpt>
      <trkpt lat="36.87211266718804836273193359375" lon="-118.47724805586040019989013671875">
        <ele>2429.39990234375</ele>
        <time>2021-06-28T01:33:07.000Z</time>
        <extensions>
          <ns3:TrackPointExtension>
            <ns3:atemp>31.0</ns3:atemp>
            <ns3:hr>82</ns3:hr>
          </ns3:TrackPointExtension>
        </extensions>
      </trkpt>
      <trkpt lat="36.87210713513195514678955078125" lon="-118.477262556552886962890625">
        <ele>2429.199951171875</ele>
        <time>2021-06-28T01:33:09.000Z</time>
        <extensions>
          <ns3:TrackPointExtension>
            <ns3:atemp>31.0</ns3:atemp>
            <ns3:hr>82</ns3:hr>
          </ns3:TrackPointExtension>
        </extensions>
      </trkpt>
      <trkpt lat="36.87211182899773120880126953125" lon="-118.4772801585495471954345703125">
        <ele>2428.60009765625</ele>
        <time>2021-06-28T01:33:13.000Z</time>
        <extensions>
          <ns3:TrackPointExtension>
            <ns3:atemp>31.0</ns3:atemp>
            <ns3:hr>85</ns3:hr>
          </ns3:TrackPointExtension>
        </extensions>
      </trkpt>
      <trkpt lat="36.872116439044475555419921875" lon="-118.4773079864680767059326171875">
        <ele>2428.39990234375</ele>
        <time>2021-06-28T01:33:15.000Z</time>
        <extensions>
          <ns3:TrackPointExtension>
            <ns3:atemp>31.0</ns3:atemp>
            <ns3:hr>82</ns3:hr>
          </ns3:TrackPointExtension>
        </extensions>
      </trkpt>
      <trkpt lat="36.87212188728153705596923828125" lon="-118.47732131369411945343017578125">
        <ele>2428</ele>
        <time>2021-06-28T01:33:16.000Z</time>
        <extensions>
          <ns3:TrackPointExtension>
            <ns3:atemp>31.0</ns3:atemp>
            <ns3:hr>80</ns3:hr>
          </ns3:TrackPointExtension>
        </extensions>
      </trkpt>
      <trkpt lat="36.87213261611759662628173828125" lon="-118.4773472137749195098876953125">
        <ele>2427.800048828125</ele>
        <time>2021-06-28T01:33:18.000Z</time>
        <extensions>
          <ns3:TrackPointExtension>
            <ns3:atemp>31.0</ns3:atemp>
            <ns3:hr>82</ns3:hr>
          </ns3:TrackPointExtension>
        </extensions>
      </trkpt>
      <trkpt lat="36.87216765247285366058349609375" lon="-118.477433212101459503173828125">
        <ele>2427</ele>
        <time>2021-06-28T01:33:25.000Z</time>
        <extensions>
          <ns3:TrackPointExtension>
            <ns3:atemp>31.0</ns3:atemp>
            <ns3:hr>84</ns3:hr>
          </ns3:TrackPointExtension>
        </extensions>
      </trkpt>
      <trkpt lat="36.8721789680421352386474609375" lon="-118.477473445236682891845703125">
        <ele>2426.60009765625</ele>
        <time>2021-06-28T01:33:28.000Z</time>
        <extensions>
          <ns3:TrackPointExtension>
            <ns3:atemp>31.0</ns3:atemp>
            <ns3:hr>85</ns3:hr>
          </ns3:TrackPointExtension>
        </extensions>
      </trkpt>
      <trkpt lat="36.8721611984074115753173828125" lon="-118.477508984506130218505859375">
        <ele>2426.199951171875</ele>
        <time>2021-06-28T01:33:31.000Z</time>
        <extensions>
          <ns3:TrackPointExtension>
            <ns3:atemp>31.0</ns3:atemp>
            <ns3:hr>84</ns3:hr>
          </ns3:TrackPointExtension>
        </extensions>
      </trkpt>
      <trkpt lat="36.87216170132160186767578125" lon="-118.47751962952315807342529296875">
        <ele>2426</ele>
        <time>2021-06-28T01:33:32.000Z</time>
        <extensions>
          <ns3:TrackPointExtension>
            <ns3:atemp>31.0</ns3:atemp>
            <ns3:hr>86</ns3:hr>
          </ns3:TrackPointExtension>
        </extensions>
      </trkpt>
      <trkpt lat="36.87216077931225299835205078125" lon="-118.4775393269956111907958984375">
        <ele>2425.60009765625</ele>
        <time>2021-06-28T01:33:34.000Z</time>
        <extensions>
          <ns3:TrackPointExtension>
            <ns3:atemp>31.0</ns3:atemp>
            <ns3:hr>85</ns3:hr>
          </ns3:TrackPointExtension>
        </extensions>
      </trkpt>
      <trkpt lat="36.8721642158925533294677734375" lon="-118.4775524027645587921142578125">
        <ele>2424.800048828125</ele>
        <time>2021-06-28T01:33:36.000Z</time>
        <extensions>
          <ns3:TrackPointExtension>
            <ns3:atemp>31.0</ns3:atemp>
            <ns3:hr>85</ns3:hr>
          </ns3:TrackPointExtension>
        </extensions>
      </trkpt>
      <trkpt lat="36.8721784651279449462890625" lon="-118.4775906242430210113525390625">
        <ele>2423.800048828125</ele>
        <time>2021-06-28T01:33:39.000Z</time>
        <extensions>
          <ns3:TrackPointExtension>
            <ns3:atemp>31.0</ns3:atemp>
            <ns3:hr>85</ns3:hr>
          </ns3:TrackPointExtension>
        </extensions>
      </trkpt>
      <trkpt lat="36.8721722625195980072021484375" lon="-118.47761970944702625274658203125">
        <ele>2423.800048828125</ele>
        <time>2021-06-28T01:33:41.000Z</time>
        <extensions>
          <ns3:TrackPointExtension>
            <ns3:atemp>31.0</ns3:atemp>
            <ns3:hr>85</ns3:hr>
          </ns3:TrackPointExtension>
        </extensions>
      </trkpt>
      <trkpt lat="36.8721662275493144989013671875" lon="-118.47767293453216552734375">
        <ele>2423.39990234375</ele>
        <time>2021-06-28T01:33:47.000Z</time>
        <extensions>
          <ns3:TrackPointExtension>
            <ns3:atemp>31.0</ns3:atemp>
            <ns3:hr>86</ns3:hr>
          </ns3:TrackPointExtension>
        </extensions>
      </trkpt>
      <trkpt lat="36.87217771075665950775146484375" lon="-118.47774560563266277313232421875">
        <ele>2422.60009765625</ele>
        <time>2021-06-28T01:33:53.000Z</time>
        <extensions>
          <ns3:TrackPointExtension>
            <ns3:atemp>31.0</ns3:atemp>
            <ns3:hr>83</ns3:hr>
          </ns3:TrackPointExtension>
        </extensions>
      </trkpt>
      <trkpt lat="36.87219715677201747894287109375" lon="-118.477769158780574798583984375">
        <ele>2421.800048828125</ele>
        <time>2021-06-28T01:33:55.000Z</time>
        <extensions>
          <ns3:TrackPointExtension>
            <ns3:atemp>31.0</ns3:atemp>
            <ns3:hr>81</ns3:hr>
          </ns3:TrackPointExtension>
        </extensions>
      </trkpt>
      <trkpt lat="36.87220084480941295623779296875" lon="-118.47778500057756900787353515625">
        <ele>2421.199951171875</ele>
        <time>2021-06-28T01:33:57.000Z</time>
        <extensions>
          <ns3:TrackPointExtension>
            <ns3:atemp>31.0</ns3:atemp>
            <ns3:hr>79</ns3:hr>
          </ns3:TrackPointExtension>
        </extensions>
      </trkpt>
      <trkpt lat="36.8721880204975605010986328125" lon="-118.47778089344501495361328125">
        <ele>2421</ele>
        <time>2021-06-28T01:33:59.000Z</time>
        <extensions>
          <ns3:TrackPointExtension>
            <ns3:atemp>31.0</ns3:atemp>
            <ns3:hr>78</ns3:hr>
          </ns3:TrackPointExtension>
        </extensions>
      </trkpt>
      <trkpt lat="36.87218123115599155426025390625" lon="-118.47777695395052433013916015625">
        <ele>2421</ele>
        <time>2021-06-28T01:34:00.000Z</time>
        <extensions>
          <ns3:TrackPointExtension>
            <ns3:atemp>31.0</ns3:atemp>
            <ns3:hr>78</ns3:hr>
          </ns3:TrackPointExtension>
        </extensions>
      </trkpt>
      <trkpt lat="36.872163377702236175537109375" lon="-118.47775566391646862030029296875">
        <ele>2421</ele>
        <time>2021-06-28T01:34:02.000Z</time>
        <extensions>
          <ns3:TrackPointExtension>
            <ns3:atemp>31.0</ns3:atemp>
            <ns3:hr>78</ns3:hr>
          </ns3:TrackPointExtension>
        </extensions>
      </trkpt>
      <trkpt lat="36.87216664664447307586669921875" lon="-118.477737642824649810791015625">
        <ele>2421</ele>
        <time>2021-06-28T01:34:04.000Z</time>
        <extensions>
          <ns3:TrackPointExtension>
            <ns3:atemp>31.0</ns3:atemp>
            <ns3:hr>78</ns3:hr>
          </ns3:TrackPointExtension>
        </extensions>
      </trkpt>
      <trkpt lat="36.8721387349069118499755859375" lon="-118.4776922129094600677490234375">
        <ele>2420.39990234375</ele>
        <time>2021-06-28T01:34:10.000Z</time>
        <extensions>
          <ns3:TrackPointExtension>
            <ns3:atemp>31.0</ns3:atemp>
            <ns3:hr>76</ns3:hr>
          </ns3:TrackPointExtension>
        </extensions>
      </trkpt>
      <trkpt lat="36.87210462056100368499755859375" lon="-118.4776972420513629913330078125">
        <ele>2420</ele>
        <time>2021-06-28T01:34:14.000Z</time>
        <extensions>
          <ns3:TrackPointExtension>
            <ns3:atemp>31.0</ns3:atemp>
            <ns3:hr>76</ns3:hr>
          </ns3:TrackPointExtension>
        </extensions>
      </trkpt>
      <trkpt lat="36.8720736913383007049560546875" lon="-118.4776962362229824066162109375">
        <ele>2419.60009765625</ele>
        <time>2021-06-28T01:34:17.000Z</time>
        <extensions>
          <ns3:TrackPointExtension>
            <ns3:atemp>31.0</ns3:atemp>
            <ns3:hr>75</ns3:hr>
          </ns3:TrackPointExtension>
        </extensions>
      </trkpt>
      <trkpt lat="36.87202448956668376922607421875" lon="-118.47771459259092807769775390625">
        <ele>2418.800048828125</ele>
        <time>2021-06-28T01:34:22.000Z</time>
        <extensions>
          <ns3:TrackPointExtension>
            <ns3:atemp>31.0</ns3:atemp>
            <ns3:hr>75</ns3:hr>
          </ns3:TrackPointExtension>
        </extensions>
      </trkpt>
      <trkpt lat="36.872010491788387298583984375" lon="-118.47773789428174495697021484375">
        <ele>2418.39990234375</ele>
        <time>2021-06-28T01:34:25.000Z</time>
        <extensions>
          <ns3:TrackPointExtension>
            <ns3:atemp>31.0</ns3:atemp>
            <ns3:hr>77</ns3:hr>
          </ns3:TrackPointExtension>
        </extensions>
      </trkpt>
      <trkpt lat="36.87200487591326236724853515625" lon="-118.47773772664368152618408203125">
        <ele>2418.39990234375</ele>
        <time>2021-06-28T01:34:26.000Z</time>
        <extensions>
          <ns3:TrackPointExtension>
            <ns3:atemp>31.0</ns3:atemp>
            <ns3:hr>77</ns3:hr>
          </ns3:TrackPointExtension>
        </extensions>
      </trkpt>
      <trkpt lat="36.87200470827519893646240234375" lon="-118.4777559153735637664794921875">
        <ele>2418</ele>
        <time>2021-06-28T01:34:29.000Z</time>
        <extensions>
          <ns3:TrackPointExtension>
            <ns3:atemp>31.0</ns3:atemp>
            <ns3:hr>78</ns3:hr>
          </ns3:TrackPointExtension>
        </extensions>
      </trkpt>
      <trkpt lat="36.87199682928621768951416015625" lon="-118.4777793847024440765380859375">
        <ele>2417.800048828125</ele>
        <time>2021-06-28T01:34:31.000Z</time>
        <extensions>
          <ns3:TrackPointExtension>
            <ns3:atemp>31.0</ns3:atemp>
            <ns3:hr>79</ns3:hr>
          </ns3:TrackPointExtension>
        </extensions>
      </trkpt>
      <trkpt lat="36.8719972483813762664794921875" lon="-118.47783009521663188934326171875">
        <ele>2417.39990234375</ele>
        <time>2021-06-28T01:34:35.000Z</time>
        <extensions>
          <ns3:TrackPointExtension>
            <ns3:atemp>31.0</ns3:atemp>
            <ns3:hr>79</ns3:hr>
          </ns3:TrackPointExtension>
        </extensions>
      </trkpt>
      <trkpt lat="36.87200856395065784454345703125" lon="-118.47786412574350833892822265625">
        <ele>2417</ele>
        <time>2021-06-28T01:34:38.000Z</time>
        <extensions>
          <ns3:TrackPointExtension>
            <ns3:atemp>31.0</ns3:atemp>
            <ns3:hr>78</ns3:hr>
          </ns3:TrackPointExtension>
        </extensions>
      </trkpt>
      <trkpt lat="36.8720079772174358367919921875" lon="-118.47790184430778026580810546875">
        <ele>2416.60009765625</ele>
        <time>2021-06-28T01:34:41.000Z</time>
        <extensions>
          <ns3:TrackPointExtension>
            <ns3:atemp>31.0</ns3:atemp>
            <ns3:hr>79</ns3:hr>
          </ns3:TrackPointExtension>
        </extensions>
      </trkpt>
      <trkpt lat="36.87197352759540081024169921875" lon="-118.47796537913382053375244140625">
        <ele>2415.800048828125</ele>
        <time>2021-06-28T01:34:48.000Z</time>
        <extensions>
          <ns3:TrackPointExtension>
            <ns3:atemp>31.0</ns3:atemp>
            <ns3:hr>77</ns3:hr>
          </ns3:TrackPointExtension>
        </extensions>
      </trkpt>
      <trkpt lat="36.8719674088060855865478515625" lon="-118.47797359339892864227294921875">
        <ele>2415.39990234375</ele>
        <time>2021-06-28T01:34:49.000Z</time>
        <extensions>
          <ns3:TrackPointExtension>
            <ns3:atemp>31.0</ns3:atemp>
            <ns3:hr>78</ns3:hr>
          </ns3:TrackPointExtension>
        </extensions>
      </trkpt>
      <trkpt lat="36.87196598388254642486572265625" lon="-118.47802388481795787811279296875">
        <ele>2415.199951171875</ele>
        <time>2021-06-28T01:34:52.000Z</time>
        <extensions>
          <ns3:TrackPointExtension>
            <ns3:atemp>31.0</ns3:atemp>
            <ns3:hr>78</ns3:hr>
          </ns3:TrackPointExtension>
        </extensions>
      </trkpt>
      <trkpt lat="36.8719546683132648468017578125" lon="-118.47807191312313079833984375">
        <ele>2415</ele>
        <time>2021-06-28T01:34:54.000Z</time>
        <extensions>
          <ns3:TrackPointExtension>
            <ns3:atemp>31.0</ns3:atemp>
            <ns3:hr>78</ns3:hr>
          </ns3:TrackPointExtension>
        </extensions>
      </trkpt>
      <trkpt lat="36.8719982542097568511962890625" lon="-118.47812966443598270416259765625">
        <ele>2414.800048828125</ele>
        <time>2021-06-28T01:34:59.000Z</time>
        <extensions>
          <ns3:TrackPointExtension>
            <ns3:atemp>31.0</ns3:atemp>
            <ns3:hr>77</ns3:hr>
          </ns3:TrackPointExtension>
        </extensions>
      </trkpt>
      <trkpt lat="36.8720016069710254669189453125" lon="-118.478139303624629974365234375">
        <ele>2414.60009765625</ele>
        <time>2021-06-28T01:35:00.000Z</time>
        <extensions>
          <ns3:TrackPointExtension>
            <ns3:atemp>31.0</ns3:atemp>
            <ns3:hr>78</ns3:hr>
          </ns3:TrackPointExtension>
        </extensions>
      </trkpt>
      <trkpt lat="36.872015185654163360595703125" lon="-118.47822672687470912933349609375">
        <ele>2414.60009765625</ele>
        <time>2021-06-28T01:35:06.000Z</time>
        <extensions>
          <ns3:TrackPointExtension>
            <ns3:atemp>31.0</ns3:atemp>
            <ns3:hr>80</ns3:hr>
          </ns3:TrackPointExtension>
        </extensions>
      </trkpt>
      <trkpt lat="36.872004456818103790283203125" lon="-118.47824047319591045379638671875">
        <ele>2415</ele>
        <time>2021-06-28T01:35:10.000Z</time>
        <extensions>
          <ns3:TrackPointExtension>
            <ns3:atemp>31.0</ns3:atemp>
            <ns3:hr>79</ns3:hr>
          </ns3:TrackPointExtension>
        </extensions>
      </trkpt>
      <trkpt lat="36.87198090367019176483154296875" lon="-118.478260673582553863525390625">
        <ele>2414.199951171875</ele>
        <time>2021-06-28T01:35:14.000Z</time>
        <extensions>
          <ns3:TrackPointExtension>
            <ns3:atemp>31.0</ns3:atemp>
            <ns3:hr>77</ns3:hr>
          </ns3:TrackPointExtension>
        </extensions>
      </trkpt>
      <trkpt lat="36.871975623071193695068359375" lon="-118.47828925587236881256103515625">
        <ele>2414.199951171875</ele>
        <time>2021-06-28T01:35:16.000Z</time>
        <extensions>
          <ns3:TrackPointExtension>
            <ns3:atemp>31.0</ns3:atemp>
            <ns3:hr>75</ns3:hr>
          </ns3:TrackPointExtension>
        </extensions>
      </trkpt>
      <trkpt lat="36.871970258653163909912109375" lon="-118.4783443249762058258056640625">
        <ele>2413.199951171875</ele>
        <time>2021-06-28T01:35:21.000Z</time>
        <extensions>
          <ns3:TrackPointExtension>
            <ns3:atemp>31.0</ns3:atemp>
            <ns3:hr>74</ns3:hr>
          </ns3:TrackPointExtension>
        </extensions>
      </trkpt>
      <trkpt lat="36.87196933664381504058837890625" lon="-118.4783657826483249664306640625">
        <ele>2413</ele>
        <time>2021-06-28T01:35:23.000Z</time>
        <extensions>
          <ns3:TrackPointExtension>
            <ns3:atemp>31.0</ns3:atemp>
            <ns3:hr>75</ns3:hr>
          </ns3:TrackPointExtension>
        </extensions>
      </trkpt>
      <trkpt lat="36.87196254730224609375" lon="-118.4783969633281230926513671875">
        <ele>2412.800048828125</ele>
        <time>2021-06-28T01:35:26.000Z</time>
        <extensions>
          <ns3:TrackPointExtension>
            <ns3:atemp>31.0</ns3:atemp>
            <ns3:hr>75</ns3:hr>
          </ns3:TrackPointExtension>
        </extensions>
      </trkpt>
      <trkpt lat="36.87196715734899044036865234375" lon="-118.4784335084259510040283203125">
        <ele>2412.199951171875</ele>
        <time>2021-06-28T01:35:29.000Z</time>
        <extensions>
          <ns3:TrackPointExtension>
            <ns3:atemp>31.0</ns3:atemp>
            <ns3:hr>75</ns3:hr>
          </ns3:TrackPointExtension>
        </extensions>
      </trkpt>
      <trkpt lat="36.87196967191994190216064453125" lon="-118.478445746004581451416015625">
        <ele>2412</ele>
        <time>2021-06-28T01:35:30.000Z</time>
        <extensions>
          <ns3:TrackPointExtension>
            <ns3:atemp>31.0</ns3:atemp>
            <ns3:hr>75</ns3:hr>
          </ns3:TrackPointExtension>
        </extensions>
      </trkpt>
      <trkpt lat="36.8719585239887237548828125" lon="-118.47847717814147472381591796875">
        <ele>2412</ele>
        <time>2021-06-28T01:35:33.000Z</time>
        <extensions>
          <ns3:TrackPointExtension>
            <ns3:atemp>31.0</ns3:atemp>
            <ns3:hr>73</ns3:hr>
          </ns3:TrackPointExtension>
        </extensions>
      </trkpt>
      <trkpt lat="36.87195726670324802398681640625" lon="-118.47850299440324306488037109375">
        <ele>2411.60009765625</ele>
        <time>2021-06-28T01:35:35.000Z</time>
        <extensions>
          <ns3:TrackPointExtension>
            <ns3:atemp>31.0</ns3:atemp>
            <ns3:hr>76</ns3:hr>
          </ns3:TrackPointExtension>
        </extensions>
      </trkpt>
      <trkpt lat="36.871945448219776153564453125" lon="-118.47853233106434345245361328125">
        <ele>2411.199951171875</ele>
        <time>2021-06-28T01:35:38.000Z</time>
        <extensions>
          <ns3:TrackPointExtension>
            <ns3:atemp>31.0</ns3:atemp>
            <ns3:hr>74</ns3:hr>
          </ns3:TrackPointExtension>
        </extensions>
      </trkpt>
      <trkpt lat="36.871940083801746368408203125" lon="-118.47853769548237323760986328125">
        <ele>2411</ele>
        <time>2021-06-28T01:35:39.000Z</time>
        <extensions>
          <ns3:TrackPointExtension>
            <ns3:atemp>31.0</ns3:atemp>
            <ns3:hr>75</ns3:hr>
          </ns3:TrackPointExtension>
        </extensions>
      </trkpt>
      <trkpt lat="36.8719271756708621978759765625" lon="-118.47855227999389171600341796875">
        <ele>2410</ele>
        <time>2021-06-28T01:35:41.000Z</time>
        <extensions>
          <ns3:TrackPointExtension>
            <ns3:atemp>31.0</ns3:atemp>
            <ns3:hr>73</ns3:hr>
          </ns3:TrackPointExtension>
        </extensions>
      </trkpt>
      <trkpt lat="36.871921308338642120361328125" lon="-118.47858144901692867279052734375">
        <ele>2409.39990234375</ele>
        <time>2021-06-28T01:35:43.000Z</time>
        <extensions>
          <ns3:TrackPointExtension>
            <ns3:atemp>30.0</ns3:atemp>
            <ns3:hr>76</ns3:hr>
          </ns3:TrackPointExtension>
        </extensions>
      </trkpt>
      <trkpt lat="36.87192072160542011260986328125" lon="-118.47859586589038372039794921875">
        <ele>2409.39990234375</ele>
        <time>2021-06-28T01:35:44.000Z</time>
        <extensions>
          <ns3:TrackPointExtension>
            <ns3:atemp>30.0</ns3:atemp>
            <ns3:hr>78</ns3:hr>
          </ns3:TrackPointExtension>
        </extensions>
      </trkpt>
      <trkpt lat="36.87190965749323368072509765625" lon="-118.478681780397891998291015625">
        <ele>2408.60009765625</ele>
        <time>2021-06-28T01:35:51.000Z</time>
        <extensions>
          <ns3:TrackPointExtension>
            <ns3:atemp>30.0</ns3:atemp>
            <ns3:hr>79</ns3:hr>
          </ns3:TrackPointExtension>
        </extensions>
      </trkpt>
      <trkpt lat="36.87193295918405055999755859375" lon="-118.47879074513912200927734375">
        <ele>2407.60009765625</ele>
        <time>2021-06-28T01:35:58.000Z</time>
        <extensions>
          <ns3:TrackPointExtension>
            <ns3:atemp>30.0</ns3:atemp>
            <ns3:hr>77</ns3:hr>
          </ns3:TrackPointExtension>
        </extensions>
      </trkpt>
      <trkpt lat="36.87195508740842342376708984375" lon="-118.47885109484195709228515625">
        <ele>2407</ele>
        <time>2021-06-28T01:36:01.000Z</time>
        <extensions>
          <ns3:TrackPointExtension>
            <ns3:atemp>30.0</ns3:atemp>
            <ns3:hr>77</ns3:hr>
          </ns3:TrackPointExtension>
        </extensions>
      </trkpt>
      <trkpt lat="36.8719861842691898345947265625" lon="-118.4788891486823558807373046875">
        <ele>2407</ele>
        <time>2021-06-28T01:36:06.000Z</time>
        <extensions>
          <ns3:TrackPointExtension>
            <ns3:atemp>30.0</ns3:atemp>
            <ns3:hr>79</ns3:hr>
          </ns3:TrackPointExtension>
        </extensions>
      </trkpt>
      <trkpt lat="36.87200521118938922882080078125" lon="-118.4789018891751766204833984375">
        <ele>2407</ele>
        <time>2021-06-28T01:36:08.000Z</time>
        <extensions>
          <ns3:TrackPointExtension>
            <ns3:atemp>30.0</ns3:atemp>
            <ns3:hr>79</ns3:hr>
          </ns3:TrackPointExtension>
        </extensions>
      </trkpt>
      <trkpt lat="36.87200906686484813690185546875" lon="-118.47891873680055141448974609375">
        <ele>2407</ele>
        <time>2021-06-28T01:36:10.000Z</time>
        <extensions>
          <ns3:TrackPointExtension>
            <ns3:atemp>30.0</ns3:atemp>
            <ns3:hr>79</ns3:hr>
          </ns3:TrackPointExtension>
        </extensions>
      </trkpt>
      <trkpt lat="36.872011832892894744873046875" lon="-118.4789555333554744720458984375">
        <ele>2406.800048828125</ele>
        <time>2021-06-28T01:36:14.000Z</time>
        <extensions>
          <ns3:TrackPointExtension>
            <ns3:atemp>30.0</ns3:atemp>
            <ns3:hr>80</ns3:hr>
          </ns3:TrackPointExtension>
        </extensions>
      </trkpt>
      <trkpt lat="36.87201510183513164520263671875" lon="-118.47897221334278583526611328125">
        <ele>2406.39990234375</ele>
        <time>2021-06-28T01:36:15.000Z</time>
        <extensions>
          <ns3:TrackPointExtension>
            <ns3:atemp>30.0</ns3:atemp>
            <ns3:hr>75</ns3:hr>
          </ns3:TrackPointExtension>
        </extensions>
      </trkpt>
      <trkpt lat="36.872015185654163360595703125" lon="-118.478988222777843475341796875">
        <ele>2406.39990234375</ele>
        <time>2021-06-28T01:36:16.000Z</time>
        <extensions>
          <ns3:TrackPointExtension>
            <ns3:atemp>30.0</ns3:atemp>
            <ns3:hr>79</ns3:hr>
          </ns3:TrackPointExtension>
        </extensions>
      </trkpt>
      <trkpt lat="36.87201686203479766845703125" lon="-118.47900289110839366912841796875">
        <ele>2406.39990234375</ele>
        <time>2021-06-28T01:36:17.000Z</time>
        <extensions>
          <ns3:TrackPointExtension>
            <ns3:atemp>30.0</ns3:atemp>
            <ns3:hr>79</ns3:hr>
          </ns3:TrackPointExtension>
        </extensions>
      </trkpt>
      <trkpt lat="36.8720059655606746673583984375" lon="-118.4790235944092273712158203125">
        <ele>2406.199951171875</ele>
        <time>2021-06-28T01:36:20.000Z</time>
        <extensions>
          <ns3:TrackPointExtension>
            <ns3:atemp>30.0</ns3:atemp>
            <ns3:hr>81</ns3:hr>
          </ns3:TrackPointExtension>
        </extensions>
      </trkpt>
      <trkpt lat="36.87200403772294521331787109375" lon="-118.47905016504228115081787109375">
        <ele>2405.800048828125</ele>
        <time>2021-06-28T01:36:22.000Z</time>
        <extensions>
          <ns3:TrackPointExtension>
            <ns3:atemp>30.0</ns3:atemp>
            <ns3:hr>84</ns3:hr>
          </ns3:TrackPointExtension>
        </extensions>
      </trkpt>
      <trkpt lat="36.87200202606618404388427734375" lon="-118.47905821166932582855224609375">
        <ele>2405.199951171875</ele>
        <time>2021-06-28T01:36:23.000Z</time>
        <extensions>
          <ns3:TrackPointExtension>
            <ns3:atemp>30.0</ns3:atemp>
            <ns3:hr>84</ns3:hr>
          </ns3:TrackPointExtension>
        </extensions>
      </trkpt>
      <trkpt lat="36.8719955720007419586181640625" lon="-118.4790621511638164520263671875">
        <ele>2405</ele>
        <time>2021-06-28T01:36:24.000Z</time>
        <extensions>
          <ns3:TrackPointExtension>
            <ns3:atemp>30.0</ns3:atemp>
            <ns3:hr>81</ns3:hr>
          </ns3:TrackPointExtension>
        </extensions>
      </trkpt>
      <trkpt lat="36.8719727732241153717041015625" lon="-118.47912610508501529693603515625">
        <ele>2404.60009765625</ele>
        <time>2021-06-28T01:36:27.000Z</time>
        <extensions>
          <ns3:TrackPointExtension>
            <ns3:atemp>30.0</ns3:atemp>
            <ns3:hr>82</ns3:hr>
          </ns3:TrackPointExtension>
        </extensions>
      </trkpt>
      <trkpt lat="36.87196129001677036285400390625" lon="-118.47916851751506328582763671875">
        <ele>2404.199951171875</ele>
        <time>2021-06-28T01:36:29.000Z</time>
        <extensions>
          <ns3:TrackPointExtension>
            <ns3:atemp>30.0</ns3:atemp>
            <ns3:hr>79</ns3:hr>
          </ns3:TrackPointExtension>
        </extensions>
      </trkpt>
      <trkpt lat="36.87196992337703704833984375" lon="-118.47923574037849903106689453125">
        <ele>2404</ele>
        <time>2021-06-28T01:36:32.000Z</time>
        <extensions>
          <ns3:TrackPointExtension>
            <ns3:atemp>30.0</ns3:atemp>
            <ns3:hr>78</ns3:hr>
          </ns3:TrackPointExtension>
        </extensions>
      </trkpt>
      <trkpt lat="36.87197000719606876373291015625" lon="-118.47924797795712947845458984375">
        <ele>2404</ele>
        <time>2021-06-28T01:36:33.000Z</time>
        <extensions>
          <ns3:TrackPointExtension>
            <ns3:atemp>30.0</ns3:atemp>
            <ns3:hr>79</ns3:hr>
          </ns3:TrackPointExtension>
        </extensions>
      </trkpt>
      <trkpt lat="36.871969588100910186767578125" lon="-118.479255773127079010009765625">
        <ele>2404</ele>
        <time>2021-06-28T01:36:34.000Z</time>
        <extensions>
          <ns3:TrackPointExtension>
            <ns3:atemp>30.0</ns3:atemp>
            <ns3:hr>79</ns3:hr>
          </ns3:TrackPointExtension>
        </extensions>
      </trkpt>
      <trkpt lat="36.87197956256568431854248046875" lon="-118.4793079085648059844970703125">
        <ele>2404.199951171875</ele>
        <time>2021-06-28T01:36:40.000Z</time>
        <extensions>
          <ns3:TrackPointExtension>
            <ns3:atemp>30.0</ns3:atemp>
            <ns3:hr>79</ns3:hr>
          </ns3:TrackPointExtension>
        </extensions>
      </trkpt>
      <trkpt lat="36.87201359309256076812744140625" lon="-118.47938954830169677734375">
        <ele>2404.60009765625</ele>
        <time>2021-06-28T01:36:47.000Z</time>
        <extensions>
          <ns3:TrackPointExtension>
            <ns3:atemp>30.0</ns3:atemp>
            <ns3:hr>81</ns3:hr>
          </ns3:TrackPointExtension>
        </extensions>
      </trkpt>
      <trkpt lat="36.87201577238738536834716796875" lon="-118.47944193519651889801025390625">
        <ele>2404.800048828125</ele>
        <time>2021-06-28T01:36:52.000Z</time>
        <extensions>
          <ns3:TrackPointExtension>
            <ns3:atemp>30.0</ns3:atemp>
            <ns3:hr>82</ns3:hr>
          </ns3:TrackPointExtension>
        </extensions>
      </trkpt>
      <trkpt lat="36.87202029861509799957275390625" lon="-118.47946959547698497772216796875">
        <ele>2405</ele>
        <time>2021-06-28T01:36:54.000Z</time>
        <extensions>
          <ns3:TrackPointExtension>
            <ns3:atemp>30.0</ns3:atemp>
            <ns3:hr>82</ns3:hr>
          </ns3:TrackPointExtension>
        </extensions>
      </trkpt>
      <trkpt lat="36.87204510904848575592041015625" lon="-118.47955760546028614044189453125">
        <ele>2405.199951171875</ele>
        <time>2021-06-28T01:37:00.000Z</time>
        <extensions>
          <ns3:TrackPointExtension>
            <ns3:atemp>30.0</ns3:atemp>
            <ns3:hr>81</ns3:hr>
          </ns3:TrackPointExtension>
        </extensions>
      </trkpt>
      <trkpt lat="36.87205852009356021881103515625" lon="-118.47957529127597808837890625">
        <ele>2405.39990234375</ele>
        <time>2021-06-28T01:37:01.000Z</time>
        <extensions>
          <ns3:TrackPointExtension>
            <ns3:atemp>30.0</ns3:atemp>
            <ns3:hr>81</ns3:hr>
          </ns3:TrackPointExtension>
        </extensions>
      </trkpt>
      <trkpt lat="36.87208903022110462188720703125" lon="-118.4796451963484287261962890625">
        <ele>2405.800048828125</ele>
        <time>2021-06-28T01:37:05.000Z</time>
        <extensions>
          <ns3:TrackPointExtension>
            <ns3:atemp>30.0</ns3:atemp>
            <ns3:hr>84</ns3:hr>
          </ns3:TrackPointExtension>
        </extensions>
      </trkpt>
      <trkpt lat="36.87208517454564571380615234375" lon="-118.47968081943690776824951171875">
        <ele>2405.60009765625</ele>
        <time>2021-06-28T01:37:08.000Z</time>
        <extensions>
          <ns3:TrackPointExtension>
            <ns3:atemp>30.0</ns3:atemp>
            <ns3:hr>87</ns3:hr>
          </ns3:TrackPointExtension>
        </extensions>
      </trkpt>
      <trkpt lat="36.872088946402072906494140625" lon="-118.47969305701553821563720703125">
        <ele>2405.199951171875</ele>
        <time>2021-06-28T01:37:09.000Z</time>
        <extensions>
          <ns3:TrackPointExtension>
            <ns3:atemp>30.0</ns3:atemp>
            <ns3:hr>91</ns3:hr>
          </ns3:TrackPointExtension>
        </extensions>
      </trkpt>
      <trkpt lat="36.87207377515733242034912109375" lon="-118.47975055687129497528076171875">
        <ele>2404.60009765625</ele>
        <time>2021-06-28T01:37:14.000Z</time>
        <extensions>
          <ns3:TrackPointExtension>
            <ns3:atemp>30.0</ns3:atemp>
            <ns3:hr>92</ns3:hr>
          </ns3:TrackPointExtension>
        </extensions>
      </trkpt>
      <trkpt lat="36.87209053896367549896240234375" lon="-118.479787521064281463623046875">
        <ele>2404.199951171875</ele>
        <time>2021-06-28T01:37:16.000Z</time>
        <extensions>
          <ns3:TrackPointExtension>
            <ns3:atemp>30.0</ns3:atemp>
            <ns3:hr>93</ns3:hr>
          </ns3:TrackPointExtension>
        </extensions>
      </trkpt>
      <trkpt lat="36.87211300246417522430419921875" lon="-118.47985331900417804718017578125">
        <ele>2403.800048828125</ele>
        <time>2021-06-28T01:37:21.000Z</time>
        <extensions>
          <ns3:TrackPointExtension>
            <ns3:atemp>30.0</ns3:atemp>
            <ns3:hr>95</ns3:hr>
          </ns3:TrackPointExtension>
        </extensions>
      </trkpt>
      <trkpt lat="36.8721382319927215576171875" lon="-118.4799298457801342010498046875">
        <ele>2404.39990234375</ele>
        <time>2021-06-28T01:37:26.000Z</time>
        <extensions>
          <ns3:TrackPointExtension>
            <ns3:atemp>30.0</ns3:atemp>
            <ns3:hr>98</ns3:hr>
          </ns3:TrackPointExtension>
        </extensions>
      </trkpt>
      <trkpt lat="36.8721504695713520050048828125" lon="-118.4799362160265445709228515625">
        <ele>2404.800048828125</ele>
        <time>2021-06-28T01:37:28.000Z</time>
        <extensions>
          <ns3:TrackPointExtension>
            <ns3:atemp>30.0</ns3:atemp>
            <ns3:hr>100</ns3:hr>
          </ns3:TrackPointExtension>
        </extensions>
      </trkpt>
      <trkpt lat="36.8721558339893817901611328125" lon="-118.4799730964004993438720703125">
        <ele>2405</ele>
        <time>2021-06-28T01:37:31.000Z</time>
        <extensions>
          <ns3:TrackPointExtension>
            <ns3:atemp>30.0</ns3:atemp>
            <ns3:hr>101</ns3:hr>
          </ns3:TrackPointExtension>
        </extensions>
      </trkpt>
      <trkpt lat="36.87214837409555912017822265625" lon="-118.4799945540726184844970703125">
        <ele>2405.199951171875</ele>
        <time>2021-06-28T01:37:34.000Z</time>
        <extensions>
          <ns3:TrackPointExtension>
            <ns3:atemp>30.0</ns3:atemp>
            <ns3:hr>101</ns3:hr>
          </ns3:TrackPointExtension>
        </extensions>
      </trkpt>
      <trkpt lat="36.87214066274464130401611328125" lon="-118.47999245859682559967041015625">
        <ele>2405.39990234375</ele>
        <time>2021-06-28T01:37:35.000Z</time>
        <extensions>
          <ns3:TrackPointExtension>
            <ns3:atemp>30.0</ns3:atemp>
            <ns3:hr>101</ns3:hr>
          </ns3:TrackPointExtension>
        </extensions>
      </trkpt>
      <trkpt lat="36.872133873403072357177734375" lon="-118.4799928776919841766357421875">
        <ele>2405.39990234375</ele>
        <time>2021-06-28T01:37:36.000Z</time>
        <extensions>
          <ns3:TrackPointExtension>
            <ns3:atemp>30.0</ns3:atemp>
            <ns3:hr>100</ns3:hr>
          </ns3:TrackPointExtension>
        </extensions>
      </trkpt>
      <trkpt lat="36.87213177792727947235107421875" lon="-118.4800143353641033172607421875">
        <ele>2405.39990234375</ele>
        <time>2021-06-28T01:37:39.000Z</time>
        <extensions>
          <ns3:TrackPointExtension>
            <ns3:atemp>30.0</ns3:atemp>
            <ns3:hr>100</ns3:hr>
          </ns3:TrackPointExtension>
        </extensions>
      </trkpt>
      <trkpt lat="36.87213613651692867279052734375" lon="-118.48003084771335124969482421875">
        <ele>2405</ele>
        <time>2021-06-28T01:37:41.000Z</time>
        <extensions>
          <ns3:TrackPointExtension>
            <ns3:atemp>30.0</ns3:atemp>
            <ns3:hr>99</ns3:hr>
          </ns3:TrackPointExtension>
        </extensions>
      </trkpt>
      <trkpt lat="36.8721400760114192962646484375" lon="-118.4800391457974910736083984375">
        <ele>2404.800048828125</ele>
        <time>2021-06-28T01:37:42.000Z</time>
        <extensions>
          <ns3:TrackPointExtension>
            <ns3:atemp>30.0</ns3:atemp>
            <ns3:hr>98</ns3:hr>
          </ns3:TrackPointExtension>
        </extensions>
      </trkpt>
      <trkpt lat="36.87213898636400699615478515625" lon="-118.480047024786472320556640625">
        <ele>2404.800048828125</ele>
        <time>2021-06-28T01:37:43.000Z</time>
        <extensions>
          <ns3:TrackPointExtension>
            <ns3:atemp>30.0</ns3:atemp>
            <ns3:hr>98</ns3:hr>
          </ns3:TrackPointExtension>
        </extensions>
      </trkpt>
      <trkpt lat="36.87212540768086910247802734375" lon="-118.4800763614475727081298828125">
        <ele>2404.800048828125</ele>
        <time>2021-06-28T01:37:48.000Z</time>
        <extensions>
          <ns3:TrackPointExtension>
            <ns3:atemp>30.0</ns3:atemp>
            <ns3:hr>97</ns3:hr>
          </ns3:TrackPointExtension>
        </extensions>
      </trkpt>
      <trkpt lat="36.87210403382778167724609375" lon="-118.4800981543958187103271484375">
        <ele>2404.60009765625</ele>
        <time>2021-06-28T01:37:53.000Z</time>
        <extensions>
          <ns3:TrackPointExtension>
            <ns3:atemp>30.0</ns3:atemp>
            <ns3:hr>95</ns3:hr>
          </ns3:TrackPointExtension>
        </extensions>
      </trkpt>
      <trkpt lat="36.8720951490104198455810546875" lon="-118.48010838031768798828125">
        <ele>2404.800048828125</ele>
        <time>2021-06-28T01:37:55.000Z</time>
        <extensions>
          <ns3:TrackPointExtension>
            <ns3:atemp>30.0</ns3:atemp>
            <ns3:hr>96</ns3:hr>
          </ns3:TrackPointExtension>
        </extensions>
      </trkpt>
      <trkpt lat="36.87208668328821659088134765625" lon="-118.48011282272636890411376953125">
        <ele>2404.800048828125</ele>
        <time>2021-06-28T01:37:56.000Z</time>
        <extensions>
          <ns3:TrackPointExtension>
            <ns3:atemp>30.0</ns3:atemp>
            <ns3:hr>97</ns3:hr>
          </ns3:TrackPointExtension>
        </extensions>
      </trkpt>
      <trkpt lat="36.87206690199673175811767578125" lon="-118.480152972042560577392578125">
        <ele>2404.39990234375</ele>
        <time>2021-06-28T01:38:02.000Z</time>
        <extensions>
          <ns3:TrackPointExtension>
            <ns3:atemp>30.0</ns3:atemp>
            <ns3:hr>94</ns3:hr>
          </ns3:TrackPointExtension>
        </extensions>
      </trkpt>
      <trkpt lat="36.8720631301403045654296875" lon="-118.480158336460590362548828125">
        <ele>2404.199951171875</ele>
        <time>2021-06-28T01:38:03.000Z</time>
        <extensions>
          <ns3:TrackPointExtension>
            <ns3:atemp>30.0</ns3:atemp>
            <ns3:hr>94</ns3:hr>
          </ns3:TrackPointExtension>
        </extensions>
      </trkpt>
      <trkpt lat="36.87206187285482883453369140625" lon="-118.48016269505023956298828125">
        <ele>2403.800048828125</ele>
        <time>2021-06-28T01:38:04.000Z</time>
        <extensions>
          <ns3:TrackPointExtension>
            <ns3:atemp>30.0</ns3:atemp>
            <ns3:hr>93</ns3:hr>
          </ns3:TrackPointExtension>
        </extensions>
      </trkpt>
      <trkpt lat="36.87205181457102298736572265625" lon="-118.48016780801117420196533203125">
        <ele>2403.60009765625</ele>
        <time>2021-06-28T01:38:06.000Z</time>
        <extensions>
          <ns3:TrackPointExtension>
            <ns3:atemp>30.0</ns3:atemp>
            <ns3:hr>92</ns3:hr>
          </ns3:TrackPointExtension>
        </extensions>
      </trkpt>
      <trkpt lat="36.87205030582845211029052734375" lon="-118.480178453028202056884765625">
        <ele>2403.60009765625</ele>
        <time>2021-06-28T01:38:07.000Z</time>
        <extensions>
          <ns3:TrackPointExtension>
            <ns3:atemp>30.0</ns3:atemp>
            <ns3:hr>89</ns3:hr>
          </ns3:TrackPointExtension>
        </extensions>
      </trkpt>
      <trkpt lat="36.87205038964748382568359375" lon="-118.48019094206392765045166015625">
        <ele>2403</ele>
        <time>2021-06-28T01:38:08.000Z</time>
        <extensions>
          <ns3:TrackPointExtension>
            <ns3:atemp>30.0</ns3:atemp>
            <ns3:hr>89</ns3:hr>
          </ns3:TrackPointExtension>
        </extensions>
      </trkpt>
      <trkpt lat="36.872042678296566009521484375" lon="-118.4801933728158473968505859375">
        <ele>2402.39990234375</ele>
        <time>2021-06-28T01:38:09.000Z</time>
        <extensions>
          <ns3:TrackPointExtension>
            <ns3:atemp>30.0</ns3:atemp>
            <ns3:hr>88</ns3:hr>
          </ns3:TrackPointExtension>
        </extensions>
      </trkpt>
      <trkpt lat="36.87203857116401195526123046875" lon="-118.48021860234439373016357421875">
        <ele>2402.39990234375</ele>
        <time>2021-06-28T01:38:11.000Z</time>
        <extensions>
          <ns3:TrackPointExtension>
            <ns3:atemp>30.0</ns3:atemp>
            <ns3:hr>85</ns3:hr>
          </ns3:TrackPointExtension>
        </extensions>
      </trkpt>
      <trkpt lat="36.8720418401062488555908203125" lon="-118.48026956431567668914794921875">
        <ele>2402</ele>
        <time>2021-06-28T01:38:14.000Z</time>
        <extensions>
          <ns3:TrackPointExtension>
            <ns3:atemp>30.0</ns3:atemp>
            <ns3:hr>81</ns3:hr>
          </ns3:TrackPointExtension>
        </extensions>
      </trkpt>
      <trkpt lat="36.872040666639804840087890625" lon="-118.48027459345757961273193359375">
        <ele>2401.800048828125</ele>
        <time>2021-06-28T01:38:15.000Z</time>
        <extensions>
          <ns3:TrackPointExtension>
            <ns3:atemp>30.0</ns3:atemp>
            <ns3:hr>80</ns3:hr>
          </ns3:TrackPointExtension>
        </extensions>
      </trkpt>
      <trkpt lat="36.872035972774028778076171875" lon="-118.48027844913303852081298828125">
        <ele>2401.60009765625</ele>
        <time>2021-06-28T01:38:16.000Z</time>
        <extensions>
          <ns3:TrackPointExtension>
            <ns3:atemp>30.0</ns3:atemp>
            <ns3:hr>79</ns3:hr>
          </ns3:TrackPointExtension>
        </extensions>
      </trkpt>
      <trkpt lat="36.87202767468988895416259765625" lon="-118.48029755987226963043212890625">
        <ele>2401.39990234375</ele>
        <time>2021-06-28T01:38:18.000Z</time>
        <extensions>
          <ns3:TrackPointExtension>
            <ns3:atemp>30.0</ns3:atemp>
            <ns3:hr>78</ns3:hr>
          </ns3:TrackPointExtension>
        </extensions>
      </trkpt>
      <trkpt lat="36.87203236855566501617431640625" lon="-118.48033108748495578765869140625">
        <ele>2400.800048828125</ele>
        <time>2021-06-28T01:38:20.000Z</time>
        <extensions>
          <ns3:TrackPointExtension>
            <ns3:atemp>30.0</ns3:atemp>
            <ns3:hr>79</ns3:hr>
          </ns3:TrackPointExtension>
        </extensions>
      </trkpt>
      <trkpt lat="36.87203723005950450897216796875" lon="-118.48034533672034740447998046875">
        <ele>2400.39990234375</ele>
        <time>2021-06-28T01:38:21.000Z</time>
        <extensions>
          <ns3:TrackPointExtension>
            <ns3:atemp>30.0</ns3:atemp>
            <ns3:hr>80</ns3:hr>
          </ns3:TrackPointExtension>
        </extensions>
      </trkpt>
      <trkpt lat="36.87203890644013881683349609375" lon="-118.48038724623620510101318359375">
        <ele>2399.199951171875</ele>
        <time>2021-06-28T01:38:25.000Z</time>
        <extensions>
          <ns3:TrackPointExtension>
            <ns3:atemp>30.0</ns3:atemp>
            <ns3:hr>82</ns3:hr>
          </ns3:TrackPointExtension>
        </extensions>
      </trkpt>
      <trkpt lat="36.872027255594730377197265625" lon="-118.4804002381861209869384765625">
        <ele>2399.199951171875</ele>
        <time>2021-06-28T01:38:27.000Z</time>
        <extensions>
          <ns3:TrackPointExtension>
            <ns3:atemp>30.0</ns3:atemp>
            <ns3:hr>81</ns3:hr>
          </ns3:TrackPointExtension>
        </extensions>
      </trkpt>
      <trkpt lat="36.87196263112127780914306640625" lon="-118.480435945093631744384765625">
        <ele>2398</ele>
        <time>2021-06-28T01:38:33.000Z</time>
        <extensions>
          <ns3:TrackPointExtension>
            <ns3:atemp>30.0</ns3:atemp>
            <ns3:hr>82</ns3:hr>
          </ns3:TrackPointExtension>
        </extensions>
      </trkpt>
      <trkpt lat="36.871936060488224029541015625" lon="-118.4804488532245159149169921875">
        <ele>2397.60009765625</ele>
        <time>2021-06-28T01:38:35.000Z</time>
        <extensions>
          <ns3:TrackPointExtension>
            <ns3:atemp>30.0</ns3:atemp>
            <ns3:hr>83</ns3:hr>
          </ns3:TrackPointExtension>
        </extensions>
      </trkpt>
      <trkpt lat="36.87192843295633792877197265625" lon="-118.4805093705654144287109375">
        <ele>2397.199951171875</ele>
        <time>2021-06-28T01:38:38.000Z</time>
        <extensions>
          <ns3:TrackPointExtension>
            <ns3:atemp>30.0</ns3:atemp>
            <ns3:hr>86</ns3:hr>
          </ns3:TrackPointExtension>
        </extensions>
      </trkpt>
      <trkpt lat="36.8719184584915637969970703125" lon="-118.4805293194949626922607421875">
        <ele>2397</ele>
        <time>2021-06-28T01:38:39.000Z</time>
        <extensions>
          <ns3:TrackPointExtension>
            <ns3:atemp>30.0</ns3:atemp>
            <ns3:hr>86</ns3:hr>
          </ns3:TrackPointExtension>
        </extensions>
      </trkpt>
      <trkpt lat="36.8719124235212802886962890625" lon="-118.48054884932935237884521484375">
        <ele>2397</ele>
        <time>2021-06-28T01:38:40.000Z</time>
        <extensions>
          <ns3:TrackPointExtension>
            <ns3:atemp>30.0</ns3:atemp>
            <ns3:hr>87</ns3:hr>
          </ns3:TrackPointExtension>
        </extensions>
      </trkpt>
      <trkpt lat="36.87190814875066280364990234375" lon="-118.48058388568460941314697265625">
        <ele>2396.800048828125</ele>
        <time>2021-06-28T01:38:42.000Z</time>
        <extensions>
          <ns3:TrackPointExtension>
            <ns3:atemp>30.0</ns3:atemp>
            <ns3:hr>85</ns3:hr>
          </ns3:TrackPointExtension>
        </extensions>
      </trkpt>
      <trkpt lat="36.8719164468348026275634765625" lon="-118.48065211437642574310302734375">
        <ele>2396.60009765625</ele>
        <time>2021-06-28T01:38:46.000Z</time>
        <extensions>
          <ns3:TrackPointExtension>
            <ns3:atemp>30.0</ns3:atemp>
            <ns3:hr>85</ns3:hr>
          </ns3:TrackPointExtension>
        </extensions>
      </trkpt>
      <trkpt lat="36.8718949891626834869384765625" lon="-118.48076409660279750823974609375">
        <ele>2396.39990234375</ele>
        <time>2021-06-28T01:38:53.000Z</time>
        <extensions>
          <ns3:TrackPointExtension>
            <ns3:atemp>30.0</ns3:atemp>
            <ns3:hr>82</ns3:hr>
          </ns3:TrackPointExtension>
        </extensions>
      </trkpt>
      <trkpt lat="36.87188635580241680145263671875" lon="-118.48079192452132701873779296875">
        <ele>2396.199951171875</ele>
        <time>2021-06-28T01:38:55.000Z</time>
        <extensions>
          <ns3:TrackPointExtension>
            <ns3:atemp>30.0</ns3:atemp>
            <ns3:hr>81</ns3:hr>
          </ns3:TrackPointExtension>
        </extensions>
      </trkpt>
      <trkpt lat="36.8718765489757061004638671875" lon="-118.48087138496339321136474609375">
        <ele>2396.39990234375</ele>
        <time>2021-06-28T01:39:03.000Z</time>
        <extensions>
          <ns3:TrackPointExtension>
            <ns3:atemp>30.0</ns3:atemp>
            <ns3:hr>82</ns3:hr>
          </ns3:TrackPointExtension>
        </extensions>
      </trkpt>
      <trkpt lat="36.8718571029603481292724609375" lon="-118.48087624646723270416259765625">
        <ele>2396.800048828125</ele>
        <time>2021-06-28T01:39:05.000Z</time>
        <extensions>
          <ns3:TrackPointExtension>
            <ns3:atemp>30.0</ns3:atemp>
            <ns3:hr>78</ns3:hr>
          </ns3:TrackPointExtension>
        </extensions>
      </trkpt>
      <trkpt lat="36.87186305411159992218017578125" lon="-118.48092402331531047821044921875">
        <ele>2396.60009765625</ele>
        <time>2021-06-28T01:39:09.000Z</time>
        <extensions>
          <ns3:TrackPointExtension>
            <ns3:atemp>31.0</ns3:atemp>
            <ns3:hr>79</ns3:hr>
          </ns3:TrackPointExtension>
        </extensions>
      </trkpt>
      <trkpt lat="36.87187478877604007720947265625" lon="-118.48096610046923160552978515625">
        <ele>2397</ele>
        <time>2021-06-28T01:39:12.000Z</time>
        <extensions>
          <ns3:TrackPointExtension>
            <ns3:atemp>30.0</ns3:atemp>
            <ns3:hr>79</ns3:hr>
          </ns3:TrackPointExtension>
        </extensions>
      </trkpt>
      <trkpt lat="36.87187579460442066192626953125" lon="-118.4809953533113002777099609375">
        <ele>2398</ele>
        <time>2021-06-28T01:39:15.000Z</time>
        <extensions>
          <ns3:TrackPointExtension>
            <ns3:atemp>31.0</ns3:atemp>
            <ns3:hr>78</ns3:hr>
          </ns3:TrackPointExtension>
        </extensions>
      </trkpt>
      <trkpt lat="36.87187872827053070068359375" lon="-118.4810114465653896331787109375">
        <ele>2398.60009765625</ele>
        <time>2021-06-28T01:39:17.000Z</time>
        <extensions>
          <ns3:TrackPointExtension>
            <ns3:atemp>31.0</ns3:atemp>
            <ns3:hr>82</ns3:hr>
          </ns3:TrackPointExtension>
        </extensions>
      </trkpt>
      <trkpt lat="36.87186808325350284576416015625" lon="-118.4810288809239864349365234375">
        <ele>2398.800048828125</ele>
        <time>2021-06-28T01:39:20.000Z</time>
        <extensions>
          <ns3:TrackPointExtension>
            <ns3:atemp>30.0</ns3:atemp>
            <ns3:hr>87</ns3:hr>
          </ns3:TrackPointExtension>
        </extensions>
      </trkpt>
      <trkpt lat="36.871860288083553314208984375" lon="-118.4810364246368408203125">
        <ele>2399</ele>
        <time>2021-06-28T01:39:22.000Z</time>
        <extensions>
          <ns3:TrackPointExtension>
            <ns3:atemp>31.0</ns3:atemp>
            <ns3:hr>91</ns3:hr>
          </ns3:TrackPointExtension>
        </extensions>
      </trkpt>
      <trkpt lat="36.871851570904254913330078125" lon="-118.4810369275510311126708984375">
        <ele>2399</ele>
        <time>2021-06-28T01:39:23.000Z</time>
        <extensions>
          <ns3:TrackPointExtension>
            <ns3:atemp>31.0</ns3:atemp>
            <ns3:hr>92</ns3:hr>
          </ns3:TrackPointExtension>
        </extensions>
      </trkpt>
      <trkpt lat="36.8718178756535053253173828125" lon="-118.48101572133600711822509765625">
        <ele>2400</ele>
        <time>2021-06-28T01:39:26.000Z</time>
        <extensions>
          <ns3:TrackPointExtension>
            <ns3:atemp>31.0</ns3:atemp>
            <ns3:hr>95</ns3:hr>
          </ns3:TrackPointExtension>
        </extensions>
      </trkpt>
      <trkpt lat="36.8717900477349758148193359375" lon="-118.48102234303951263427734375">
        <ele>2400.39990234375</ele>
        <time>2021-06-28T01:39:29.000Z</time>
        <extensions>
          <ns3:TrackPointExtension>
            <ns3:atemp>31.0</ns3:atemp>
            <ns3:hr>98</ns3:hr>
          </ns3:TrackPointExtension>
        </extensions>
      </trkpt>
      <trkpt lat="36.871782504022121429443359375" lon="-118.4810439683496952056884765625">
        <ele>2400.60009765625</ele>
        <time>2021-06-28T01:39:30.000Z</time>
        <extensions>
          <ns3:TrackPointExtension>
            <ns3:atemp>31.0</ns3:atemp>
            <ns3:hr>99</ns3:hr>
          </ns3:TrackPointExtension>
        </extensions>
      </trkpt>
      <trkpt lat="36.87177705578505992889404296875" lon="-118.4811019711196422576904296875">
        <ele>2400.800048828125</ele>
        <time>2021-06-28T01:39:33.000Z</time>
        <extensions>
          <ns3:TrackPointExtension>
            <ns3:atemp>31.0</ns3:atemp>
            <ns3:hr>99</ns3:hr>
          </ns3:TrackPointExtension>
        </extensions>
      </trkpt>
      <trkpt lat="36.871779151260852813720703125" lon="-118.48111177794635295867919921875">
        <ele>2401.199951171875</ele>
        <time>2021-06-28T01:39:34.000Z</time>
        <extensions>
          <ns3:TrackPointExtension>
            <ns3:atemp>31.0</ns3:atemp>
            <ns3:hr>100</ns3:hr>
          </ns3:TrackPointExtension>
        </extensions>
      </trkpt>
      <trkpt lat="36.87178082764148712158203125" lon="-118.48112435080111026763916015625">
        <ele>2401.800048828125</ele>
        <time>2021-06-28T01:39:35.000Z</time>
        <extensions>
          <ns3:TrackPointExtension>
            <ns3:atemp>31.0</ns3:atemp>
            <ns3:hr>100</ns3:hr>
          </ns3:TrackPointExtension>
        </extensions>
      </trkpt>
      <trkpt lat="36.8717779777944087982177734375" lon="-118.48114497028291225433349609375">
        <ele>2402</ele>
        <time>2021-06-28T01:39:37.000Z</time>
        <extensions>
          <ns3:TrackPointExtension>
            <ns3:atemp>31.0</ns3:atemp>
            <ns3:hr>102</ns3:hr>
          </ns3:TrackPointExtension>
        </extensions>
      </trkpt>
      <trkpt lat="36.87176599167287349700927734375" lon="-118.481160141527652740478515625">
        <ele>2402</ele>
        <time>2021-06-28T01:39:39.000Z</time>
        <extensions>
          <ns3:TrackPointExtension>
            <ns3:atemp>31.0</ns3:atemp>
            <ns3:hr>104</ns3:hr>
          </ns3:TrackPointExtension>
        </extensions>
      </trkpt>
      <trkpt lat="36.871761381626129150390625" lon="-118.48117916844785213470458984375">
        <ele>2402</ele>
        <time>2021-06-28T01:39:41.000Z</time>
        <extensions>
          <ns3:TrackPointExtension>
            <ns3:atemp>31.0</ns3:atemp>
            <ns3:hr>105</ns3:hr>
          </ns3:TrackPointExtension>
        </extensions>
      </trkpt>
      <trkpt lat="36.8717655725777149200439453125" lon="-118.48118352703750133514404296875">
        <ele>2402.199951171875</ele>
        <time>2021-06-28T01:39:43.000Z</time>
        <extensions>
          <ns3:TrackPointExtension>
            <ns3:atemp>31.0</ns3:atemp>
            <ns3:hr>106</ns3:hr>
          </ns3:TrackPointExtension>
        </extensions>
      </trkpt>
      <trkpt lat="36.87177085317671298980712890625" lon="-118.48118771798908710479736328125">
        <ele>2402.199951171875</ele>
        <time>2021-06-28T01:39:44.000Z</time>
        <extensions>
          <ns3:TrackPointExtension>
            <ns3:atemp>31.0</ns3:atemp>
            <ns3:hr>107</ns3:hr>
          </ns3:TrackPointExtension>
        </extensions>
      </trkpt>
      <trkpt lat="36.87180588953197002410888671875" lon="-118.48123013041913509368896484375">
        <ele>2403.199951171875</ele>
        <time>2021-06-28T01:39:50.000Z</time>
        <extensions>
          <ns3:TrackPointExtension>
            <ns3:atemp>30.0</ns3:atemp>
            <ns3:hr>108</ns3:hr>
          </ns3:TrackPointExtension>
        </extensions>
      </trkpt>
      <trkpt lat="36.87180656008422374725341796875" lon="-118.48123951815068721771240234375">
        <ele>2403.39990234375</ele>
        <time>2021-06-28T01:39:51.000Z</time>
        <extensions>
          <ns3:TrackPointExtension>
            <ns3:atemp>31.0</ns3:atemp>
            <ns3:hr>108</ns3:hr>
          </ns3:TrackPointExtension>
        </extensions>
      </trkpt>
      <trkpt lat="36.8717957474291324615478515625" lon="-118.48125108517706394195556640625">
        <ele>2403.800048828125</ele>
        <time>2021-06-28T01:39:53.000Z</time>
        <extensions>
          <ns3:TrackPointExtension>
            <ns3:atemp>31.0</ns3:atemp>
            <ns3:hr>108</ns3:hr>
          </ns3:TrackPointExtension>
        </extensions>
      </trkpt>
      <trkpt lat="36.871786527335643768310546875" lon="-118.48125946708023548126220703125">
        <ele>2404.39990234375</ele>
        <time>2021-06-28T01:39:56.000Z</time>
        <extensions>
          <ns3:TrackPointExtension>
            <ns3:atemp>30.0</ns3:atemp>
            <ns3:hr>109</ns3:hr>
          </ns3:TrackPointExtension>
        </extensions>
      </trkpt>
      <trkpt lat="36.8717816658318042755126953125" lon="-118.48126617260277271270751953125">
        <ele>2404.60009765625</ele>
        <time>2021-06-28T01:39:57.000Z</time>
        <extensions>
          <ns3:TrackPointExtension>
            <ns3:atemp>31.0</ns3:atemp>
            <ns3:hr>109</ns3:hr>
          </ns3:TrackPointExtension>
        </extensions>
      </trkpt>
      <trkpt lat="36.8717447854578495025634765625" lon="-118.48128913901746273040771484375">
        <ele>2404.60009765625</ele>
        <time>2021-06-28T01:40:01.000Z</time>
        <extensions>
          <ns3:TrackPointExtension>
            <ns3:atemp>30.0</ns3:atemp>
            <ns3:hr>109</ns3:hr>
          </ns3:TrackPointExtension>
        </extensions>
      </trkpt>
      <trkpt lat="36.87173523008823394775390625" lon="-118.48131042905151844024658203125">
        <ele>2404</ele>
        <time>2021-06-28T01:40:04.000Z</time>
        <extensions>
          <ns3:TrackPointExtension>
            <ns3:atemp>30.0</ns3:atemp>
            <ns3:hr>106</ns3:hr>
          </ns3:TrackPointExtension>
        </extensions>
      </trkpt>
      <trkpt lat="36.87171821482479572296142578125" lon="-118.481319062411785125732421875">
        <ele>2403.60009765625</ele>
        <time>2021-06-28T01:40:07.000Z</time>
        <extensions>
          <ns3:TrackPointExtension>
            <ns3:atemp>31.0</ns3:atemp>
            <ns3:hr>103</ns3:hr>
          </ns3:TrackPointExtension>
        </extensions>
      </trkpt>
      <trkpt lat="36.8717159517109394073486328125" lon="-118.48133079707622528076171875">
        <ele>2403.199951171875</ele>
        <time>2021-06-28T01:40:08.000Z</time>
        <extensions>
          <ns3:TrackPointExtension>
            <ns3:atemp>30.0</ns3:atemp>
            <ns3:hr>105</ns3:hr>
          </ns3:TrackPointExtension>
        </extensions>
      </trkpt>
      <trkpt lat="36.8716951645910739898681640625" lon="-118.48139340989291667938232421875">
        <ele>2402.39990234375</ele>
        <time>2021-06-28T01:40:10.000Z</time>
        <extensions>
          <ns3:TrackPointExtension>
            <ns3:atemp>30.0</ns3:atemp>
            <ns3:hr>104</ns3:hr>
          </ns3:TrackPointExtension>
        </extensions>
      </trkpt>
      <trkpt lat="36.87172190286219120025634765625" lon="-118.481440432369709014892578125">
        <ele>2402.199951171875</ele>
        <time>2021-06-28T01:40:12.000Z</time>
        <extensions>
          <ns3:TrackPointExtension>
            <ns3:atemp>30.0</ns3:atemp>
            <ns3:hr>105</ns3:hr>
          </ns3:TrackPointExtension>
        </extensions>
      </trkpt>
      <trkpt lat="36.87175660394132137298583984375" lon="-118.48149633966386318206787109375">
        <ele>2402</ele>
        <time>2021-06-28T01:40:15.000Z</time>
        <extensions>
          <ns3:TrackPointExtension>
            <ns3:atemp>30.0</ns3:atemp>
            <ns3:hr>108</ns3:hr>
          </ns3:TrackPointExtension>
        </extensions>
      </trkpt>
      <trkpt lat="36.8717561848461627960205078125" lon="-118.48156775347888469696044921875">
        <ele>2401.60009765625</ele>
        <time>2021-06-28T01:40:24.000Z</time>
        <extensions>
          <ns3:TrackPointExtension>
            <ns3:atemp>30.0</ns3:atemp>
            <ns3:hr>108</ns3:hr>
          </ns3:TrackPointExtension>
        </extensions>
      </trkpt>
      <trkpt lat="36.87175744213163852691650390625" lon="-118.48161804489791393280029296875">
        <ele>2402.199951171875</ele>
        <time>2021-06-28T01:40:31.000Z</time>
        <extensions>
          <ns3:TrackPointExtension>
            <ns3:atemp>30.0</ns3:atemp>
            <ns3:hr>105</ns3:hr>
          </ns3:TrackPointExtension>
        </extensions>
      </trkpt>
      <trkpt lat="36.87175442464649677276611328125" lon="-118.48163614980876445770263671875">
        <ele>2402.60009765625</ele>
        <time>2021-06-28T01:40:33.000Z</time>
        <extensions>
          <ns3:TrackPointExtension>
            <ns3:atemp>30.0</ns3:atemp>
            <ns3:hr>106</ns3:hr>
          </ns3:TrackPointExtension>
        </extensions>
      </trkpt>
      <trkpt lat="36.87174738384783267974853515625" lon="-118.48172239959239959716796875">
        <ele>2403.199951171875</ele>
        <time>2021-06-28T01:40:38.000Z</time>
        <extensions>
          <ns3:TrackPointExtension>
            <ns3:atemp>30.0</ns3:atemp>
            <ns3:hr>105</ns3:hr>
          </ns3:TrackPointExtension>
        </extensions>
      </trkpt>
      <trkpt lat="36.8717478029429912567138671875" lon="-118.48173757083714008331298828125">
        <ele>2403.199951171875</ele>
        <time>2021-06-28T01:40:39.000Z</time>
        <extensions>
          <ns3:TrackPointExtension>
            <ns3:atemp>30.0</ns3:atemp>
            <ns3:hr>103</ns3:hr>
          </ns3:TrackPointExtension>
        </extensions>
      </trkpt>
      <trkpt lat="36.87177638523280620574951171875" lon="-118.481820635497570037841796875">
        <ele>2403</ele>
        <time>2021-06-28T01:40:45.000Z</time>
        <extensions>
          <ns3:TrackPointExtension>
            <ns3:atemp>30.0</ns3:atemp>
            <ns3:hr>101</ns3:hr>
          </ns3:TrackPointExtension>
        </extensions>
      </trkpt>
      <trkpt lat="36.87179096974432468414306640625" lon="-118.48186723887920379638671875">
        <ele>2402.39990234375</ele>
        <time>2021-06-28T01:40:50.000Z</time>
        <extensions>
          <ns3:TrackPointExtension>
            <ns3:atemp>30.0</ns3:atemp>
            <ns3:hr>104</ns3:hr>
          </ns3:TrackPointExtension>
        </extensions>
      </trkpt>
      <trkpt lat="36.87179465778172016143798828125" lon="-118.481875620782375335693359375">
        <ele>2402.39990234375</ele>
        <time>2021-06-28T01:40:51.000Z</time>
        <extensions>
          <ns3:TrackPointExtension>
            <ns3:atemp>30.0</ns3:atemp>
            <ns3:hr>104</ns3:hr>
          </ns3:TrackPointExtension>
        </extensions>
      </trkpt>
      <trkpt lat="36.87180907465517520904541015625" lon="-118.48189179785549640655517578125">
        <ele>2402.39990234375</ele>
        <time>2021-06-28T01:40:53.000Z</time>
        <extensions>
          <ns3:TrackPointExtension>
            <ns3:atemp>30.0</ns3:atemp>
            <ns3:hr>104</ns3:hr>
          </ns3:TrackPointExtension>
        </extensions>
      </trkpt>
      <trkpt lat="36.87183170579373836517333984375" lon="-118.4819187037646770477294921875">
        <ele>2402.39990234375</ele>
        <time>2021-06-28T01:40:57.000Z</time>
        <extensions>
          <ns3:TrackPointExtension>
            <ns3:atemp>30.0</ns3:atemp>
            <ns3:hr>104</ns3:hr>
          </ns3:TrackPointExtension>
        </extensions>
      </trkpt>
      <trkpt lat="36.87184788286685943603515625" lon="-118.48194007761776447296142578125">
        <ele>2402.199951171875</ele>
        <time>2021-06-28T01:40:59.000Z</time>
        <extensions>
          <ns3:TrackPointExtension>
            <ns3:atemp>30.0</ns3:atemp>
            <ns3:hr>103</ns3:hr>
          </ns3:TrackPointExtension>
        </extensions>
      </trkpt>
      <trkpt lat="36.87188300304114818572998046875" lon="-118.4819706715643405914306640625">
        <ele>2402.39990234375</ele>
        <time>2021-06-28T01:41:03.000Z</time>
        <extensions>
          <ns3:TrackPointExtension>
            <ns3:atemp>30.0</ns3:atemp>
            <ns3:hr>102</ns3:hr>
          </ns3:TrackPointExtension>
        </extensions>
      </trkpt>
      <trkpt lat="36.8718872778117656707763671875" lon="-118.4819461964070796966552734375">
        <ele>2402.39990234375</ele>
        <time>2021-06-28T01:41:08.000Z</time>
        <extensions>
          <ns3:TrackPointExtension>
            <ns3:atemp>30.0</ns3:atemp>
            <ns3:hr>99</ns3:hr>
          </ns3:TrackPointExtension>
        </extensions>
      </trkpt>
      <trkpt lat="36.871890462934970855712890625" lon="-118.48195633850991725921630859375">
        <ele>2402.199951171875</ele>
        <time>2021-06-28T01:41:11.000Z</time>
        <extensions>
          <ns3:TrackPointExtension>
            <ns3:atemp>30.0</ns3:atemp>
            <ns3:hr>97</ns3:hr>
          </ns3:TrackPointExtension>
        </extensions>
      </trkpt>
      <trkpt lat="36.8718856014311313629150390625" lon="-118.4819619543850421905517578125">
        <ele>2402.199951171875</ele>
        <time>2021-06-28T01:41:13.000Z</time>
        <extensions>
          <ns3:TrackPointExtension>
            <ns3:atemp>30.0</ns3:atemp>
            <ns3:hr>94</ns3:hr>
          </ns3:TrackPointExtension>
        </extensions>
      </trkpt>
      <trkpt lat="36.8718953244388103485107421875" lon="-118.48196589387953281402587890625">
        <ele>2402.199951171875</ele>
        <time>2021-06-28T01:41:17.000Z</time>
        <extensions>
          <ns3:TrackPointExtension>
            <ns3:atemp>30.0</ns3:atemp>
            <ns3:hr>91</ns3:hr>
          </ns3:TrackPointExtension>
        </extensions>
      </trkpt>
      <trkpt lat="36.871895156800746917724609375" lon="-118.48196379840373992919921875">
        <ele>2402.199951171875</ele>
        <time>2021-06-28T01:41:18.000Z</time>
        <extensions>
          <ns3:TrackPointExtension>
            <ns3:atemp>30.0</ns3:atemp>
            <ns3:hr>90</ns3:hr>
          </ns3:TrackPointExtension>
        </extensions>
      </trkpt>
      <trkpt lat="36.87189792282879352569580078125" lon="-118.48196522332727909088134765625">
        <ele>2402.199951171875</ele>
        <time>2021-06-28T01:41:26.000Z</time>
        <extensions>
          <ns3:TrackPointExtension>
            <ns3:atemp>30.0</ns3:atemp>
            <ns3:hr>88</ns3:hr>
          </ns3:TrackPointExtension>
        </extensions>
      </trkpt>
      <trkpt lat="36.87189792282879352569580078125" lon="-118.48196522332727909088134765625">
        <ele>2402.199951171875</ele>
        <time>2021-06-28T01:41:28.000Z</time>
        <extensions>
          <ns3:TrackPointExtension>
            <ns3:atemp>30.0</ns3:atemp>
            <ns3:hr>88</ns3:hr>
          </ns3:TrackPointExtension>
        </extensions>
      </trkpt>
      <trkpt lat="36.87189792282879352569580078125" lon="-118.48196522332727909088134765625">
        <ele>2402.39990234375</ele>
        <time>2021-06-28T01:41:33.000Z</time>
        <extensions>
          <ns3:TrackPointExtension>
            <ns3:atemp>30.0</ns3:atemp>
            <ns3:hr>85</ns3:hr>
          </ns3:TrackPointExtension>
        </extensions>
      </trkpt>
      <trkpt lat="36.87189792282879352569580078125" lon="-118.48196522332727909088134765625">
        <ele>2402.39990234375</ele>
        <time>2021-06-28T01:41:35.000Z</time>
        <extensions>
          <ns3:TrackPointExtension>
            <ns3:atemp>30.0</ns3:atemp>
            <ns3:hr>82</ns3:hr>
          </ns3:TrackPointExtension>
        </extensions>
      </trkpt>
      <trkpt lat="36.87191468663513660430908203125" lon="-118.48196304403245449066162109375">
        <ele>2402</ele>
        <time>2021-06-28T01:41:53.000Z</time>
        <extensions>
          <ns3:TrackPointExtension>
            <ns3:atemp>30.0</ns3:atemp>
            <ns3:hr>85</ns3:hr>
          </ns3:TrackPointExtension>
        </extensions>
      </trkpt>
      <trkpt lat="36.87192206270992755889892578125" lon="-118.4819636307656764984130859375">
        <ele>2402</ele>
        <time>2021-06-28T01:41:57.000Z</time>
        <extensions>
          <ns3:TrackPointExtension>
            <ns3:atemp>30.0</ns3:atemp>
            <ns3:hr>82</ns3:hr>
          </ns3:TrackPointExtension>
        </extensions>
      </trkpt>
      <trkpt lat="36.87192239798605442047119140625" lon="-118.48196974955499172210693359375">
        <ele>2402.199951171875</ele>
        <time>2021-06-28T01:41:59.000Z</time>
        <extensions>
          <ns3:TrackPointExtension>
            <ns3:atemp>30.0</ns3:atemp>
            <ns3:hr>76</ns3:hr>
          </ns3:TrackPointExtension>
        </extensions>
      </trkpt>
      <trkpt lat="36.871922649443149566650390625" lon="-118.481971509754657745361328125">
        <ele>2402</ele>
        <time>2021-06-28T01:42:00.000Z</time>
        <extensions>
          <ns3:TrackPointExtension>
            <ns3:atemp>30.0</ns3:atemp>
            <ns3:hr>76</ns3:hr>
          </ns3:TrackPointExtension>
        </extensions>
      </trkpt>
      <trkpt lat="36.87192440964281558990478515625" lon="-118.4819740243256092071533203125">
        <ele>2401.800048828125</ele>
        <time>2021-06-28T01:42:10.000Z</time>
        <extensions>
          <ns3:TrackPointExtension>
            <ns3:atemp>30.0</ns3:atemp>
            <ns3:hr>73</ns3:hr>
          </ns3:TrackPointExtension>
        </extensions>
      </trkpt>
      <trkpt lat="36.871927343308925628662109375" lon="-118.4819740243256092071533203125">
        <ele>2401.800048828125</ele>
        <time>2021-06-28T01:42:14.000Z</time>
        <extensions>
          <ns3:TrackPointExtension>
            <ns3:atemp>30.0</ns3:atemp>
            <ns3:hr>76</ns3:hr>
          </ns3:TrackPointExtension>
        </extensions>
      </trkpt>
      <trkpt lat="36.8719298578798770904541015625" lon="-118.48197159357368946075439453125">
        <ele>2401.800048828125</ele>
        <time>2021-06-28T01:42:20.000Z</time>
        <extensions>
          <ns3:TrackPointExtension>
            <ns3:atemp>30.0</ns3:atemp>
            <ns3:hr>73</ns3:hr>
          </ns3:TrackPointExtension>
        </extensions>
      </trkpt>
      <trkpt lat="36.87189792282879352569580078125" lon="-118.4819336235523223876953125">
        <ele>2401.60009765625</ele>
        <time>2021-06-28T01:42:39.000Z</time>
        <extensions>
          <ns3:TrackPointExtension>
            <ns3:atemp>31.0</ns3:atemp>
            <ns3:hr>71</ns3:hr>
          </ns3:TrackPointExtension>
        </extensions>
      </trkpt>
      <trkpt lat="36.87189691700041294097900390625" lon="-118.48193303681910037994384765625">
        <ele>2401.60009765625</ele>
        <time>2021-06-28T01:42:43.000Z</time>
        <extensions>
          <ns3:TrackPointExtension>
            <ns3:atemp>31.0</ns3:atemp>
            <ns3:hr>75</ns3:hr>
          </ns3:TrackPointExtension>
        </extensions>
      </trkpt>
      <trkpt lat="36.8718976713716983795166015625" lon="-118.4819398261606693267822265625">
        <ele>2401.39990234375</ele>
        <time>2021-06-28T01:42:55.000Z</time>
        <extensions>
          <ns3:TrackPointExtension>
            <ns3:atemp>31.0</ns3:atemp>
            <ns3:hr>72</ns3:hr>
          </ns3:TrackPointExtension>
        </extensions>
      </trkpt>
      <trkpt lat="36.87190496362745761871337890625" lon="-118.4819468669593334197998046875">
        <ele>2401</ele>
        <time>2021-06-28T01:42:59.000Z</time>
        <extensions>
          <ns3:TrackPointExtension>
            <ns3:atemp>31.0</ns3:atemp>
            <ns3:hr>71</ns3:hr>
          </ns3:TrackPointExtension>
        </extensions>
      </trkpt>
      <trkpt lat="36.871916949748992919921875" lon="-118.4819550812244415283203125">
        <ele>2401</ele>
        <time>2021-06-28T01:43:08.000Z</time>
        <extensions>
          <ns3:TrackPointExtension>
            <ns3:atemp>31.0</ns3:atemp>
            <ns3:hr>67</ns3:hr>
          </ns3:TrackPointExtension>
        </extensions>
      </trkpt>
      <trkpt lat="36.8719182908535003662109375" lon="-118.481956087052822113037109375">
        <ele>2401.199951171875</ele>
        <time>2021-06-28T01:43:09.000Z</time>
        <extensions>
          <ns3:TrackPointExtension>
            <ns3:atemp>31.0</ns3:atemp>
            <ns3:hr>67</ns3:hr>
          </ns3:TrackPointExtension>
        </extensions>
      </trkpt>
      <trkpt lat="36.8718507327139377593994140625" lon="-118.4819807298481464385986328125">
        <ele>2401</ele>
        <time>2021-06-28T01:43:45.000Z</time>
        <extensions>
          <ns3:TrackPointExtension>
            <ns3:atemp>31.0</ns3:atemp>
            <ns3:hr>70</ns3:hr>
          </ns3:TrackPointExtension>
        </extensions>
      </trkpt>
      <trkpt lat="36.87185064889490604400634765625" lon="-118.4819800592958927154541015625">
        <ele>2401</ele>
        <time>2021-06-28T01:43:48.000Z</time>
        <extensions>
          <ns3:TrackPointExtension>
            <ns3:atemp>31.0</ns3:atemp>
            <ns3:hr>74</ns3:hr>
          </ns3:TrackPointExtension>
        </extensions>
      </trkpt>
      <trkpt lat="36.871852241456508636474609375" lon="-118.4819790534675121307373046875">
        <ele>2401</ele>
        <time>2021-06-28T01:43:50.000Z</time>
        <extensions>
          <ns3:TrackPointExtension>
            <ns3:atemp>31.0</ns3:atemp>
            <ns3:hr>77</ns3:hr>
          </ns3:TrackPointExtension>
        </extensions>
      </trkpt>
      <trkpt lat="36.87186959199607372283935546875" lon="-118.48197394050657749176025390625">
        <ele>2401.60009765625</ele>
        <time>2021-06-28T01:44:02.000Z</time>
        <extensions>
          <ns3:TrackPointExtension>
            <ns3:atemp>31.0</ns3:atemp>
            <ns3:hr>74</ns3:hr>
          </ns3:TrackPointExtension>
        </extensions>
      </trkpt>
      <trkpt lat="36.87187210656702518463134765625" lon="-118.48196974955499172210693359375">
        <ele>2402.199951171875</ele>
        <time>2021-06-28T01:44:06.000Z</time>
        <extensions>
          <ns3:TrackPointExtension>
            <ns3:atemp>31.0</ns3:atemp>
            <ns3:hr>73</ns3:hr>
          </ns3:TrackPointExtension>
        </extensions>
      </trkpt>
      <trkpt lat="36.87187043018639087677001953125" lon="-118.482001684606075286865234375">
        <ele>2401.800048828125</ele>
        <time>2021-06-28T01:44:12.000Z</time>
        <extensions>
          <ns3:TrackPointExtension>
            <ns3:atemp>31.0</ns3:atemp>
            <ns3:hr>72</ns3:hr>
          </ns3:TrackPointExtension>
        </extensions>
      </trkpt>
      <trkpt lat="36.87184612266719341278076171875" lon="-118.48200671374797821044921875">
        <ele>2401</ele>
        <time>2021-06-28T01:44:17.000Z</time>
        <extensions>
          <ns3:TrackPointExtension>
            <ns3:atemp>31.0</ns3:atemp>
            <ns3:hr>74</ns3:hr>
          </ns3:TrackPointExtension>
        </extensions>
      </trkpt>
      <trkpt lat="36.87182399444282054901123046875" lon="-118.48200964741408824920654296875">
        <ele>2400.800048828125</ele>
        <time>2021-06-28T01:44:19.000Z</time>
        <extensions>
          <ns3:TrackPointExtension>
            <ns3:atemp>31.0</ns3:atemp>
            <ns3:hr>74</ns3:hr>
          </ns3:TrackPointExtension>
        </extensions>
      </trkpt>
      <trkpt lat="36.871785186231136322021484375" lon="-118.48205088637769222259521484375">
        <ele>2399.60009765625</ele>
        <time>2021-06-28T01:44:23.000Z</time>
        <extensions>
          <ns3:TrackPointExtension>
            <ns3:atemp>31.0</ns3:atemp>
            <ns3:hr>74</ns3:hr>
          </ns3:TrackPointExtension>
        </extensions>
      </trkpt>
      <trkpt lat="36.87176682986319065093994140625" lon="-118.4820668958127498626708984375">
        <ele>2399.39990234375</ele>
        <time>2021-06-28T01:44:26.000Z</time>
        <extensions>
          <ns3:TrackPointExtension>
            <ns3:atemp>31.0</ns3:atemp>
            <ns3:hr>74</ns3:hr>
          </ns3:TrackPointExtension>
        </extensions>
      </trkpt>
      <trkpt lat="36.8717300333082675933837890625" lon="-118.48210704512894153594970703125">
        <ele>2398.39990234375</ele>
        <time>2021-06-28T01:44:31.000Z</time>
        <extensions>
          <ns3:TrackPointExtension>
            <ns3:atemp>31.0</ns3:atemp>
            <ns3:hr>71</ns3:hr>
          </ns3:TrackPointExtension>
        </extensions>
      </trkpt>
      <trkpt lat="36.871716789901256561279296875" lon="-118.48210327327251434326171875">
        <ele>2398.199951171875</ele>
        <time>2021-06-28T01:44:32.000Z</time>
        <extensions>
          <ns3:TrackPointExtension>
            <ns3:atemp>31.0</ns3:atemp>
            <ns3:hr>72</ns3:hr>
          </ns3:TrackPointExtension>
        </extensions>
      </trkpt>
      <trkpt lat="36.87169508077204227447509765625" lon="-118.482145182788372039794921875">
        <ele>2397.39990234375</ele>
        <time>2021-06-28T01:44:39.000Z</time>
        <extensions>
          <ns3:TrackPointExtension>
            <ns3:atemp>31.0</ns3:atemp>
            <ns3:hr>73</ns3:hr>
          </ns3:TrackPointExtension>
        </extensions>
      </trkpt>
      <trkpt lat="36.87169793061912059783935546875" lon="-118.48215046338737010955810546875">
        <ele>2397.199951171875</ele>
        <time>2021-06-28T01:44:40.000Z</time>
        <extensions>
          <ns3:TrackPointExtension>
            <ns3:atemp>31.0</ns3:atemp>
            <ns3:hr>73</ns3:hr>
          </ns3:TrackPointExtension>
        </extensions>
      </trkpt>
      <trkpt lat="36.8716983497142791748046875" lon="-118.48215834237635135650634765625">
        <ele>2397.199951171875</ele>
        <time>2021-06-28T01:44:41.000Z</time>
        <extensions>
          <ns3:TrackPointExtension>
            <ns3:atemp>31.0</ns3:atemp>
            <ns3:hr>72</ns3:hr>
          </ns3:TrackPointExtension>
        </extensions>
      </trkpt>
      <trkpt lat="36.87168971635401248931884765625" lon="-118.48216823302209377288818359375">
        <ele>2396.800048828125</ele>
        <time>2021-06-28T01:44:44.000Z</time>
        <extensions>
          <ns3:TrackPointExtension>
            <ns3:atemp>31.0</ns3:atemp>
            <ns3:hr>70</ns3:hr>
          </ns3:TrackPointExtension>
        </extensions>
      </trkpt>
      <trkpt lat="36.87167848460376262664794921875" lon="-118.4821728430688381195068359375">
        <ele>2395.800048828125</ele>
        <time>2021-06-28T01:44:46.000Z</time>
        <extensions>
          <ns3:TrackPointExtension>
            <ns3:atemp>31.0</ns3:atemp>
            <ns3:hr>70</ns3:hr>
          </ns3:TrackPointExtension>
        </extensions>
      </trkpt>
      <trkpt lat="36.8716596253216266632080078125" lon="-118.48219178617000579833984375">
        <ele>2394.800048828125</ele>
        <time>2021-06-28T01:44:50.000Z</time>
        <extensions>
          <ns3:TrackPointExtension>
            <ns3:atemp>31.0</ns3:atemp>
            <ns3:hr>68</ns3:hr>
          </ns3:TrackPointExtension>
        </extensions>
      </trkpt>
      <trkpt lat="36.8716472201049327850341796875" lon="-118.482263199985027313232421875">
        <ele>2394.60009765625</ele>
        <time>2021-06-28T01:44:56.000Z</time>
        <extensions>
          <ns3:TrackPointExtension>
            <ns3:atemp>31.0</ns3:atemp>
            <ns3:hr>67</ns3:hr>
          </ns3:TrackPointExtension>
        </extensions>
      </trkpt>
      <trkpt lat="36.87164311297237873077392578125" lon="-118.4823947958648204803466796875">
        <ele>2393.800048828125</ele>
        <time>2021-06-28T01:45:05.000Z</time>
        <extensions>
          <ns3:TrackPointExtension>
            <ns3:atemp>31.0</ns3:atemp>
            <ns3:hr>65</ns3:hr>
          </ns3:TrackPointExtension>
        </extensions>
      </trkpt>
      <trkpt lat="36.871635653078556060791015625" lon="-118.482407033443450927734375">
        <ele>2393.60009765625</ele>
        <time>2021-06-28T01:45:06.000Z</time>
        <extensions>
          <ns3:TrackPointExtension>
            <ns3:atemp>31.0</ns3:atemp>
            <ns3:hr>64</ns3:hr>
          </ns3:TrackPointExtension>
        </extensions>
      </trkpt>
      <trkpt lat="36.8716116808354854583740234375" lon="-118.4824551455676555633544921875">
        <ele>2393.39990234375</ele>
        <time>2021-06-28T01:45:10.000Z</time>
        <extensions>
          <ns3:TrackPointExtension>
            <ns3:atemp>31.0</ns3:atemp>
            <ns3:hr>66</ns3:hr>
          </ns3:TrackPointExtension>
        </extensions>
      </trkpt>
      <trkpt lat="36.87160707078874111175537109375" lon="-118.4824524633586406707763671875">
        <ele>2393.39990234375</ele>
        <time>2021-06-28T01:45:11.000Z</time>
        <extensions>
          <ns3:TrackPointExtension>
            <ns3:atemp>31.0</ns3:atemp>
            <ns3:hr>66</ns3:hr>
          </ns3:TrackPointExtension>
        </extensions>
      </trkpt>
      <trkpt lat="36.8716348148882389068603515625" lon="-118.4824886731803417205810546875">
        <ele>2393.199951171875</ele>
        <time>2021-06-28T01:45:14.000Z</time>
        <extensions>
          <ns3:TrackPointExtension>
            <ns3:atemp>31.0</ns3:atemp>
            <ns3:hr>67</ns3:hr>
          </ns3:TrackPointExtension>
        </extensions>
      </trkpt>
      <trkpt lat="36.87161494977772235870361328125" lon="-118.4824829734861850738525390625">
        <ele>2393</ele>
        <time>2021-06-28T01:45:16.000Z</time>
        <extensions>
          <ns3:TrackPointExtension>
            <ns3:atemp>31.0</ns3:atemp>
            <ns3:hr>68</ns3:hr>
          </ns3:TrackPointExtension>
        </extensions>
      </trkpt>
      <trkpt lat="36.87159516848623752593994140625" lon="-118.48249831236898899078369140625">
        <ele>2392.60009765625</ele>
        <time>2021-06-28T01:45:18.000Z</time>
        <extensions>
          <ns3:TrackPointExtension>
            <ns3:atemp>31.0</ns3:atemp>
            <ns3:hr>69</ns3:hr>
          </ns3:TrackPointExtension>
        </extensions>
      </trkpt>
      <trkpt lat="36.87158494256436824798583984375" lon="-118.48251021467149257659912109375">
        <ele>2392.60009765625</ele>
        <time>2021-06-28T01:45:19.000Z</time>
        <extensions>
          <ns3:TrackPointExtension>
            <ns3:atemp>31.0</ns3:atemp>
            <ns3:hr>70</ns3:hr>
          </ns3:TrackPointExtension>
        </extensions>
      </trkpt>
      <trkpt lat="36.87159399501979351043701171875" lon="-118.4825456701219081878662109375">
        <ele>2392</ele>
        <time>2021-06-28T01:45:21.000Z</time>
        <extensions>
          <ns3:TrackPointExtension>
            <ns3:atemp>31.0</ns3:atemp>
            <ns3:hr>71</ns3:hr>
          </ns3:TrackPointExtension>
        </extensions>
      </trkpt>
      <trkpt lat="36.87160648405551910400390625" lon="-118.482575677335262298583984375">
        <ele>2391.60009765625</ele>
        <time>2021-06-28T01:45:24.000Z</time>
        <extensions>
          <ns3:TrackPointExtension>
            <ns3:atemp>31.0</ns3:atemp>
            <ns3:hr>71</ns3:hr>
          </ns3:TrackPointExtension>
        </extensions>
      </trkpt>
      <trkpt lat="36.871610842645168304443359375" lon="-118.48260023631155490875244140625">
        <ele>2391.39990234375</ele>
        <time>2021-06-28T01:45:26.000Z</time>
        <extensions>
          <ns3:TrackPointExtension>
            <ns3:atemp>31.0</ns3:atemp>
            <ns3:hr>71</ns3:hr>
          </ns3:TrackPointExtension>
        </extensions>
      </trkpt>
      <trkpt lat="36.8716230802237987518310546875" lon="-118.48263812251389026641845703125">
        <ele>2392</ele>
        <time>2021-06-28T01:45:29.000Z</time>
        <extensions>
          <ns3:TrackPointExtension>
            <ns3:atemp>31.0</ns3:atemp>
            <ns3:hr>72</ns3:hr>
          </ns3:TrackPointExtension>
        </extensions>
      </trkpt>
      <trkpt lat="36.87163590453565120697021484375" lon="-118.48267047666013240814208984375">
        <ele>2391.800048828125</ele>
        <time>2021-06-28T01:45:32.000Z</time>
        <extensions>
          <ns3:TrackPointExtension>
            <ns3:atemp>31.0</ns3:atemp>
            <ns3:hr>70</ns3:hr>
          </ns3:TrackPointExtension>
        </extensions>
      </trkpt>
      <trkpt lat="36.87162551097571849822998046875" lon="-118.4827034175395965576171875">
        <ele>2391.199951171875</ele>
        <time>2021-06-28T01:45:37.000Z</time>
        <extensions>
          <ns3:TrackPointExtension>
            <ns3:atemp>31.0</ns3:atemp>
            <ns3:hr>70</ns3:hr>
          </ns3:TrackPointExtension>
        </extensions>
      </trkpt>
      <trkpt lat="36.871620900928974151611328125" lon="-118.48271884024143218994140625">
        <ele>2391.199951171875</ele>
        <time>2021-06-28T01:45:38.000Z</time>
        <extensions>
          <ns3:TrackPointExtension>
            <ns3:atemp>31.0</ns3:atemp>
            <ns3:hr>70</ns3:hr>
          </ns3:TrackPointExtension>
        </extensions>
      </trkpt>
      <trkpt lat="36.8716110102832317352294921875" lon="-118.4827374480664730072021484375">
        <ele>2391</ele>
        <time>2021-06-28T01:45:39.000Z</time>
        <extensions>
          <ns3:TrackPointExtension>
            <ns3:atemp>31.0</ns3:atemp>
            <ns3:hr>70</ns3:hr>
          </ns3:TrackPointExtension>
        </extensions>
      </trkpt>
      <trkpt lat="36.871613524854183197021484375" lon="-118.48277810029685497283935546875">
        <ele>2390.60009765625</ele>
        <time>2021-06-28T01:45:41.000Z</time>
        <extensions>
          <ns3:TrackPointExtension>
            <ns3:atemp>31.0</ns3:atemp>
            <ns3:hr>70</ns3:hr>
          </ns3:TrackPointExtension>
        </extensions>
      </trkpt>
      <trkpt lat="36.87161847017705440521240234375" lon="-118.482789583504199981689453125">
        <ele>2390.60009765625</ele>
        <time>2021-06-28T01:45:42.000Z</time>
        <extensions>
          <ns3:TrackPointExtension>
            <ns3:atemp>31.0</ns3:atemp>
            <ns3:hr>70</ns3:hr>
          </ns3:TrackPointExtension>
        </extensions>
      </trkpt>
      <trkpt lat="36.87163758091628551483154296875" lon="-118.48281271755695343017578125">
        <ele>2390</ele>
        <time>2021-06-28T01:45:45.000Z</time>
        <extensions>
          <ns3:TrackPointExtension>
            <ns3:atemp>31.0</ns3:atemp>
            <ns3:hr>72</ns3:hr>
          </ns3:TrackPointExtension>
        </extensions>
      </trkpt>
      <trkpt lat="36.871636323630809783935546875" lon="-118.4828363545238971710205078125">
        <ele>2389.60009765625</ele>
        <time>2021-06-28T01:45:48.000Z</time>
        <extensions>
          <ns3:TrackPointExtension>
            <ns3:atemp>31.0</ns3:atemp>
            <ns3:hr>74</ns3:hr>
          </ns3:TrackPointExtension>
        </extensions>
      </trkpt>
      <trkpt lat="36.87163406051695346832275390625" lon="-118.48284733481705188751220703125">
        <ele>2389.199951171875</ele>
        <time>2021-06-28T01:45:49.000Z</time>
        <extensions>
          <ns3:TrackPointExtension>
            <ns3:atemp>31.0</ns3:atemp>
            <ns3:hr>74</ns3:hr>
          </ns3:TrackPointExtension>
        </extensions>
      </trkpt>
      <trkpt lat="36.8715965934097766876220703125" lon="-118.4829295612871646881103515625">
        <ele>2389.800048828125</ele>
        <time>2021-06-28T01:45:57.000Z</time>
        <extensions>
          <ns3:TrackPointExtension>
            <ns3:atemp>31.0</ns3:atemp>
            <ns3:hr>72</ns3:hr>
          </ns3:TrackPointExtension>
        </extensions>
      </trkpt>
      <trkpt lat="36.87159399501979351043701171875" lon="-118.48300659097731113433837890625">
        <ele>2389.199951171875</ele>
        <time>2021-06-28T01:46:03.000Z</time>
        <extensions>
          <ns3:TrackPointExtension>
            <ns3:atemp>31.0</ns3:atemp>
            <ns3:hr>72</ns3:hr>
          </ns3:TrackPointExtension>
        </extensions>
      </trkpt>
      <trkpt lat="36.8716123513877391815185546875" lon="-118.48308789543807506561279296875">
        <ele>2388.39990234375</ele>
        <time>2021-06-28T01:46:09.000Z</time>
        <extensions>
          <ns3:TrackPointExtension>
            <ns3:atemp>31.0</ns3:atemp>
            <ns3:hr>70</ns3:hr>
          </ns3:TrackPointExtension>
        </extensions>
      </trkpt>
      <trkpt lat="36.87160857953131198883056640625" lon="-118.483097366988658905029296875">
        <ele>2388.39990234375</ele>
        <time>2021-06-28T01:46:10.000Z</time>
        <extensions>
          <ns3:TrackPointExtension>
            <ns3:atemp>31.0</ns3:atemp>
            <ns3:hr>69</ns3:hr>
          </ns3:TrackPointExtension>
        </extensions>
      </trkpt>
      <trkpt lat="36.8716448731720447540283203125" lon="-118.483179174363613128662109375">
        <ele>2388.199951171875</ele>
        <time>2021-06-28T01:46:17.000Z</time>
        <extensions>
          <ns3:TrackPointExtension>
            <ns3:atemp>31.0</ns3:atemp>
            <ns3:hr>67</ns3:hr>
          </ns3:TrackPointExtension>
        </extensions>
      </trkpt>
      <trkpt lat="36.87164445407688617706298828125" lon="-118.4831900708377361297607421875">
        <ele>2388.199951171875</ele>
        <time>2021-06-28T01:46:18.000Z</time>
        <extensions>
          <ns3:TrackPointExtension>
            <ns3:atemp>31.0</ns3:atemp>
            <ns3:hr>67</ns3:hr>
          </ns3:TrackPointExtension>
        </extensions>
      </trkpt>
      <trkpt lat="36.87165208160877227783203125" lon="-118.48323172889649868011474609375">
        <ele>2387.800048828125</ele>
        <time>2021-06-28T01:46:21.000Z</time>
        <extensions>
          <ns3:TrackPointExtension>
            <ns3:atemp>31.0</ns3:atemp>
            <ns3:hr>68</ns3:hr>
          </ns3:TrackPointExtension>
        </extensions>
      </trkpt>
      <trkpt lat="36.871663145720958709716796875" lon="-118.48327673971652984619140625">
        <ele>2387.199951171875</ele>
        <time>2021-06-28T01:46:24.000Z</time>
        <extensions>
          <ns3:TrackPointExtension>
            <ns3:atemp>31.0</ns3:atemp>
            <ns3:hr>65</ns3:hr>
          </ns3:TrackPointExtension>
        </extensions>
      </trkpt>
      <trkpt lat="36.87166037969291210174560546875" lon="-118.48328554071485996246337890625">
        <ele>2387.199951171875</ele>
        <time>2021-06-28T01:46:25.000Z</time>
        <extensions>
          <ns3:TrackPointExtension>
            <ns3:atemp>31.0</ns3:atemp>
            <ns3:hr>66</ns3:hr>
          </ns3:TrackPointExtension>
        </extensions>
      </trkpt>
      <trkpt lat="36.87164780683815479278564453125" lon="-118.48329953849315643310546875">
        <ele>2386.60009765625</ele>
        <time>2021-06-28T01:46:27.000Z</time>
        <extensions>
          <ns3:TrackPointExtension>
            <ns3:atemp>31.0</ns3:atemp>
            <ns3:hr>68</ns3:hr>
          </ns3:TrackPointExtension>
        </extensions>
      </trkpt>
      <trkpt lat="36.8716522492468357086181640625" lon="-118.48332979716360569000244140625">
        <ele>2386.199951171875</ele>
        <time>2021-06-28T01:46:29.000Z</time>
        <extensions>
          <ns3:TrackPointExtension>
            <ns3:atemp>31.0</ns3:atemp>
            <ns3:hr>69</ns3:hr>
          </ns3:TrackPointExtension>
        </extensions>
      </trkpt>
      <trkpt lat="36.87163330614566802978515625" lon="-118.483351506292819976806640625">
        <ele>2385</ele>
        <time>2021-06-28T01:46:33.000Z</time>
        <extensions>
          <ns3:TrackPointExtension>
            <ns3:atemp>31.0</ns3:atemp>
            <ns3:hr>71</ns3:hr>
          </ns3:TrackPointExtension>
        </extensions>
      </trkpt>
      <trkpt lat="36.87165937386453151702880859375" lon="-118.48345317877829074859619140625">
        <ele>2384.199951171875</ele>
        <time>2021-06-28T01:46:40.000Z</time>
        <extensions>
          <ns3:TrackPointExtension>
            <ns3:atemp>31.0</ns3:atemp>
            <ns3:hr>70</ns3:hr>
          </ns3:TrackPointExtension>
        </extensions>
      </trkpt>
      <trkpt lat="36.8716569431126117706298828125" lon="-118.48346256650984287261962890625">
        <ele>2384.199951171875</ele>
        <time>2021-06-28T01:46:41.000Z</time>
        <extensions>
          <ns3:TrackPointExtension>
            <ns3:atemp>31.0</ns3:atemp>
            <ns3:hr>70</ns3:hr>
          </ns3:TrackPointExtension>
        </extensions>
      </trkpt>
      <trkpt lat="36.8716607987880706787109375" lon="-118.48348452709615230560302734375">
        <ele>2384</ele>
        <time>2021-06-28T01:46:43.000Z</time>
        <extensions>
          <ns3:TrackPointExtension>
            <ns3:atemp>31.0</ns3:atemp>
            <ns3:hr>68</ns3:hr>
          </ns3:TrackPointExtension>
        </extensions>
      </trkpt>
      <trkpt lat="36.8716634809970855712890625" lon="-118.4834988601505756378173828125">
        <ele>2383.800048828125</ele>
        <time>2021-06-28T01:46:44.000Z</time>
        <extensions>
          <ns3:TrackPointExtension>
            <ns3:atemp>31.0</ns3:atemp>
            <ns3:hr>68</ns3:hr>
          </ns3:TrackPointExtension>
        </extensions>
      </trkpt>
      <trkpt lat="36.871660463511943817138671875" lon="-118.483527190983295440673828125">
        <ele>2383.60009765625</ele>
        <time>2021-06-28T01:46:46.000Z</time>
        <extensions>
          <ns3:TrackPointExtension>
            <ns3:atemp>31.0</ns3:atemp>
            <ns3:hr>69</ns3:hr>
          </ns3:TrackPointExtension>
        </extensions>
      </trkpt>
      <trkpt lat="36.87165048904716968536376953125" lon="-118.48354873247444629669189453125">
        <ele>2383.39990234375</ele>
        <time>2021-06-28T01:46:48.000Z</time>
        <extensions>
          <ns3:TrackPointExtension>
            <ns3:atemp>31.0</ns3:atemp>
            <ns3:hr>69</ns3:hr>
          </ns3:TrackPointExtension>
        </extensions>
      </trkpt>
      <trkpt lat="36.87163607217371463775634765625" lon="-118.483578152954578399658203125">
        <ele>2382.800048828125</ele>
        <time>2021-06-28T01:46:50.000Z</time>
        <extensions>
          <ns3:TrackPointExtension>
            <ns3:atemp>31.0</ns3:atemp>
            <ns3:hr>69</ns3:hr>
          </ns3:TrackPointExtension>
        </extensions>
      </trkpt>
      <trkpt lat="36.8716552667319774627685546875" lon="-118.48361461423337459564208984375">
        <ele>2382.60009765625</ele>
        <time>2021-06-28T01:46:51.000Z</time>
        <extensions>
          <ns3:TrackPointExtension>
            <ns3:atemp>31.0</ns3:atemp>
            <ns3:hr>69</ns3:hr>
          </ns3:TrackPointExtension>
        </extensions>
      </trkpt>
      <trkpt lat="36.87166322953999042510986328125" lon="-118.48367102444171905517578125">
        <ele>2382.199951171875</ele>
        <time>2021-06-28T01:46:54.000Z</time>
        <extensions>
          <ns3:TrackPointExtension>
            <ns3:atemp>31.0</ns3:atemp>
            <ns3:hr>69</ns3:hr>
          </ns3:TrackPointExtension>
        </extensions>
      </trkpt>
      <trkpt lat="36.87163288705050945281982421875" lon="-118.48368938080966472625732421875">
        <ele>2382</ele>
        <time>2021-06-28T01:46:57.000Z</time>
        <extensions>
          <ns3:TrackPointExtension>
            <ns3:atemp>31.0</ns3:atemp>
            <ns3:hr>69</ns3:hr>
          </ns3:TrackPointExtension>
        </extensions>
      </trkpt>
      <trkpt lat="36.87163121066987514495849609375" lon="-118.48370254039764404296875">
        <ele>2382</ele>
        <time>2021-06-28T01:46:58.000Z</time>
        <extensions>
          <ns3:TrackPointExtension>
            <ns3:atemp>31.0</ns3:atemp>
            <ns3:hr>69</ns3:hr>
          </ns3:TrackPointExtension>
        </extensions>
      </trkpt>
      <trkpt lat="36.8716304562985897064208984375" lon="-118.4837164543569087982177734375">
        <ele>2381.60009765625</ele>
        <time>2021-06-28T01:46:59.000Z</time>
        <extensions>
          <ns3:TrackPointExtension>
            <ns3:atemp>31.0</ns3:atemp>
            <ns3:hr>69</ns3:hr>
          </ns3:TrackPointExtension>
        </extensions>
      </trkpt>
      <trkpt lat="36.871637664735317230224609375" lon="-118.4837315417826175689697265625">
        <ele>2381.199951171875</ele>
        <time>2021-06-28T01:47:00.000Z</time>
        <extensions>
          <ns3:TrackPointExtension>
            <ns3:atemp>31.0</ns3:atemp>
            <ns3:hr>69</ns3:hr>
          </ns3:TrackPointExtension>
        </extensions>
      </trkpt>
      <trkpt lat="36.8716535903513431549072265625" lon="-118.4837711043655872344970703125">
        <ele>2380.60009765625</ele>
        <time>2021-06-28T01:47:03.000Z</time>
        <extensions>
          <ns3:TrackPointExtension>
            <ns3:atemp>31.0</ns3:atemp>
            <ns3:hr>69</ns3:hr>
          </ns3:TrackPointExtension>
        </extensions>
      </trkpt>
      <trkpt lat="36.87165803276002407073974609375" lon="-118.4837868623435497283935546875">
        <ele>2380.39990234375</ele>
        <time>2021-06-28T01:47:04.000Z</time>
        <extensions>
          <ns3:TrackPointExtension>
            <ns3:atemp>31.0</ns3:atemp>
            <ns3:hr>69</ns3:hr>
          </ns3:TrackPointExtension>
        </extensions>
      </trkpt>
      <trkpt lat="36.87166415154933929443359375" lon="-118.48383606411516666412353515625">
        <ele>2379.800048828125</ele>
        <time>2021-06-28T01:47:07.000Z</time>
        <extensions>
          <ns3:TrackPointExtension>
            <ns3:atemp>31.0</ns3:atemp>
            <ns3:hr>70</ns3:hr>
          </ns3:TrackPointExtension>
        </extensions>
      </trkpt>
      <trkpt lat="36.871657781302928924560546875" lon="-118.48386288620531558990478515625">
        <ele>2379.39990234375</ele>
        <time>2021-06-28T01:47:09.000Z</time>
        <extensions>
          <ns3:TrackPointExtension>
            <ns3:atemp>31.0</ns3:atemp>
            <ns3:hr>71</ns3:hr>
          </ns3:TrackPointExtension>
        </extensions>
      </trkpt>
      <trkpt lat="36.8716639839112758636474609375" lon="-118.48387780599296092987060546875">
        <ele>2379.39990234375</ele>
        <time>2021-06-28T01:47:10.000Z</time>
        <extensions>
          <ns3:TrackPointExtension>
            <ns3:atemp>31.0</ns3:atemp>
            <ns3:hr>71</ns3:hr>
          </ns3:TrackPointExtension>
        </extensions>
      </trkpt>
      <trkpt lat="36.8716613017022609710693359375" lon="-118.4839216433465480804443359375">
        <ele>2379</ele>
        <time>2021-06-28T01:47:13.000Z</time>
        <extensions>
          <ns3:TrackPointExtension>
            <ns3:atemp>31.0</ns3:atemp>
            <ns3:hr>74</ns3:hr>
          </ns3:TrackPointExtension>
        </extensions>
      </trkpt>
      <trkpt lat="36.87164939939975738525390625" lon="-118.48392306827008724212646484375">
        <ele>2379.199951171875</ele>
        <time>2021-06-28T01:47:14.000Z</time>
        <extensions>
          <ns3:TrackPointExtension>
            <ns3:atemp>31.0</ns3:atemp>
            <ns3:hr>74</ns3:hr>
          </ns3:TrackPointExtension>
        </extensions>
      </trkpt>
      <trkpt lat="36.87164629809558391571044921875" lon="-118.48393044434487819671630859375">
        <ele>2379.199951171875</ele>
        <time>2021-06-28T01:47:16.000Z</time>
        <extensions>
          <ns3:TrackPointExtension>
            <ns3:atemp>31.0</ns3:atemp>
            <ns3:hr>75</ns3:hr>
          </ns3:TrackPointExtension>
        </extensions>
      </trkpt>
      <trkpt lat="36.87165149487555027008056640625" lon="-118.48393798805773258209228515625">
        <ele>2379.199951171875</ele>
        <time>2021-06-28T01:47:17.000Z</time>
        <extensions>
          <ns3:TrackPointExtension>
            <ns3:atemp>31.0</ns3:atemp>
            <ns3:hr>76</ns3:hr>
          </ns3:TrackPointExtension>
        </extensions>
      </trkpt>
      <trkpt lat="36.87163808383047580718994140625" lon="-118.48398660309612751007080078125">
        <ele>2378.60009765625</ele>
        <time>2021-06-28T01:47:23.000Z</time>
        <extensions>
          <ns3:TrackPointExtension>
            <ns3:atemp>31.0</ns3:atemp>
            <ns3:hr>78</ns3:hr>
          </ns3:TrackPointExtension>
        </extensions>
      </trkpt>
      <trkpt lat="36.8716299533843994140625" lon="-118.48400185815989971160888671875">
        <ele>2377.800048828125</ele>
        <time>2021-06-28T01:47:24.000Z</time>
        <extensions>
          <ns3:TrackPointExtension>
            <ns3:atemp>31.0</ns3:atemp>
            <ns3:hr>78</ns3:hr>
          </ns3:TrackPointExtension>
        </extensions>
      </trkpt>
      <trkpt lat="36.87162618152797222137451171875" lon="-118.4840188734233379364013671875">
        <ele>2377.800048828125</ele>
        <time>2021-06-28T01:47:25.000Z</time>
        <extensions>
          <ns3:TrackPointExtension>
            <ns3:atemp>31.0</ns3:atemp>
            <ns3:hr>79</ns3:hr>
          </ns3:TrackPointExtension>
        </extensions>
      </trkpt>
      <trkpt lat="36.87161310575902462005615234375" lon="-118.484071679413318634033203125">
        <ele>2377.39990234375</ele>
        <time>2021-06-28T01:47:29.000Z</time>
        <extensions>
          <ns3:TrackPointExtension>
            <ns3:atemp>31.0</ns3:atemp>
            <ns3:hr>76</ns3:hr>
          </ns3:TrackPointExtension>
        </extensions>
      </trkpt>
      <trkpt lat="36.8715768121182918548583984375" lon="-118.48410394974052906036376953125">
        <ele>2376.800048828125</ele>
        <time>2021-06-28T01:47:33.000Z</time>
        <extensions>
          <ns3:TrackPointExtension>
            <ns3:atemp>31.0</ns3:atemp>
            <ns3:hr>74</ns3:hr>
          </ns3:TrackPointExtension>
        </extensions>
      </trkpt>
      <trkpt lat="36.87157790176570415496826171875" lon="-118.48411635495722293853759765625">
        <ele>2376.60009765625</ele>
        <time>2021-06-28T01:47:34.000Z</time>
        <extensions>
          <ns3:TrackPointExtension>
            <ns3:atemp>31.0</ns3:atemp>
            <ns3:hr>73</ns3:hr>
          </ns3:TrackPointExtension>
        </extensions>
      </trkpt>
      <trkpt lat="36.87157186679542064666748046875" lon="-118.48412557505071163177490234375">
        <ele>2376.39990234375</ele>
        <time>2021-06-28T01:47:35.000Z</time>
        <extensions>
          <ns3:TrackPointExtension>
            <ns3:atemp>31.0</ns3:atemp>
            <ns3:hr>73</ns3:hr>
          </ns3:TrackPointExtension>
        </extensions>
      </trkpt>
      <trkpt lat="36.87156893312931060791015625" lon="-118.4841526485979557037353515625">
        <ele>2376</ele>
        <time>2021-06-28T01:47:37.000Z</time>
        <extensions>
          <ns3:TrackPointExtension>
            <ns3:atemp>31.0</ns3:atemp>
            <ns3:hr>73</ns3:hr>
          </ns3:TrackPointExtension>
        </extensions>
      </trkpt>
      <trkpt lat="36.87156918458640575408935546875" lon="-118.48416186869144439697265625">
        <ele>2375.800048828125</ele>
        <time>2021-06-28T01:47:38.000Z</time>
        <extensions>
          <ns3:TrackPointExtension>
            <ns3:atemp>31.0</ns3:atemp>
            <ns3:hr>73</ns3:hr>
          </ns3:TrackPointExtension>
        </extensions>
      </trkpt>
      <trkpt lat="36.87157304026186466217041015625" lon="-118.48417486064136028289794921875">
        <ele>2375.39990234375</ele>
        <time>2021-06-28T01:47:39.000Z</time>
        <extensions>
          <ns3:TrackPointExtension>
            <ns3:atemp>31.0</ns3:atemp>
            <ns3:hr>73</ns3:hr>
          </ns3:TrackPointExtension>
        </extensions>
      </trkpt>
      <trkpt lat="36.8715788237750530242919921875" lon="-118.48418827168643474578857421875">
        <ele>2375.39990234375</ele>
        <time>2021-06-28T01:47:40.000Z</time>
        <extensions>
          <ns3:TrackPointExtension>
            <ns3:atemp>31.0</ns3:atemp>
            <ns3:hr>73</ns3:hr>
          </ns3:TrackPointExtension>
        </extensions>
      </trkpt>
      <trkpt lat="36.8715878762304782867431640625" lon="-118.48422087728977203369140625">
        <ele>2375</ele>
        <time>2021-06-28T01:47:42.000Z</time>
        <extensions>
          <ns3:TrackPointExtension>
            <ns3:atemp>31.0</ns3:atemp>
            <ns3:hr>73</ns3:hr>
          </ns3:TrackPointExtension>
        </extensions>
      </trkpt>
      <trkpt lat="36.87159080989658832550048828125" lon="-118.48425197415053844451904296875">
        <ele>2374.60009765625</ele>
        <time>2021-06-28T01:47:44.000Z</time>
        <extensions>
          <ns3:TrackPointExtension>
            <ns3:atemp>31.0</ns3:atemp>
            <ns3:hr>73</ns3:hr>
          </ns3:TrackPointExtension>
        </extensions>
      </trkpt>
      <trkpt lat="36.871586702764034271240234375" lon="-118.48426119424402713775634765625">
        <ele>2374.60009765625</ele>
        <time>2021-06-28T01:47:45.000Z</time>
        <extensions>
          <ns3:TrackPointExtension>
            <ns3:atemp>31.0</ns3:atemp>
            <ns3:hr>73</ns3:hr>
          </ns3:TrackPointExtension>
        </extensions>
      </trkpt>
      <trkpt lat="36.87155862338840961456298828125" lon="-118.484282232820987701416015625">
        <ele>2374.199951171875</ele>
        <time>2021-06-28T01:47:48.000Z</time>
        <extensions>
          <ns3:TrackPointExtension>
            <ns3:atemp>31.0</ns3:atemp>
            <ns3:hr>72</ns3:hr>
          </ns3:TrackPointExtension>
        </extensions>
      </trkpt>
      <trkpt lat="36.8715429492294788360595703125" lon="-118.48429321311414241790771484375">
        <ele>2374.199951171875</ele>
        <time>2021-06-28T01:47:49.000Z</time>
        <extensions>
          <ns3:TrackPointExtension>
            <ns3:atemp>31.0</ns3:atemp>
            <ns3:hr>72</ns3:hr>
          </ns3:TrackPointExtension>
        </extensions>
      </trkpt>
      <trkpt lat="36.8715293705463409423828125" lon="-118.48431450314819812774658203125">
        <ele>2373.800048828125</ele>
        <time>2021-06-28T01:47:51.000Z</time>
        <extensions>
          <ns3:TrackPointExtension>
            <ns3:atemp>31.0</ns3:atemp>
            <ns3:hr>72</ns3:hr>
          </ns3:TrackPointExtension>
        </extensions>
      </trkpt>
      <trkpt lat="36.87152065336704254150390625" lon="-118.48433260805904865264892578125">
        <ele>2372.800048828125</ele>
        <time>2021-06-28T01:47:53.000Z</time>
        <extensions>
          <ns3:TrackPointExtension>
            <ns3:atemp>31.0</ns3:atemp>
            <ns3:hr>72</ns3:hr>
          </ns3:TrackPointExtension>
        </extensions>
      </trkpt>
      <trkpt lat="36.87152660451829433441162109375" lon="-118.48437049426138401031494140625">
        <ele>2372.39990234375</ele>
        <time>2021-06-28T01:47:55.000Z</time>
        <extensions>
          <ns3:TrackPointExtension>
            <ns3:atemp>31.0</ns3:atemp>
            <ns3:hr>74</ns3:hr>
          </ns3:TrackPointExtension>
        </extensions>
      </trkpt>
      <trkpt lat="36.871525347232818603515625" lon="-118.484383486211299896240234375">
        <ele>2372.39990234375</ele>
        <time>2021-06-28T01:47:56.000Z</time>
        <extensions>
          <ns3:TrackPointExtension>
            <ns3:atemp>31.0</ns3:atemp>
            <ns3:hr>72</ns3:hr>
          </ns3:TrackPointExtension>
        </extensions>
      </trkpt>
      <trkpt lat="36.871508918702602386474609375" lon="-118.48445783369243144989013671875">
        <ele>2372.39990234375</ele>
        <time>2021-06-28T01:48:02.000Z</time>
        <extensions>
          <ns3:TrackPointExtension>
            <ns3:atemp>31.0</ns3:atemp>
            <ns3:hr>69</ns3:hr>
          </ns3:TrackPointExtension>
        </extensions>
      </trkpt>
      <trkpt lat="36.871504224836826324462890625" lon="-118.48446738906204700469970703125">
        <ele>2372.39990234375</ele>
        <time>2021-06-28T01:48:03.000Z</time>
        <extensions>
          <ns3:TrackPointExtension>
            <ns3:atemp>31.0</ns3:atemp>
            <ns3:hr>71</ns3:hr>
          </ns3:TrackPointExtension>
        </extensions>
      </trkpt>
      <trkpt lat="36.87149140052497386932373046875" lon="-118.48448666743934154510498046875">
        <ele>2372.199951171875</ele>
        <time>2021-06-28T01:48:05.000Z</time>
        <extensions>
          <ns3:TrackPointExtension>
            <ns3:atemp>31.0</ns3:atemp>
            <ns3:hr>71</ns3:hr>
          </ns3:TrackPointExtension>
        </extensions>
      </trkpt>
      <trkpt lat="36.87147664837539196014404296875" lon="-118.48453737795352935791015625">
        <ele>2372</ele>
        <time>2021-06-28T01:48:09.000Z</time>
        <extensions>
          <ns3:TrackPointExtension>
            <ns3:atemp>31.0</ns3:atemp>
            <ns3:hr>70</ns3:hr>
          </ns3:TrackPointExtension>
        </extensions>
      </trkpt>
      <trkpt lat="36.87145804055035114288330078125" lon="-118.484567888081073760986328125">
        <ele>2372</ele>
        <time>2021-06-28T01:48:12.000Z</time>
        <extensions>
          <ns3:TrackPointExtension>
            <ns3:atemp>30.0</ns3:atemp>
            <ns3:hr>69</ns3:hr>
          </ns3:TrackPointExtension>
        </extensions>
      </trkpt>
      <trkpt lat="36.87143255956470966339111328125" lon="-118.484599404036998748779296875">
        <ele>2371.800048828125</ele>
        <time>2021-06-28T01:48:15.000Z</time>
        <extensions>
          <ns3:TrackPointExtension>
            <ns3:atemp>31.0</ns3:atemp>
            <ns3:hr>70</ns3:hr>
          </ns3:TrackPointExtension>
        </extensions>
      </trkpt>
      <trkpt lat="36.87143658287823200225830078125" lon="-118.48461725749075412750244140625">
        <ele>2371.60009765625</ele>
        <time>2021-06-28T01:48:16.000Z</time>
        <extensions>
          <ns3:TrackPointExtension>
            <ns3:atemp>30.0</ns3:atemp>
            <ns3:hr>72</ns3:hr>
          </ns3:TrackPointExtension>
        </extensions>
      </trkpt>
      <trkpt lat="36.8714313022792339324951171875" lon="-118.48464324139058589935302734375">
        <ele>2371.39990234375</ele>
        <time>2021-06-28T01:48:18.000Z</time>
        <extensions>
          <ns3:TrackPointExtension>
            <ns3:atemp>30.0</ns3:atemp>
            <ns3:hr>72</ns3:hr>
          </ns3:TrackPointExtension>
        </extensions>
      </trkpt>
      <trkpt lat="36.8714167177677154541015625" lon="-118.48465447314083576202392578125">
        <ele>2370.800048828125</ele>
        <time>2021-06-28T01:48:20.000Z</time>
        <extensions>
          <ns3:TrackPointExtension>
            <ns3:atemp>30.0</ns3:atemp>
            <ns3:hr>72</ns3:hr>
          </ns3:TrackPointExtension>
        </extensions>
      </trkpt>
      <trkpt lat="36.8713602237403392791748046875" lon="-118.48470711149275302886962890625">
        <ele>2369.39990234375</ele>
        <time>2021-06-28T01:48:27.000Z</time>
        <extensions>
          <ns3:TrackPointExtension>
            <ns3:atemp>31.0</ns3:atemp>
            <ns3:hr>70</ns3:hr>
          </ns3:TrackPointExtension>
        </extensions>
      </trkpt>
      <trkpt lat="36.87134454958140850067138671875" lon="-118.48487793467938899993896484375">
        <ele>2368.800048828125</ele>
        <time>2021-06-28T01:48:36.000Z</time>
        <extensions>
          <ns3:TrackPointExtension>
            <ns3:atemp>30.0</ns3:atemp>
            <ns3:hr>72</ns3:hr>
          </ns3:TrackPointExtension>
        </extensions>
      </trkpt>
      <trkpt lat="36.8713411130011081695556640625" lon="-118.48488983698189258575439453125">
        <ele>2368.800048828125</ele>
        <time>2021-06-28T01:48:37.000Z</time>
        <extensions>
          <ns3:TrackPointExtension>
            <ns3:atemp>31.0</ns3:atemp>
            <ns3:hr>72</ns3:hr>
          </ns3:TrackPointExtension>
        </extensions>
      </trkpt>
      <trkpt lat="36.871310770511627197265625" lon="-118.4849162399768829345703125">
        <ele>2368.39990234375</ele>
        <time>2021-06-28T01:48:40.000Z</time>
        <extensions>
          <ns3:TrackPointExtension>
            <ns3:atemp>31.0</ns3:atemp>
            <ns3:hr>71</ns3:hr>
          </ns3:TrackPointExtension>
        </extensions>
      </trkpt>
      <trkpt lat="36.871299706399440765380859375" lon="-118.484926633536815643310546875">
        <ele>2368.199951171875</ele>
        <time>2021-06-28T01:48:41.000Z</time>
        <extensions>
          <ns3:TrackPointExtension>
            <ns3:atemp>31.0</ns3:atemp>
            <ns3:hr>71</ns3:hr>
          </ns3:TrackPointExtension>
        </extensions>
      </trkpt>
      <trkpt lat="36.87129576690495014190673828125" lon="-118.484943397343158721923828125">
        <ele>2368.199951171875</ele>
        <time>2021-06-28T01:48:42.000Z</time>
        <extensions>
          <ns3:TrackPointExtension>
            <ns3:atemp>30.0</ns3:atemp>
            <ns3:hr>72</ns3:hr>
          </ns3:TrackPointExtension>
        </extensions>
      </trkpt>
      <trkpt lat="36.87125100754201412200927734375" lon="-118.48497449420392513275146484375">
        <ele>2367.60009765625</ele>
        <time>2021-06-28T01:48:47.000Z</time>
        <extensions>
          <ns3:TrackPointExtension>
            <ns3:atemp>31.0</ns3:atemp>
            <ns3:hr>72</ns3:hr>
          </ns3:TrackPointExtension>
        </extensions>
      </trkpt>
      <trkpt lat="36.8712371774017810821533203125" lon="-118.48499427549540996551513671875">
        <ele>2367.39990234375</ele>
        <time>2021-06-28T01:48:51.000Z</time>
        <extensions>
          <ns3:TrackPointExtension>
            <ns3:atemp>31.0</ns3:atemp>
            <ns3:hr>73</ns3:hr>
          </ns3:TrackPointExtension>
        </extensions>
      </trkpt>
      <trkpt lat="36.87123307026922702789306640625" lon="-118.48500416614115238189697265625">
        <ele>2367</ele>
        <time>2021-06-28T01:48:52.000Z</time>
        <extensions>
          <ns3:TrackPointExtension>
            <ns3:atemp>31.0</ns3:atemp>
            <ns3:hr>73</ns3:hr>
          </ns3:TrackPointExtension>
        </extensions>
      </trkpt>
      <trkpt lat="36.87121882103383541107177734375" lon="-118.485044650733470916748046875">
        <ele>2366.60009765625</ele>
        <time>2021-06-28T01:48:56.000Z</time>
        <extensions>
          <ns3:TrackPointExtension>
            <ns3:atemp>31.0</ns3:atemp>
            <ns3:hr>71</ns3:hr>
          </ns3:TrackPointExtension>
        </extensions>
      </trkpt>
      <trkpt lat="36.8711994588375091552734375" lon="-118.48505772650241851806640625">
        <ele>2365.60009765625</ele>
        <time>2021-06-28T01:48:58.000Z</time>
        <extensions>
          <ns3:TrackPointExtension>
            <ns3:atemp>31.0</ns3:atemp>
            <ns3:hr>73</ns3:hr>
          </ns3:TrackPointExtension>
        </extensions>
      </trkpt>
      <trkpt lat="36.871199794113636016845703125" lon="-118.4850770048797130584716796875">
        <ele>2365.60009765625</ele>
        <time>2021-06-28T01:49:00.000Z</time>
        <extensions>
          <ns3:TrackPointExtension>
            <ns3:atemp>31.0</ns3:atemp>
            <ns3:hr>70</ns3:hr>
          </ns3:TrackPointExtension>
        </extensions>
      </trkpt>
      <trkpt lat="36.87118646688759326934814453125" lon="-118.48508127965033054351806640625">
        <ele>2365.39990234375</ele>
        <time>2021-06-28T01:49:01.000Z</time>
        <extensions>
          <ns3:TrackPointExtension>
            <ns3:atemp>31.0</ns3:atemp>
            <ns3:hr>73</ns3:hr>
          </ns3:TrackPointExtension>
        </extensions>
      </trkpt>
      <trkpt lat="36.871172301471233367919921875" lon="-118.48508127965033054351806640625">
        <ele>2365.39990234375</ele>
        <time>2021-06-28T01:49:02.000Z</time>
        <extensions>
          <ns3:TrackPointExtension>
            <ns3:atemp>31.0</ns3:atemp>
            <ns3:hr>74</ns3:hr>
          </ns3:TrackPointExtension>
        </extensions>
      </trkpt>
      <trkpt lat="36.8711707927286624908447265625" lon="-118.4850914217531681060791015625">
        <ele>2365</ele>
        <time>2021-06-28T01:49:03.000Z</time>
        <extensions>
          <ns3:TrackPointExtension>
            <ns3:atemp>31.0</ns3:atemp>
            <ns3:hr>76</ns3:hr>
          </ns3:TrackPointExtension>
        </extensions>
      </trkpt>
      <trkpt lat="36.87115243636071681976318359375" lon="-118.48515051417052745819091796875">
        <ele>2364.60009765625</ele>
        <time>2021-06-28T01:49:06.000Z</time>
        <extensions>
          <ns3:TrackPointExtension>
            <ns3:atemp>31.0</ns3:atemp>
            <ns3:hr>74</ns3:hr>
          </ns3:TrackPointExtension>
        </extensions>
      </trkpt>
      <trkpt lat="36.8711342476308345794677734375" lon="-118.485185801982879638671875">
        <ele>2364</ele>
        <time>2021-06-28T01:49:10.000Z</time>
        <extensions>
          <ns3:TrackPointExtension>
            <ns3:atemp>30.0</ns3:atemp>
            <ns3:hr>74</ns3:hr>
          </ns3:TrackPointExtension>
        </extensions>
      </trkpt>
      <trkpt lat="36.87112058512866497039794921875" lon="-118.48520231433212757110595703125">
        <ele>2363.39990234375</ele>
        <time>2021-06-28T01:49:13.000Z</time>
        <extensions>
          <ns3:TrackPointExtension>
            <ns3:atemp>30.0</ns3:atemp>
            <ns3:hr>73</ns3:hr>
          </ns3:TrackPointExtension>
        </extensions>
      </trkpt>
      <trkpt lat="36.87111295759677886962890625" lon="-118.48520583473145961761474609375">
        <ele>2363</ele>
        <time>2021-06-28T01:49:14.000Z</time>
        <extensions>
          <ns3:TrackPointExtension>
            <ns3:atemp>30.0</ns3:atemp>
            <ns3:hr>70</ns3:hr>
          </ns3:TrackPointExtension>
        </extensions>
      </trkpt>
      <trkpt lat="36.87108957208693027496337890625" lon="-118.48521505482494831085205078125">
        <ele>2362.60009765625</ele>
        <time>2021-06-28T01:49:17.000Z</time>
        <extensions>
          <ns3:TrackPointExtension>
            <ns3:atemp>30.0</ns3:atemp>
            <ns3:hr>68</ns3:hr>
          </ns3:TrackPointExtension>
        </extensions>
      </trkpt>
      <trkpt lat="36.87108077108860015869140625" lon="-118.485209606587886810302734375">
        <ele>2362.199951171875</ele>
        <time>2021-06-28T01:49:18.000Z</time>
        <extensions>
          <ns3:TrackPointExtension>
            <ns3:atemp>30.0</ns3:atemp>
            <ns3:hr>68</ns3:hr>
          </ns3:TrackPointExtension>
        </extensions>
      </trkpt>
      <trkpt lat="36.8710547871887683868408203125" lon="-118.48520818166434764862060546875">
        <ele>2361.800048828125</ele>
        <time>2021-06-28T01:49:21.000Z</time>
        <extensions>
          <ns3:TrackPointExtension>
            <ns3:atemp>30.0</ns3:atemp>
            <ns3:hr>67</ns3:hr>
          </ns3:TrackPointExtension>
        </extensions>
      </trkpt>
      <trkpt lat="36.87104531563818454742431640625" lon="-118.4852084331214427947998046875">
        <ele>2361.60009765625</ele>
        <time>2021-06-28T01:49:22.000Z</time>
        <extensions>
          <ns3:TrackPointExtension>
            <ns3:atemp>30.0</ns3:atemp>
            <ns3:hr>67</ns3:hr>
          </ns3:TrackPointExtension>
        </extensions>
      </trkpt>
      <trkpt lat="36.87103022821247577667236328125" lon="-118.4852402843534946441650390625">
        <ele>2361</ele>
        <time>2021-06-28T01:49:24.000Z</time>
        <extensions>
          <ns3:TrackPointExtension>
            <ns3:atemp>30.0</ns3:atemp>
            <ns3:hr>67</ns3:hr>
          </ns3:TrackPointExtension>
        </extensions>
      </trkpt>
      <trkpt lat="36.87103073112666606903076171875" lon="-118.4852687828242778778076171875">
        <ele>2361</ele>
        <time>2021-06-28T01:49:25.000Z</time>
        <extensions>
          <ns3:TrackPointExtension>
            <ns3:atemp>30.0</ns3:atemp>
            <ns3:hr>66</ns3:hr>
          </ns3:TrackPointExtension>
        </extensions>
      </trkpt>
      <trkpt lat="36.87103056348860263824462890625" lon="-118.4852899052202701568603515625">
        <ele>2360.39990234375</ele>
        <time>2021-06-28T01:49:26.000Z</time>
        <extensions>
          <ns3:TrackPointExtension>
            <ns3:atemp>30.0</ns3:atemp>
            <ns3:hr>66</ns3:hr>
          </ns3:TrackPointExtension>
        </extensions>
      </trkpt>
      <trkpt lat="36.87102737836539745330810546875" lon="-118.48529853858053684234619140625">
        <ele>2360.199951171875</ele>
        <time>2021-06-28T01:49:27.000Z</time>
        <extensions>
          <ns3:TrackPointExtension>
            <ns3:atemp>30.0</ns3:atemp>
            <ns3:hr>66</ns3:hr>
          </ns3:TrackPointExtension>
        </extensions>
      </trkpt>
      <trkpt lat="36.87102503143250942230224609375" lon="-118.48530440591275691986083984375">
        <ele>2359.800048828125</ele>
        <time>2021-06-28T01:49:28.000Z</time>
        <extensions>
          <ns3:TrackPointExtension>
            <ns3:atemp>30.0</ns3:atemp>
            <ns3:hr>66</ns3:hr>
          </ns3:TrackPointExtension>
        </extensions>
      </trkpt>
      <trkpt lat="36.87098882161080837249755859375" lon="-118.48533089272677898406982421875">
        <ele>2359.60009765625</ele>
        <time>2021-06-28T01:49:32.000Z</time>
        <extensions>
          <ns3:TrackPointExtension>
            <ns3:atemp>30.0</ns3:atemp>
            <ns3:hr>66</ns3:hr>
          </ns3:TrackPointExtension>
        </extensions>
      </trkpt>
      <trkpt lat="36.8709719739854335784912109375" lon="-118.48534195683896541595458984375">
        <ele>2358.800048828125</ele>
        <time>2021-06-28T01:49:34.000Z</time>
        <extensions>
          <ns3:TrackPointExtension>
            <ns3:atemp>30.0</ns3:atemp>
            <ns3:hr>68</ns3:hr>
          </ns3:TrackPointExtension>
        </extensions>
      </trkpt>
      <trkpt lat="36.8709602393209934234619140625" lon="-118.48535813391208648681640625">
        <ele>2358.60009765625</ele>
        <time>2021-06-28T01:49:36.000Z</time>
        <extensions>
          <ns3:TrackPointExtension>
            <ns3:atemp>30.0</ns3:atemp>
            <ns3:hr>71</ns3:hr>
          </ns3:TrackPointExtension>
        </extensions>
      </trkpt>
      <trkpt lat="36.87095177359879016876220703125" lon="-118.4853747300803661346435546875">
        <ele>2358.39990234375</ele>
        <time>2021-06-28T01:49:38.000Z</time>
        <extensions>
          <ns3:TrackPointExtension>
            <ns3:atemp>30.0</ns3:atemp>
            <ns3:hr>72</ns3:hr>
          </ns3:TrackPointExtension>
        </extensions>
      </trkpt>
      <trkpt lat="36.8709458224475383758544921875" lon="-118.48539811559021472930908203125">
        <ele>2357.800048828125</ele>
        <time>2021-06-28T01:49:41.000Z</time>
        <extensions>
          <ns3:TrackPointExtension>
            <ns3:atemp>30.0</ns3:atemp>
            <ns3:hr>70</ns3:hr>
          </ns3:TrackPointExtension>
        </extensions>
      </trkpt>
      <trkpt lat="36.8709428049623966217041015625" lon="-118.48540951497852802276611328125">
        <ele>2357.39990234375</ele>
        <time>2021-06-28T01:49:42.000Z</time>
        <extensions>
          <ns3:TrackPointExtension>
            <ns3:atemp>30.0</ns3:atemp>
            <ns3:hr>72</ns3:hr>
          </ns3:TrackPointExtension>
        </extensions>
      </trkpt>
      <trkpt lat="36.87092981301248073577880859375" lon="-118.4854223392903804779052734375">
        <ele>2357.199951171875</ele>
        <time>2021-06-28T01:49:44.000Z</time>
        <extensions>
          <ns3:TrackPointExtension>
            <ns3:atemp>30.0</ns3:atemp>
            <ns3:hr>72</ns3:hr>
          </ns3:TrackPointExtension>
        </extensions>
      </trkpt>
      <trkpt lat="36.87092193402349948883056640625" lon="-118.4854397736489772796630859375">
        <ele>2356.800048828125</ele>
        <time>2021-06-28T01:49:46.000Z</time>
        <extensions>
          <ns3:TrackPointExtension>
            <ns3:atemp>30.0</ns3:atemp>
            <ns3:hr>73</ns3:hr>
          </ns3:TrackPointExtension>
        </extensions>
      </trkpt>
      <trkpt lat="36.870911121368408203125" lon="-118.48546198569238185882568359375">
        <ele>2356.39990234375</ele>
        <time>2021-06-28T01:49:48.000Z</time>
        <extensions>
          <ns3:TrackPointExtension>
            <ns3:atemp>30.0</ns3:atemp>
            <ns3:hr>70</ns3:hr>
          </ns3:TrackPointExtension>
        </extensions>
      </trkpt>
      <trkpt lat="36.8709003925323486328125" lon="-118.48546751774847507476806640625">
        <ele>2355.60009765625</ele>
        <time>2021-06-28T01:49:49.000Z</time>
        <extensions>
          <ns3:TrackPointExtension>
            <ns3:atemp>30.0</ns3:atemp>
            <ns3:hr>72</ns3:hr>
          </ns3:TrackPointExtension>
        </extensions>
      </trkpt>
      <trkpt lat="36.87088639475405216217041015625" lon="-118.48546869121491909027099609375">
        <ele>2355.60009765625</ele>
        <time>2021-06-28T01:49:50.000Z</time>
        <extensions>
          <ns3:TrackPointExtension>
            <ns3:atemp>30.0</ns3:atemp>
            <ns3:hr>72</ns3:hr>
          </ns3:TrackPointExtension>
        </extensions>
      </trkpt>
      <trkpt lat="36.87086963094770908355712890625" lon="-118.48547003231942653656005859375">
        <ele>2355.39990234375</ele>
        <time>2021-06-28T01:49:51.000Z</time>
        <extensions>
          <ns3:TrackPointExtension>
            <ns3:atemp>30.0</ns3:atemp>
            <ns3:hr>69</ns3:hr>
          </ns3:TrackPointExtension>
        </extensions>
      </trkpt>
      <trkpt lat="36.87086082994937896728515625" lon="-118.4854756481945514678955078125">
        <ele>2355.39990234375</ele>
        <time>2021-06-28T01:49:52.000Z</time>
        <extensions>
          <ns3:TrackPointExtension>
            <ns3:atemp>30.0</ns3:atemp>
            <ns3:hr>73</ns3:hr>
          </ns3:TrackPointExtension>
        </extensions>
      </trkpt>
      <trkpt lat="36.87085957266390323638916015625" lon="-118.485524095594882965087890625">
        <ele>2354.800048828125</ele>
        <time>2021-06-28T01:49:56.000Z</time>
        <extensions>
          <ns3:TrackPointExtension>
            <ns3:atemp>30.0</ns3:atemp>
            <ns3:hr>72</ns3:hr>
          </ns3:TrackPointExtension>
        </extensions>
      </trkpt>
      <trkpt lat="36.8708710558712482452392578125" lon="-118.48556240089237689971923828125">
        <ele>2354.60009765625</ele>
        <time>2021-06-28T01:49:59.000Z</time>
        <extensions>
          <ns3:TrackPointExtension>
            <ns3:atemp>30.0</ns3:atemp>
            <ns3:hr>73</ns3:hr>
          </ns3:TrackPointExtension>
        </extensions>
      </trkpt>
      <trkpt lat="36.8708749115467071533203125" lon="-118.48557447083294391632080078125">
        <ele>2354.39990234375</ele>
        <time>2021-06-28T01:50:00.000Z</time>
        <extensions>
          <ns3:TrackPointExtension>
            <ns3:atemp>30.0</ns3:atemp>
            <ns3:hr>70</ns3:hr>
          </ns3:TrackPointExtension>
        </extensions>
      </trkpt>
      <trkpt lat="36.87086108140647411346435546875" lon="-118.4856181405484676361083984375">
        <ele>2353.60009765625</ele>
        <time>2021-06-28T01:50:05.000Z</time>
        <extensions>
          <ns3:TrackPointExtension>
            <ns3:atemp>30.0</ns3:atemp>
            <ns3:hr>74</ns3:hr>
          </ns3:TrackPointExtension>
        </extensions>
      </trkpt>
      <trkpt lat="36.87085990794003009796142578125" lon="-118.4856409393250942230224609375">
        <ele>2353.39990234375</ele>
        <time>2021-06-28T01:50:08.000Z</time>
        <extensions>
          <ns3:TrackPointExtension>
            <ns3:atemp>30.0</ns3:atemp>
            <ns3:hr>74</ns3:hr>
          </ns3:TrackPointExtension>
        </extensions>
      </trkpt>
      <trkpt lat="36.8708355166018009185791015625" lon="-118.48566113971173763275146484375">
        <ele>2352.60009765625</ele>
        <time>2021-06-28T01:50:11.000Z</time>
        <extensions>
          <ns3:TrackPointExtension>
            <ns3:atemp>30.0</ns3:atemp>
            <ns3:hr>77</ns3:hr>
          </ns3:TrackPointExtension>
        </extensions>
      </trkpt>
      <trkpt lat="36.8708351813256740570068359375" lon="-118.4856781549751758575439453125">
        <ele>2352.60009765625</ele>
        <time>2021-06-28T01:50:12.000Z</time>
        <extensions>
          <ns3:TrackPointExtension>
            <ns3:atemp>30.0</ns3:atemp>
            <ns3:hr>79</ns3:hr>
          </ns3:TrackPointExtension>
        </extensions>
      </trkpt>
      <trkpt lat="36.8708368577063083648681640625" lon="-118.48570321686565876007080078125">
        <ele>2352.199951171875</ele>
        <time>2021-06-28T01:50:14.000Z</time>
        <extensions>
          <ns3:TrackPointExtension>
            <ns3:atemp>30.0</ns3:atemp>
            <ns3:hr>81</ns3:hr>
          </ns3:TrackPointExtension>
        </extensions>
      </trkpt>
      <trkpt lat="36.8708355166018009185791015625" lon="-118.4857274405658245086669921875">
        <ele>2351.39990234375</ele>
        <time>2021-06-28T01:50:16.000Z</time>
        <extensions>
          <ns3:TrackPointExtension>
            <ns3:atemp>30.0</ns3:atemp>
            <ns3:hr>84</ns3:hr>
          </ns3:TrackPointExtension>
        </extensions>
      </trkpt>
      <trkpt lat="36.8708200938999652862548828125" lon="-118.4857418574392795562744140625">
        <ele>2351.199951171875</ele>
        <time>2021-06-28T01:50:18.000Z</time>
        <extensions>
          <ns3:TrackPointExtension>
            <ns3:atemp>30.0</ns3:atemp>
            <ns3:hr>85</ns3:hr>
          </ns3:TrackPointExtension>
        </extensions>
      </trkpt>
      <trkpt lat="36.87081045471131801605224609375" lon="-118.4857472218573093414306640625">
        <ele>2351</ele>
        <time>2021-06-28T01:50:19.000Z</time>
        <extensions>
          <ns3:TrackPointExtension>
            <ns3:atemp>30.0</ns3:atemp>
            <ns3:hr>84</ns3:hr>
          </ns3:TrackPointExtension>
        </extensions>
      </trkpt>
      <trkpt lat="36.87082462012767791748046875" lon="-118.4857787378132343292236328125">
        <ele>2350.800048828125</ele>
        <time>2021-06-28T01:50:21.000Z</time>
        <extensions>
          <ns3:TrackPointExtension>
            <ns3:atemp>30.0</ns3:atemp>
            <ns3:hr>82</ns3:hr>
          </ns3:TrackPointExtension>
        </extensions>
      </trkpt>
      <trkpt lat="36.8708546273410320281982421875" lon="-118.48582441918551921844482421875">
        <ele>2350.60009765625</ele>
        <time>2021-06-28T01:50:23.000Z</time>
        <extensions>
          <ns3:TrackPointExtension>
            <ns3:atemp>30.0</ns3:atemp>
            <ns3:hr>81</ns3:hr>
          </ns3:TrackPointExtension>
        </extensions>
      </trkpt>
      <trkpt lat="36.87085269950330257415771484375" lon="-118.48583682440221309661865234375">
        <ele>2349.800048828125</ele>
        <time>2021-06-28T01:50:24.000Z</time>
        <extensions>
          <ns3:TrackPointExtension>
            <ns3:atemp>30.0</ns3:atemp>
            <ns3:hr>81</ns3:hr>
          </ns3:TrackPointExtension>
        </extensions>
      </trkpt>
      <trkpt lat="36.870850436389446258544921875" lon="-118.4858575277030467987060546875">
        <ele>2349.800048828125</ele>
        <time>2021-06-28T01:50:27.000Z</time>
        <extensions>
          <ns3:TrackPointExtension>
            <ns3:atemp>30.0</ns3:atemp>
            <ns3:hr>79</ns3:hr>
          </ns3:TrackPointExtension>
        </extensions>
      </trkpt>
      <trkpt lat="36.87083845026791095733642578125" lon="-118.48587001673877239227294921875">
        <ele>2349.60009765625</ele>
        <time>2021-06-28T01:50:29.000Z</time>
        <extensions>
          <ns3:TrackPointExtension>
            <ns3:atemp>30.0</ns3:atemp>
            <ns3:hr>76</ns3:hr>
          </ns3:TrackPointExtension>
        </extensions>
      </trkpt>
      <trkpt lat="36.87080374918878078460693359375" lon="-118.485882170498371124267578125">
        <ele>2349.39990234375</ele>
        <time>2021-06-28T01:50:33.000Z</time>
        <extensions>
          <ns3:TrackPointExtension>
            <ns3:atemp>30.0</ns3:atemp>
            <ns3:hr>76</ns3:hr>
          </ns3:TrackPointExtension>
        </extensions>
      </trkpt>
      <trkpt lat="36.8707664497196674346923828125" lon="-118.4858944080770015716552734375">
        <ele>2348.800048828125</ele>
        <time>2021-06-28T01:50:37.000Z</time>
        <extensions>
          <ns3:TrackPointExtension>
            <ns3:atemp>30.0</ns3:atemp>
            <ns3:hr>75</ns3:hr>
          </ns3:TrackPointExtension>
        </extensions>
      </trkpt>
      <trkpt lat="36.87074951827526092529296875" lon="-118.48591175861656665802001953125">
        <ele>2348.60009765625</ele>
        <time>2021-06-28T01:50:39.000Z</time>
        <extensions>
          <ns3:TrackPointExtension>
            <ns3:atemp>30.0</ns3:atemp>
            <ns3:hr>74</ns3:hr>
          </ns3:TrackPointExtension>
        </extensions>
      </trkpt>
      <trkpt lat="36.87073401175439357757568359375" lon="-118.485939167439937591552734375">
        <ele>2348.39990234375</ele>
        <time>2021-06-28T01:50:42.000Z</time>
        <extensions>
          <ns3:TrackPointExtension>
            <ns3:atemp>30.0</ns3:atemp>
            <ns3:hr>77</ns3:hr>
          </ns3:TrackPointExtension>
        </extensions>
      </trkpt>
      <trkpt lat="36.87072915025055408477783203125" lon="-118.48594897426664829254150390625">
        <ele>2348.39990234375</ele>
        <time>2021-06-28T01:50:43.000Z</time>
        <extensions>
          <ns3:TrackPointExtension>
            <ns3:atemp>30.0</ns3:atemp>
            <ns3:hr>75</ns3:hr>
          </ns3:TrackPointExtension>
        </extensions>
      </trkpt>
      <trkpt lat="36.87072269618511199951171875" lon="-118.48597378470003604888916015625">
        <ele>2348.199951171875</ele>
        <time>2021-06-28T01:50:45.000Z</time>
        <extensions>
          <ns3:TrackPointExtension>
            <ns3:atemp>30.0</ns3:atemp>
            <ns3:hr>73</ns3:hr>
          </ns3:TrackPointExtension>
        </extensions>
      </trkpt>
      <trkpt lat="36.87072227708995342254638671875" lon="-118.4859872795641422271728515625">
        <ele>2348.199951171875</ele>
        <time>2021-06-28T01:50:46.000Z</time>
        <extensions>
          <ns3:TrackPointExtension>
            <ns3:atemp>30.0</ns3:atemp>
            <ns3:hr>72</ns3:hr>
          </ns3:TrackPointExtension>
        </extensions>
      </trkpt>
      <trkpt lat="36.87071490101516246795654296875" lon="-118.48602089099586009979248046875">
        <ele>2348</ele>
        <time>2021-06-28T01:50:49.000Z</time>
        <extensions>
          <ns3:TrackPointExtension>
            <ns3:atemp>30.0</ns3:atemp>
            <ns3:hr>73</ns3:hr>
          </ns3:TrackPointExtension>
        </extensions>
      </trkpt>
      <trkpt lat="36.87069998122751712799072265625" lon="-118.4860469587147235870361328125">
        <ele>2348</ele>
        <time>2021-06-28T01:50:52.000Z</time>
        <extensions>
          <ns3:TrackPointExtension>
            <ns3:atemp>30.0</ns3:atemp>
            <ns3:hr>72</ns3:hr>
          </ns3:TrackPointExtension>
        </extensions>
      </trkpt>
      <trkpt lat="36.8706943653523921966552734375" lon="-118.4860575199127197265625">
        <ele>2348</ele>
        <time>2021-06-28T01:50:53.000Z</time>
        <extensions>
          <ns3:TrackPointExtension>
            <ns3:atemp>30.0</ns3:atemp>
            <ns3:hr>72</ns3:hr>
          </ns3:TrackPointExtension>
        </extensions>
      </trkpt>
      <trkpt lat="36.87069109641015529632568359375" lon="-118.48613052628934383392333984375">
        <ele>2347.800048828125</ele>
        <time>2021-06-28T01:50:58.000Z</time>
        <extensions>
          <ns3:TrackPointExtension>
            <ns3:atemp>30.0</ns3:atemp>
            <ns3:hr>70</ns3:hr>
          </ns3:TrackPointExtension>
        </extensions>
      </trkpt>
      <trkpt lat="36.8706715665757656097412109375" lon="-118.48614863120019435882568359375">
        <ele>2347.60009765625</ele>
        <time>2021-06-28T01:51:00.000Z</time>
        <extensions>
          <ns3:TrackPointExtension>
            <ns3:atemp>30.0</ns3:atemp>
            <ns3:hr>70</ns3:hr>
          </ns3:TrackPointExtension>
        </extensions>
      </trkpt>
      <trkpt lat="36.8706078641116619110107421875" lon="-118.4861679933965206146240234375">
        <ele>2347.800048828125</ele>
        <time>2021-06-28T01:51:06.000Z</time>
        <extensions>
          <ns3:TrackPointExtension>
            <ns3:atemp>30.0</ns3:atemp>
            <ns3:hr>71</ns3:hr>
          </ns3:TrackPointExtension>
        </extensions>
      </trkpt>
      <trkpt lat="36.87061029486358165740966796875" lon="-118.48621820099651813507080078125">
        <ele>2347.39990234375</ele>
        <time>2021-06-28T01:51:11.000Z</time>
        <extensions>
          <ns3:TrackPointExtension>
            <ns3:atemp>30.0</ns3:atemp>
            <ns3:hr>70</ns3:hr>
          </ns3:TrackPointExtension>
        </extensions>
      </trkpt>
      <trkpt lat="36.87060912139713764190673828125" lon="-118.48622909747064113616943359375">
        <ele>2347.39990234375</ele>
        <time>2021-06-28T01:51:12.000Z</time>
        <extensions>
          <ns3:TrackPointExtension>
            <ns3:atemp>30.0</ns3:atemp>
            <ns3:hr>66</ns3:hr>
          </ns3:TrackPointExtension>
        </extensions>
      </trkpt>
      <trkpt lat="36.87060710974037647247314453125" lon="-118.48624267615377902984619140625">
        <ele>2347.39990234375</ele>
        <time>2021-06-28T01:51:13.000Z</time>
        <extensions>
          <ns3:TrackPointExtension>
            <ns3:atemp>30.0</ns3:atemp>
            <ns3:hr>71</ns3:hr>
          </ns3:TrackPointExtension>
        </extensions>
      </trkpt>
      <trkpt lat="36.8705944530665874481201171875" lon="-118.486301600933074951171875">
        <ele>2347.199951171875</ele>
        <time>2021-06-28T01:51:18.000Z</time>
        <extensions>
          <ns3:TrackPointExtension>
            <ns3:atemp>30.0</ns3:atemp>
            <ns3:hr>73</ns3:hr>
          </ns3:TrackPointExtension>
        </extensions>
      </trkpt>
      <trkpt lat="36.8705914355814456939697265625" lon="-118.48631442524492740631103515625">
        <ele>2347.199951171875</ele>
        <time>2021-06-28T01:51:19.000Z</time>
        <extensions>
          <ns3:TrackPointExtension>
            <ns3:atemp>30.0</ns3:atemp>
            <ns3:hr>74</ns3:hr>
          </ns3:TrackPointExtension>
        </extensions>
      </trkpt>
      <trkpt lat="36.87058766372501850128173828125" lon="-118.4863681532442569732666015625">
        <ele>2347</ele>
        <time>2021-06-28T01:51:22.000Z</time>
        <extensions>
          <ns3:TrackPointExtension>
            <ns3:atemp>30.0</ns3:atemp>
            <ns3:hr>73</ns3:hr>
          </ns3:TrackPointExtension>
        </extensions>
      </trkpt>
      <trkpt lat="36.87058112584054470062255859375" lon="-118.48638583905994892120361328125">
        <ele>2346.800048828125</ele>
        <time>2021-06-28T01:51:23.000Z</time>
        <extensions>
          <ns3:TrackPointExtension>
            <ns3:atemp>30.0</ns3:atemp>
            <ns3:hr>74</ns3:hr>
          </ns3:TrackPointExtension>
        </extensions>
      </trkpt>
      <trkpt lat="36.87058188021183013916015625" lon="-118.4864328615367412567138671875">
        <ele>2346.39990234375</ele>
        <time>2021-06-28T01:51:26.000Z</time>
        <extensions>
          <ns3:TrackPointExtension>
            <ns3:atemp>30.0</ns3:atemp>
            <ns3:hr>75</ns3:hr>
          </ns3:TrackPointExtension>
        </extensions>
      </trkpt>
      <trkpt lat="36.87057383358478546142578125" lon="-118.48644920624792575836181640625">
        <ele>2346.39990234375</ele>
        <time>2021-06-28T01:51:28.000Z</time>
        <extensions>
          <ns3:TrackPointExtension>
            <ns3:atemp>30.0</ns3:atemp>
            <ns3:hr>77</ns3:hr>
          </ns3:TrackPointExtension>
        </extensions>
      </trkpt>
      <trkpt lat="36.8705823831260204315185546875" lon="-118.48648172803223133087158203125">
        <ele>2346.199951171875</ele>
        <time>2021-06-28T01:51:31.000Z</time>
        <extensions>
          <ns3:TrackPointExtension>
            <ns3:atemp>30.0</ns3:atemp>
            <ns3:hr>77</ns3:hr>
          </ns3:TrackPointExtension>
        </extensions>
      </trkpt>
      <trkpt lat="36.87063711695373058319091796875" lon="-118.4865631163120269775390625">
        <ele>2345.800048828125</ele>
        <time>2021-06-28T01:51:38.000Z</time>
        <extensions>
          <ns3:TrackPointExtension>
            <ns3:atemp>30.0</ns3:atemp>
            <ns3:hr>75</ns3:hr>
          </ns3:TrackPointExtension>
        </extensions>
      </trkpt>
      <trkpt lat="36.87064616940915584564208984375" lon="-118.48657795228064060211181640625">
        <ele>2345.800048828125</ele>
        <time>2021-06-28T01:51:39.000Z</time>
        <extensions>
          <ns3:TrackPointExtension>
            <ns3:atemp>30.0</ns3:atemp>
            <ns3:hr>74</ns3:hr>
          </ns3:TrackPointExtension>
        </extensions>
      </trkpt>
      <trkpt lat="36.87065555714070796966552734375" lon="-118.4865951351821422576904296875">
        <ele>2345.199951171875</ele>
        <time>2021-06-28T01:51:40.000Z</time>
        <extensions>
          <ns3:TrackPointExtension>
            <ns3:atemp>30.0</ns3:atemp>
            <ns3:hr>76</ns3:hr>
          </ns3:TrackPointExtension>
        </extensions>
      </trkpt>
      <trkpt lat="36.8706983886659145355224609375" lon="-118.4866645373404026031494140625">
        <ele>2344.60009765625</ele>
        <time>2021-06-28T01:51:45.000Z</time>
        <extensions>
          <ns3:TrackPointExtension>
            <ns3:atemp>30.0</ns3:atemp>
            <ns3:hr>78</ns3:hr>
          </ns3:TrackPointExtension>
        </extensions>
      </trkpt>
      <trkpt lat="36.870699226856231689453125" lon="-118.486709631979465484619140625">
        <ele>2344.199951171875</ele>
        <time>2021-06-28T01:51:49.000Z</time>
        <extensions>
          <ns3:TrackPointExtension>
            <ns3:atemp>30.0</ns3:atemp>
            <ns3:hr>78</ns3:hr>
          </ns3:TrackPointExtension>
        </extensions>
      </trkpt>
      <trkpt lat="36.87070869840681552886962890625" lon="-118.48676369525492191314697265625">
        <ele>2343.60009765625</ele>
        <time>2021-06-28T01:51:52.000Z</time>
        <extensions>
          <ns3:TrackPointExtension>
            <ns3:atemp>30.0</ns3:atemp>
            <ns3:hr>77</ns3:hr>
          </ns3:TrackPointExtension>
        </extensions>
      </trkpt>
      <trkpt lat="36.87071288935840129852294921875" lon="-118.48685120232403278350830078125">
        <ele>2343.199951171875</ele>
        <time>2021-06-28T01:51:57.000Z</time>
        <extensions>
          <ns3:TrackPointExtension>
            <ns3:atemp>30.0</ns3:atemp>
            <ns3:hr>75</ns3:hr>
          </ns3:TrackPointExtension>
        </extensions>
      </trkpt>
      <trkpt lat="36.8707158230245113372802734375" lon="-118.48690652288496494293212890625">
        <ele>2343.199951171875</ele>
        <time>2021-06-28T01:52:01.000Z</time>
        <extensions>
          <ns3:TrackPointExtension>
            <ns3:atemp>30.0</ns3:atemp>
            <ns3:hr>73</ns3:hr>
          </ns3:TrackPointExtension>
        </extensions>
      </trkpt>
      <trkpt lat="36.87070651911199092864990234375" lon="-118.48691272549331188201904296875">
        <ele>2343.199951171875</ele>
        <time>2021-06-28T01:52:02.000Z</time>
        <extensions>
          <ns3:TrackPointExtension>
            <ns3:atemp>30.0</ns3:atemp>
            <ns3:hr>72</ns3:hr>
          </ns3:TrackPointExtension>
        </extensions>
      </trkpt>
      <trkpt lat="36.87070618383586406707763671875" lon="-118.486926555633544921875">
        <ele>2343.199951171875</ele>
        <time>2021-06-28T01:52:03.000Z</time>
        <extensions>
          <ns3:TrackPointExtension>
            <ns3:atemp>30.0</ns3:atemp>
            <ns3:hr>73</ns3:hr>
          </ns3:TrackPointExtension>
        </extensions>
      </trkpt>
      <trkpt lat="36.8706936948001384735107421875" lon="-118.4869622625410556793212890625">
        <ele>2343</ele>
        <time>2021-06-28T01:52:05.000Z</time>
        <extensions>
          <ns3:TrackPointExtension>
            <ns3:atemp>30.0</ns3:atemp>
            <ns3:hr>72</ns3:hr>
          </ns3:TrackPointExtension>
        </extensions>
      </trkpt>
      <trkpt lat="36.8706715665757656097412109375" lon="-118.48699562251567840576171875">
        <ele>2342.800048828125</ele>
        <time>2021-06-28T01:52:07.000Z</time>
        <extensions>
          <ns3:TrackPointExtension>
            <ns3:atemp>30.0</ns3:atemp>
            <ns3:hr>71</ns3:hr>
          </ns3:TrackPointExtension>
        </extensions>
      </trkpt>
      <trkpt lat="36.87068103812634944915771484375" lon="-118.48704390227794647216796875">
        <ele>2342.60009765625</ele>
        <time>2021-06-28T01:52:10.000Z</time>
        <extensions>
          <ns3:TrackPointExtension>
            <ns3:atemp>30.0</ns3:atemp>
            <ns3:hr>70</ns3:hr>
          </ns3:TrackPointExtension>
        </extensions>
      </trkpt>
      <trkpt lat="36.870684809982776641845703125" lon="-118.487055636942386627197265625">
        <ele>2342.60009765625</ele>
        <time>2021-06-28T01:52:11.000Z</time>
        <extensions>
          <ns3:TrackPointExtension>
            <ns3:atemp>30.0</ns3:atemp>
            <ns3:hr>70</ns3:hr>
          </ns3:TrackPointExtension>
        </extensions>
      </trkpt>
      <trkpt lat="36.87068514525890350341796875" lon="-118.48707181401550769805908203125">
        <ele>2342.39990234375</ele>
        <time>2021-06-28T01:52:13.000Z</time>
        <extensions>
          <ns3:TrackPointExtension>
            <ns3:atemp>30.0</ns3:atemp>
            <ns3:hr>69</ns3:hr>
          </ns3:TrackPointExtension>
        </extensions>
      </trkpt>
      <trkpt lat="36.87068707309663295745849609375" lon="-118.48708069883286952972412109375">
        <ele>2342</ele>
        <time>2021-06-28T01:52:14.000Z</time>
        <extensions>
          <ns3:TrackPointExtension>
            <ns3:atemp>30.0</ns3:atemp>
            <ns3:hr>70</ns3:hr>
          </ns3:TrackPointExtension>
        </extensions>
      </trkpt>
      <trkpt lat="36.87069210223853588104248046875" lon="-118.48710400052368640899658203125">
        <ele>2342</ele>
        <time>2021-06-28T01:52:16.000Z</time>
        <extensions>
          <ns3:TrackPointExtension>
            <ns3:atemp>30.0</ns3:atemp>
            <ns3:hr>69</ns3:hr>
          </ns3:TrackPointExtension>
        </extensions>
      </trkpt>
      <trkpt lat="36.87068673782050609588623046875" lon="-118.48712244071066379547119140625">
        <ele>2341.60009765625</ele>
        <time>2021-06-28T01:52:18.000Z</time>
        <extensions>
          <ns3:TrackPointExtension>
            <ns3:atemp>30.0</ns3:atemp>
            <ns3:hr>69</ns3:hr>
          </ns3:TrackPointExtension>
        </extensions>
      </trkpt>
      <trkpt lat="36.870660670101642608642578125" lon="-118.487152867019176483154296875">
        <ele>2340.800048828125</ele>
        <time>2021-06-28T01:52:21.000Z</time>
        <extensions>
          <ns3:TrackPointExtension>
            <ns3:atemp>30.0</ns3:atemp>
            <ns3:hr>69</ns3:hr>
          </ns3:TrackPointExtension>
        </extensions>
      </trkpt>
      <trkpt lat="36.8706571497023105621337890625" lon="-118.48718463443219661712646484375">
        <ele>2340.800048828125</ele>
        <time>2021-06-28T01:52:23.000Z</time>
        <extensions>
          <ns3:TrackPointExtension>
            <ns3:atemp>30.0</ns3:atemp>
            <ns3:hr>69</ns3:hr>
          </ns3:TrackPointExtension>
        </extensions>
      </trkpt>
      <trkpt lat="36.870678104460239410400390625" lon="-118.48724548704922199249267578125">
        <ele>2340.800048828125</ele>
        <time>2021-06-28T01:52:26.000Z</time>
        <extensions>
          <ns3:TrackPointExtension>
            <ns3:atemp>30.0</ns3:atemp>
            <ns3:hr>69</ns3:hr>
          </ns3:TrackPointExtension>
        </extensions>
      </trkpt>
      <trkpt lat="36.87068506143987178802490234375" lon="-118.48725713789463043212890625">
        <ele>2340.60009765625</ele>
        <time>2021-06-28T01:52:27.000Z</time>
        <extensions>
          <ns3:TrackPointExtension>
            <ns3:atemp>30.0</ns3:atemp>
            <ns3:hr>69</ns3:hr>
          </ns3:TrackPointExtension>
        </extensions>
      </trkpt>
      <trkpt lat="36.87066947109997272491455078125" lon="-118.4872871451079845428466796875">
        <ele>2340.39990234375</ele>
        <time>2021-06-28T01:52:30.000Z</time>
        <extensions>
          <ns3:TrackPointExtension>
            <ns3:atemp>30.0</ns3:atemp>
            <ns3:hr>70</ns3:hr>
          </ns3:TrackPointExtension>
        </extensions>
      </trkpt>
      <trkpt lat="36.8706469237804412841796875" lon="-118.48731656558811664581298828125">
        <ele>2339.800048828125</ele>
        <time>2021-06-28T01:52:33.000Z</time>
        <extensions>
          <ns3:TrackPointExtension>
            <ns3:atemp>30.0</ns3:atemp>
            <ns3:hr>70</ns3:hr>
          </ns3:TrackPointExtension>
        </extensions>
      </trkpt>
      <trkpt lat="36.870645247399806976318359375" lon="-118.48732712678611278533935546875">
        <ele>2339.800048828125</ele>
        <time>2021-06-28T01:52:34.000Z</time>
        <extensions>
          <ns3:TrackPointExtension>
            <ns3:atemp>30.0</ns3:atemp>
            <ns3:hr>71</ns3:hr>
          </ns3:TrackPointExtension>
        </extensions>
      </trkpt>
      <trkpt lat="36.870653294026851654052734375" lon="-118.4873488359153270721435546875">
        <ele>2339</ele>
        <time>2021-06-28T01:52:36.000Z</time>
        <extensions>
          <ns3:TrackPointExtension>
            <ns3:atemp>30.0</ns3:atemp>
            <ns3:hr>71</ns3:hr>
          </ns3:TrackPointExtension>
        </extensions>
      </trkpt>
      <trkpt lat="36.8706708960235118865966796875" lon="-118.487377166748046875">
        <ele>2338.60009765625</ele>
        <time>2021-06-28T01:52:38.000Z</time>
        <extensions>
          <ns3:TrackPointExtension>
            <ns3:atemp>30.0</ns3:atemp>
            <ns3:hr>71</ns3:hr>
          </ns3:TrackPointExtension>
        </extensions>
      </trkpt>
      <trkpt lat="36.870672404766082763671875" lon="-118.4873865544795989990234375">
        <ele>2338.60009765625</ele>
        <time>2021-06-28T01:52:39.000Z</time>
        <extensions>
          <ns3:TrackPointExtension>
            <ns3:atemp>30.0</ns3:atemp>
            <ns3:hr>73</ns3:hr>
          </ns3:TrackPointExtension>
        </extensions>
      </trkpt>
      <trkpt lat="36.8706987239420413970947265625" lon="-118.48743743263185024261474609375">
        <ele>2337.60009765625</ele>
        <time>2021-06-28T01:52:44.000Z</time>
        <extensions>
          <ns3:TrackPointExtension>
            <ns3:atemp>30.0</ns3:atemp>
            <ns3:hr>77</ns3:hr>
          </ns3:TrackPointExtension>
        </extensions>
      </trkpt>
      <trkpt lat="36.87070190906524658203125" lon="-118.4874494187533855438232421875">
        <ele>2337.60009765625</ele>
        <time>2021-06-28T01:52:45.000Z</time>
        <extensions>
          <ns3:TrackPointExtension>
            <ns3:atemp>30.0</ns3:atemp>
            <ns3:hr>74</ns3:hr>
          </ns3:TrackPointExtension>
        </extensions>
      </trkpt>
      <trkpt lat="36.87071003951132297515869140625" lon="-118.48748571239411830902099609375">
        <ele>2337.60009765625</ele>
        <time>2021-06-28T01:52:47.000Z</time>
        <extensions>
          <ns3:TrackPointExtension>
            <ns3:atemp>30.0</ns3:atemp>
            <ns3:hr>72</ns3:hr>
          </ns3:TrackPointExtension>
        </extensions>
      </trkpt>
      <trkpt lat="36.87070886604487895965576171875" lon="-118.4875282086431980133056640625">
        <ele>2337.60009765625</ele>
        <time>2021-06-28T01:52:50.000Z</time>
        <extensions>
          <ns3:TrackPointExtension>
            <ns3:atemp>30.0</ns3:atemp>
            <ns3:hr>76</ns3:hr>
          </ns3:TrackPointExtension>
        </extensions>
      </trkpt>
      <trkpt lat="36.870703585445880889892578125" lon="-118.4875456430017948150634765625">
        <ele>2337.39990234375</ele>
        <time>2021-06-28T01:52:51.000Z</time>
        <extensions>
          <ns3:TrackPointExtension>
            <ns3:atemp>30.0</ns3:atemp>
            <ns3:hr>79</ns3:hr>
          </ns3:TrackPointExtension>
        </extensions>
      </trkpt>
      <trkpt lat="36.870702914893627166748046875" lon="-118.48756425082683563232421875">
        <ele>2337.39990234375</ele>
        <time>2021-06-28T01:52:52.000Z</time>
        <extensions>
          <ns3:TrackPointExtension>
            <ns3:atemp>30.0</ns3:atemp>
            <ns3:hr>79</ns3:hr>
          </ns3:TrackPointExtension>
        </extensions>
      </trkpt>
      <trkpt lat="36.870702914893627166748046875" lon="-118.4875815175473690032958984375">
        <ele>2337.39990234375</ele>
        <time>2021-06-28T01:52:53.000Z</time>
        <extensions>
          <ns3:TrackPointExtension>
            <ns3:atemp>30.0</ns3:atemp>
            <ns3:hr>76</ns3:hr>
          </ns3:TrackPointExtension>
        </extensions>
      </trkpt>
      <trkpt lat="36.87069813720881938934326171875" lon="-118.48759685643017292022705078125">
        <ele>2337.199951171875</ele>
        <time>2021-06-28T01:52:54.000Z</time>
        <extensions>
          <ns3:TrackPointExtension>
            <ns3:atemp>30.0</ns3:atemp>
            <ns3:hr>76</ns3:hr>
          </ns3:TrackPointExtension>
        </extensions>
      </trkpt>
      <trkpt lat="36.8706710636615753173828125" lon="-118.4876308031380176544189453125">
        <ele>2337</ele>
        <time>2021-06-28T01:52:57.000Z</time>
        <extensions>
          <ns3:TrackPointExtension>
            <ns3:atemp>30.0</ns3:atemp>
            <ns3:hr>77</ns3:hr>
          </ns3:TrackPointExtension>
        </extensions>
      </trkpt>
      <trkpt lat="36.8706625141203403472900390625" lon="-118.48764614202082157135009765625">
        <ele>2336.800048828125</ele>
        <time>2021-06-28T01:52:58.000Z</time>
        <extensions>
          <ns3:TrackPointExtension>
            <ns3:atemp>30.0</ns3:atemp>
            <ns3:hr>74</ns3:hr>
          </ns3:TrackPointExtension>
        </extensions>
      </trkpt>
      <trkpt lat="36.87065773643553256988525390625" lon="-118.48766005598008632659912109375">
        <ele>2336.800048828125</ele>
        <time>2021-06-28T01:52:59.000Z</time>
        <extensions>
          <ns3:TrackPointExtension>
            <ns3:atemp>30.0</ns3:atemp>
            <ns3:hr>78</ns3:hr>
          </ns3:TrackPointExtension>
        </extensions>
      </trkpt>
      <trkpt lat="36.870651282370090484619140625" lon="-118.48767313174903392791748046875">
        <ele>2336.800048828125</ele>
        <time>2021-06-28T01:53:00.000Z</time>
        <extensions>
          <ns3:TrackPointExtension>
            <ns3:atemp>30.0</ns3:atemp>
            <ns3:hr>78</ns3:hr>
          </ns3:TrackPointExtension>
        </extensions>
      </trkpt>
      <trkpt lat="36.87065270729362964630126953125" lon="-118.4877075813710689544677734375">
        <ele>2336.60009765625</ele>
        <time>2021-06-28T01:53:02.000Z</time>
        <extensions>
          <ns3:TrackPointExtension>
            <ns3:atemp>30.0</ns3:atemp>
            <ns3:hr>79</ns3:hr>
          </ns3:TrackPointExtension>
        </extensions>
      </trkpt>
      <trkpt lat="36.87064281664788722991943359375" lon="-118.48773146979510784149169921875">
        <ele>2336.60009765625</ele>
        <time>2021-06-28T01:53:04.000Z</time>
        <extensions>
          <ns3:TrackPointExtension>
            <ns3:atemp>30.0</ns3:atemp>
            <ns3:hr>78</ns3:hr>
          </ns3:TrackPointExtension>
        </extensions>
      </trkpt>
      <trkpt lat="36.87062554992735385894775390625" lon="-118.48777371458709239959716796875">
        <ele>2336.60009765625</ele>
        <time>2021-06-28T01:53:08.000Z</time>
        <extensions>
          <ns3:TrackPointExtension>
            <ns3:atemp>30.0</ns3:atemp>
            <ns3:hr>77</ns3:hr>
          </ns3:TrackPointExtension>
        </extensions>
      </trkpt>
      <trkpt lat="36.87061951495707035064697265625" lon="-118.48778360523283481597900390625">
        <ele>2336.39990234375</ele>
        <time>2021-06-28T01:53:09.000Z</time>
        <extensions>
          <ns3:TrackPointExtension>
            <ns3:atemp>30.0</ns3:atemp>
            <ns3:hr>75</ns3:hr>
          </ns3:TrackPointExtension>
        </extensions>
      </trkpt>
      <trkpt lat="36.8706075288355350494384765625" lon="-118.4878452122211456298828125">
        <ele>2336.39990234375</ele>
        <time>2021-06-28T01:53:14.000Z</time>
        <extensions>
          <ns3:TrackPointExtension>
            <ns3:atemp>30.0</ns3:atemp>
            <ns3:hr>75</ns3:hr>
          </ns3:TrackPointExtension>
        </extensions>
      </trkpt>
      <trkpt lat="36.87058632262051105499267578125" lon="-118.48786675371229648590087890625">
        <ele>2336.39990234375</ele>
        <time>2021-06-28T01:53:16.000Z</time>
        <extensions>
          <ns3:TrackPointExtension>
            <ns3:atemp>30.0</ns3:atemp>
            <ns3:hr>76</ns3:hr>
          </ns3:TrackPointExtension>
        </extensions>
      </trkpt>
      <trkpt lat="36.8705683015286922454833984375" lon="-118.48792903125286102294921875">
        <ele>2336.199951171875</ele>
        <time>2021-06-28T01:53:20.000Z</time>
        <extensions>
          <ns3:TrackPointExtension>
            <ns3:atemp>30.0</ns3:atemp>
            <ns3:hr>77</ns3:hr>
          </ns3:TrackPointExtension>
        </extensions>
      </trkpt>
      <trkpt lat="36.87056570313870906829833984375" lon="-118.488019891083240509033203125">
        <ele>2336</ele>
        <time>2021-06-28T01:53:25.000Z</time>
        <extensions>
          <ns3:TrackPointExtension>
            <ns3:atemp>30.0</ns3:atemp>
            <ns3:hr>78</ns3:hr>
          </ns3:TrackPointExtension>
        </extensions>
      </trkpt>
      <trkpt lat="36.87056872062385082244873046875" lon="-118.48804528824985027313232421875">
        <ele>2336</ele>
        <time>2021-06-28T01:53:27.000Z</time>
        <extensions>
          <ns3:TrackPointExtension>
            <ns3:atemp>30.0</ns3:atemp>
            <ns3:hr>77</ns3:hr>
          </ns3:TrackPointExtension>
        </extensions>
      </trkpt>
      <trkpt lat="36.87055103480815887451171875" lon="-118.48808703012764453887939453125">
        <ele>2335.800048828125</ele>
        <time>2021-06-28T01:53:30.000Z</time>
        <extensions>
          <ns3:TrackPointExtension>
            <ns3:atemp>30.0</ns3:atemp>
            <ns3:hr>76</ns3:hr>
          </ns3:TrackPointExtension>
        </extensions>
      </trkpt>
      <trkpt lat="36.870549023151397705078125" lon="-118.4881322085857391357421875">
        <ele>2335.39990234375</ele>
        <time>2021-06-28T01:53:32.000Z</time>
        <extensions>
          <ns3:TrackPointExtension>
            <ns3:atemp>30.0</ns3:atemp>
            <ns3:hr>78</ns3:hr>
          </ns3:TrackPointExtension>
        </extensions>
      </trkpt>
      <trkpt lat="36.87055296264588832855224609375" lon="-118.4881558455526828765869140625">
        <ele>2335.39990234375</ele>
        <time>2021-06-28T01:53:33.000Z</time>
        <extensions>
          <ns3:TrackPointExtension>
            <ns3:atemp>30.0</ns3:atemp>
            <ns3:hr>78</ns3:hr>
          </ns3:TrackPointExtension>
        </extensions>
      </trkpt>
      <trkpt lat="36.8705612607300281524658203125" lon="-118.48818325437605381011962890625">
        <ele>2335.199951171875</ele>
        <time>2021-06-28T01:53:34.000Z</time>
        <extensions>
          <ns3:TrackPointExtension>
            <ns3:atemp>30.0</ns3:atemp>
            <ns3:hr>81</ns3:hr>
          </ns3:TrackPointExtension>
        </extensions>
      </trkpt>
      <trkpt lat="36.8705481849610805511474609375" lon="-118.4882185421884059906005859375">
        <ele>2335.199951171875</ele>
        <time>2021-06-28T01:53:37.000Z</time>
        <extensions>
          <ns3:TrackPointExtension>
            <ns3:atemp>30.0</ns3:atemp>
            <ns3:hr>79</ns3:hr>
          </ns3:TrackPointExtension>
        </extensions>
      </trkpt>
      <trkpt lat="36.87053334899246692657470703125" lon="-118.48822583444416522979736328125">
        <ele>2335</ele>
        <time>2021-06-28T01:53:38.000Z</time>
        <extensions>
          <ns3:TrackPointExtension>
            <ns3:atemp>30.0</ns3:atemp>
            <ns3:hr>81</ns3:hr>
          </ns3:TrackPointExtension>
        </extensions>
      </trkpt>
      <trkpt lat="36.87050803564488887786865234375" lon="-118.4882353059947490692138671875">
        <ele>2335</ele>
        <time>2021-06-28T01:53:39.000Z</time>
        <extensions>
          <ns3:TrackPointExtension>
            <ns3:atemp>30.0</ns3:atemp>
            <ns3:hr>78</ns3:hr>
          </ns3:TrackPointExtension>
        </extensions>
      </trkpt>
      <trkpt lat="36.87049227766692638397216796875" lon="-118.48825299181044101715087890625">
        <ele>2335</ele>
        <time>2021-06-28T01:53:40.000Z</time>
        <extensions>
          <ns3:TrackPointExtension>
            <ns3:atemp>30.0</ns3:atemp>
            <ns3:hr>77</ns3:hr>
          </ns3:TrackPointExtension>
        </extensions>
      </trkpt>
      <trkpt lat="36.87050065957009792327880859375" lon="-118.488298170268535614013671875">
        <ele>2335</ele>
        <time>2021-06-28T01:53:43.000Z</time>
        <extensions>
          <ns3:TrackPointExtension>
            <ns3:atemp>30.0</ns3:atemp>
            <ns3:hr>79</ns3:hr>
          </ns3:TrackPointExtension>
        </extensions>
      </trkpt>
      <trkpt lat="36.87050116248428821563720703125" lon="-118.48834150470793247222900390625">
        <ele>2335</ele>
        <time>2021-06-28T01:53:48.000Z</time>
        <extensions>
          <ns3:TrackPointExtension>
            <ns3:atemp>30.0</ns3:atemp>
            <ns3:hr>81</ns3:hr>
          </ns3:TrackPointExtension>
        </extensions>
      </trkpt>
      <trkpt lat="36.8704704008996486663818359375" lon="-118.4883436001837253570556640625">
        <ele>2335.39990234375</ele>
        <time>2021-06-28T01:53:52.000Z</time>
        <extensions>
          <ns3:TrackPointExtension>
            <ns3:atemp>30.0</ns3:atemp>
            <ns3:hr>79</ns3:hr>
          </ns3:TrackPointExtension>
        </extensions>
      </trkpt>
      <trkpt lat="36.87045724131166934967041015625" lon="-118.48834016360342502593994140625">
        <ele>2335.39990234375</ele>
        <time>2021-06-28T01:53:53.000Z</time>
        <extensions>
          <ns3:TrackPointExtension>
            <ns3:atemp>30.0</ns3:atemp>
            <ns3:hr>81</ns3:hr>
          </ns3:TrackPointExtension>
        </extensions>
      </trkpt>
      <trkpt lat="36.87043125741183757781982421875" lon="-118.4883385710418224334716796875">
        <ele>2335.39990234375</ele>
        <time>2021-06-28T01:53:55.000Z</time>
        <extensions>
          <ns3:TrackPointExtension>
            <ns3:atemp>30.0</ns3:atemp>
            <ns3:hr>79</ns3:hr>
          </ns3:TrackPointExtension>
        </extensions>
      </trkpt>
      <trkpt lat="36.87042488716542720794677734375" lon="-118.48836028017103672027587890625">
        <ele>2335.39990234375</ele>
        <time>2021-06-28T01:53:57.000Z</time>
        <extensions>
          <ns3:TrackPointExtension>
            <ns3:atemp>30.0</ns3:atemp>
            <ns3:hr>80</ns3:hr>
          </ns3:TrackPointExtension>
        </extensions>
      </trkpt>
      <trkpt lat="36.870417259633541107177734375" lon="-118.48836983554065227508544921875">
        <ele>2335.39990234375</ele>
        <time>2021-06-28T01:53:58.000Z</time>
        <extensions>
          <ns3:TrackPointExtension>
            <ns3:atemp>30.0</ns3:atemp>
            <ns3:hr>80</ns3:hr>
          </ns3:TrackPointExtension>
        </extensions>
      </trkpt>
      <trkpt lat="36.87040041200816631317138671875" lon="-118.48843823187053203582763671875">
        <ele>2336.39990234375</ele>
        <time>2021-06-28T01:54:04.000Z</time>
        <extensions>
          <ns3:TrackPointExtension>
            <ns3:atemp>30.0</ns3:atemp>
            <ns3:hr>80</ns3:hr>
          </ns3:TrackPointExtension>
        </extensions>
      </trkpt>
      <trkpt lat="36.870396472513675689697265625" lon="-118.48844544030725955963134765625">
        <ele>2336.60009765625</ele>
        <time>2021-06-28T01:54:05.000Z</time>
        <extensions>
          <ns3:TrackPointExtension>
            <ns3:atemp>30.0</ns3:atemp>
            <ns3:hr>81</ns3:hr>
          </ns3:TrackPointExtension>
        </extensions>
      </trkpt>
      <trkpt lat="36.8703867495059967041015625" lon="-118.48846941255033016204833984375">
        <ele>2337.39990234375</ele>
        <time>2021-06-28T01:54:08.000Z</time>
        <extensions>
          <ns3:TrackPointExtension>
            <ns3:atemp>30.0</ns3:atemp>
            <ns3:hr>85</ns3:hr>
          </ns3:TrackPointExtension>
        </extensions>
      </trkpt>
      <trkpt lat="36.8703840672969818115234375" lon="-118.4884797222912311553955078125">
        <ele>2337.60009765625</ele>
        <time>2021-06-28T01:54:09.000Z</time>
        <extensions>
          <ns3:TrackPointExtension>
            <ns3:atemp>30.0</ns3:atemp>
            <ns3:hr>87</ns3:hr>
          </ns3:TrackPointExtension>
        </extensions>
      </trkpt>
      <trkpt lat="36.87038314528763294219970703125" lon="-118.48848751746118068695068359375">
        <ele>2337.800048828125</ele>
        <time>2021-06-28T01:54:10.000Z</time>
        <extensions>
          <ns3:TrackPointExtension>
            <ns3:atemp>30.0</ns3:atemp>
            <ns3:hr>87</ns3:hr>
          </ns3:TrackPointExtension>
        </extensions>
      </trkpt>
      <trkpt lat="36.87039412558078765869140625" lon="-118.4885264933109283447265625">
        <ele>2338</ele>
        <time>2021-06-28T01:54:13.000Z</time>
        <extensions>
          <ns3:TrackPointExtension>
            <ns3:atemp>30.0</ns3:atemp>
            <ns3:hr>91</ns3:hr>
          </ns3:TrackPointExtension>
        </extensions>
      </trkpt>
      <trkpt lat="36.87039320357143878936767578125" lon="-118.488565385341644287109375">
        <ele>2338</ele>
        <time>2021-06-28T01:54:15.000Z</time>
        <extensions>
          <ns3:TrackPointExtension>
            <ns3:atemp>30.0</ns3:atemp>
            <ns3:hr>93</ns3:hr>
          </ns3:TrackPointExtension>
        </extensions>
      </trkpt>
      <trkpt lat="36.870386414229869842529296875" lon="-118.48857670091092586517333984375">
        <ele>2338.199951171875</ele>
        <time>2021-06-28T01:54:16.000Z</time>
        <extensions>
          <ns3:TrackPointExtension>
            <ns3:atemp>30.0</ns3:atemp>
            <ns3:hr>93</ns3:hr>
          </ns3:TrackPointExtension>
        </extensions>
      </trkpt>
      <trkpt lat="36.87036252580583095550537109375" lon="-118.48868130706250667572021484375">
        <ele>2338.60009765625</ele>
        <time>2021-06-28T01:54:21.000Z</time>
        <extensions>
          <ns3:TrackPointExtension>
            <ns3:atemp>30.0</ns3:atemp>
            <ns3:hr>93</ns3:hr>
          </ns3:TrackPointExtension>
        </extensions>
      </trkpt>
      <trkpt lat="36.87035531736910343170166015625" lon="-118.48870796151459217071533203125">
        <ele>2338.60009765625</ele>
        <time>2021-06-28T01:54:23.000Z</time>
        <extensions>
          <ns3:TrackPointExtension>
            <ns3:atemp>30.0</ns3:atemp>
            <ns3:hr>93</ns3:hr>
          </ns3:TrackPointExtension>
        </extensions>
      </trkpt>
      <trkpt lat="36.8703490309417247772216796875" lon="-118.48871081136167049407958984375">
        <ele>2339</ele>
        <time>2021-06-28T01:54:24.000Z</time>
        <extensions>
          <ns3:TrackPointExtension>
            <ns3:atemp>30.0</ns3:atemp>
            <ns3:hr>93</ns3:hr>
          </ns3:TrackPointExtension>
        </extensions>
      </trkpt>
      <trkpt lat="36.87031768262386322021484375" lon="-118.48870955407619476318359375">
        <ele>2339.60009765625</ele>
        <time>2021-06-28T01:54:27.000Z</time>
        <extensions>
          <ns3:TrackPointExtension>
            <ns3:atemp>30.0</ns3:atemp>
            <ns3:hr>96</ns3:hr>
          </ns3:TrackPointExtension>
        </extensions>
      </trkpt>
      <trkpt lat="36.87031097710132598876953125" lon="-118.48871223628520965576171875">
        <ele>2339.60009765625</ele>
        <time>2021-06-28T01:54:28.000Z</time>
        <extensions>
          <ns3:TrackPointExtension>
            <ns3:atemp>30.0</ns3:atemp>
            <ns3:hr>96</ns3:hr>
          </ns3:TrackPointExtension>
        </extensions>
      </trkpt>
      <trkpt lat="36.87030066736042499542236328125" lon="-118.4887107275426387786865234375">
        <ele>2340</ele>
        <time>2021-06-28T01:54:29.000Z</time>
        <extensions>
          <ns3:TrackPointExtension>
            <ns3:atemp>30.0</ns3:atemp>
            <ns3:hr>97</ns3:hr>
          </ns3:TrackPointExtension>
        </extensions>
      </trkpt>
      <trkpt lat="36.87027350999414920806884765625" lon="-118.48874215967953205108642578125">
        <ele>2340.39990234375</ele>
        <time>2021-06-28T01:54:33.000Z</time>
        <extensions>
          <ns3:TrackPointExtension>
            <ns3:atemp>30.0</ns3:atemp>
            <ns3:hr>96</ns3:hr>
          </ns3:TrackPointExtension>
        </extensions>
      </trkpt>
      <trkpt lat="36.87025875784456729888916015625" lon="-118.48876328207552433013916015625">
        <ele>2340.800048828125</ele>
        <time>2021-06-28T01:54:36.000Z</time>
        <extensions>
          <ns3:TrackPointExtension>
            <ns3:atemp>30.0</ns3:atemp>
            <ns3:hr>100</ns3:hr>
          </ns3:TrackPointExtension>
        </extensions>
      </trkpt>
      <trkpt lat="36.8702566623687744140625" lon="-118.4887694008648395538330078125">
        <ele>2340.800048828125</ele>
        <time>2021-06-28T01:54:37.000Z</time>
        <extensions>
          <ns3:TrackPointExtension>
            <ns3:atemp>30.0</ns3:atemp>
            <ns3:hr>98</ns3:hr>
          </ns3:TrackPointExtension>
        </extensions>
      </trkpt>
      <trkpt lat="36.8702633678913116455078125" lon="-118.48882027901709079742431640625">
        <ele>2340</ele>
        <time>2021-06-28T01:54:41.000Z</time>
        <extensions>
          <ns3:TrackPointExtension>
            <ns3:atemp>30.0</ns3:atemp>
            <ns3:hr>98</ns3:hr>
          </ns3:TrackPointExtension>
        </extensions>
      </trkpt>
      <trkpt lat="36.87025867402553558349609375" lon="-118.48885238170623779296875">
        <ele>2340</ele>
        <time>2021-06-28T01:54:43.000Z</time>
        <extensions>
          <ns3:TrackPointExtension>
            <ns3:atemp>30.0</ns3:atemp>
            <ns3:hr>97</ns3:hr>
          </ns3:TrackPointExtension>
        </extensions>
      </trkpt>
      <trkpt lat="36.87025724910199642181396484375" lon="-118.48887627013027667999267578125">
        <ele>2339.800048828125</ele>
        <time>2021-06-28T01:54:45.000Z</time>
        <extensions>
          <ns3:TrackPointExtension>
            <ns3:atemp>30.0</ns3:atemp>
            <ns3:hr>97</ns3:hr>
          </ns3:TrackPointExtension>
        </extensions>
      </trkpt>
      <trkpt lat="36.870252974331378936767578125" lon="-118.48888901062309741973876953125">
        <ele>2340</ele>
        <time>2021-06-28T01:54:47.000Z</time>
        <extensions>
          <ns3:TrackPointExtension>
            <ns3:atemp>30.0</ns3:atemp>
            <ns3:hr>99</ns3:hr>
          </ns3:TrackPointExtension>
        </extensions>
      </trkpt>
      <trkpt lat="36.87024165876209735870361328125" lon="-118.48889370448887348175048828125">
        <ele>2340</ele>
        <time>2021-06-28T01:54:48.000Z</time>
        <extensions>
          <ns3:TrackPointExtension>
            <ns3:atemp>30.0</ns3:atemp>
            <ns3:hr>100</ns3:hr>
          </ns3:TrackPointExtension>
        </extensions>
      </trkpt>
      <trkpt lat="36.87022992409765720367431640625" lon="-118.4889189340174198150634765625">
        <ele>2340.199951171875</ele>
        <time>2021-06-28T01:54:50.000Z</time>
        <extensions>
          <ns3:TrackPointExtension>
            <ns3:atemp>30.0</ns3:atemp>
            <ns3:hr>104</ns3:hr>
          </ns3:TrackPointExtension>
        </extensions>
      </trkpt>
      <trkpt lat="36.870230846107006072998046875" lon="-118.48894131369888782501220703125">
        <ele>2340.800048828125</ele>
        <time>2021-06-28T01:54:53.000Z</time>
        <extensions>
          <ns3:TrackPointExtension>
            <ns3:atemp>30.0</ns3:atemp>
            <ns3:hr>106</ns3:hr>
          </ns3:TrackPointExtension>
        </extensions>
      </trkpt>
      <trkpt lat="36.8702400662004947662353515625" lon="-118.48894902504980564117431640625">
        <ele>2341.39990234375</ele>
        <time>2021-06-28T01:54:54.000Z</time>
        <extensions>
          <ns3:TrackPointExtension>
            <ns3:atemp>30.0</ns3:atemp>
            <ns3:hr>106</ns3:hr>
          </ns3:TrackPointExtension>
        </extensions>
      </trkpt>
      <trkpt lat="36.8702709116041660308837890625" lon="-118.48899562843143939971923828125">
        <ele>2342</ele>
        <time>2021-06-28T01:54:57.000Z</time>
        <extensions>
          <ns3:TrackPointExtension>
            <ns3:atemp>30.0</ns3:atemp>
            <ns3:hr>103</ns3:hr>
          </ns3:TrackPointExtension>
        </extensions>
      </trkpt>
      <trkpt lat="36.8702792935073375701904296875" lon="-118.4890124760568141937255859375">
        <ele>2342</ele>
        <time>2021-06-28T01:54:58.000Z</time>
        <extensions>
          <ns3:TrackPointExtension>
            <ns3:atemp>30.0</ns3:atemp>
            <ns3:hr>103</ns3:hr>
          </ns3:TrackPointExtension>
        </extensions>
      </trkpt>
      <trkpt lat="36.8702756054699420928955078125" lon="-118.4890366159379482269287109375">
        <ele>2342.60009765625</ele>
        <time>2021-06-28T01:55:00.000Z</time>
        <extensions>
          <ns3:TrackPointExtension>
            <ns3:atemp>30.0</ns3:atemp>
            <ns3:hr>103</ns3:hr>
          </ns3:TrackPointExtension>
        </extensions>
      </trkpt>
      <trkpt lat="36.8702833168208599090576171875" lon="-118.4890570677816867828369140625">
        <ele>2342.60009765625</ele>
        <time>2021-06-28T01:55:01.000Z</time>
        <extensions>
          <ns3:TrackPointExtension>
            <ns3:atemp>30.0</ns3:atemp>
            <ns3:hr>103</ns3:hr>
          </ns3:TrackPointExtension>
        </extensions>
      </trkpt>
      <trkpt lat="36.8703165091574192047119140625" lon="-118.48910040222108364105224609375">
        <ele>2342.60009765625</ele>
        <time>2021-06-28T01:55:05.000Z</time>
        <extensions>
          <ns3:TrackPointExtension>
            <ns3:atemp>30.0</ns3:atemp>
            <ns3:hr>103</ns3:hr>
          </ns3:TrackPointExtension>
        </extensions>
      </trkpt>
      <trkpt lat="36.87032162211835384368896484375" lon="-118.489118255674839019775390625">
        <ele>2342.60009765625</ele>
        <time>2021-06-28T01:55:06.000Z</time>
        <extensions>
          <ns3:TrackPointExtension>
            <ns3:atemp>30.0</ns3:atemp>
            <ns3:hr>103</ns3:hr>
          </ns3:TrackPointExtension>
        </extensions>
      </trkpt>
      <trkpt lat="36.87031223438680171966552734375" lon="-118.4891834668815135955810546875">
        <ele>2341.800048828125</ele>
        <time>2021-06-28T01:55:11.000Z</time>
        <extensions>
          <ns3:TrackPointExtension>
            <ns3:atemp>30.0</ns3:atemp>
            <ns3:hr>102</ns3:hr>
          </ns3:TrackPointExtension>
        </extensions>
      </trkpt>
      <trkpt lat="36.87030251137912273406982421875" lon="-118.4892117977142333984375">
        <ele>2341.39990234375</ele>
        <time>2021-06-28T01:55:13.000Z</time>
        <extensions>
          <ns3:TrackPointExtension>
            <ns3:atemp>30.0</ns3:atemp>
            <ns3:hr>101</ns3:hr>
          </ns3:TrackPointExtension>
        </extensions>
      </trkpt>
      <trkpt lat="36.87028658576309680938720703125" lon="-118.48922680132091045379638671875">
        <ele>2341</ele>
        <time>2021-06-28T01:55:16.000Z</time>
        <extensions>
          <ns3:TrackPointExtension>
            <ns3:atemp>30.0</ns3:atemp>
            <ns3:hr>101</ns3:hr>
          </ns3:TrackPointExtension>
        </extensions>
      </trkpt>
      <trkpt lat="36.87027988024055957794189453125" lon="-118.48922546021640300750732421875">
        <ele>2341</ele>
        <time>2021-06-28T01:55:17.000Z</time>
        <extensions>
          <ns3:TrackPointExtension>
            <ns3:atemp>30.0</ns3:atemp>
            <ns3:hr>101</ns3:hr>
          </ns3:TrackPointExtension>
        </extensions>
      </trkpt>
      <trkpt lat="36.87026537954807281494140625" lon="-118.48922261036932468414306640625">
        <ele>2340.800048828125</ele>
        <time>2021-06-28T01:55:19.000Z</time>
        <extensions>
          <ns3:TrackPointExtension>
            <ns3:atemp>30.0</ns3:atemp>
            <ns3:hr>102</ns3:hr>
          </ns3:TrackPointExtension>
        </extensions>
      </trkpt>
      <trkpt lat="36.87021751888096332550048828125" lon="-118.4892158210277557373046875">
        <ele>2339.800048828125</ele>
        <time>2021-06-28T01:55:24.000Z</time>
        <extensions>
          <ns3:TrackPointExtension>
            <ns3:atemp>30.0</ns3:atemp>
            <ns3:hr>99</ns3:hr>
          </ns3:TrackPointExtension>
        </extensions>
      </trkpt>
      <trkpt lat="36.870174519717693328857421875" lon="-118.48921255208551883697509765625">
        <ele>2338.60009765625</ele>
        <time>2021-06-28T01:55:30.000Z</time>
        <extensions>
          <ns3:TrackPointExtension>
            <ns3:atemp>30.0</ns3:atemp>
            <ns3:hr>99</ns3:hr>
          </ns3:TrackPointExtension>
        </extensions>
      </trkpt>
      <trkpt lat="36.870134286582469940185546875" lon="-118.48919830285012722015380859375">
        <ele>2337.800048828125</ele>
        <time>2021-06-28T01:55:33.000Z</time>
        <extensions>
          <ns3:TrackPointExtension>
            <ns3:atemp>30.0</ns3:atemp>
            <ns3:hr>99</ns3:hr>
          </ns3:TrackPointExtension>
        </extensions>
      </trkpt>
      <trkpt lat="36.87012749724090099334716796875" lon="-118.4891965426504611968994140625">
        <ele>2337.60009765625</ele>
        <time>2021-06-28T01:55:34.000Z</time>
        <extensions>
          <ns3:TrackPointExtension>
            <ns3:atemp>30.0</ns3:atemp>
            <ns3:hr>99</ns3:hr>
          </ns3:TrackPointExtension>
        </extensions>
      </trkpt>
      <trkpt lat="36.8701220490038394927978515625" lon="-118.4892002306878566741943359375">
        <ele>2336.800048828125</ele>
        <time>2021-06-28T01:55:37.000Z</time>
        <extensions>
          <ns3:TrackPointExtension>
            <ns3:atemp>30.0</ns3:atemp>
            <ns3:hr>100</ns3:hr>
          </ns3:TrackPointExtension>
        </extensions>
      </trkpt>
      <trkpt lat="36.8701230548322200775146484375" lon="-118.48920484073460102081298828125">
        <ele>2336.199951171875</ele>
        <time>2021-06-28T01:55:38.000Z</time>
        <extensions>
          <ns3:TrackPointExtension>
            <ns3:atemp>30.0</ns3:atemp>
            <ns3:hr>100</ns3:hr>
          </ns3:TrackPointExtension>
        </extensions>
      </trkpt>
      <trkpt lat="36.8701133318245410919189453125" lon="-118.489208780229091644287109375">
        <ele>2336.199951171875</ele>
        <time>2021-06-28T01:55:39.000Z</time>
        <extensions>
          <ns3:TrackPointExtension>
            <ns3:atemp>30.0</ns3:atemp>
            <ns3:hr>100</ns3:hr>
          </ns3:TrackPointExtension>
        </extensions>
      </trkpt>
      <trkpt lat="36.87009212560951709747314453125" lon="-118.4892149828374385833740234375">
        <ele>2335.800048828125</ele>
        <time>2021-06-28T01:55:41.000Z</time>
        <extensions>
          <ns3:TrackPointExtension>
            <ns3:atemp>30.0</ns3:atemp>
            <ns3:hr>100</ns3:hr>
          </ns3:TrackPointExtension>
        </extensions>
      </trkpt>
      <trkpt lat="36.870068572461605072021484375" lon="-118.489222861826419830322265625">
        <ele>2335.199951171875</ele>
        <time>2021-06-28T01:55:43.000Z</time>
        <extensions>
          <ns3:TrackPointExtension>
            <ns3:atemp>30.0</ns3:atemp>
            <ns3:hr>98</ns3:hr>
          </ns3:TrackPointExtension>
        </extensions>
      </trkpt>
      <trkpt lat="36.8700586818158626556396484375" lon="-118.48921783268451690673828125">
        <ele>2335.199951171875</ele>
        <time>2021-06-28T01:55:45.000Z</time>
        <extensions>
          <ns3:TrackPointExtension>
            <ns3:atemp>30.0</ns3:atemp>
            <ns3:hr>100</ns3:hr>
          </ns3:TrackPointExtension>
        </extensions>
      </trkpt>
      <trkpt lat="36.8700432591140270233154296875" lon="-118.48919905722141265869140625">
        <ele>2335.199951171875</ele>
        <time>2021-06-28T01:55:47.000Z</time>
        <extensions>
          <ns3:TrackPointExtension>
            <ns3:atemp>30.0</ns3:atemp>
            <ns3:hr>97</ns3:hr>
          </ns3:TrackPointExtension>
        </extensions>
      </trkpt>
      <trkpt lat="36.87002976424992084503173828125" lon="-118.48919511772692203521728515625">
        <ele>2335</ele>
        <time>2021-06-28T01:55:48.000Z</time>
        <extensions>
          <ns3:TrackPointExtension>
            <ns3:atemp>30.0</ns3:atemp>
            <ns3:hr>97</ns3:hr>
          </ns3:TrackPointExtension>
        </extensions>
      </trkpt>
      <trkpt lat="36.87000520527362823486328125" lon="-118.4892025776207447052001953125">
        <ele>2334.60009765625</ele>
        <time>2021-06-28T01:55:51.000Z</time>
        <extensions>
          <ns3:TrackPointExtension>
            <ns3:atemp>30.0</ns3:atemp>
            <ns3:hr>94</ns3:hr>
          </ns3:TrackPointExtension>
        </extensions>
      </trkpt>
      <trkpt lat="36.86998785473406314849853515625" lon="-118.48922730423510074615478515625">
        <ele>2334</ele>
        <time>2021-06-28T01:55:54.000Z</time>
        <extensions>
          <ns3:TrackPointExtension>
            <ns3:atemp>30.0</ns3:atemp>
            <ns3:hr>92</ns3:hr>
          </ns3:TrackPointExtension>
        </extensions>
      </trkpt>
      <trkpt lat="36.86998031102120876312255859375" lon="-118.48923266865313053131103515625">
        <ele>2333.800048828125</ele>
        <time>2021-06-28T01:55:55.000Z</time>
        <extensions>
          <ns3:TrackPointExtension>
            <ns3:atemp>30.0</ns3:atemp>
            <ns3:hr>91</ns3:hr>
          </ns3:TrackPointExtension>
        </extensions>
      </trkpt>
      <trkpt lat="36.8699832446873188018798828125" lon="-118.48924105055630207061767578125">
        <ele>2333.60009765625</ele>
        <time>2021-06-28T01:55:57.000Z</time>
        <extensions>
          <ns3:TrackPointExtension>
            <ns3:atemp>30.0</ns3:atemp>
            <ns3:hr>92</ns3:hr>
          </ns3:TrackPointExtension>
        </extensions>
      </trkpt>
      <trkpt lat="36.8699651397764682769775390625" lon="-118.48923937417566776275634765625">
        <ele>2333.39990234375</ele>
        <time>2021-06-28T01:55:59.000Z</time>
        <extensions>
          <ns3:TrackPointExtension>
            <ns3:atemp>30.0</ns3:atemp>
            <ns3:hr>92</ns3:hr>
          </ns3:TrackPointExtension>
        </extensions>
      </trkpt>
      <trkpt lat="36.8699443526566028594970703125" lon="-118.48923417739570140838623046875">
        <ele>2333.39990234375</ele>
        <time>2021-06-28T01:56:01.000Z</time>
        <extensions>
          <ns3:TrackPointExtension>
            <ns3:atemp>30.0</ns3:atemp>
            <ns3:hr>92</ns3:hr>
          </ns3:TrackPointExtension>
        </extensions>
      </trkpt>
      <trkpt lat="36.8699155189096927642822265625" lon="-118.48928128369152545928955078125">
        <ele>2333</ele>
        <time>2021-06-28T01:56:06.000Z</time>
        <extensions>
          <ns3:TrackPointExtension>
            <ns3:atemp>30.0</ns3:atemp>
            <ns3:hr>91</ns3:hr>
          </ns3:TrackPointExtension>
        </extensions>
      </trkpt>
      <trkpt lat="36.8699051253497600555419921875" lon="-118.48929787985980510711669921875">
        <ele>2332.800048828125</ele>
        <time>2021-06-28T01:56:07.000Z</time>
        <extensions>
          <ns3:TrackPointExtension>
            <ns3:atemp>30.0</ns3:atemp>
            <ns3:hr>90</ns3:hr>
          </ns3:TrackPointExtension>
        </extensions>
      </trkpt>
      <trkpt lat="36.86990864574909210205078125" lon="-118.48934096284210681915283203125">
        <ele>2332.800048828125</ele>
        <time>2021-06-28T01:56:11.000Z</time>
        <extensions>
          <ns3:TrackPointExtension>
            <ns3:atemp>30.0</ns3:atemp>
            <ns3:hr>87</ns3:hr>
          </ns3:TrackPointExtension>
        </extensions>
      </trkpt>
      <trkpt lat="36.869877465069293975830078125" lon="-118.4893527813255786895751953125">
        <ele>2332.800048828125</ele>
        <time>2021-06-28T01:56:16.000Z</time>
        <extensions>
          <ns3:TrackPointExtension>
            <ns3:atemp>30.0</ns3:atemp>
            <ns3:hr>85</ns3:hr>
          </ns3:TrackPointExtension>
        </extensions>
      </trkpt>
      <trkpt lat="36.86986832879483699798583984375" lon="-118.48934515379369258880615234375">
        <ele>2332.800048828125</ele>
        <time>2021-06-28T01:56:17.000Z</time>
        <extensions>
          <ns3:TrackPointExtension>
            <ns3:atemp>30.0</ns3:atemp>
            <ns3:hr>84</ns3:hr>
          </ns3:TrackPointExtension>
        </extensions>
      </trkpt>
      <trkpt lat="36.86986380256712436676025390625" lon="-118.48934230394661426544189453125">
        <ele>2332.800048828125</ele>
        <time>2021-06-28T01:56:18.000Z</time>
        <extensions>
          <ns3:TrackPointExtension>
            <ns3:atemp>30.0</ns3:atemp>
            <ns3:hr>82</ns3:hr>
          </ns3:TrackPointExtension>
        </extensions>
      </trkpt>
      <trkpt lat="36.86981971375644207000732421875" lon="-118.4893437288701534271240234375">
        <ele>2332</ele>
        <time>2021-06-28T01:56:23.000Z</time>
        <extensions>
          <ns3:TrackPointExtension>
            <ns3:atemp>30.0</ns3:atemp>
            <ns3:hr>85</ns3:hr>
          </ns3:TrackPointExtension>
        </extensions>
      </trkpt>
      <trkpt lat="36.86981133185327053070068359375" lon="-118.48934532143175601959228515625">
        <ele>2332</ele>
        <time>2021-06-28T01:56:24.000Z</time>
        <extensions>
          <ns3:TrackPointExtension>
            <ns3:atemp>30.0</ns3:atemp>
            <ns3:hr>84</ns3:hr>
          </ns3:TrackPointExtension>
        </extensions>
      </trkpt>
      <trkpt lat="36.869783587753772735595703125" lon="-118.48934213630855083465576171875">
        <ele>2331.800048828125</ele>
        <time>2021-06-28T01:56:27.000Z</time>
        <extensions>
          <ns3:TrackPointExtension>
            <ns3:atemp>30.0</ns3:atemp>
            <ns3:hr>84</ns3:hr>
          </ns3:TrackPointExtension>
        </extensions>
      </trkpt>
      <trkpt lat="36.86975165270268917083740234375" lon="-118.4893232770264148712158203125">
        <ele>2331.60009765625</ele>
        <time>2021-06-28T01:56:30.000Z</time>
        <extensions>
          <ns3:TrackPointExtension>
            <ns3:atemp>30.0</ns3:atemp>
            <ns3:hr>86</ns3:hr>
          </ns3:TrackPointExtension>
        </extensions>
      </trkpt>
      <trkpt lat="36.86974561773240566253662109375" lon="-118.489324115216732025146484375">
        <ele>2331.39990234375</ele>
        <time>2021-06-28T01:56:31.000Z</time>
        <extensions>
          <ns3:TrackPointExtension>
            <ns3:atemp>30.0</ns3:atemp>
            <ns3:hr>86</ns3:hr>
          </ns3:TrackPointExtension>
        </extensions>
      </trkpt>
      <trkpt lat="36.869707815349102020263671875" lon="-118.48930207081139087677001953125">
        <ele>2331</ele>
        <time>2021-06-28T01:56:34.000Z</time>
        <extensions>
          <ns3:TrackPointExtension>
            <ns3:atemp>30.0</ns3:atemp>
            <ns3:hr>85</ns3:hr>
          </ns3:TrackPointExtension>
        </extensions>
      </trkpt>
      <trkpt lat="36.86967923305928707122802734375" lon="-118.4892967902123928070068359375">
        <ele>2330.800048828125</ele>
        <time>2021-06-28T01:56:36.000Z</time>
        <extensions>
          <ns3:TrackPointExtension>
            <ns3:atemp>30.0</ns3:atemp>
            <ns3:hr>85</ns3:hr>
          </ns3:TrackPointExtension>
        </extensions>
      </trkpt>
      <trkpt lat="36.86966381035745143890380859375" lon="-118.4893313236534595489501953125">
        <ele>2330.60009765625</ele>
        <time>2021-06-28T01:56:39.000Z</time>
        <extensions>
          <ns3:TrackPointExtension>
            <ns3:atemp>30.0</ns3:atemp>
            <ns3:hr>83</ns3:hr>
          </ns3:TrackPointExtension>
        </extensions>
      </trkpt>
      <trkpt lat="36.86967470683157444000244140625" lon="-118.48937314935028553009033203125">
        <ele>2330.39990234375</ele>
        <time>2021-06-28T01:56:41.000Z</time>
        <extensions>
          <ns3:TrackPointExtension>
            <ns3:atemp>30.0</ns3:atemp>
            <ns3:hr>80</ns3:hr>
          </ns3:TrackPointExtension>
        </extensions>
      </trkpt>
      <trkpt lat="36.8696880340576171875" lon="-118.489407934248447418212890625">
        <ele>2329.800048828125</ele>
        <time>2021-06-28T01:56:44.000Z</time>
        <extensions>
          <ns3:TrackPointExtension>
            <ns3:atemp>30.0</ns3:atemp>
            <ns3:hr>82</ns3:hr>
          </ns3:TrackPointExtension>
        </extensions>
      </trkpt>
      <trkpt lat="36.8696828372776508331298828125" lon="-118.489411287009716033935546875">
        <ele>2329.199951171875</ele>
        <time>2021-06-28T01:56:47.000Z</time>
        <extensions>
          <ns3:TrackPointExtension>
            <ns3:atemp>30.0</ns3:atemp>
            <ns3:hr>81</ns3:hr>
          </ns3:TrackPointExtension>
        </extensions>
      </trkpt>
      <trkpt lat="36.86966615729033946990966796875" lon="-118.4894084371626377105712890625">
        <ele>2328.60009765625</ele>
        <time>2021-06-28T01:56:49.000Z</time>
        <extensions>
          <ns3:TrackPointExtension>
            <ns3:atemp>30.0</ns3:atemp>
            <ns3:hr>82</ns3:hr>
          </ns3:TrackPointExtension>
        </extensions>
      </trkpt>
      <trkpt lat="36.8696265108883380889892578125" lon="-118.48940952681005001068115234375">
        <ele>2328</ele>
        <time>2021-06-28T01:56:53.000Z</time>
        <extensions>
          <ns3:TrackPointExtension>
            <ns3:atemp>30.0</ns3:atemp>
            <ns3:hr>79</ns3:hr>
          </ns3:TrackPointExtension>
        </extensions>
      </trkpt>
      <trkpt lat="36.86959558166563510894775390625" lon="-118.489433415234088897705078125">
        <ele>2327.39990234375</ele>
        <time>2021-06-28T01:56:56.000Z</time>
        <extensions>
          <ns3:TrackPointExtension>
            <ns3:atemp>30.0</ns3:atemp>
            <ns3:hr>79</ns3:hr>
          </ns3:TrackPointExtension>
        </extensions>
      </trkpt>
      <trkpt lat="36.869579069316387176513671875" lon="-118.48944590426981449127197265625">
        <ele>2327.199951171875</ele>
        <time>2021-06-28T01:56:58.000Z</time>
        <extensions>
          <ns3:TrackPointExtension>
            <ns3:atemp>30.0</ns3:atemp>
            <ns3:hr>79</ns3:hr>
          </ns3:TrackPointExtension>
        </extensions>
      </trkpt>
      <trkpt lat="36.8695732019841670989990234375" lon="-118.48946669138967990875244140625">
        <ele>2326.39990234375</ele>
        <time>2021-06-28T01:57:00.000Z</time>
        <extensions>
          <ns3:TrackPointExtension>
            <ns3:atemp>30.0</ns3:atemp>
            <ns3:hr>79</ns3:hr>
          </ns3:TrackPointExtension>
        </extensions>
      </trkpt>
      <trkpt lat="36.86956289224326610565185546875" lon="-118.48946635611355304718017578125">
        <ele>2326.39990234375</ele>
        <time>2021-06-28T01:57:01.000Z</time>
        <extensions>
          <ns3:TrackPointExtension>
            <ns3:atemp>30.0</ns3:atemp>
            <ns3:hr>79</ns3:hr>
          </ns3:TrackPointExtension>
        </extensions>
      </trkpt>
      <trkpt lat="36.869554929435253143310546875" lon="-118.4894604049623012542724609375">
        <ele>2326.39990234375</ele>
        <time>2021-06-28T01:57:03.000Z</time>
        <extensions>
          <ns3:TrackPointExtension>
            <ns3:atemp>30.0</ns3:atemp>
            <ns3:hr>80</ns3:hr>
          </ns3:TrackPointExtension>
        </extensions>
      </trkpt>
      <trkpt lat="36.8695450387895107269287109375" lon="-118.489444144070148468017578125">
        <ele>2326.39990234375</ele>
        <time>2021-06-28T01:57:05.000Z</time>
        <extensions>
          <ns3:TrackPointExtension>
            <ns3:atemp>30.0</ns3:atemp>
            <ns3:hr>80</ns3:hr>
          </ns3:TrackPointExtension>
        </extensions>
      </trkpt>
      <trkpt lat="36.86953313648700714111328125" lon="-118.48944607190787792205810546875">
        <ele>2325.800048828125</ele>
        <time>2021-06-28T01:57:08.000Z</time>
        <extensions>
          <ns3:TrackPointExtension>
            <ns3:atemp>30.0</ns3:atemp>
            <ns3:hr>81</ns3:hr>
          </ns3:TrackPointExtension>
        </extensions>
      </trkpt>
      <trkpt lat="36.86951930634677410125732421875" lon="-118.48945948295295238494873046875">
        <ele>2325.39990234375</ele>
        <time>2021-06-28T01:57:10.000Z</time>
        <extensions>
          <ns3:TrackPointExtension>
            <ns3:atemp>30.0</ns3:atemp>
            <ns3:hr>79</ns3:hr>
          </ns3:TrackPointExtension>
        </extensions>
      </trkpt>
      <trkpt lat="36.86952400021255016326904296875" lon="-118.489496447145938873291015625">
        <ele>2325.39990234375</ele>
        <time>2021-06-28T01:57:12.000Z</time>
        <extensions>
          <ns3:TrackPointExtension>
            <ns3:atemp>30.0</ns3:atemp>
            <ns3:hr>81</ns3:hr>
          </ns3:TrackPointExtension>
        </extensions>
      </trkpt>
      <trkpt lat="36.86953171156346797943115234375" lon="-118.4895106963813304901123046875">
        <ele>2325</ele>
        <time>2021-06-28T01:57:13.000Z</time>
        <extensions>
          <ns3:TrackPointExtension>
            <ns3:atemp>30.0</ns3:atemp>
            <ns3:hr>81</ns3:hr>
          </ns3:TrackPointExtension>
        </extensions>
      </trkpt>
      <trkpt lat="36.86953204683959484100341796875" lon="-118.4895194135606288909912109375">
        <ele>2325</ele>
        <time>2021-06-28T01:57:14.000Z</time>
        <extensions>
          <ns3:TrackPointExtension>
            <ns3:atemp>30.0</ns3:atemp>
            <ns3:hr>82</ns3:hr>
          </ns3:TrackPointExtension>
        </extensions>
      </trkpt>
      <trkpt lat="36.869528107345104217529296875" lon="-118.48954648710787296295166015625">
        <ele>2324.800048828125</ele>
        <time>2021-06-28T01:57:18.000Z</time>
        <extensions>
          <ns3:TrackPointExtension>
            <ns3:atemp>30.0</ns3:atemp>
            <ns3:hr>81</ns3:hr>
          </ns3:TrackPointExtension>
        </extensions>
      </trkpt>
      <trkpt lat="36.8695311248302459716796875" lon="-118.48955067805945873260498046875">
        <ele>2324.60009765625</ele>
        <time>2021-06-28T01:57:19.000Z</time>
        <extensions>
          <ns3:TrackPointExtension>
            <ns3:atemp>30.0</ns3:atemp>
            <ns3:hr>81</ns3:hr>
          </ns3:TrackPointExtension>
        </extensions>
      </trkpt>
      <trkpt lat="36.86953581869602203369140625" lon="-118.4895646758377552032470703125">
        <ele>2324.60009765625</ele>
        <time>2021-06-28T01:57:21.000Z</time>
        <extensions>
          <ns3:TrackPointExtension>
            <ns3:atemp>30.0</ns3:atemp>
            <ns3:hr>81</ns3:hr>
          </ns3:TrackPointExtension>
        </extensions>
      </trkpt>
      <trkpt lat="36.869539506733417510986328125" lon="-118.48957297392189502716064453125">
        <ele>2324.39990234375</ele>
        <time>2021-06-28T01:57:22.000Z</time>
        <extensions>
          <ns3:TrackPointExtension>
            <ns3:atemp>30.0</ns3:atemp>
            <ns3:hr>81</ns3:hr>
          </ns3:TrackPointExtension>
        </extensions>
      </trkpt>
      <trkpt lat="36.8695219047367572784423828125" lon="-118.48957766778767108917236328125">
        <ele>2324.199951171875</ele>
        <time>2021-06-28T01:57:24.000Z</time>
        <extensions>
          <ns3:TrackPointExtension>
            <ns3:atemp>30.0</ns3:atemp>
            <ns3:hr>81</ns3:hr>
          </ns3:TrackPointExtension>
        </extensions>
      </trkpt>
      <trkpt lat="36.8694962561130523681640625" lon="-118.48957632668316364288330078125">
        <ele>2323.60009765625</ele>
        <time>2021-06-28T01:57:26.000Z</time>
        <extensions>
          <ns3:TrackPointExtension>
            <ns3:atemp>30.0</ns3:atemp>
            <ns3:hr>81</ns3:hr>
          </ns3:TrackPointExtension>
        </extensions>
      </trkpt>
      <trkpt lat="36.8694801628589630126953125" lon="-118.48959392867982387542724609375">
        <ele>2323.199951171875</ele>
        <time>2021-06-28T01:57:28.000Z</time>
        <extensions>
          <ns3:TrackPointExtension>
            <ns3:atemp>30.0</ns3:atemp>
            <ns3:hr>78</ns3:hr>
          </ns3:TrackPointExtension>
        </extensions>
      </trkpt>
      <trkpt lat="36.86947002075612545013427734375" lon="-118.489606417715549468994140625">
        <ele>2323.199951171875</ele>
        <time>2021-06-28T01:57:29.000Z</time>
        <extensions>
          <ns3:TrackPointExtension>
            <ns3:atemp>30.0</ns3:atemp>
            <ns3:hr>81</ns3:hr>
          </ns3:TrackPointExtension>
        </extensions>
      </trkpt>
      <trkpt lat="36.86945929192006587982177734375" lon="-118.48962091840803623199462890625">
        <ele>2323.199951171875</ele>
        <time>2021-06-28T01:57:30.000Z</time>
        <extensions>
          <ns3:TrackPointExtension>
            <ns3:atemp>30.0</ns3:atemp>
            <ns3:hr>80</ns3:hr>
          </ns3:TrackPointExtension>
        </extensions>
      </trkpt>
      <trkpt lat="36.86945225112140178680419921875" lon="-118.489637933671474456787109375">
        <ele>2323</ele>
        <time>2021-06-28T01:57:31.000Z</time>
        <extensions>
          <ns3:TrackPointExtension>
            <ns3:atemp>30.0</ns3:atemp>
            <ns3:hr>79</ns3:hr>
          </ns3:TrackPointExtension>
        </extensions>
      </trkpt>
      <trkpt lat="36.8694454617798328399658203125" lon="-118.48967456258833408355712890625">
        <ele>2323</ele>
        <time>2021-06-28T01:57:33.000Z</time>
        <extensions>
          <ns3:TrackPointExtension>
            <ns3:atemp>30.0</ns3:atemp>
            <ns3:hr>78</ns3:hr>
          </ns3:TrackPointExtension>
        </extensions>
      </trkpt>
      <trkpt lat="36.86943925917148590087890625" lon="-118.48970674909651279449462890625">
        <ele>2322.800048828125</ele>
        <time>2021-06-28T01:57:35.000Z</time>
        <extensions>
          <ns3:TrackPointExtension>
            <ns3:atemp>30.0</ns3:atemp>
            <ns3:hr>78</ns3:hr>
          </ns3:TrackPointExtension>
        </extensions>
      </trkpt>
      <trkpt lat="36.869436241686344146728515625" lon="-118.4897229261696338653564453125">
        <ele>2322.800048828125</ele>
        <time>2021-06-28T01:57:36.000Z</time>
        <extensions>
          <ns3:TrackPointExtension>
            <ns3:atemp>30.0</ns3:atemp>
            <ns3:hr>78</ns3:hr>
          </ns3:TrackPointExtension>
        </extensions>
      </trkpt>
      <trkpt lat="36.86939944513142108917236328125" lon="-118.48977833054959774017333984375">
        <ele>2322.60009765625</ele>
        <time>2021-06-28T01:57:40.000Z</time>
        <extensions>
          <ns3:TrackPointExtension>
            <ns3:atemp>30.0</ns3:atemp>
            <ns3:hr>77</ns3:hr>
          </ns3:TrackPointExtension>
        </extensions>
      </trkpt>
      <trkpt lat="36.86937480233609676361083984375" lon="-118.48979274742305278778076171875">
        <ele>2322.39990234375</ele>
        <time>2021-06-28T01:57:42.000Z</time>
        <extensions>
          <ns3:TrackPointExtension>
            <ns3:atemp>30.0</ns3:atemp>
            <ns3:hr>77</ns3:hr>
          </ns3:TrackPointExtension>
        </extensions>
      </trkpt>
      <trkpt lat="36.86937815509736537933349609375" lon="-118.489800877869129180908203125">
        <ele>2322.199951171875</ele>
        <time>2021-06-28T01:57:43.000Z</time>
        <extensions>
          <ns3:TrackPointExtension>
            <ns3:atemp>30.0</ns3:atemp>
            <ns3:hr>77</ns3:hr>
          </ns3:TrackPointExtension>
        </extensions>
      </trkpt>
      <trkpt lat="36.86937396414577960968017578125" lon="-118.48980389535427093505859375">
        <ele>2322</ele>
        <time>2021-06-28T01:57:44.000Z</time>
        <extensions>
          <ns3:TrackPointExtension>
            <ns3:atemp>30.0</ns3:atemp>
            <ns3:hr>77</ns3:hr>
          </ns3:TrackPointExtension>
        </extensions>
      </trkpt>
      <trkpt lat="36.86936683952808380126953125" lon="-118.48981420509517192840576171875">
        <ele>2321.800048828125</ele>
        <time>2021-06-28T01:57:45.000Z</time>
        <extensions>
          <ns3:TrackPointExtension>
            <ns3:atemp>30.0</ns3:atemp>
            <ns3:hr>77</ns3:hr>
          </ns3:TrackPointExtension>
        </extensions>
      </trkpt>
      <trkpt lat="36.86934177763760089874267578125" lon="-118.48987237550318241119384765625">
        <ele>2321.199951171875</ele>
        <time>2021-06-28T01:57:49.000Z</time>
        <extensions>
          <ns3:TrackPointExtension>
            <ns3:atemp>30.0</ns3:atemp>
            <ns3:hr>76</ns3:hr>
          </ns3:TrackPointExtension>
        </extensions>
      </trkpt>
      <trkpt lat="36.8693388439714908599853515625" lon="-118.48988712765276432037353515625">
        <ele>2321</ele>
        <time>2021-06-28T01:57:50.000Z</time>
        <extensions>
          <ns3:TrackPointExtension>
            <ns3:atemp>30.0</ns3:atemp>
            <ns3:hr>75</ns3:hr>
          </ns3:TrackPointExtension>
        </extensions>
      </trkpt>
      <trkpt lat="36.86935133300721645355224609375" lon="-118.489928282797336578369140625">
        <ele>2320.800048828125</ele>
        <time>2021-06-28T01:57:52.000Z</time>
        <extensions>
          <ns3:TrackPointExtension>
            <ns3:atemp>30.0</ns3:atemp>
            <ns3:hr>76</ns3:hr>
          </ns3:TrackPointExtension>
        </extensions>
      </trkpt>
      <trkpt lat="36.86935485340654850006103515625" lon="-118.48996072076261043548583984375">
        <ele>2320.800048828125</ele>
        <time>2021-06-28T01:57:54.000Z</time>
        <extensions>
          <ns3:TrackPointExtension>
            <ns3:atemp>30.0</ns3:atemp>
            <ns3:hr>74</ns3:hr>
          </ns3:TrackPointExtension>
        </extensions>
      </trkpt>
      <trkpt lat="36.8693589605391025543212890625" lon="-118.48998435772955417633056640625">
        <ele>2320.60009765625</ele>
        <time>2021-06-28T01:57:56.000Z</time>
        <extensions>
          <ns3:TrackPointExtension>
            <ns3:atemp>30.0</ns3:atemp>
            <ns3:hr>74</ns3:hr>
          </ns3:TrackPointExtension>
        </extensions>
      </trkpt>
      <trkpt lat="36.86935611069202423095703125" lon="-118.4900233335793018341064453125">
        <ele>2320.800048828125</ele>
        <time>2021-06-28T01:57:59.000Z</time>
        <extensions>
          <ns3:TrackPointExtension>
            <ns3:atemp>30.0</ns3:atemp>
            <ns3:hr>72</ns3:hr>
          </ns3:TrackPointExtension>
        </extensions>
      </trkpt>
      <trkpt lat="36.86935954727232456207275390625" lon="-118.49005912430584430694580078125">
        <ele>2320.800048828125</ele>
        <time>2021-06-28T01:58:02.000Z</time>
        <extensions>
          <ns3:TrackPointExtension>
            <ns3:atemp>30.0</ns3:atemp>
            <ns3:hr>72</ns3:hr>
          </ns3:TrackPointExtension>
        </extensions>
      </trkpt>
      <trkpt lat="36.86936415731906890869140625" lon="-118.4901064820587635040283203125">
        <ele>2321.199951171875</ele>
        <time>2021-06-28T01:58:05.000Z</time>
        <extensions>
          <ns3:TrackPointExtension>
            <ns3:atemp>30.0</ns3:atemp>
            <ns3:hr>74</ns3:hr>
          </ns3:TrackPointExtension>
        </extensions>
      </trkpt>
      <trkpt lat="36.86937798745930194854736328125" lon="-118.490129448473453521728515625">
        <ele>2321.39990234375</ele>
        <time>2021-06-28T01:58:06.000Z</time>
        <extensions>
          <ns3:TrackPointExtension>
            <ns3:atemp>30.0</ns3:atemp>
            <ns3:hr>75</ns3:hr>
          </ns3:TrackPointExtension>
        </extensions>
      </trkpt>
      <trkpt lat="36.8693988583981990814208984375" lon="-118.49017269909381866455078125">
        <ele>2322</ele>
        <time>2021-06-28T01:58:09.000Z</time>
        <extensions>
          <ns3:TrackPointExtension>
            <ns3:atemp>30.0</ns3:atemp>
            <ns3:hr>78</ns3:hr>
          </ns3:TrackPointExtension>
        </extensions>
      </trkpt>
      <trkpt lat="36.86939634382724761962890625" lon="-118.49017881788313388824462890625">
        <ele>2322.199951171875</ele>
        <time>2021-06-28T01:58:10.000Z</time>
        <extensions>
          <ns3:TrackPointExtension>
            <ns3:atemp>30.0</ns3:atemp>
            <ns3:hr>80</ns3:hr>
          </ns3:TrackPointExtension>
        </extensions>
      </trkpt>
      <trkpt lat="36.8694012053310871124267578125" lon="-118.49019122309982776641845703125">
        <ele>2322.199951171875</ele>
        <time>2021-06-28T01:58:11.000Z</time>
        <extensions>
          <ns3:TrackPointExtension>
            <ns3:atemp>30.0</ns3:atemp>
            <ns3:hr>81</ns3:hr>
          </ns3:TrackPointExtension>
        </extensions>
      </trkpt>
      <trkpt lat="36.869420818984508514404296875" lon="-118.490223996341228485107421875">
        <ele>2322.800048828125</ele>
        <time>2021-06-28T01:58:14.000Z</time>
        <extensions>
          <ns3:TrackPointExtension>
            <ns3:atemp>30.0</ns3:atemp>
            <ns3:hr>84</ns3:hr>
          </ns3:TrackPointExtension>
        </extensions>
      </trkpt>
      <trkpt lat="36.86942853033542633056640625" lon="-118.49021905101835727691650390625">
        <ele>2323.60009765625</ele>
        <time>2021-06-28T01:58:17.000Z</time>
        <extensions>
          <ns3:TrackPointExtension>
            <ns3:atemp>30.0</ns3:atemp>
            <ns3:hr>86</ns3:hr>
          </ns3:TrackPointExtension>
        </extensions>
      </trkpt>
      <trkpt lat="36.86944219283759593963623046875" lon="-118.49022357724606990814208984375">
        <ele>2323.800048828125</ele>
        <time>2021-06-28T01:58:18.000Z</time>
        <extensions>
          <ns3:TrackPointExtension>
            <ns3:atemp>30.0</ns3:atemp>
            <ns3:hr>87</ns3:hr>
          </ns3:TrackPointExtension>
        </extensions>
      </trkpt>
      <trkpt lat="36.86945158056914806365966796875" lon="-118.4902617149055004119873046875">
        <ele>2324.39990234375</ele>
        <time>2021-06-28T01:58:23.000Z</time>
        <extensions>
          <ns3:TrackPointExtension>
            <ns3:atemp>30.0</ns3:atemp>
            <ns3:hr>92</ns3:hr>
          </ns3:TrackPointExtension>
        </extensions>
      </trkpt>
      <trkpt lat="36.86945912428200244903564453125" lon="-118.49027864634990692138671875">
        <ele>2325</ele>
        <time>2021-06-28T01:58:24.000Z</time>
        <extensions>
          <ns3:TrackPointExtension>
            <ns3:atemp>30.0</ns3:atemp>
            <ns3:hr>92</ns3:hr>
          </ns3:TrackPointExtension>
        </extensions>
      </trkpt>
      <trkpt lat="36.86947882175445556640625" lon="-118.49030186422169208526611328125">
        <ele>2325</ele>
        <time>2021-06-28T01:58:26.000Z</time>
        <extensions>
          <ns3:TrackPointExtension>
            <ns3:atemp>30.0</ns3:atemp>
            <ns3:hr>95</ns3:hr>
          </ns3:TrackPointExtension>
        </extensions>
      </trkpt>
      <trkpt lat="36.86949701048433780670166015625" lon="-118.49033522419631481170654296875">
        <ele>2325.39990234375</ele>
        <time>2021-06-28T01:58:30.000Z</time>
        <extensions>
          <ns3:TrackPointExtension>
            <ns3:atemp>30.0</ns3:atemp>
            <ns3:hr>98</ns3:hr>
          </ns3:TrackPointExtension>
        </extensions>
      </trkpt>
      <trkpt lat="36.8694962561130523681640625" lon="-118.49034427665174007415771484375">
        <ele>2325.39990234375</ele>
        <time>2021-06-28T01:58:31.000Z</time>
        <extensions>
          <ns3:TrackPointExtension>
            <ns3:atemp>30.0</ns3:atemp>
            <ns3:hr>101</ns3:hr>
          </ns3:TrackPointExtension>
        </extensions>
      </trkpt>
      <trkpt lat="36.869494579732418060302734375" lon="-118.4903519041836261749267578125">
        <ele>2325.39990234375</ele>
        <time>2021-06-28T01:58:32.000Z</time>
        <extensions>
          <ns3:TrackPointExtension>
            <ns3:atemp>30.0</ns3:atemp>
            <ns3:hr>102</ns3:hr>
          </ns3:TrackPointExtension>
        </extensions>
      </trkpt>
      <trkpt lat="36.8694880418479442596435546875" lon="-118.4903830848634243011474609375">
        <ele>2325.199951171875</ele>
        <time>2021-06-28T01:58:37.000Z</time>
        <extensions>
          <ns3:TrackPointExtension>
            <ns3:atemp>30.0</ns3:atemp>
            <ns3:hr>103</ns3:hr>
          </ns3:TrackPointExtension>
        </extensions>
      </trkpt>
      <trkpt lat="36.8694913946092128753662109375" lon="-118.49043563939630985260009765625">
        <ele>2324.60009765625</ele>
        <time>2021-06-28T01:58:42.000Z</time>
        <extensions>
          <ns3:TrackPointExtension>
            <ns3:atemp>30.0</ns3:atemp>
            <ns3:hr>104</ns3:hr>
          </ns3:TrackPointExtension>
        </extensions>
      </trkpt>
      <trkpt lat="36.86951092444360256195068359375" lon="-118.49050118587911128997802734375">
        <ele>2323.800048828125</ele>
        <time>2021-06-28T01:58:45.000Z</time>
        <extensions>
          <ns3:TrackPointExtension>
            <ns3:atemp>30.0</ns3:atemp>
            <ns3:hr>102</ns3:hr>
          </ns3:TrackPointExtension>
        </extensions>
      </trkpt>
      <trkpt lat="36.86948426999151706695556640625" lon="-118.49055298604071140289306640625">
        <ele>2323.60009765625</ele>
        <time>2021-06-28T01:58:47.000Z</time>
        <extensions>
          <ns3:TrackPointExtension>
            <ns3:atemp>30.0</ns3:atemp>
            <ns3:hr>102</ns3:hr>
          </ns3:TrackPointExtension>
        </extensions>
      </trkpt>
      <trkpt lat="36.8694494850933551788330078125" lon="-118.49057234823703765869140625">
        <ele>2323.60009765625</ele>
        <time>2021-06-28T01:58:50.000Z</time>
        <extensions>
          <ns3:TrackPointExtension>
            <ns3:atemp>30.0</ns3:atemp>
            <ns3:hr>97</ns3:hr>
          </ns3:TrackPointExtension>
        </extensions>
      </trkpt>
      <trkpt lat="36.8694397620856761932373046875" lon="-118.4906124137341976165771484375">
        <ele>2323.60009765625</ele>
        <time>2021-06-28T01:58:54.000Z</time>
        <extensions>
          <ns3:TrackPointExtension>
            <ns3:atemp>30.0</ns3:atemp>
            <ns3:hr>95</ns3:hr>
          </ns3:TrackPointExtension>
        </extensions>
      </trkpt>
      <trkpt lat="36.86946817673742771148681640625" lon="-118.4906700812280178070068359375">
        <ele>2323.39990234375</ele>
        <time>2021-06-28T01:58:58.000Z</time>
        <extensions>
          <ns3:TrackPointExtension>
            <ns3:atemp>30.0</ns3:atemp>
            <ns3:hr>91</ns3:hr>
          </ns3:TrackPointExtension>
        </extensions>
      </trkpt>
      <trkpt lat="36.8694719485938549041748046875" lon="-118.49070050753653049468994140625">
        <ele>2323</ele>
        <time>2021-06-28T01:59:00.000Z</time>
        <extensions>
          <ns3:TrackPointExtension>
            <ns3:atemp>30.0</ns3:atemp>
            <ns3:hr>92</ns3:hr>
          </ns3:TrackPointExtension>
        </extensions>
      </trkpt>
      <trkpt lat="36.86947722919285297393798828125" lon="-118.49073051474988460540771484375">
        <ele>2322.800048828125</ele>
        <time>2021-06-28T01:59:02.000Z</time>
        <extensions>
          <ns3:TrackPointExtension>
            <ns3:atemp>30.0</ns3:atemp>
            <ns3:hr>92</ns3:hr>
          </ns3:TrackPointExtension>
        </extensions>
      </trkpt>
      <trkpt lat="36.869481503963470458984375" lon="-118.49074711091816425323486328125">
        <ele>2322.800048828125</ele>
        <time>2021-06-28T01:59:03.000Z</time>
        <extensions>
          <ns3:TrackPointExtension>
            <ns3:atemp>30.0</ns3:atemp>
            <ns3:hr>91</ns3:hr>
          </ns3:TrackPointExtension>
        </extensions>
      </trkpt>
      <trkpt lat="36.86949826776981353759765625" lon="-118.49079363048076629638671875">
        <ele>2322.60009765625</ele>
        <time>2021-06-28T01:59:05.000Z</time>
        <extensions>
          <ns3:TrackPointExtension>
            <ns3:atemp>30.0</ns3:atemp>
            <ns3:hr>92</ns3:hr>
          </ns3:TrackPointExtension>
        </extensions>
      </trkpt>
      <trkpt lat="36.86950388364493846893310546875" lon="-118.4908145852386951446533203125">
        <ele>2322.800048828125</ele>
        <time>2021-06-28T01:59:06.000Z</time>
        <extensions>
          <ns3:TrackPointExtension>
            <ns3:atemp>30.0</ns3:atemp>
            <ns3:hr>92</ns3:hr>
          </ns3:TrackPointExtension>
        </extensions>
      </trkpt>
      <trkpt lat="36.86952349729835987091064453125" lon="-118.4908984042704105377197265625">
        <ele>2322.60009765625</ele>
        <time>2021-06-28T01:59:09.000Z</time>
        <extensions>
          <ns3:TrackPointExtension>
            <ns3:atemp>30.0</ns3:atemp>
            <ns3:hr>89</ns3:hr>
          </ns3:TrackPointExtension>
        </extensions>
      </trkpt>
      <trkpt lat="36.86952701769769191741943359375" lon="-118.4909111447632312774658203125">
        <ele>2322.60009765625</ele>
        <time>2021-06-28T01:59:10.000Z</time>
        <extensions>
          <ns3:TrackPointExtension>
            <ns3:atemp>30.0</ns3:atemp>
            <ns3:hr>88</ns3:hr>
          </ns3:TrackPointExtension>
        </extensions>
      </trkpt>
      <trkpt lat="36.86951444484293460845947265625" lon="-118.49094475619494915008544921875">
        <ele>2322.60009765625</ele>
        <time>2021-06-28T01:59:13.000Z</time>
        <extensions>
          <ns3:TrackPointExtension>
            <ns3:atemp>30.0</ns3:atemp>
            <ns3:hr>85</ns3:hr>
          </ns3:TrackPointExtension>
        </extensions>
      </trkpt>
      <trkpt lat="36.869516037404537200927734375" lon="-118.49095598794519901275634765625">
        <ele>2322.60009765625</ele>
        <time>2021-06-28T01:59:14.000Z</time>
        <extensions>
          <ns3:TrackPointExtension>
            <ns3:atemp>30.0</ns3:atemp>
            <ns3:hr>85</ns3:hr>
          </ns3:TrackPointExtension>
        </extensions>
      </trkpt>
      <trkpt lat="36.86951762996613979339599609375" lon="-118.49096755497157573699951171875">
        <ele>2322</ele>
        <time>2021-06-28T01:59:16.000Z</time>
        <extensions>
          <ns3:TrackPointExtension>
            <ns3:atemp>30.0</ns3:atemp>
            <ns3:hr>85</ns3:hr>
          </ns3:TrackPointExtension>
        </extensions>
      </trkpt>
      <trkpt lat="36.86951193027198314666748046875" lon="-118.49096436984837055206298828125">
        <ele>2321.60009765625</ele>
        <time>2021-06-28T01:59:18.000Z</time>
        <extensions>
          <ns3:TrackPointExtension>
            <ns3:atemp>30.0</ns3:atemp>
            <ns3:hr>84</ns3:hr>
          </ns3:TrackPointExtension>
        </extensions>
      </trkpt>
      <trkpt lat="36.8695058114826679229736328125" lon="-118.49097669124603271484375">
        <ele>2321.199951171875</ele>
        <time>2021-06-28T01:59:20.000Z</time>
        <extensions>
          <ns3:TrackPointExtension>
            <ns3:atemp>30.0</ns3:atemp>
            <ns3:hr>84</ns3:hr>
          </ns3:TrackPointExtension>
        </extensions>
      </trkpt>
      <trkpt lat="36.86949399299919605255126953125" lon="-118.4910147450864315032958984375">
        <ele>2320.800048828125</ele>
        <time>2021-06-28T01:59:23.000Z</time>
        <extensions>
          <ns3:TrackPointExtension>
            <ns3:atemp>30.0</ns3:atemp>
            <ns3:hr>85</ns3:hr>
          </ns3:TrackPointExtension>
        </extensions>
      </trkpt>
      <trkpt lat="36.86947706155478954315185546875" lon="-118.49102103151381015777587890625">
        <ele>2320</ele>
        <time>2021-06-28T01:59:25.000Z</time>
        <extensions>
          <ns3:TrackPointExtension>
            <ns3:atemp>30.0</ns3:atemp>
            <ns3:hr>85</ns3:hr>
          </ns3:TrackPointExtension>
        </extensions>
      </trkpt>
      <trkpt lat="36.8694615550339221954345703125" lon="-118.4910140745341777801513671875">
        <ele>2320</ele>
        <time>2021-06-28T01:59:26.000Z</time>
        <extensions>
          <ns3:TrackPointExtension>
            <ns3:atemp>30.0</ns3:atemp>
            <ns3:hr>85</ns3:hr>
          </ns3:TrackPointExtension>
        </extensions>
      </trkpt>
      <trkpt lat="36.86945845372974872589111328125" lon="-118.49100820720195770263671875">
        <ele>2319.60009765625</ele>
        <time>2021-06-28T01:59:27.000Z</time>
        <extensions>
          <ns3:TrackPointExtension>
            <ns3:atemp>30.0</ns3:atemp>
            <ns3:hr>86</ns3:hr>
          </ns3:TrackPointExtension>
        </extensions>
      </trkpt>
      <trkpt lat="36.86946180649101734161376953125" lon="-118.49098767153918743133544921875">
        <ele>2318.60009765625</ele>
        <time>2021-06-28T01:59:31.000Z</time>
        <extensions>
          <ns3:TrackPointExtension>
            <ns3:atemp>30.0</ns3:atemp>
            <ns3:hr>85</ns3:hr>
          </ns3:TrackPointExtension>
        </extensions>
      </trkpt>
      <trkpt lat="36.86945929192006587982177734375" lon="-118.49098850972950458526611328125">
        <ele>2318.39990234375</ele>
        <time>2021-06-28T01:59:32.000Z</time>
        <extensions>
          <ns3:TrackPointExtension>
            <ns3:atemp>30.0</ns3:atemp>
            <ns3:hr>84</ns3:hr>
          </ns3:TrackPointExtension>
        </extensions>
      </trkpt>
      <trkpt lat="36.8694417737424373626708984375" lon="-118.49097996018826961517333984375">
        <ele>2318.39990234375</ele>
        <time>2021-06-28T01:59:34.000Z</time>
        <extensions>
          <ns3:TrackPointExtension>
            <ns3:atemp>30.0</ns3:atemp>
            <ns3:hr>84</ns3:hr>
          </ns3:TrackPointExtension>
        </extensions>
      </trkpt>
      <trkpt lat="36.8694213218986988067626953125" lon="-118.49097124300897121429443359375">
        <ele>2318.199951171875</ele>
        <time>2021-06-28T01:59:36.000Z</time>
        <extensions>
          <ns3:TrackPointExtension>
            <ns3:atemp>30.0</ns3:atemp>
            <ns3:hr>85</ns3:hr>
          </ns3:TrackPointExtension>
        </extensions>
      </trkpt>
      <trkpt lat="36.86938159167766571044921875" lon="-118.4909805469214916229248046875">
        <ele>2317.39990234375</ele>
        <time>2021-06-28T01:59:40.000Z</time>
        <extensions>
          <ns3:TrackPointExtension>
            <ns3:atemp>30.0</ns3:atemp>
            <ns3:hr>85</ns3:hr>
          </ns3:TrackPointExtension>
        </extensions>
      </trkpt>
      <trkpt lat="36.869374215602874755859375" lon="-118.490982390940189361572265625">
        <ele>2317.39990234375</ele>
        <time>2021-06-28T01:59:41.000Z</time>
        <extensions>
          <ns3:TrackPointExtension>
            <ns3:atemp>30.0</ns3:atemp>
            <ns3:hr>86</ns3:hr>
          </ns3:TrackPointExtension>
        </extensions>
      </trkpt>
      <trkpt lat="36.86935820616781711578369140625" lon="-118.4909916110336780548095703125">
        <ele>2317</ele>
        <time>2021-06-28T01:59:43.000Z</time>
        <extensions>
          <ns3:TrackPointExtension>
            <ns3:atemp>30.0</ns3:atemp>
            <ns3:hr>85</ns3:hr>
          </ns3:TrackPointExtension>
        </extensions>
      </trkpt>
      <trkpt lat="36.869339011609554290771484375" lon="-118.491005860269069671630859375">
        <ele>2316.39990234375</ele>
        <time>2021-06-28T01:59:45.000Z</time>
        <extensions>
          <ns3:TrackPointExtension>
            <ns3:atemp>30.0</ns3:atemp>
            <ns3:hr>83</ns3:hr>
          </ns3:TrackPointExtension>
        </extensions>
      </trkpt>
      <trkpt lat="36.8693291209638118743896484375" lon="-118.49100778810679912567138671875">
        <ele>2316.39990234375</ele>
        <time>2021-06-28T01:59:46.000Z</time>
        <extensions>
          <ns3:TrackPointExtension>
            <ns3:atemp>30.0</ns3:atemp>
            <ns3:hr>81</ns3:hr>
          </ns3:TrackPointExtension>
        </extensions>
      </trkpt>
      <trkpt lat="36.8693022988736629486083984375" lon="-118.491008542478084564208984375">
        <ele>2316</ele>
        <time>2021-06-28T01:59:49.000Z</time>
        <extensions>
          <ns3:TrackPointExtension>
            <ns3:atemp>30.0</ns3:atemp>
            <ns3:hr>82</ns3:hr>
          </ns3:TrackPointExtension>
        </extensions>
      </trkpt>
      <trkpt lat="36.8692919053137302398681640625" lon="-118.491023294627666473388671875">
        <ele>2315.800048828125</ele>
        <time>2021-06-28T01:59:51.000Z</time>
        <extensions>
          <ns3:TrackPointExtension>
            <ns3:atemp>30.0</ns3:atemp>
            <ns3:hr>81</ns3:hr>
          </ns3:TrackPointExtension>
        </extensions>
      </trkpt>
      <trkpt lat="36.8692831881344318389892578125" lon="-118.49103108979761600494384765625">
        <ele>2315.800048828125</ele>
        <time>2021-06-28T01:59:52.000Z</time>
        <extensions>
          <ns3:TrackPointExtension>
            <ns3:atemp>30.0</ns3:atemp>
            <ns3:hr>80</ns3:hr>
          </ns3:TrackPointExtension>
        </extensions>
      </trkpt>
      <trkpt lat="36.86927237547934055328369140625" lon="-118.49104919470846652984619140625">
        <ele>2315.39990234375</ele>
        <time>2021-06-28T01:59:54.000Z</time>
        <extensions>
          <ns3:TrackPointExtension>
            <ns3:atemp>30.0</ns3:atemp>
            <ns3:hr>81</ns3:hr>
          </ns3:TrackPointExtension>
        </extensions>
      </trkpt>
      <trkpt lat="36.8692754767835140228271484375" lon="-118.4910600073635578155517578125">
        <ele>2315</ele>
        <time>2021-06-28T01:59:55.000Z</time>
        <extensions>
          <ns3:TrackPointExtension>
            <ns3:atemp>30.0</ns3:atemp>
            <ns3:hr>81</ns3:hr>
          </ns3:TrackPointExtension>
        </extensions>
      </trkpt>
      <trkpt lat="36.8692816793918609619140625" lon="-118.49108397960662841796875">
        <ele>2314.800048828125</ele>
        <time>2021-06-28T01:59:57.000Z</time>
        <extensions>
          <ns3:TrackPointExtension>
            <ns3:atemp>30.0</ns3:atemp>
            <ns3:hr>79</ns3:hr>
          </ns3:TrackPointExtension>
        </extensions>
      </trkpt>
      <trkpt lat="36.86927975155413150787353515625" lon="-118.49111524410545825958251953125">
        <ele>2314.800048828125</ele>
        <time>2021-06-28T01:59:59.000Z</time>
        <extensions>
          <ns3:TrackPointExtension>
            <ns3:atemp>30.0</ns3:atemp>
            <ns3:hr>80</ns3:hr>
          </ns3:TrackPointExtension>
        </extensions>
      </trkpt>
      <trkpt lat="36.86927086673676967620849609375" lon="-118.491129912436008453369140625">
        <ele>2314.800048828125</ele>
        <time>2021-06-28T02:00:00.000Z</time>
        <extensions>
          <ns3:TrackPointExtension>
            <ns3:atemp>30.0</ns3:atemp>
            <ns3:hr>80</ns3:hr>
          </ns3:TrackPointExtension>
        </extensions>
      </trkpt>
      <trkpt lat="36.8692640773952007293701171875" lon="-118.49118464626371860504150390625">
        <ele>2315</ele>
        <time>2021-06-28T02:00:03.000Z</time>
        <extensions>
          <ns3:TrackPointExtension>
            <ns3:atemp>30.0</ns3:atemp>
            <ns3:hr>81</ns3:hr>
          </ns3:TrackPointExtension>
        </extensions>
      </trkpt>
      <trkpt lat="36.8692741356790065765380859375" lon="-118.49121339619159698486328125">
        <ele>2315</ele>
        <time>2021-06-28T02:00:04.000Z</time>
        <extensions>
          <ns3:TrackPointExtension>
            <ns3:atemp>30.0</ns3:atemp>
            <ns3:hr>80</ns3:hr>
          </ns3:TrackPointExtension>
        </extensions>
      </trkpt>
      <trkpt lat="36.86928209848701953887939453125" lon="-118.4912390448153018951416015625">
        <ele>2315</ele>
        <time>2021-06-28T02:00:05.000Z</time>
        <extensions>
          <ns3:TrackPointExtension>
            <ns3:atemp>30.0</ns3:atemp>
            <ns3:hr>80</ns3:hr>
          </ns3:TrackPointExtension>
        </extensions>
      </trkpt>
      <trkpt lat="36.8692751415073871612548828125" lon="-118.49126410670578479766845703125">
        <ele>2315</ele>
        <time>2021-06-28T02:00:07.000Z</time>
        <extensions>
          <ns3:TrackPointExtension>
            <ns3:atemp>30.0</ns3:atemp>
            <ns3:hr>79</ns3:hr>
          </ns3:TrackPointExtension>
        </extensions>
      </trkpt>
      <trkpt lat="36.86927120201289653778076171875" lon="-118.49126980639994144439697265625">
        <ele>2315</ele>
        <time>2021-06-28T02:00:08.000Z</time>
        <extensions>
          <ns3:TrackPointExtension>
            <ns3:atemp>30.0</ns3:atemp>
            <ns3:hr>80</ns3:hr>
          </ns3:TrackPointExtension>
        </extensions>
      </trkpt>
      <trkpt lat="36.86926399357616901397705078125" lon="-118.49130727350711822509765625">
        <ele>2315</ele>
        <time>2021-06-28T02:00:11.000Z</time>
        <extensions>
          <ns3:TrackPointExtension>
            <ns3:atemp>30.0</ns3:atemp>
            <ns3:hr>83</ns3:hr>
          </ns3:TrackPointExtension>
        </extensions>
      </trkpt>
      <trkpt lat="36.86926231719553470611572265625" lon="-118.49133501760661602020263671875">
        <ele>2315</ele>
        <time>2021-06-28T02:00:13.000Z</time>
        <extensions>
          <ns3:TrackPointExtension>
            <ns3:atemp>30.0</ns3:atemp>
            <ns3:hr>85</ns3:hr>
          </ns3:TrackPointExtension>
        </extensions>
      </trkpt>
      <trkpt lat="36.869259886443614959716796875" lon="-118.49139050580561161041259765625">
        <ele>2314.60009765625</ele>
        <time>2021-06-28T02:00:16.000Z</time>
        <extensions>
          <ns3:TrackPointExtension>
            <ns3:atemp>30.0</ns3:atemp>
            <ns3:hr>86</ns3:hr>
          </ns3:TrackPointExtension>
        </extensions>
      </trkpt>
      <trkpt lat="36.86925041489303112030029296875" lon="-118.49146024323999881744384765625">
        <ele>2314.60009765625</ele>
        <time>2021-06-28T02:00:19.000Z</time>
        <extensions>
          <ns3:TrackPointExtension>
            <ns3:atemp>30.0</ns3:atemp>
            <ns3:hr>89</ns3:hr>
          </ns3:TrackPointExtension>
        </extensions>
      </trkpt>
      <trkpt lat="36.869247145950794219970703125" lon="-118.49150751717388629913330078125">
        <ele>2314.60009765625</ele>
        <time>2021-06-28T02:00:21.000Z</time>
        <extensions>
          <ns3:TrackPointExtension>
            <ns3:atemp>30.0</ns3:atemp>
            <ns3:hr>89</ns3:hr>
          </ns3:TrackPointExtension>
        </extensions>
      </trkpt>
      <trkpt lat="36.8692308850586414337158203125" lon="-118.4915293939411640167236328125">
        <ele>2315</ele>
        <time>2021-06-28T02:00:22.000Z</time>
        <extensions>
          <ns3:TrackPointExtension>
            <ns3:atemp>30.0</ns3:atemp>
            <ns3:hr>89</ns3:hr>
          </ns3:TrackPointExtension>
        </extensions>
      </trkpt>
      <trkpt lat="36.86919911764562129974365234375" lon="-118.49154506810009479522705078125">
        <ele>2315.199951171875</ele>
        <time>2021-06-28T02:00:24.000Z</time>
        <extensions>
          <ns3:TrackPointExtension>
            <ns3:atemp>30.0</ns3:atemp>
            <ns3:hr>89</ns3:hr>
          </ns3:TrackPointExtension>
        </extensions>
      </trkpt>
      <trkpt lat="36.869188807904720306396484375" lon="-118.49166962318122386932373046875">
        <ele>2315.39990234375</ele>
        <time>2021-06-28T02:00:31.000Z</time>
        <extensions>
          <ns3:TrackPointExtension>
            <ns3:atemp>29.0</ns3:atemp>
            <ns3:hr>87</ns3:hr>
          </ns3:TrackPointExtension>
        </extensions>
      </trkpt>
      <trkpt lat="36.86917430721223354339599609375" lon="-118.4917302243411540985107421875">
        <ele>2316.199951171875</ele>
        <time>2021-06-28T02:00:37.000Z</time>
        <extensions>
          <ns3:TrackPointExtension>
            <ns3:atemp>30.0</ns3:atemp>
            <ns3:hr>86</ns3:hr>
          </ns3:TrackPointExtension>
        </extensions>
      </trkpt>
      <trkpt lat="36.86916760168969631195068359375" lon="-118.49176182411611080169677734375">
        <ele>2316.39990234375</ele>
        <time>2021-06-28T02:00:40.000Z</time>
        <extensions>
          <ns3:TrackPointExtension>
            <ns3:atemp>30.0</ns3:atemp>
            <ns3:hr>89</ns3:hr>
          </ns3:TrackPointExtension>
        </extensions>
      </trkpt>
      <trkpt lat="36.86916156671941280364990234375" lon="-118.4917707927525043487548828125">
        <ele>2316.60009765625</ele>
        <time>2021-06-28T02:00:41.000Z</time>
        <extensions>
          <ns3:TrackPointExtension>
            <ns3:atemp>30.0</ns3:atemp>
            <ns3:hr>93</ns3:hr>
          </ns3:TrackPointExtension>
        </extensions>
      </trkpt>
      <trkpt lat="36.86916106380522251129150390625" lon="-118.491783700883388519287109375">
        <ele>2316.800048828125</ele>
        <time>2021-06-28T02:00:42.000Z</time>
        <extensions>
          <ns3:TrackPointExtension>
            <ns3:atemp>30.0</ns3:atemp>
            <ns3:hr>92</ns3:hr>
          </ns3:TrackPointExtension>
        </extensions>
      </trkpt>
      <trkpt lat="36.86913357116281986236572265625" lon="-118.49183307029306888580322265625">
        <ele>2317.39990234375</ele>
        <time>2021-06-28T02:00:47.000Z</time>
        <extensions>
          <ns3:TrackPointExtension>
            <ns3:atemp>30.0</ns3:atemp>
            <ns3:hr>91</ns3:hr>
          </ns3:TrackPointExtension>
        </extensions>
      </trkpt>
      <trkpt lat="36.86912049539387226104736328125" lon="-118.49189073778688907623291015625">
        <ele>2318.199951171875</ele>
        <time>2021-06-28T02:00:52.000Z</time>
        <extensions>
          <ns3:TrackPointExtension>
            <ns3:atemp>30.0</ns3:atemp>
            <ns3:hr>92</ns3:hr>
          </ns3:TrackPointExtension>
        </extensions>
      </trkpt>
      <trkpt lat="36.8691152147948741912841796875" lon="-118.491911105811595916748046875">
        <ele>2318.39990234375</ele>
        <time>2021-06-28T02:00:54.000Z</time>
        <extensions>
          <ns3:TrackPointExtension>
            <ns3:atemp>30.0</ns3:atemp>
            <ns3:hr>91</ns3:hr>
          </ns3:TrackPointExtension>
        </extensions>
      </trkpt>
      <trkpt lat="36.86911580152809619903564453125" lon="-118.49195091985166072845458984375">
        <ele>2318.800048828125</ele>
        <time>2021-06-28T02:00:58.000Z</time>
        <extensions>
          <ns3:TrackPointExtension>
            <ns3:atemp>30.0</ns3:atemp>
            <ns3:hr>92</ns3:hr>
          </ns3:TrackPointExtension>
        </extensions>
      </trkpt>
      <trkpt lat="36.8690893985331058502197265625" lon="-118.49193356931209564208984375">
        <ele>2318.39990234375</ele>
        <time>2021-06-28T02:01:01.000Z</time>
        <extensions>
          <ns3:TrackPointExtension>
            <ns3:atemp>30.0</ns3:atemp>
            <ns3:hr>93</ns3:hr>
          </ns3:TrackPointExtension>
        </extensions>
      </trkpt>
      <trkpt lat="36.8690478242933750152587890625" lon="-118.49193247966468334197998046875">
        <ele>2317.60009765625</ele>
        <time>2021-06-28T02:01:04.000Z</time>
        <extensions>
          <ns3:TrackPointExtension>
            <ns3:atemp>30.0</ns3:atemp>
            <ns3:hr>93</ns3:hr>
          </ns3:TrackPointExtension>
        </extensions>
      </trkpt>
      <trkpt lat="36.86903583817183971405029296875" lon="-118.49194052629172801971435546875">
        <ele>2317.39990234375</ele>
        <time>2021-06-28T02:01:05.000Z</time>
        <extensions>
          <ns3:TrackPointExtension>
            <ns3:atemp>30.0</ns3:atemp>
            <ns3:hr>94</ns3:hr>
          </ns3:TrackPointExtension>
        </extensions>
      </trkpt>
      <trkpt lat="36.86900298111140727996826171875" lon="-118.4919719584286212921142578125">
        <ele>2316.800048828125</ele>
        <time>2021-06-28T02:01:09.000Z</time>
        <extensions>
          <ns3:TrackPointExtension>
            <ns3:atemp>30.0</ns3:atemp>
            <ns3:hr>94</ns3:hr>
          </ns3:TrackPointExtension>
        </extensions>
      </trkpt>
      <trkpt lat="36.86899828724563121795654296875" lon="-118.49198059178888797760009765625">
        <ele>2316.800048828125</ele>
        <time>2021-06-28T02:01:10.000Z</time>
        <extensions>
          <ns3:TrackPointExtension>
            <ns3:atemp>30.0</ns3:atemp>
            <ns3:hr>94</ns3:hr>
          </ns3:TrackPointExtension>
        </extensions>
      </trkpt>
      <trkpt lat="36.868984960019588470458984375" lon="-118.49200624041259288787841796875">
        <ele>2316.39990234375</ele>
        <time>2021-06-28T02:01:14.000Z</time>
        <extensions>
          <ns3:TrackPointExtension>
            <ns3:atemp>30.0</ns3:atemp>
            <ns3:hr>96</ns3:hr>
          </ns3:TrackPointExtension>
        </extensions>
      </trkpt>
      <trkpt lat="36.86897255480289459228515625" lon="-118.49200355820357799530029296875">
        <ele>2316.199951171875</ele>
        <time>2021-06-28T02:01:15.000Z</time>
        <extensions>
          <ns3:TrackPointExtension>
            <ns3:atemp>30.0</ns3:atemp>
            <ns3:hr>97</ns3:hr>
          </ns3:TrackPointExtension>
        </extensions>
      </trkpt>
      <trkpt lat="36.86894447542726993560791015625" lon="-118.4920106828212738037109375">
        <ele>2315.39990234375</ele>
        <time>2021-06-28T02:01:18.000Z</time>
        <extensions>
          <ns3:TrackPointExtension>
            <ns3:atemp>30.0</ns3:atemp>
            <ns3:hr>96</ns3:hr>
          </ns3:TrackPointExtension>
        </extensions>
      </trkpt>
      <trkpt lat="36.8689356744289398193359375" lon="-118.4920232556760311126708984375">
        <ele>2315.199951171875</ele>
        <time>2021-06-28T02:01:19.000Z</time>
        <extensions>
          <ns3:TrackPointExtension>
            <ns3:atemp>30.0</ns3:atemp>
            <ns3:hr>96</ns3:hr>
          </ns3:TrackPointExtension>
        </extensions>
      </trkpt>
      <trkpt lat="36.86891832388937473297119140625" lon="-118.492046557366847991943359375">
        <ele>2315</ele>
        <time>2021-06-28T02:01:21.000Z</time>
        <extensions>
          <ns3:TrackPointExtension>
            <ns3:atemp>30.0</ns3:atemp>
            <ns3:hr>93</ns3:hr>
          </ns3:TrackPointExtension>
        </extensions>
      </trkpt>
      <trkpt lat="36.86892318539321422576904296875" lon="-118.49208117462694644927978515625">
        <ele>2314.60009765625</ele>
        <time>2021-06-28T02:01:23.000Z</time>
        <extensions>
          <ns3:TrackPointExtension>
            <ns3:atemp>30.0</ns3:atemp>
            <ns3:hr>96</ns3:hr>
          </ns3:TrackPointExtension>
        </extensions>
      </trkpt>
      <trkpt lat="36.86893575824797153472900390625" lon="-118.4921157918870449066162109375">
        <ele>2314.60009765625</ele>
        <time>2021-06-28T02:01:24.000Z</time>
        <extensions>
          <ns3:TrackPointExtension>
            <ns3:atemp>30.0</ns3:atemp>
            <ns3:hr>96</ns3:hr>
          </ns3:TrackPointExtension>
        </extensions>
      </trkpt>
      <trkpt lat="36.86894548125565052032470703125" lon="-118.49213565699756145477294921875">
        <ele>2314</ele>
        <time>2021-06-28T02:01:25.000Z</time>
        <extensions>
          <ns3:TrackPointExtension>
            <ns3:atemp>30.0</ns3:atemp>
            <ns3:hr>98</ns3:hr>
          </ns3:TrackPointExtension>
        </extensions>
      </trkpt>
      <trkpt lat="36.8689415417611598968505859375" lon="-118.4921432845294475555419921875">
        <ele>2314</ele>
        <time>2021-06-28T02:01:26.000Z</time>
        <extensions>
          <ns3:TrackPointExtension>
            <ns3:atemp>30.0</ns3:atemp>
            <ns3:hr>98</ns3:hr>
          </ns3:TrackPointExtension>
        </extensions>
      </trkpt>
      <trkpt lat="36.86893508769571781158447265625" lon="-118.49214806221425533294677734375">
        <ele>2313.39990234375</ele>
        <time>2021-06-28T02:01:28.000Z</time>
        <extensions>
          <ns3:TrackPointExtension>
            <ns3:atemp>30.0</ns3:atemp>
            <ns3:hr>98</ns3:hr>
          </ns3:TrackPointExtension>
        </extensions>
      </trkpt>
      <trkpt lat="36.8689241074025630950927734375" lon="-118.49214588291943073272705078125">
        <ele>2313.199951171875</ele>
        <time>2021-06-28T02:01:29.000Z</time>
        <extensions>
          <ns3:TrackPointExtension>
            <ns3:atemp>30.0</ns3:atemp>
            <ns3:hr>98</ns3:hr>
          </ns3:TrackPointExtension>
        </extensions>
      </trkpt>
      <trkpt lat="36.8689115345478057861328125" lon="-118.4921422787010669708251953125">
        <ele>2313.199951171875</ele>
        <time>2021-06-28T02:01:30.000Z</time>
        <extensions>
          <ns3:TrackPointExtension>
            <ns3:atemp>30.0</ns3:atemp>
            <ns3:hr>95</ns3:hr>
          </ns3:TrackPointExtension>
        </extensions>
      </trkpt>
      <trkpt lat="36.86889871023595333099365234375" lon="-118.49214219488203525543212890625">
        <ele>2313</ele>
        <time>2021-06-28T02:01:31.000Z</time>
        <extensions>
          <ns3:TrackPointExtension>
            <ns3:atemp>30.0</ns3:atemp>
            <ns3:hr>94</ns3:hr>
          </ns3:TrackPointExtension>
        </extensions>
      </trkpt>
      <trkpt lat="36.86888194642961025238037109375" lon="-118.4921516664326190948486328125">
        <ele>2312.39990234375</ele>
        <time>2021-06-28T02:01:33.000Z</time>
        <extensions>
          <ns3:TrackPointExtension>
            <ns3:atemp>30.0</ns3:atemp>
            <ns3:hr>97</ns3:hr>
          </ns3:TrackPointExtension>
        </extensions>
      </trkpt>
      <trkpt lat="36.8688557110726833343505859375" lon="-118.49214068613946437835693359375">
        <ele>2311.60009765625</ele>
        <time>2021-06-28T02:01:36.000Z</time>
        <extensions>
          <ns3:TrackPointExtension>
            <ns3:atemp>30.0</ns3:atemp>
            <ns3:hr>95</ns3:hr>
          </ns3:TrackPointExtension>
        </extensions>
      </trkpt>
      <trkpt lat="36.86882930807769298553466796875" lon="-118.49212895147502422332763671875">
        <ele>2311</ele>
        <time>2021-06-28T02:01:38.000Z</time>
        <extensions>
          <ns3:TrackPointExtension>
            <ns3:atemp>30.0</ns3:atemp>
            <ns3:hr>95</ns3:hr>
          </ns3:TrackPointExtension>
        </extensions>
      </trkpt>
      <trkpt lat="36.8688198365271091461181640625" lon="-118.49212995730340480804443359375">
        <ele>2311</ele>
        <time>2021-06-28T02:01:39.000Z</time>
        <extensions>
          <ns3:TrackPointExtension>
            <ns3:atemp>30.0</ns3:atemp>
            <ns3:hr>95</ns3:hr>
          </ns3:TrackPointExtension>
        </extensions>
      </trkpt>
      <trkpt lat="36.86877968721091747283935546875" lon="-118.49215158261358737945556640625">
        <ele>2310.60009765625</ele>
        <time>2021-06-28T02:01:42.000Z</time>
        <extensions>
          <ns3:TrackPointExtension>
            <ns3:atemp>30.0</ns3:atemp>
            <ns3:hr>94</ns3:hr>
          </ns3:TrackPointExtension>
        </extensions>
      </trkpt>
      <trkpt lat="36.86875931918621063232421875" lon="-118.49216767586767673492431640625">
        <ele>2310.199951171875</ele>
        <time>2021-06-28T02:01:44.000Z</time>
        <extensions>
          <ns3:TrackPointExtension>
            <ns3:atemp>30.0</ns3:atemp>
            <ns3:hr>94</ns3:hr>
          </ns3:TrackPointExtension>
        </extensions>
      </trkpt>
      <trkpt lat="36.86874750070273876190185546875" lon="-118.4922143630683422088623046875">
        <ele>2309.800048828125</ele>
        <time>2021-06-28T02:01:48.000Z</time>
        <extensions>
          <ns3:TrackPointExtension>
            <ns3:atemp>30.0</ns3:atemp>
            <ns3:hr>94</ns3:hr>
          </ns3:TrackPointExtension>
        </extensions>
      </trkpt>
      <trkpt lat="36.8687494285404682159423828125" lon="-118.4922871179878711700439453125">
        <ele>2310</ele>
        <time>2021-06-28T02:01:53.000Z</time>
        <extensions>
          <ns3:TrackPointExtension>
            <ns3:atemp>30.0</ns3:atemp>
            <ns3:hr>94</ns3:hr>
          </ns3:TrackPointExtension>
        </extensions>
      </trkpt>
      <trkpt lat="36.8687239475548267364501953125" lon="-118.4922914765775203704833984375">
        <ele>2310</ele>
        <time>2021-06-28T02:01:55.000Z</time>
        <extensions>
          <ns3:TrackPointExtension>
            <ns3:atemp>30.0</ns3:atemp>
            <ns3:hr>94</ns3:hr>
          </ns3:TrackPointExtension>
        </extensions>
      </trkpt>
      <trkpt lat="36.8687135539948940277099609375" lon="-118.49230044521391391754150390625">
        <ele>2309.39990234375</ele>
        <time>2021-06-28T02:01:57.000Z</time>
        <extensions>
          <ns3:TrackPointExtension>
            <ns3:atemp>30.0</ns3:atemp>
            <ns3:hr>94</ns3:hr>
          </ns3:TrackPointExtension>
        </extensions>
      </trkpt>
      <trkpt lat="36.8687102012336254119873046875" lon="-118.49231050349771976470947265625">
        <ele>2309.39990234375</ele>
        <time>2021-06-28T02:01:58.000Z</time>
        <extensions>
          <ns3:TrackPointExtension>
            <ns3:atemp>30.0</ns3:atemp>
            <ns3:hr>94</ns3:hr>
          </ns3:TrackPointExtension>
        </extensions>
      </trkpt>
      <trkpt lat="36.868683882057666778564453125" lon="-118.49234553985297679901123046875">
        <ele>2309.199951171875</ele>
        <time>2021-06-28T02:02:03.000Z</time>
        <extensions>
          <ns3:TrackPointExtension>
            <ns3:atemp>30.0</ns3:atemp>
            <ns3:hr>91</ns3:hr>
          </ns3:TrackPointExtension>
        </extensions>
      </trkpt>
      <trkpt lat="36.8686746619641780853271484375" lon="-118.4923823364078998565673828125">
        <ele>2308.800048828125</ele>
        <time>2021-06-28T02:02:07.000Z</time>
        <extensions>
          <ns3:TrackPointExtension>
            <ns3:atemp>30.0</ns3:atemp>
            <ns3:hr>89</ns3:hr>
          </ns3:TrackPointExtension>
        </extensions>
      </trkpt>
      <trkpt lat="36.868670471012592315673828125" lon="-118.4923913888633251190185546875">
        <ele>2308.60009765625</ele>
        <time>2021-06-28T02:02:08.000Z</time>
        <extensions>
          <ns3:TrackPointExtension>
            <ns3:atemp>30.0</ns3:atemp>
            <ns3:hr>88</ns3:hr>
          </ns3:TrackPointExtension>
        </extensions>
      </trkpt>
      <trkpt lat="36.8686277233064174652099609375" lon="-118.49241930060088634490966796875">
        <ele>2308.39990234375</ele>
        <time>2021-06-28T02:02:12.000Z</time>
        <extensions>
          <ns3:TrackPointExtension>
            <ns3:atemp>30.0</ns3:atemp>
            <ns3:hr>85</ns3:hr>
          </ns3:TrackPointExtension>
        </extensions>
      </trkpt>
      <trkpt lat="36.86855622567236423492431640625" lon="-118.492419384419918060302734375">
        <ele>2308</ele>
        <time>2021-06-28T02:02:15.000Z</time>
        <extensions>
          <ns3:TrackPointExtension>
            <ns3:atemp>30.0</ns3:atemp>
            <ns3:hr>83</ns3:hr>
          </ns3:TrackPointExtension>
        </extensions>
      </trkpt>
      <trkpt lat="36.8684996478259563446044921875" lon="-118.4924557618796825408935546875">
        <ele>2307.60009765625</ele>
        <time>2021-06-28T02:02:19.000Z</time>
        <extensions>
          <ns3:TrackPointExtension>
            <ns3:atemp>30.0</ns3:atemp>
            <ns3:hr>82</ns3:hr>
          </ns3:TrackPointExtension>
        </extensions>
      </trkpt>
      <trkpt lat="36.86849386431276798248291015625" lon="-118.49246975965797901153564453125">
        <ele>2307.39990234375</ele>
        <time>2021-06-28T02:02:20.000Z</time>
        <extensions>
          <ns3:TrackPointExtension>
            <ns3:atemp>30.0</ns3:atemp>
            <ns3:hr>82</ns3:hr>
          </ns3:TrackPointExtension>
        </extensions>
      </trkpt>
      <trkpt lat="36.868489086627960205078125" lon="-118.4924842603504657745361328125">
        <ele>2307.39990234375</ele>
        <time>2021-06-28T02:02:21.000Z</time>
        <extensions>
          <ns3:TrackPointExtension>
            <ns3:atemp>30.0</ns3:atemp>
            <ns3:hr>82</ns3:hr>
          </ns3:TrackPointExtension>
        </extensions>
      </trkpt>
      <trkpt lat="36.86848841607570648193359375" lon="-118.49249557591974735260009765625">
        <ele>2307.39990234375</ele>
        <time>2021-06-28T02:02:22.000Z</time>
        <extensions>
          <ns3:TrackPointExtension>
            <ns3:atemp>30.0</ns3:atemp>
            <ns3:hr>82</ns3:hr>
          </ns3:TrackPointExtension>
        </extensions>
      </trkpt>
      <trkpt lat="36.86847860924899578094482421875" lon="-118.49251586012542247772216796875">
        <ele>2307</ele>
        <time>2021-06-28T02:02:24.000Z</time>
        <extensions>
          <ns3:TrackPointExtension>
            <ns3:atemp>30.0</ns3:atemp>
            <ns3:hr>81</ns3:hr>
          </ns3:TrackPointExtension>
        </extensions>
      </trkpt>
      <trkpt lat="36.86847777105867862701416015625" lon="-118.4925310313701629638671875">
        <ele>2307</ele>
        <time>2021-06-28T02:02:25.000Z</time>
        <extensions>
          <ns3:TrackPointExtension>
            <ns3:atemp>30.0</ns3:atemp>
            <ns3:hr>82</ns3:hr>
          </ns3:TrackPointExtension>
        </extensions>
      </trkpt>
      <trkpt lat="36.8684751726686954498291015625" lon="-118.4925690852105617523193359375">
        <ele>2306.199951171875</ele>
        <time>2021-06-28T02:02:28.000Z</time>
        <extensions>
          <ns3:TrackPointExtension>
            <ns3:atemp>30.0</ns3:atemp>
            <ns3:hr>81</ns3:hr>
          </ns3:TrackPointExtension>
        </extensions>
      </trkpt>
      <trkpt lat="36.86847760342061519622802734375" lon="-118.49261543713510036468505859375">
        <ele>2306.199951171875</ele>
        <time>2021-06-28T02:02:32.000Z</time>
        <extensions>
          <ns3:TrackPointExtension>
            <ns3:atemp>30.0</ns3:atemp>
            <ns3:hr>80</ns3:hr>
          </ns3:TrackPointExtension>
        </extensions>
      </trkpt>
      <trkpt lat="36.86848866753280162811279296875" lon="-118.49269590340554714202880859375">
        <ele>2305.800048828125</ele>
        <time>2021-06-28T02:02:38.000Z</time>
        <extensions>
          <ns3:TrackPointExtension>
            <ns3:atemp>30.0</ns3:atemp>
            <ns3:hr>81</ns3:hr>
          </ns3:TrackPointExtension>
        </extensions>
      </trkpt>
      <trkpt lat="36.8684403039515018463134765625" lon="-118.49273580126464366912841796875">
        <ele>2305.60009765625</ele>
        <time>2021-06-28T02:02:43.000Z</time>
        <extensions>
          <ns3:TrackPointExtension>
            <ns3:atemp>30.0</ns3:atemp>
            <ns3:hr>81</ns3:hr>
          </ns3:TrackPointExtension>
        </extensions>
      </trkpt>
      <trkpt lat="36.868413984775543212890625" lon="-118.49274535663425922393798828125">
        <ele>2305.60009765625</ele>
        <time>2021-06-28T02:02:45.000Z</time>
        <extensions>
          <ns3:TrackPointExtension>
            <ns3:atemp>30.0</ns3:atemp>
            <ns3:hr>82</ns3:hr>
          </ns3:TrackPointExtension>
        </extensions>
      </trkpt>
      <trkpt lat="36.86837936751544475555419921875" lon="-118.49277938716113567352294921875">
        <ele>2305</ele>
        <time>2021-06-28T02:02:49.000Z</time>
        <extensions>
          <ns3:TrackPointExtension>
            <ns3:atemp>30.0</ns3:atemp>
            <ns3:hr>83</ns3:hr>
          </ns3:TrackPointExtension>
        </extensions>
      </trkpt>
      <trkpt lat="36.86839126981794834136962890625" lon="-118.49283152259886264801025390625">
        <ele>2305</ele>
        <time>2021-06-28T02:02:51.000Z</time>
        <extensions>
          <ns3:TrackPointExtension>
            <ns3:atemp>30.0</ns3:atemp>
            <ns3:hr>83</ns3:hr>
          </ns3:TrackPointExtension>
        </extensions>
      </trkpt>
      <trkpt lat="36.86839244328439235687255859375" lon="-118.49292724393308162689208984375">
        <ele>2304.800048828125</ele>
        <time>2021-06-28T02:02:55.000Z</time>
        <extensions>
          <ns3:TrackPointExtension>
            <ns3:atemp>30.0</ns3:atemp>
            <ns3:hr>82</ns3:hr>
          </ns3:TrackPointExtension>
        </extensions>
      </trkpt>
      <trkpt lat="36.8683963827788829803466796875" lon="-118.492959849536418914794921875">
        <ele>2304.60009765625</ele>
        <time>2021-06-28T02:02:57.000Z</time>
        <extensions>
          <ns3:TrackPointExtension>
            <ns3:atemp>30.0</ns3:atemp>
            <ns3:hr>82</ns3:hr>
          </ns3:TrackPointExtension>
        </extensions>
      </trkpt>
      <trkpt lat="36.8684004060924053192138671875" lon="-118.49297535605728626251220703125">
        <ele>2304.60009765625</ele>
        <time>2021-06-28T02:02:58.000Z</time>
        <extensions>
          <ns3:TrackPointExtension>
            <ns3:atemp>30.0</ns3:atemp>
            <ns3:hr>83</ns3:hr>
          </ns3:TrackPointExtension>
        </extensions>
      </trkpt>
      <trkpt lat="36.868416331708431243896484375" lon="-118.49302665330469608306884765625">
        <ele>2304.60009765625</ele>
        <time>2021-06-28T02:03:02.000Z</time>
        <extensions>
          <ns3:TrackPointExtension>
            <ns3:atemp>30.0</ns3:atemp>
            <ns3:hr>85</ns3:hr>
          </ns3:TrackPointExtension>
        </extensions>
      </trkpt>
      <trkpt lat="36.8684195168316364288330078125" lon="-118.493044339120388031005859375">
        <ele>2304.800048828125</ele>
        <time>2021-06-28T02:03:03.000Z</time>
        <extensions>
          <ns3:TrackPointExtension>
            <ns3:atemp>30.0</ns3:atemp>
            <ns3:hr>86</ns3:hr>
          </ns3:TrackPointExtension>
        </extensions>
      </trkpt>
      <trkpt lat="36.8684260547161102294921875" lon="-118.4931316785514354705810546875">
        <ele>2304.800048828125</ele>
        <time>2021-06-28T02:03:07.000Z</time>
        <extensions>
          <ns3:TrackPointExtension>
            <ns3:atemp>30.0</ns3:atemp>
            <ns3:hr>84</ns3:hr>
          </ns3:TrackPointExtension>
        </extensions>
      </trkpt>
      <trkpt lat="36.8684289045631885528564453125" lon="-118.4931558184325695037841796875">
        <ele>2304.60009765625</ele>
        <time>2021-06-28T02:03:08.000Z</time>
        <extensions>
          <ns3:TrackPointExtension>
            <ns3:atemp>29.0</ns3:atemp>
            <ns3:hr>87</ns3:hr>
          </ns3:TrackPointExtension>
        </extensions>
      </trkpt>
      <trkpt lat="36.86842949129641056060791015625" lon="-118.493179120123386383056640625">
        <ele>2304.60009765625</ele>
        <time>2021-06-28T02:03:09.000Z</time>
        <extensions>
          <ns3:TrackPointExtension>
            <ns3:atemp>30.0</ns3:atemp>
            <ns3:hr>87</ns3:hr>
          </ns3:TrackPointExtension>
        </extensions>
      </trkpt>
      <trkpt lat="36.8684359453618526458740234375" lon="-118.49320753477513790130615234375">
        <ele>2304.60009765625</ele>
        <time>2021-06-28T02:03:10.000Z</time>
        <extensions>
          <ns3:TrackPointExtension>
            <ns3:atemp>30.0</ns3:atemp>
            <ns3:hr>89</ns3:hr>
          </ns3:TrackPointExtension>
        </extensions>
      </trkpt>
      <trkpt lat="36.8684356100857257843017578125" lon="-118.49325313232839107513427734375">
        <ele>2304.39990234375</ele>
        <time>2021-06-28T02:03:12.000Z</time>
        <extensions>
          <ns3:TrackPointExtension>
            <ns3:atemp>29.0</ns3:atemp>
            <ns3:hr>90</ns3:hr>
          </ns3:TrackPointExtension>
        </extensions>
      </trkpt>
      <trkpt lat="36.8684232048690319061279296875" lon="-118.49330644123256206512451171875">
        <ele>2304.199951171875</ele>
        <time>2021-06-28T02:03:15.000Z</time>
        <extensions>
          <ns3:TrackPointExtension>
            <ns3:atemp>30.0</ns3:atemp>
            <ns3:hr>92</ns3:hr>
          </ns3:TrackPointExtension>
        </extensions>
      </trkpt>
      <trkpt lat="36.86841691844165325164794921875" lon="-118.493313901126384735107421875">
        <ele>2304</ele>
        <time>2021-06-28T02:03:16.000Z</time>
        <extensions>
          <ns3:TrackPointExtension>
            <ns3:atemp>30.0</ns3:atemp>
            <ns3:hr>93</ns3:hr>
          </ns3:TrackPointExtension>
        </extensions>
      </trkpt>
      <trkpt lat="36.86838372610509395599365234375" lon="-118.49330241791903972625732421875">
        <ele>2304.199951171875</ele>
        <time>2021-06-28T02:03:18.000Z</time>
        <extensions>
          <ns3:TrackPointExtension>
            <ns3:atemp>30.0</ns3:atemp>
            <ns3:hr>96</ns3:hr>
          </ns3:TrackPointExtension>
        </extensions>
      </trkpt>
      <trkpt lat="36.86834760010242462158203125" lon="-118.49329185672104358673095703125">
        <ele>2304.199951171875</ele>
        <time>2021-06-28T02:03:20.000Z</time>
        <extensions>
          <ns3:TrackPointExtension>
            <ns3:atemp>30.0</ns3:atemp>
            <ns3:hr>97</ns3:hr>
          </ns3:TrackPointExtension>
        </extensions>
      </trkpt>
      <trkpt lat="36.86834030784666538238525390625" lon="-118.49329923279583454132080078125">
        <ele>2303.800048828125</ele>
        <time>2021-06-28T02:03:21.000Z</time>
        <extensions>
          <ns3:TrackPointExtension>
            <ns3:atemp>30.0</ns3:atemp>
            <ns3:hr>99</ns3:hr>
          </ns3:TrackPointExtension>
        </extensions>
      </trkpt>
      <trkpt lat="36.86835774220526218414306640625" lon="-118.49336662329733371734619140625">
        <ele>2303.800048828125</ele>
        <time>2021-06-28T02:03:25.000Z</time>
        <extensions>
          <ns3:TrackPointExtension>
            <ns3:atemp>30.0</ns3:atemp>
            <ns3:hr>102</ns3:hr>
          </ns3:TrackPointExtension>
        </extensions>
      </trkpt>
      <trkpt lat="36.8683554790914058685302734375" lon="-118.49338196218013763427734375">
        <ele>2303.800048828125</ele>
        <time>2021-06-28T02:03:26.000Z</time>
        <extensions>
          <ns3:TrackPointExtension>
            <ns3:atemp>30.0</ns3:atemp>
            <ns3:hr>102</ns3:hr>
          </ns3:TrackPointExtension>
        </extensions>
      </trkpt>
      <trkpt lat="36.868349276483058929443359375" lon="-118.49339294247329235076904296875">
        <ele>2303.800048828125</ele>
        <time>2021-06-28T02:03:27.000Z</time>
        <extensions>
          <ns3:TrackPointExtension>
            <ns3:atemp>30.0</ns3:atemp>
            <ns3:hr>102</ns3:hr>
          </ns3:TrackPointExtension>
        </extensions>
      </trkpt>
      <trkpt lat="36.86834156513214111328125" lon="-118.49341406486928462982177734375">
        <ele>2303.39990234375</ele>
        <time>2021-06-28T02:03:29.000Z</time>
        <extensions>
          <ns3:TrackPointExtension>
            <ns3:atemp>30.0</ns3:atemp>
            <ns3:hr>102</ns3:hr>
          </ns3:TrackPointExtension>
        </extensions>
      </trkpt>
      <trkpt lat="36.868344247341156005859375" lon="-118.493448682129383087158203125">
        <ele>2303.199951171875</ele>
        <time>2021-06-28T02:03:32.000Z</time>
        <extensions>
          <ns3:TrackPointExtension>
            <ns3:atemp>30.0</ns3:atemp>
            <ns3:hr>102</ns3:hr>
          </ns3:TrackPointExtension>
        </extensions>
      </trkpt>
      <trkpt lat="36.868351958692073822021484375" lon="-118.49350056611001491546630859375">
        <ele>2303.199951171875</ele>
        <time>2021-06-28T02:03:36.000Z</time>
        <extensions>
          <ns3:TrackPointExtension>
            <ns3:atemp>30.0</ns3:atemp>
            <ns3:hr>99</ns3:hr>
          </ns3:TrackPointExtension>
        </extensions>
      </trkpt>
      <trkpt lat="36.868348605930805206298828125" lon="-118.49353023804724216461181640625">
        <ele>2303.199951171875</ele>
        <time>2021-06-28T02:03:38.000Z</time>
        <extensions>
          <ns3:TrackPointExtension>
            <ns3:atemp>30.0</ns3:atemp>
            <ns3:hr>97</ns3:hr>
          </ns3:TrackPointExtension>
        </extensions>
      </trkpt>
      <trkpt lat="36.86834282241761684417724609375" lon="-118.493562005460262298583984375">
        <ele>2302.800048828125</ele>
        <time>2021-06-28T02:03:40.000Z</time>
        <extensions>
          <ns3:TrackPointExtension>
            <ns3:atemp>30.0</ns3:atemp>
            <ns3:hr>96</ns3:hr>
          </ns3:TrackPointExtension>
        </extensions>
      </trkpt>
      <trkpt lat="36.868349276483058929443359375" lon="-118.49360735155642032623291015625">
        <ele>2302.800048828125</ele>
        <time>2021-06-28T02:03:42.000Z</time>
        <extensions>
          <ns3:TrackPointExtension>
            <ns3:atemp>30.0</ns3:atemp>
            <ns3:hr>94</ns3:hr>
          </ns3:TrackPointExtension>
        </extensions>
      </trkpt>
      <trkpt lat="36.86835807748138904571533203125" lon="-118.49363802932202816009521484375">
        <ele>2302.800048828125</ele>
        <time>2021-06-28T02:03:44.000Z</time>
        <extensions>
          <ns3:TrackPointExtension>
            <ns3:atemp>30.0</ns3:atemp>
            <ns3:hr>94</ns3:hr>
          </ns3:TrackPointExtension>
        </extensions>
      </trkpt>
      <trkpt lat="36.86839722096920013427734375" lon="-118.49370642565190792083740234375">
        <ele>2303.60009765625</ele>
        <time>2021-06-28T02:03:49.000Z</time>
        <extensions>
          <ns3:TrackPointExtension>
            <ns3:atemp>30.0</ns3:atemp>
            <ns3:hr>93</ns3:hr>
          </ns3:TrackPointExtension>
        </extensions>
      </trkpt>
      <trkpt lat="36.8683658726513385772705078125" lon="-118.49375219084322452545166015625">
        <ele>2303.60009765625</ele>
        <time>2021-06-28T02:03:53.000Z</time>
        <extensions>
          <ns3:TrackPointExtension>
            <ns3:atemp>30.0</ns3:atemp>
            <ns3:hr>93</ns3:hr>
          </ns3:TrackPointExtension>
        </extensions>
      </trkpt>
      <trkpt lat="36.8683963827788829803466796875" lon="-118.4938662685453891754150390625">
        <ele>2303.60009765625</ele>
        <time>2021-06-28T02:03:59.000Z</time>
        <extensions>
          <ns3:TrackPointExtension>
            <ns3:atemp>30.0</ns3:atemp>
            <ns3:hr>91</ns3:hr>
          </ns3:TrackPointExtension>
        </extensions>
      </trkpt>
      <trkpt lat="36.86839613132178783416748046875" lon="-118.49388747476041316986083984375">
        <ele>2303.800048828125</ele>
        <time>2021-06-28T02:04:01.000Z</time>
        <extensions>
          <ns3:TrackPointExtension>
            <ns3:atemp>30.0</ns3:atemp>
            <ns3:hr>92</ns3:hr>
          </ns3:TrackPointExtension>
        </extensions>
      </trkpt>
      <trkpt lat="36.86840048991143703460693359375" lon="-118.493918739259243011474609375">
        <ele>2304</ele>
        <time>2021-06-28T02:04:04.000Z</time>
        <extensions>
          <ns3:TrackPointExtension>
            <ns3:atemp>30.0</ns3:atemp>
            <ns3:hr>91</ns3:hr>
          </ns3:TrackPointExtension>
        </extensions>
      </trkpt>
      <trkpt lat="36.86839780770242214202880859375" lon="-118.49393005482852458953857421875">
        <ele>2304</ele>
        <time>2021-06-28T02:04:05.000Z</time>
        <extensions>
          <ns3:TrackPointExtension>
            <ns3:atemp>30.0</ns3:atemp>
            <ns3:hr>93</ns3:hr>
          </ns3:TrackPointExtension>
        </extensions>
      </trkpt>
      <trkpt lat="36.86838422901928424835205078125" lon="-118.4939775802195072174072265625">
        <ele>2303.800048828125</ele>
        <time>2021-06-28T02:04:08.000Z</time>
        <extensions>
          <ns3:TrackPointExtension>
            <ns3:atemp>30.0</ns3:atemp>
            <ns3:hr>93</ns3:hr>
          </ns3:TrackPointExtension>
        </extensions>
      </trkpt>
      <trkpt lat="36.86838104389607906341552734375" lon="-118.4939966909587383270263671875">
        <ele>2304.199951171875</ele>
        <time>2021-06-28T02:04:10.000Z</time>
        <extensions>
          <ns3:TrackPointExtension>
            <ns3:atemp>30.0</ns3:atemp>
            <ns3:hr>93</ns3:hr>
          </ns3:TrackPointExtension>
        </extensions>
      </trkpt>
      <trkpt lat="36.868376433849334716796875" lon="-118.49401840008795261383056640625">
        <ele>2304.199951171875</ele>
        <time>2021-06-28T02:04:12.000Z</time>
        <extensions>
          <ns3:TrackPointExtension>
            <ns3:atemp>30.0</ns3:atemp>
            <ns3:hr>95</ns3:hr>
          </ns3:TrackPointExtension>
        </extensions>
      </trkpt>
      <trkpt lat="36.86831180937588214874267578125" lon="-118.49406567402184009552001953125">
        <ele>2304.39990234375</ele>
        <time>2021-06-28T02:04:18.000Z</time>
        <extensions>
          <ns3:TrackPointExtension>
            <ns3:atemp>30.0</ns3:atemp>
            <ns3:hr>95</ns3:hr>
          </ns3:TrackPointExtension>
        </extensions>
      </trkpt>
      <trkpt lat="36.86827392317354679107666015625" lon="-118.494073636829853057861328125">
        <ele>2304.60009765625</ele>
        <time>2021-06-28T02:04:20.000Z</time>
        <extensions>
          <ns3:TrackPointExtension>
            <ns3:atemp>30.0</ns3:atemp>
            <ns3:hr>96</ns3:hr>
          </ns3:TrackPointExtension>
        </extensions>
      </trkpt>
      <trkpt lat="36.86826922930777072906494140625" lon="-118.4941054880619049072265625">
        <ele>2304.800048828125</ele>
        <time>2021-06-28T02:04:22.000Z</time>
        <extensions>
          <ns3:TrackPointExtension>
            <ns3:atemp>30.0</ns3:atemp>
            <ns3:hr>98</ns3:hr>
          </ns3:TrackPointExtension>
        </extensions>
      </trkpt>
      <trkpt lat="36.8682704865932464599609375" lon="-118.49411998875439167022705078125">
        <ele>2304.800048828125</ele>
        <time>2021-06-28T02:04:23.000Z</time>
        <extensions>
          <ns3:TrackPointExtension>
            <ns3:atemp>30.0</ns3:atemp>
            <ns3:hr>99</ns3:hr>
          </ns3:TrackPointExtension>
        </extensions>
      </trkpt>
      <trkpt lat="36.86828515492379665374755859375" lon="-118.49419475533068180084228515625">
        <ele>2304.800048828125</ele>
        <time>2021-06-28T02:04:30.000Z</time>
        <extensions>
          <ns3:TrackPointExtension>
            <ns3:atemp>30.0</ns3:atemp>
            <ns3:hr>99</ns3:hr>
          </ns3:TrackPointExtension>
        </extensions>
      </trkpt>
      <trkpt lat="36.86828993260860443115234375" lon="-118.49420883692800998687744140625">
        <ele>2304.800048828125</ele>
        <time>2021-06-28T02:04:31.000Z</time>
        <extensions>
          <ns3:TrackPointExtension>
            <ns3:atemp>30.0</ns3:atemp>
            <ns3:hr>99</ns3:hr>
          </ns3:TrackPointExtension>
        </extensions>
      </trkpt>
      <trkpt lat="36.86829152517020702362060546875" lon="-118.49422073923051357269287109375">
        <ele>2305</ele>
        <time>2021-06-28T02:04:32.000Z</time>
        <extensions>
          <ns3:TrackPointExtension>
            <ns3:atemp>30.0</ns3:atemp>
            <ns3:hr>99</ns3:hr>
          </ns3:TrackPointExtension>
        </extensions>
      </trkpt>
      <trkpt lat="36.8682736717164516448974609375" lon="-118.49424831569194793701171875">
        <ele>2305.39990234375</ele>
        <time>2021-06-28T02:04:35.000Z</time>
        <extensions>
          <ns3:TrackPointExtension>
            <ns3:atemp>30.0</ns3:atemp>
            <ns3:hr>101</ns3:hr>
          </ns3:TrackPointExtension>
        </extensions>
      </trkpt>
      <trkpt lat="36.8682532198727130889892578125" lon="-118.49427555687725543975830078125">
        <ele>2305.39990234375</ele>
        <time>2021-06-28T02:04:38.000Z</time>
        <extensions>
          <ns3:TrackPointExtension>
            <ns3:atemp>30.0</ns3:atemp>
            <ns3:hr>104</ns3:hr>
          </ns3:TrackPointExtension>
        </extensions>
      </trkpt>
      <trkpt lat="36.86824324540793895721435546875" lon="-118.4942907281219959259033203125">
        <ele>2305.60009765625</ele>
        <time>2021-06-28T02:04:39.000Z</time>
        <extensions>
          <ns3:TrackPointExtension>
            <ns3:atemp>30.0</ns3:atemp>
            <ns3:hr>105</ns3:hr>
          </ns3:TrackPointExtension>
        </extensions>
      </trkpt>
      <trkpt lat="36.86823050491511821746826171875" lon="-118.49430740810930728912353515625">
        <ele>2305.800048828125</ele>
        <time>2021-06-28T02:04:40.000Z</time>
        <extensions>
          <ns3:TrackPointExtension>
            <ns3:atemp>30.0</ns3:atemp>
            <ns3:hr>106</ns3:hr>
          </ns3:TrackPointExtension>
        </extensions>
      </trkpt>
      <trkpt lat="36.86820410192012786865234375" lon="-118.494331128895282745361328125">
        <ele>2306</ele>
        <time>2021-06-28T02:04:42.000Z</time>
        <extensions>
          <ns3:TrackPointExtension>
            <ns3:atemp>30.0</ns3:atemp>
            <ns3:hr>108</ns3:hr>
          </ns3:TrackPointExtension>
        </extensions>
      </trkpt>
      <trkpt lat="36.86821089126169681549072265625" lon="-118.49438569508492946624755859375">
        <ele>2306.39990234375</ele>
        <time>2021-06-28T02:04:44.000Z</time>
        <extensions>
          <ns3:TrackPointExtension>
            <ns3:atemp>30.0</ns3:atemp>
            <ns3:hr>108</ns3:hr>
          </ns3:TrackPointExtension>
        </extensions>
      </trkpt>
      <trkpt lat="36.86822145245969295501708984375" lon="-118.49446129985153675079345703125">
        <ele>2307</ele>
        <time>2021-06-28T02:04:49.000Z</time>
        <extensions>
          <ns3:TrackPointExtension>
            <ns3:atemp>30.0</ns3:atemp>
            <ns3:hr>108</ns3:hr>
          </ns3:TrackPointExtension>
        </extensions>
      </trkpt>
      <trkpt lat="36.8682114779949188232421875" lon="-118.4944617189466953277587890625">
        <ele>2307.199951171875</ele>
        <time>2021-06-28T02:04:50.000Z</time>
        <extensions>
          <ns3:TrackPointExtension>
            <ns3:atemp>30.0</ns3:atemp>
            <ns3:hr>108</ns3:hr>
          </ns3:TrackPointExtension>
        </extensions>
      </trkpt>
      <trkpt lat="36.86820854432880878448486328125" lon="-118.49447806365787982940673828125">
        <ele>2307.39990234375</ele>
        <time>2021-06-28T02:04:52.000Z</time>
        <extensions>
          <ns3:TrackPointExtension>
            <ns3:atemp>30.0</ns3:atemp>
            <ns3:hr>108</ns3:hr>
          </ns3:TrackPointExtension>
        </extensions>
      </trkpt>
      <trkpt lat="36.868216507136821746826171875" lon="-118.4944982640445232391357421875">
        <ele>2307.39990234375</ele>
        <time>2021-06-28T02:04:54.000Z</time>
        <extensions>
          <ns3:TrackPointExtension>
            <ns3:atemp>30.0</ns3:atemp>
            <ns3:hr>108</ns3:hr>
          </ns3:TrackPointExtension>
        </extensions>
      </trkpt>
      <trkpt lat="36.86822782270610332489013671875" lon="-118.49452952854335308074951171875">
        <ele>2307.60009765625</ele>
        <time>2021-06-28T02:04:57.000Z</time>
        <extensions>
          <ns3:TrackPointExtension>
            <ns3:atemp>30.0</ns3:atemp>
            <ns3:hr>110</ns3:hr>
          </ns3:TrackPointExtension>
        </extensions>
      </trkpt>
      <trkpt lat="36.86822153627872467041015625" lon="-118.4945468790829181671142578125">
        <ele>2308.199951171875</ele>
        <time>2021-06-28T02:04:59.000Z</time>
        <extensions>
          <ns3:TrackPointExtension>
            <ns3:atemp>30.0</ns3:atemp>
            <ns3:hr>110</ns3:hr>
          </ns3:TrackPointExtension>
        </extensions>
      </trkpt>
      <trkpt lat="36.86821483075618743896484375" lon="-118.4945549257099628448486328125">
        <ele>2308.39990234375</ele>
        <time>2021-06-28T02:05:00.000Z</time>
        <extensions>
          <ns3:TrackPointExtension>
            <ns3:atemp>30.0</ns3:atemp>
            <ns3:hr>110</ns3:hr>
          </ns3:TrackPointExtension>
        </extensions>
      </trkpt>
      <trkpt lat="36.868204772472381591796875" lon="-118.49457596428692340850830078125">
        <ele>2308.39990234375</ele>
        <time>2021-06-28T02:05:02.000Z</time>
        <extensions>
          <ns3:TrackPointExtension>
            <ns3:atemp>30.0</ns3:atemp>
            <ns3:hr>110</ns3:hr>
          </ns3:TrackPointExtension>
        </extensions>
      </trkpt>
      <trkpt lat="36.868194043636322021484375" lon="-118.494589626789093017578125">
        <ele>2308.39990234375</ele>
        <time>2021-06-28T02:05:04.000Z</time>
        <extensions>
          <ns3:TrackPointExtension>
            <ns3:atemp>30.0</ns3:atemp>
            <ns3:hr>110</ns3:hr>
          </ns3:TrackPointExtension>
        </extensions>
      </trkpt>
      <trkpt lat="36.8681623600423336029052734375" lon="-118.49459239281713962554931640625">
        <ele>2308.39990234375</ele>
        <time>2021-06-28T02:05:06.000Z</time>
        <extensions>
          <ns3:TrackPointExtension>
            <ns3:atemp>30.0</ns3:atemp>
            <ns3:hr>110</ns3:hr>
          </ns3:TrackPointExtension>
        </extensions>
      </trkpt>
      <trkpt lat="36.86815657652914524078369140625" lon="-118.49459239281713962554931640625">
        <ele>2308.39990234375</ele>
        <time>2021-06-28T02:05:07.000Z</time>
        <extensions>
          <ns3:TrackPointExtension>
            <ns3:atemp>30.0</ns3:atemp>
            <ns3:hr>112</ns3:hr>
          </ns3:TrackPointExtension>
        </extensions>
      </trkpt>
      <trkpt lat="36.86815104447305202484130859375" lon="-118.49459138698875904083251953125">
        <ele>2308.39990234375</ele>
        <time>2021-06-28T02:05:08.000Z</time>
        <extensions>
          <ns3:TrackPointExtension>
            <ns3:atemp>30.0</ns3:atemp>
            <ns3:hr>112</ns3:hr>
          </ns3:TrackPointExtension>
        </extensions>
      </trkpt>
      <trkpt lat="36.86809069477021694183349609375" lon="-118.494613431394100189208984375">
        <ele>2308.199951171875</ele>
        <time>2021-06-28T02:05:13.000Z</time>
        <extensions>
          <ns3:TrackPointExtension>
            <ns3:atemp>30.0</ns3:atemp>
            <ns3:hr>113</ns3:hr>
          </ns3:TrackPointExtension>
        </extensions>
      </trkpt>
      <trkpt lat="36.8680835701525211334228515625" lon="-118.49462139420211315155029296875">
        <ele>2308</ele>
        <time>2021-06-28T02:05:14.000Z</time>
        <extensions>
          <ns3:TrackPointExtension>
            <ns3:atemp>30.0</ns3:atemp>
            <ns3:hr>114</ns3:hr>
          </ns3:TrackPointExtension>
        </extensions>
      </trkpt>
      <trkpt lat="36.86807393096387386322021484375" lon="-118.4946427680552005767822265625">
        <ele>2308</ele>
        <time>2021-06-28T02:05:16.000Z</time>
        <extensions>
          <ns3:TrackPointExtension>
            <ns3:atemp>30.0</ns3:atemp>
            <ns3:hr>114</ns3:hr>
          </ns3:TrackPointExtension>
        </extensions>
      </trkpt>
      <trkpt lat="36.868065297603607177734375" lon="-118.49465408362448215484619140625">
        <ele>2308</ele>
        <time>2021-06-28T02:05:17.000Z</time>
        <extensions>
          <ns3:TrackPointExtension>
            <ns3:atemp>30.0</ns3:atemp>
            <ns3:hr>114</ns3:hr>
          </ns3:TrackPointExtension>
        </extensions>
      </trkpt>
      <trkpt lat="36.86805951409041881561279296875" lon="-118.4946660697460174560546875">
        <ele>2308</ele>
        <time>2021-06-28T02:05:18.000Z</time>
        <extensions>
          <ns3:TrackPointExtension>
            <ns3:atemp>30.0</ns3:atemp>
            <ns3:hr>113</ns3:hr>
          </ns3:TrackPointExtension>
        </extensions>
      </trkpt>
      <trkpt lat="36.86801726929843425750732421875" lon="-118.494723401963710784912109375">
        <ele>2308</ele>
        <time>2021-06-28T02:05:23.000Z</time>
        <extensions>
          <ns3:TrackPointExtension>
            <ns3:atemp>30.0</ns3:atemp>
            <ns3:hr>111</ns3:hr>
          </ns3:TrackPointExtension>
        </extensions>
      </trkpt>
      <trkpt lat="36.86801006086170673370361328125" lon="-118.4948097355663776397705078125">
        <ele>2308.199951171875</ele>
        <time>2021-06-28T02:05:27.000Z</time>
        <extensions>
          <ns3:TrackPointExtension>
            <ns3:atemp>30.0</ns3:atemp>
            <ns3:hr>110</ns3:hr>
          </ns3:TrackPointExtension>
        </extensions>
      </trkpt>
      <trkpt lat="36.86800033785402774810791015625" lon="-118.494836054742336273193359375">
        <ele>2308.199951171875</ele>
        <time>2021-06-28T02:05:29.000Z</time>
        <extensions>
          <ns3:TrackPointExtension>
            <ns3:atemp>30.0</ns3:atemp>
            <ns3:hr>110</ns3:hr>
          </ns3:TrackPointExtension>
        </extensions>
      </trkpt>
      <trkpt lat="36.86800302006304264068603515625" lon="-118.49489078857004642486572265625">
        <ele>2308.39990234375</ele>
        <time>2021-06-28T02:05:32.000Z</time>
        <extensions>
          <ns3:TrackPointExtension>
            <ns3:atemp>30.0</ns3:atemp>
            <ns3:hr>108</ns3:hr>
          </ns3:TrackPointExtension>
        </extensions>
      </trkpt>
      <trkpt lat="36.867995224893093109130859375" lon="-118.49490788765251636505126953125">
        <ele>2308.39990234375</ele>
        <time>2021-06-28T02:05:33.000Z</time>
        <extensions>
          <ns3:TrackPointExtension>
            <ns3:atemp>30.0</ns3:atemp>
            <ns3:hr>108</ns3:hr>
          </ns3:TrackPointExtension>
        </extensions>
      </trkpt>
      <trkpt lat="36.86797468923032283782958984375" lon="-118.49494426511228084564208984375">
        <ele>2308.800048828125</ele>
        <time>2021-06-28T02:05:37.000Z</time>
        <extensions>
          <ns3:TrackPointExtension>
            <ns3:atemp>30.0</ns3:atemp>
            <ns3:hr>107</ns3:hr>
          </ns3:TrackPointExtension>
        </extensions>
      </trkpt>
      <trkpt lat="36.867958009243011474609375" lon="-118.49495750851929187774658203125">
        <ele>2308.800048828125</ele>
        <time>2021-06-28T02:05:40.000Z</time>
        <extensions>
          <ns3:TrackPointExtension>
            <ns3:atemp>30.0</ns3:atemp>
            <ns3:hr>103</ns3:hr>
          </ns3:TrackPointExtension>
        </extensions>
      </trkpt>
      <trkpt lat="36.867933534085750579833984375" lon="-118.49496723152697086334228515625">
        <ele>2308.60009765625</ele>
        <time>2021-06-28T02:05:42.000Z</time>
        <extensions>
          <ns3:TrackPointExtension>
            <ns3:atemp>30.0</ns3:atemp>
            <ns3:hr>105</ns3:hr>
          </ns3:TrackPointExtension>
        </extensions>
      </trkpt>
      <trkpt lat="36.86791903339326381683349609375" lon="-118.49498013965785503387451171875">
        <ele>2308.60009765625</ele>
        <time>2021-06-28T02:05:43.000Z</time>
        <extensions>
          <ns3:TrackPointExtension>
            <ns3:atemp>30.0</ns3:atemp>
            <ns3:hr>106</ns3:hr>
          </ns3:TrackPointExtension>
        </extensions>
      </trkpt>
      <trkpt lat="36.86790176667273044586181640625" lon="-118.4950326941907405853271484375">
        <ele>2308.60009765625</ele>
        <time>2021-06-28T02:05:47.000Z</time>
        <extensions>
          <ns3:TrackPointExtension>
            <ns3:atemp>30.0</ns3:atemp>
            <ns3:hr>109</ns3:hr>
          </ns3:TrackPointExtension>
        </extensions>
      </trkpt>
      <trkpt lat="36.867886595427989959716796875" lon="-118.4950471110641956329345703125">
        <ele>2308.60009765625</ele>
        <time>2021-06-28T02:05:49.000Z</time>
        <extensions>
          <ns3:TrackPointExtension>
            <ns3:atemp>30.0</ns3:atemp>
            <ns3:hr>108</ns3:hr>
          </ns3:TrackPointExtension>
        </extensions>
      </trkpt>
      <trkpt lat="36.867857761681079864501953125" lon="-118.49505088292062282562255859375">
        <ele>2308.800048828125</ele>
        <time>2021-06-28T02:05:51.000Z</time>
        <extensions>
          <ns3:TrackPointExtension>
            <ns3:atemp>30.0</ns3:atemp>
            <ns3:hr>107</ns3:hr>
          </ns3:TrackPointExtension>
        </extensions>
      </trkpt>
      <trkpt lat="36.867853738367557525634765625" lon="-118.495077453553676605224609375">
        <ele>2308.800048828125</ele>
        <time>2021-06-28T02:05:54.000Z</time>
        <extensions>
          <ns3:TrackPointExtension>
            <ns3:atemp>30.0</ns3:atemp>
            <ns3:hr>104</ns3:hr>
          </ns3:TrackPointExtension>
        </extensions>
      </trkpt>
      <trkpt lat="36.8678654730319976806640625" lon="-118.4950990788638591766357421875">
        <ele>2309</ele>
        <time>2021-06-28T02:05:56.000Z</time>
        <extensions>
          <ns3:TrackPointExtension>
            <ns3:atemp>30.0</ns3:atemp>
            <ns3:hr>102</ns3:hr>
          </ns3:TrackPointExtension>
        </extensions>
      </trkpt>
      <trkpt lat="36.86787016689777374267578125" lon="-118.49512808024883270263671875">
        <ele>2309.199951171875</ele>
        <time>2021-06-28T02:05:59.000Z</time>
        <extensions>
          <ns3:TrackPointExtension>
            <ns3:atemp>30.0</ns3:atemp>
            <ns3:hr>99</ns3:hr>
          </ns3:TrackPointExtension>
        </extensions>
      </trkpt>
      <trkpt lat="36.86787511222064495086669921875" lon="-118.495155908167362213134765625">
        <ele>2309.199951171875</ele>
        <time>2021-06-28T02:06:01.000Z</time>
        <extensions>
          <ns3:TrackPointExtension>
            <ns3:atemp>30.0</ns3:atemp>
            <ns3:hr>100</ns3:hr>
          </ns3:TrackPointExtension>
        </extensions>
      </trkpt>
      <trkpt lat="36.86788919381797313690185546875" lon="-118.4952588379383087158203125">
        <ele>2308.800048828125</ele>
        <time>2021-06-28T02:06:06.000Z</time>
        <extensions>
          <ns3:TrackPointExtension>
            <ns3:atemp>30.0</ns3:atemp>
            <ns3:hr>99</ns3:hr>
          </ns3:TrackPointExtension>
        </extensions>
      </trkpt>
      <trkpt lat="36.86792624182999134063720703125" lon="-118.49536017514765262603759765625">
        <ele>2309.199951171875</ele>
        <time>2021-06-28T02:06:10.000Z</time>
        <extensions>
          <ns3:TrackPointExtension>
            <ns3:atemp>30.0</ns3:atemp>
            <ns3:hr>96</ns3:hr>
          </ns3:TrackPointExtension>
        </extensions>
      </trkpt>
      <trkpt lat="36.8679467774927616119384765625" lon="-118.49540174938738346099853515625">
        <ele>2309.199951171875</ele>
        <time>2021-06-28T02:06:12.000Z</time>
        <extensions>
          <ns3:TrackPointExtension>
            <ns3:atemp>30.0</ns3:atemp>
            <ns3:hr>96</ns3:hr>
          </ns3:TrackPointExtension>
        </extensions>
      </trkpt>
      <trkpt lat="36.86790210194885730743408203125" lon="-118.495477773249149322509765625">
        <ele>2309</ele>
        <time>2021-06-28T02:06:17.000Z</time>
        <extensions>
          <ns3:TrackPointExtension>
            <ns3:atemp>30.0</ns3:atemp>
            <ns3:hr>95</ns3:hr>
          </ns3:TrackPointExtension>
        </extensions>
      </trkpt>
      <trkpt lat="36.86789120547473430633544921875" lon="-118.49548841826617717742919921875">
        <ele>2308.60009765625</ele>
        <time>2021-06-28T02:06:18.000Z</time>
        <extensions>
          <ns3:TrackPointExtension>
            <ns3:atemp>30.0</ns3:atemp>
            <ns3:hr>94</ns3:hr>
          </ns3:TrackPointExtension>
        </extensions>
      </trkpt>
      <trkpt lat="36.8678720109164714813232421875" lon="-118.4955748356878757476806640625">
        <ele>2308</ele>
        <time>2021-06-28T02:06:24.000Z</time>
        <extensions>
          <ns3:TrackPointExtension>
            <ns3:atemp>30.0</ns3:atemp>
            <ns3:hr>96</ns3:hr>
          </ns3:TrackPointExtension>
        </extensions>
      </trkpt>
      <trkpt lat="36.8678689934313297271728515625" lon="-118.49560710601508617401123046875">
        <ele>2308</ele>
        <time>2021-06-28T02:06:26.000Z</time>
        <extensions>
          <ns3:TrackPointExtension>
            <ns3:atemp>30.0</ns3:atemp>
            <ns3:hr>97</ns3:hr>
          </ns3:TrackPointExtension>
        </extensions>
      </trkpt>
      <trkpt lat="36.8678559176623821258544921875" lon="-118.49564113654196262359619140625">
        <ele>2308</ele>
        <time>2021-06-28T02:06:28.000Z</time>
        <extensions>
          <ns3:TrackPointExtension>
            <ns3:atemp>30.0</ns3:atemp>
            <ns3:hr>97</ns3:hr>
          </ns3:TrackPointExtension>
        </extensions>
      </trkpt>
      <trkpt lat="36.86786656267940998077392578125" lon="-118.49566963501274585723876953125">
        <ele>2307.800048828125</ele>
        <time>2021-06-28T02:06:29.000Z</time>
        <extensions>
          <ns3:TrackPointExtension>
            <ns3:atemp>30.0</ns3:atemp>
            <ns3:hr>97</ns3:hr>
          </ns3:TrackPointExtension>
        </extensions>
      </trkpt>
      <trkpt lat="36.8678555823862552642822265625" lon="-118.4956861473619937896728515625">
        <ele>2307.60009765625</ele>
        <time>2021-06-28T02:06:30.000Z</time>
        <extensions>
          <ns3:TrackPointExtension>
            <ns3:atemp>30.0</ns3:atemp>
            <ns3:hr>98</ns3:hr>
          </ns3:TrackPointExtension>
        </extensions>
      </trkpt>
      <trkpt lat="36.86784108169376850128173828125" lon="-118.4957005642354488372802734375">
        <ele>2307.199951171875</ele>
        <time>2021-06-28T02:06:31.000Z</time>
        <extensions>
          <ns3:TrackPointExtension>
            <ns3:atemp>30.0</ns3:atemp>
            <ns3:hr>99</ns3:hr>
          </ns3:TrackPointExtension>
        </extensions>
      </trkpt>
      <trkpt lat="36.86781652271747589111328125" lon="-118.4957240335643291473388671875">
        <ele>2307</ele>
        <time>2021-06-28T02:06:33.000Z</time>
        <extensions>
          <ns3:TrackPointExtension>
            <ns3:atemp>30.0</ns3:atemp>
            <ns3:hr>98</ns3:hr>
          </ns3:TrackPointExtension>
        </extensions>
      </trkpt>
      <trkpt lat="36.8678099848330020904541015625" lon="-118.49574959836900234222412109375">
        <ele>2307</ele>
        <time>2021-06-28T02:06:35.000Z</time>
        <extensions>
          <ns3:TrackPointExtension>
            <ns3:atemp>30.0</ns3:atemp>
            <ns3:hr>100</ns3:hr>
          </ns3:TrackPointExtension>
        </extensions>
      </trkpt>
      <trkpt lat="36.86779347248375415802001953125" lon="-118.4957803599536418914794921875">
        <ele>2306.800048828125</ele>
        <time>2021-06-28T02:06:37.000Z</time>
        <extensions>
          <ns3:TrackPointExtension>
            <ns3:atemp>30.0</ns3:atemp>
            <ns3:hr>100</ns3:hr>
          </ns3:TrackPointExtension>
        </extensions>
      </trkpt>
      <trkpt lat="36.86778073199093341827392578125" lon="-118.495812714099884033203125">
        <ele>2306.800048828125</ele>
        <time>2021-06-28T02:06:39.000Z</time>
        <extensions>
          <ns3:TrackPointExtension>
            <ns3:atemp>30.0</ns3:atemp>
            <ns3:hr>102</ns3:hr>
          </ns3:TrackPointExtension>
        </extensions>
      </trkpt>
      <trkpt lat="36.86777167953550815582275390625" lon="-118.4958229400217533111572265625">
        <ele>2306.800048828125</ele>
        <time>2021-06-28T02:06:40.000Z</time>
        <extensions>
          <ns3:TrackPointExtension>
            <ns3:atemp>30.0</ns3:atemp>
            <ns3:hr>102</ns3:hr>
          </ns3:TrackPointExtension>
        </extensions>
      </trkpt>
      <trkpt lat="36.86777486465871334075927734375" lon="-118.495868034660816192626953125">
        <ele>2306.199951171875</ele>
        <time>2021-06-28T02:06:43.000Z</time>
        <extensions>
          <ns3:TrackPointExtension>
            <ns3:atemp>30.0</ns3:atemp>
            <ns3:hr>103</ns3:hr>
          </ns3:TrackPointExtension>
        </extensions>
      </trkpt>
      <trkpt lat="36.86777117662131786346435546875" lon="-118.4958953596651554107666015625">
        <ele>2306.199951171875</ele>
        <time>2021-06-28T02:06:45.000Z</time>
        <extensions>
          <ns3:TrackPointExtension>
            <ns3:atemp>30.0</ns3:atemp>
            <ns3:hr>104</ns3:hr>
          </ns3:TrackPointExtension>
        </extensions>
      </trkpt>
      <trkpt lat="36.86776564456522464752197265625" lon="-118.49593701772391796112060546875">
        <ele>2305.800048828125</ele>
        <time>2021-06-28T02:06:48.000Z</time>
        <extensions>
          <ns3:TrackPointExtension>
            <ns3:atemp>30.0</ns3:atemp>
            <ns3:hr>104</ns3:hr>
          </ns3:TrackPointExtension>
        </extensions>
      </trkpt>
      <trkpt lat="36.8677486293017864227294921875" lon="-118.4959389455616474151611328125">
        <ele>2305.60009765625</ele>
        <time>2021-06-28T02:06:49.000Z</time>
        <extensions>
          <ns3:TrackPointExtension>
            <ns3:atemp>30.0</ns3:atemp>
            <ns3:hr>105</ns3:hr>
          </ns3:TrackPointExtension>
        </extensions>
      </trkpt>
      <trkpt lat="36.86773069202899932861328125" lon="-118.49596719257533550262451171875">
        <ele>2305.199951171875</ele>
        <time>2021-06-28T02:06:52.000Z</time>
        <extensions>
          <ns3:TrackPointExtension>
            <ns3:atemp>30.0</ns3:atemp>
            <ns3:hr>105</ns3:hr>
          </ns3:TrackPointExtension>
        </extensions>
      </trkpt>
      <trkpt lat="36.86772306449711322784423828125" lon="-118.49597423337399959564208984375">
        <ele>2304.800048828125</ele>
        <time>2021-06-28T02:06:53.000Z</time>
        <extensions>
          <ns3:TrackPointExtension>
            <ns3:atemp>30.0</ns3:atemp>
            <ns3:hr>105</ns3:hr>
          </ns3:TrackPointExtension>
        </extensions>
      </trkpt>
      <trkpt lat="36.86771183274686336517333984375" lon="-118.49602469243109226226806640625">
        <ele>2304.60009765625</ele>
        <time>2021-06-28T02:06:57.000Z</time>
        <extensions>
          <ns3:TrackPointExtension>
            <ns3:atemp>30.0</ns3:atemp>
            <ns3:hr>105</ns3:hr>
          </ns3:TrackPointExtension>
        </extensions>
      </trkpt>
      <trkpt lat="36.8677197955548763275146484375" lon="-118.49607012234628200531005859375">
        <ele>2304</ele>
        <time>2021-06-28T02:07:00.000Z</time>
        <extensions>
          <ns3:TrackPointExtension>
            <ns3:atemp>30.0</ns3:atemp>
            <ns3:hr>104</ns3:hr>
          </ns3:TrackPointExtension>
        </extensions>
      </trkpt>
      <trkpt lat="36.8677234835922718048095703125" lon="-118.49608101882040500640869140625">
        <ele>2303.60009765625</ele>
        <time>2021-06-28T02:07:01.000Z</time>
        <extensions>
          <ns3:TrackPointExtension>
            <ns3:atemp>30.0</ns3:atemp>
            <ns3:hr>105</ns3:hr>
          </ns3:TrackPointExtension>
        </extensions>
      </trkpt>
      <trkpt lat="36.86772474087774753570556640625" lon="-118.4961474873125553131103515625">
        <ele>2303.39990234375</ele>
        <time>2021-06-28T02:07:07.000Z</time>
        <extensions>
          <ns3:TrackPointExtension>
            <ns3:atemp>30.0</ns3:atemp>
            <ns3:hr>107</ns3:hr>
          </ns3:TrackPointExtension>
        </extensions>
      </trkpt>
      <trkpt lat="36.86772272922098636627197265625" lon="-118.49624396301805973052978515625">
        <ele>2302.800048828125</ele>
        <time>2021-06-28T02:07:12.000Z</time>
        <extensions>
          <ns3:TrackPointExtension>
            <ns3:atemp>30.0</ns3:atemp>
            <ns3:hr>104</ns3:hr>
          </ns3:TrackPointExtension>
        </extensions>
      </trkpt>
      <trkpt lat="36.86771535314619541168212890625" lon="-118.4962587989866733551025390625">
        <ele>2302.60009765625</ele>
        <time>2021-06-28T02:07:13.000Z</time>
        <extensions>
          <ns3:TrackPointExtension>
            <ns3:atemp>30.0</ns3:atemp>
            <ns3:hr>104</ns3:hr>
          </ns3:TrackPointExtension>
        </extensions>
      </trkpt>
      <trkpt lat="36.867700181901454925537109375" lon="-118.4963023848831653594970703125">
        <ele>2302.199951171875</ele>
        <time>2021-06-28T02:07:16.000Z</time>
        <extensions>
          <ns3:TrackPointExtension>
            <ns3:atemp>30.0</ns3:atemp>
            <ns3:hr>101</ns3:hr>
          </ns3:TrackPointExtension>
        </extensions>
      </trkpt>
      <trkpt lat="36.8677050434052944183349609375" lon="-118.49631755612790584564208984375">
        <ele>2302</ele>
        <time>2021-06-28T02:07:17.000Z</time>
        <extensions>
          <ns3:TrackPointExtension>
            <ns3:atemp>30.0</ns3:atemp>
            <ns3:hr>100</ns3:hr>
          </ns3:TrackPointExtension>
        </extensions>
      </trkpt>
      <trkpt lat="36.86770915053784847259521484375" lon="-118.49633599631488323211669921875">
        <ele>2302</ele>
        <time>2021-06-28T02:07:18.000Z</time>
        <extensions>
          <ns3:TrackPointExtension>
            <ns3:atemp>30.0</ns3:atemp>
            <ns3:hr>100</ns3:hr>
          </ns3:TrackPointExtension>
        </extensions>
      </trkpt>
      <trkpt lat="36.8676923029124736785888671875" lon="-118.4964106790721416473388671875">
        <ele>2301.60009765625</ele>
        <time>2021-06-28T02:07:24.000Z</time>
        <extensions>
          <ns3:TrackPointExtension>
            <ns3:atemp>30.0</ns3:atemp>
            <ns3:hr>99</ns3:hr>
          </ns3:TrackPointExtension>
        </extensions>
      </trkpt>
      <trkpt lat="36.867678053677082061767578125" lon="-118.4964041411876678466796875">
        <ele>2301.199951171875</ele>
        <time>2021-06-28T02:07:25.000Z</time>
        <extensions>
          <ns3:TrackPointExtension>
            <ns3:atemp>30.0</ns3:atemp>
            <ns3:hr>99</ns3:hr>
          </ns3:TrackPointExtension>
        </extensions>
      </trkpt>
      <trkpt lat="36.867645196616649627685546875" lon="-118.4964183904230594635009765625">
        <ele>2300.800048828125</ele>
        <time>2021-06-28T02:07:28.000Z</time>
        <extensions>
          <ns3:TrackPointExtension>
            <ns3:atemp>30.0</ns3:atemp>
            <ns3:hr>97</ns3:hr>
          </ns3:TrackPointExtension>
        </extensions>
      </trkpt>
      <trkpt lat="36.86763949692249298095703125" lon="-118.49643926136195659637451171875">
        <ele>2300.39990234375</ele>
        <time>2021-06-28T02:07:30.000Z</time>
        <extensions>
          <ns3:TrackPointExtension>
            <ns3:atemp>30.0</ns3:atemp>
            <ns3:hr>95</ns3:hr>
          </ns3:TrackPointExtension>
        </extensions>
      </trkpt>
      <trkpt lat="36.8676436878740787506103515625" lon="-118.4964524209499359130859375">
        <ele>2300.39990234375</ele>
        <time>2021-06-28T02:07:31.000Z</time>
        <extensions>
          <ns3:TrackPointExtension>
            <ns3:atemp>30.0</ns3:atemp>
            <ns3:hr>97</ns3:hr>
          </ns3:TrackPointExtension>
        </extensions>
      </trkpt>
      <trkpt lat="36.86764243058860301971435546875" lon="-118.49645837210118770599365234375">
        <ele>2300.199951171875</ele>
        <time>2021-06-28T02:07:32.000Z</time>
        <extensions>
          <ns3:TrackPointExtension>
            <ns3:atemp>30.0</ns3:atemp>
            <ns3:hr>97</ns3:hr>
          </ns3:TrackPointExtension>
        </extensions>
      </trkpt>
      <trkpt lat="36.86765667982399463653564453125" lon="-118.49651302210986614227294921875">
        <ele>2300</ele>
        <time>2021-06-28T02:07:36.000Z</time>
        <extensions>
          <ns3:TrackPointExtension>
            <ns3:atemp>30.0</ns3:atemp>
            <ns3:hr>95</ns3:hr>
          </ns3:TrackPointExtension>
        </extensions>
      </trkpt>
      <trkpt lat="36.867666654288768768310546875" lon="-118.4965518303215503692626953125">
        <ele>2299.800048828125</ele>
        <time>2021-06-28T02:07:38.000Z</time>
        <extensions>
          <ns3:TrackPointExtension>
            <ns3:atemp>30.0</ns3:atemp>
            <ns3:hr>94</ns3:hr>
          </ns3:TrackPointExtension>
        </extensions>
      </trkpt>
      <trkpt lat="36.867636479437351226806640625" lon="-118.49654571153223514556884765625">
        <ele>2299.199951171875</ele>
        <time>2021-06-28T02:07:41.000Z</time>
        <extensions>
          <ns3:TrackPointExtension>
            <ns3:atemp>30.0</ns3:atemp>
            <ns3:hr>93</ns3:hr>
          </ns3:TrackPointExtension>
        </extensions>
      </trkpt>
      <trkpt lat="36.86763002537190914154052734375" lon="-118.49654562771320343017578125">
        <ele>2299</ele>
        <time>2021-06-28T02:07:42.000Z</time>
        <extensions>
          <ns3:TrackPointExtension>
            <ns3:atemp>30.0</ns3:atemp>
            <ns3:hr>93</ns3:hr>
          </ns3:TrackPointExtension>
        </extensions>
      </trkpt>
      <trkpt lat="36.86755408532917499542236328125" lon="-118.49657957442104816436767578125">
        <ele>2298.199951171875</ele>
        <time>2021-06-28T02:07:50.000Z</time>
        <extensions>
          <ns3:TrackPointExtension>
            <ns3:atemp>30.0</ns3:atemp>
            <ns3:hr>93</ns3:hr>
          </ns3:TrackPointExtension>
        </extensions>
      </trkpt>
      <trkpt lat="36.86753564514219760894775390625" lon="-118.49657823331654071807861328125">
        <ele>2298</ele>
        <time>2021-06-28T02:07:51.000Z</time>
        <extensions>
          <ns3:TrackPointExtension>
            <ns3:atemp>30.0</ns3:atemp>
            <ns3:hr>92</ns3:hr>
          </ns3:TrackPointExtension>
        </extensions>
      </trkpt>
      <trkpt lat="36.86753028072416782379150390625" lon="-118.49658762104809284210205078125">
        <ele>2298</ele>
        <time>2021-06-28T02:07:52.000Z</time>
        <extensions>
          <ns3:TrackPointExtension>
            <ns3:atemp>30.0</ns3:atemp>
            <ns3:hr>95</ns3:hr>
          </ns3:TrackPointExtension>
        </extensions>
      </trkpt>
      <trkpt lat="36.86751586385071277618408203125" lon="-118.4966034628450870513916015625">
        <ele>2298</ele>
        <time>2021-06-28T02:07:54.000Z</time>
        <extensions>
          <ns3:TrackPointExtension>
            <ns3:atemp>30.0</ns3:atemp>
            <ns3:hr>95</ns3:hr>
          </ns3:TrackPointExtension>
        </extensions>
      </trkpt>
      <trkpt lat="36.8674968369305133819580078125" lon="-118.49667144007980823516845703125">
        <ele>2297.800048828125</ele>
        <time>2021-06-28T02:08:00.000Z</time>
        <extensions>
          <ns3:TrackPointExtension>
            <ns3:atemp>30.0</ns3:atemp>
            <ns3:hr>95</ns3:hr>
          </ns3:TrackPointExtension>
        </extensions>
      </trkpt>
      <trkpt lat="36.867484934628009796142578125" lon="-118.496676720678806304931640625">
        <ele>2297.800048828125</ele>
        <time>2021-06-28T02:08:01.000Z</time>
        <extensions>
          <ns3:TrackPointExtension>
            <ns3:atemp>30.0</ns3:atemp>
            <ns3:hr>95</ns3:hr>
          </ns3:TrackPointExtension>
        </extensions>
      </trkpt>
      <trkpt lat="36.8674804084002971649169921875" lon="-118.49668853916227817535400390625">
        <ele>2297.800048828125</ele>
        <time>2021-06-28T02:08:02.000Z</time>
        <extensions>
          <ns3:TrackPointExtension>
            <ns3:atemp>30.0</ns3:atemp>
            <ns3:hr>94</ns3:hr>
          </ns3:TrackPointExtension>
        </extensions>
      </trkpt>
      <trkpt lat="36.8674790672957897186279296875" lon="-118.49672474898397922515869140625">
        <ele>2297.60009765625</ele>
        <time>2021-06-28T02:08:05.000Z</time>
        <extensions>
          <ns3:TrackPointExtension>
            <ns3:atemp>30.0</ns3:atemp>
            <ns3:hr>93</ns3:hr>
          </ns3:TrackPointExtension>
        </extensions>
      </trkpt>
      <trkpt lat="36.86746515333652496337890625" lon="-118.496735394001007080078125">
        <ele>2297.60009765625</ele>
        <time>2021-06-28T02:08:06.000Z</time>
        <extensions>
          <ns3:TrackPointExtension>
            <ns3:atemp>30.0</ns3:atemp>
            <ns3:hr>93</ns3:hr>
          </ns3:TrackPointExtension>
        </extensions>
      </trkpt>
      <trkpt lat="36.8674636445939540863037109375" lon="-118.4967570193111896514892578125">
        <ele>2297</ele>
        <time>2021-06-28T02:08:07.000Z</time>
        <extensions>
          <ns3:TrackPointExtension>
            <ns3:atemp>30.0</ns3:atemp>
            <ns3:hr>93</ns3:hr>
          </ns3:TrackPointExtension>
        </extensions>
      </trkpt>
      <trkpt lat="36.86747060157358646392822265625" lon="-118.49678543396294116973876953125">
        <ele>2297</ele>
        <time>2021-06-28T02:08:08.000Z</time>
        <extensions>
          <ns3:TrackPointExtension>
            <ns3:atemp>30.0</ns3:atemp>
            <ns3:hr>92</ns3:hr>
          </ns3:TrackPointExtension>
        </extensions>
      </trkpt>
      <trkpt lat="36.86747856438159942626953125" lon="-118.49679716862738132476806640625">
        <ele>2296.800048828125</ele>
        <time>2021-06-28T02:08:09.000Z</time>
        <extensions>
          <ns3:TrackPointExtension>
            <ns3:atemp>30.0</ns3:atemp>
            <ns3:hr>92</ns3:hr>
          </ns3:TrackPointExtension>
        </extensions>
      </trkpt>
      <trkpt lat="36.86755542643368244171142578125" lon="-118.49691987968981266021728515625">
        <ele>2296.199951171875</ele>
        <time>2021-06-28T02:08:18.000Z</time>
        <extensions>
          <ns3:TrackPointExtension>
            <ns3:atemp>30.0</ns3:atemp>
            <ns3:hr>92</ns3:hr>
          </ns3:TrackPointExtension>
        </extensions>
      </trkpt>
      <trkpt lat="36.86755576170980930328369140625" lon="-118.49693127907812595367431640625">
        <ele>2296</ele>
        <time>2021-06-28T02:08:19.000Z</time>
        <extensions>
          <ns3:TrackPointExtension>
            <ns3:atemp>30.0</ns3:atemp>
            <ns3:hr>92</ns3:hr>
          </ns3:TrackPointExtension>
        </extensions>
      </trkpt>
      <trkpt lat="36.86755056492984294891357421875" lon="-118.496955335140228271484375">
        <ele>2296</ele>
        <time>2021-06-28T02:08:22.000Z</time>
        <extensions>
          <ns3:TrackPointExtension>
            <ns3:atemp>30.0</ns3:atemp>
            <ns3:hr>93</ns3:hr>
          </ns3:TrackPointExtension>
        </extensions>
      </trkpt>
      <trkpt lat="36.86753363348543643951416015625" lon="-118.4969486296176910400390625">
        <ele>2295.800048828125</ele>
        <time>2021-06-28T02:08:23.000Z</time>
        <extensions>
          <ns3:TrackPointExtension>
            <ns3:atemp>30.0</ns3:atemp>
            <ns3:hr>92</ns3:hr>
          </ns3:TrackPointExtension>
        </extensions>
      </trkpt>
      <trkpt lat="36.8674991838634014129638671875" lon="-118.496961705386638641357421875">
        <ele>2295</ele>
        <time>2021-06-28T02:08:26.000Z</time>
        <extensions>
          <ns3:TrackPointExtension>
            <ns3:atemp>30.0</ns3:atemp>
            <ns3:hr>93</ns3:hr>
          </ns3:TrackPointExtension>
        </extensions>
      </trkpt>
      <trkpt lat="36.8674877844750881195068359375" lon="-118.49698190577328205108642578125">
        <ele>2294.800048828125</ele>
        <time>2021-06-28T02:08:28.000Z</time>
        <extensions>
          <ns3:TrackPointExtension>
            <ns3:atemp>30.0</ns3:atemp>
            <ns3:hr>93</ns3:hr>
          </ns3:TrackPointExtension>
        </extensions>
      </trkpt>
      <trkpt lat="36.8674845993518829345703125" lon="-118.4970054589211940765380859375">
        <ele>2294.60009765625</ele>
        <time>2021-06-28T02:08:30.000Z</time>
        <extensions>
          <ns3:TrackPointExtension>
            <ns3:atemp>30.0</ns3:atemp>
            <ns3:hr>94</ns3:hr>
          </ns3:TrackPointExtension>
        </extensions>
      </trkpt>
      <trkpt lat="36.867476888000965118408203125" lon="-118.497042842209339141845703125">
        <ele>2293.800048828125</ele>
        <time>2021-06-28T02:08:33.000Z</time>
        <extensions>
          <ns3:TrackPointExtension>
            <ns3:atemp>30.0</ns3:atemp>
            <ns3:hr>91</ns3:hr>
          </ns3:TrackPointExtension>
        </extensions>
      </trkpt>
      <trkpt lat="36.8674658238887786865234375" lon="-118.49706103093922138214111328125">
        <ele>2293.60009765625</ele>
        <time>2021-06-28T02:08:35.000Z</time>
        <extensions>
          <ns3:TrackPointExtension>
            <ns3:atemp>30.0</ns3:atemp>
            <ns3:hr>90</ns3:hr>
          </ns3:TrackPointExtension>
        </extensions>
      </trkpt>
      <trkpt lat="36.86746490187942981719970703125" lon="-118.4970832429826259613037109375">
        <ele>2293.39990234375</ele>
        <time>2021-06-28T02:08:37.000Z</time>
        <extensions>
          <ns3:TrackPointExtension>
            <ns3:atemp>30.0</ns3:atemp>
            <ns3:hr>92</ns3:hr>
          </ns3:TrackPointExtension>
        </extensions>
      </trkpt>
      <trkpt lat="36.867460124194622039794921875" lon="-118.49709975533187389373779296875">
        <ele>2293.39990234375</ele>
        <time>2021-06-28T02:08:39.000Z</time>
        <extensions>
          <ns3:TrackPointExtension>
            <ns3:atemp>30.0</ns3:atemp>
            <ns3:hr>92</ns3:hr>
          </ns3:TrackPointExtension>
        </extensions>
      </trkpt>
      <trkpt lat="36.8674197234213352203369140625" lon="-118.4971082210540771484375">
        <ele>2292.800048828125</ele>
        <time>2021-06-28T02:08:41.000Z</time>
        <extensions>
          <ns3:TrackPointExtension>
            <ns3:atemp>30.0</ns3:atemp>
            <ns3:hr>91</ns3:hr>
          </ns3:TrackPointExtension>
        </extensions>
      </trkpt>
      <trkpt lat="36.867418549954891204833984375" lon="-118.49713194184005260467529296875">
        <ele>2292.60009765625</ele>
        <time>2021-06-28T02:08:43.000Z</time>
        <extensions>
          <ns3:TrackPointExtension>
            <ns3:atemp>30.0</ns3:atemp>
            <ns3:hr>91</ns3:hr>
          </ns3:TrackPointExtension>
        </extensions>
      </trkpt>
      <trkpt lat="36.8674136884510517120361328125" lon="-118.49716312251985073089599609375">
        <ele>2292.39990234375</ele>
        <time>2021-06-28T02:08:45.000Z</time>
        <extensions>
          <ns3:TrackPointExtension>
            <ns3:atemp>30.0</ns3:atemp>
            <ns3:hr>93</ns3:hr>
          </ns3:TrackPointExtension>
        </extensions>
      </trkpt>
      <trkpt lat="36.8673999421298503875732421875" lon="-118.4971918724477291107177734375">
        <ele>2292</ele>
        <time>2021-06-28T02:08:47.000Z</time>
        <extensions>
          <ns3:TrackPointExtension>
            <ns3:atemp>30.0</ns3:atemp>
            <ns3:hr>93</ns3:hr>
          </ns3:TrackPointExtension>
        </extensions>
      </trkpt>
      <trkpt lat="36.8673982657492160797119140625" lon="-118.49720503203570842742919921875">
        <ele>2292</ele>
        <time>2021-06-28T02:08:48.000Z</time>
        <extensions>
          <ns3:TrackPointExtension>
            <ns3:atemp>30.0</ns3:atemp>
            <ns3:hr>94</ns3:hr>
          </ns3:TrackPointExtension>
        </extensions>
      </trkpt>
      <trkpt lat="36.86738468706607818603515625" lon="-118.4972300939261913299560546875">
        <ele>2291.39990234375</ele>
        <time>2021-06-28T02:08:50.000Z</time>
        <extensions>
          <ns3:TrackPointExtension>
            <ns3:atemp>30.0</ns3:atemp>
            <ns3:hr>95</ns3:hr>
          </ns3:TrackPointExtension>
        </extensions>
      </trkpt>
      <trkpt lat="36.867358200252056121826171875" lon="-118.49729270674288272857666015625">
        <ele>2291.199951171875</ele>
        <time>2021-06-28T02:08:54.000Z</time>
        <extensions>
          <ns3:TrackPointExtension>
            <ns3:atemp>30.0</ns3:atemp>
            <ns3:hr>96</ns3:hr>
          </ns3:TrackPointExtension>
        </extensions>
      </trkpt>
      <trkpt lat="36.86735451221466064453125" lon="-118.49730595014989376068115234375">
        <ele>2291</ele>
        <time>2021-06-28T02:08:55.000Z</time>
        <extensions>
          <ns3:TrackPointExtension>
            <ns3:atemp>30.0</ns3:atemp>
            <ns3:hr>95</ns3:hr>
          </ns3:TrackPointExtension>
        </extensions>
      </trkpt>
      <trkpt lat="36.8673707731068134307861328125" lon="-118.497366718947887420654296875">
        <ele>2291</ele>
        <time>2021-06-28T02:08:59.000Z</time>
        <extensions>
          <ns3:TrackPointExtension>
            <ns3:atemp>30.0</ns3:atemp>
            <ns3:hr>93</ns3:hr>
          </ns3:TrackPointExtension>
        </extensions>
      </trkpt>
      <trkpt lat="36.867366246879100799560546875" lon="-118.4973751008510589599609375">
        <ele>2290.800048828125</ele>
        <time>2021-06-28T02:09:00.000Z</time>
        <extensions>
          <ns3:TrackPointExtension>
            <ns3:atemp>30.0</ns3:atemp>
            <ns3:hr>93</ns3:hr>
          </ns3:TrackPointExtension>
        </extensions>
      </trkpt>
      <trkpt lat="36.86731939204037189483642578125" lon="-118.49742195568978786468505859375">
        <ele>2290.800048828125</ele>
        <time>2021-06-28T02:09:04.000Z</time>
        <extensions>
          <ns3:TrackPointExtension>
            <ns3:atemp>30.0</ns3:atemp>
            <ns3:hr>92</ns3:hr>
          </ns3:TrackPointExtension>
        </extensions>
      </trkpt>
      <trkpt lat="36.867315955460071563720703125" lon="-118.497482053935527801513671875">
        <ele>2291</ele>
        <time>2021-06-28T02:09:08.000Z</time>
        <extensions>
          <ns3:TrackPointExtension>
            <ns3:atemp>30.0</ns3:atemp>
            <ns3:hr>90</ns3:hr>
          </ns3:TrackPointExtension>
        </extensions>
      </trkpt>
      <trkpt lat="36.86732408590614795684814453125" lon="-118.49752287380397319793701171875">
        <ele>2291</ele>
        <time>2021-06-28T02:09:10.000Z</time>
        <extensions>
          <ns3:TrackPointExtension>
            <ns3:atemp>30.0</ns3:atemp>
            <ns3:hr>94</ns3:hr>
          </ns3:TrackPointExtension>
        </extensions>
      </trkpt>
      <trkpt lat="36.8673275224864482879638671875" lon="-118.49754131399095058441162109375">
        <ele>2291</ele>
        <time>2021-06-28T02:09:11.000Z</time>
        <extensions>
          <ns3:TrackPointExtension>
            <ns3:atemp>30.0</ns3:atemp>
            <ns3:hr>91</ns3:hr>
          </ns3:TrackPointExtension>
        </extensions>
      </trkpt>
      <trkpt lat="36.86731436289846897125244140625" lon="-118.49757635034620761871337890625">
        <ele>2291</ele>
        <time>2021-06-28T02:09:14.000Z</time>
        <extensions>
          <ns3:TrackPointExtension>
            <ns3:atemp>30.0</ns3:atemp>
            <ns3:hr>90</ns3:hr>
          </ns3:TrackPointExtension>
        </extensions>
      </trkpt>
      <trkpt lat="36.86733774840831756591796875" lon="-118.4976186789572238922119140625">
        <ele>2291</ele>
        <time>2021-06-28T02:09:16.000Z</time>
        <extensions>
          <ns3:TrackPointExtension>
            <ns3:atemp>30.0</ns3:atemp>
            <ns3:hr>89</ns3:hr>
          </ns3:TrackPointExtension>
        </extensions>
      </trkpt>
      <trkpt lat="36.867351830005645751953125" lon="-118.49765966646373271942138671875">
        <ele>2290.800048828125</ele>
        <time>2021-06-28T02:09:19.000Z</time>
        <extensions>
          <ns3:TrackPointExtension>
            <ns3:atemp>30.0</ns3:atemp>
            <ns3:hr>91</ns3:hr>
          </ns3:TrackPointExtension>
        </extensions>
      </trkpt>
      <trkpt lat="36.8673717789351940155029296875" lon="-118.49770375527441501617431640625">
        <ele>2290.800048828125</ele>
        <time>2021-06-28T02:09:22.000Z</time>
        <extensions>
          <ns3:TrackPointExtension>
            <ns3:atemp>30.0</ns3:atemp>
            <ns3:hr>93</ns3:hr>
          </ns3:TrackPointExtension>
        </extensions>
      </trkpt>
      <trkpt lat="36.86737102456390857696533203125" lon="-118.4977249614894390106201171875">
        <ele>2291</ele>
        <time>2021-06-28T02:09:24.000Z</time>
        <extensions>
          <ns3:TrackPointExtension>
            <ns3:atemp>30.0</ns3:atemp>
            <ns3:hr>93</ns3:hr>
          </ns3:TrackPointExtension>
        </extensions>
      </trkpt>
      <trkpt lat="36.86735878698527812957763671875" lon="-118.49774499423801898956298828125">
        <ele>2291</ele>
        <time>2021-06-28T02:09:26.000Z</time>
        <extensions>
          <ns3:TrackPointExtension>
            <ns3:atemp>30.0</ns3:atemp>
            <ns3:hr>93</ns3:hr>
          </ns3:TrackPointExtension>
        </extensions>
      </trkpt>
      <trkpt lat="36.86735794879496097564697265625" lon="-118.49778489209711551666259765625">
        <ele>2290.60009765625</ele>
        <time>2021-06-28T02:09:29.000Z</time>
        <extensions>
          <ns3:TrackPointExtension>
            <ns3:atemp>30.0</ns3:atemp>
            <ns3:hr>93</ns3:hr>
          </ns3:TrackPointExtension>
        </extensions>
      </trkpt>
      <trkpt lat="36.86735174618661403656005859375" lon="-118.4977943636476993560791015625">
        <ele>2290.39990234375</ele>
        <time>2021-06-28T02:09:30.000Z</time>
        <extensions>
          <ns3:TrackPointExtension>
            <ns3:atemp>30.0</ns3:atemp>
            <ns3:hr>92</ns3:hr>
          </ns3:TrackPointExtension>
        </extensions>
      </trkpt>
      <trkpt lat="36.8673395924270153045654296875" lon="-118.49779813550412654876708984375">
        <ele>2290.39990234375</ele>
        <time>2021-06-28T02:09:31.000Z</time>
        <extensions>
          <ns3:TrackPointExtension>
            <ns3:atemp>30.0</ns3:atemp>
            <ns3:hr>90</ns3:hr>
          </ns3:TrackPointExtension>
        </extensions>
      </trkpt>
      <trkpt lat="36.8673156201839447021484375" lon="-118.49780349992215633392333984375">
        <ele>2290.39990234375</ele>
        <time>2021-06-28T02:09:33.000Z</time>
        <extensions>
          <ns3:TrackPointExtension>
            <ns3:atemp>30.0</ns3:atemp>
            <ns3:hr>90</ns3:hr>
          </ns3:TrackPointExtension>
        </extensions>
      </trkpt>
      <trkpt lat="36.867309249937534332275390625" lon="-118.49780919961631298065185546875">
        <ele>2290.199951171875</ele>
        <time>2021-06-28T02:09:34.000Z</time>
        <extensions>
          <ns3:TrackPointExtension>
            <ns3:atemp>30.0</ns3:atemp>
            <ns3:hr>91</ns3:hr>
          </ns3:TrackPointExtension>
        </extensions>
      </trkpt>
      <trkpt lat="36.86730313114821910858154296875" lon="-118.497827053070068359375">
        <ele>2290.199951171875</ele>
        <time>2021-06-28T02:09:36.000Z</time>
        <extensions>
          <ns3:TrackPointExtension>
            <ns3:atemp>30.0</ns3:atemp>
            <ns3:hr>92</ns3:hr>
          </ns3:TrackPointExtension>
        </extensions>
      </trkpt>
      <trkpt lat="36.86729860492050647735595703125" lon="-118.497839458286762237548828125">
        <ele>2290</ele>
        <time>2021-06-28T02:09:37.000Z</time>
        <extensions>
          <ns3:TrackPointExtension>
            <ns3:atemp>30.0</ns3:atemp>
            <ns3:hr>93</ns3:hr>
          </ns3:TrackPointExtension>
        </extensions>
      </trkpt>
      <trkpt lat="36.86727362684905529022216796875" lon="-118.4978584013879299163818359375">
        <ele>2289.199951171875</ele>
        <time>2021-06-28T02:09:39.000Z</time>
        <extensions>
          <ns3:TrackPointExtension>
            <ns3:atemp>30.0</ns3:atemp>
            <ns3:hr>94</ns3:hr>
          </ns3:TrackPointExtension>
        </extensions>
      </trkpt>
      <trkpt lat="36.86726138927042484283447265625" lon="-118.4978711418807506561279296875">
        <ele>2289</ele>
        <time>2021-06-28T02:09:40.000Z</time>
        <extensions>
          <ns3:TrackPointExtension>
            <ns3:atemp>30.0</ns3:atemp>
            <ns3:hr>92</ns3:hr>
          </ns3:TrackPointExtension>
        </extensions>
      </trkpt>
      <trkpt lat="36.8672510795295238494873046875" lon="-118.49790626205503940582275390625">
        <ele>2289</ele>
        <time>2021-06-28T02:09:42.000Z</time>
        <extensions>
          <ns3:TrackPointExtension>
            <ns3:atemp>30.0</ns3:atemp>
            <ns3:hr>91</ns3:hr>
          </ns3:TrackPointExtension>
        </extensions>
      </trkpt>
      <trkpt lat="36.86722752638161182403564453125" lon="-118.49793811328709125518798828125">
        <ele>2288.800048828125</ele>
        <time>2021-06-28T02:09:45.000Z</time>
        <extensions>
          <ns3:TrackPointExtension>
            <ns3:atemp>30.0</ns3:atemp>
            <ns3:hr>89</ns3:hr>
          </ns3:TrackPointExtension>
        </extensions>
      </trkpt>
      <trkpt lat="36.86721034348011016845703125" lon="-118.49796057678759098052978515625">
        <ele>2288.199951171875</ele>
        <time>2021-06-28T02:09:47.000Z</time>
        <extensions>
          <ns3:TrackPointExtension>
            <ns3:atemp>30.0</ns3:atemp>
            <ns3:hr>89</ns3:hr>
          </ns3:TrackPointExtension>
        </extensions>
      </trkpt>
      <trkpt lat="36.8671414442360401153564453125" lon="-118.49797298200428485870361328125">
        <ele>2287</ele>
        <time>2021-06-28T02:09:52.000Z</time>
        <extensions>
          <ns3:TrackPointExtension>
            <ns3:atemp>30.0</ns3:atemp>
            <ns3:hr>89</ns3:hr>
          </ns3:TrackPointExtension>
        </extensions>
      </trkpt>
      <trkpt lat="36.867106072604656219482421875" lon="-118.49797524511814117431640625">
        <ele>2286.800048828125</ele>
        <time>2021-06-28T02:09:53.000Z</time>
        <extensions>
          <ns3:TrackPointExtension>
            <ns3:atemp>30.0</ns3:atemp>
            <ns3:hr>89</ns3:hr>
          </ns3:TrackPointExtension>
        </extensions>
      </trkpt>
      <trkpt lat="36.86708067543804645538330078125" lon="-118.49800206720829010009765625">
        <ele>2286.60009765625</ele>
        <time>2021-06-28T02:09:55.000Z</time>
        <extensions>
          <ns3:TrackPointExtension>
            <ns3:atemp>30.0</ns3:atemp>
            <ns3:hr>87</ns3:hr>
          </ns3:TrackPointExtension>
        </extensions>
      </trkpt>
      <trkpt lat="36.86710565350949764251708984375" lon="-118.49803919903934001922607421875">
        <ele>2286</ele>
        <time>2021-06-28T02:09:57.000Z</time>
        <extensions>
          <ns3:TrackPointExtension>
            <ns3:atemp>30.0</ns3:atemp>
            <ns3:hr>86</ns3:hr>
          </ns3:TrackPointExtension>
        </extensions>
      </trkpt>
      <trkpt lat="36.86711135320365428924560546875" lon="-118.498050682246685028076171875">
        <ele>2286</ele>
        <time>2021-06-28T02:09:58.000Z</time>
        <extensions>
          <ns3:TrackPointExtension>
            <ns3:atemp>30.0</ns3:atemp>
            <ns3:hr>86</ns3:hr>
          </ns3:TrackPointExtension>
        </extensions>
      </trkpt>
      <trkpt lat="36.86710800044238567352294921875" lon="-118.49806954152882099151611328125">
        <ele>2285</ele>
        <time>2021-06-28T02:10:00.000Z</time>
        <extensions>
          <ns3:TrackPointExtension>
            <ns3:atemp>30.0</ns3:atemp>
            <ns3:hr>86</ns3:hr>
          </ns3:TrackPointExtension>
        </extensions>
      </trkpt>
      <trkpt lat="36.867104731500148773193359375" lon="-118.49808194674551486968994140625">
        <ele>2284.800048828125</ele>
        <time>2021-06-28T02:10:01.000Z</time>
        <extensions>
          <ns3:TrackPointExtension>
            <ns3:atemp>30.0</ns3:atemp>
            <ns3:hr>85</ns3:hr>
          </ns3:TrackPointExtension>
        </extensions>
      </trkpt>
      <trkpt lat="36.86710800044238567352294921875" lon="-118.49809619598090648651123046875">
        <ele>2284.60009765625</ele>
        <time>2021-06-28T02:10:02.000Z</time>
        <extensions>
          <ns3:TrackPointExtension>
            <ns3:atemp>30.0</ns3:atemp>
            <ns3:hr>85</ns3:hr>
          </ns3:TrackPointExtension>
        </extensions>
      </trkpt>
      <trkpt lat="36.8671015463769435882568359375" lon="-118.49810323677957057952880859375">
        <ele>2284.39990234375</ele>
        <time>2021-06-28T02:10:03.000Z</time>
        <extensions>
          <ns3:TrackPointExtension>
            <ns3:atemp>30.0</ns3:atemp>
            <ns3:hr>85</ns3:hr>
          </ns3:TrackPointExtension>
        </extensions>
      </trkpt>
      <trkpt lat="36.86708830296993255615234375" lon="-118.49811916239559650421142578125">
        <ele>2284</ele>
        <time>2021-06-28T02:10:05.000Z</time>
        <extensions>
          <ns3:TrackPointExtension>
            <ns3:atemp>30.0</ns3:atemp>
            <ns3:hr>86</ns3:hr>
          </ns3:TrackPointExtension>
        </extensions>
      </trkpt>
      <trkpt lat="36.86708302237093448638916015625" lon="-118.498127460479736328125">
        <ele>2283.800048828125</ele>
        <time>2021-06-28T02:10:06.000Z</time>
        <extensions>
          <ns3:TrackPointExtension>
            <ns3:atemp>30.0</ns3:atemp>
            <ns3:hr>85</ns3:hr>
          </ns3:TrackPointExtension>
        </extensions>
      </trkpt>
      <trkpt lat="36.86709643341600894927978515625" lon="-118.49816358648240566253662109375">
        <ele>2283.199951171875</ele>
        <time>2021-06-28T02:10:09.000Z</time>
        <extensions>
          <ns3:TrackPointExtension>
            <ns3:atemp>30.0</ns3:atemp>
            <ns3:hr>85</ns3:hr>
          </ns3:TrackPointExtension>
        </extensions>
      </trkpt>
      <trkpt lat="36.867099367082118988037109375" lon="-118.49817372858524322509765625">
        <ele>2283</ele>
        <time>2021-06-28T02:10:10.000Z</time>
        <extensions>
          <ns3:TrackPointExtension>
            <ns3:atemp>30.0</ns3:atemp>
            <ns3:hr>85</ns3:hr>
          </ns3:TrackPointExtension>
        </extensions>
      </trkpt>
      <trkpt lat="36.8671206571161746978759765625" lon="-118.49821572192013263702392578125">
        <ele>2282.800048828125</ele>
        <time>2021-06-28T02:10:13.000Z</time>
        <extensions>
          <ns3:TrackPointExtension>
            <ns3:atemp>30.0</ns3:atemp>
            <ns3:hr>84</ns3:hr>
          </ns3:TrackPointExtension>
        </extensions>
      </trkpt>
      <trkpt lat="36.867130212485790252685546875" lon="-118.49823064170777797698974609375">
        <ele>2282.800048828125</ele>
        <time>2021-06-28T02:10:14.000Z</time>
        <extensions>
          <ns3:TrackPointExtension>
            <ns3:atemp>30.0</ns3:atemp>
            <ns3:hr>84</ns3:hr>
          </ns3:TrackPointExtension>
        </extensions>
      </trkpt>
      <trkpt lat="36.86713281087577342987060546875" lon="-118.49824153818190097808837890625">
        <ele>2282.800048828125</ele>
        <time>2021-06-28T02:10:15.000Z</time>
        <extensions>
          <ns3:TrackPointExtension>
            <ns3:atemp>30.0</ns3:atemp>
            <ns3:hr>84</ns3:hr>
          </ns3:TrackPointExtension>
        </extensions>
      </trkpt>
      <trkpt lat="36.8671183101832866668701171875" lon="-118.498294763267040252685546875">
        <ele>2282.39990234375</ele>
        <time>2021-06-28T02:10:19.000Z</time>
        <extensions>
          <ns3:TrackPointExtension>
            <ns3:atemp>30.0</ns3:atemp>
            <ns3:hr>86</ns3:hr>
          </ns3:TrackPointExtension>
        </extensions>
      </trkpt>
      <trkpt lat="36.86710230074822902679443359375" lon="-118.49832770414650440216064453125">
        <ele>2282.39990234375</ele>
        <time>2021-06-28T02:10:21.000Z</time>
        <extensions>
          <ns3:TrackPointExtension>
            <ns3:atemp>30.0</ns3:atemp>
            <ns3:hr>86</ns3:hr>
          </ns3:TrackPointExtension>
        </extensions>
      </trkpt>
      <trkpt lat="36.8670876324176788330078125" lon="-118.49833541549742221832275390625">
        <ele>2282.39990234375</ele>
        <time>2021-06-28T02:10:22.000Z</time>
        <extensions>
          <ns3:TrackPointExtension>
            <ns3:atemp>30.0</ns3:atemp>
            <ns3:hr>89</ns3:hr>
          </ns3:TrackPointExtension>
        </extensions>
      </trkpt>
      <trkpt lat="36.8670393526554107666015625" lon="-118.49835050292313098907470703125">
        <ele>2282.39990234375</ele>
        <time>2021-06-28T02:10:25.000Z</time>
        <extensions>
          <ns3:TrackPointExtension>
            <ns3:atemp>30.0</ns3:atemp>
            <ns3:hr>93</ns3:hr>
          </ns3:TrackPointExtension>
        </extensions>
      </trkpt>
      <trkpt lat="36.8670165538787841796875" lon="-118.49839023314416408538818359375">
        <ele>2281.800048828125</ele>
        <time>2021-06-28T02:10:28.000Z</time>
        <extensions>
          <ns3:TrackPointExtension>
            <ns3:atemp>30.0</ns3:atemp>
            <ns3:hr>95</ns3:hr>
          </ns3:TrackPointExtension>
        </extensions>
      </trkpt>
      <trkpt lat="36.8670110218226909637451171875" lon="-118.49840414710342884063720703125">
        <ele>2281.60009765625</ele>
        <time>2021-06-28T02:10:29.000Z</time>
        <extensions>
          <ns3:TrackPointExtension>
            <ns3:atemp>30.0</ns3:atemp>
            <ns3:hr>95</ns3:hr>
          </ns3:TrackPointExtension>
        </extensions>
      </trkpt>
      <trkpt lat="36.86696835793554782867431640625" lon="-118.49841839633882045745849609375">
        <ele>2281.60009765625</ele>
        <time>2021-06-28T02:10:32.000Z</time>
        <extensions>
          <ns3:TrackPointExtension>
            <ns3:atemp>30.0</ns3:atemp>
            <ns3:hr>94</ns3:hr>
          </ns3:TrackPointExtension>
        </extensions>
      </trkpt>
      <trkpt lat="36.866957880556583404541015625" lon="-118.4984243474900722503662109375">
        <ele>2281.39990234375</ele>
        <time>2021-06-28T02:10:33.000Z</time>
        <extensions>
          <ns3:TrackPointExtension>
            <ns3:atemp>30.0</ns3:atemp>
            <ns3:hr>91</ns3:hr>
          </ns3:TrackPointExtension>
        </extensions>
      </trkpt>
      <trkpt lat="36.86695226468145847320556640625" lon="-118.498430214822292327880859375">
        <ele>2281.39990234375</ele>
        <time>2021-06-28T02:10:34.000Z</time>
        <extensions>
          <ns3:TrackPointExtension>
            <ns3:atemp>30.0</ns3:atemp>
            <ns3:hr>96</ns3:hr>
          </ns3:TrackPointExtension>
        </extensions>
      </trkpt>
      <trkpt lat="36.86694606207311153411865234375" lon="-118.49843817763030529022216796875">
        <ele>2281.199951171875</ele>
        <time>2021-06-28T02:10:35.000Z</time>
        <extensions>
          <ns3:TrackPointExtension>
            <ns3:atemp>30.0</ns3:atemp>
            <ns3:hr>96</ns3:hr>
          </ns3:TrackPointExtension>
        </extensions>
      </trkpt>
      <trkpt lat="36.866909600794315338134765625" lon="-118.49845670163631439208984375">
        <ele>2280.60009765625</ele>
        <time>2021-06-28T02:10:38.000Z</time>
        <extensions>
          <ns3:TrackPointExtension>
            <ns3:atemp>30.0</ns3:atemp>
            <ns3:hr>97</ns3:hr>
          </ns3:TrackPointExtension>
        </extensions>
      </trkpt>
      <trkpt lat="36.86689375899732112884521484375" lon="-118.49847681820392608642578125">
        <ele>2280.60009765625</ele>
        <time>2021-06-28T02:10:41.000Z</time>
        <extensions>
          <ns3:TrackPointExtension>
            <ns3:atemp>30.0</ns3:atemp>
            <ns3:hr>98</ns3:hr>
          </ns3:TrackPointExtension>
        </extensions>
      </trkpt>
      <trkpt lat="36.86687649227678775787353515625" lon="-118.49847438745200634002685546875">
        <ele>2280.39990234375</ele>
        <time>2021-06-28T02:10:42.000Z</time>
        <extensions>
          <ns3:TrackPointExtension>
            <ns3:atemp>30.0</ns3:atemp>
            <ns3:hr>98</ns3:hr>
          </ns3:TrackPointExtension>
        </extensions>
      </trkpt>
      <trkpt lat="36.866852939128875732421875" lon="-118.4984840266406536102294921875">
        <ele>2280.199951171875</ele>
        <time>2021-06-28T02:10:44.000Z</time>
        <extensions>
          <ns3:TrackPointExtension>
            <ns3:atemp>30.0</ns3:atemp>
            <ns3:hr>97</ns3:hr>
          </ns3:TrackPointExtension>
        </extensions>
      </trkpt>
      <trkpt lat="36.8668303079903125762939453125" lon="-118.49848176352679729461669921875">
        <ele>2280.199951171875</ele>
        <time>2021-06-28T02:10:45.000Z</time>
        <extensions>
          <ns3:TrackPointExtension>
            <ns3:atemp>30.0</ns3:atemp>
            <ns3:hr>97</ns3:hr>
          </ns3:TrackPointExtension>
        </extensions>
      </trkpt>
      <trkpt lat="36.86681413091719150543212890625" lon="-118.49848528392612934112548828125">
        <ele>2280</ele>
        <time>2021-06-28T02:10:46.000Z</time>
        <extensions>
          <ns3:TrackPointExtension>
            <ns3:atemp>30.0</ns3:atemp>
            <ns3:hr>97</ns3:hr>
          </ns3:TrackPointExtension>
        </extensions>
      </trkpt>
      <trkpt lat="36.86679183505475521087646484375" lon="-118.49849718622863292694091796875">
        <ele>2279.60009765625</ele>
        <time>2021-06-28T02:10:48.000Z</time>
        <extensions>
          <ns3:TrackPointExtension>
            <ns3:atemp>30.0</ns3:atemp>
            <ns3:hr>97</ns3:hr>
          </ns3:TrackPointExtension>
        </extensions>
      </trkpt>
      <trkpt lat="36.866761744022369384765625" lon="-118.4985054843127727508544921875">
        <ele>2279.60009765625</ele>
        <time>2021-06-28T02:10:50.000Z</time>
        <extensions>
          <ns3:TrackPointExtension>
            <ns3:atemp>30.0</ns3:atemp>
            <ns3:hr>96</ns3:hr>
          </ns3:TrackPointExtension>
        </extensions>
      </trkpt>
      <trkpt lat="36.8667201697826385498046875" lon="-118.49853859283030033111572265625">
        <ele>2279</ele>
        <time>2021-06-28T02:10:53.000Z</time>
        <extensions>
          <ns3:TrackPointExtension>
            <ns3:atemp>30.0</ns3:atemp>
            <ns3:hr>94</ns3:hr>
          </ns3:TrackPointExtension>
        </extensions>
      </trkpt>
      <trkpt lat="36.8667163141071796417236328125" lon="-118.49856055341660976409912109375">
        <ele>2279.60009765625</ele>
        <time>2021-06-28T02:10:54.000Z</time>
        <extensions>
          <ns3:TrackPointExtension>
            <ns3:atemp>30.0</ns3:atemp>
            <ns3:hr>94</ns3:hr>
          </ns3:TrackPointExtension>
        </extensions>
      </trkpt>
      <trkpt lat="36.86672477982938289642333984375" lon="-118.4986115992069244384765625">
        <ele>2279.800048828125</ele>
        <time>2021-06-28T02:10:56.000Z</time>
        <extensions>
          <ns3:TrackPointExtension>
            <ns3:atemp>30.0</ns3:atemp>
            <ns3:hr>93</ns3:hr>
          </ns3:TrackPointExtension>
        </extensions>
      </trkpt>
      <trkpt lat="36.8667270429432392120361328125" lon="-118.49863775074481964111328125">
        <ele>2279.800048828125</ele>
        <time>2021-06-28T02:10:57.000Z</time>
        <extensions>
          <ns3:TrackPointExtension>
            <ns3:atemp>30.0</ns3:atemp>
            <ns3:hr>92</ns3:hr>
          </ns3:TrackPointExtension>
        </extensions>
      </trkpt>
      <trkpt lat="36.866772472858428955078125" lon="-118.49872936494648456573486328125">
        <ele>2280.199951171875</ele>
        <time>2021-06-28T02:11:00.000Z</time>
        <extensions>
          <ns3:TrackPointExtension>
            <ns3:atemp>30.0</ns3:atemp>
            <ns3:hr>93</ns3:hr>
          </ns3:TrackPointExtension>
        </extensions>
      </trkpt>
      <trkpt lat="36.86676819808781147003173828125" lon="-118.49876892752945423126220703125">
        <ele>2280.39990234375</ele>
        <time>2021-06-28T02:11:02.000Z</time>
        <extensions>
          <ns3:TrackPointExtension>
            <ns3:atemp>30.0</ns3:atemp>
            <ns3:hr>93</ns3:hr>
          </ns3:TrackPointExtension>
        </extensions>
      </trkpt>
      <trkpt lat="36.8667615763843059539794921875" lon="-118.4987965039908885955810546875">
        <ele>2280.800048828125</ele>
        <time>2021-06-28T02:11:04.000Z</time>
        <extensions>
          <ns3:TrackPointExtension>
            <ns3:atemp>30.0</ns3:atemp>
            <ns3:hr>94</ns3:hr>
          </ns3:TrackPointExtension>
        </extensions>
      </trkpt>
      <trkpt lat="36.8667515181005001068115234375" lon="-118.49884637631475925445556640625">
        <ele>2281.39990234375</ele>
        <time>2021-06-28T02:11:07.000Z</time>
        <extensions>
          <ns3:TrackPointExtension>
            <ns3:atemp>30.0</ns3:atemp>
            <ns3:hr>96</ns3:hr>
          </ns3:TrackPointExtension>
        </extensions>
      </trkpt>
      <trkpt lat="36.86672243289649486541748046875" lon="-118.49887705408036708831787109375">
        <ele>2281.199951171875</ele>
        <time>2021-06-28T02:11:10.000Z</time>
        <extensions>
          <ns3:TrackPointExtension>
            <ns3:atemp>30.0</ns3:atemp>
            <ns3:hr>98</ns3:hr>
          </ns3:TrackPointExtension>
        </extensions>
      </trkpt>
      <trkpt lat="36.866686306893825531005859375" lon="-118.49892131052911281585693359375">
        <ele>2281.199951171875</ele>
        <time>2021-06-28T02:11:13.000Z</time>
        <extensions>
          <ns3:TrackPointExtension>
            <ns3:atemp>30.0</ns3:atemp>
            <ns3:hr>101</ns3:hr>
          </ns3:TrackPointExtension>
        </extensions>
      </trkpt>
      <trkpt lat="36.86668102629482746124267578125" lon="-118.49892868660390377044677734375">
        <ele>2281.199951171875</ele>
        <time>2021-06-28T02:11:14.000Z</time>
        <extensions>
          <ns3:TrackPointExtension>
            <ns3:atemp>30.0</ns3:atemp>
            <ns3:hr>101</ns3:hr>
          </ns3:TrackPointExtension>
        </extensions>
      </trkpt>
      <trkpt lat="36.8666586466133594512939453125" lon="-118.49893723614513874053955078125">
        <ele>2282</ele>
        <time>2021-06-28T02:11:16.000Z</time>
        <extensions>
          <ns3:TrackPointExtension>
            <ns3:atemp>30.0</ns3:atemp>
            <ns3:hr>104</ns3:hr>
          </ns3:TrackPointExtension>
        </extensions>
      </trkpt>
      <trkpt lat="36.866609193384647369384765625" lon="-118.49897361360490322113037109375">
        <ele>2282.199951171875</ele>
        <time>2021-06-28T02:11:21.000Z</time>
        <extensions>
          <ns3:TrackPointExtension>
            <ns3:atemp>30.0</ns3:atemp>
            <ns3:hr>107</ns3:hr>
          </ns3:TrackPointExtension>
        </extensions>
      </trkpt>
      <trkpt lat="36.86656334437429904937744140625" lon="-118.4989897906780242919921875">
        <ele>2282</ele>
        <time>2021-06-28T02:11:24.000Z</time>
        <extensions>
          <ns3:TrackPointExtension>
            <ns3:atemp>30.0</ns3:atemp>
            <ns3:hr>109</ns3:hr>
          </ns3:TrackPointExtension>
        </extensions>
      </trkpt>
      <trkpt lat="36.8665423057973384857177734375" lon="-118.49904284812510013580322265625">
        <ele>2281.60009765625</ele>
        <time>2021-06-28T02:11:27.000Z</time>
        <extensions>
          <ns3:TrackPointExtension>
            <ns3:atemp>30.0</ns3:atemp>
            <ns3:hr>111</ns3:hr>
          </ns3:TrackPointExtension>
        </extensions>
      </trkpt>
      <trkpt lat="36.86654272489249706268310546875" lon="-118.4991207160055637359619140625">
        <ele>2281.199951171875</ele>
        <time>2021-06-28T02:11:31.000Z</time>
        <extensions>
          <ns3:TrackPointExtension>
            <ns3:atemp>30.0</ns3:atemp>
            <ns3:hr>110</ns3:hr>
          </ns3:TrackPointExtension>
        </extensions>
      </trkpt>
      <trkpt lat="36.86653031967580318450927734375" lon="-118.49914376623928546905517578125">
        <ele>2281.199951171875</ele>
        <time>2021-06-28T02:11:33.000Z</time>
        <extensions>
          <ns3:TrackPointExtension>
            <ns3:atemp>30.0</ns3:atemp>
            <ns3:hr>110</ns3:hr>
          </ns3:TrackPointExtension>
        </extensions>
      </trkpt>
      <trkpt lat="36.86652093194425106048583984375" lon="-118.49915298633277416229248046875">
        <ele>2281.199951171875</ele>
        <time>2021-06-28T02:11:34.000Z</time>
        <extensions>
          <ns3:TrackPointExtension>
            <ns3:atemp>30.0</ns3:atemp>
            <ns3:hr>111</ns3:hr>
          </ns3:TrackPointExtension>
        </extensions>
      </trkpt>
      <trkpt lat="36.86649092473089694976806640625" lon="-118.4992373920977115631103515625">
        <ele>2280.800048828125</ele>
        <time>2021-06-28T02:11:40.000Z</time>
        <extensions>
          <ns3:TrackPointExtension>
            <ns3:atemp>30.0</ns3:atemp>
            <ns3:hr>109</ns3:hr>
          </ns3:TrackPointExtension>
        </extensions>
      </trkpt>
      <trkpt lat="36.866506598889827728271484375" lon="-118.49928391166031360626220703125">
        <ele>2280.800048828125</ele>
        <time>2021-06-28T02:11:42.000Z</time>
        <extensions>
          <ns3:TrackPointExtension>
            <ns3:atemp>30.0</ns3:atemp>
            <ns3:hr>109</ns3:hr>
          </ns3:TrackPointExtension>
        </extensions>
      </trkpt>
      <trkpt lat="36.86652545817196369171142578125" lon="-118.49939304403960704803466796875">
        <ele>2281.39990234375</ele>
        <time>2021-06-28T02:11:48.000Z</time>
        <extensions>
          <ns3:TrackPointExtension>
            <ns3:atemp>30.0</ns3:atemp>
            <ns3:hr>108</ns3:hr>
          </ns3:TrackPointExtension>
        </extensions>
      </trkpt>
      <trkpt lat="36.86651020310819149017333984375" lon="-118.499508462846279144287109375">
        <ele>2281.800048828125</ele>
        <time>2021-06-28T02:11:54.000Z</time>
        <extensions>
          <ns3:TrackPointExtension>
            <ns3:atemp>30.0</ns3:atemp>
            <ns3:hr>111</ns3:hr>
          </ns3:TrackPointExtension>
        </extensions>
      </trkpt>
      <trkpt lat="36.8665107898414134979248046875" lon="-118.49961197935044765472412109375">
        <ele>2282</ele>
        <time>2021-06-28T02:11:59.000Z</time>
        <extensions>
          <ns3:TrackPointExtension>
            <ns3:atemp>30.0</ns3:atemp>
            <ns3:hr>110</ns3:hr>
          </ns3:TrackPointExtension>
        </extensions>
      </trkpt>
      <trkpt lat="36.8665164895355701446533203125" lon="-118.49964869208633899688720703125">
        <ele>2282.39990234375</ele>
        <time>2021-06-28T02:12:01.000Z</time>
        <extensions>
          <ns3:TrackPointExtension>
            <ns3:atemp>30.0</ns3:atemp>
            <ns3:hr>110</ns3:hr>
          </ns3:TrackPointExtension>
        </extensions>
      </trkpt>
      <trkpt lat="36.866522692143917083740234375" lon="-118.49967635236680507659912109375">
        <ele>2282.39990234375</ele>
        <time>2021-06-28T02:12:02.000Z</time>
        <extensions>
          <ns3:TrackPointExtension>
            <ns3:atemp>30.0</ns3:atemp>
            <ns3:hr>114</ns3:hr>
          </ns3:TrackPointExtension>
        </extensions>
      </trkpt>
      <trkpt lat="36.86653400771319866180419921875" lon="-118.49973879754543304443359375">
        <ele>2282.39990234375</ele>
        <time>2021-06-28T02:12:04.000Z</time>
        <extensions>
          <ns3:TrackPointExtension>
            <ns3:atemp>30.0</ns3:atemp>
            <ns3:hr>109</ns3:hr>
          </ns3:TrackPointExtension>
        </extensions>
      </trkpt>
      <trkpt lat="36.86654306016862392425537109375" lon="-118.49977324716746807098388671875">
        <ele>2282.39990234375</ele>
        <time>2021-06-28T02:12:05.000Z</time>
        <extensions>
          <ns3:TrackPointExtension>
            <ns3:atemp>30.0</ns3:atemp>
            <ns3:hr>109</ns3:hr>
          </ns3:TrackPointExtension>
        </extensions>
      </trkpt>
      <trkpt lat="36.86657742597162723541259765625" lon="-118.49987550638616085052490234375">
        <ele>2282</ele>
        <time>2021-06-28T02:12:09.000Z</time>
        <extensions>
          <ns3:TrackPointExtension>
            <ns3:atemp>30.0</ns3:atemp>
            <ns3:hr>106</ns3:hr>
          </ns3:TrackPointExtension>
        </extensions>
      </trkpt>
      <trkpt lat="36.8665754981338977813720703125" lon="-118.49993317387998104095458984375">
        <ele>2281.60009765625</ele>
        <time>2021-06-28T02:12:12.000Z</time>
        <extensions>
          <ns3:TrackPointExtension>
            <ns3:atemp>30.0</ns3:atemp>
            <ns3:hr>109</ns3:hr>
          </ns3:TrackPointExtension>
        </extensions>
      </trkpt>
      <trkpt lat="36.86657625250518321990966796875" lon="-118.49995278753340244293212890625">
        <ele>2281.39990234375</ele>
        <time>2021-06-28T02:12:13.000Z</time>
        <extensions>
          <ns3:TrackPointExtension>
            <ns3:atemp>30.0</ns3:atemp>
            <ns3:hr>109</ns3:hr>
          </ns3:TrackPointExtension>
        </extensions>
      </trkpt>
      <trkpt lat="36.8665748275816440582275390625" lon="-118.500015735626220703125">
        <ele>2280.39990234375</ele>
        <time>2021-06-28T02:12:19.000Z</time>
        <extensions>
          <ns3:TrackPointExtension>
            <ns3:atemp>30.0</ns3:atemp>
            <ns3:hr>108</ns3:hr>
          </ns3:TrackPointExtension>
        </extensions>
      </trkpt>
      <trkpt lat="36.8665771745145320892333984375" lon="-118.50002923049032688140869140625">
        <ele>2280.199951171875</ele>
        <time>2021-06-28T02:12:20.000Z</time>
        <extensions>
          <ns3:TrackPointExtension>
            <ns3:atemp>30.0</ns3:atemp>
            <ns3:hr>108</ns3:hr>
          </ns3:TrackPointExtension>
        </extensions>
      </trkpt>
      <trkpt lat="36.86658681370317935943603515625" lon="-118.50009058602154254913330078125">
        <ele>2279.199951171875</ele>
        <time>2021-06-28T02:12:25.000Z</time>
        <extensions>
          <ns3:TrackPointExtension>
            <ns3:atemp>30.0</ns3:atemp>
            <ns3:hr>107</ns3:hr>
          </ns3:TrackPointExtension>
        </extensions>
      </trkpt>
      <trkpt lat="36.86659318394958972930908203125" lon="-118.500117994844913482666015625">
        <ele>2278.60009765625</ele>
        <time>2021-06-28T02:12:28.000Z</time>
        <extensions>
          <ns3:TrackPointExtension>
            <ns3:atemp>30.0</ns3:atemp>
            <ns3:hr>106</ns3:hr>
          </ns3:TrackPointExtension>
        </extensions>
      </trkpt>
      <trkpt lat="36.86661715619266033172607421875" lon="-118.50015395320951938629150390625">
        <ele>2278.39990234375</ele>
        <time>2021-06-28T02:12:31.000Z</time>
        <extensions>
          <ns3:TrackPointExtension>
            <ns3:atemp>30.0</ns3:atemp>
            <ns3:hr>104</ns3:hr>
          </ns3:TrackPointExtension>
        </extensions>
      </trkpt>
      <trkpt lat="36.86663056723773479461669921875" lon="-118.50017691962420940399169921875">
        <ele>2278.39990234375</ele>
        <time>2021-06-28T02:12:33.000Z</time>
        <extensions>
          <ns3:TrackPointExtension>
            <ns3:atemp>30.0</ns3:atemp>
            <ns3:hr>105</ns3:hr>
          </ns3:TrackPointExtension>
        </extensions>
      </trkpt>
      <trkpt lat="36.86662805266678333282470703125" lon="-118.50018245168030261993408203125">
        <ele>2278.199951171875</ele>
        <time>2021-06-28T02:12:34.000Z</time>
        <extensions>
          <ns3:TrackPointExtension>
            <ns3:atemp>30.0</ns3:atemp>
            <ns3:hr>104</ns3:hr>
          </ns3:TrackPointExtension>
        </extensions>
      </trkpt>
      <trkpt lat="36.86662520281970500946044921875" lon="-118.5001912526786327362060546875">
        <ele>2277.60009765625</ele>
        <time>2021-06-28T02:12:35.000Z</time>
        <extensions>
          <ns3:TrackPointExtension>
            <ns3:atemp>30.0</ns3:atemp>
            <ns3:hr>103</ns3:hr>
          </ns3:TrackPointExtension>
        </extensions>
      </trkpt>
      <trkpt lat="36.86661782674491405487060546875" lon="-118.500205166637897491455078125">
        <ele>2277</ele>
        <time>2021-06-28T02:12:37.000Z</time>
        <extensions>
          <ns3:TrackPointExtension>
            <ns3:atemp>30.0</ns3:atemp>
            <ns3:hr>103</ns3:hr>
          </ns3:TrackPointExtension>
        </extensions>
      </trkpt>
      <trkpt lat="36.86663039959967136383056640625" lon="-118.50022167898714542388916015625">
        <ele>2276.39990234375</ele>
        <time>2021-06-28T02:12:39.000Z</time>
        <extensions>
          <ns3:TrackPointExtension>
            <ns3:atemp>30.0</ns3:atemp>
            <ns3:hr>102</ns3:hr>
          </ns3:TrackPointExtension>
        </extensions>
      </trkpt>
      <trkpt lat="36.8666395358741283416748046875" lon="-118.50022905506193637847900390625">
        <ele>2276.199951171875</ele>
        <time>2021-06-28T02:12:40.000Z</time>
        <extensions>
          <ns3:TrackPointExtension>
            <ns3:atemp>30.0</ns3:atemp>
            <ns3:hr>100</ns3:hr>
          </ns3:TrackPointExtension>
        </extensions>
      </trkpt>
      <trkpt lat="36.86664163134992122650146484375" lon="-118.5002368502318859100341796875">
        <ele>2276</ele>
        <time>2021-06-28T02:12:41.000Z</time>
        <extensions>
          <ns3:TrackPointExtension>
            <ns3:atemp>30.0</ns3:atemp>
            <ns3:hr>100</ns3:hr>
          </ns3:TrackPointExtension>
        </extensions>
      </trkpt>
      <trkpt lat="36.8666732311248779296875" lon="-118.500278256833553314208984375">
        <ele>2276</ele>
        <time>2021-06-28T02:12:45.000Z</time>
        <extensions>
          <ns3:TrackPointExtension>
            <ns3:atemp>30.0</ns3:atemp>
            <ns3:hr>103</ns3:hr>
          </ns3:TrackPointExtension>
        </extensions>
      </trkpt>
      <trkpt lat="36.86668655835092067718505859375" lon="-118.50029124878346920013427734375">
        <ele>2275.800048828125</ele>
        <time>2021-06-28T02:12:46.000Z</time>
        <extensions>
          <ns3:TrackPointExtension>
            <ns3:atemp>30.0</ns3:atemp>
            <ns3:hr>98</ns3:hr>
          </ns3:TrackPointExtension>
        </extensions>
      </trkpt>
      <trkpt lat="36.8667072616517543792724609375" lon="-118.50035578943789005279541015625">
        <ele>2273.800048828125</ele>
        <time>2021-06-28T02:12:50.000Z</time>
        <extensions>
          <ns3:TrackPointExtension>
            <ns3:atemp>30.0</ns3:atemp>
            <ns3:hr>97</ns3:hr>
          </ns3:TrackPointExtension>
        </extensions>
      </trkpt>
      <trkpt lat="36.86672712676227092742919921875" lon="-118.50039987824857234954833984375">
        <ele>2273.39990234375</ele>
        <time>2021-06-28T02:12:52.000Z</time>
        <extensions>
          <ns3:TrackPointExtension>
            <ns3:atemp>30.0</ns3:atemp>
            <ns3:hr>96</ns3:hr>
          </ns3:TrackPointExtension>
        </extensions>
      </trkpt>
      <trkpt lat="36.86672310344874858856201171875" lon="-118.50041664205491542816162109375">
        <ele>2273.199951171875</ele>
        <time>2021-06-28T02:12:53.000Z</time>
        <extensions>
          <ns3:TrackPointExtension>
            <ns3:atemp>30.0</ns3:atemp>
            <ns3:hr>97</ns3:hr>
          </ns3:TrackPointExtension>
        </extensions>
      </trkpt>
      <trkpt lat="36.86671421863138675689697265625" lon="-118.50049115717411041259765625">
        <ele>2272.800048828125</ele>
        <time>2021-06-28T02:12:56.000Z</time>
        <extensions>
          <ns3:TrackPointExtension>
            <ns3:atemp>30.0</ns3:atemp>
            <ns3:hr>97</ns3:hr>
          </ns3:TrackPointExtension>
        </extensions>
      </trkpt>
      <trkpt lat="36.86673047952353954315185546875" lon="-118.50053139030933380126953125">
        <ele>2272.60009765625</ele>
        <time>2021-06-28T02:12:58.000Z</time>
        <extensions>
          <ns3:TrackPointExtension>
            <ns3:atemp>30.0</ns3:atemp>
            <ns3:hr>97</ns3:hr>
          </ns3:TrackPointExtension>
        </extensions>
      </trkpt>
      <trkpt lat="36.86674389056861400604248046875" lon="-118.5005520097911357879638671875">
        <ele>2272.39990234375</ele>
        <time>2021-06-28T02:12:59.000Z</time>
        <extensions>
          <ns3:TrackPointExtension>
            <ns3:atemp>30.0</ns3:atemp>
            <ns3:hr>97</ns3:hr>
          </ns3:TrackPointExtension>
        </extensions>
      </trkpt>
      <trkpt lat="36.8667592294514179229736328125" lon="-118.5005784966051578521728515625">
        <ele>2272.199951171875</ele>
        <time>2021-06-28T02:13:01.000Z</time>
        <extensions>
          <ns3:TrackPointExtension>
            <ns3:atemp>30.0</ns3:atemp>
            <ns3:hr>97</ns3:hr>
          </ns3:TrackPointExtension>
        </extensions>
      </trkpt>
      <trkpt lat="36.86674657277762889862060546875" lon="-118.500608839094638824462890625">
        <ele>2272</ele>
        <time>2021-06-28T02:13:05.000Z</time>
        <extensions>
          <ns3:TrackPointExtension>
            <ns3:atemp>30.0</ns3:atemp>
            <ns3:hr>94</ns3:hr>
          </ns3:TrackPointExtension>
        </extensions>
      </trkpt>
      <trkpt lat="36.8667441420257091522216796875" lon="-118.50061529316008090972900390625">
        <ele>2271.800048828125</ele>
        <time>2021-06-28T02:13:06.000Z</time>
        <extensions>
          <ns3:TrackPointExtension>
            <ns3:atemp>30.0</ns3:atemp>
            <ns3:hr>95</ns3:hr>
          </ns3:TrackPointExtension>
        </extensions>
      </trkpt>
      <trkpt lat="36.866743974387645721435546875" lon="-118.50064747966825962066650390625">
        <ele>2271.60009765625</ele>
        <time>2021-06-28T02:13:10.000Z</time>
        <extensions>
          <ns3:TrackPointExtension>
            <ns3:atemp>30.0</ns3:atemp>
            <ns3:hr>97</ns3:hr>
          </ns3:TrackPointExtension>
        </extensions>
      </trkpt>
      <trkpt lat="36.86674623750150203704833984375" lon="-118.500669188797473907470703125">
        <ele>2271.60009765625</ele>
        <time>2021-06-28T02:13:12.000Z</time>
        <extensions>
          <ns3:TrackPointExtension>
            <ns3:atemp>30.0</ns3:atemp>
            <ns3:hr>98</ns3:hr>
          </ns3:TrackPointExtension>
        </extensions>
      </trkpt>
      <trkpt lat="36.86673425137996673583984375" lon="-118.50072023458778858184814453125">
        <ele>2271</ele>
        <time>2021-06-28T02:13:17.000Z</time>
        <extensions>
          <ns3:TrackPointExtension>
            <ns3:atemp>30.0</ns3:atemp>
            <ns3:hr>100</ns3:hr>
          </ns3:TrackPointExtension>
        </extensions>
      </trkpt>
      <trkpt lat="36.86674271710216999053955078125" lon="-118.50082383491098880767822265625">
        <ele>2270.60009765625</ele>
        <time>2021-06-28T02:13:23.000Z</time>
        <extensions>
          <ns3:TrackPointExtension>
            <ns3:atemp>30.0</ns3:atemp>
            <ns3:hr>101</ns3:hr>
          </ns3:TrackPointExtension>
        </extensions>
      </trkpt>
      <trkpt lat="36.86675126664340496063232421875" lon="-118.50084445439279079437255859375">
        <ele>2270.60009765625</ele>
        <time>2021-06-28T02:13:24.000Z</time>
        <extensions>
          <ns3:TrackPointExtension>
            <ns3:atemp>30.0</ns3:atemp>
            <ns3:hr>101</ns3:hr>
          </ns3:TrackPointExtension>
        </extensions>
      </trkpt>
      <trkpt lat="36.8667699582874774932861328125" lon="-118.50089340470731258392333984375">
        <ele>2270.39990234375</ele>
        <time>2021-06-28T02:13:28.000Z</time>
        <extensions>
          <ns3:TrackPointExtension>
            <ns3:atemp>30.0</ns3:atemp>
            <ns3:hr>98</ns3:hr>
          </ns3:TrackPointExtension>
        </extensions>
      </trkpt>
      <trkpt lat="36.866751350462436676025390625" lon="-118.50090279243886470794677734375">
        <ele>2270.39990234375</ele>
        <time>2021-06-28T02:13:30.000Z</time>
        <extensions>
          <ns3:TrackPointExtension>
            <ns3:atemp>30.0</ns3:atemp>
            <ns3:hr>96</ns3:hr>
          </ns3:TrackPointExtension>
        </extensions>
      </trkpt>
      <trkpt lat="36.8667282164096832275390625" lon="-118.500935733318328857421875">
        <ele>2270.39990234375</ele>
        <time>2021-06-28T02:13:35.000Z</time>
        <extensions>
          <ns3:TrackPointExtension>
            <ns3:atemp>30.0</ns3:atemp>
            <ns3:hr>93</ns3:hr>
          </ns3:TrackPointExtension>
        </extensions>
      </trkpt>
      <trkpt lat="36.86673383228480815887451171875" lon="-118.5009486414492130279541015625">
        <ele>2270.199951171875</ele>
        <time>2021-06-28T02:13:36.000Z</time>
        <extensions>
          <ns3:TrackPointExtension>
            <ns3:atemp>30.0</ns3:atemp>
            <ns3:hr>93</ns3:hr>
          </ns3:TrackPointExtension>
        </extensions>
      </trkpt>
      <trkpt lat="36.86674305237829685211181640625" lon="-118.50099675357341766357421875">
        <ele>2270.199951171875</ele>
        <time>2021-06-28T02:13:41.000Z</time>
        <extensions>
          <ns3:TrackPointExtension>
            <ns3:atemp>30.0</ns3:atemp>
            <ns3:hr>96</ns3:hr>
          </ns3:TrackPointExtension>
        </extensions>
      </trkpt>
      <trkpt lat="36.866743303835391998291015625" lon="-118.50100505165755748748779296875">
        <ele>2270.199951171875</ele>
        <time>2021-06-28T02:13:42.000Z</time>
        <extensions>
          <ns3:TrackPointExtension>
            <ns3:atemp>30.0</ns3:atemp>
            <ns3:hr>96</ns3:hr>
          </ns3:TrackPointExtension>
        </extensions>
      </trkpt>
      <trkpt lat="36.8667602352797985076904296875" lon="-118.501076214015483856201171875">
        <ele>2270.199951171875</ele>
        <time>2021-06-28T02:13:47.000Z</time>
        <extensions>
          <ns3:TrackPointExtension>
            <ns3:atemp>30.0</ns3:atemp>
            <ns3:hr>100</ns3:hr>
          </ns3:TrackPointExtension>
        </extensions>
      </trkpt>
      <trkpt lat="36.86677909456193447113037109375" lon="-118.50110462866723537445068359375">
        <ele>2270.199951171875</ele>
        <time>2021-06-28T02:13:48.000Z</time>
        <extensions>
          <ns3:TrackPointExtension>
            <ns3:atemp>30.0</ns3:atemp>
            <ns3:hr>101</ns3:hr>
          </ns3:TrackPointExtension>
        </extensions>
      </trkpt>
      <trkpt lat="36.866814382374286651611328125" lon="-118.50118450820446014404296875">
        <ele>2270.39990234375</ele>
        <time>2021-06-28T02:13:53.000Z</time>
        <extensions>
          <ns3:TrackPointExtension>
            <ns3:atemp>30.0</ns3:atemp>
            <ns3:hr>101</ns3:hr>
          </ns3:TrackPointExtension>
        </extensions>
      </trkpt>
      <trkpt lat="36.86677238903939723968505859375" lon="-118.50131786428391933441162109375">
        <ele>2270.60009765625</ele>
        <time>2021-06-28T02:14:00.000Z</time>
        <extensions>
          <ns3:TrackPointExtension>
            <ns3:atemp>30.0</ns3:atemp>
            <ns3:hr>98</ns3:hr>
          </ns3:TrackPointExtension>
        </extensions>
      </trkpt>
      <trkpt lat="36.86672410927712917327880859375" lon="-118.501347787678241729736328125">
        <ele>2271</ele>
        <time>2021-06-28T02:14:04.000Z</time>
        <extensions>
          <ns3:TrackPointExtension>
            <ns3:atemp>30.0</ns3:atemp>
            <ns3:hr>98</ns3:hr>
          </ns3:TrackPointExtension>
        </extensions>
      </trkpt>
      <trkpt lat="36.8667183257639408111572265625" lon="-118.50141509436070919036865234375">
        <ele>2270.800048828125</ele>
        <time>2021-06-28T02:14:10.000Z</time>
        <extensions>
          <ns3:TrackPointExtension>
            <ns3:atemp>30.0</ns3:atemp>
            <ns3:hr>101</ns3:hr>
          </ns3:TrackPointExtension>
        </extensions>
      </trkpt>
      <trkpt lat="36.86672595329582691192626953125" lon="-118.5014502145349979400634765625">
        <ele>2270.60009765625</ele>
        <time>2021-06-28T02:14:14.000Z</time>
        <extensions>
          <ns3:TrackPointExtension>
            <ns3:atemp>30.0</ns3:atemp>
            <ns3:hr>102</ns3:hr>
          </ns3:TrackPointExtension>
        </extensions>
      </trkpt>
      <trkpt lat="36.86671924777328968048095703125" lon="-118.5014562495052814483642578125">
        <ele>2270.60009765625</ele>
        <time>2021-06-28T02:14:15.000Z</time>
        <extensions>
          <ns3:TrackPointExtension>
            <ns3:atemp>30.0</ns3:atemp>
            <ns3:hr>101</ns3:hr>
          </ns3:TrackPointExtension>
        </extensions>
      </trkpt>
      <trkpt lat="36.86671405099332332611083984375" lon="-118.50147075019776821136474609375">
        <ele>2270.800048828125</ele>
        <time>2021-06-28T02:14:17.000Z</time>
        <extensions>
          <ns3:TrackPointExtension>
            <ns3:atemp>30.0</ns3:atemp>
            <ns3:hr>102</ns3:hr>
          </ns3:TrackPointExtension>
        </extensions>
      </trkpt>
      <trkpt lat="36.866714470088481903076171875" lon="-118.50147695280611515045166015625">
        <ele>2270.60009765625</ele>
        <time>2021-06-28T02:14:18.000Z</time>
        <extensions>
          <ns3:TrackPointExtension>
            <ns3:atemp>30.0</ns3:atemp>
            <ns3:hr>102</ns3:hr>
          </ns3:TrackPointExtension>
        </extensions>
      </trkpt>
      <trkpt lat="36.86670918948948383331298828125" lon="-118.50148625671863555908203125">
        <ele>2270.800048828125</ele>
        <time>2021-06-28T02:14:20.000Z</time>
        <extensions>
          <ns3:TrackPointExtension>
            <ns3:atemp>30.0</ns3:atemp>
            <ns3:hr>102</ns3:hr>
          </ns3:TrackPointExtension>
        </extensions>
      </trkpt>
      <trkpt lat="36.86669678427278995513916015625" lon="-118.50152221508324146270751953125">
        <ele>2270.60009765625</ele>
        <time>2021-06-28T02:14:23.000Z</time>
        <extensions>
          <ns3:TrackPointExtension>
            <ns3:atemp>30.0</ns3:atemp>
            <ns3:hr>102</ns3:hr>
          </ns3:TrackPointExtension>
        </extensions>
      </trkpt>
      <trkpt lat="36.8666992150247097015380859375" lon="-118.50155876018106937408447265625">
        <ele>2270.60009765625</ele>
        <time>2021-06-28T02:14:26.000Z</time>
        <extensions>
          <ns3:TrackPointExtension>
            <ns3:atemp>30.0</ns3:atemp>
            <ns3:hr>104</ns3:hr>
          </ns3:TrackPointExtension>
        </extensions>
      </trkpt>
      <trkpt lat="36.8666960299015045166015625" lon="-118.50159111432731151580810546875">
        <ele>2270.800048828125</ele>
        <time>2021-06-28T02:14:29.000Z</time>
        <extensions>
          <ns3:TrackPointExtension>
            <ns3:atemp>30.0</ns3:atemp>
            <ns3:hr>102</ns3:hr>
          </ns3:TrackPointExtension>
        </extensions>
      </trkpt>
      <trkpt lat="36.86670063994824886322021484375" lon="-118.5016022622585296630859375">
        <ele>2270.800048828125</ele>
        <time>2021-06-28T02:14:30.000Z</time>
        <extensions>
          <ns3:TrackPointExtension>
            <ns3:atemp>30.0</ns3:atemp>
            <ns3:hr>101</ns3:hr>
          </ns3:TrackPointExtension>
        </extensions>
      </trkpt>
      <trkpt lat="36.86669125221669673919677734375" lon="-118.50161424838006496429443359375">
        <ele>2271</ele>
        <time>2021-06-28T02:14:32.000Z</time>
        <extensions>
          <ns3:TrackPointExtension>
            <ns3:atemp>30.0</ns3:atemp>
            <ns3:hr>98</ns3:hr>
          </ns3:TrackPointExtension>
        </extensions>
      </trkpt>
      <trkpt lat="36.8666891567409038543701171875" lon="-118.5016228817403316497802734375">
        <ele>2271</ele>
        <time>2021-06-28T02:14:33.000Z</time>
        <extensions>
          <ns3:TrackPointExtension>
            <ns3:atemp>30.0</ns3:atemp>
            <ns3:hr>97</ns3:hr>
          </ns3:TrackPointExtension>
        </extensions>
      </trkpt>
      <trkpt lat="36.86668622307479381561279296875" lon="-118.5016329400241374969482421875">
        <ele>2271</ele>
        <time>2021-06-28T02:14:34.000Z</time>
        <extensions>
          <ns3:TrackPointExtension>
            <ns3:atemp>30.0</ns3:atemp>
            <ns3:hr>96</ns3:hr>
          </ns3:TrackPointExtension>
        </extensions>
      </trkpt>
      <trkpt lat="36.86667448841035366058349609375" lon="-118.50166797637939453125">
        <ele>2271</ele>
        <time>2021-06-28T02:14:37.000Z</time>
        <extensions>
          <ns3:TrackPointExtension>
            <ns3:atemp>30.0</ns3:atemp>
            <ns3:hr>93</ns3:hr>
          </ns3:TrackPointExtension>
        </extensions>
      </trkpt>
      <trkpt lat="36.86668337322771549224853515625" lon="-118.50169991143047809600830078125">
        <ele>2271</ele>
        <time>2021-06-28T02:14:39.000Z</time>
        <extensions>
          <ns3:TrackPointExtension>
            <ns3:atemp>30.0</ns3:atemp>
            <ns3:hr>92</ns3:hr>
          </ns3:TrackPointExtension>
        </extensions>
      </trkpt>
      <trkpt lat="36.8666911683976650238037109375" lon="-118.50171382538974285125732421875">
        <ele>2271</ele>
        <time>2021-06-28T02:14:40.000Z</time>
        <extensions>
          <ns3:TrackPointExtension>
            <ns3:atemp>30.0</ns3:atemp>
            <ns3:hr>91</ns3:hr>
          </ns3:TrackPointExtension>
        </extensions>
      </trkpt>
      <trkpt lat="36.8667119555175304412841796875" lon="-118.50176193751394748687744140625">
        <ele>2270.800048828125</ele>
        <time>2021-06-28T02:14:44.000Z</time>
        <extensions>
          <ns3:TrackPointExtension>
            <ns3:atemp>30.0</ns3:atemp>
            <ns3:hr>89</ns3:hr>
          </ns3:TrackPointExtension>
        </extensions>
      </trkpt>
      <trkpt lat="36.86671690084040164947509765625" lon="-118.50178976543247699737548828125">
        <ele>2270.800048828125</ele>
        <time>2021-06-28T02:14:46.000Z</time>
        <extensions>
          <ns3:TrackPointExtension>
            <ns3:atemp>30.0</ns3:atemp>
            <ns3:hr>89</ns3:hr>
          </ns3:TrackPointExtension>
        </extensions>
      </trkpt>
      <trkpt lat="36.86671891249716281890869140625" lon="-118.5018074512481689453125">
        <ele>2270.800048828125</ele>
        <time>2021-06-28T02:14:47.000Z</time>
        <extensions>
          <ns3:TrackPointExtension>
            <ns3:atemp>30.0</ns3:atemp>
            <ns3:hr>87</ns3:hr>
          </ns3:TrackPointExtension>
        </extensions>
      </trkpt>
      <trkpt lat="36.8667094409465789794921875" lon="-118.5018448345363140106201171875">
        <ele>2271.39990234375</ele>
        <time>2021-06-28T02:14:49.000Z</time>
        <extensions>
          <ns3:TrackPointExtension>
            <ns3:atemp>30.0</ns3:atemp>
            <ns3:hr>88</ns3:hr>
          </ns3:TrackPointExtension>
        </extensions>
      </trkpt>
      <trkpt lat="36.866676919162273406982421875" lon="-118.50186654366552829742431640625">
        <ele>2271.800048828125</ele>
        <time>2021-06-28T02:14:51.000Z</time>
        <extensions>
          <ns3:TrackPointExtension>
            <ns3:atemp>30.0</ns3:atemp>
            <ns3:hr>87</ns3:hr>
          </ns3:TrackPointExtension>
        </extensions>
      </trkpt>
      <trkpt lat="36.8666526116430759429931640625" lon="-118.5018864087760448455810546875">
        <ele>2272</ele>
        <time>2021-06-28T02:14:53.000Z</time>
        <extensions>
          <ns3:TrackPointExtension>
            <ns3:atemp>30.0</ns3:atemp>
            <ns3:hr>88</ns3:hr>
          </ns3:TrackPointExtension>
        </extensions>
      </trkpt>
      <trkpt lat="36.86667214147746562957763671875" lon="-118.50191700272262096405029296875">
        <ele>2271.800048828125</ele>
        <time>2021-06-28T02:14:55.000Z</time>
        <extensions>
          <ns3:TrackPointExtension>
            <ns3:atemp>30.0</ns3:atemp>
            <ns3:hr>87</ns3:hr>
          </ns3:TrackPointExtension>
        </extensions>
      </trkpt>
      <trkpt lat="36.86668328940868377685546875" lon="-118.5019340179860591888427734375">
        <ele>2271.60009765625</ele>
        <time>2021-06-28T02:14:56.000Z</time>
        <extensions>
          <ns3:TrackPointExtension>
            <ns3:atemp>30.0</ns3:atemp>
            <ns3:hr>87</ns3:hr>
          </ns3:TrackPointExtension>
        </extensions>
      </trkpt>
      <trkpt lat="36.8666700460016727447509765625" lon="-118.5019883327186107635498046875">
        <ele>2271.800048828125</ele>
        <time>2021-06-28T02:15:00.000Z</time>
        <extensions>
          <ns3:TrackPointExtension>
            <ns3:atemp>30.0</ns3:atemp>
            <ns3:hr>89</ns3:hr>
          </ns3:TrackPointExtension>
        </extensions>
      </trkpt>
      <trkpt lat="36.86667180620133876800537109375" lon="-118.501998223364353179931640625">
        <ele>2271.800048828125</ele>
        <time>2021-06-28T02:15:01.000Z</time>
        <extensions>
          <ns3:TrackPointExtension>
            <ns3:atemp>30.0</ns3:atemp>
            <ns3:hr>89</ns3:hr>
          </ns3:TrackPointExtension>
        </extensions>
      </trkpt>
      <trkpt lat="36.86665521003305912017822265625" lon="-118.50202378816902637481689453125">
        <ele>2272</ele>
        <time>2021-06-28T02:15:04.000Z</time>
        <extensions>
          <ns3:TrackPointExtension>
            <ns3:atemp>30.0</ns3:atemp>
            <ns3:hr>90</ns3:hr>
          </ns3:TrackPointExtension>
        </extensions>
      </trkpt>
      <trkpt lat="36.86665705405175685882568359375" lon="-118.5020654462277889251708984375">
        <ele>2272</ele>
        <time>2021-06-28T02:15:07.000Z</time>
        <extensions>
          <ns3:TrackPointExtension>
            <ns3:atemp>30.0</ns3:atemp>
            <ns3:hr>91</ns3:hr>
          </ns3:TrackPointExtension>
        </extensions>
      </trkpt>
      <trkpt lat="36.86665822751820087432861328125" lon="-118.50209536962211132049560546875">
        <ele>2272</ele>
        <time>2021-06-28T02:15:09.000Z</time>
        <extensions>
          <ns3:TrackPointExtension>
            <ns3:atemp>30.0</ns3:atemp>
            <ns3:hr>92</ns3:hr>
          </ns3:TrackPointExtension>
        </extensions>
      </trkpt>
      <trkpt lat="36.86666845344007015228271484375" lon="-118.50212252698838710784912109375">
        <ele>2272</ele>
        <time>2021-06-28T02:15:11.000Z</time>
        <extensions>
          <ns3:TrackPointExtension>
            <ns3:atemp>30.0</ns3:atemp>
            <ns3:hr>93</ns3:hr>
          </ns3:TrackPointExtension>
        </extensions>
      </trkpt>
      <trkpt lat="36.866654790937900543212890625" lon="-118.5021573118865489959716796875">
        <ele>2271.800048828125</ele>
        <time>2021-06-28T02:15:14.000Z</time>
        <extensions>
          <ns3:TrackPointExtension>
            <ns3:atemp>30.0</ns3:atemp>
            <ns3:hr>95</ns3:hr>
          </ns3:TrackPointExtension>
        </extensions>
      </trkpt>
      <trkpt lat="36.8666512705385684967041015625" lon="-118.5021677054464817047119140625">
        <ele>2271.60009765625</ele>
        <time>2021-06-28T02:15:15.000Z</time>
        <extensions>
          <ns3:TrackPointExtension>
            <ns3:atemp>30.0</ns3:atemp>
            <ns3:hr>94</ns3:hr>
          </ns3:TrackPointExtension>
        </extensions>
      </trkpt>
      <trkpt lat="36.86663006432354450225830078125" lon="-118.502190671861171722412109375">
        <ele>2271</ele>
        <time>2021-06-28T02:15:18.000Z</time>
        <extensions>
          <ns3:TrackPointExtension>
            <ns3:atemp>30.0</ns3:atemp>
            <ns3:hr>95</ns3:hr>
          </ns3:TrackPointExtension>
        </extensions>
      </trkpt>
      <trkpt lat="36.8666026555001735687255859375" lon="-118.50220433436334133148193359375">
        <ele>2270.800048828125</ele>
        <time>2021-06-28T02:15:21.000Z</time>
        <extensions>
          <ns3:TrackPointExtension>
            <ns3:atemp>30.0</ns3:atemp>
            <ns3:hr>96</ns3:hr>
          </ns3:TrackPointExtension>
        </extensions>
      </trkpt>
      <trkpt lat="36.8665994703769683837890625" lon="-118.50221715867519378662109375">
        <ele>2270.800048828125</ele>
        <time>2021-06-28T02:15:22.000Z</time>
        <extensions>
          <ns3:TrackPointExtension>
            <ns3:atemp>30.0</ns3:atemp>
            <ns3:hr>97</ns3:hr>
          </ns3:TrackPointExtension>
        </extensions>
      </trkpt>
      <trkpt lat="36.8665939383208751678466796875" lon="-118.502249680459499359130859375">
        <ele>2270.800048828125</ele>
        <time>2021-06-28T02:15:24.000Z</time>
        <extensions>
          <ns3:TrackPointExtension>
            <ns3:atemp>30.0</ns3:atemp>
            <ns3:hr>98</ns3:hr>
          </ns3:TrackPointExtension>
        </extensions>
      </trkpt>
      <trkpt lat="36.86656921170651912689208984375" lon="-118.50227725692093372344970703125">
        <ele>2270.39990234375</ele>
        <time>2021-06-28T02:15:26.000Z</time>
        <extensions>
          <ns3:TrackPointExtension>
            <ns3:atemp>30.0</ns3:atemp>
            <ns3:hr>98</ns3:hr>
          </ns3:TrackPointExtension>
        </extensions>
      </trkpt>
      <trkpt lat="36.866559572517871856689453125" lon="-118.50228697992861270904541015625">
        <ele>2270.39990234375</ele>
        <time>2021-06-28T02:15:27.000Z</time>
        <extensions>
          <ns3:TrackPointExtension>
            <ns3:atemp>30.0</ns3:atemp>
            <ns3:hr>99</ns3:hr>
          </ns3:TrackPointExtension>
        </extensions>
      </trkpt>
      <trkpt lat="36.86654255725443363189697265625" lon="-118.5023356787860393524169921875">
        <ele>2270.39990234375</ele>
        <time>2021-06-28T02:15:31.000Z</time>
        <extensions>
          <ns3:TrackPointExtension>
            <ns3:atemp>30.0</ns3:atemp>
            <ns3:hr>100</ns3:hr>
          </ns3:TrackPointExtension>
        </extensions>
      </trkpt>
      <trkpt lat="36.8665439821779727935791015625" lon="-118.50235001184046268463134765625">
        <ele>2270.39990234375</ele>
        <time>2021-06-28T02:15:32.000Z</time>
        <extensions>
          <ns3:TrackPointExtension>
            <ns3:atemp>30.0</ns3:atemp>
            <ns3:hr>100</ns3:hr>
          </ns3:TrackPointExtension>
        </extensions>
      </trkpt>
      <trkpt lat="36.86656661331653594970703125" lon="-118.50241455249488353729248046875">
        <ele>2269.800048828125</ele>
        <time>2021-06-28T02:15:35.000Z</time>
        <extensions>
          <ns3:TrackPointExtension>
            <ns3:atemp>30.0</ns3:atemp>
            <ns3:hr>100</ns3:hr>
          </ns3:TrackPointExtension>
        </extensions>
      </trkpt>
      <trkpt lat="36.86657843180000782012939453125" lon="-118.5024402849376201629638671875">
        <ele>2269.800048828125</ele>
        <time>2021-06-28T02:15:36.000Z</time>
        <extensions>
          <ns3:TrackPointExtension>
            <ns3:atemp>30.0</ns3:atemp>
            <ns3:hr>100</ns3:hr>
          </ns3:TrackPointExtension>
        </extensions>
      </trkpt>
      <trkpt lat="36.86658379621803760528564453125" lon="-118.5024640895426273345947265625">
        <ele>2269.39990234375</ele>
        <time>2021-06-28T02:15:37.000Z</time>
        <extensions>
          <ns3:TrackPointExtension>
            <ns3:atemp>30.0</ns3:atemp>
            <ns3:hr>103</ns3:hr>
          </ns3:TrackPointExtension>
        </extensions>
      </trkpt>
      <trkpt lat="36.8665885739028453826904296875" lon="-118.502480685710906982421875">
        <ele>2269</ele>
        <time>2021-06-28T02:15:38.000Z</time>
        <extensions>
          <ns3:TrackPointExtension>
            <ns3:atemp>30.0</ns3:atemp>
            <ns3:hr>100</ns3:hr>
          </ns3:TrackPointExtension>
        </extensions>
      </trkpt>
      <trkpt lat="36.86657734215259552001953125" lon="-118.50249049253761768341064453125">
        <ele>2268.39990234375</ele>
        <time>2021-06-28T02:15:40.000Z</time>
        <extensions>
          <ns3:TrackPointExtension>
            <ns3:atemp>30.0</ns3:atemp>
            <ns3:hr>101</ns3:hr>
          </ns3:TrackPointExtension>
        </extensions>
      </trkpt>
      <trkpt lat="36.866534091532230377197265625" lon="-118.5025140456855297088623046875">
        <ele>2267.39990234375</ele>
        <time>2021-06-28T02:15:45.000Z</time>
        <extensions>
          <ns3:TrackPointExtension>
            <ns3:atemp>30.0</ns3:atemp>
            <ns3:hr>100</ns3:hr>
          </ns3:TrackPointExtension>
        </extensions>
      </trkpt>
      <trkpt lat="36.866520680487155914306640625" lon="-118.50251781754195690155029296875">
        <ele>2267.39990234375</ele>
        <time>2021-06-28T02:15:46.000Z</time>
        <extensions>
          <ns3:TrackPointExtension>
            <ns3:atemp>30.0</ns3:atemp>
            <ns3:hr>100</ns3:hr>
          </ns3:TrackPointExtension>
        </extensions>
      </trkpt>
      <trkpt lat="36.86652160249650478363037109375" lon="-118.502546064555644989013671875">
        <ele>2267</ele>
        <time>2021-06-28T02:15:50.000Z</time>
        <extensions>
          <ns3:TrackPointExtension>
            <ns3:atemp>30.0</ns3:atemp>
            <ns3:hr>100</ns3:hr>
          </ns3:TrackPointExtension>
        </extensions>
      </trkpt>
      <trkpt lat="36.86651565134525299072265625" lon="-118.50256961770355701446533203125">
        <ele>2267</ele>
        <time>2021-06-28T02:15:53.000Z</time>
        <extensions>
          <ns3:TrackPointExtension>
            <ns3:atemp>30.0</ns3:atemp>
            <ns3:hr>97</ns3:hr>
          </ns3:TrackPointExtension>
        </extensions>
      </trkpt>
      <trkpt lat="36.8665138073265552520751953125" lon="-118.50258504040539264678955078125">
        <ele>2267</ele>
        <time>2021-06-28T02:15:54.000Z</time>
        <extensions>
          <ns3:TrackPointExtension>
            <ns3:atemp>30.0</ns3:atemp>
            <ns3:hr>96</ns3:hr>
          </ns3:TrackPointExtension>
        </extensions>
      </trkpt>
      <trkpt lat="36.8665215186774730682373046875" lon="-118.50260783918201923370361328125">
        <ele>2267</ele>
        <time>2021-06-28T02:15:55.000Z</time>
        <extensions>
          <ns3:TrackPointExtension>
            <ns3:atemp>30.0</ns3:atemp>
            <ns3:hr>95</ns3:hr>
          </ns3:TrackPointExtension>
        </extensions>
      </trkpt>
      <trkpt lat="36.86651296913623809814453125" lon="-118.50266047753393650054931640625">
        <ele>2266.39990234375</ele>
        <time>2021-06-28T02:15:59.000Z</time>
        <extensions>
          <ns3:TrackPointExtension>
            <ns3:atemp>30.0</ns3:atemp>
            <ns3:hr>94</ns3:hr>
          </ns3:TrackPointExtension>
        </extensions>
      </trkpt>
      <trkpt lat="36.8665024079382419586181640625" lon="-118.5026751458644866943359375">
        <ele>2266.39990234375</ele>
        <time>2021-06-28T02:16:01.000Z</time>
        <extensions>
          <ns3:TrackPointExtension>
            <ns3:atemp>30.0</ns3:atemp>
            <ns3:hr>92</ns3:hr>
          </ns3:TrackPointExtension>
        </extensions>
      </trkpt>
      <trkpt lat="36.8664940260350704193115234375" lon="-118.502682186663150787353515625">
        <ele>2266.39990234375</ele>
        <time>2021-06-28T02:16:02.000Z</time>
        <extensions>
          <ns3:TrackPointExtension>
            <ns3:atemp>30.0</ns3:atemp>
            <ns3:hr>94</ns3:hr>
          </ns3:TrackPointExtension>
        </extensions>
      </trkpt>
      <trkpt lat="36.8664749152958393096923828125" lon="-118.5026885569095611572265625">
        <ele>2266.60009765625</ele>
        <time>2021-06-28T02:16:05.000Z</time>
        <extensions>
          <ns3:TrackPointExtension>
            <ns3:atemp>30.0</ns3:atemp>
            <ns3:hr>93</ns3:hr>
          </ns3:TrackPointExtension>
        </extensions>
      </trkpt>
      <trkpt lat="36.8664910085499286651611328125" lon="-118.50275938399136066436767578125">
        <ele>2266.60009765625</ele>
        <time>2021-06-28T02:16:10.000Z</time>
        <extensions>
          <ns3:TrackPointExtension>
            <ns3:atemp>30.0</ns3:atemp>
            <ns3:hr>91</ns3:hr>
          </ns3:TrackPointExtension>
        </extensions>
      </trkpt>
      <trkpt lat="36.86650165356695652008056640625" lon="-118.50277346558868885040283203125">
        <ele>2266.60009765625</ele>
        <time>2021-06-28T02:16:11.000Z</time>
        <extensions>
          <ns3:TrackPointExtension>
            <ns3:atemp>30.0</ns3:atemp>
            <ns3:hr>90</ns3:hr>
          </ns3:TrackPointExtension>
        </extensions>
      </trkpt>
      <trkpt lat="36.8665117956697940826416015625" lon="-118.50280615501105785369873046875">
        <ele>2266.60009765625</ele>
        <time>2021-06-28T02:16:14.000Z</time>
        <extensions>
          <ns3:TrackPointExtension>
            <ns3:atemp>30.0</ns3:atemp>
            <ns3:hr>88</ns3:hr>
          </ns3:TrackPointExtension>
        </extensions>
      </trkpt>
      <trkpt lat="36.8665094487369060516357421875" lon="-118.50282979197800159454345703125">
        <ele>2266.39990234375</ele>
        <time>2021-06-28T02:16:16.000Z</time>
        <extensions>
          <ns3:TrackPointExtension>
            <ns3:atemp>30.0</ns3:atemp>
            <ns3:hr>88</ns3:hr>
          </ns3:TrackPointExtension>
        </extensions>
      </trkpt>
      <trkpt lat="36.866507269442081451416015625" lon="-118.5028570331633090972900390625">
        <ele>2266.39990234375</ele>
        <time>2021-06-28T02:16:20.000Z</time>
        <extensions>
          <ns3:TrackPointExtension>
            <ns3:atemp>30.0</ns3:atemp>
            <ns3:hr>91</ns3:hr>
          </ns3:TrackPointExtension>
        </extensions>
      </trkpt>
      <trkpt lat="36.86651037074625492095947265625" lon="-118.50286315195262432098388671875">
        <ele>2266.39990234375</ele>
        <time>2021-06-28T02:16:21.000Z</time>
        <extensions>
          <ns3:TrackPointExtension>
            <ns3:atemp>30.0</ns3:atemp>
            <ns3:hr>91</ns3:hr>
          </ns3:TrackPointExtension>
        </extensions>
      </trkpt>
      <trkpt lat="36.86652411706745624542236328125" lon="-118.50289978086948394775390625">
        <ele>2266.199951171875</ele>
        <time>2021-06-28T02:16:24.000Z</time>
        <extensions>
          <ns3:TrackPointExtension>
            <ns3:atemp>30.0</ns3:atemp>
            <ns3:hr>94</ns3:hr>
          </ns3:TrackPointExtension>
        </extensions>
      </trkpt>
      <trkpt lat="36.86654222197830677032470703125" lon="-118.5029460489749908447265625">
        <ele>2266.39990234375</ele>
        <time>2021-06-28T02:16:27.000Z</time>
        <extensions>
          <ns3:TrackPointExtension>
            <ns3:atemp>30.0</ns3:atemp>
            <ns3:hr>95</ns3:hr>
          </ns3:TrackPointExtension>
        </extensions>
      </trkpt>
      <trkpt lat="36.8665677867829799652099609375" lon="-118.5029894672334194183349609375">
        <ele>2266.39990234375</ele>
        <time>2021-06-28T02:16:29.000Z</time>
        <extensions>
          <ns3:TrackPointExtension>
            <ns3:atemp>30.0</ns3:atemp>
            <ns3:hr>94</ns3:hr>
          </ns3:TrackPointExtension>
        </extensions>
      </trkpt>
      <trkpt lat="36.866597123444080352783203125" lon="-118.50304772146046161651611328125">
        <ele>2266.39990234375</ele>
        <time>2021-06-28T02:16:32.000Z</time>
        <extensions>
          <ns3:TrackPointExtension>
            <ns3:atemp>30.0</ns3:atemp>
            <ns3:hr>94</ns3:hr>
          </ns3:TrackPointExtension>
        </extensions>
      </trkpt>
      <trkpt lat="36.86663676984608173370361328125" lon="-118.50304671563208103179931640625">
        <ele>2266.199951171875</ele>
        <time>2021-06-28T02:16:37.000Z</time>
        <extensions>
          <ns3:TrackPointExtension>
            <ns3:atemp>30.0</ns3:atemp>
            <ns3:hr>94</ns3:hr>
          </ns3:TrackPointExtension>
        </extensions>
      </trkpt>
      <trkpt lat="36.8666375242173671722412109375" lon="-118.50304939784109592437744140625">
        <ele>2266.199951171875</ele>
        <time>2021-06-28T02:16:40.000Z</time>
        <extensions>
          <ns3:TrackPointExtension>
            <ns3:atemp>30.0</ns3:atemp>
            <ns3:hr>94</ns3:hr>
          </ns3:TrackPointExtension>
        </extensions>
      </trkpt>
      <trkpt lat="36.86664314009249210357666015625" lon="-118.50306180305778980255126953125">
        <ele>2266.39990234375</ele>
        <time>2021-06-28T02:16:46.000Z</time>
        <extensions>
          <ns3:TrackPointExtension>
            <ns3:atemp>30.0</ns3:atemp>
            <ns3:hr>96</ns3:hr>
          </ns3:TrackPointExtension>
        </extensions>
      </trkpt>
      <trkpt lat="36.86663341708481311798095703125" lon="-118.50305576808750629425048828125">
        <ele>2266.199951171875</ele>
        <time>2021-06-28T02:16:52.000Z</time>
        <extensions>
          <ns3:TrackPointExtension>
            <ns3:atemp>30.0</ns3:atemp>
            <ns3:hr>97</ns3:hr>
          </ns3:TrackPointExtension>
        </extensions>
      </trkpt>
      <trkpt lat="36.86663777567446231842041015625" lon="-118.5030555166304111480712890625">
        <ele>2266.199951171875</ele>
        <time>2021-06-28T02:16:54.000Z</time>
        <extensions>
          <ns3:TrackPointExtension>
            <ns3:atemp>30.0</ns3:atemp>
            <ns3:hr>94</ns3:hr>
          </ns3:TrackPointExtension>
        </extensions>
      </trkpt>
      <trkpt lat="36.86663777567446231842041015625" lon="-118.5030555166304111480712890625">
        <ele>2265.60009765625</ele>
        <time>2021-06-28T02:17:04.000Z</time>
        <extensions>
          <ns3:TrackPointExtension>
            <ns3:atemp>30.0</ns3:atemp>
            <ns3:hr>91</ns3:hr>
          </ns3:TrackPointExtension>
        </extensions>
      </trkpt>
      <trkpt lat="36.86663861386477947235107421875" lon="-118.50305761210620403289794921875">
        <ele>2265.199951171875</ele>
        <time>2021-06-28T02:17:08.000Z</time>
        <extensions>
          <ns3:TrackPointExtension>
            <ns3:atemp>30.0</ns3:atemp>
            <ns3:hr>90</ns3:hr>
          </ns3:TrackPointExtension>
        </extensions>
      </trkpt>
      <trkpt lat="36.86663861386477947235107421875" lon="-118.50306029431521892547607421875">
        <ele>2265.39990234375</ele>
        <time>2021-06-28T02:17:11.000Z</time>
        <extensions>
          <ns3:TrackPointExtension>
            <ns3:atemp>30.0</ns3:atemp>
            <ns3:hr>88</ns3:hr>
          </ns3:TrackPointExtension>
        </extensions>
      </trkpt>
      <trkpt lat="36.86662562191486358642578125" lon="-118.5030890442430973052978515625">
        <ele>2265.199951171875</ele>
        <time>2021-06-28T02:17:22.000Z</time>
        <extensions>
          <ns3:TrackPointExtension>
            <ns3:atemp>30.0</ns3:atemp>
            <ns3:hr>91</ns3:hr>
          </ns3:TrackPointExtension>
        </extensions>
      </trkpt>
      <trkpt lat="36.86661782674491405487060546875" lon="-118.50307420827448368072509765625">
        <ele>2265.39990234375</ele>
        <time>2021-06-28T02:17:37.000Z</time>
        <extensions>
          <ns3:TrackPointExtension>
            <ns3:atemp>30.0</ns3:atemp>
            <ns3:hr>88</ns3:hr>
          </ns3:TrackPointExtension>
        </extensions>
      </trkpt>
      <trkpt lat="36.86663660220801830291748046875" lon="-118.5030721127986907958984375">
        <ele>2265.199951171875</ele>
        <time>2021-06-28T02:17:46.000Z</time>
        <extensions>
          <ns3:TrackPointExtension>
            <ns3:atemp>30.0</ns3:atemp>
            <ns3:hr>91</ns3:hr>
          </ns3:TrackPointExtension>
        </extensions>
      </trkpt>
      <trkpt lat="36.86663769185543060302734375" lon="-118.5030721127986907958984375">
        <ele>2265.199951171875</ele>
        <time>2021-06-28T02:17:49.000Z</time>
        <extensions>
          <ns3:TrackPointExtension>
            <ns3:atemp>30.0</ns3:atemp>
            <ns3:hr>94</ns3:hr>
          </ns3:TrackPointExtension>
        </extensions>
      </trkpt>
      <trkpt lat="36.86663769185543060302734375" lon="-118.5030721127986907958984375">
        <ele>2265.199951171875</ele>
        <time>2021-06-28T02:17:50.000Z</time>
        <extensions>
          <ns3:TrackPointExtension>
            <ns3:atemp>30.0</ns3:atemp>
            <ns3:hr>91</ns3:hr>
          </ns3:TrackPointExtension>
        </extensions>
      </trkpt>
      <trkpt lat="36.8666385300457477569580078125" lon="-118.50307806394994258880615234375">
        <ele>2265.199951171875</ele>
        <time>2021-06-28T02:17:55.000Z</time>
        <extensions>
          <ns3:TrackPointExtension>
            <ns3:atemp>30.0</ns3:atemp>
            <ns3:hr>90</ns3:hr>
          </ns3:TrackPointExtension>
        </extensions>
      </trkpt>
      <trkpt lat="36.86663769185543060302734375" lon="-118.503087870776653289794921875">
        <ele>2265.199951171875</ele>
        <time>2021-06-28T02:18:01.000Z</time>
        <extensions>
          <ns3:TrackPointExtension>
            <ns3:atemp>30.0</ns3:atemp>
            <ns3:hr>86</ns3:hr>
          </ns3:TrackPointExtension>
        </extensions>
      </trkpt>
      <trkpt lat="36.8666365183889865875244140625" lon="-118.50309633649885654449462890625">
        <ele>2265.199951171875</ele>
        <time>2021-06-28T02:18:04.000Z</time>
        <extensions>
          <ns3:TrackPointExtension>
            <ns3:atemp>30.0</ns3:atemp>
            <ns3:hr>83</ns3:hr>
          </ns3:TrackPointExtension>
        </extensions>
      </trkpt>
      <trkpt lat="36.8666351772844791412353515625" lon="-118.50310228765010833740234375">
        <ele>2265.199951171875</ele>
        <time>2021-06-28T02:18:06.000Z</time>
        <extensions>
          <ns3:TrackPointExtension>
            <ns3:atemp>30.0</ns3:atemp>
            <ns3:hr>79</ns3:hr>
          </ns3:TrackPointExtension>
        </extensions>
      </trkpt>
      <trkpt lat="36.86663341708481311798095703125" lon="-118.50310941226780414581298828125">
        <ele>2265.199951171875</ele>
        <time>2021-06-28T02:18:09.000Z</time>
        <extensions>
          <ns3:TrackPointExtension>
            <ns3:atemp>30.0</ns3:atemp>
            <ns3:hr>76</ns3:hr>
          </ns3:TrackPointExtension>
        </extensions>
      </trkpt>
      <trkpt lat="36.8666090257465839385986328125" lon="-118.50311896763741970062255859375">
        <ele>2265.199951171875</ele>
        <time>2021-06-28T02:18:28.000Z</time>
        <extensions>
          <ns3:TrackPointExtension>
            <ns3:atemp>30.0</ns3:atemp>
            <ns3:hr>79</ns3:hr>
          </ns3:TrackPointExtension>
        </extensions>
      </trkpt>
      <trkpt lat="36.8666267953813076019287109375" lon="-118.5031252540647983551025390625">
        <ele>2265.199951171875</ele>
        <time>2021-06-28T02:18:42.000Z</time>
        <extensions>
          <ns3:TrackPointExtension>
            <ns3:atemp>30.0</ns3:atemp>
            <ns3:hr>76</ns3:hr>
          </ns3:TrackPointExtension>
        </extensions>
      </trkpt>
      <trkpt lat="36.86662696301937103271484375" lon="-118.5031252540647983551025390625">
        <ele>2265.199951171875</ele>
        <time>2021-06-28T02:18:45.000Z</time>
        <extensions>
          <ns3:TrackPointExtension>
            <ns3:atemp>30.0</ns3:atemp>
            <ns3:hr>73</ns3:hr>
          </ns3:TrackPointExtension>
        </extensions>
      </trkpt>
      <trkpt lat="36.8665914237499237060546875" lon="-118.50306465290486812591552734375">
        <ele>2265.199951171875</ele>
        <time>2021-06-28T02:19:09.000Z</time>
        <extensions>
          <ns3:TrackPointExtension>
            <ns3:atemp>30.0</ns3:atemp>
            <ns3:hr>70</ns3:hr>
          </ns3:TrackPointExtension>
        </extensions>
      </trkpt>
      <trkpt lat="36.86659209430217742919921875" lon="-118.50306448526680469512939453125">
        <ele>2265.199951171875</ele>
        <time>2021-06-28T02:19:13.000Z</time>
        <extensions>
          <ns3:TrackPointExtension>
            <ns3:atemp>30.0</ns3:atemp>
            <ns3:hr>73</ns3:hr>
          </ns3:TrackPointExtension>
        </extensions>
      </trkpt>
      <trkpt lat="36.86659268103539943695068359375" lon="-118.5030689276754856109619140625">
        <ele>2265.199951171875</ele>
        <time>2021-06-28T02:19:21.000Z</time>
        <extensions>
          <ns3:TrackPointExtension>
            <ns3:atemp>30.0</ns3:atemp>
            <ns3:hr>69</ns3:hr>
          </ns3:TrackPointExtension>
        </extensions>
      </trkpt>
      <trkpt lat="36.86659268103539943695068359375" lon="-118.5030732862651348114013671875">
        <ele>2265.199951171875</ele>
        <time>2021-06-28T02:19:26.000Z</time>
        <extensions>
          <ns3:TrackPointExtension>
            <ns3:atemp>30.0</ns3:atemp>
            <ns3:hr>66</ns3:hr>
          </ns3:TrackPointExtension>
        </extensions>
      </trkpt>
      <trkpt lat="36.86659217812120914459228515625" lon="-118.503076136112213134765625">
        <ele>2265.199951171875</ele>
        <time>2021-06-28T02:19:30.000Z</time>
        <extensions>
          <ns3:TrackPointExtension>
            <ns3:atemp>30.0</ns3:atemp>
            <ns3:hr>63</ns3:hr>
          </ns3:TrackPointExtension>
        </extensions>
      </trkpt>
      <trkpt lat="36.86657155863940715789794921875" lon="-118.5030776448547840118408203125">
        <ele>2265.199951171875</ele>
        <time>2021-06-28T02:19:39.000Z</time>
        <extensions>
          <ns3:TrackPointExtension>
            <ns3:atemp>30.0</ns3:atemp>
            <ns3:hr>66</ns3:hr>
          </ns3:TrackPointExtension>
        </extensions>
      </trkpt>
      <trkpt lat="36.86656870879232883453369140625" lon="-118.5030776448547840118408203125">
        <ele>2265.199951171875</ele>
        <time>2021-06-28T02:19:42.000Z</time>
        <extensions>
          <ns3:TrackPointExtension>
            <ns3:atemp>30.0</ns3:atemp>
            <ns3:hr>69</ns3:hr>
          </ns3:TrackPointExtension>
        </extensions>
      </trkpt>
      <trkpt lat="36.866567619144916534423828125" lon="-118.50307621993124485015869140625">
        <ele>2265.199951171875</ele>
        <time>2021-06-28T02:19:44.000Z</time>
        <extensions>
          <ns3:TrackPointExtension>
            <ns3:atemp>30.0</ns3:atemp>
            <ns3:hr>72</ns3:hr>
          </ns3:TrackPointExtension>
        </extensions>
      </trkpt>
      <trkpt lat="36.86657474376261234283447265625" lon="-118.503036238253116607666015625">
        <ele>2265.199951171875</ele>
        <time>2021-06-28T02:20:05.000Z</time>
        <extensions>
          <ns3:TrackPointExtension>
            <ns3:atemp>30.0</ns3:atemp>
            <ns3:hr>69</ns3:hr>
          </ns3:TrackPointExtension>
        </extensions>
      </trkpt>
      <trkpt lat="36.86657625250518321990966796875" lon="-118.5030323825776576995849609375">
        <ele>2265.199951171875</ele>
        <time>2021-06-28T02:20:27.000Z</time>
        <extensions>
          <ns3:TrackPointExtension>
            <ns3:atemp>30.0</ns3:atemp>
            <ns3:hr>72</ns3:hr>
          </ns3:TrackPointExtension>
        </extensions>
      </trkpt>
      <trkpt lat="36.866576336324214935302734375" lon="-118.50303229875862598419189453125">
        <ele>2265.199951171875</ele>
        <time>2021-06-28T02:20:29.000Z</time>
        <extensions>
          <ns3:TrackPointExtension>
            <ns3:atemp>30.0</ns3:atemp>
            <ns3:hr>77</ns3:hr>
          </ns3:TrackPointExtension>
        </extensions>
      </trkpt>
      <trkpt lat="36.86657642014324665069580078125" lon="-118.50303229875862598419189453125">
        <ele>2265.199951171875</ele>
        <time>2021-06-28T02:20:30.000Z</time>
        <extensions>
          <ns3:TrackPointExtension>
            <ns3:atemp>30.0</ns3:atemp>
            <ns3:hr>77</ns3:hr>
          </ns3:TrackPointExtension>
        </extensions>
      </trkpt>
      <trkpt lat="36.8665775097906589508056640625" lon="-118.5030320473015308380126953125">
        <ele>2265.199951171875</ele>
        <time>2021-06-28T02:20:41.000Z</time>
        <extensions>
          <ns3:TrackPointExtension>
            <ns3:atemp>30.0</ns3:atemp>
            <ns3:hr>74</ns3:hr>
          </ns3:TrackPointExtension>
        </extensions>
      </trkpt>
      <trkpt lat="36.866580359637737274169921875" lon="-118.50303246639668941497802734375">
        <ele>2265.199951171875</ele>
        <time>2021-06-28T02:20:56.000Z</time>
        <extensions>
          <ns3:TrackPointExtension>
            <ns3:atemp>30.0</ns3:atemp>
            <ns3:hr>71</ns3:hr>
          </ns3:TrackPointExtension>
        </extensions>
      </trkpt>
      <trkpt lat="36.8665832094848155975341796875" lon="-118.50303498096764087677001953125">
        <ele>2265.199951171875</ele>
        <time>2021-06-28T02:21:15.000Z</time>
        <extensions>
          <ns3:TrackPointExtension>
            <ns3:atemp>30.0</ns3:atemp>
            <ns3:hr>74</ns3:hr>
          </ns3:TrackPointExtension>
        </extensions>
      </trkpt>
      <trkpt lat="36.86662989668548107147216796875" lon="-118.5031215660274028778076171875">
        <ele>2265.199951171875</ele>
        <time>2021-06-28T02:21:29.000Z</time>
        <extensions>
          <ns3:TrackPointExtension>
            <ns3:atemp>30.0</ns3:atemp>
            <ns3:hr>75</ns3:hr>
          </ns3:TrackPointExtension>
        </extensions>
      </trkpt>
      <trkpt lat="36.86667331494390964508056640625" lon="-118.50318954326212406158447265625">
        <ele>2265.199951171875</ele>
        <time>2021-06-28T02:21:32.000Z</time>
        <extensions>
          <ns3:TrackPointExtension>
            <ns3:atemp>30.0</ns3:atemp>
            <ns3:hr>75</ns3:hr>
          </ns3:TrackPointExtension>
        </extensions>
      </trkpt>
      <trkpt lat="36.86670516617596149444580078125" lon="-118.5032483004033565521240234375">
        <ele>2265.199951171875</ele>
        <time>2021-06-28T02:21:34.000Z</time>
        <extensions>
          <ns3:TrackPointExtension>
            <ns3:atemp>30.0</ns3:atemp>
            <ns3:hr>75</ns3:hr>
          </ns3:TrackPointExtension>
        </extensions>
      </trkpt>
      <trkpt lat="36.86672226525843143463134765625" lon="-118.50328543223440647125244140625">
        <ele>2265.199951171875</ele>
        <time>2021-06-28T02:21:37.000Z</time>
        <extensions>
          <ns3:TrackPointExtension>
            <ns3:atemp>30.0</ns3:atemp>
            <ns3:hr>76</ns3:hr>
          </ns3:TrackPointExtension>
        </extensions>
      </trkpt>
      <trkpt lat="36.86672125943005084991455078125" lon="-118.5032915510237216949462890625">
        <ele>2265.199951171875</ele>
        <time>2021-06-28T02:21:38.000Z</time>
        <extensions>
          <ns3:TrackPointExtension>
            <ns3:atemp>30.0</ns3:atemp>
            <ns3:hr>76</ns3:hr>
          </ns3:TrackPointExtension>
        </extensions>
      </trkpt>
      <trkpt lat="36.8667136318981647491455078125" lon="-118.50333371199667453765869140625">
        <ele>2265.60009765625</ele>
        <time>2021-06-28T02:21:42.000Z</time>
        <extensions>
          <ns3:TrackPointExtension>
            <ns3:atemp>30.0</ns3:atemp>
            <ns3:hr>77</ns3:hr>
          </ns3:TrackPointExtension>
        </extensions>
      </trkpt>
      <trkpt lat="36.8667367659509181976318359375" lon="-118.50336606614291667938232421875">
        <ele>2265.60009765625</ele>
        <time>2021-06-28T02:21:45.000Z</time>
        <extensions>
          <ns3:TrackPointExtension>
            <ns3:atemp>30.0</ns3:atemp>
            <ns3:hr>80</ns3:hr>
          </ns3:TrackPointExtension>
        </extensions>
      </trkpt>
      <trkpt lat="36.86674322001636028289794921875" lon="-118.50337394513189792633056640625">
        <ele>2265.60009765625</ele>
        <time>2021-06-28T02:21:46.000Z</time>
        <extensions>
          <ns3:TrackPointExtension>
            <ns3:atemp>30.0</ns3:atemp>
            <ns3:hr>80</ns3:hr>
          </ns3:TrackPointExtension>
        </extensions>
      </trkpt>
      <trkpt lat="36.866799630224704742431640625" lon="-118.50352314300835132598876953125">
        <ele>2265.60009765625</ele>
        <time>2021-06-28T02:21:52.000Z</time>
        <extensions>
          <ns3:TrackPointExtension>
            <ns3:atemp>30.0</ns3:atemp>
            <ns3:hr>81</ns3:hr>
          </ns3:TrackPointExtension>
        </extensions>
      </trkpt>
      <trkpt lat="36.8667894043028354644775390625" lon="-118.50355013273656368255615234375">
        <ele>2265.800048828125</ele>
        <time>2021-06-28T02:21:56.000Z</time>
        <extensions>
          <ns3:TrackPointExtension>
            <ns3:atemp>30.0</ns3:atemp>
            <ns3:hr>83</ns3:hr>
          </ns3:TrackPointExtension>
        </extensions>
      </trkpt>
      <trkpt lat="36.86679183505475521087646484375" lon="-118.50356337614357471466064453125">
        <ele>2265.800048828125</ele>
        <time>2021-06-28T02:21:58.000Z</time>
        <extensions>
          <ns3:TrackPointExtension>
            <ns3:atemp>30.0</ns3:atemp>
            <ns3:hr>86</ns3:hr>
          </ns3:TrackPointExtension>
        </extensions>
      </trkpt>
      <trkpt lat="36.86679284088313579559326171875" lon="-118.50358181633055210113525390625">
        <ele>2265.60009765625</ele>
        <time>2021-06-28T02:22:00.000Z</time>
        <extensions>
          <ns3:TrackPointExtension>
            <ns3:atemp>30.0</ns3:atemp>
            <ns3:hr>88</ns3:hr>
          </ns3:TrackPointExtension>
        </extensions>
      </trkpt>
      <trkpt lat="36.86681111343204975128173828125" lon="-118.50360411219298839569091796875">
        <ele>2265.60009765625</ele>
        <time>2021-06-28T02:22:02.000Z</time>
        <extensions>
          <ns3:TrackPointExtension>
            <ns3:atemp>30.0</ns3:atemp>
            <ns3:hr>86</ns3:hr>
          </ns3:TrackPointExtension>
        </extensions>
      </trkpt>
      <trkpt lat="36.86683751642704010009765625" lon="-118.5036285035312175750732421875">
        <ele>2265.60009765625</ele>
        <time>2021-06-28T02:22:06.000Z</time>
        <extensions>
          <ns3:TrackPointExtension>
            <ns3:atemp>30.0</ns3:atemp>
            <ns3:hr>83</ns3:hr>
          </ns3:TrackPointExtension>
        </extensions>
      </trkpt>
      <trkpt lat="36.86684288084506988525390625" lon="-118.5036407411098480224609375">
        <ele>2265.60009765625</ele>
        <time>2021-06-28T02:22:07.000Z</time>
        <extensions>
          <ns3:TrackPointExtension>
            <ns3:atemp>30.0</ns3:atemp>
            <ns3:hr>82</ns3:hr>
          </ns3:TrackPointExtension>
        </extensions>
      </trkpt>
      <trkpt lat="36.8668462336063385009765625" lon="-118.50366018712520599365234375">
        <ele>2265.60009765625</ele>
        <time>2021-06-28T02:22:09.000Z</time>
        <extensions>
          <ns3:TrackPointExtension>
            <ns3:atemp>30.0</ns3:atemp>
            <ns3:hr>82</ns3:hr>
          </ns3:TrackPointExtension>
        </extensions>
      </trkpt>
      <trkpt lat="36.8668537773191928863525390625" lon="-118.503685332834720611572265625">
        <ele>2265.199951171875</ele>
        <time>2021-06-28T02:22:14.000Z</time>
        <extensions>
          <ns3:TrackPointExtension>
            <ns3:atemp>30.0</ns3:atemp>
            <ns3:hr>83</ns3:hr>
          </ns3:TrackPointExtension>
        </extensions>
      </trkpt>
      <trkpt lat="36.8668822757899761199951171875" lon="-118.503722213208675384521484375">
        <ele>2264.199951171875</ele>
        <time>2021-06-28T02:22:18.000Z</time>
        <extensions>
          <ns3:TrackPointExtension>
            <ns3:atemp>30.0</ns3:atemp>
            <ns3:hr>84</ns3:hr>
          </ns3:TrackPointExtension>
        </extensions>
      </trkpt>
      <trkpt lat="36.86689962632954120635986328125" lon="-118.50374459289014339447021484375">
        <ele>2264</ele>
        <time>2021-06-28T02:22:21.000Z</time>
        <extensions>
          <ns3:TrackPointExtension>
            <ns3:atemp>30.0</ns3:atemp>
            <ns3:hr>85</ns3:hr>
          </ns3:TrackPointExtension>
        </extensions>
      </trkpt>
      <trkpt lat="36.86690457165241241455078125" lon="-118.50376906804740428924560546875">
        <ele>2263.800048828125</ele>
        <time>2021-06-28T02:22:24.000Z</time>
        <extensions>
          <ns3:TrackPointExtension>
            <ns3:atemp>30.0</ns3:atemp>
            <ns3:hr>85</ns3:hr>
          </ns3:TrackPointExtension>
        </extensions>
      </trkpt>
      <trkpt lat="36.86690432019531726837158203125" lon="-118.503800667822360992431640625">
        <ele>2263.39990234375</ele>
        <time>2021-06-28T02:22:27.000Z</time>
        <extensions>
          <ns3:TrackPointExtension>
            <ns3:atemp>30.0</ns3:atemp>
            <ns3:hr>86</ns3:hr>
          </ns3:TrackPointExtension>
        </extensions>
      </trkpt>
      <trkpt lat="36.86688185669481754302978515625" lon="-118.5038152523338794708251953125">
        <ele>2263.199951171875</ele>
        <time>2021-06-28T02:22:29.000Z</time>
        <extensions>
          <ns3:TrackPointExtension>
            <ns3:atemp>30.0</ns3:atemp>
            <ns3:hr>85</ns3:hr>
          </ns3:TrackPointExtension>
        </extensions>
      </trkpt>
      <trkpt lat="36.86687179841101169586181640625" lon="-118.50384316407144069671630859375">
        <ele>2262.39990234375</ele>
        <time>2021-06-28T02:22:32.000Z</time>
        <extensions>
          <ns3:TrackPointExtension>
            <ns3:atemp>30.0</ns3:atemp>
            <ns3:hr>82</ns3:hr>
          </ns3:TrackPointExtension>
        </extensions>
      </trkpt>
      <trkpt lat="36.8668755702674388885498046875" lon="-118.50384366698563098907470703125">
        <ele>2262.39990234375</ele>
        <time>2021-06-28T02:22:33.000Z</time>
        <extensions>
          <ns3:TrackPointExtension>
            <ns3:atemp>30.0</ns3:atemp>
            <ns3:hr>82</ns3:hr>
          </ns3:TrackPointExtension>
        </extensions>
      </trkpt>
      <trkpt lat="36.86688579618930816650390625" lon="-118.5038598440587520599365234375">
        <ele>2262</ele>
        <time>2021-06-28T02:22:34.000Z</time>
        <extensions>
          <ns3:TrackPointExtension>
            <ns3:atemp>30.0</ns3:atemp>
            <ns3:hr>82</ns3:hr>
          </ns3:TrackPointExtension>
        </extensions>
      </trkpt>
      <trkpt lat="36.8668852932751178741455078125" lon="-118.50387870334088802337646484375">
        <ele>2262</ele>
        <time>2021-06-28T02:22:35.000Z</time>
        <extensions>
          <ns3:TrackPointExtension>
            <ns3:atemp>30.0</ns3:atemp>
            <ns3:hr>82</ns3:hr>
          </ns3:TrackPointExtension>
        </extensions>
      </trkpt>
      <trkpt lat="36.866879425942897796630859375" lon="-118.50391365587711334228515625">
        <ele>2261.60009765625</ele>
        <time>2021-06-28T02:22:38.000Z</time>
        <extensions>
          <ns3:TrackPointExtension>
            <ns3:atemp>30.0</ns3:atemp>
            <ns3:hr>80</ns3:hr>
          </ns3:TrackPointExtension>
        </extensions>
      </trkpt>
      <trkpt lat="36.86685754917562007904052734375" lon="-118.50393083877861499786376953125">
        <ele>2261.39990234375</ele>
        <time>2021-06-28T02:22:41.000Z</time>
        <extensions>
          <ns3:TrackPointExtension>
            <ns3:atemp>30.0</ns3:atemp>
            <ns3:hr>79</ns3:hr>
          </ns3:TrackPointExtension>
        </extensions>
      </trkpt>
      <trkpt lat="36.8668527714908123016357421875" lon="-118.503934778273105621337890625">
        <ele>2261.39990234375</ele>
        <time>2021-06-28T02:22:42.000Z</time>
        <extensions>
          <ns3:TrackPointExtension>
            <ns3:atemp>30.0</ns3:atemp>
            <ns3:hr>78</ns3:hr>
          </ns3:TrackPointExtension>
        </extensions>
      </trkpt>
      <trkpt lat="36.86685017310082912445068359375" lon="-118.5039496980607509613037109375">
        <ele>2261.199951171875</ele>
        <time>2021-06-28T02:22:44.000Z</time>
        <extensions>
          <ns3:TrackPointExtension>
            <ns3:atemp>30.0</ns3:atemp>
            <ns3:hr>77</ns3:hr>
          </ns3:TrackPointExtension>
        </extensions>
      </trkpt>
      <trkpt lat="36.86683215200901031494140625" lon="-118.50397056899964809417724609375">
        <ele>2261.199951171875</ele>
        <time>2021-06-28T02:22:47.000Z</time>
        <extensions>
          <ns3:TrackPointExtension>
            <ns3:atemp>30.0</ns3:atemp>
            <ns3:hr>76</ns3:hr>
          </ns3:TrackPointExtension>
        </extensions>
      </trkpt>
      <trkpt lat="36.8668189086019992828369140625" lon="-118.503985740244388580322265625">
        <ele>2261.199951171875</ele>
        <time>2021-06-28T02:22:50.000Z</time>
        <extensions>
          <ns3:TrackPointExtension>
            <ns3:atemp>30.0</ns3:atemp>
            <ns3:hr>74</ns3:hr>
          </ns3:TrackPointExtension>
        </extensions>
      </trkpt>
      <trkpt lat="36.86681698076426982879638671875" lon="-118.50399504415690898895263671875">
        <ele>2261</ele>
        <time>2021-06-28T02:22:51.000Z</time>
        <extensions>
          <ns3:TrackPointExtension>
            <ns3:atemp>30.0</ns3:atemp>
            <ns3:hr>74</ns3:hr>
          </ns3:TrackPointExtension>
        </extensions>
      </trkpt>
      <trkpt lat="36.8668158911168575286865234375" lon="-118.50405623205006122589111328125">
        <ele>2260.800048828125</ele>
        <time>2021-06-28T02:22:56.000Z</time>
        <extensions>
          <ns3:TrackPointExtension>
            <ns3:atemp>30.0</ns3:atemp>
            <ns3:hr>73</ns3:hr>
          </ns3:TrackPointExtension>
        </extensions>
      </trkpt>
      <trkpt lat="36.866808347404003143310546875" lon="-118.50405983626842498779296875">
        <ele>2260.800048828125</ele>
        <time>2021-06-28T02:22:57.000Z</time>
        <extensions>
          <ns3:TrackPointExtension>
            <ns3:atemp>30.0</ns3:atemp>
            <ns3:hr>73</ns3:hr>
          </ns3:TrackPointExtension>
        </extensions>
      </trkpt>
      <trkpt lat="36.86678999103605747222900390625" lon="-118.50406997837126255035400390625">
        <ele>2260.800048828125</ele>
        <time>2021-06-28T02:23:00.000Z</time>
        <extensions>
          <ns3:TrackPointExtension>
            <ns3:atemp>30.0</ns3:atemp>
            <ns3:hr>76</ns3:hr>
          </ns3:TrackPointExtension>
        </extensions>
      </trkpt>
      <trkpt lat="36.8667840398848056793212890625" lon="-118.50407349877059459686279296875">
        <ele>2260.39990234375</ele>
        <time>2021-06-28T02:23:01.000Z</time>
        <extensions>
          <ns3:TrackPointExtension>
            <ns3:atemp>30.0</ns3:atemp>
            <ns3:hr>76</ns3:hr>
          </ns3:TrackPointExtension>
        </extensions>
      </trkpt>
      <trkpt lat="36.86677850782871246337890625" lon="-118.5040797851979732513427734375">
        <ele>2260</ele>
        <time>2021-06-28T02:23:02.000Z</time>
        <extensions>
          <ns3:TrackPointExtension>
            <ns3:atemp>30.0</ns3:atemp>
            <ns3:hr>76</ns3:hr>
          </ns3:TrackPointExtension>
        </extensions>
      </trkpt>
      <trkpt lat="36.86677641235291957855224609375" lon="-118.50410451181232929229736328125">
        <ele>2260</ele>
        <time>2021-06-28T02:23:04.000Z</time>
        <extensions>
          <ns3:TrackPointExtension>
            <ns3:atemp>30.0</ns3:atemp>
            <ns3:hr>76</ns3:hr>
          </ns3:TrackPointExtension>
        </extensions>
      </trkpt>
      <trkpt lat="36.86676199547946453094482421875" lon="-118.5041220299899578094482421875">
        <ele>2259.39990234375</ele>
        <time>2021-06-28T02:23:06.000Z</time>
        <extensions>
          <ns3:TrackPointExtension>
            <ns3:atemp>30.0</ns3:atemp>
            <ns3:hr>75</ns3:hr>
          </ns3:TrackPointExtension>
        </extensions>
      </trkpt>
      <trkpt lat="36.86676702462136745452880859375" lon="-118.50414390675723552703857421875">
        <ele>2259</ele>
        <time>2021-06-28T02:23:08.000Z</time>
        <extensions>
          <ns3:TrackPointExtension>
            <ns3:atemp>30.0</ns3:atemp>
            <ns3:hr>76</ns3:hr>
          </ns3:TrackPointExtension>
        </extensions>
      </trkpt>
      <trkpt lat="36.86676534824073314666748046875" lon="-118.5041656158864498138427734375">
        <ele>2259</ele>
        <time>2021-06-28T02:23:10.000Z</time>
        <extensions>
          <ns3:TrackPointExtension>
            <ns3:atemp>30.0</ns3:atemp>
            <ns3:hr>75</ns3:hr>
          </ns3:TrackPointExtension>
        </extensions>
      </trkpt>
      <trkpt lat="36.86675830744206905364990234375" lon="-118.5041887499392032623291015625">
        <ele>2258.800048828125</ele>
        <time>2021-06-28T02:23:12.000Z</time>
        <extensions>
          <ns3:TrackPointExtension>
            <ns3:atemp>30.0</ns3:atemp>
            <ns3:hr>79</ns3:hr>
          </ns3:TrackPointExtension>
        </extensions>
      </trkpt>
      <trkpt lat="36.86676107347011566162109375" lon="-118.504197299480438232421875">
        <ele>2258.60009765625</ele>
        <time>2021-06-28T02:23:13.000Z</time>
        <extensions>
          <ns3:TrackPointExtension>
            <ns3:atemp>30.0</ns3:atemp>
            <ns3:hr>79</ns3:hr>
          </ns3:TrackPointExtension>
        </extensions>
      </trkpt>
      <trkpt lat="36.86677456833422183990478515625" lon="-118.5042289830744266510009765625">
        <ele>2258.60009765625</ele>
        <time>2021-06-28T02:23:15.000Z</time>
        <extensions>
          <ns3:TrackPointExtension>
            <ns3:atemp>30.0</ns3:atemp>
            <ns3:hr>79</ns3:hr>
          </ns3:TrackPointExtension>
        </extensions>
      </trkpt>
      <trkpt lat="36.86678261496126651763916015625" lon="-118.50424826145172119140625">
        <ele>2258.60009765625</ele>
        <time>2021-06-28T02:23:16.000Z</time>
        <extensions>
          <ns3:TrackPointExtension>
            <ns3:atemp>30.0</ns3:atemp>
            <ns3:hr>79</ns3:hr>
          </ns3:TrackPointExtension>
        </extensions>
      </trkpt>
      <trkpt lat="36.86677825637161731719970703125" lon="-118.50428103469312191009521484375">
        <ele>2258.800048828125</ele>
        <time>2021-06-28T02:23:18.000Z</time>
        <extensions>
          <ns3:TrackPointExtension>
            <ns3:atemp>30.0</ns3:atemp>
            <ns3:hr>78</ns3:hr>
          </ns3:TrackPointExtension>
        </extensions>
      </trkpt>
      <trkpt lat="36.8667791783809661865234375" lon="-118.50432126782834529876708984375">
        <ele>2258.800048828125</ele>
        <time>2021-06-28T02:23:20.000Z</time>
        <extensions>
          <ns3:TrackPointExtension>
            <ns3:atemp>30.0</ns3:atemp>
            <ns3:hr>80</ns3:hr>
          </ns3:TrackPointExtension>
        </extensions>
      </trkpt>
      <trkpt lat="36.8667753227055072784423828125" lon="-118.504357226192951202392578125">
        <ele>2258.800048828125</ele>
        <time>2021-06-28T02:23:22.000Z</time>
        <extensions>
          <ns3:TrackPointExtension>
            <ns3:atemp>30.0</ns3:atemp>
            <ns3:hr>79</ns3:hr>
          </ns3:TrackPointExtension>
        </extensions>
      </trkpt>
      <trkpt lat="36.8668033182621002197265625" lon="-118.504486642777919769287109375">
        <ele>2258.199951171875</ele>
        <time>2021-06-28T02:23:29.000Z</time>
        <extensions>
          <ns3:TrackPointExtension>
            <ns3:atemp>30.0</ns3:atemp>
            <ns3:hr>82</ns3:hr>
          </ns3:TrackPointExtension>
        </extensions>
      </trkpt>
      <trkpt lat="36.86683324165642261505126953125" lon="-118.504555709660053253173828125">
        <ele>2258</ele>
        <time>2021-06-28T02:23:32.000Z</time>
        <extensions>
          <ns3:TrackPointExtension>
            <ns3:atemp>30.0</ns3:atemp>
            <ns3:hr>82</ns3:hr>
          </ns3:TrackPointExtension>
        </extensions>
      </trkpt>
      <trkpt lat="36.86683676205575466156005859375" lon="-118.50459225475788116455078125">
        <ele>2258</ele>
        <time>2021-06-28T02:23:34.000Z</time>
        <extensions>
          <ns3:TrackPointExtension>
            <ns3:atemp>30.0</ns3:atemp>
            <ns3:hr>83</ns3:hr>
          </ns3:TrackPointExtension>
        </extensions>
      </trkpt>
      <trkpt lat="36.866825111210346221923828125" lon="-118.50459652952849864959716796875">
        <ele>2257.60009765625</ele>
        <time>2021-06-28T02:23:37.000Z</time>
        <extensions>
          <ns3:TrackPointExtension>
            <ns3:atemp>30.0</ns3:atemp>
            <ns3:hr>82</ns3:hr>
          </ns3:TrackPointExtension>
        </extensions>
      </trkpt>
      <trkpt lat="36.8668148852884769439697265625" lon="-118.50461077876389026641845703125">
        <ele>2257.39990234375</ele>
        <time>2021-06-28T02:23:39.000Z</time>
        <extensions>
          <ns3:TrackPointExtension>
            <ns3:atemp>30.0</ns3:atemp>
            <ns3:hr>82</ns3:hr>
          </ns3:TrackPointExtension>
        </extensions>
      </trkpt>
      <trkpt lat="36.8668313138186931610107421875" lon="-118.50463860668241977691650390625">
        <ele>2257</ele>
        <time>2021-06-28T02:23:41.000Z</time>
        <extensions>
          <ns3:TrackPointExtension>
            <ns3:atemp>30.0</ns3:atemp>
            <ns3:hr>82</ns3:hr>
          </ns3:TrackPointExtension>
        </extensions>
      </trkpt>
      <trkpt lat="36.866842545568943023681640625" lon="-118.504654951393604278564453125">
        <ele>2256.39990234375</ele>
        <time>2021-06-28T02:23:42.000Z</time>
        <extensions>
          <ns3:TrackPointExtension>
            <ns3:atemp>30.0</ns3:atemp>
            <ns3:hr>82</ns3:hr>
          </ns3:TrackPointExtension>
        </extensions>
      </trkpt>
      <trkpt lat="36.86686559580266475677490234375" lon="-118.50470214150846004486083984375">
        <ele>2256.39990234375</ele>
        <time>2021-06-28T02:23:45.000Z</time>
        <extensions>
          <ns3:TrackPointExtension>
            <ns3:atemp>30.0</ns3:atemp>
            <ns3:hr>83</ns3:hr>
          </ns3:TrackPointExtension>
        </extensions>
      </trkpt>
      <trkpt lat="36.8668645061552524566650390625" lon="-118.50471823476254940032958984375">
        <ele>2256.199951171875</ele>
        <time>2021-06-28T02:23:47.000Z</time>
        <extensions>
          <ns3:TrackPointExtension>
            <ns3:atemp>30.0</ns3:atemp>
            <ns3:hr>80</ns3:hr>
          </ns3:TrackPointExtension>
        </extensions>
      </trkpt>
      <trkpt lat="36.866861991584300994873046875" lon="-118.5047272033989429473876953125">
        <ele>2256</ele>
        <time>2021-06-28T02:23:48.000Z</time>
        <extensions>
          <ns3:TrackPointExtension>
            <ns3:atemp>30.0</ns3:atemp>
            <ns3:hr>78</ns3:hr>
          </ns3:TrackPointExtension>
        </extensions>
      </trkpt>
      <trkpt lat="36.8668708764016628265380859375" lon="-118.50475729443132877349853515625">
        <ele>2255.39990234375</ele>
        <time>2021-06-28T02:23:51.000Z</time>
        <extensions>
          <ns3:TrackPointExtension>
            <ns3:atemp>30.0</ns3:atemp>
            <ns3:hr>76</ns3:hr>
          </ns3:TrackPointExtension>
        </extensions>
      </trkpt>
      <trkpt lat="36.866913624107837677001953125" lon="-118.50483767688274383544921875">
        <ele>2255</ele>
        <time>2021-06-28T02:23:56.000Z</time>
        <extensions>
          <ns3:TrackPointExtension>
            <ns3:atemp>30.0</ns3:atemp>
            <ns3:hr>75</ns3:hr>
          </ns3:TrackPointExtension>
        </extensions>
      </trkpt>
      <trkpt lat="36.8669067509472370147705078125" lon="-118.504870198667049407958984375">
        <ele>2255</ele>
        <time>2021-06-28T02:23:59.000Z</time>
        <extensions>
          <ns3:TrackPointExtension>
            <ns3:atemp>30.0</ns3:atemp>
            <ns3:hr>78</ns3:hr>
          </ns3:TrackPointExtension>
        </extensions>
      </trkpt>
      <trkpt lat="36.86688453890383243560791015625" lon="-118.5048951767385005950927734375">
        <ele>2255</ele>
        <time>2021-06-28T02:24:03.000Z</time>
        <extensions>
          <ns3:TrackPointExtension>
            <ns3:atemp>30.0</ns3:atemp>
            <ns3:hr>79</ns3:hr>
          </ns3:TrackPointExtension>
        </extensions>
      </trkpt>
      <trkpt lat="36.86686727218329906463623046875" lon="-118.5049139522016048431396484375">
        <ele>2254.800048828125</ele>
        <time>2021-06-28T02:24:06.000Z</time>
        <extensions>
          <ns3:TrackPointExtension>
            <ns3:atemp>30.0</ns3:atemp>
            <ns3:hr>78</ns3:hr>
          </ns3:TrackPointExtension>
        </extensions>
      </trkpt>
      <trkpt lat="36.86684682033956050872802734375" lon="-118.50493063218891620635986328125">
        <ele>2255</ele>
        <time>2021-06-28T02:24:08.000Z</time>
        <extensions>
          <ns3:TrackPointExtension>
            <ns3:atemp>30.0</ns3:atemp>
            <ns3:hr>77</ns3:hr>
          </ns3:TrackPointExtension>
        </extensions>
      </trkpt>
      <trkpt lat="36.86683709733188152313232421875" lon="-118.50495661608874797821044921875">
        <ele>2254.60009765625</ele>
        <time>2021-06-28T02:24:10.000Z</time>
        <extensions>
          <ns3:TrackPointExtension>
            <ns3:atemp>30.0</ns3:atemp>
            <ns3:hr>77</ns3:hr>
          </ns3:TrackPointExtension>
        </extensions>
      </trkpt>
      <trkpt lat="36.86682821251451969146728515625" lon="-118.50496717728674411773681640625">
        <ele>2254.60009765625</ele>
        <time>2021-06-28T02:24:11.000Z</time>
        <extensions>
          <ns3:TrackPointExtension>
            <ns3:atemp>30.0</ns3:atemp>
            <ns3:hr>78</ns3:hr>
          </ns3:TrackPointExtension>
        </extensions>
      </trkpt>
      <trkpt lat="36.8668081797659397125244140625" lon="-118.504991568624973297119140625">
        <ele>2254.199951171875</ele>
        <time>2021-06-28T02:24:13.000Z</time>
        <extensions>
          <ns3:TrackPointExtension>
            <ns3:atemp>30.0</ns3:atemp>
            <ns3:hr>78</ns3:hr>
          </ns3:TrackPointExtension>
        </extensions>
      </trkpt>
      <trkpt lat="36.8667699582874774932861328125" lon="-118.50499995052814483642578125">
        <ele>2254.199951171875</ele>
        <time>2021-06-28T02:24:15.000Z</time>
        <extensions>
          <ns3:TrackPointExtension>
            <ns3:atemp>30.0</ns3:atemp>
            <ns3:hr>79</ns3:hr>
          </ns3:TrackPointExtension>
        </extensions>
      </trkpt>
      <trkpt lat="36.86675311066210269927978515625" lon="-118.50500556640326976776123046875">
        <ele>2254.199951171875</ele>
        <time>2021-06-28T02:24:16.000Z</time>
        <extensions>
          <ns3:TrackPointExtension>
            <ns3:atemp>30.0</ns3:atemp>
            <ns3:hr>80</ns3:hr>
          </ns3:TrackPointExtension>
        </extensions>
      </trkpt>
      <trkpt lat="36.86674296855926513671875" lon="-118.5050135292112827301025390625">
        <ele>2254.199951171875</ele>
        <time>2021-06-28T02:24:17.000Z</time>
        <extensions>
          <ns3:TrackPointExtension>
            <ns3:atemp>30.0</ns3:atemp>
            <ns3:hr>81</ns3:hr>
          </ns3:TrackPointExtension>
        </extensions>
      </trkpt>
      <trkpt lat="36.86669158749282360076904296875" lon="-118.505016379058361053466796875">
        <ele>2254</ele>
        <time>2021-06-28T02:24:20.000Z</time>
        <extensions>
          <ns3:TrackPointExtension>
            <ns3:atemp>30.0</ns3:atemp>
            <ns3:hr>82</ns3:hr>
          </ns3:TrackPointExtension>
        </extensions>
      </trkpt>
      <trkpt lat="36.86667029745876789093017578125" lon="-118.50502568297088146209716796875">
        <ele>2253.39990234375</ele>
        <time>2021-06-28T02:24:22.000Z</time>
        <extensions>
          <ns3:TrackPointExtension>
            <ns3:atemp>30.0</ns3:atemp>
            <ns3:hr>83</ns3:hr>
          </ns3:TrackPointExtension>
        </extensions>
      </trkpt>
      <trkpt lat="36.86667314730584621429443359375" lon="-118.50504554808139801025390625">
        <ele>2253.39990234375</ele>
        <time>2021-06-28T02:24:24.000Z</time>
        <extensions>
          <ns3:TrackPointExtension>
            <ns3:atemp>30.0</ns3:atemp>
            <ns3:hr>84</ns3:hr>
          </ns3:TrackPointExtension>
        </extensions>
      </trkpt>
      <trkpt lat="36.8666844628751277923583984375" lon="-118.50507899187505245208740234375">
        <ele>2253.199951171875</ele>
        <time>2021-06-28T02:24:26.000Z</time>
        <extensions>
          <ns3:TrackPointExtension>
            <ns3:atemp>30.0</ns3:atemp>
            <ns3:hr>84</ns3:hr>
          </ns3:TrackPointExtension>
        </extensions>
      </trkpt>
      <trkpt lat="36.8666915036737918853759765625" lon="-118.505104221403598785400390625">
        <ele>2252.800048828125</ele>
        <time>2021-06-28T02:24:28.000Z</time>
        <extensions>
          <ns3:TrackPointExtension>
            <ns3:atemp>30.0</ns3:atemp>
            <ns3:hr>84</ns3:hr>
          </ns3:TrackPointExtension>
        </extensions>
      </trkpt>
      <trkpt lat="36.86669477261602878570556640625" lon="-118.5051198117434978485107421875">
        <ele>2252.39990234375</ele>
        <time>2021-06-28T02:24:29.000Z</time>
        <extensions>
          <ns3:TrackPointExtension>
            <ns3:atemp>30.0</ns3:atemp>
            <ns3:hr>84</ns3:hr>
          </ns3:TrackPointExtension>
        </extensions>
      </trkpt>
      <trkpt lat="36.86672679148614406585693359375" lon="-118.5052103362977504730224609375">
        <ele>2253</ele>
        <time>2021-06-28T02:24:35.000Z</time>
        <extensions>
          <ns3:TrackPointExtension>
            <ns3:atemp>30.0</ns3:atemp>
            <ns3:hr>84</ns3:hr>
          </ns3:TrackPointExtension>
        </extensions>
      </trkpt>
      <trkpt lat="36.86674858443439006805419921875" lon="-118.50523439235985279083251953125">
        <ele>2253</ele>
        <time>2021-06-28T02:24:37.000Z</time>
        <extensions>
          <ns3:TrackPointExtension>
            <ns3:atemp>30.0</ns3:atemp>
            <ns3:hr>83</ns3:hr>
          </ns3:TrackPointExtension>
        </extensions>
      </trkpt>
      <trkpt lat="36.86684262938797473907470703125" lon="-118.505443520843982696533203125">
        <ele>2253.60009765625</ele>
        <time>2021-06-28T02:24:42.000Z</time>
        <extensions>
          <ns3:TrackPointExtension>
            <ns3:atemp>30.0</ns3:atemp>
            <ns3:hr>82</ns3:hr>
          </ns3:TrackPointExtension>
        </extensions>
      </trkpt>
      <trkpt lat="36.86686526052653789520263671875" lon="-118.50550764240324497222900390625">
        <ele>2253.60009765625</ele>
        <time>2021-06-28T02:24:44.000Z</time>
        <extensions>
          <ns3:TrackPointExtension>
            <ns3:atemp>30.0</ns3:atemp>
            <ns3:hr>82</ns3:hr>
          </ns3:TrackPointExtension>
        </extensions>
      </trkpt>
      <trkpt lat="36.86691253446042537689208984375" lon="-118.50559137761592864990234375">
        <ele>2252.199951171875</ele>
        <time>2021-06-28T02:24:48.000Z</time>
        <extensions>
          <ns3:TrackPointExtension>
            <ns3:atemp>30.0</ns3:atemp>
            <ns3:hr>82</ns3:hr>
          </ns3:TrackPointExtension>
        </extensions>
      </trkpt>
      <trkpt lat="36.86693818308413028717041015625" lon="-118.5056260786950588226318359375">
        <ele>2251.800048828125</ele>
        <time>2021-06-28T02:24:50.000Z</time>
        <extensions>
          <ns3:TrackPointExtension>
            <ns3:atemp>30.0</ns3:atemp>
            <ns3:hr>83</ns3:hr>
          </ns3:TrackPointExtension>
        </extensions>
      </trkpt>
      <trkpt lat="36.8669454753398895263671875" lon="-118.5056418366730213165283203125">
        <ele>2251.800048828125</ele>
        <time>2021-06-28T02:24:51.000Z</time>
        <extensions>
          <ns3:TrackPointExtension>
            <ns3:atemp>30.0</ns3:atemp>
            <ns3:hr>84</ns3:hr>
          </ns3:TrackPointExtension>
        </extensions>
      </trkpt>
      <trkpt lat="36.86694480478763580322265625" lon="-118.50569330155849456787109375">
        <ele>2251.800048828125</ele>
        <time>2021-06-28T02:24:55.000Z</time>
        <extensions>
          <ns3:TrackPointExtension>
            <ns3:atemp>30.0</ns3:atemp>
            <ns3:hr>84</ns3:hr>
          </ns3:TrackPointExtension>
        </extensions>
      </trkpt>
      <trkpt lat="36.8669429607689380645751953125" lon="-118.50569464266300201416015625">
        <ele>2251.800048828125</ele>
        <time>2021-06-28T02:24:56.000Z</time>
        <extensions>
          <ns3:TrackPointExtension>
            <ns3:atemp>30.0</ns3:atemp>
            <ns3:hr>83</ns3:hr>
          </ns3:TrackPointExtension>
        </extensions>
      </trkpt>
      <trkpt lat="36.86693902127444744110107421875" lon="-118.50569992326200008392333984375">
        <ele>2251.60009765625</ele>
        <time>2021-06-28T02:24:58.000Z</time>
        <extensions>
          <ns3:TrackPointExtension>
            <ns3:atemp>30.0</ns3:atemp>
            <ns3:hr>84</ns3:hr>
          </ns3:TrackPointExtension>
        </extensions>
      </trkpt>
      <trkpt lat="36.8669466488063335418701171875" lon="-118.5057236440479755401611328125">
        <ele>2251</ele>
        <time>2021-06-28T02:25:00.000Z</time>
        <extensions>
          <ns3:TrackPointExtension>
            <ns3:atemp>30.0</ns3:atemp>
            <ns3:hr>83</ns3:hr>
          </ns3:TrackPointExtension>
        </extensions>
      </trkpt>
      <trkpt lat="36.8669562041759490966796875" lon="-118.50574049167335033416748046875">
        <ele>2251</ele>
        <time>2021-06-28T02:25:02.000Z</time>
        <extensions>
          <ns3:TrackPointExtension>
            <ns3:atemp>30.0</ns3:atemp>
            <ns3:hr>83</ns3:hr>
          </ns3:TrackPointExtension>
        </extensions>
      </trkpt>
      <trkpt lat="36.866970621049404144287109375" lon="-118.50576463155448436737060546875">
        <ele>2250.60009765625</ele>
        <time>2021-06-28T02:25:05.000Z</time>
        <extensions>
          <ns3:TrackPointExtension>
            <ns3:atemp>30.0</ns3:atemp>
            <ns3:hr>83</ns3:hr>
          </ns3:TrackPointExtension>
        </extensions>
      </trkpt>
      <trkpt lat="36.86696466989815235137939453125" lon="-118.50578173063695430755615234375">
        <ele>2250.60009765625</ele>
        <time>2021-06-28T02:25:07.000Z</time>
        <extensions>
          <ns3:TrackPointExtension>
            <ns3:atemp>30.0</ns3:atemp>
            <ns3:hr>82</ns3:hr>
          </ns3:TrackPointExtension>
        </extensions>
      </trkpt>
      <trkpt lat="36.8669600598514080047607421875" lon="-118.505790531635284423828125">
        <ele>2250</ele>
        <time>2021-06-28T02:25:08.000Z</time>
        <extensions>
          <ns3:TrackPointExtension>
            <ns3:atemp>30.0</ns3:atemp>
            <ns3:hr>83</ns3:hr>
          </ns3:TrackPointExtension>
        </extensions>
      </trkpt>
      <trkpt lat="36.86694622971117496490478515625" lon="-118.505843840539455413818359375">
        <ele>2248.60009765625</ele>
        <time>2021-06-28T02:25:14.000Z</time>
        <extensions>
          <ns3:TrackPointExtension>
            <ns3:atemp>30.0</ns3:atemp>
            <ns3:hr>85</ns3:hr>
          </ns3:TrackPointExtension>
        </extensions>
      </trkpt>
      <trkpt lat="36.86693650670349597930908203125" lon="-118.50584945641458034515380859375">
        <ele>2248.60009765625</ele>
        <time>2021-06-28T02:25:15.000Z</time>
        <extensions>
          <ns3:TrackPointExtension>
            <ns3:atemp>30.0</ns3:atemp>
            <ns3:hr>85</ns3:hr>
          </ns3:TrackPointExtension>
        </extensions>
      </trkpt>
      <trkpt lat="36.8669213354587554931640625" lon="-118.50588239729404449462890625">
        <ele>2247.60009765625</ele>
        <time>2021-06-28T02:25:19.000Z</time>
        <extensions>
          <ns3:TrackPointExtension>
            <ns3:atemp>30.0</ns3:atemp>
            <ns3:hr>85</ns3:hr>
          </ns3:TrackPointExtension>
        </extensions>
      </trkpt>
      <trkpt lat="36.86692443676292896270751953125" lon="-118.5058929584920406341552734375">
        <ele>2247</ele>
        <time>2021-06-28T02:25:20.000Z</time>
        <extensions>
          <ns3:TrackPointExtension>
            <ns3:atemp>30.0</ns3:atemp>
            <ns3:hr>84</ns3:hr>
          </ns3:TrackPointExtension>
        </extensions>
      </trkpt>
      <trkpt lat="36.86693332158029079437255859375" lon="-118.505916260182857513427734375">
        <ele>2246.60009765625</ele>
        <time>2021-06-28T02:25:22.000Z</time>
        <extensions>
          <ns3:TrackPointExtension>
            <ns3:atemp>30.0</ns3:atemp>
            <ns3:hr>84</ns3:hr>
          </ns3:TrackPointExtension>
        </extensions>
      </trkpt>
      <trkpt lat="36.866945810616016387939453125" lon="-118.50594341754913330078125">
        <ele>2246.39990234375</ele>
        <time>2021-06-28T02:25:24.000Z</time>
        <extensions>
          <ns3:TrackPointExtension>
            <ns3:atemp>30.0</ns3:atemp>
            <ns3:hr>83</ns3:hr>
          </ns3:TrackPointExtension>
        </extensions>
      </trkpt>
      <trkpt lat="36.866941787302494049072265625" lon="-118.505964539945125579833984375">
        <ele>2245.60009765625</ele>
        <time>2021-06-28T02:25:27.000Z</time>
        <extensions>
          <ns3:TrackPointExtension>
            <ns3:atemp>30.0</ns3:atemp>
            <ns3:hr>84</ns3:hr>
          </ns3:TrackPointExtension>
        </extensions>
      </trkpt>
      <trkpt lat="36.86693348921835422515869140625" lon="-118.505971916019916534423828125">
        <ele>2245.60009765625</ele>
        <time>2021-06-28T02:25:28.000Z</time>
        <extensions>
          <ns3:TrackPointExtension>
            <ns3:atemp>30.0</ns3:atemp>
            <ns3:hr>83</ns3:hr>
          </ns3:TrackPointExtension>
        </extensions>
      </trkpt>
      <trkpt lat="36.86692946590483188629150390625" lon="-118.5059841535985469818115234375">
        <ele>2245.39990234375</ele>
        <time>2021-06-28T02:25:29.000Z</time>
        <extensions>
          <ns3:TrackPointExtension>
            <ns3:atemp>30.0</ns3:atemp>
            <ns3:hr>83</ns3:hr>
          </ns3:TrackPointExtension>
        </extensions>
      </trkpt>
      <trkpt lat="36.8669399432837963104248046875" lon="-118.50603804923593997955322265625">
        <ele>2245.199951171875</ele>
        <time>2021-06-28T02:25:33.000Z</time>
        <extensions>
          <ns3:TrackPointExtension>
            <ns3:atemp>30.0</ns3:atemp>
            <ns3:hr>81</ns3:hr>
          </ns3:TrackPointExtension>
        </extensions>
      </trkpt>
      <trkpt lat="36.867027617990970611572265625" lon="-118.50615170784294605255126953125">
        <ele>2246.39990234375</ele>
        <time>2021-06-28T02:25:42.000Z</time>
        <extensions>
          <ns3:TrackPointExtension>
            <ns3:atemp>30.0</ns3:atemp>
            <ns3:hr>79</ns3:hr>
          </ns3:TrackPointExtension>
        </extensions>
      </trkpt>
      <trkpt lat="36.8670371733605861663818359375" lon="-118.5061541385948657989501953125">
        <ele>2246.800048828125</ele>
        <time>2021-06-28T02:25:43.000Z</time>
        <extensions>
          <ns3:TrackPointExtension>
            <ns3:atemp>30.0</ns3:atemp>
            <ns3:hr>81</ns3:hr>
          </ns3:TrackPointExtension>
        </extensions>
      </trkpt>
      <trkpt lat="36.867064498364925384521484375" lon="-118.506193868815898895263671875">
        <ele>2247.39990234375</ele>
        <time>2021-06-28T02:25:49.000Z</time>
        <extensions>
          <ns3:TrackPointExtension>
            <ns3:atemp>30.0</ns3:atemp>
            <ns3:hr>79</ns3:hr>
          </ns3:TrackPointExtension>
        </extensions>
      </trkpt>
      <trkpt lat="36.8670482374727725982666015625" lon="-118.5062114708125591278076171875">
        <ele>2247.39990234375</ele>
        <time>2021-06-28T02:25:51.000Z</time>
        <extensions>
          <ns3:TrackPointExtension>
            <ns3:atemp>30.0</ns3:atemp>
            <ns3:hr>79</ns3:hr>
          </ns3:TrackPointExtension>
        </extensions>
      </trkpt>
      <trkpt lat="36.86702552251517772674560546875" lon="-118.50622111000120639801025390625">
        <ele>2247.60009765625</ele>
        <time>2021-06-28T02:25:53.000Z</time>
        <extensions>
          <ns3:TrackPointExtension>
            <ns3:atemp>30.0</ns3:atemp>
            <ns3:hr>83</ns3:hr>
          </ns3:TrackPointExtension>
        </extensions>
      </trkpt>
      <trkpt lat="36.86701881699264049530029296875" lon="-118.50622865371406078338623046875">
        <ele>2247.60009765625</ele>
        <time>2021-06-28T02:25:54.000Z</time>
        <extensions>
          <ns3:TrackPointExtension>
            <ns3:atemp>30.0</ns3:atemp>
            <ns3:hr>84</ns3:hr>
          </ns3:TrackPointExtension>
        </extensions>
      </trkpt>
      <trkpt lat="36.86701454222202301025390625" lon="-118.50623636506497859954833984375">
        <ele>2247.39990234375</ele>
        <time>2021-06-28T02:25:55.000Z</time>
        <extensions>
          <ns3:TrackPointExtension>
            <ns3:atemp>30.0</ns3:atemp>
            <ns3:hr>85</ns3:hr>
          </ns3:TrackPointExtension>
        </extensions>
      </trkpt>
      <trkpt lat="36.86701227910816669464111328125" lon="-118.506243489682674407958984375">
        <ele>2247.199951171875</ele>
        <time>2021-06-28T02:25:56.000Z</time>
        <extensions>
          <ns3:TrackPointExtension>
            <ns3:atemp>30.0</ns3:atemp>
            <ns3:hr>88</ns3:hr>
          </ns3:TrackPointExtension>
        </extensions>
      </trkpt>
      <trkpt lat="36.8669818527996540069580078125" lon="-118.506289757788181304931640625">
        <ele>2246.39990234375</ele>
        <time>2021-06-28T02:26:01.000Z</time>
        <extensions>
          <ns3:TrackPointExtension>
            <ns3:atemp>30.0</ns3:atemp>
            <ns3:hr>90</ns3:hr>
          </ns3:TrackPointExtension>
        </extensions>
      </trkpt>
      <trkpt lat="36.86697606928646564483642578125" lon="-118.506324291229248046875">
        <ele>2246.199951171875</ele>
        <time>2021-06-28T02:26:03.000Z</time>
        <extensions>
          <ns3:TrackPointExtension>
            <ns3:atemp>30.0</ns3:atemp>
            <ns3:hr>90</ns3:hr>
          </ns3:TrackPointExtension>
        </extensions>
      </trkpt>
      <trkpt lat="36.866978667676448822021484375" lon="-118.5064034163951873779296875">
        <ele>2246</ele>
        <time>2021-06-28T02:26:08.000Z</time>
        <extensions>
          <ns3:TrackPointExtension>
            <ns3:atemp>30.0</ns3:atemp>
            <ns3:hr>88</ns3:hr>
          </ns3:TrackPointExtension>
        </extensions>
      </trkpt>
      <trkpt lat="36.86698562465608119964599609375" lon="-118.50644373334944248199462890625">
        <ele>2246</ele>
        <time>2021-06-28T02:26:11.000Z</time>
        <extensions>
          <ns3:TrackPointExtension>
            <ns3:atemp>30.0</ns3:atemp>
            <ns3:hr>86</ns3:hr>
          </ns3:TrackPointExtension>
        </extensions>
      </trkpt>
      <trkpt lat="36.86698026023805141448974609375" lon="-118.50648949854075908660888671875">
        <ele>2246</ele>
        <time>2021-06-28T02:26:14.000Z</time>
        <extensions>
          <ns3:TrackPointExtension>
            <ns3:atemp>30.0</ns3:atemp>
            <ns3:hr>83</ns3:hr>
          </ns3:TrackPointExtension>
        </extensions>
      </trkpt>
      <trkpt lat="36.86702401377260684967041015625" lon="-118.50657667033374309539794921875">
        <ele>2246.199951171875</ele>
        <time>2021-06-28T02:26:19.000Z</time>
        <extensions>
          <ns3:TrackPointExtension>
            <ns3:atemp>30.0</ns3:atemp>
            <ns3:hr>81</ns3:hr>
          </ns3:TrackPointExtension>
        </extensions>
      </trkpt>
      <trkpt lat="36.86702183447778224945068359375" lon="-118.5065866447985172271728515625">
        <ele>2246.199951171875</ele>
        <time>2021-06-28T02:26:20.000Z</time>
        <extensions>
          <ns3:TrackPointExtension>
            <ns3:atemp>30.0</ns3:atemp>
            <ns3:hr>80</ns3:hr>
          </ns3:TrackPointExtension>
        </extensions>
      </trkpt>
      <trkpt lat="36.867009513080120086669921875" lon="-118.50659276358783245086669921875">
        <ele>2246.199951171875</ele>
        <time>2021-06-28T02:26:21.000Z</time>
        <extensions>
          <ns3:TrackPointExtension>
            <ns3:atemp>30.0</ns3:atemp>
            <ns3:hr>80</ns3:hr>
          </ns3:TrackPointExtension>
        </extensions>
      </trkpt>
      <trkpt lat="36.8669865466654300689697265625" lon="-118.50660835392773151397705078125">
        <ele>2245.60009765625</ele>
        <time>2021-06-28T02:26:23.000Z</time>
        <extensions>
          <ns3:TrackPointExtension>
            <ns3:atemp>30.0</ns3:atemp>
            <ns3:hr>81</ns3:hr>
          </ns3:TrackPointExtension>
        </extensions>
      </trkpt>
      <trkpt lat="36.86698260717093944549560546875" lon="-118.50661925040185451507568359375">
        <ele>2245.39990234375</ele>
        <time>2021-06-28T02:26:24.000Z</time>
        <extensions>
          <ns3:TrackPointExtension>
            <ns3:atemp>30.0</ns3:atemp>
            <ns3:hr>82</ns3:hr>
          </ns3:TrackPointExtension>
        </extensions>
      </trkpt>
      <trkpt lat="36.8669771589338779449462890625" lon="-118.5066285543143749237060546875">
        <ele>2245.39990234375</ele>
        <time>2021-06-28T02:26:25.000Z</time>
        <extensions>
          <ns3:TrackPointExtension>
            <ns3:atemp>30.0</ns3:atemp>
            <ns3:hr>83</ns3:hr>
          </ns3:TrackPointExtension>
        </extensions>
      </trkpt>
      <trkpt lat="36.86695427633821964263916015625" lon="-118.5066775046288967132568359375">
        <ele>2245.199951171875</ele>
        <time>2021-06-28T02:26:29.000Z</time>
        <extensions>
          <ns3:TrackPointExtension>
            <ns3:atemp>30.0</ns3:atemp>
            <ns3:hr>86</ns3:hr>
          </ns3:TrackPointExtension>
        </extensions>
      </trkpt>
      <trkpt lat="36.86694882810115814208984375" lon="-118.5067060030996799468994140625">
        <ele>2245.199951171875</ele>
        <time>2021-06-28T02:26:31.000Z</time>
        <extensions>
          <ns3:TrackPointExtension>
            <ns3:atemp>30.0</ns3:atemp>
            <ns3:hr>90</ns3:hr>
          </ns3:TrackPointExtension>
        </extensions>
      </trkpt>
      <trkpt lat="36.86694488860666751861572265625" lon="-118.506739698350429534912109375">
        <ele>2245.60009765625</ele>
        <time>2021-06-28T02:26:33.000Z</time>
        <extensions>
          <ns3:TrackPointExtension>
            <ns3:atemp>30.0</ns3:atemp>
            <ns3:hr>91</ns3:hr>
          </ns3:TrackPointExtension>
        </extensions>
      </trkpt>
      <trkpt lat="36.86694304458796977996826171875" lon="-118.5068379342555999755859375">
        <ele>2246</ele>
        <time>2021-06-28T02:26:40.000Z</time>
        <extensions>
          <ns3:TrackPointExtension>
            <ns3:atemp>30.0</ns3:atemp>
            <ns3:hr>92</ns3:hr>
          </ns3:TrackPointExtension>
        </extensions>
      </trkpt>
      <trkpt lat="36.86693768016993999481201171875" lon="-118.506843633949756622314453125">
        <ele>2246.199951171875</ele>
        <time>2021-06-28T02:26:41.000Z</time>
        <extensions>
          <ns3:TrackPointExtension>
            <ns3:atemp>30.0</ns3:atemp>
            <ns3:hr>93</ns3:hr>
          </ns3:TrackPointExtension>
        </extensions>
      </trkpt>
      <trkpt lat="36.86693399213254451751708984375" lon="-118.50685411132872104644775390625">
        <ele>2246.39990234375</ele>
        <time>2021-06-28T02:26:42.000Z</time>
        <extensions>
          <ns3:TrackPointExtension>
            <ns3:atemp>30.0</ns3:atemp>
            <ns3:hr>94</ns3:hr>
          </ns3:TrackPointExtension>
        </extensions>
      </trkpt>
      <trkpt lat="36.866936422884464263916015625" lon="-118.5068803466856479644775390625">
        <ele>2246.60009765625</ele>
        <time>2021-06-28T02:26:45.000Z</time>
        <extensions>
          <ns3:TrackPointExtension>
            <ns3:atemp>30.0</ns3:atemp>
            <ns3:hr>95</ns3:hr>
          </ns3:TrackPointExtension>
        </extensions>
      </trkpt>
      <trkpt lat="36.86693818308413028717041015625" lon="-118.5069168917834758758544921875">
        <ele>2246.800048828125</ele>
        <time>2021-06-28T02:26:48.000Z</time>
        <extensions>
          <ns3:TrackPointExtension>
            <ns3:atemp>30.0</ns3:atemp>
            <ns3:hr>96</ns3:hr>
          </ns3:TrackPointExtension>
        </extensions>
      </trkpt>
      <trkpt lat="36.866944134235382080078125" lon="-118.50698369555175304412841796875">
        <ele>2247</ele>
        <time>2021-06-28T02:26:51.000Z</time>
        <extensions>
          <ns3:TrackPointExtension>
            <ns3:atemp>30.0</ns3:atemp>
            <ns3:hr>99</ns3:hr>
          </ns3:TrackPointExtension>
        </extensions>
      </trkpt>
      <trkpt lat="36.86695151031017303466796875" lon="-118.5070191510021686553955078125">
        <ele>2247.60009765625</ele>
        <time>2021-06-28T02:26:54.000Z</time>
        <extensions>
          <ns3:TrackPointExtension>
            <ns3:atemp>30.0</ns3:atemp>
            <ns3:hr>100</ns3:hr>
          </ns3:TrackPointExtension>
        </extensions>
      </trkpt>
      <trkpt lat="36.86695846728980541229248046875" lon="-118.50702895782887935638427734375">
        <ele>2247.60009765625</ele>
        <time>2021-06-28T02:26:55.000Z</time>
        <extensions>
          <ns3:TrackPointExtension>
            <ns3:atemp>30.0</ns3:atemp>
            <ns3:hr>100</ns3:hr>
          </ns3:TrackPointExtension>
        </extensions>
      </trkpt>
      <trkpt lat="36.86696584336459636688232421875" lon="-118.507033400237560272216796875">
        <ele>2247.800048828125</ele>
        <time>2021-06-28T02:26:56.000Z</time>
        <extensions>
          <ns3:TrackPointExtension>
            <ns3:atemp>30.0</ns3:atemp>
            <ns3:hr>104</ns3:hr>
          </ns3:TrackPointExtension>
        </extensions>
      </trkpt>
      <trkpt lat="36.86698394827544689178466796875" lon="-118.50705108605325222015380859375">
        <ele>2247.800048828125</ele>
        <time>2021-06-28T02:26:58.000Z</time>
        <extensions>
          <ns3:TrackPointExtension>
            <ns3:atemp>30.0</ns3:atemp>
            <ns3:hr>99</ns3:hr>
          </ns3:TrackPointExtension>
        </extensions>
      </trkpt>
      <trkpt lat="36.86699937097728252410888671875" lon="-118.5070681013166904449462890625">
        <ele>2248.199951171875</ele>
        <time>2021-06-28T02:27:00.000Z</time>
        <extensions>
          <ns3:TrackPointExtension>
            <ns3:atemp>30.0</ns3:atemp>
            <ns3:hr>106</ns3:hr>
          </ns3:TrackPointExtension>
        </extensions>
      </trkpt>
      <trkpt lat="36.8670240975916385650634765625" lon="-118.50709903053939342498779296875">
        <ele>2248.199951171875</ele>
        <time>2021-06-28T02:27:02.000Z</time>
        <extensions>
          <ns3:TrackPointExtension>
            <ns3:atemp>30.0</ns3:atemp>
            <ns3:hr>106</ns3:hr>
          </ns3:TrackPointExtension>
        </extensions>
      </trkpt>
      <trkpt lat="36.8670354969799518585205078125" lon="-118.5071183927357196807861328125">
        <ele>2248.60009765625</ele>
        <time>2021-06-28T02:27:04.000Z</time>
        <extensions>
          <ns3:TrackPointExtension>
            <ns3:atemp>30.0</ns3:atemp>
            <ns3:hr>108</ns3:hr>
          </ns3:TrackPointExtension>
        </extensions>
      </trkpt>
      <trkpt lat="36.867032982409000396728515625" lon="-118.5071690194308757781982421875">
        <ele>2249.39990234375</ele>
        <time>2021-06-28T02:27:10.000Z</time>
        <extensions>
          <ns3:TrackPointExtension>
            <ns3:atemp>30.0</ns3:atemp>
            <ns3:hr>110</ns3:hr>
          </ns3:TrackPointExtension>
        </extensions>
      </trkpt>
      <trkpt lat="36.8670415319502353668212890625" lon="-118.507182262837886810302734375">
        <ele>2249.199951171875</ele>
        <time>2021-06-28T02:27:14.000Z</time>
        <extensions>
          <ns3:TrackPointExtension>
            <ns3:atemp>30.0</ns3:atemp>
            <ns3:hr>111</ns3:hr>
          </ns3:TrackPointExtension>
        </extensions>
      </trkpt>
      <trkpt lat="36.86704463325440883636474609375" lon="-118.50718117319047451019287109375">
        <ele>2249.199951171875</ele>
        <time>2021-06-28T02:27:15.000Z</time>
        <extensions>
          <ns3:TrackPointExtension>
            <ns3:atemp>30.0</ns3:atemp>
            <ns3:hr>111</ns3:hr>
          </ns3:TrackPointExtension>
        </extensions>
      </trkpt>
      <trkpt lat="36.86704429797828197479248046875" lon="-118.50718117319047451019287109375">
        <ele>2249.199951171875</ele>
        <time>2021-06-28T02:27:16.000Z</time>
        <extensions>
          <ns3:TrackPointExtension>
            <ns3:atemp>30.0</ns3:atemp>
            <ns3:hr>111</ns3:hr>
          </ns3:TrackPointExtension>
        </extensions>
      </trkpt>
      <trkpt lat="36.86704765073955059051513671875" lon="-118.50719240494072437286376953125">
        <ele>2249.199951171875</ele>
        <time>2021-06-28T02:27:18.000Z</time>
        <extensions>
          <ns3:TrackPointExtension>
            <ns3:atemp>30.0</ns3:atemp>
            <ns3:hr>113</ns3:hr>
          </ns3:TrackPointExtension>
        </extensions>
      </trkpt>
      <trkpt lat="36.8670572899281978607177734375" lon="-118.50721151567995548248291015625">
        <ele>2249</ele>
        <time>2021-06-28T02:27:20.000Z</time>
        <extensions>
          <ns3:TrackPointExtension>
            <ns3:atemp>30.0</ns3:atemp>
            <ns3:hr>112</ns3:hr>
          </ns3:TrackPointExtension>
        </extensions>
      </trkpt>
      <trkpt lat="36.86705234460532665252685546875" lon="-118.50722216069698333740234375">
        <ele>2249</ele>
        <time>2021-06-28T02:27:21.000Z</time>
        <extensions>
          <ns3:TrackPointExtension>
            <ns3:atemp>30.0</ns3:atemp>
            <ns3:hr>112</ns3:hr>
          </ns3:TrackPointExtension>
        </extensions>
      </trkpt>
      <trkpt lat="36.86703599989414215087890625" lon="-118.5072749666869640350341796875">
        <ele>2248.60009765625</ele>
        <time>2021-06-28T02:27:28.000Z</time>
        <extensions>
          <ns3:TrackPointExtension>
            <ns3:atemp>30.0</ns3:atemp>
            <ns3:hr>110</ns3:hr>
          </ns3:TrackPointExtension>
        </extensions>
      </trkpt>
      <trkpt lat="36.8670435436069965362548828125" lon="-118.50732685066759586334228515625">
        <ele>2247.60009765625</ele>
        <time>2021-06-28T02:27:33.000Z</time>
        <extensions>
          <ns3:TrackPointExtension>
            <ns3:atemp>30.0</ns3:atemp>
            <ns3:hr>110</ns3:hr>
          </ns3:TrackPointExtension>
        </extensions>
      </trkpt>
      <trkpt lat="36.86704530380666255950927734375" lon="-118.507371358573436737060546875">
        <ele>2247</ele>
        <time>2021-06-28T02:27:37.000Z</time>
        <extensions>
          <ns3:TrackPointExtension>
            <ns3:atemp>30.0</ns3:atemp>
            <ns3:hr>108</ns3:hr>
          </ns3:TrackPointExtension>
        </extensions>
      </trkpt>
      <trkpt lat="36.86706416308879852294921875" lon="-118.5074372403323650360107421875">
        <ele>2246.199951171875</ele>
        <time>2021-06-28T02:27:43.000Z</time>
        <extensions>
          <ns3:TrackPointExtension>
            <ns3:atemp>30.0</ns3:atemp>
            <ns3:hr>106</ns3:hr>
          </ns3:TrackPointExtension>
        </extensions>
      </trkpt>
      <trkpt lat="36.8670690245926380157470703125" lon="-118.50744654424488544464111328125">
        <ele>2246.199951171875</ele>
        <time>2021-06-28T02:27:44.000Z</time>
        <extensions>
          <ns3:TrackPointExtension>
            <ns3:atemp>30.0</ns3:atemp>
            <ns3:hr>106</ns3:hr>
          </ns3:TrackPointExtension>
        </extensions>
      </trkpt>
      <trkpt lat="36.86707556247711181640625" lon="-118.5074835084378719329833984375">
        <ele>2245.39990234375</ele>
        <time>2021-06-28T02:27:48.000Z</time>
        <extensions>
          <ns3:TrackPointExtension>
            <ns3:atemp>30.0</ns3:atemp>
            <ns3:hr>103</ns3:hr>
          </ns3:TrackPointExtension>
        </extensions>
      </trkpt>
      <trkpt lat="36.86707262881100177764892578125" lon="-118.50748677738010883331298828125">
        <ele>2244.60009765625</ele>
        <time>2021-06-28T02:27:49.000Z</time>
        <extensions>
          <ns3:TrackPointExtension>
            <ns3:atemp>30.0</ns3:atemp>
            <ns3:hr>102</ns3:hr>
          </ns3:TrackPointExtension>
        </extensions>
      </trkpt>
      <trkpt lat="36.86706324107944965362548828125" lon="-118.50748367607593536376953125">
        <ele>2244.39990234375</ele>
        <time>2021-06-28T02:27:50.000Z</time>
        <extensions>
          <ns3:TrackPointExtension>
            <ns3:atemp>30.0</ns3:atemp>
            <ns3:hr>101</ns3:hr>
          </ns3:TrackPointExtension>
        </extensions>
      </trkpt>
      <trkpt lat="36.86704295687377452850341796875" lon="-118.5074687562882900238037109375">
        <ele>2244.199951171875</ele>
        <time>2021-06-28T02:27:52.000Z</time>
        <extensions>
          <ns3:TrackPointExtension>
            <ns3:atemp>30.0</ns3:atemp>
            <ns3:hr>98</ns3:hr>
          </ns3:TrackPointExtension>
        </extensions>
      </trkpt>
      <trkpt lat="36.8670297972857952117919921875" lon="-118.50748191587626934051513671875">
        <ele>2243.60009765625</ele>
        <time>2021-06-28T02:27:54.000Z</time>
        <extensions>
          <ns3:TrackPointExtension>
            <ns3:atemp>30.0</ns3:atemp>
            <ns3:hr>97</ns3:hr>
          </ns3:TrackPointExtension>
        </extensions>
      </trkpt>
      <trkpt lat="36.86702929437160491943359375" lon="-118.507490716874599456787109375">
        <ele>2243.60009765625</ele>
        <time>2021-06-28T02:27:55.000Z</time>
        <extensions>
          <ns3:TrackPointExtension>
            <ns3:atemp>30.0</ns3:atemp>
            <ns3:hr>96</ns3:hr>
          </ns3:TrackPointExtension>
        </extensions>
      </trkpt>
      <trkpt lat="36.8670291267335414886474609375" lon="-118.50752667523920536041259765625">
        <ele>2243.39990234375</ele>
        <time>2021-06-28T02:27:58.000Z</time>
        <extensions>
          <ns3:TrackPointExtension>
            <ns3:atemp>30.0</ns3:atemp>
            <ns3:hr>94</ns3:hr>
          </ns3:TrackPointExtension>
        </extensions>
      </trkpt>
      <trkpt lat="36.8670380115509033203125" lon="-118.50755131803452968597412109375">
        <ele>2243.39990234375</ele>
        <time>2021-06-28T02:28:00.000Z</time>
        <extensions>
          <ns3:TrackPointExtension>
            <ns3:atemp>30.0</ns3:atemp>
            <ns3:hr>91</ns3:hr>
          </ns3:TrackPointExtension>
        </extensions>
      </trkpt>
      <trkpt lat="36.8670405261218547821044921875" lon="-118.50756221450865268707275390625">
        <ele>2243.199951171875</ele>
        <time>2021-06-28T02:28:01.000Z</time>
        <extensions>
          <ns3:TrackPointExtension>
            <ns3:atemp>30.0</ns3:atemp>
            <ns3:hr>90</ns3:hr>
          </ns3:TrackPointExtension>
        </extensions>
      </trkpt>
      <trkpt lat="36.86704396270215511322021484375" lon="-118.50758560001850128173828125">
        <ele>2242.800048828125</ele>
        <time>2021-06-28T02:28:03.000Z</time>
        <extensions>
          <ns3:TrackPointExtension>
            <ns3:atemp>30.0</ns3:atemp>
            <ns3:hr>87</ns3:hr>
          </ns3:TrackPointExtension>
        </extensions>
      </trkpt>
      <trkpt lat="36.86704337596893310546875" lon="-118.5075975023210048675537109375">
        <ele>2242.800048828125</ele>
        <time>2021-06-28T02:28:04.000Z</time>
        <extensions>
          <ns3:TrackPointExtension>
            <ns3:atemp>30.0</ns3:atemp>
            <ns3:hr>86</ns3:hr>
          </ns3:TrackPointExtension>
        </extensions>
      </trkpt>
      <trkpt lat="36.867044381797313690185546875" lon="-118.50761082954704761505126953125">
        <ele>2242.39990234375</ele>
        <time>2021-06-28T02:28:05.000Z</time>
        <extensions>
          <ns3:TrackPointExtension>
            <ns3:atemp>30.0</ns3:atemp>
            <ns3:hr>86</ns3:hr>
          </ns3:TrackPointExtension>
        </extensions>
      </trkpt>
      <trkpt lat="36.867051422595977783203125" lon="-118.50762222893536090850830078125">
        <ele>2242.199951171875</ele>
        <time>2021-06-28T02:28:06.000Z</time>
        <extensions>
          <ns3:TrackPointExtension>
            <ns3:atemp>30.0</ns3:atemp>
            <ns3:hr>86</ns3:hr>
          </ns3:TrackPointExtension>
        </extensions>
      </trkpt>
      <trkpt lat="36.867076568305492401123046875" lon="-118.5076477937400341033935546875">
        <ele>2242.199951171875</ele>
        <time>2021-06-28T02:28:08.000Z</time>
        <extensions>
          <ns3:TrackPointExtension>
            <ns3:atemp>30.0</ns3:atemp>
            <ns3:hr>87</ns3:hr>
          </ns3:TrackPointExtension>
        </extensions>
      </trkpt>
      <trkpt lat="36.8670867942273616790771484375" lon="-118.50767268799245357513427734375">
        <ele>2242.199951171875</ele>
        <time>2021-06-28T02:28:09.000Z</time>
        <extensions>
          <ns3:TrackPointExtension>
            <ns3:atemp>30.0</ns3:atemp>
            <ns3:hr>86</ns3:hr>
          </ns3:TrackPointExtension>
        </extensions>
      </trkpt>
      <trkpt lat="36.86712359078228473663330078125" lon="-118.50773287005722522735595703125">
        <ele>2241.800048828125</ele>
        <time>2021-06-28T02:28:15.000Z</time>
        <extensions>
          <ns3:TrackPointExtension>
            <ns3:atemp>30.0</ns3:atemp>
            <ns3:hr>89</ns3:hr>
          </ns3:TrackPointExtension>
        </extensions>
      </trkpt>
      <trkpt lat="36.86712107621133327484130859375" lon="-118.50775332190096378326416015625">
        <ele>2241.39990234375</ele>
        <time>2021-06-28T02:28:17.000Z</time>
        <extensions>
          <ns3:TrackPointExtension>
            <ns3:atemp>30.0</ns3:atemp>
            <ns3:hr>90</ns3:hr>
          </ns3:TrackPointExtension>
        </extensions>
      </trkpt>
      <trkpt lat="36.86712308786809444427490234375" lon="-118.50782322697341442108154296875">
        <ele>2240.39990234375</ele>
        <time>2021-06-28T02:28:22.000Z</time>
        <extensions>
          <ns3:TrackPointExtension>
            <ns3:atemp>30.0</ns3:atemp>
            <ns3:hr>93</ns3:hr>
          </ns3:TrackPointExtension>
        </extensions>
      </trkpt>
      <trkpt lat="36.86712208203971385955810546875" lon="-118.5078338719904422760009765625">
        <ele>2240</ele>
        <time>2021-06-28T02:28:23.000Z</time>
        <extensions>
          <ns3:TrackPointExtension>
            <ns3:atemp>30.0</ns3:atemp>
            <ns3:hr>94</ns3:hr>
          </ns3:TrackPointExtension>
        </extensions>
      </trkpt>
      <trkpt lat="36.86711923219263553619384765625" lon="-118.50785675458610057830810546875">
        <ele>2239.60009765625</ele>
        <time>2021-06-28T02:28:25.000Z</time>
        <extensions>
          <ns3:TrackPointExtension>
            <ns3:atemp>30.0</ns3:atemp>
            <ns3:hr>95</ns3:hr>
          </ns3:TrackPointExtension>
        </extensions>
      </trkpt>
      <trkpt lat="36.8670998699963092803955078125" lon="-118.50784577429294586181640625">
        <ele>2239.199951171875</ele>
        <time>2021-06-28T02:28:30.000Z</time>
        <extensions>
          <ns3:TrackPointExtension>
            <ns3:atemp>30.0</ns3:atemp>
            <ns3:hr>95</ns3:hr>
          </ns3:TrackPointExtension>
        </extensions>
      </trkpt>
      <trkpt lat="36.86707329936325550079345703125" lon="-118.50783043541014194488525390625">
        <ele>2238.39990234375</ele>
        <time>2021-06-28T02:28:33.000Z</time>
        <extensions>
          <ns3:TrackPointExtension>
            <ns3:atemp>30.0</ns3:atemp>
            <ns3:hr>93</ns3:hr>
          </ns3:TrackPointExtension>
        </extensions>
      </trkpt>
      <trkpt lat="36.86706013977527618408203125" lon="-118.50782976485788822174072265625">
        <ele>2238.199951171875</ele>
        <time>2021-06-28T02:28:34.000Z</time>
        <extensions>
          <ns3:TrackPointExtension>
            <ns3:atemp>30.0</ns3:atemp>
            <ns3:hr>92</ns3:hr>
          </ns3:TrackPointExtension>
        </extensions>
      </trkpt>
      <trkpt lat="36.86704630963504314422607421875" lon="-118.5078268311917781829833984375">
        <ele>2238</ele>
        <time>2021-06-28T02:28:36.000Z</time>
        <extensions>
          <ns3:TrackPointExtension>
            <ns3:atemp>30.0</ns3:atemp>
            <ns3:hr>89</ns3:hr>
          </ns3:TrackPointExtension>
        </extensions>
      </trkpt>
      <trkpt lat="36.86704010702669620513916015625" lon="-118.507828675210475921630859375">
        <ele>2237.39990234375</ele>
        <time>2021-06-28T02:28:37.000Z</time>
        <extensions>
          <ns3:TrackPointExtension>
            <ns3:atemp>30.0</ns3:atemp>
            <ns3:hr>88</ns3:hr>
          </ns3:TrackPointExtension>
        </extensions>
      </trkpt>
      <trkpt lat="36.86702468432486057281494140625" lon="-118.50782163441181182861328125">
        <ele>2237</ele>
        <time>2021-06-28T02:28:40.000Z</time>
        <extensions>
          <ns3:TrackPointExtension>
            <ns3:atemp>30.0</ns3:atemp>
            <ns3:hr>86</ns3:hr>
          </ns3:TrackPointExtension>
        </extensions>
      </trkpt>
      <trkpt lat="36.86698294244706630706787109375" lon="-118.5078223049640655517578125">
        <ele>2236</ele>
        <time>2021-06-28T02:28:45.000Z</time>
        <extensions>
          <ns3:TrackPointExtension>
            <ns3:atemp>30.0</ns3:atemp>
            <ns3:hr>84</ns3:hr>
          </ns3:TrackPointExtension>
        </extensions>
      </trkpt>
      <trkpt lat="36.86695687472820281982421875" lon="-118.5078492946922779083251953125">
        <ele>2235</ele>
        <time>2021-06-28T02:28:50.000Z</time>
        <extensions>
          <ns3:TrackPointExtension>
            <ns3:atemp>30.0</ns3:atemp>
            <ns3:hr>82</ns3:hr>
          </ns3:TrackPointExtension>
        </extensions>
      </trkpt>
      <trkpt lat="36.8669540248811244964599609375" lon="-118.50785256363451480865478515625">
        <ele>2234.800048828125</ele>
        <time>2021-06-28T02:28:51.000Z</time>
        <extensions>
          <ns3:TrackPointExtension>
            <ns3:atemp>30.0</ns3:atemp>
            <ns3:hr>82</ns3:hr>
          </ns3:TrackPointExtension>
        </extensions>
      </trkpt>
      <trkpt lat="36.866933740675449371337890625" lon="-118.5078600235283374786376953125">
        <ele>2234</ele>
        <time>2021-06-28T02:28:54.000Z</time>
        <extensions>
          <ns3:TrackPointExtension>
            <ns3:atemp>30.0</ns3:atemp>
            <ns3:hr>81</ns3:hr>
          </ns3:TrackPointExtension>
        </extensions>
      </trkpt>
      <trkpt lat="36.86692628078162670135498046875" lon="-118.50786262191832065582275390625">
        <ele>2234</ele>
        <time>2021-06-28T02:28:55.000Z</time>
        <extensions>
          <ns3:TrackPointExtension>
            <ns3:atemp>30.0</ns3:atemp>
            <ns3:hr>81</ns3:hr>
          </ns3:TrackPointExtension>
        </extensions>
      </trkpt>
      <trkpt lat="36.8669117800891399383544921875" lon="-118.50786589086055755615234375">
        <ele>2233.39990234375</ele>
        <time>2021-06-28T02:28:57.000Z</time>
        <extensions>
          <ns3:TrackPointExtension>
            <ns3:atemp>30.0</ns3:atemp>
            <ns3:hr>81</ns3:hr>
          </ns3:TrackPointExtension>
        </extensions>
      </trkpt>
      <trkpt lat="36.866887472569942474365234375" lon="-118.50786320865154266357421875">
        <ele>2232.800048828125</ele>
        <time>2021-06-28T02:29:00.000Z</time>
        <extensions>
          <ns3:TrackPointExtension>
            <ns3:atemp>30.0</ns3:atemp>
            <ns3:hr>80</ns3:hr>
          </ns3:TrackPointExtension>
        </extensions>
      </trkpt>
      <trkpt lat="36.86685855500400066375732421875" lon="-118.5078570060431957244873046875">
        <ele>2231.60009765625</ele>
        <time>2021-06-28T02:29:04.000Z</time>
        <extensions>
          <ns3:TrackPointExtension>
            <ns3:atemp>30.0</ns3:atemp>
            <ns3:hr>79</ns3:hr>
          </ns3:TrackPointExtension>
        </extensions>
      </trkpt>
      <trkpt lat="36.86683609150350093841552734375" lon="-118.50786195136606693267822265625">
        <ele>2231.60009765625</ele>
        <time>2021-06-28T02:29:06.000Z</time>
        <extensions>
          <ns3:TrackPointExtension>
            <ns3:atemp>30.0</ns3:atemp>
            <ns3:hr>80</ns3:hr>
          </ns3:TrackPointExtension>
        </extensions>
      </trkpt>
      <trkpt lat="36.86681027524173259735107421875" lon="-118.50792397744953632354736328125">
        <ele>2230.60009765625</ele>
        <time>2021-06-28T02:29:13.000Z</time>
        <extensions>
          <ns3:TrackPointExtension>
            <ns3:atemp>30.0</ns3:atemp>
            <ns3:hr>81</ns3:hr>
          </ns3:TrackPointExtension>
        </extensions>
      </trkpt>
      <trkpt lat="36.86680742539465427398681640625" lon="-118.507969491183757781982421875">
        <ele>2230</ele>
        <time>2021-06-28T02:29:17.000Z</time>
        <extensions>
          <ns3:TrackPointExtension>
            <ns3:atemp>30.0</ns3:atemp>
            <ns3:hr>80</ns3:hr>
          </ns3:TrackPointExtension>
        </extensions>
      </trkpt>
      <trkpt lat="36.86681379564106464385986328125" lon="-118.5079984925687313079833984375">
        <ele>2229.60009765625</ele>
        <time>2021-06-28T02:29:19.000Z</time>
        <extensions>
          <ns3:TrackPointExtension>
            <ns3:atemp>30.0</ns3:atemp>
            <ns3:hr>79</ns3:hr>
          </ns3:TrackPointExtension>
        </extensions>
      </trkpt>
      <trkpt lat="36.86681664548814296722412109375" lon="-118.50802489556372165679931640625">
        <ele>2229.39990234375</ele>
        <time>2021-06-28T02:29:21.000Z</time>
        <extensions>
          <ns3:TrackPointExtension>
            <ns3:atemp>30.0</ns3:atemp>
            <ns3:hr>80</ns3:hr>
          </ns3:TrackPointExtension>
        </extensions>
      </trkpt>
      <trkpt lat="36.8668167293071746826171875" lon="-118.508056662976741790771484375">
        <ele>2229.39990234375</ele>
        <time>2021-06-28T02:29:24.000Z</time>
        <extensions>
          <ns3:TrackPointExtension>
            <ns3:atemp>30.0</ns3:atemp>
            <ns3:hr>77</ns3:hr>
          </ns3:TrackPointExtension>
        </extensions>
      </trkpt>
      <trkpt lat="36.86679904349148273468017578125" lon="-118.508096225559711456298828125">
        <ele>2228.60009765625</ele>
        <time>2021-06-28T02:29:28.000Z</time>
        <extensions>
          <ns3:TrackPointExtension>
            <ns3:atemp>30.0</ns3:atemp>
            <ns3:hr>76</ns3:hr>
          </ns3:TrackPointExtension>
        </extensions>
      </trkpt>
      <trkpt lat="36.866798959672451019287109375" lon="-118.5081091336905956268310546875">
        <ele>2228.39990234375</ele>
        <time>2021-06-28T02:29:29.000Z</time>
        <extensions>
          <ns3:TrackPointExtension>
            <ns3:atemp>30.0</ns3:atemp>
            <ns3:hr>79</ns3:hr>
          </ns3:TrackPointExtension>
        </extensions>
      </trkpt>
      <trkpt lat="36.8668192438781261444091796875" lon="-118.5081803798675537109375">
        <ele>2227.39990234375</ele>
        <time>2021-06-28T02:29:35.000Z</time>
        <extensions>
          <ns3:TrackPointExtension>
            <ns3:atemp>30.0</ns3:atemp>
            <ns3:hr>85</ns3:hr>
          </ns3:TrackPointExtension>
        </extensions>
      </trkpt>
      <trkpt lat="36.866826452314853668212890625" lon="-118.5081926174461841583251953125">
        <ele>2227.199951171875</ele>
        <time>2021-06-28T02:29:36.000Z</time>
        <extensions>
          <ns3:TrackPointExtension>
            <ns3:atemp>30.0</ns3:atemp>
            <ns3:hr>83</ns3:hr>
          </ns3:TrackPointExtension>
        </extensions>
      </trkpt>
      <trkpt lat="36.86683340929448604583740234375" lon="-118.508200831711292266845703125">
        <ele>2227.199951171875</ele>
        <time>2021-06-28T02:29:37.000Z</time>
        <extensions>
          <ns3:TrackPointExtension>
            <ns3:atemp>30.0</ns3:atemp>
            <ns3:hr>83</ns3:hr>
          </ns3:TrackPointExtension>
        </extensions>
      </trkpt>
      <trkpt lat="36.86687238514423370361328125" lon="-118.50827534683048725128173828125">
        <ele>2226.60009765625</ele>
        <time>2021-06-28T02:29:43.000Z</time>
        <extensions>
          <ns3:TrackPointExtension>
            <ns3:atemp>30.0</ns3:atemp>
            <ns3:hr>83</ns3:hr>
          </ns3:TrackPointExtension>
        </extensions>
      </trkpt>
      <trkpt lat="36.86690264381468296051025390625" lon="-118.50834240205585956573486328125">
        <ele>2226.199951171875</ele>
        <time>2021-06-28T02:29:48.000Z</time>
        <extensions>
          <ns3:TrackPointExtension>
            <ns3:atemp>30.0</ns3:atemp>
            <ns3:hr>83</ns3:hr>
          </ns3:TrackPointExtension>
        </extensions>
      </trkpt>
      <trkpt lat="36.86691395938396453857421875" lon="-118.5083587467670440673828125">
        <ele>2226.199951171875</ele>
        <time>2021-06-28T02:29:50.000Z</time>
        <extensions>
          <ns3:TrackPointExtension>
            <ns3:atemp>30.0</ns3:atemp>
            <ns3:hr>82</ns3:hr>
          </ns3:TrackPointExtension>
        </extensions>
      </trkpt>
      <trkpt lat="36.86693675816059112548828125" lon="-118.50840308703482151031494140625">
        <ele>2225</ele>
        <time>2021-06-28T02:29:54.000Z</time>
        <extensions>
          <ns3:TrackPointExtension>
            <ns3:atemp>30.0</ns3:atemp>
            <ns3:hr>80</ns3:hr>
          </ns3:TrackPointExtension>
        </extensions>
      </trkpt>
      <trkpt lat="36.8669563718140125274658203125" lon="-118.50844432599842548370361328125">
        <ele>2224.39990234375</ele>
        <time>2021-06-28T02:29:57.000Z</time>
        <extensions>
          <ns3:TrackPointExtension>
            <ns3:atemp>30.0</ns3:atemp>
            <ns3:hr>81</ns3:hr>
          </ns3:TrackPointExtension>
        </extensions>
      </trkpt>
      <trkpt lat="36.866963915526866912841796875" lon="-118.5084551386535167694091796875">
        <ele>2224.39990234375</ele>
        <time>2021-06-28T02:29:58.000Z</time>
        <extensions>
          <ns3:TrackPointExtension>
            <ns3:atemp>30.0</ns3:atemp>
            <ns3:hr>77</ns3:hr>
          </ns3:TrackPointExtension>
        </extensions>
      </trkpt>
      <trkpt lat="36.86698730103671550750732421875" lon="-118.5084940306842327117919921875">
        <ele>2223.800048828125</ele>
        <time>2021-06-28T02:30:01.000Z</time>
        <extensions>
          <ns3:TrackPointExtension>
            <ns3:atemp>30.0</ns3:atemp>
            <ns3:hr>79</ns3:hr>
          </ns3:TrackPointExtension>
        </extensions>
      </trkpt>
      <trkpt lat="36.86703063547611236572265625" lon="-118.5085248760879039764404296875">
        <ele>2223.199951171875</ele>
        <time>2021-06-28T02:30:06.000Z</time>
        <extensions>
          <ns3:TrackPointExtension>
            <ns3:atemp>30.0</ns3:atemp>
            <ns3:hr>77</ns3:hr>
          </ns3:TrackPointExtension>
        </extensions>
      </trkpt>
      <trkpt lat="36.86705611646175384521484375" lon="-118.50853686220943927764892578125">
        <ele>2222.800048828125</ele>
        <time>2021-06-28T02:30:09.000Z</time>
        <extensions>
          <ns3:TrackPointExtension>
            <ns3:atemp>30.0</ns3:atemp>
            <ns3:hr>74</ns3:hr>
          </ns3:TrackPointExtension>
        </extensions>
      </trkpt>
      <trkpt lat="36.86706827022135257720947265625" lon="-118.50854122079908847808837890625">
        <ele>2222.800048828125</ele>
        <time>2021-06-28T02:30:10.000Z</time>
        <extensions>
          <ns3:TrackPointExtension>
            <ns3:atemp>30.0</ns3:atemp>
            <ns3:hr>73</ns3:hr>
          </ns3:TrackPointExtension>
        </extensions>
      </trkpt>
      <trkpt lat="36.86711554415524005889892578125" lon="-118.5085594095289707183837890625">
        <ele>2222.60009765625</ele>
        <time>2021-06-28T02:30:14.000Z</time>
        <extensions>
          <ns3:TrackPointExtension>
            <ns3:atemp>30.0</ns3:atemp>
            <ns3:hr>71</ns3:hr>
          </ns3:TrackPointExtension>
        </extensions>
      </trkpt>
      <trkpt lat="36.86722509562969207763671875" lon="-118.50859989412128925323486328125">
        <ele>2222.60009765625</ele>
        <time>2021-06-28T02:30:24.000Z</time>
        <extensions>
          <ns3:TrackPointExtension>
            <ns3:atemp>30.0</ns3:atemp>
            <ns3:hr>73</ns3:hr>
          </ns3:TrackPointExtension>
        </extensions>
      </trkpt>
      <trkpt lat="36.86725283972918987274169921875" lon="-118.50860525853931903839111328125">
        <ele>2222</ele>
        <time>2021-06-28T02:30:27.000Z</time>
        <extensions>
          <ns3:TrackPointExtension>
            <ns3:atemp>30.0</ns3:atemp>
            <ns3:hr>70</ns3:hr>
          </ns3:TrackPointExtension>
        </extensions>
      </trkpt>
      <trkpt lat="36.86727664433419704437255859375" lon="-118.50861598737537860870361328125">
        <ele>2221.199951171875</ele>
        <time>2021-06-28T02:30:30.000Z</time>
        <extensions>
          <ns3:TrackPointExtension>
            <ns3:atemp>30.0</ns3:atemp>
            <ns3:hr>72</ns3:hr>
          </ns3:TrackPointExtension>
        </extensions>
      </trkpt>
      <trkpt lat="36.86729592271149158477783203125" lon="-118.50863610394299030303955078125">
        <ele>2221</ele>
        <time>2021-06-28T02:30:33.000Z</time>
        <extensions>
          <ns3:TrackPointExtension>
            <ns3:atemp>30.0</ns3:atemp>
            <ns3:hr>74</ns3:hr>
          </ns3:TrackPointExtension>
        </extensions>
      </trkpt>
      <trkpt lat="36.867311261594295501708984375" lon="-118.50865772925317287445068359375">
        <ele>2220</ele>
        <time>2021-06-28T02:30:35.000Z</time>
        <extensions>
          <ns3:TrackPointExtension>
            <ns3:atemp>30.0</ns3:atemp>
            <ns3:hr>74</ns3:hr>
          </ns3:TrackPointExtension>
        </extensions>
      </trkpt>
      <trkpt lat="36.8673211522400379180908203125" lon="-118.50866627879440784454345703125">
        <ele>2219.800048828125</ele>
        <time>2021-06-28T02:30:36.000Z</time>
        <extensions>
          <ns3:TrackPointExtension>
            <ns3:atemp>30.0</ns3:atemp>
            <ns3:hr>75</ns3:hr>
          </ns3:TrackPointExtension>
        </extensions>
      </trkpt>
      <trkpt lat="36.86734445393085479736328125" lon="-118.50867801345884799957275390625">
        <ele>2219</ele>
        <time>2021-06-28T02:30:39.000Z</time>
        <extensions>
          <ns3:TrackPointExtension>
            <ns3:atemp>30.0</ns3:atemp>
            <ns3:hr>75</ns3:hr>
          </ns3:TrackPointExtension>
        </extensions>
      </trkpt>
      <trkpt lat="36.867354847490787506103515625" lon="-118.50867834873497486114501953125">
        <ele>2218.60009765625</ele>
        <time>2021-06-28T02:30:40.000Z</time>
        <extensions>
          <ns3:TrackPointExtension>
            <ns3:atemp>30.0</ns3:atemp>
            <ns3:hr>74</ns3:hr>
          </ns3:TrackPointExtension>
        </extensions>
      </trkpt>
      <trkpt lat="36.8673841841518878936767578125" lon="-118.5086951963603496551513671875">
        <ele>2217.60009765625</ele>
        <time>2021-06-28T02:30:43.000Z</time>
        <extensions>
          <ns3:TrackPointExtension>
            <ns3:atemp>30.0</ns3:atemp>
            <ns3:hr>74</ns3:hr>
          </ns3:TrackPointExtension>
        </extensions>
      </trkpt>
      <trkpt lat="36.86740346252918243408203125" lon="-118.508715815842151641845703125">
        <ele>2217.39990234375</ele>
        <time>2021-06-28T02:30:45.000Z</time>
        <extensions>
          <ns3:TrackPointExtension>
            <ns3:atemp>30.0</ns3:atemp>
            <ns3:hr>77</ns3:hr>
          </ns3:TrackPointExtension>
        </extensions>
      </trkpt>
      <trkpt lat="36.8674478866159915924072265625" lon="-118.50875512696802616119384765625">
        <ele>2216.39990234375</ele>
        <time>2021-06-28T02:30:50.000Z</time>
        <extensions>
          <ns3:TrackPointExtension>
            <ns3:atemp>30.0</ns3:atemp>
            <ns3:hr>77</ns3:hr>
          </ns3:TrackPointExtension>
        </extensions>
      </trkpt>
      <trkpt lat="36.86749323271214962005615234375" lon="-118.50877541117370128631591796875">
        <ele>2215.39990234375</ele>
        <time>2021-06-28T02:30:54.000Z</time>
        <extensions>
          <ns3:TrackPointExtension>
            <ns3:atemp>30.0</ns3:atemp>
            <ns3:hr>73</ns3:hr>
          </ns3:TrackPointExtension>
        </extensions>
      </trkpt>
      <trkpt lat="36.867506392300128936767578125" lon="-118.50878546945750713348388671875">
        <ele>2215.199951171875</ele>
        <time>2021-06-28T02:30:55.000Z</time>
        <extensions>
          <ns3:TrackPointExtension>
            <ns3:atemp>30.0</ns3:atemp>
            <ns3:hr>75</ns3:hr>
          </ns3:TrackPointExtension>
        </extensions>
      </trkpt>
      <trkpt lat="36.86755425296723842620849609375" lon="-118.50883592851459980010986328125">
        <ele>2214.199951171875</ele>
        <time>2021-06-28T02:31:02.000Z</time>
        <extensions>
          <ns3:TrackPointExtension>
            <ns3:atemp>30.0</ns3:atemp>
            <ns3:hr>74</ns3:hr>
          </ns3:TrackPointExtension>
        </extensions>
      </trkpt>
      <trkpt lat="36.86755442060530185699462890625" lon="-118.5088477469980716705322265625">
        <ele>2214</ele>
        <time>2021-06-28T02:31:03.000Z</time>
        <extensions>
          <ns3:TrackPointExtension>
            <ns3:atemp>30.0</ns3:atemp>
            <ns3:hr>75</ns3:hr>
          </ns3:TrackPointExtension>
        </extensions>
      </trkpt>
      <trkpt lat="36.8675669096410274505615234375" lon="-118.50888236425817012786865234375">
        <ele>2213</ele>
        <time>2021-06-28T02:31:06.000Z</time>
        <extensions>
          <ns3:TrackPointExtension>
            <ns3:atemp>30.0</ns3:atemp>
            <ns3:hr>75</ns3:hr>
          </ns3:TrackPointExtension>
        </extensions>
      </trkpt>
      <trkpt lat="36.8675762973725795745849609375" lon="-118.5089080967009067535400390625">
        <ele>2212.199951171875</ele>
        <time>2021-06-28T02:31:09.000Z</time>
        <extensions>
          <ns3:TrackPointExtension>
            <ns3:atemp>30.0</ns3:atemp>
            <ns3:hr>77</ns3:hr>
          </ns3:TrackPointExtension>
        </extensions>
      </trkpt>
      <trkpt lat="36.86757420189678668975830078125" lon="-118.508920334279537200927734375">
        <ele>2211.800048828125</ele>
        <time>2021-06-28T02:31:10.000Z</time>
        <extensions>
          <ns3:TrackPointExtension>
            <ns3:atemp>30.0</ns3:atemp>
            <ns3:hr>75</ns3:hr>
          </ns3:TrackPointExtension>
        </extensions>
      </trkpt>
      <trkpt lat="36.86757302843034267425537109375" lon="-118.50893433205783367156982421875">
        <ele>2211.60009765625</ele>
        <time>2021-06-28T02:31:11.000Z</time>
        <extensions>
          <ns3:TrackPointExtension>
            <ns3:atemp>30.0</ns3:atemp>
            <ns3:hr>72</ns3:hr>
          </ns3:TrackPointExtension>
        </extensions>
      </trkpt>
      <trkpt lat="36.86757822521030902862548828125" lon="-118.50895344279706478118896484375">
        <ele>2211.39990234375</ele>
        <time>2021-06-28T02:31:12.000Z</time>
        <extensions>
          <ns3:TrackPointExtension>
            <ns3:atemp>30.0</ns3:atemp>
            <ns3:hr>75</ns3:hr>
          </ns3:TrackPointExtension>
        </extensions>
      </trkpt>
      <trkpt lat="36.867591552436351776123046875" lon="-118.50896635092794895172119140625">
        <ele>2211.39990234375</ele>
        <time>2021-06-28T02:31:13.000Z</time>
        <extensions>
          <ns3:TrackPointExtension>
            <ns3:atemp>30.0</ns3:atemp>
            <ns3:hr>74</ns3:hr>
          </ns3:TrackPointExtension>
        </extensions>
      </trkpt>
      <trkpt lat="36.8676172010600566864013671875" lon="-118.50898747332394123077392578125">
        <ele>2210.800048828125</ele>
        <time>2021-06-28T02:31:16.000Z</time>
        <extensions>
          <ns3:TrackPointExtension>
            <ns3:atemp>30.0</ns3:atemp>
            <ns3:hr>73</ns3:hr>
          </ns3:TrackPointExtension>
        </extensions>
      </trkpt>
      <trkpt lat="36.86764419078826904296875" lon="-118.50900289602577686309814453125">
        <ele>2210</ele>
        <time>2021-06-28T02:31:19.000Z</time>
        <extensions>
          <ns3:TrackPointExtension>
            <ns3:atemp>30.0</ns3:atemp>
            <ns3:hr>72</ns3:hr>
          </ns3:TrackPointExtension>
        </extensions>
      </trkpt>
      <trkpt lat="36.86765827238559722900390625" lon="-118.50900339893996715545654296875">
        <ele>2209.60009765625</ele>
        <time>2021-06-28T02:31:20.000Z</time>
        <extensions>
          <ns3:TrackPointExtension>
            <ns3:atemp>30.0</ns3:atemp>
            <ns3:hr>71</ns3:hr>
          </ns3:TrackPointExtension>
        </extensions>
      </trkpt>
      <trkpt lat="36.8676745332777500152587890625" lon="-118.50901798345148563385009765625">
        <ele>2209.60009765625</ele>
        <time>2021-06-28T02:31:22.000Z</time>
        <extensions>
          <ns3:TrackPointExtension>
            <ns3:atemp>30.0</ns3:atemp>
            <ns3:hr>71</ns3:hr>
          </ns3:TrackPointExtension>
        </extensions>
      </trkpt>
      <trkpt lat="36.8676483817398548126220703125" lon="-118.5090519301593303680419921875">
        <ele>2208.60009765625</ele>
        <time>2021-06-28T02:31:28.000Z</time>
        <extensions>
          <ns3:TrackPointExtension>
            <ns3:atemp>30.0</ns3:atemp>
            <ns3:hr>71</ns3:hr>
          </ns3:TrackPointExtension>
        </extensions>
      </trkpt>
      <trkpt lat="36.86764419078826904296875" lon="-118.5090599767863750457763671875">
        <ele>2207.800048828125</ele>
        <time>2021-06-28T02:31:30.000Z</time>
        <extensions>
          <ns3:TrackPointExtension>
            <ns3:atemp>30.0</ns3:atemp>
            <ns3:hr>73</ns3:hr>
          </ns3:TrackPointExtension>
        </extensions>
      </trkpt>
      <trkpt lat="36.86762667261064052581787109375" lon="-118.5090784169733524322509765625">
        <ele>2206.800048828125</ele>
        <time>2021-06-28T02:31:33.000Z</time>
        <extensions>
          <ns3:TrackPointExtension>
            <ns3:atemp>30.0</ns3:atemp>
            <ns3:hr>72</ns3:hr>
          </ns3:TrackPointExtension>
        </extensions>
      </trkpt>
      <trkpt lat="36.86761929653584957122802734375" lon="-118.5090743936598300933837890625">
        <ele>2206.199951171875</ele>
        <time>2021-06-28T02:31:36.000Z</time>
        <extensions>
          <ns3:TrackPointExtension>
            <ns3:atemp>30.0</ns3:atemp>
            <ns3:hr>73</ns3:hr>
          </ns3:TrackPointExtension>
        </extensions>
      </trkpt>
      <trkpt lat="36.8676007725298404693603515625" lon="-118.509089648723602294921875">
        <ele>2205.800048828125</ele>
        <time>2021-06-28T02:31:40.000Z</time>
        <extensions>
          <ns3:TrackPointExtension>
            <ns3:atemp>30.0</ns3:atemp>
            <ns3:hr>71</ns3:hr>
          </ns3:TrackPointExtension>
        </extensions>
      </trkpt>
      <trkpt lat="36.86759079806506633758544921875" lon="-118.50909057073295116424560546875">
        <ele>2205.39990234375</ele>
        <time>2021-06-28T02:31:41.000Z</time>
        <extensions>
          <ns3:TrackPointExtension>
            <ns3:atemp>30.0</ns3:atemp>
            <ns3:hr>70</ns3:hr>
          </ns3:TrackPointExtension>
        </extensions>
      </trkpt>
      <trkpt lat="36.86757353134453296661376953125" lon="-118.50909710861742496490478515625">
        <ele>2205.199951171875</ele>
        <time>2021-06-28T02:31:43.000Z</time>
        <extensions>
          <ns3:TrackPointExtension>
            <ns3:atemp>30.0</ns3:atemp>
            <ns3:hr>70</ns3:hr>
          </ns3:TrackPointExtension>
        </extensions>
      </trkpt>
      <trkpt lat="36.86756464652717113494873046875" lon="-118.50909593515098094940185546875">
        <ele>2204.800048828125</ele>
        <time>2021-06-28T02:31:44.000Z</time>
        <extensions>
          <ns3:TrackPointExtension>
            <ns3:atemp>30.0</ns3:atemp>
            <ns3:hr>71</ns3:hr>
          </ns3:TrackPointExtension>
        </extensions>
      </trkpt>
      <trkpt lat="36.86755098402500152587890625" lon="-118.50910213775932788848876953125">
        <ele>2203.800048828125</ele>
        <time>2021-06-28T02:31:48.000Z</time>
        <extensions>
          <ns3:TrackPointExtension>
            <ns3:atemp>30.0</ns3:atemp>
            <ns3:hr>74</ns3:hr>
          </ns3:TrackPointExtension>
        </extensions>
      </trkpt>
      <trkpt lat="36.8675347231328487396240234375" lon="-118.50911135785281658172607421875">
        <ele>2203.39990234375</ele>
        <time>2021-06-28T02:31:50.000Z</time>
        <extensions>
          <ns3:TrackPointExtension>
            <ns3:atemp>30.0</ns3:atemp>
            <ns3:hr>75</ns3:hr>
          </ns3:TrackPointExtension>
        </extensions>
      </trkpt>
      <trkpt lat="36.86750882305204868316650390625" lon="-118.50910699926316738128662109375">
        <ele>2203.199951171875</ele>
        <time>2021-06-28T02:31:52.000Z</time>
        <extensions>
          <ns3:TrackPointExtension>
            <ns3:atemp>30.0</ns3:atemp>
            <ns3:hr>79</ns3:hr>
          </ns3:TrackPointExtension>
        </extensions>
      </trkpt>
      <trkpt lat="36.867489628493785858154296875" lon="-118.50911286659538745880126953125">
        <ele>2202.800048828125</ele>
        <time>2021-06-28T02:31:54.000Z</time>
        <extensions>
          <ns3:TrackPointExtension>
            <ns3:atemp>30.0</ns3:atemp>
            <ns3:hr>82</ns3:hr>
          </ns3:TrackPointExtension>
        </extensions>
      </trkpt>
      <trkpt lat="36.8674872815608978271484375" lon="-118.50912787020206451416015625">
        <ele>2202.60009765625</ele>
        <time>2021-06-28T02:31:56.000Z</time>
        <extensions>
          <ns3:TrackPointExtension>
            <ns3:atemp>30.0</ns3:atemp>
            <ns3:hr>82</ns3:hr>
          </ns3:TrackPointExtension>
        </extensions>
      </trkpt>
      <trkpt lat="36.86747412197291851043701171875" lon="-118.50913591682910919189453125">
        <ele>2202.199951171875</ele>
        <time>2021-06-28T02:31:58.000Z</time>
        <extensions>
          <ns3:TrackPointExtension>
            <ns3:atemp>30.0</ns3:atemp>
            <ns3:hr>83</ns3:hr>
          </ns3:TrackPointExtension>
        </extensions>
      </trkpt>
      <trkpt lat="36.86746389605104923248291015625" lon="-118.50913725793361663818359375">
        <ele>2202</ele>
        <time>2021-06-28T02:31:59.000Z</time>
        <extensions>
          <ns3:TrackPointExtension>
            <ns3:atemp>30.0</ns3:atemp>
            <ns3:hr>83</ns3:hr>
          </ns3:TrackPointExtension>
        </extensions>
      </trkpt>
      <trkpt lat="36.86743992380797863006591796875" lon="-118.50915276445448398590087890625">
        <ele>2201.60009765625</ele>
        <time>2021-06-28T02:32:02.000Z</time>
        <extensions>
          <ns3:TrackPointExtension>
            <ns3:atemp>30.0</ns3:atemp>
            <ns3:hr>84</ns3:hr>
          </ns3:TrackPointExtension>
        </extensions>
      </trkpt>
      <trkpt lat="36.8674282729625701904296875" lon="-118.50915393792092800140380859375">
        <ele>2201.199951171875</ele>
        <time>2021-06-28T02:32:03.000Z</time>
        <extensions>
          <ns3:TrackPointExtension>
            <ns3:atemp>30.0</ns3:atemp>
            <ns3:hr>84</ns3:hr>
          </ns3:TrackPointExtension>
        </extensions>
      </trkpt>
      <trkpt lat="36.86740740202367305755615234375" lon="-118.50917153991758823394775390625">
        <ele>2201</ele>
        <time>2021-06-28T02:32:05.000Z</time>
        <extensions>
          <ns3:TrackPointExtension>
            <ns3:atemp>30.0</ns3:atemp>
            <ns3:hr>80</ns3:hr>
          </ns3:TrackPointExtension>
        </extensions>
      </trkpt>
      <trkpt lat="36.8673285283148288726806640625" lon="-118.509169109165668487548828125">
        <ele>2200</ele>
        <time>2021-06-28T02:32:10.000Z</time>
        <extensions>
          <ns3:TrackPointExtension>
            <ns3:atemp>30.0</ns3:atemp>
            <ns3:hr>84</ns3:hr>
          </ns3:TrackPointExtension>
        </extensions>
      </trkpt>
      <trkpt lat="36.86728544533252716064453125" lon="-118.50915829651057720184326171875">
        <ele>2199.800048828125</ele>
        <time>2021-06-28T02:32:12.000Z</time>
        <extensions>
          <ns3:TrackPointExtension>
            <ns3:atemp>30.0</ns3:atemp>
            <ns3:hr>83</ns3:hr>
          </ns3:TrackPointExtension>
        </extensions>
      </trkpt>
      <trkpt lat="36.86720020137727260589599609375" lon="-118.509161062538623809814453125">
        <ele>2199</ele>
        <time>2021-06-28T02:32:18.000Z</time>
        <extensions>
          <ns3:TrackPointExtension>
            <ns3:atemp>30.0</ns3:atemp>
            <ns3:hr>84</ns3:hr>
          </ns3:TrackPointExtension>
        </extensions>
      </trkpt>
      <trkpt lat="36.8672001175582408905029296875" lon="-118.50916852243244647979736328125">
        <ele>2198.800048828125</ele>
        <time>2021-06-28T02:32:19.000Z</time>
        <extensions>
          <ns3:TrackPointExtension>
            <ns3:atemp>30.0</ns3:atemp>
            <ns3:hr>84</ns3:hr>
          </ns3:TrackPointExtension>
        </extensions>
      </trkpt>
      <trkpt lat="36.86717212200164794921875" lon="-118.509185202419757843017578125">
        <ele>2198.199951171875</ele>
        <time>2021-06-28T02:32:24.000Z</time>
        <extensions>
          <ns3:TrackPointExtension>
            <ns3:atemp>30.0</ns3:atemp>
            <ns3:hr>84</ns3:hr>
          </ns3:TrackPointExtension>
        </extensions>
      </trkpt>
      <trkpt lat="36.86716600321233272552490234375" lon="-118.50918813608586788177490234375">
        <ele>2198.199951171875</ele>
        <time>2021-06-28T02:32:25.000Z</time>
        <extensions>
          <ns3:TrackPointExtension>
            <ns3:atemp>30.0</ns3:atemp>
            <ns3:hr>83</ns3:hr>
          </ns3:TrackPointExtension>
        </extensions>
      </trkpt>
      <trkpt lat="36.86715192161500453948974609375" lon="-118.50919685326516628265380859375">
        <ele>2198</ele>
        <time>2021-06-28T02:32:27.000Z</time>
        <extensions>
          <ns3:TrackPointExtension>
            <ns3:atemp>30.0</ns3:atemp>
            <ns3:hr>82</ns3:hr>
          </ns3:TrackPointExtension>
        </extensions>
      </trkpt>
      <trkpt lat="36.8671431206166744232177734375" lon="-118.50920028984546661376953125">
        <ele>2197.800048828125</ele>
        <time>2021-06-28T02:32:28.000Z</time>
        <extensions>
          <ns3:TrackPointExtension>
            <ns3:atemp>30.0</ns3:atemp>
            <ns3:hr>82</ns3:hr>
          </ns3:TrackPointExtension>
        </extensions>
      </trkpt>
      <trkpt lat="36.8671131134033203125" lon="-118.5092118568718433380126953125">
        <ele>2196.39990234375</ele>
        <time>2021-06-28T02:32:31.000Z</time>
        <extensions>
          <ns3:TrackPointExtension>
            <ns3:atemp>30.0</ns3:atemp>
            <ns3:hr>82</ns3:hr>
          </ns3:TrackPointExtension>
        </extensions>
      </trkpt>
      <trkpt lat="36.86710037291049957275390625" lon="-118.50921495817601680755615234375">
        <ele>2196.39990234375</ele>
        <time>2021-06-28T02:32:32.000Z</time>
        <extensions>
          <ns3:TrackPointExtension>
            <ns3:atemp>30.0</ns3:atemp>
            <ns3:hr>82</ns3:hr>
          </ns3:TrackPointExtension>
        </extensions>
      </trkpt>
      <trkpt lat="36.8670629896223545074462890625" lon="-118.509248904883861541748046875">
        <ele>2195.60009765625</ele>
        <time>2021-06-28T02:32:37.000Z</time>
        <extensions>
          <ns3:TrackPointExtension>
            <ns3:atemp>30.0</ns3:atemp>
            <ns3:hr>82</ns3:hr>
          </ns3:TrackPointExtension>
        </extensions>
      </trkpt>
      <trkpt lat="36.86705267988145351409912109375" lon="-118.50925703532993793487548828125">
        <ele>2195.199951171875</ele>
        <time>2021-06-28T02:32:38.000Z</time>
        <extensions>
          <ns3:TrackPointExtension>
            <ns3:atemp>30.0</ns3:atemp>
            <ns3:hr>82</ns3:hr>
          </ns3:TrackPointExtension>
        </extensions>
      </trkpt>
      <trkpt lat="36.86703776009380817413330078125" lon="-118.5092631541192531585693359375">
        <ele>2195</ele>
        <time>2021-06-28T02:32:39.000Z</time>
        <extensions>
          <ns3:TrackPointExtension>
            <ns3:atemp>30.0</ns3:atemp>
            <ns3:hr>83</ns3:hr>
          </ns3:TrackPointExtension>
        </extensions>
      </trkpt>
      <trkpt lat="36.867047734558582305908203125" lon="-118.5093389265239238739013671875">
        <ele>2194</ele>
        <time>2021-06-28T02:32:44.000Z</time>
        <extensions>
          <ns3:TrackPointExtension>
            <ns3:atemp>30.0</ns3:atemp>
            <ns3:hr>84</ns3:hr>
          </ns3:TrackPointExtension>
        </extensions>
      </trkpt>
      <trkpt lat="36.86706055887043476104736328125" lon="-118.50936734117567539215087890625">
        <ele>2194</ele>
        <time>2021-06-28T02:32:46.000Z</time>
        <extensions>
          <ns3:TrackPointExtension>
            <ns3:atemp>30.0</ns3:atemp>
            <ns3:hr>83</ns3:hr>
          </ns3:TrackPointExtension>
        </extensions>
      </trkpt>
      <trkpt lat="36.86706894077360630035400390625" lon="-118.50937773473560810089111328125">
        <ele>2193.800048828125</ele>
        <time>2021-06-28T02:32:47.000Z</time>
        <extensions>
          <ns3:TrackPointExtension>
            <ns3:atemp>30.0</ns3:atemp>
            <ns3:hr>85</ns3:hr>
          </ns3:TrackPointExtension>
        </extensions>
      </trkpt>
      <trkpt lat="36.86709475703537464141845703125" lon="-118.50943305529654026031494140625">
        <ele>2193</ele>
        <time>2021-06-28T02:32:51.000Z</time>
        <extensions>
          <ns3:TrackPointExtension>
            <ns3:atemp>30.0</ns3:atemp>
            <ns3:hr>81</ns3:hr>
          </ns3:TrackPointExtension>
        </extensions>
      </trkpt>
      <trkpt lat="36.8670995347201824188232421875" lon="-118.50943791680037975311279296875">
        <ele>2193</ele>
        <time>2021-06-28T02:32:52.000Z</time>
        <extensions>
          <ns3:TrackPointExtension>
            <ns3:atemp>30.0</ns3:atemp>
            <ns3:hr>81</ns3:hr>
          </ns3:TrackPointExtension>
        </extensions>
      </trkpt>
      <trkpt lat="36.8671686016023159027099609375" lon="-118.5095347277820110321044921875">
        <ele>2191.800048828125</ele>
        <time>2021-06-28T02:32:58.000Z</time>
        <extensions>
          <ns3:TrackPointExtension>
            <ns3:atemp>30.0</ns3:atemp>
            <ns3:hr>80</ns3:hr>
          </ns3:TrackPointExtension>
        </extensions>
      </trkpt>
      <trkpt lat="36.8671796657145023345947265625" lon="-118.5096034593880176544189453125">
        <ele>2191.60009765625</ele>
        <time>2021-06-28T02:33:02.000Z</time>
        <extensions>
          <ns3:TrackPointExtension>
            <ns3:atemp>30.0</ns3:atemp>
            <ns3:hr>77</ns3:hr>
          </ns3:TrackPointExtension>
        </extensions>
      </trkpt>
      <trkpt lat="36.86721880920231342315673828125" lon="-118.50963271223008632659912109375">
        <ele>2191</ele>
        <time>2021-06-28T02:33:07.000Z</time>
        <extensions>
          <ns3:TrackPointExtension>
            <ns3:atemp>30.0</ns3:atemp>
            <ns3:hr>80</ns3:hr>
          </ns3:TrackPointExtension>
        </extensions>
      </trkpt>
      <trkpt lat="36.86723657883703708648681640625" lon="-118.509629108011722564697265625">
        <ele>2191</ele>
        <time>2021-06-28T02:33:08.000Z</time>
        <extensions>
          <ns3:TrackPointExtension>
            <ns3:atemp>30.0</ns3:atemp>
            <ns3:hr>78</ns3:hr>
          </ns3:TrackPointExtension>
        </extensions>
      </trkpt>
      <trkpt lat="36.86729005537927150726318359375" lon="-118.509626425802707672119140625">
        <ele>2190.800048828125</ele>
        <time>2021-06-28T02:33:12.000Z</time>
        <extensions>
          <ns3:TrackPointExtension>
            <ns3:atemp>30.0</ns3:atemp>
            <ns3:hr>78</ns3:hr>
          </ns3:TrackPointExtension>
        </extensions>
      </trkpt>
      <trkpt lat="36.86732375063002109527587890625" lon="-118.509637825191020965576171875">
        <ele>2190.199951171875</ele>
        <time>2021-06-28T02:33:14.000Z</time>
        <extensions>
          <ns3:TrackPointExtension>
            <ns3:atemp>30.0</ns3:atemp>
            <ns3:hr>77</ns3:hr>
          </ns3:TrackPointExtension>
        </extensions>
      </trkpt>
      <trkpt lat="36.86736431904137134552001953125" lon="-118.50965316407382488250732421875">
        <ele>2190.199951171875</ele>
        <time>2021-06-28T02:33:17.000Z</time>
        <extensions>
          <ns3:TrackPointExtension>
            <ns3:atemp>30.0</ns3:atemp>
            <ns3:hr>77</ns3:hr>
          </ns3:TrackPointExtension>
        </extensions>
      </trkpt>
      <trkpt lat="36.86739633791148662567138671875" lon="-118.50966808386147022247314453125">
        <ele>2189.800048828125</ele>
        <time>2021-06-28T02:33:19.000Z</time>
        <extensions>
          <ns3:TrackPointExtension>
            <ns3:atemp>30.0</ns3:atemp>
            <ns3:hr>73</ns3:hr>
          </ns3:TrackPointExtension>
        </extensions>
      </trkpt>
      <trkpt lat="36.867415197193622589111328125" lon="-118.50967730395495891571044921875">
        <ele>2189.60009765625</ele>
        <time>2021-06-28T02:33:21.000Z</time>
        <extensions>
          <ns3:TrackPointExtension>
            <ns3:atemp>30.0</ns3:atemp>
            <ns3:hr>76</ns3:hr>
          </ns3:TrackPointExtension>
        </extensions>
      </trkpt>
      <trkpt lat="36.86744864098727703094482421875" lon="-118.50968618877232074737548828125">
        <ele>2189.199951171875</ele>
        <time>2021-06-28T02:33:24.000Z</time>
        <extensions>
          <ns3:TrackPointExtension>
            <ns3:atemp>30.0</ns3:atemp>
            <ns3:hr>73</ns3:hr>
          </ns3:TrackPointExtension>
        </extensions>
      </trkpt>
      <trkpt lat="36.86747110448777675628662109375" lon="-118.509694151580333709716796875">
        <ele>2189</ele>
        <time>2021-06-28T02:33:27.000Z</time>
        <extensions>
          <ns3:TrackPointExtension>
            <ns3:atemp>30.0</ns3:atemp>
            <ns3:hr>74</ns3:hr>
          </ns3:TrackPointExtension>
        </extensions>
      </trkpt>
      <trkpt lat="36.86749725602567195892333984375" lon="-118.50970261730253696441650390625">
        <ele>2188.800048828125</ele>
        <time>2021-06-28T02:33:30.000Z</time>
        <extensions>
          <ns3:TrackPointExtension>
            <ns3:atemp>30.0</ns3:atemp>
            <ns3:hr>77</ns3:hr>
          </ns3:TrackPointExtension>
        </extensions>
      </trkpt>
      <trkpt lat="36.86752357520163059234619140625" lon="-118.50972223095595836639404296875">
        <ele>2188.60009765625</ele>
        <time>2021-06-28T02:33:33.000Z</time>
        <extensions>
          <ns3:TrackPointExtension>
            <ns3:atemp>30.0</ns3:atemp>
            <ns3:hr>78</ns3:hr>
          </ns3:TrackPointExtension>
        </extensions>
      </trkpt>
      <trkpt lat="36.8675454519689083099365234375" lon="-118.509730361402034759521484375">
        <ele>2187.800048828125</ele>
        <time>2021-06-28T02:33:35.000Z</time>
        <extensions>
          <ns3:TrackPointExtension>
            <ns3:atemp>30.0</ns3:atemp>
            <ns3:hr>81</ns3:hr>
          </ns3:TrackPointExtension>
        </extensions>
      </trkpt>
      <trkpt lat="36.8675568513572216033935546875" lon="-118.50973681546747684478759765625">
        <ele>2187.39990234375</ele>
        <time>2021-06-28T02:33:36.000Z</time>
        <extensions>
          <ns3:TrackPointExtension>
            <ns3:atemp>30.0</ns3:atemp>
            <ns3:hr>79</ns3:hr>
          </ns3:TrackPointExtension>
        </extensions>
      </trkpt>
      <trkpt lat="36.8675699271261692047119140625" lon="-118.5097503103315830230712890625">
        <ele>2187.39990234375</ele>
        <time>2021-06-28T02:33:37.000Z</time>
        <extensions>
          <ns3:TrackPointExtension>
            <ns3:atemp>30.0</ns3:atemp>
            <ns3:hr>79</ns3:hr>
          </ns3:TrackPointExtension>
        </extensions>
      </trkpt>
      <trkpt lat="36.867578811943531036376953125" lon="-118.509785346686840057373046875">
        <ele>2186.800048828125</ele>
        <time>2021-06-28T02:33:41.000Z</time>
        <extensions>
          <ns3:TrackPointExtension>
            <ns3:atemp>30.0</ns3:atemp>
            <ns3:hr>80</ns3:hr>
          </ns3:TrackPointExtension>
        </extensions>
      </trkpt>
      <trkpt lat="36.867567412555217742919921875" lon="-118.50978928618133068084716796875">
        <ele>2186.60009765625</ele>
        <time>2021-06-28T02:33:43.000Z</time>
        <extensions>
          <ns3:TrackPointExtension>
            <ns3:atemp>30.0</ns3:atemp>
            <ns3:hr>80</ns3:hr>
          </ns3:TrackPointExtension>
        </extensions>
      </trkpt>
      <trkpt lat="36.8675625510513782501220703125" lon="-118.50979884155094623565673828125">
        <ele>2185.800048828125</ele>
        <time>2021-06-28T02:33:44.000Z</time>
        <extensions>
          <ns3:TrackPointExtension>
            <ns3:atemp>30.0</ns3:atemp>
            <ns3:hr>81</ns3:hr>
          </ns3:TrackPointExtension>
        </extensions>
      </trkpt>
      <trkpt lat="36.86755425296723842620849609375" lon="-118.509806804358959197998046875">
        <ele>2185.60009765625</ele>
        <time>2021-06-28T02:33:45.000Z</time>
        <extensions>
          <ns3:TrackPointExtension>
            <ns3:atemp>30.0</ns3:atemp>
            <ns3:hr>81</ns3:hr>
          </ns3:TrackPointExtension>
        </extensions>
      </trkpt>
      <trkpt lat="36.86753614805638790130615234375" lon="-118.50983605720102787017822265625">
        <ele>2185.199951171875</ele>
        <time>2021-06-28T02:33:48.000Z</time>
        <extensions>
          <ns3:TrackPointExtension>
            <ns3:atemp>30.0</ns3:atemp>
            <ns3:hr>83</ns3:hr>
          </ns3:TrackPointExtension>
        </extensions>
      </trkpt>
      <trkpt lat="36.8675330467522144317626953125" lon="-118.509849049150943756103515625">
        <ele>2185.199951171875</ele>
        <time>2021-06-28T02:33:49.000Z</time>
        <extensions>
          <ns3:TrackPointExtension>
            <ns3:atemp>30.0</ns3:atemp>
            <ns3:hr>83</ns3:hr>
          </ns3:TrackPointExtension>
        </extensions>
      </trkpt>
      <trkpt lat="36.86753195710480213165283203125" lon="-118.50987888872623443603515625">
        <ele>2184.800048828125</ele>
        <time>2021-06-28T02:33:51.000Z</time>
        <extensions>
          <ns3:TrackPointExtension>
            <ns3:atemp>30.0</ns3:atemp>
            <ns3:hr>84</ns3:hr>
          </ns3:TrackPointExtension>
        </extensions>
      </trkpt>
      <trkpt lat="36.86754369176924228668212890625" lon="-118.5099340416491031646728515625">
        <ele>2184</ele>
        <time>2021-06-28T02:33:55.000Z</time>
        <extensions>
          <ns3:TrackPointExtension>
            <ns3:atemp>30.0</ns3:atemp>
            <ns3:hr>84</ns3:hr>
          </ns3:TrackPointExtension>
        </extensions>
      </trkpt>
      <trkpt lat="36.8675467930734157562255859375" lon="-118.50994669832289218902587890625">
        <ele>2183.800048828125</ele>
        <time>2021-06-28T02:33:56.000Z</time>
        <extensions>
          <ns3:TrackPointExtension>
            <ns3:atemp>30.0</ns3:atemp>
            <ns3:hr>84</ns3:hr>
          </ns3:TrackPointExtension>
        </extensions>
      </trkpt>
      <trkpt lat="36.867551989853382110595703125" lon="-118.5100064612925052642822265625">
        <ele>2183.60009765625</ele>
        <time>2021-06-28T02:34:00.000Z</time>
        <extensions>
          <ns3:TrackPointExtension>
            <ns3:atemp>30.0</ns3:atemp>
            <ns3:hr>84</ns3:hr>
          </ns3:TrackPointExtension>
        </extensions>
      </trkpt>
      <trkpt lat="36.8675431050360202789306640625" lon="-118.5100617818534374237060546875">
        <ele>2183.60009765625</ele>
        <time>2021-06-28T02:34:03.000Z</time>
        <extensions>
          <ns3:TrackPointExtension>
            <ns3:atemp>30.0</ns3:atemp>
            <ns3:hr>83</ns3:hr>
          </ns3:TrackPointExtension>
        </extensions>
      </trkpt>
      <trkpt lat="36.86753623187541961669921875" lon="-118.51007058285176753997802734375">
        <ele>2183.60009765625</ele>
        <time>2021-06-28T02:34:04.000Z</time>
        <extensions>
          <ns3:TrackPointExtension>
            <ns3:atemp>30.0</ns3:atemp>
            <ns3:hr>83</ns3:hr>
          </ns3:TrackPointExtension>
        </extensions>
      </trkpt>
      <trkpt lat="36.8675159476697444915771484375" lon="-118.510077707469463348388671875">
        <ele>2183.60009765625</ele>
        <time>2021-06-28T02:34:06.000Z</time>
        <extensions>
          <ns3:TrackPointExtension>
            <ns3:atemp>30.0</ns3:atemp>
            <ns3:hr>82</ns3:hr>
          </ns3:TrackPointExtension>
        </extensions>
      </trkpt>
      <trkpt lat="36.8675095774233341217041015625" lon="-118.5100860893726348876953125">
        <ele>2183.199951171875</ele>
        <time>2021-06-28T02:34:09.000Z</time>
        <extensions>
          <ns3:TrackPointExtension>
            <ns3:atemp>30.0</ns3:atemp>
            <ns3:hr>84</ns3:hr>
          </ns3:TrackPointExtension>
        </extensions>
      </trkpt>
      <trkpt lat="36.86751921661198139190673828125" lon="-118.51011953316628932952880859375">
        <ele>2183.199951171875</ele>
        <time>2021-06-28T02:34:11.000Z</time>
        <extensions>
          <ns3:TrackPointExtension>
            <ns3:atemp>30.0</ns3:atemp>
            <ns3:hr>82</ns3:hr>
          </ns3:TrackPointExtension>
        </extensions>
      </trkpt>
      <trkpt lat="36.86752843670547008514404296875" lon="-118.51013998501002788543701171875">
        <ele>2183.199951171875</ele>
        <time>2021-06-28T02:34:13.000Z</time>
        <extensions>
          <ns3:TrackPointExtension>
            <ns3:atemp>30.0</ns3:atemp>
            <ns3:hr>83</ns3:hr>
          </ns3:TrackPointExtension>
        </extensions>
      </trkpt>
      <trkpt lat="36.86750982888042926788330078125" lon="-118.51019396446645259857177734375">
        <ele>2183</ele>
        <time>2021-06-28T02:34:20.000Z</time>
        <extensions>
          <ns3:TrackPointExtension>
            <ns3:atemp>30.0</ns3:atemp>
            <ns3:hr>83</ns3:hr>
          </ns3:TrackPointExtension>
        </extensions>
      </trkpt>
      <trkpt lat="36.8674944899976253509521484375" lon="-118.51020787842571735382080078125">
        <ele>2182.60009765625</ele>
        <time>2021-06-28T02:34:22.000Z</time>
        <extensions>
          <ns3:TrackPointExtension>
            <ns3:atemp>30.0</ns3:atemp>
            <ns3:hr>84</ns3:hr>
          </ns3:TrackPointExtension>
        </extensions>
      </trkpt>
      <trkpt lat="36.8674794025719165802001953125" lon="-118.51020419038832187652587890625">
        <ele>2182.39990234375</ele>
        <time>2021-06-28T02:34:23.000Z</time>
        <extensions>
          <ns3:TrackPointExtension>
            <ns3:atemp>30.0</ns3:atemp>
            <ns3:hr>84</ns3:hr>
          </ns3:TrackPointExtension>
        </extensions>
      </trkpt>
      <trkpt lat="36.86746071092784404754638671875" lon="-118.510215170681476593017578125">
        <ele>2182.39990234375</ele>
        <time>2021-06-28T02:34:26.000Z</time>
        <extensions>
          <ns3:TrackPointExtension>
            <ns3:atemp>30.0</ns3:atemp>
            <ns3:hr>82</ns3:hr>
          </ns3:TrackPointExtension>
        </extensions>
      </trkpt>
      <trkpt lat="36.86745400540530681610107421875" lon="-118.510235957801342010498046875">
        <ele>2182.39990234375</ele>
        <time>2021-06-28T02:34:28.000Z</time>
        <extensions>
          <ns3:TrackPointExtension>
            <ns3:atemp>30.0</ns3:atemp>
            <ns3:hr>84</ns3:hr>
          </ns3:TrackPointExtension>
        </extensions>
      </trkpt>
      <trkpt lat="36.86746272258460521697998046875" lon="-118.5102783702313899993896484375">
        <ele>2182.199951171875</ele>
        <time>2021-06-28T02:34:31.000Z</time>
        <extensions>
          <ns3:TrackPointExtension>
            <ns3:atemp>30.0</ns3:atemp>
            <ns3:hr>84</ns3:hr>
          </ns3:TrackPointExtension>
        </extensions>
      </trkpt>
      <trkpt lat="36.8674971722066402435302734375" lon="-118.51031466387212276458740234375">
        <ele>2182.199951171875</ele>
        <time>2021-06-28T02:34:34.000Z</time>
        <extensions>
          <ns3:TrackPointExtension>
            <ns3:atemp>30.0</ns3:atemp>
            <ns3:hr>84</ns3:hr>
          </ns3:TrackPointExtension>
        </extensions>
      </trkpt>
      <trkpt lat="36.867505051195621490478515625" lon="-118.51033209823071956634521484375">
        <ele>2181.39990234375</ele>
        <time>2021-06-28T02:34:37.000Z</time>
        <extensions>
          <ns3:TrackPointExtension>
            <ns3:atemp>30.0</ns3:atemp>
            <ns3:hr>83</ns3:hr>
          </ns3:TrackPointExtension>
        </extensions>
      </trkpt>
      <trkpt lat="36.86750999651849269866943359375" lon="-118.510346598923206329345703125">
        <ele>2181.39990234375</ele>
        <time>2021-06-28T02:34:39.000Z</time>
        <extensions>
          <ns3:TrackPointExtension>
            <ns3:atemp>30.0</ns3:atemp>
            <ns3:hr>83</ns3:hr>
          </ns3:TrackPointExtension>
        </extensions>
      </trkpt>
      <trkpt lat="36.86750094406306743621826171875" lon="-118.51037518121302127838134765625">
        <ele>2180.199951171875</ele>
        <time>2021-06-28T02:34:43.000Z</time>
        <extensions>
          <ns3:TrackPointExtension>
            <ns3:atemp>30.0</ns3:atemp>
            <ns3:hr>84</ns3:hr>
          </ns3:TrackPointExtension>
        </extensions>
      </trkpt>
      <trkpt lat="36.86750270426273345947265625" lon="-118.5103846527636051177978515625">
        <ele>2180.199951171875</ele>
        <time>2021-06-28T02:34:44.000Z</time>
        <extensions>
          <ns3:TrackPointExtension>
            <ns3:atemp>30.0</ns3:atemp>
            <ns3:hr>83</ns3:hr>
          </ns3:TrackPointExtension>
        </extensions>
      </trkpt>
      <trkpt lat="36.86755844391882419586181640625" lon="-118.5104828886687755584716796875">
        <ele>2179.60009765625</ele>
        <time>2021-06-28T02:34:49.000Z</time>
        <extensions>
          <ns3:TrackPointExtension>
            <ns3:atemp>30.0</ns3:atemp>
            <ns3:hr>81</ns3:hr>
          </ns3:TrackPointExtension>
        </extensions>
      </trkpt>
      <trkpt lat="36.86756481416523456573486328125" lon="-118.51049655117094516754150390625">
        <ele>2179</ele>
        <time>2021-06-28T02:34:50.000Z</time>
        <extensions>
          <ns3:TrackPointExtension>
            <ns3:atemp>30.0</ns3:atemp>
            <ns3:hr>83</ns3:hr>
          </ns3:TrackPointExtension>
        </extensions>
      </trkpt>
      <trkpt lat="36.8676021136343479156494140625" lon="-118.510580956935882568359375">
        <ele>2178.60009765625</ele>
        <time>2021-06-28T02:34:57.000Z</time>
        <extensions>
          <ns3:TrackPointExtension>
            <ns3:atemp>30.0</ns3:atemp>
            <ns3:hr>81</ns3:hr>
          </ns3:TrackPointExtension>
        </extensions>
      </trkpt>
      <trkpt lat="36.86760286800563335418701171875" lon="-118.51059344597160816192626953125">
        <ele>2178.39990234375</ele>
        <time>2021-06-28T02:34:58.000Z</time>
        <extensions>
          <ns3:TrackPointExtension>
            <ns3:atemp>30.0</ns3:atemp>
            <ns3:hr>81</ns3:hr>
          </ns3:TrackPointExtension>
        </extensions>
      </trkpt>
      <trkpt lat="36.86759850941598415374755859375" lon="-118.51062295027077198028564453125">
        <ele>2178.199951171875</ele>
        <time>2021-06-28T02:35:01.000Z</time>
        <extensions>
          <ns3:TrackPointExtension>
            <ns3:atemp>30.0</ns3:atemp>
            <ns3:hr>79</ns3:hr>
          </ns3:TrackPointExtension>
        </extensions>
      </trkpt>
      <trkpt lat="36.8675876967608928680419921875" lon="-118.5106475092470645904541015625">
        <ele>2178</ele>
        <time>2021-06-28T02:35:03.000Z</time>
        <extensions>
          <ns3:TrackPointExtension>
            <ns3:atemp>30.0</ns3:atemp>
            <ns3:hr>77</ns3:hr>
          </ns3:TrackPointExtension>
        </extensions>
      </trkpt>
      <trkpt lat="36.86757755465805530548095703125" lon="-118.510656058788299560546875">
        <ele>2177.800048828125</ele>
        <time>2021-06-28T02:35:04.000Z</time>
        <extensions>
          <ns3:TrackPointExtension>
            <ns3:atemp>30.0</ns3:atemp>
            <ns3:hr>77</ns3:hr>
          </ns3:TrackPointExtension>
        </extensions>
      </trkpt>
      <trkpt lat="36.8675699271261692047119140625" lon="-118.510675840079784393310546875">
        <ele>2177.60009765625</ele>
        <time>2021-06-28T02:35:06.000Z</time>
        <extensions>
          <ns3:TrackPointExtension>
            <ns3:atemp>30.0</ns3:atemp>
            <ns3:hr>76</ns3:hr>
          </ns3:TrackPointExtension>
        </extensions>
      </trkpt>
      <trkpt lat="36.86759549193084239959716796875" lon="-118.5107319988310337066650390625">
        <ele>2177</ele>
        <time>2021-06-28T02:35:09.000Z</time>
        <extensions>
          <ns3:TrackPointExtension>
            <ns3:atemp>30.0</ns3:atemp>
            <ns3:hr>75</ns3:hr>
          </ns3:TrackPointExtension>
        </extensions>
      </trkpt>
      <trkpt lat="36.86761527322232723236083984375" lon="-118.5107767581939697265625">
        <ele>2176.800048828125</ele>
        <time>2021-06-28T02:35:11.000Z</time>
        <extensions>
          <ns3:TrackPointExtension>
            <ns3:atemp>30.0</ns3:atemp>
            <ns3:hr>76</ns3:hr>
          </ns3:TrackPointExtension>
        </extensions>
      </trkpt>
      <trkpt lat="36.86761535704135894775390625" lon="-118.51082227192819118499755859375">
        <ele>2176</ele>
        <time>2021-06-28T02:35:14.000Z</time>
        <extensions>
          <ns3:TrackPointExtension>
            <ns3:atemp>30.0</ns3:atemp>
            <ns3:hr>76</ns3:hr>
          </ns3:TrackPointExtension>
        </extensions>
      </trkpt>
      <trkpt lat="36.86760739423334598541259765625" lon="-118.510832078754901885986328125">
        <ele>2175.800048828125</ele>
        <time>2021-06-28T02:35:16.000Z</time>
        <extensions>
          <ns3:TrackPointExtension>
            <ns3:atemp>30.0</ns3:atemp>
            <ns3:hr>77</ns3:hr>
          </ns3:TrackPointExtension>
        </extensions>
      </trkpt>
      <trkpt lat="36.8676021136343479156494140625" lon="-118.510835431516170501708984375">
        <ele>2175.39990234375</ele>
        <time>2021-06-28T02:35:17.000Z</time>
        <extensions>
          <ns3:TrackPointExtension>
            <ns3:atemp>30.0</ns3:atemp>
            <ns3:hr>77</ns3:hr>
          </ns3:TrackPointExtension>
        </extensions>
      </trkpt>
      <trkpt lat="36.8675967492163181304931640625" lon="-118.5108453221619129180908203125">
        <ele>2175.199951171875</ele>
        <time>2021-06-28T02:35:18.000Z</time>
        <extensions>
          <ns3:TrackPointExtension>
            <ns3:atemp>30.0</ns3:atemp>
            <ns3:hr>79</ns3:hr>
          </ns3:TrackPointExtension>
        </extensions>
      </trkpt>
      <trkpt lat="36.8675784766674041748046875" lon="-118.51091832853853702545166015625">
        <ele>2174.60009765625</ele>
        <time>2021-06-28T02:35:23.000Z</time>
        <extensions>
          <ns3:TrackPointExtension>
            <ns3:atemp>30.0</ns3:atemp>
            <ns3:hr>77</ns3:hr>
          </ns3:TrackPointExtension>
        </extensions>
      </trkpt>
      <trkpt lat="36.8675739504396915435791015625" lon="-118.51097700186073780059814453125">
        <ele>2174.39990234375</ele>
        <time>2021-06-28T02:35:28.000Z</time>
        <extensions>
          <ns3:TrackPointExtension>
            <ns3:atemp>30.0</ns3:atemp>
            <ns3:hr>75</ns3:hr>
          </ns3:TrackPointExtension>
        </extensions>
      </trkpt>
      <trkpt lat="36.86756196431815624237060546875" lon="-118.510983288288116455078125">
        <ele>2174.199951171875</ele>
        <time>2021-06-28T02:35:29.000Z</time>
        <extensions>
          <ns3:TrackPointExtension>
            <ns3:atemp>30.0</ns3:atemp>
            <ns3:hr>75</ns3:hr>
          </ns3:TrackPointExtension>
        </extensions>
      </trkpt>
      <trkpt lat="36.8675301969051361083984375" lon="-118.51098923943936824798583984375">
        <ele>2174</ele>
        <time>2021-06-28T02:35:31.000Z</time>
        <extensions>
          <ns3:TrackPointExtension>
            <ns3:atemp>30.0</ns3:atemp>
            <ns3:hr>75</ns3:hr>
          </ns3:TrackPointExtension>
        </extensions>
      </trkpt>
      <trkpt lat="36.86755291186273097991943359375" lon="-118.51103031076490879058837890625">
        <ele>2173.800048828125</ele>
        <time>2021-06-28T02:35:34.000Z</time>
        <extensions>
          <ns3:TrackPointExtension>
            <ns3:atemp>30.0</ns3:atemp>
            <ns3:hr>73</ns3:hr>
          </ns3:TrackPointExtension>
        </extensions>
      </trkpt>
      <trkpt lat="36.86755324713885784149169921875" lon="-118.51104162633419036865234375">
        <ele>2173.39990234375</ele>
        <time>2021-06-28T02:35:35.000Z</time>
        <extensions>
          <ns3:TrackPointExtension>
            <ns3:atemp>30.0</ns3:atemp>
            <ns3:hr>77</ns3:hr>
          </ns3:TrackPointExtension>
        </extensions>
      </trkpt>
      <trkpt lat="36.8675570189952850341796875" lon="-118.51107389666140079498291015625">
        <ele>2173.199951171875</ele>
        <time>2021-06-28T02:35:37.000Z</time>
        <extensions>
          <ns3:TrackPointExtension>
            <ns3:atemp>30.0</ns3:atemp>
            <ns3:hr>78</ns3:hr>
          </ns3:TrackPointExtension>
        </extensions>
      </trkpt>
      <trkpt lat="36.8675659038126468658447265625" lon="-118.51109485141932964324951171875">
        <ele>2173</ele>
        <time>2021-06-28T02:35:38.000Z</time>
        <extensions>
          <ns3:TrackPointExtension>
            <ns3:atemp>30.0</ns3:atemp>
            <ns3:hr>79</ns3:hr>
          </ns3:TrackPointExtension>
        </extensions>
      </trkpt>
      <trkpt lat="36.86758560128509998321533203125" lon="-118.51112544536590576171875">
        <ele>2172.800048828125</ele>
        <time>2021-06-28T02:35:40.000Z</time>
        <extensions>
          <ns3:TrackPointExtension>
            <ns3:atemp>30.0</ns3:atemp>
            <ns3:hr>79</ns3:hr>
          </ns3:TrackPointExtension>
        </extensions>
      </trkpt>
      <trkpt lat="36.86758845113217830657958984375" lon="-118.51113810203969478607177734375">
        <ele>2172.60009765625</ele>
        <time>2021-06-28T02:35:41.000Z</time>
        <extensions>
          <ns3:TrackPointExtension>
            <ns3:atemp>30.0</ns3:atemp>
            <ns3:hr>81</ns3:hr>
          </ns3:TrackPointExtension>
        </extensions>
      </trkpt>
      <trkpt lat="36.867574788630008697509765625" lon="-118.51117900572717189788818359375">
        <ele>2171.800048828125</ele>
        <time>2021-06-28T02:35:45.000Z</time>
        <extensions>
          <ns3:TrackPointExtension>
            <ns3:atemp>30.0</ns3:atemp>
            <ns3:hr>81</ns3:hr>
          </ns3:TrackPointExtension>
        </extensions>
      </trkpt>
      <trkpt lat="36.86758124269545078277587890625" lon="-118.51119392551481723785400390625">
        <ele>2171.199951171875</ele>
        <time>2021-06-28T02:35:49.000Z</time>
        <extensions>
          <ns3:TrackPointExtension>
            <ns3:atemp>30.0</ns3:atemp>
            <ns3:hr>80</ns3:hr>
          </ns3:TrackPointExtension>
        </extensions>
      </trkpt>
      <trkpt lat="36.867557354271411895751953125" lon="-118.51120616309344768524169921875">
        <ele>2170.60009765625</ele>
        <time>2021-06-28T02:35:52.000Z</time>
        <extensions>
          <ns3:TrackPointExtension>
            <ns3:atemp>30.0</ns3:atemp>
            <ns3:hr>80</ns3:hr>
          </ns3:TrackPointExtension>
        </extensions>
      </trkpt>
      <trkpt lat="36.8675424344837665557861328125" lon="-118.5112268663942813873291015625">
        <ele>2169.800048828125</ele>
        <time>2021-06-28T02:35:55.000Z</time>
        <extensions>
          <ns3:TrackPointExtension>
            <ns3:atemp>30.0</ns3:atemp>
            <ns3:hr>80</ns3:hr>
          </ns3:TrackPointExtension>
        </extensions>
      </trkpt>
      <trkpt lat="36.86754436232149600982666015625" lon="-118.51124136708676815032958984375">
        <ele>2169.39990234375</ele>
        <time>2021-06-28T02:35:56.000Z</time>
        <extensions>
          <ns3:TrackPointExtension>
            <ns3:atemp>30.0</ns3:atemp>
            <ns3:hr>80</ns3:hr>
          </ns3:TrackPointExtension>
        </extensions>
      </trkpt>
      <trkpt lat="36.86754620634019374847412109375" lon="-118.511251173913478851318359375">
        <ele>2169.39990234375</ele>
        <time>2021-06-28T02:35:57.000Z</time>
        <extensions>
          <ns3:TrackPointExtension>
            <ns3:atemp>30.0</ns3:atemp>
            <ns3:hr>81</ns3:hr>
          </ns3:TrackPointExtension>
        </extensions>
      </trkpt>
      <trkpt lat="36.86751552857458591461181640625" lon="-118.5112850368022918701171875">
        <ele>2168.39990234375</ele>
        <time>2021-06-28T02:36:00.000Z</time>
        <extensions>
          <ns3:TrackPointExtension>
            <ns3:atemp>30.0</ns3:atemp>
            <ns3:hr>83</ns3:hr>
          </ns3:TrackPointExtension>
        </extensions>
      </trkpt>
      <trkpt lat="36.8674819171428680419921875" lon="-118.511306159198284149169921875">
        <ele>2168</ele>
        <time>2021-06-28T02:36:03.000Z</time>
        <extensions>
          <ns3:TrackPointExtension>
            <ns3:atemp>30.0</ns3:atemp>
            <ns3:hr>84</ns3:hr>
          </ns3:TrackPointExtension>
        </extensions>
      </trkpt>
      <trkpt lat="36.8674428574740886688232421875" lon="-118.5113717056810855865478515625">
        <ele>2167.39990234375</ele>
        <time>2021-06-28T02:36:09.000Z</time>
        <extensions>
          <ns3:TrackPointExtension>
            <ns3:atemp>30.0</ns3:atemp>
            <ns3:hr>82</ns3:hr>
          </ns3:TrackPointExtension>
        </extensions>
      </trkpt>
      <trkpt lat="36.8674418516457080841064453125" lon="-118.51138637401163578033447265625">
        <ele>2167.199951171875</ele>
        <time>2021-06-28T02:36:10.000Z</time>
        <extensions>
          <ns3:TrackPointExtension>
            <ns3:atemp>30.0</ns3:atemp>
            <ns3:hr>82</ns3:hr>
          </ns3:TrackPointExtension>
        </extensions>
      </trkpt>
      <trkpt lat="36.86744176782667636871337890625" lon="-118.5114032216370105743408203125">
        <ele>2167.199951171875</ele>
        <time>2021-06-28T02:36:11.000Z</time>
        <extensions>
          <ns3:TrackPointExtension>
            <ns3:atemp>30.0</ns3:atemp>
            <ns3:hr>81</ns3:hr>
          </ns3:TrackPointExtension>
        </extensions>
      </trkpt>
      <trkpt lat="36.8674242496490478515625" lon="-118.5114602185785770416259765625">
        <ele>2167</ele>
        <time>2021-06-28T02:36:15.000Z</time>
        <extensions>
          <ns3:TrackPointExtension>
            <ns3:atemp>30.0</ns3:atemp>
            <ns3:hr>79</ns3:hr>
          </ns3:TrackPointExtension>
        </extensions>
      </trkpt>
      <trkpt lat="36.867437325417995452880859375" lon="-118.51151260547339916229248046875">
        <ele>2166.60009765625</ele>
        <time>2021-06-28T02:36:18.000Z</time>
        <extensions>
          <ns3:TrackPointExtension>
            <ns3:atemp>30.0</ns3:atemp>
            <ns3:hr>79</ns3:hr>
          </ns3:TrackPointExtension>
        </extensions>
      </trkpt>
      <trkpt lat="36.8674445338547229766845703125" lon="-118.511550910770893096923828125">
        <ele>2166</ele>
        <time>2021-06-28T02:36:22.000Z</time>
        <extensions>
          <ns3:TrackPointExtension>
            <ns3:atemp>30.0</ns3:atemp>
            <ns3:hr>80</ns3:hr>
          </ns3:TrackPointExtension>
        </extensions>
      </trkpt>
      <trkpt lat="36.867449395358562469482421875" lon="-118.511573374271392822265625">
        <ele>2166</ele>
        <time>2021-06-28T02:36:24.000Z</time>
        <extensions>
          <ns3:TrackPointExtension>
            <ns3:atemp>30.0</ns3:atemp>
            <ns3:hr>79</ns3:hr>
          </ns3:TrackPointExtension>
        </extensions>
      </trkpt>
      <trkpt lat="36.86744864098727703094482421875" lon="-118.51159340701997280120849609375">
        <ele>2165.800048828125</ele>
        <time>2021-06-28T02:36:26.000Z</time>
        <extensions>
          <ns3:TrackPointExtension>
            <ns3:atemp>30.0</ns3:atemp>
            <ns3:hr>81</ns3:hr>
          </ns3:TrackPointExtension>
        </extensions>
      </trkpt>
      <trkpt lat="36.86743422411382198333740234375" lon="-118.51164939813315868377685546875">
        <ele>2165.199951171875</ele>
        <time>2021-06-28T02:36:31.000Z</time>
        <extensions>
          <ns3:TrackPointExtension>
            <ns3:atemp>30.0</ns3:atemp>
            <ns3:hr>77</ns3:hr>
          </ns3:TrackPointExtension>
        </extensions>
      </trkpt>
      <trkpt lat="36.86742701567709445953369140625" lon="-118.51166683249175548553466796875">
        <ele>2164.60009765625</ele>
        <time>2021-06-28T02:36:32.000Z</time>
        <extensions>
          <ns3:TrackPointExtension>
            <ns3:atemp>30.0</ns3:atemp>
            <ns3:hr>77</ns3:hr>
          </ns3:TrackPointExtension>
        </extensions>
      </trkpt>
      <trkpt lat="36.86741813085973262786865234375" lon="-118.5116781480610370635986328125">
        <ele>2164.60009765625</ele>
        <time>2021-06-28T02:36:33.000Z</time>
        <extensions>
          <ns3:TrackPointExtension>
            <ns3:atemp>30.0</ns3:atemp>
            <ns3:hr>76</ns3:hr>
          </ns3:TrackPointExtension>
        </extensions>
      </trkpt>
      <trkpt lat="36.8674344755709171295166015625" lon="-118.511709161102771759033203125">
        <ele>2164</ele>
        <time>2021-06-28T02:36:36.000Z</time>
        <extensions>
          <ns3:TrackPointExtension>
            <ns3:atemp>30.0</ns3:atemp>
            <ns3:hr>79</ns3:hr>
          </ns3:TrackPointExtension>
        </extensions>
      </trkpt>
      <trkpt lat="36.86744126491248607635498046875" lon="-118.511770851910114288330078125">
        <ele>2163.800048828125</ele>
        <time>2021-06-28T02:36:40.000Z</time>
        <extensions>
          <ns3:TrackPointExtension>
            <ns3:atemp>30.0</ns3:atemp>
            <ns3:hr>78</ns3:hr>
          </ns3:TrackPointExtension>
        </extensions>
      </trkpt>
      <trkpt lat="36.86744361184537410736083984375" lon="-118.51178920827805995941162109375">
        <ele>2163.60009765625</ele>
        <time>2021-06-28T02:36:41.000Z</time>
        <extensions>
          <ns3:TrackPointExtension>
            <ns3:atemp>30.0</ns3:atemp>
            <ns3:hr>78</ns3:hr>
          </ns3:TrackPointExtension>
        </extensions>
      </trkpt>
      <trkpt lat="36.8674183823168277740478515625" lon="-118.511831201612949371337890625">
        <ele>2163.60009765625</ele>
        <time>2021-06-28T02:36:44.000Z</time>
        <extensions>
          <ns3:TrackPointExtension>
            <ns3:atemp>30.0</ns3:atemp>
            <ns3:hr>75</ns3:hr>
          </ns3:TrackPointExtension>
        </extensions>
      </trkpt>
      <trkpt lat="36.86741243116557598114013671875" lon="-118.511868752539157867431640625">
        <ele>2163.39990234375</ele>
        <time>2021-06-28T02:36:47.000Z</time>
        <extensions>
          <ns3:TrackPointExtension>
            <ns3:atemp>30.0</ns3:atemp>
            <ns3:hr>73</ns3:hr>
          </ns3:TrackPointExtension>
        </extensions>
      </trkpt>
      <trkpt lat="36.86741687357425689697265625" lon="-118.511962629854679107666015625">
        <ele>2162.800048828125</ele>
        <time>2021-06-28T02:36:54.000Z</time>
        <extensions>
          <ns3:TrackPointExtension>
            <ns3:atemp>30.0</ns3:atemp>
            <ns3:hr>71</ns3:hr>
          </ns3:TrackPointExtension>
        </extensions>
      </trkpt>
      <trkpt lat="36.8674240820109844207763671875" lon="-118.5119802318513393402099609375">
        <ele>2162.60009765625</ele>
        <time>2021-06-28T02:36:55.000Z</time>
        <extensions>
          <ns3:TrackPointExtension>
            <ns3:atemp>30.0</ns3:atemp>
            <ns3:hr>71</ns3:hr>
          </ns3:TrackPointExtension>
        </extensions>
      </trkpt>
      <trkpt lat="36.86743254773318767547607421875" lon="-118.5120375640690326690673828125">
        <ele>2161.800048828125</ele>
        <time>2021-06-28T02:36:59.000Z</time>
        <extensions>
          <ns3:TrackPointExtension>
            <ns3:atemp>30.0</ns3:atemp>
            <ns3:hr>71</ns3:hr>
          </ns3:TrackPointExtension>
        </extensions>
      </trkpt>
      <trkpt lat="36.8674274347722530364990234375" lon="-118.51205407641828060150146484375">
        <ele>2161.800048828125</ele>
        <time>2021-06-28T02:37:01.000Z</time>
        <extensions>
          <ns3:TrackPointExtension>
            <ns3:atemp>30.0</ns3:atemp>
            <ns3:hr>72</ns3:hr>
          </ns3:TrackPointExtension>
        </extensions>
      </trkpt>
      <trkpt lat="36.86742969788610935211181640625" lon="-118.51210780441761016845703125">
        <ele>2161.60009765625</ele>
        <time>2021-06-28T02:37:05.000Z</time>
        <extensions>
          <ns3:TrackPointExtension>
            <ns3:atemp>30.0</ns3:atemp>
            <ns3:hr>72</ns3:hr>
          </ns3:TrackPointExtension>
        </extensions>
      </trkpt>
      <trkpt lat="36.86742492020130157470703125" lon="-118.51213462650775909423828125">
        <ele>2161.199951171875</ele>
        <time>2021-06-28T02:37:07.000Z</time>
        <extensions>
          <ns3:TrackPointExtension>
            <ns3:atemp>30.0</ns3:atemp>
            <ns3:hr>72</ns3:hr>
          </ns3:TrackPointExtension>
        </extensions>
      </trkpt>
      <trkpt lat="36.86741310171782970428466796875" lon="-118.5121384821832180023193359375">
        <ele>2161.199951171875</ele>
        <time>2021-06-28T02:37:08.000Z</time>
        <extensions>
          <ns3:TrackPointExtension>
            <ns3:atemp>30.0</ns3:atemp>
            <ns3:hr>72</ns3:hr>
          </ns3:TrackPointExtension>
        </extensions>
      </trkpt>
      <trkpt lat="36.867382340133190155029296875" lon="-118.51215499453246593475341796875">
        <ele>2161</ele>
        <time>2021-06-28T02:37:11.000Z</time>
        <extensions>
          <ns3:TrackPointExtension>
            <ns3:atemp>30.0</ns3:atemp>
            <ns3:hr>73</ns3:hr>
          </ns3:TrackPointExtension>
        </extensions>
      </trkpt>
      <trkpt lat="36.8673815019428730010986328125" lon="-118.51216756738722324371337890625">
        <ele>2161</ele>
        <time>2021-06-28T02:37:12.000Z</time>
        <extensions>
          <ns3:TrackPointExtension>
            <ns3:atemp>30.0</ns3:atemp>
            <ns3:hr>74</ns3:hr>
          </ns3:TrackPointExtension>
        </extensions>
      </trkpt>
      <trkpt lat="36.8673855252563953399658203125" lon="-118.51218651048839092254638671875">
        <ele>2160.800048828125</ele>
        <time>2021-06-28T02:37:14.000Z</time>
        <extensions>
          <ns3:TrackPointExtension>
            <ns3:atemp>30.0</ns3:atemp>
            <ns3:hr>74</ns3:hr>
          </ns3:TrackPointExtension>
        </extensions>
      </trkpt>
      <trkpt lat="36.86739005148410797119140625" lon="-118.51221182383596897125244140625">
        <ele>2160.60009765625</ele>
        <time>2021-06-28T02:37:16.000Z</time>
        <extensions>
          <ns3:TrackPointExtension>
            <ns3:atemp>30.0</ns3:atemp>
            <ns3:hr>75</ns3:hr>
          </ns3:TrackPointExtension>
        </extensions>
      </trkpt>
      <trkpt lat="36.86738912947475910186767578125" lon="-118.51222179830074310302734375">
        <ele>2160.39990234375</ele>
        <time>2021-06-28T02:37:17.000Z</time>
        <extensions>
          <ns3:TrackPointExtension>
            <ns3:atemp>30.0</ns3:atemp>
            <ns3:hr>75</ns3:hr>
          </ns3:TrackPointExtension>
        </extensions>
      </trkpt>
      <trkpt lat="36.86739197932183742523193359375" lon="-118.51223646663129329681396484375">
        <ele>2160</ele>
        <time>2021-06-28T02:37:19.000Z</time>
        <extensions>
          <ns3:TrackPointExtension>
            <ns3:atemp>30.0</ns3:atemp>
            <ns3:hr>76</ns3:hr>
          </ns3:TrackPointExtension>
        </extensions>
      </trkpt>
      <trkpt lat="36.8673875369131565093994140625" lon="-118.51226915605366230010986328125">
        <ele>2159.60009765625</ele>
        <time>2021-06-28T02:37:23.000Z</time>
        <extensions>
          <ns3:TrackPointExtension>
            <ns3:atemp>30.0</ns3:atemp>
            <ns3:hr>77</ns3:hr>
          </ns3:TrackPointExtension>
        </extensions>
      </trkpt>
      <trkpt lat="36.86739063821732997894287109375" lon="-118.5122967325150966644287109375">
        <ele>2159.39990234375</ele>
        <time>2021-06-28T02:37:25.000Z</time>
        <extensions>
          <ns3:TrackPointExtension>
            <ns3:atemp>30.0</ns3:atemp>
            <ns3:hr>80</ns3:hr>
          </ns3:TrackPointExtension>
        </extensions>
      </trkpt>
      <trkpt lat="36.86739449389278888702392578125" lon="-118.51231634616851806640625">
        <ele>2159.39990234375</ele>
        <time>2021-06-28T02:37:26.000Z</time>
        <extensions>
          <ns3:TrackPointExtension>
            <ns3:atemp>30.0</ns3:atemp>
            <ns3:hr>80</ns3:hr>
          </ns3:TrackPointExtension>
        </extensions>
      </trkpt>
      <trkpt lat="36.86739935539662837982177734375" lon="-118.5123352892696857452392578125">
        <ele>2158.60009765625</ele>
        <time>2021-06-28T02:37:27.000Z</time>
        <extensions>
          <ns3:TrackPointExtension>
            <ns3:atemp>30.0</ns3:atemp>
            <ns3:hr>80</ns3:hr>
          </ns3:TrackPointExtension>
        </extensions>
      </trkpt>
      <trkpt lat="36.86741075478494167327880859375" lon="-118.51235079579055309295654296875">
        <ele>2158.60009765625</ele>
        <time>2021-06-28T02:37:28.000Z</time>
        <extensions>
          <ns3:TrackPointExtension>
            <ns3:atemp>30.0</ns3:atemp>
            <ns3:hr>81</ns3:hr>
          </ns3:TrackPointExtension>
        </extensions>
      </trkpt>
      <trkpt lat="36.86744629405438899993896484375" lon="-118.512401841580867767333984375">
        <ele>2158.39990234375</ele>
        <time>2021-06-28T02:37:32.000Z</time>
        <extensions>
          <ns3:TrackPointExtension>
            <ns3:atemp>30.0</ns3:atemp>
            <ns3:hr>83</ns3:hr>
          </ns3:TrackPointExtension>
        </extensions>
      </trkpt>
      <trkpt lat="36.8674656562507152557373046875" lon="-118.51243310607969760894775390625">
        <ele>2158.199951171875</ele>
        <time>2021-06-28T02:37:34.000Z</time>
        <extensions>
          <ns3:TrackPointExtension>
            <ns3:atemp>30.0</ns3:atemp>
            <ns3:hr>78</ns3:hr>
          </ns3:TrackPointExtension>
        </extensions>
      </trkpt>
      <trkpt lat="36.867476217448711395263671875" lon="-118.51244970224797725677490234375">
        <ele>2158.199951171875</ele>
        <time>2021-06-28T02:37:35.000Z</time>
        <extensions>
          <ns3:TrackPointExtension>
            <ns3:atemp>30.0</ns3:atemp>
            <ns3:hr>81</ns3:hr>
          </ns3:TrackPointExtension>
        </extensions>
      </trkpt>
      <trkpt lat="36.8674874491989612579345703125" lon="-118.51250167004764080047607421875">
        <ele>2157.800048828125</ele>
        <time>2021-06-28T02:37:39.000Z</time>
        <extensions>
          <ns3:TrackPointExtension>
            <ns3:atemp>30.0</ns3:atemp>
            <ns3:hr>81</ns3:hr>
          </ns3:TrackPointExtension>
        </extensions>
      </trkpt>
      <trkpt lat="36.8674810789525508880615234375" lon="-118.5125153325498104095458984375">
        <ele>2157.60009765625</ele>
        <time>2021-06-28T02:37:40.000Z</time>
        <extensions>
          <ns3:TrackPointExtension>
            <ns3:atemp>30.0</ns3:atemp>
            <ns3:hr>85</ns3:hr>
          </ns3:TrackPointExtension>
        </extensions>
      </trkpt>
      <trkpt lat="36.86747479252517223358154296875" lon="-118.5125210322439670562744140625">
        <ele>2157.60009765625</ele>
        <time>2021-06-28T02:37:41.000Z</time>
        <extensions>
          <ns3:TrackPointExtension>
            <ns3:atemp>30.0</ns3:atemp>
            <ns3:hr>81</ns3:hr>
          </ns3:TrackPointExtension>
        </extensions>
      </trkpt>
      <trkpt lat="36.86748920939862728118896484375" lon="-118.512560427188873291015625">
        <ele>2157.39990234375</ele>
        <time>2021-06-28T02:37:44.000Z</time>
        <extensions>
          <ns3:TrackPointExtension>
            <ns3:atemp>30.0</ns3:atemp>
            <ns3:hr>77</ns3:hr>
          </ns3:TrackPointExtension>
        </extensions>
      </trkpt>
      <trkpt lat="36.8674911372363567352294921875" lon="-118.512570820748805999755859375">
        <ele>2157</ele>
        <time>2021-06-28T02:37:45.000Z</time>
        <extensions>
          <ns3:TrackPointExtension>
            <ns3:atemp>30.0</ns3:atemp>
            <ns3:hr>77</ns3:hr>
          </ns3:TrackPointExtension>
        </extensions>
      </trkpt>
      <trkpt lat="36.86749197542667388916015625" lon="-118.51258448325097560882568359375">
        <ele>2157</ele>
        <time>2021-06-28T02:37:46.000Z</time>
        <extensions>
          <ns3:TrackPointExtension>
            <ns3:atemp>30.0</ns3:atemp>
            <ns3:hr>81</ns3:hr>
          </ns3:TrackPointExtension>
        </extensions>
      </trkpt>
      <trkpt lat="36.86749105341732501983642578125" lon="-118.5125947929918766021728515625">
        <ele>2156.800048828125</ele>
        <time>2021-06-28T02:37:47.000Z</time>
        <extensions>
          <ns3:TrackPointExtension>
            <ns3:atemp>30.0</ns3:atemp>
            <ns3:hr>76</ns3:hr>
          </ns3:TrackPointExtension>
        </extensions>
      </trkpt>
      <trkpt lat="36.86749055050313472747802734375" lon="-118.512603007256984710693359375">
        <ele>2156.800048828125</ele>
        <time>2021-06-28T02:37:48.000Z</time>
        <extensions>
          <ns3:TrackPointExtension>
            <ns3:atemp>30.0</ns3:atemp>
            <ns3:hr>78</ns3:hr>
          </ns3:TrackPointExtension>
        </extensions>
      </trkpt>
      <trkpt lat="36.8674991838634014129638671875" lon="-118.512621112167835235595703125">
        <ele>2156.800048828125</ele>
        <time>2021-06-28T02:37:50.000Z</time>
        <extensions>
          <ns3:TrackPointExtension>
            <ns3:atemp>30.0</ns3:atemp>
            <ns3:hr>79</ns3:hr>
          </ns3:TrackPointExtension>
        </extensions>
      </trkpt>
      <trkpt lat="36.8675092421472072601318359375" lon="-118.5126407258212566375732421875">
        <ele>2156.60009765625</ele>
        <time>2021-06-28T02:37:52.000Z</time>
        <extensions>
          <ns3:TrackPointExtension>
            <ns3:atemp>30.0</ns3:atemp>
            <ns3:hr>79</ns3:hr>
          </ns3:TrackPointExtension>
        </extensions>
      </trkpt>
      <trkpt lat="36.86751636676490306854248046875" lon="-118.5126502811908721923828125">
        <ele>2156.60009765625</ele>
        <time>2021-06-28T02:37:53.000Z</time>
        <extensions>
          <ns3:TrackPointExtension>
            <ns3:atemp>30.0</ns3:atemp>
            <ns3:hr>76</ns3:hr>
          </ns3:TrackPointExtension>
        </extensions>
      </trkpt>
      <trkpt lat="36.86752592213451862335205078125" lon="-118.51266243495047092437744140625">
        <ele>2156.60009765625</ele>
        <time>2021-06-28T02:37:54.000Z</time>
        <extensions>
          <ns3:TrackPointExtension>
            <ns3:atemp>30.0</ns3:atemp>
            <ns3:hr>76</ns3:hr>
          </ns3:TrackPointExtension>
        </extensions>
      </trkpt>
      <trkpt lat="36.86753530986607074737548828125" lon="-118.51268271915614604949951171875">
        <ele>2156.60009765625</ele>
        <time>2021-06-28T02:37:55.000Z</time>
        <extensions>
          <ns3:TrackPointExtension>
            <ns3:atemp>30.0</ns3:atemp>
            <ns3:hr>79</ns3:hr>
          </ns3:TrackPointExtension>
        </extensions>
      </trkpt>
      <trkpt lat="36.86754570342600345611572265625" lon="-118.51270166225731372833251953125">
        <ele>2156.39990234375</ele>
        <time>2021-06-28T02:37:56.000Z</time>
        <extensions>
          <ns3:TrackPointExtension>
            <ns3:atemp>30.0</ns3:atemp>
            <ns3:hr>78</ns3:hr>
          </ns3:TrackPointExtension>
        </extensions>
      </trkpt>
      <trkpt lat="36.8675494752824306488037109375" lon="-118.51271809078752994537353515625">
        <ele>2156.39990234375</ele>
        <time>2021-06-28T02:37:57.000Z</time>
        <extensions>
          <ns3:TrackPointExtension>
            <ns3:atemp>30.0</ns3:atemp>
            <ns3:hr>77</ns3:hr>
          </ns3:TrackPointExtension>
        </extensions>
      </trkpt>
      <trkpt lat="36.86755090020596981048583984375" lon="-118.5127315856516361236572265625">
        <ele>2156.39990234375</ele>
        <time>2021-06-28T02:37:58.000Z</time>
        <extensions>
          <ns3:TrackPointExtension>
            <ns3:atemp>30.0</ns3:atemp>
            <ns3:hr>78</ns3:hr>
          </ns3:TrackPointExtension>
        </extensions>
      </trkpt>
      <trkpt lat="36.8675625510513782501220703125" lon="-118.5127449966967105865478515625">
        <ele>2156.199951171875</ele>
        <time>2021-06-28T02:37:59.000Z</time>
        <extensions>
          <ns3:TrackPointExtension>
            <ns3:atemp>30.0</ns3:atemp>
            <ns3:hr>75</ns3:hr>
          </ns3:TrackPointExtension>
        </extensions>
      </trkpt>
      <trkpt lat="36.86757621355354785919189453125" lon="-118.51275798864662647247314453125">
        <ele>2156.199951171875</ele>
        <time>2021-06-28T02:38:00.000Z</time>
        <extensions>
          <ns3:TrackPointExtension>
            <ns3:atemp>30.0</ns3:atemp>
            <ns3:hr>72</ns3:hr>
          </ns3:TrackPointExtension>
        </extensions>
      </trkpt>
      <trkpt lat="36.86759012751281261444091796875" lon="-118.5127718187868595123291015625">
        <ele>2156</ele>
        <time>2021-06-28T02:38:01.000Z</time>
        <extensions>
          <ns3:TrackPointExtension>
            <ns3:atemp>30.0</ns3:atemp>
            <ns3:hr>72</ns3:hr>
          </ns3:TrackPointExtension>
        </extensions>
      </trkpt>
      <trkpt lat="36.8675994314253330230712890625" lon="-118.5127865709364414215087890625">
        <ele>2156</ele>
        <time>2021-06-28T02:38:02.000Z</time>
        <extensions>
          <ns3:TrackPointExtension>
            <ns3:atemp>30.0</ns3:atemp>
            <ns3:hr>73</ns3:hr>
          </ns3:TrackPointExtension>
        </extensions>
      </trkpt>
      <trkpt lat="36.8676567636430263519287109375" lon="-118.51284750737249851226806640625">
        <ele>2155.800048828125</ele>
        <time>2021-06-28T02:38:05.000Z</time>
        <extensions>
          <ns3:TrackPointExtension>
            <ns3:atemp>30.0</ns3:atemp>
            <ns3:hr>75</ns3:hr>
          </ns3:TrackPointExtension>
        </extensions>
      </trkpt>
      <trkpt lat="36.86768366955220699310302734375" lon="-118.5128874890506267547607421875">
        <ele>2155.39990234375</ele>
        <time>2021-06-28T02:38:07.000Z</time>
        <extensions>
          <ns3:TrackPointExtension>
            <ns3:atemp>30.0</ns3:atemp>
            <ns3:hr>74</ns3:hr>
          </ns3:TrackPointExtension>
        </extensions>
      </trkpt>
      <trkpt lat="36.86770160682499408721923828125" lon="-118.5129159875214099884033203125">
        <ele>2155.199951171875</ele>
        <time>2021-06-28T02:38:09.000Z</time>
        <extensions>
          <ns3:TrackPointExtension>
            <ns3:atemp>30.0</ns3:atemp>
            <ns3:hr>79</ns3:hr>
          </ns3:TrackPointExtension>
        </extensions>
      </trkpt>
      <trkpt lat="36.86772842891514301300048828125" lon="-118.512964434921741485595703125">
        <ele>2155.199951171875</ele>
        <time>2021-06-28T02:38:12.000Z</time>
        <extensions>
          <ns3:TrackPointExtension>
            <ns3:atemp>30.0</ns3:atemp>
            <ns3:hr>78</ns3:hr>
          </ns3:TrackPointExtension>
        </extensions>
      </trkpt>
      <trkpt lat="36.8677875213325023651123046875" lon="-118.5130226053297519683837890625">
        <ele>2154.60009765625</ele>
        <time>2021-06-28T02:38:20.000Z</time>
        <extensions>
          <ns3:TrackPointExtension>
            <ns3:atemp>30.0</ns3:atemp>
            <ns3:hr>79</ns3:hr>
          </ns3:TrackPointExtension>
        </extensions>
      </trkpt>
      <trkpt lat="36.86780990101397037506103515625" lon="-118.51306669414043426513671875">
        <ele>2154.39990234375</ele>
        <time>2021-06-28T02:38:23.000Z</time>
        <extensions>
          <ns3:TrackPointExtension>
            <ns3:atemp>30.0</ns3:atemp>
            <ns3:hr>78</ns3:hr>
          </ns3:TrackPointExtension>
        </extensions>
      </trkpt>
      <trkpt lat="36.8678498826920986175537109375" lon="-118.51315679959952831268310546875">
        <ele>2153.800048828125</ele>
        <time>2021-06-28T02:38:30.000Z</time>
        <extensions>
          <ns3:TrackPointExtension>
            <ns3:atemp>30.0</ns3:atemp>
            <ns3:hr>80</ns3:hr>
          </ns3:TrackPointExtension>
        </extensions>
      </trkpt>
      <trkpt lat="36.867852397263050079345703125" lon="-118.5132026486098766326904296875">
        <ele>2153.39990234375</ele>
        <time>2021-06-28T02:38:35.000Z</time>
        <extensions>
          <ns3:TrackPointExtension>
            <ns3:atemp>30.0</ns3:atemp>
            <ns3:hr>80</ns3:hr>
          </ns3:TrackPointExtension>
        </extensions>
      </trkpt>
      <trkpt lat="36.867843680083751678466796875" lon="-118.51321379654109477996826171875">
        <ele>2153.199951171875</ele>
        <time>2021-06-28T02:38:37.000Z</time>
        <extensions>
          <ns3:TrackPointExtension>
            <ns3:atemp>30.0</ns3:atemp>
            <ns3:hr>80</ns3:hr>
          </ns3:TrackPointExtension>
        </extensions>
      </trkpt>
      <trkpt lat="36.86784426681697368621826171875" lon="-118.51322628557682037353515625">
        <ele>2153.199951171875</ele>
        <time>2021-06-28T02:38:38.000Z</time>
        <extensions>
          <ns3:TrackPointExtension>
            <ns3:atemp>30.0</ns3:atemp>
            <ns3:hr>80</ns3:hr>
          </ns3:TrackPointExtension>
        </extensions>
      </trkpt>
      <trkpt lat="36.86786874197423458099365234375" lon="-118.51331437937915325164794921875">
        <ele>2152.800048828125</ele>
        <time>2021-06-28T02:38:45.000Z</time>
        <extensions>
          <ns3:TrackPointExtension>
            <ns3:atemp>30.0</ns3:atemp>
            <ns3:hr>80</ns3:hr>
          </ns3:TrackPointExtension>
        </extensions>
      </trkpt>
      <trkpt lat="36.8678922951221466064453125" lon="-118.51336316205561161041259765625">
        <ele>2152.199951171875</ele>
        <time>2021-06-28T02:38:52.000Z</time>
        <extensions>
          <ns3:TrackPointExtension>
            <ns3:atemp>30.0</ns3:atemp>
            <ns3:hr>77</ns3:hr>
          </ns3:TrackPointExtension>
        </extensions>
      </trkpt>
      <trkpt lat="36.86791584827005863189697265625" lon="-118.5134360007941722869873046875">
        <ele>2152</ele>
        <time>2021-06-28T02:38:56.000Z</time>
        <extensions>
          <ns3:TrackPointExtension>
            <ns3:atemp>30.0</ns3:atemp>
            <ns3:hr>76</ns3:hr>
          </ns3:TrackPointExtension>
        </extensions>
      </trkpt>
      <trkpt lat="36.86793453991413116455078125" lon="-118.51346257142722606658935546875">
        <ele>2152</ele>
        <time>2021-06-28T02:38:58.000Z</time>
        <extensions>
          <ns3:TrackPointExtension>
            <ns3:atemp>30.0</ns3:atemp>
            <ns3:hr>75</ns3:hr>
          </ns3:TrackPointExtension>
        </extensions>
      </trkpt>
      <trkpt lat="36.8679467774927616119384765625" lon="-118.51346642710268497467041015625">
        <ele>2151.800048828125</ele>
        <time>2021-06-28T02:38:59.000Z</time>
        <extensions>
          <ns3:TrackPointExtension>
            <ns3:atemp>30.0</ns3:atemp>
            <ns3:hr>75</ns3:hr>
          </ns3:TrackPointExtension>
        </extensions>
      </trkpt>
      <trkpt lat="36.86796396039426326751708984375" lon="-118.513460643589496612548828125">
        <ele>2151.39990234375</ele>
        <time>2021-06-28T02:39:01.000Z</time>
        <extensions>
          <ns3:TrackPointExtension>
            <ns3:atemp>30.0</ns3:atemp>
            <ns3:hr>71</ns3:hr>
          </ns3:TrackPointExtension>
        </extensions>
      </trkpt>
      <trkpt lat="36.8679742701351642608642578125" lon="-118.513461649417877197265625">
        <ele>2151.39990234375</ele>
        <time>2021-06-28T02:39:02.000Z</time>
        <extensions>
          <ns3:TrackPointExtension>
            <ns3:atemp>30.0</ns3:atemp>
            <ns3:hr>75</ns3:hr>
          </ns3:TrackPointExtension>
        </extensions>
      </trkpt>
      <trkpt lat="36.8679886870086193084716796875" lon="-118.51346743293106555938720703125">
        <ele>2151.39990234375</ele>
        <time>2021-06-28T02:39:04.000Z</time>
        <extensions>
          <ns3:TrackPointExtension>
            <ns3:atemp>30.0</ns3:atemp>
            <ns3:hr>75</ns3:hr>
          </ns3:TrackPointExtension>
        </extensions>
      </trkpt>
      <trkpt lat="36.86799312941730022430419921875" lon="-118.51347430609166622161865234375">
        <ele>2151.39990234375</ele>
        <time>2021-06-28T02:39:05.000Z</time>
        <extensions>
          <ns3:TrackPointExtension>
            <ns3:atemp>30.0</ns3:atemp>
            <ns3:hr>76</ns3:hr>
          </ns3:TrackPointExtension>
        </extensions>
      </trkpt>
      <trkpt lat="36.86799949966371059417724609375" lon="-118.51348687894642353057861328125">
        <ele>2151.39990234375</ele>
        <time>2021-06-28T02:39:06.000Z</time>
        <extensions>
          <ns3:TrackPointExtension>
            <ns3:atemp>30.0</ns3:atemp>
            <ns3:hr>76</ns3:hr>
          </ns3:TrackPointExtension>
        </extensions>
      </trkpt>
      <trkpt lat="36.86801006086170673370361328125" lon="-118.51351621560752391815185546875">
        <ele>2151.39990234375</ele>
        <time>2021-06-28T02:39:09.000Z</time>
        <extensions>
          <ns3:TrackPointExtension>
            <ns3:atemp>30.0</ns3:atemp>
            <ns3:hr>77</ns3:hr>
          </ns3:TrackPointExtension>
        </extensions>
      </trkpt>
      <trkpt lat="36.86801123432815074920654296875" lon="-118.51351923309266567230224609375">
        <ele>2151.39990234375</ele>
        <time>2021-06-28T02:39:10.000Z</time>
        <extensions>
          <ns3:TrackPointExtension>
            <ns3:atemp>30.0</ns3:atemp>
            <ns3:hr>76</ns3:hr>
          </ns3:TrackPointExtension>
        </extensions>
      </trkpt>
      <trkpt lat="36.868019364774227142333984375" lon="-118.51353851146996021270751953125">
        <ele>2151</ele>
        <time>2021-06-28T02:39:12.000Z</time>
        <extensions>
          <ns3:TrackPointExtension>
            <ns3:atemp>30.0</ns3:atemp>
            <ns3:hr>76</ns3:hr>
          </ns3:TrackPointExtension>
        </extensions>
      </trkpt>
      <trkpt lat="36.8680478632450103759765625" lon="-118.51358276791870594024658203125">
        <ele>2151</ele>
        <time>2021-06-28T02:39:16.000Z</time>
        <extensions>
          <ns3:TrackPointExtension>
            <ns3:atemp>30.0</ns3:atemp>
            <ns3:hr>72</ns3:hr>
          </ns3:TrackPointExtension>
        </extensions>
      </trkpt>
      <trkpt lat="36.86804995872080326080322265625" lon="-118.5135902278125286102294921875">
        <ele>2151</ele>
        <time>2021-06-28T02:39:17.000Z</time>
        <extensions>
          <ns3:TrackPointExtension>
            <ns3:atemp>30.0</ns3:atemp>
            <ns3:hr>72</ns3:hr>
          </ns3:TrackPointExtension>
        </extensions>
      </trkpt>
      <trkpt lat="36.8680517189204692840576171875" lon="-118.5135982744395732879638671875">
        <ele>2150.800048828125</ele>
        <time>2021-06-28T02:39:18.000Z</time>
        <extensions>
          <ns3:TrackPointExtension>
            <ns3:atemp>30.0</ns3:atemp>
            <ns3:hr>72</ns3:hr>
          </ns3:TrackPointExtension>
        </extensions>
      </trkpt>
      <trkpt lat="36.8680671416223049163818359375" lon="-118.51361964829266071319580078125">
        <ele>2150.800048828125</ele>
        <time>2021-06-28T02:39:20.000Z</time>
        <extensions>
          <ns3:TrackPointExtension>
            <ns3:atemp>30.0</ns3:atemp>
            <ns3:hr>71</ns3:hr>
          </ns3:TrackPointExtension>
        </extensions>
      </trkpt>
      <trkpt lat="36.86808633618056774139404296875" lon="-118.51364730857312679290771484375">
        <ele>2150.800048828125</ele>
        <time>2021-06-28T02:39:23.000Z</time>
        <extensions>
          <ns3:TrackPointExtension>
            <ns3:atemp>30.0</ns3:atemp>
            <ns3:hr>74</ns3:hr>
          </ns3:TrackPointExtension>
        </extensions>
      </trkpt>
      <trkpt lat="36.86810662038624286651611328125" lon="-118.513659127056598663330078125">
        <ele>2150.60009765625</ele>
        <time>2021-06-28T02:39:25.000Z</time>
        <extensions>
          <ns3:TrackPointExtension>
            <ns3:atemp>30.0</ns3:atemp>
            <ns3:hr>77</ns3:hr>
          </ns3:TrackPointExtension>
        </extensions>
      </trkpt>
      <trkpt lat="36.868116594851016998291015625" lon="-118.51367211900651454925537109375">
        <ele>2150.39990234375</ele>
        <time>2021-06-28T02:39:26.000Z</time>
        <extensions>
          <ns3:TrackPointExtension>
            <ns3:atemp>30.0</ns3:atemp>
            <ns3:hr>79</ns3:hr>
          </ns3:TrackPointExtension>
        </extensions>
      </trkpt>
      <trkpt lat="36.86812807805836200714111328125" lon="-118.5136794112622737884521484375">
        <ele>2150.39990234375</ele>
        <time>2021-06-28T02:39:27.000Z</time>
        <extensions>
          <ns3:TrackPointExtension>
            <ns3:atemp>30.0</ns3:atemp>
            <ns3:hr>80</ns3:hr>
          </ns3:TrackPointExtension>
        </extensions>
      </trkpt>
      <trkpt lat="36.86816294677555561065673828125" lon="-118.513704724609851837158203125">
        <ele>2150.199951171875</ele>
        <time>2021-06-28T02:39:30.000Z</time>
        <extensions>
          <ns3:TrackPointExtension>
            <ns3:atemp>30.0</ns3:atemp>
            <ns3:hr>83</ns3:hr>
          </ns3:TrackPointExtension>
        </extensions>
      </trkpt>
      <trkpt lat="36.86817937530577182769775390625" lon="-118.5137136094272136688232421875">
        <ele>2149.800048828125</ele>
        <time>2021-06-28T02:39:31.000Z</time>
        <extensions>
          <ns3:TrackPointExtension>
            <ns3:atemp>30.0</ns3:atemp>
            <ns3:hr>83</ns3:hr>
          </ns3:TrackPointExtension>
        </extensions>
      </trkpt>
      <trkpt lat="36.86821005307137966156005859375" lon="-118.51373665966093540191650390625">
        <ele>2149.39990234375</ele>
        <time>2021-06-28T02:39:33.000Z</time>
        <extensions>
          <ns3:TrackPointExtension>
            <ns3:atemp>30.0</ns3:atemp>
            <ns3:hr>83</ns3:hr>
          </ns3:TrackPointExtension>
        </extensions>
      </trkpt>
      <trkpt lat="36.86826755292713642120361328125" lon="-118.5138396732509136199951171875">
        <ele>2148.800048828125</ele>
        <time>2021-06-28T02:39:42.000Z</time>
        <extensions>
          <ns3:TrackPointExtension>
            <ns3:atemp>30.0</ns3:atemp>
            <ns3:hr>82</ns3:hr>
          </ns3:TrackPointExtension>
        </extensions>
      </trkpt>
      <trkpt lat="36.86829269863665103912353515625" lon="-118.51388686336576938629150390625">
        <ele>2148.60009765625</ele>
        <time>2021-06-28T02:39:45.000Z</time>
        <extensions>
          <ns3:TrackPointExtension>
            <ns3:atemp>30.0</ns3:atemp>
            <ns3:hr>79</ns3:hr>
          </ns3:TrackPointExtension>
        </extensions>
      </trkpt>
      <trkpt lat="36.8683048523962497711181640625" lon="-118.5139310359954833984375">
        <ele>2148.199951171875</ele>
        <time>2021-06-28T02:39:49.000Z</time>
        <extensions>
          <ns3:TrackPointExtension>
            <ns3:atemp>30.0</ns3:atemp>
            <ns3:hr>78</ns3:hr>
          </ns3:TrackPointExtension>
        </extensions>
      </trkpt>
      <trkpt lat="36.86830510385334491729736328125" lon="-118.5139597021043300628662109375">
        <ele>2147.800048828125</ele>
        <time>2021-06-28T02:39:51.000Z</time>
        <extensions>
          <ns3:TrackPointExtension>
            <ns3:atemp>30.0</ns3:atemp>
            <ns3:hr>76</ns3:hr>
          </ns3:TrackPointExtension>
        </extensions>
      </trkpt>
      <trkpt lat="36.868296302855014801025390625" lon="-118.5139734484255313873291015625">
        <ele>2147.800048828125</ele>
        <time>2021-06-28T02:39:53.000Z</time>
        <extensions>
          <ns3:TrackPointExtension>
            <ns3:atemp>30.0</ns3:atemp>
            <ns3:hr>73</ns3:hr>
          </ns3:TrackPointExtension>
        </extensions>
      </trkpt>
      <trkpt lat="36.86830745078623294830322265625" lon="-118.51397051475942134857177734375">
        <ele>2147.800048828125</ele>
        <time>2021-06-28T02:39:55.000Z</time>
        <extensions>
          <ns3:TrackPointExtension>
            <ns3:atemp>30.0</ns3:atemp>
            <ns3:hr>73</ns3:hr>
          </ns3:TrackPointExtension>
        </extensions>
      </trkpt>
      <trkpt lat="36.8682991527020931243896484375" lon="-118.5140021145343780517578125">
        <ele>2146.800048828125</ele>
        <time>2021-06-28T02:39:59.000Z</time>
        <extensions>
          <ns3:TrackPointExtension>
            <ns3:atemp>30.0</ns3:atemp>
            <ns3:hr>70</ns3:hr>
          </ns3:TrackPointExtension>
        </extensions>
      </trkpt>
      <trkpt lat="36.86829202808439731597900390625" lon="-118.5140130110085010528564453125">
        <ele>2146.800048828125</ele>
        <time>2021-06-28T02:40:01.000Z</time>
        <extensions>
          <ns3:TrackPointExtension>
            <ns3:atemp>30.0</ns3:atemp>
            <ns3:hr>70</ns3:hr>
          </ns3:TrackPointExtension>
        </extensions>
      </trkpt>
      <trkpt lat="36.8682854063808917999267578125" lon="-118.5140334628522396087646484375">
        <ele>2146.39990234375</ele>
        <time>2021-06-28T02:40:03.000Z</time>
        <extensions>
          <ns3:TrackPointExtension>
            <ns3:atemp>30.0</ns3:atemp>
            <ns3:hr>69</ns3:hr>
          </ns3:TrackPointExtension>
        </extensions>
      </trkpt>
      <trkpt lat="36.8682837300002574920654296875" lon="-118.514062464237213134765625">
        <ele>2146.199951171875</ele>
        <time>2021-06-28T02:40:06.000Z</time>
        <extensions>
          <ns3:TrackPointExtension>
            <ns3:atemp>30.0</ns3:atemp>
            <ns3:hr>70</ns3:hr>
          </ns3:TrackPointExtension>
        </extensions>
      </trkpt>
      <trkpt lat="36.86828129924833774566650390625" lon="-118.5140757076442241668701171875">
        <ele>2146.199951171875</ele>
        <time>2021-06-28T02:40:07.000Z</time>
        <extensions>
          <ns3:TrackPointExtension>
            <ns3:atemp>30.0</ns3:atemp>
            <ns3:hr>70</ns3:hr>
          </ns3:TrackPointExtension>
        </extensions>
      </trkpt>
      <trkpt lat="36.8682927824556827545166015625" lon="-118.51412775926291942596435546875">
        <ele>2146</ele>
        <time>2021-06-28T02:40:11.000Z</time>
        <extensions>
          <ns3:TrackPointExtension>
            <ns3:atemp>30.0</ns3:atemp>
            <ns3:hr>72</ns3:hr>
          </ns3:TrackPointExtension>
        </extensions>
      </trkpt>
      <trkpt lat="36.86831273138523101806640625" lon="-118.5141571797430515289306640625">
        <ele>2145.800048828125</ele>
        <time>2021-06-28T02:40:14.000Z</time>
        <extensions>
          <ns3:TrackPointExtension>
            <ns3:atemp>30.0</ns3:atemp>
            <ns3:hr>72</ns3:hr>
          </ns3:TrackPointExtension>
        </extensions>
      </trkpt>
      <trkpt lat="36.86831382103264331817626953125" lon="-118.51416128687560558319091796875">
        <ele>2145.60009765625</ele>
        <time>2021-06-28T02:40:15.000Z</time>
        <extensions>
          <ns3:TrackPointExtension>
            <ns3:atemp>30.0</ns3:atemp>
            <ns3:hr>71</ns3:hr>
          </ns3:TrackPointExtension>
        </extensions>
      </trkpt>
      <trkpt lat="36.86831465922296047210693359375" lon="-118.514174781739711761474609375">
        <ele>2145.39990234375</ele>
        <time>2021-06-28T02:40:17.000Z</time>
        <extensions>
          <ns3:TrackPointExtension>
            <ns3:atemp>30.0</ns3:atemp>
            <ns3:hr>69</ns3:hr>
          </ns3:TrackPointExtension>
        </extensions>
      </trkpt>
      <trkpt lat="36.8683296628296375274658203125" lon="-118.5142193734645843505859375">
        <ele>2145.199951171875</ele>
        <time>2021-06-28T02:40:20.000Z</time>
        <extensions>
          <ns3:TrackPointExtension>
            <ns3:atemp>30.0</ns3:atemp>
            <ns3:hr>69</ns3:hr>
          </ns3:TrackPointExtension>
        </extensions>
      </trkpt>
      <trkpt lat="36.86832337640225887298583984375" lon="-118.51424342952668666839599609375">
        <ele>2145</ele>
        <time>2021-06-28T02:40:22.000Z</time>
        <extensions>
          <ns3:TrackPointExtension>
            <ns3:atemp>30.0</ns3:atemp>
            <ns3:hr>69</ns3:hr>
          </ns3:TrackPointExtension>
        </extensions>
      </trkpt>
      <trkpt lat="36.86829118989408016204833984375" lon="-118.514263629913330078125">
        <ele>2145</ele>
        <time>2021-06-28T02:40:27.000Z</time>
        <extensions>
          <ns3:TrackPointExtension>
            <ns3:atemp>30.0</ns3:atemp>
            <ns3:hr>65</ns3:hr>
          </ns3:TrackPointExtension>
        </extensions>
      </trkpt>
      <trkpt lat="36.86828180216252803802490234375" lon="-118.51426941342651844024658203125">
        <ele>2145.199951171875</ele>
        <time>2021-06-28T02:40:29.000Z</time>
        <extensions>
          <ns3:TrackPointExtension>
            <ns3:atemp>30.0</ns3:atemp>
            <ns3:hr>66</ns3:hr>
          </ns3:TrackPointExtension>
        </extensions>
      </trkpt>
      <trkpt lat="36.868246681988239288330078125" lon="-118.51430176757276058197021484375">
        <ele>2145</ele>
        <time>2021-06-28T02:40:35.000Z</time>
        <extensions>
          <ns3:TrackPointExtension>
            <ns3:atemp>30.0</ns3:atemp>
            <ns3:hr>65</ns3:hr>
          </ns3:TrackPointExtension>
        </extensions>
      </trkpt>
      <trkpt lat="36.8682344444096088409423828125" lon="-118.51433462463319301605224609375">
        <ele>2145.199951171875</ele>
        <time>2021-06-28T02:40:39.000Z</time>
        <extensions>
          <ns3:TrackPointExtension>
            <ns3:atemp>30.0</ns3:atemp>
            <ns3:hr>64</ns3:hr>
          </ns3:TrackPointExtension>
        </extensions>
      </trkpt>
      <trkpt lat="36.86818130314350128173828125" lon="-118.51435021497309207916259765625">
        <ele>2145.39990234375</ele>
        <time>2021-06-28T02:40:44.000Z</time>
        <extensions>
          <ns3:TrackPointExtension>
            <ns3:atemp>30.0</ns3:atemp>
            <ns3:hr>64</ns3:hr>
          </ns3:TrackPointExtension>
        </extensions>
      </trkpt>
      <trkpt lat="36.868157498538494110107421875" lon="-118.51437351666390895843505859375">
        <ele>2145.39990234375</ele>
        <time>2021-06-28T02:40:46.000Z</time>
        <extensions>
          <ns3:TrackPointExtension>
            <ns3:atemp>30.0</ns3:atemp>
            <ns3:hr>65</ns3:hr>
          </ns3:TrackPointExtension>
        </extensions>
      </trkpt>
      <trkpt lat="36.8681288324296474456787109375" lon="-118.51440151222050189971923828125">
        <ele>2145.60009765625</ele>
        <time>2021-06-28T02:40:49.000Z</time>
        <extensions>
          <ns3:TrackPointExtension>
            <ns3:atemp>30.0</ns3:atemp>
            <ns3:hr>68</ns3:hr>
          </ns3:TrackPointExtension>
        </extensions>
      </trkpt>
      <trkpt lat="36.86812623403966426849365234375" lon="-118.51440771482884883880615234375">
        <ele>2145.39990234375</ele>
        <time>2021-06-28T02:40:50.000Z</time>
        <extensions>
          <ns3:TrackPointExtension>
            <ns3:atemp>30.0</ns3:atemp>
            <ns3:hr>69</ns3:hr>
          </ns3:TrackPointExtension>
        </extensions>
      </trkpt>
      <trkpt lat="36.86809203587472438812255859375" lon="-118.51442012004554271697998046875">
        <ele>2144.800048828125</ele>
        <time>2021-06-28T02:40:53.000Z</time>
        <extensions>
          <ns3:TrackPointExtension>
            <ns3:atemp>30.0</ns3:atemp>
            <ns3:hr>69</ns3:hr>
          </ns3:TrackPointExtension>
        </extensions>
      </trkpt>
      <trkpt lat="36.86795423738658428192138671875" lon="-118.51444928906857967376708984375">
        <ele>2143.60009765625</ele>
        <time>2021-06-28T02:41:02.000Z</time>
        <extensions>
          <ns3:TrackPointExtension>
            <ns3:atemp>30.0</ns3:atemp>
            <ns3:hr>70</ns3:hr>
          </ns3:TrackPointExtension>
        </extensions>
      </trkpt>
      <trkpt lat="36.86794384382665157318115234375" lon="-118.51447057910263538360595703125">
        <ele>2143.199951171875</ele>
        <time>2021-06-28T02:41:04.000Z</time>
        <extensions>
          <ns3:TrackPointExtension>
            <ns3:atemp>30.0</ns3:atemp>
            <ns3:hr>71</ns3:hr>
          </ns3:TrackPointExtension>
        </extensions>
      </trkpt>
      <trkpt lat="36.86790277250111103057861328125" lon="-118.514507710933685302734375">
        <ele>2143</ele>
        <time>2021-06-28T02:41:08.000Z</time>
        <extensions>
          <ns3:TrackPointExtension>
            <ns3:atemp>30.0</ns3:atemp>
            <ns3:hr>73</ns3:hr>
          </ns3:TrackPointExtension>
        </extensions>
      </trkpt>
      <trkpt lat="36.8678867630660533905029296875" lon="-118.51452120579779148101806640625">
        <ele>2143</ele>
        <time>2021-06-28T02:41:10.000Z</time>
        <extensions>
          <ns3:TrackPointExtension>
            <ns3:atemp>30.0</ns3:atemp>
            <ns3:hr>72</ns3:hr>
          </ns3:TrackPointExtension>
        </extensions>
      </trkpt>
      <trkpt lat="36.86785809695720672607421875" lon="-118.51454752497375011444091796875">
        <ele>2142.60009765625</ele>
        <time>2021-06-28T02:41:13.000Z</time>
        <extensions>
          <ns3:TrackPointExtension>
            <ns3:atemp>30.0</ns3:atemp>
            <ns3:hr>71</ns3:hr>
          </ns3:TrackPointExtension>
        </extensions>
      </trkpt>
      <trkpt lat="36.867856420576572418212890625" lon="-118.51455666124820709228515625">
        <ele>2142.60009765625</ele>
        <time>2021-06-28T02:41:14.000Z</time>
        <extensions>
          <ns3:TrackPointExtension>
            <ns3:atemp>30.0</ns3:atemp>
            <ns3:hr>72</ns3:hr>
          </ns3:TrackPointExtension>
        </extensions>
      </trkpt>
      <trkpt lat="36.86784862540662288665771484375" lon="-118.51459345780313014984130859375">
        <ele>2142.39990234375</ele>
        <time>2021-06-28T02:41:18.000Z</time>
        <extensions>
          <ns3:TrackPointExtension>
            <ns3:atemp>30.0</ns3:atemp>
            <ns3:hr>75</ns3:hr>
          </ns3:TrackPointExtension>
        </extensions>
      </trkpt>
      <trkpt lat="36.8678351305425167083740234375" lon="-118.51461340673267841339111328125">
        <ele>2142</ele>
        <time>2021-06-28T02:41:21.000Z</time>
        <extensions>
          <ns3:TrackPointExtension>
            <ns3:atemp>30.0</ns3:atemp>
            <ns3:hr>77</ns3:hr>
          </ns3:TrackPointExtension>
        </extensions>
      </trkpt>
      <trkpt lat="36.86781249940395355224609375" lon="-118.51465129293501377105712890625">
        <ele>2142</ele>
        <time>2021-06-28T02:41:25.000Z</time>
        <extensions>
          <ns3:TrackPointExtension>
            <ns3:atemp>30.0</ns3:atemp>
            <ns3:hr>79</ns3:hr>
          </ns3:TrackPointExtension>
        </extensions>
      </trkpt>
      <trkpt lat="36.86778559349477291107177734375" lon="-118.51467576809227466583251953125">
        <ele>2141.800048828125</ele>
        <time>2021-06-28T02:41:27.000Z</time>
        <extensions>
          <ns3:TrackPointExtension>
            <ns3:atemp>30.0</ns3:atemp>
            <ns3:hr>79</ns3:hr>
          </ns3:TrackPointExtension>
        </extensions>
      </trkpt>
      <trkpt lat="36.867756508290767669677734375" lon="-118.5147102177143096923828125">
        <ele>2141.60009765625</ele>
        <time>2021-06-28T02:41:30.000Z</time>
        <extensions>
          <ns3:TrackPointExtension>
            <ns3:atemp>30.0</ns3:atemp>
            <ns3:hr>81</ns3:hr>
          </ns3:TrackPointExtension>
        </extensions>
      </trkpt>
      <trkpt lat="36.8677342124283313751220703125" lon="-118.5147155821323394775390625">
        <ele>2141.39990234375</ele>
        <time>2021-06-28T02:41:32.000Z</time>
        <extensions>
          <ns3:TrackPointExtension>
            <ns3:atemp>30.0</ns3:atemp>
            <ns3:hr>81</ns3:hr>
          </ns3:TrackPointExtension>
        </extensions>
      </trkpt>
      <trkpt lat="36.8677204661071300506591796875" lon="-118.5147140733897686004638671875">
        <ele>2141.39990234375</ele>
        <time>2021-06-28T02:41:33.000Z</time>
        <extensions>
          <ns3:TrackPointExtension>
            <ns3:atemp>30.0</ns3:atemp>
            <ns3:hr>81</ns3:hr>
          </ns3:TrackPointExtension>
        </extensions>
      </trkpt>
      <trkpt lat="36.86770965345203876495361328125" lon="-118.51472069509327411651611328125">
        <ele>2141.39990234375</ele>
        <time>2021-06-28T02:41:34.000Z</time>
        <extensions>
          <ns3:TrackPointExtension>
            <ns3:atemp>30.0</ns3:atemp>
            <ns3:hr>79</ns3:hr>
          </ns3:TrackPointExtension>
        </extensions>
      </trkpt>
      <trkpt lat="36.86769179999828338623046875" lon="-118.51474014110863208770751953125">
        <ele>2141.39990234375</ele>
        <time>2021-06-28T02:41:36.000Z</time>
        <extensions>
          <ns3:TrackPointExtension>
            <ns3:atemp>30.0</ns3:atemp>
            <ns3:hr>81</ns3:hr>
          </ns3:TrackPointExtension>
        </extensions>
      </trkpt>
      <trkpt lat="36.86769071035087108612060546875" lon="-118.51475941948592662811279296875">
        <ele>2141.39990234375</ele>
        <time>2021-06-28T02:41:38.000Z</time>
        <extensions>
          <ns3:TrackPointExtension>
            <ns3:atemp>30.0</ns3:atemp>
            <ns3:hr>81</ns3:hr>
          </ns3:TrackPointExtension>
        </extensions>
      </trkpt>
      <trkpt lat="36.867721974849700927734375" lon="-118.51481691934168338775634765625">
        <ele>2141.39990234375</ele>
        <time>2021-06-28T02:41:43.000Z</time>
        <extensions>
          <ns3:TrackPointExtension>
            <ns3:atemp>30.0</ns3:atemp>
            <ns3:hr>81</ns3:hr>
          </ns3:TrackPointExtension>
        </extensions>
      </trkpt>
      <trkpt lat="36.8677233159542083740234375" lon="-118.51482831872999668121337890625">
        <ele>2141.199951171875</ele>
        <time>2021-06-28T02:41:44.000Z</time>
        <extensions>
          <ns3:TrackPointExtension>
            <ns3:atemp>30.0</ns3:atemp>
            <ns3:hr>81</ns3:hr>
          </ns3:TrackPointExtension>
        </extensions>
      </trkpt>
      <trkpt lat="36.86772398650646209716796875" lon="-118.514842651784420013427734375">
        <ele>2141.199951171875</ele>
        <time>2021-06-28T02:41:45.000Z</time>
        <extensions>
          <ns3:TrackPointExtension>
            <ns3:atemp>30.0</ns3:atemp>
            <ns3:hr>78</ns3:hr>
          </ns3:TrackPointExtension>
        </extensions>
      </trkpt>
      <trkpt lat="36.86772742308676242828369140625" lon="-118.514883555471897125244140625">
        <ele>2141</ele>
        <time>2021-06-28T02:41:48.000Z</time>
        <extensions>
          <ns3:TrackPointExtension>
            <ns3:atemp>30.0</ns3:atemp>
            <ns3:hr>79</ns3:hr>
          </ns3:TrackPointExtension>
        </extensions>
      </trkpt>
      <trkpt lat="36.8677248246967792510986328125" lon="-118.5149222798645496368408203125">
        <ele>2140.800048828125</ele>
        <time>2021-06-28T02:41:51.000Z</time>
        <extensions>
          <ns3:TrackPointExtension>
            <ns3:atemp>30.0</ns3:atemp>
            <ns3:hr>80</ns3:hr>
          </ns3:TrackPointExtension>
        </extensions>
      </trkpt>
      <trkpt lat="36.8677137605845928192138671875" lon="-118.51494180969893932342529296875">
        <ele>2140.800048828125</ele>
        <time>2021-06-28T02:41:53.000Z</time>
        <extensions>
          <ns3:TrackPointExtension>
            <ns3:atemp>30.0</ns3:atemp>
            <ns3:hr>79</ns3:hr>
          </ns3:TrackPointExtension>
        </extensions>
      </trkpt>
      <trkpt lat="36.867692470550537109375" lon="-118.51497231982648372650146484375">
        <ele>2140.60009765625</ele>
        <time>2021-06-28T02:41:56.000Z</time>
        <extensions>
          <ns3:TrackPointExtension>
            <ns3:atemp>30.0</ns3:atemp>
            <ns3:hr>76</ns3:hr>
          </ns3:TrackPointExtension>
        </extensions>
      </trkpt>
      <trkpt lat="36.86771049164235591888427734375" lon="-118.51503317244350910186767578125">
        <ele>2140.60009765625</ele>
        <time>2021-06-28T02:41:59.000Z</time>
        <extensions>
          <ns3:TrackPointExtension>
            <ns3:atemp>30.0</ns3:atemp>
            <ns3:hr>73</ns3:hr>
          </ns3:TrackPointExtension>
        </extensions>
      </trkpt>
      <trkpt lat="36.867716275155544281005859375" lon="-118.515051193535327911376953125">
        <ele>2140.39990234375</ele>
        <time>2021-06-28T02:42:00.000Z</time>
        <extensions>
          <ns3:TrackPointExtension>
            <ns3:atemp>30.0</ns3:atemp>
            <ns3:hr>72</ns3:hr>
          </ns3:TrackPointExtension>
        </extensions>
      </trkpt>
      <trkpt lat="36.8677231483161449432373046875" lon="-118.515082038938999176025390625">
        <ele>2140.199951171875</ele>
        <time>2021-06-28T02:42:02.000Z</time>
        <extensions>
          <ns3:TrackPointExtension>
            <ns3:atemp>30.0</ns3:atemp>
            <ns3:hr>72</ns3:hr>
          </ns3:TrackPointExtension>
        </extensions>
      </trkpt>
      <trkpt lat="36.867722980678081512451171875" lon="-118.5151313245296478271484375">
        <ele>2140</ele>
        <time>2021-06-28T02:42:06.000Z</time>
        <extensions>
          <ns3:TrackPointExtension>
            <ns3:atemp>30.0</ns3:atemp>
            <ns3:hr>73</ns3:hr>
          </ns3:TrackPointExtension>
        </extensions>
      </trkpt>
      <trkpt lat="36.86773396097123622894287109375" lon="-118.5151643492281436920166015625">
        <ele>2140</ele>
        <time>2021-06-28T02:42:08.000Z</time>
        <extensions>
          <ns3:TrackPointExtension>
            <ns3:atemp>30.0</ns3:atemp>
            <ns3:hr>75</ns3:hr>
          </ns3:TrackPointExtension>
        </extensions>
      </trkpt>
      <trkpt lat="36.86773882247507572174072265625" lon="-118.51521992124617099761962890625">
        <ele>2139.800048828125</ele>
        <time>2021-06-28T02:42:11.000Z</time>
        <extensions>
          <ns3:TrackPointExtension>
            <ns3:atemp>30.0</ns3:atemp>
            <ns3:hr>78</ns3:hr>
          </ns3:TrackPointExtension>
        </extensions>
      </trkpt>
      <trkpt lat="36.86773278750479221343994140625" lon="-118.515256382524967193603515625">
        <ele>2139.60009765625</ele>
        <time>2021-06-28T02:42:13.000Z</time>
        <extensions>
          <ns3:TrackPointExtension>
            <ns3:atemp>30.0</ns3:atemp>
            <ns3:hr>79</ns3:hr>
          </ns3:TrackPointExtension>
        </extensions>
      </trkpt>
      <trkpt lat="36.86773010529577732086181640625" lon="-118.51528085768222808837890625">
        <ele>2139.60009765625</ele>
        <time>2021-06-28T02:42:14.000Z</time>
        <extensions>
          <ns3:TrackPointExtension>
            <ns3:atemp>30.0</ns3:atemp>
            <ns3:hr>79</ns3:hr>
          </ns3:TrackPointExtension>
        </extensions>
      </trkpt>
      <trkpt lat="36.867726333439350128173828125" lon="-118.51532720960676670074462890625">
        <ele>2139.39990234375</ele>
        <time>2021-06-28T02:42:16.000Z</time>
        <extensions>
          <ns3:TrackPointExtension>
            <ns3:atemp>30.0</ns3:atemp>
            <ns3:hr>79</ns3:hr>
          </ns3:TrackPointExtension>
        </extensions>
      </trkpt>
      <trkpt lat="36.86772356741130352020263671875" lon="-118.51534866727888584136962890625">
        <ele>2139.199951171875</ele>
        <time>2021-06-28T02:42:18.000Z</time>
        <extensions>
          <ns3:TrackPointExtension>
            <ns3:atemp>30.0</ns3:atemp>
            <ns3:hr>79</ns3:hr>
          </ns3:TrackPointExtension>
        </extensions>
      </trkpt>
      <trkpt lat="36.8677286803722381591796875" lon="-118.5153888165950775146484375">
        <ele>2139.199951171875</ele>
        <time>2021-06-28T02:42:21.000Z</time>
        <extensions>
          <ns3:TrackPointExtension>
            <ns3:atemp>30.0</ns3:atemp>
            <ns3:hr>77</ns3:hr>
          </ns3:TrackPointExtension>
        </extensions>
      </trkpt>
      <trkpt lat="36.8677228130400180816650390625" lon="-118.51543047465384006500244140625">
        <ele>2139</ele>
        <time>2021-06-28T02:42:25.000Z</time>
        <extensions>
          <ns3:TrackPointExtension>
            <ns3:atemp>30.0</ns3:atemp>
            <ns3:hr>76</ns3:hr>
          </ns3:TrackPointExtension>
        </extensions>
      </trkpt>
      <trkpt lat="36.86772172339260578155517578125" lon="-118.5154473222792148590087890625">
        <ele>2138.800048828125</ele>
        <time>2021-06-28T02:42:26.000Z</time>
        <extensions>
          <ns3:TrackPointExtension>
            <ns3:atemp>30.0</ns3:atemp>
            <ns3:hr>76</ns3:hr>
          </ns3:TrackPointExtension>
        </extensions>
      </trkpt>
      <trkpt lat="36.86773882247507572174072265625" lon="-118.51548428647220134735107421875">
        <ele>2138.60009765625</ele>
        <time>2021-06-28T02:42:28.000Z</time>
        <extensions>
          <ns3:TrackPointExtension>
            <ns3:atemp>30.0</ns3:atemp>
            <ns3:hr>76</ns3:hr>
          </ns3:TrackPointExtension>
        </extensions>
      </trkpt>
      <trkpt lat="36.86781928874552249908447265625" lon="-118.5155438818037509918212890625">
        <ele>2138.39990234375</ele>
        <time>2021-06-28T02:42:32.000Z</time>
        <extensions>
          <ns3:TrackPointExtension>
            <ns3:atemp>30.0</ns3:atemp>
            <ns3:hr>76</ns3:hr>
          </ns3:TrackPointExtension>
        </extensions>
      </trkpt>
      <trkpt lat="36.86782968230545520782470703125" lon="-118.515551090240478515625">
        <ele>2138.39990234375</ele>
        <time>2021-06-28T02:42:33.000Z</time>
        <extensions>
          <ns3:TrackPointExtension>
            <ns3:atemp>30.0</ns3:atemp>
            <ns3:hr>75</ns3:hr>
          </ns3:TrackPointExtension>
        </extensions>
      </trkpt>
      <trkpt lat="36.86784946359694004058837890625" lon="-118.51559274829924106597900390625">
        <ele>2138.39990234375</ele>
        <time>2021-06-28T02:42:37.000Z</time>
        <extensions>
          <ns3:TrackPointExtension>
            <ns3:atemp>30.0</ns3:atemp>
            <ns3:hr>72</ns3:hr>
          </ns3:TrackPointExtension>
        </extensions>
      </trkpt>
      <trkpt lat="36.8678488768637180328369140625" lon="-118.51560540497303009033203125">
        <ele>2138.39990234375</ele>
        <time>2021-06-28T02:42:38.000Z</time>
        <extensions>
          <ns3:TrackPointExtension>
            <ns3:atemp>30.0</ns3:atemp>
            <ns3:hr>75</ns3:hr>
          </ns3:TrackPointExtension>
        </extensions>
      </trkpt>
      <trkpt lat="36.867867149412631988525390625" lon="-118.51563063450157642364501953125">
        <ele>2138.39990234375</ele>
        <time>2021-06-28T02:42:40.000Z</time>
        <extensions>
          <ns3:TrackPointExtension>
            <ns3:atemp>30.0</ns3:atemp>
            <ns3:hr>75</ns3:hr>
          </ns3:TrackPointExtension>
        </extensions>
      </trkpt>
      <trkpt lat="36.8679083883762359619140625" lon="-118.5156903974711894989013671875">
        <ele>2138.199951171875</ele>
        <time>2021-06-28T02:42:44.000Z</time>
        <extensions>
          <ns3:TrackPointExtension>
            <ns3:atemp>30.0</ns3:atemp>
            <ns3:hr>74</ns3:hr>
          </ns3:TrackPointExtension>
        </extensions>
      </trkpt>
      <trkpt lat="36.8680041097104549407958984375" lon="-118.5157763957977294921875">
        <ele>2137.800048828125</ele>
        <time>2021-06-28T02:42:51.000Z</time>
        <extensions>
          <ns3:TrackPointExtension>
            <ns3:atemp>30.0</ns3:atemp>
            <ns3:hr>74</ns3:hr>
          </ns3:TrackPointExtension>
        </extensions>
      </trkpt>
      <trkpt lat="36.86805926263332366943359375" lon="-118.51586130447685718536376953125">
        <ele>2137.800048828125</ele>
        <time>2021-06-28T02:42:57.000Z</time>
        <extensions>
          <ns3:TrackPointExtension>
            <ns3:atemp>30.0</ns3:atemp>
            <ns3:hr>75</ns3:hr>
          </ns3:TrackPointExtension>
        </extensions>
      </trkpt>
      <trkpt lat="36.86805683188140392303466796875" lon="-118.5158721171319484710693359375">
        <ele>2137.39990234375</ele>
        <time>2021-06-28T02:42:58.000Z</time>
        <extensions>
          <ns3:TrackPointExtension>
            <ns3:atemp>30.0</ns3:atemp>
            <ns3:hr>75</ns3:hr>
          </ns3:TrackPointExtension>
        </extensions>
      </trkpt>
      <trkpt lat="36.86805163510143756866455078125" lon="-118.515878655016422271728515625">
        <ele>2137.199951171875</ele>
        <time>2021-06-28T02:42:59.000Z</time>
        <extensions>
          <ns3:TrackPointExtension>
            <ns3:atemp>30.0</ns3:atemp>
            <ns3:hr>76</ns3:hr>
          </ns3:TrackPointExtension>
        </extensions>
      </trkpt>
      <trkpt lat="36.86803805641829967498779296875" lon="-118.5158841870725154876708984375">
        <ele>2137.199951171875</ele>
        <time>2021-06-28T02:43:00.000Z</time>
        <extensions>
          <ns3:TrackPointExtension>
            <ns3:atemp>30.0</ns3:atemp>
            <ns3:hr>77</ns3:hr>
          </ns3:TrackPointExtension>
        </extensions>
      </trkpt>
      <trkpt lat="36.868005283176898956298828125" lon="-118.515886701643466949462890625">
        <ele>2137</ele>
        <time>2021-06-28T02:43:02.000Z</time>
        <extensions>
          <ns3:TrackPointExtension>
            <ns3:atemp>30.0</ns3:atemp>
            <ns3:hr>80</ns3:hr>
          </ns3:TrackPointExtension>
        </extensions>
      </trkpt>
      <trkpt lat="36.8679937161505222320556640625" lon="-118.5158932395279407501220703125">
        <ele>2137</ele>
        <time>2021-06-28T02:43:03.000Z</time>
        <extensions>
          <ns3:TrackPointExtension>
            <ns3:atemp>30.0</ns3:atemp>
            <ns3:hr>82</ns3:hr>
          </ns3:TrackPointExtension>
        </extensions>
      </trkpt>
      <trkpt lat="36.86797955073416233062744140625" lon="-118.51592517457902431488037109375">
        <ele>2136.60009765625</ele>
        <time>2021-06-28T02:43:07.000Z</time>
        <extensions>
          <ns3:TrackPointExtension>
            <ns3:atemp>30.0</ns3:atemp>
            <ns3:hr>85</ns3:hr>
          </ns3:TrackPointExtension>
        </extensions>
      </trkpt>
      <trkpt lat="36.86797753907740116119384765625" lon="-118.51592727005481719970703125">
        <ele>2136.60009765625</ele>
        <time>2021-06-28T02:43:08.000Z</time>
        <extensions>
          <ns3:TrackPointExtension>
            <ns3:atemp>30.0</ns3:atemp>
            <ns3:hr>84</ns3:hr>
          </ns3:TrackPointExtension>
        </extensions>
      </trkpt>
      <trkpt lat="36.86797804199159145355224609375" lon="-118.5159297846257686614990234375">
        <ele>2136.60009765625</ele>
        <time>2021-06-28T02:43:09.000Z</time>
        <extensions>
          <ns3:TrackPointExtension>
            <ns3:atemp>30.0</ns3:atemp>
            <ns3:hr>84</ns3:hr>
          </ns3:TrackPointExtension>
        </extensions>
      </trkpt>
      <trkpt lat="36.86797552742063999176025390625" lon="-118.51594646461308002471923828125">
        <ele>2136.39990234375</ele>
        <time>2021-06-28T02:43:11.000Z</time>
        <extensions>
          <ns3:TrackPointExtension>
            <ns3:atemp>30.0</ns3:atemp>
            <ns3:hr>84</ns3:hr>
          </ns3:TrackPointExtension>
        </extensions>
      </trkpt>
      <trkpt lat="36.86797468923032283782958984375" lon="-118.51597261615097522735595703125">
        <ele>2136.39990234375</ele>
        <time>2021-06-28T02:43:13.000Z</time>
        <extensions>
          <ns3:TrackPointExtension>
            <ns3:atemp>30.0</ns3:atemp>
            <ns3:hr>87</ns3:hr>
          </ns3:TrackPointExtension>
        </extensions>
      </trkpt>
      <trkpt lat="36.86797234229743480682373046875" lon="-118.51598384790122509002685546875">
        <ele>2136.39990234375</ele>
        <time>2021-06-28T02:43:14.000Z</time>
        <extensions>
          <ns3:TrackPointExtension>
            <ns3:atemp>30.0</ns3:atemp>
            <ns3:hr>84</ns3:hr>
          </ns3:TrackPointExtension>
        </extensions>
      </trkpt>
      <trkpt lat="36.8679719232022762298583984375" lon="-118.5159931518137454986572265625">
        <ele>2136.199951171875</ele>
        <time>2021-06-28T02:43:15.000Z</time>
        <extensions>
          <ns3:TrackPointExtension>
            <ns3:atemp>30.0</ns3:atemp>
            <ns3:hr>84</ns3:hr>
          </ns3:TrackPointExtension>
        </extensions>
      </trkpt>
      <trkpt lat="36.867974437773227691650390625" lon="-118.516005389392375946044921875">
        <ele>2136.39990234375</ele>
        <time>2021-06-28T02:43:16.000Z</time>
        <extensions>
          <ns3:TrackPointExtension>
            <ns3:atemp>30.0</ns3:atemp>
            <ns3:hr>85</ns3:hr>
          </ns3:TrackPointExtension>
        </extensions>
      </trkpt>
      <trkpt lat="36.867974437773227691650390625" lon="-118.5160330496728420257568359375">
        <ele>2136.39990234375</ele>
        <time>2021-06-28T02:43:19.000Z</time>
        <extensions>
          <ns3:TrackPointExtension>
            <ns3:atemp>30.0</ns3:atemp>
            <ns3:hr>84</ns3:hr>
          </ns3:TrackPointExtension>
        </extensions>
      </trkpt>
      <trkpt lat="36.8679735995829105377197265625" lon="-118.51605609990656375885009765625">
        <ele>2136.199951171875</ele>
        <time>2021-06-28T02:43:21.000Z</time>
        <extensions>
          <ns3:TrackPointExtension>
            <ns3:atemp>30.0</ns3:atemp>
            <ns3:hr>84</ns3:hr>
          </ns3:TrackPointExtension>
        </extensions>
      </trkpt>
      <trkpt lat="36.8679739348590373992919921875" lon="-118.5160685889422893524169921875">
        <ele>2136.199951171875</ele>
        <time>2021-06-28T02:43:22.000Z</time>
        <extensions>
          <ns3:TrackPointExtension>
            <ns3:atemp>30.0</ns3:atemp>
            <ns3:hr>81</ns3:hr>
          </ns3:TrackPointExtension>
        </extensions>
      </trkpt>
      <trkpt lat="36.86797284521162509918212890625" lon="-118.51607688702642917633056640625">
        <ele>2136.199951171875</ele>
        <time>2021-06-28T02:43:23.000Z</time>
        <extensions>
          <ns3:TrackPointExtension>
            <ns3:atemp>30.0</ns3:atemp>
            <ns3:hr>81</ns3:hr>
          </ns3:TrackPointExtension>
        </extensions>
      </trkpt>
      <trkpt lat="36.86796764843165874481201171875" lon="-118.51608811877667903900146484375">
        <ele>2136.199951171875</ele>
        <time>2021-06-28T02:43:24.000Z</time>
        <extensions>
          <ns3:TrackPointExtension>
            <ns3:atemp>30.0</ns3:atemp>
            <ns3:hr>84</ns3:hr>
          </ns3:TrackPointExtension>
        </extensions>
      </trkpt>
      <trkpt lat="36.86796748079359531402587890625" lon="-118.5161031223833560943603515625">
        <ele>2136.199951171875</ele>
        <time>2021-06-28T02:43:26.000Z</time>
        <extensions>
          <ns3:TrackPointExtension>
            <ns3:atemp>30.0</ns3:atemp>
            <ns3:hr>85</ns3:hr>
          </ns3:TrackPointExtension>
        </extensions>
      </trkpt>
      <trkpt lat="36.86792112886905670166015625" lon="-118.5161440260708332061767578125">
        <ele>2136.199951171875</ele>
        <time>2021-06-28T02:43:33.000Z</time>
        <extensions>
          <ns3:TrackPointExtension>
            <ns3:atemp>30.0</ns3:atemp>
            <ns3:hr>84</ns3:hr>
          </ns3:TrackPointExtension>
        </extensions>
      </trkpt>
      <trkpt lat="36.86789439059793949127197265625" lon="-118.51615601219236850738525390625">
        <ele>2136</ele>
        <time>2021-06-28T02:43:36.000Z</time>
        <extensions>
          <ns3:TrackPointExtension>
            <ns3:atemp>30.0</ns3:atemp>
            <ns3:hr>81</ns3:hr>
          </ns3:TrackPointExtension>
        </extensions>
      </trkpt>
      <trkpt lat="36.86789489351212978363037109375" lon="-118.516163639724254608154296875">
        <ele>2135.800048828125</ele>
        <time>2021-06-28T02:43:37.000Z</time>
        <extensions>
          <ns3:TrackPointExtension>
            <ns3:atemp>30.0</ns3:atemp>
            <ns3:hr>80</ns3:hr>
          </ns3:TrackPointExtension>
        </extensions>
      </trkpt>
      <trkpt lat="36.86787955462932586669921875" lon="-118.5161866061389446258544921875">
        <ele>2135.800048828125</ele>
        <time>2021-06-28T02:43:39.000Z</time>
        <extensions>
          <ns3:TrackPointExtension>
            <ns3:atemp>30.0</ns3:atemp>
            <ns3:hr>80</ns3:hr>
          </ns3:TrackPointExtension>
        </extensions>
      </trkpt>
      <trkpt lat="36.86784661374986171722412109375" lon="-118.51625894196331501007080078125">
        <ele>2135.199951171875</ele>
        <time>2021-06-28T02:43:44.000Z</time>
        <extensions>
          <ns3:TrackPointExtension>
            <ns3:atemp>30.0</ns3:atemp>
            <ns3:hr>78</ns3:hr>
          </ns3:TrackPointExtension>
        </extensions>
      </trkpt>
      <trkpt lat="36.8678290955722332000732421875" lon="-118.51629875600337982177734375">
        <ele>2135.39990234375</ele>
        <time>2021-06-28T02:43:47.000Z</time>
        <extensions>
          <ns3:TrackPointExtension>
            <ns3:atemp>30.0</ns3:atemp>
            <ns3:hr>77</ns3:hr>
          </ns3:TrackPointExtension>
        </extensions>
      </trkpt>
      <trkpt lat="36.86784191988408565521240234375" lon="-118.51635038852691650390625">
        <ele>2135</ele>
        <time>2021-06-28T02:43:50.000Z</time>
        <extensions>
          <ns3:TrackPointExtension>
            <ns3:atemp>30.0</ns3:atemp>
            <ns3:hr>78</ns3:hr>
          </ns3:TrackPointExtension>
        </extensions>
      </trkpt>
      <trkpt lat="36.86784124933183193206787109375" lon="-118.51640327833592891693115234375">
        <ele>2135</ele>
        <time>2021-06-28T02:43:54.000Z</time>
        <extensions>
          <ns3:TrackPointExtension>
            <ns3:atemp>30.0</ns3:atemp>
            <ns3:hr>78</ns3:hr>
          </ns3:TrackPointExtension>
        </extensions>
      </trkpt>
      <trkpt lat="36.86783261597156524658203125" lon="-118.51642884314060211181640625">
        <ele>2135</ele>
        <time>2021-06-28T02:43:57.000Z</time>
        <extensions>
          <ns3:TrackPointExtension>
            <ns3:atemp>30.0</ns3:atemp>
            <ns3:hr>77</ns3:hr>
          </ns3:TrackPointExtension>
        </extensions>
      </trkpt>
      <trkpt lat="36.86783538199961185455322265625" lon="-118.51644895970821380615234375">
        <ele>2134.800048828125</ele>
        <time>2021-06-28T02:43:59.000Z</time>
        <extensions>
          <ns3:TrackPointExtension>
            <ns3:atemp>30.0</ns3:atemp>
            <ns3:hr>78</ns3:hr>
          </ns3:TrackPointExtension>
        </extensions>
      </trkpt>
      <trkpt lat="36.8678386509418487548828125" lon="-118.5164611972868442535400390625">
        <ele>2134.800048828125</ele>
        <time>2021-06-28T02:44:02.000Z</time>
        <extensions>
          <ns3:TrackPointExtension>
            <ns3:atemp>30.0</ns3:atemp>
            <ns3:hr>81</ns3:hr>
          </ns3:TrackPointExtension>
        </extensions>
      </trkpt>
      <trkpt lat="36.8678445182740688323974609375" lon="-118.51646614260971546173095703125">
        <ele>2134.800048828125</ele>
        <time>2021-06-28T02:44:03.000Z</time>
        <extensions>
          <ns3:TrackPointExtension>
            <ns3:atemp>30.0</ns3:atemp>
            <ns3:hr>81</ns3:hr>
          </ns3:TrackPointExtension>
        </extensions>
      </trkpt>
      <trkpt lat="36.86786052770912647247314453125" lon="-118.51648441515862941741943359375">
        <ele>2134.60009765625</ele>
        <time>2021-06-28T02:44:05.000Z</time>
        <extensions>
          <ns3:TrackPointExtension>
            <ns3:atemp>30.0</ns3:atemp>
            <ns3:hr>83</ns3:hr>
          </ns3:TrackPointExtension>
        </extensions>
      </trkpt>
      <trkpt lat="36.86791953630745410919189453125" lon="-118.5165446810424327850341796875">
        <ele>2134</ele>
        <time>2021-06-28T02:44:10.000Z</time>
        <extensions>
          <ns3:TrackPointExtension>
            <ns3:atemp>30.0</ns3:atemp>
            <ns3:hr>83</ns3:hr>
          </ns3:TrackPointExtension>
        </extensions>
      </trkpt>
      <trkpt lat="36.86793177388608455657958984375" lon="-118.51656689308583736419677734375">
        <ele>2134</ele>
        <time>2021-06-28T02:44:11.000Z</time>
        <extensions>
          <ns3:TrackPointExtension>
            <ns3:atemp>30.0</ns3:atemp>
            <ns3:hr>83</ns3:hr>
          </ns3:TrackPointExtension>
        </extensions>
      </trkpt>
      <trkpt lat="36.86793562956154346466064453125" lon="-118.5166454315185546875">
        <ele>2133.60009765625</ele>
        <time>2021-06-28T02:44:15.000Z</time>
        <extensions>
          <ns3:TrackPointExtension>
            <ns3:atemp>30.0</ns3:atemp>
            <ns3:hr>82</ns3:hr>
          </ns3:TrackPointExtension>
        </extensions>
      </trkpt>
      <trkpt lat="36.86793143860995769500732421875" lon="-118.51666487753391265869140625">
        <ele>2133.800048828125</ele>
        <time>2021-06-28T02:44:17.000Z</time>
        <extensions>
          <ns3:TrackPointExtension>
            <ns3:atemp>30.0</ns3:atemp>
            <ns3:hr>80</ns3:hr>
          </ns3:TrackPointExtension>
        </extensions>
      </trkpt>
      <trkpt lat="36.8679226376116275787353515625" lon="-118.51667501963675022125244140625">
        <ele>2133.800048828125</ele>
        <time>2021-06-28T02:44:19.000Z</time>
        <extensions>
          <ns3:TrackPointExtension>
            <ns3:atemp>30.0</ns3:atemp>
            <ns3:hr>79</ns3:hr>
          </ns3:TrackPointExtension>
        </extensions>
      </trkpt>
      <trkpt lat="36.86792121268808841705322265625" lon="-118.51671357639133930206298828125">
        <ele>2133.39990234375</ele>
        <time>2021-06-28T02:44:21.000Z</time>
        <extensions>
          <ns3:TrackPointExtension>
            <ns3:atemp>30.0</ns3:atemp>
            <ns3:hr>79</ns3:hr>
          </ns3:TrackPointExtension>
        </extensions>
      </trkpt>
      <trkpt lat="36.86794132925570011138916015625" lon="-118.51676881313323974609375">
        <ele>2133</ele>
        <time>2021-06-28T02:44:24.000Z</time>
        <extensions>
          <ns3:TrackPointExtension>
            <ns3:atemp>30.0</ns3:atemp>
            <ns3:hr>76</ns3:hr>
          </ns3:TrackPointExtension>
        </extensions>
      </trkpt>
      <trkpt lat="36.8679430894553661346435546875" lon="-118.516804687678813934326171875">
        <ele>2133</ele>
        <time>2021-06-28T02:44:27.000Z</time>
        <extensions>
          <ns3:TrackPointExtension>
            <ns3:atemp>30.0</ns3:atemp>
            <ns3:hr>76</ns3:hr>
          </ns3:TrackPointExtension>
        </extensions>
      </trkpt>
      <trkpt lat="36.86794401146471500396728515625" lon="-118.5168390534818172454833984375">
        <ele>2133</ele>
        <time>2021-06-28T02:44:29.000Z</time>
        <extensions>
          <ns3:TrackPointExtension>
            <ns3:atemp>30.0</ns3:atemp>
            <ns3:hr>77</ns3:hr>
          </ns3:TrackPointExtension>
        </extensions>
      </trkpt>
      <trkpt lat="36.86799279414117336273193359375" lon="-118.516932092607021331787109375">
        <ele>2133</ele>
        <time>2021-06-28T02:44:35.000Z</time>
        <extensions>
          <ns3:TrackPointExtension>
            <ns3:atemp>30.0</ns3:atemp>
            <ns3:hr>76</ns3:hr>
          </ns3:TrackPointExtension>
        </extensions>
      </trkpt>
      <trkpt lat="36.8679913692176342010498046875" lon="-118.517018258571624755859375">
        <ele>2132.60009765625</ele>
        <time>2021-06-28T02:44:40.000Z</time>
        <extensions>
          <ns3:TrackPointExtension>
            <ns3:atemp>30.0</ns3:atemp>
            <ns3:hr>76</ns3:hr>
          </ns3:TrackPointExtension>
        </extensions>
      </trkpt>
      <trkpt lat="36.86800654046237468719482421875" lon="-118.5170482657849788665771484375">
        <ele>2132.39990234375</ele>
        <time>2021-06-28T02:44:42.000Z</time>
        <extensions>
          <ns3:TrackPointExtension>
            <ns3:atemp>30.0</ns3:atemp>
            <ns3:hr>73</ns3:hr>
          </ns3:TrackPointExtension>
        </extensions>
      </trkpt>
      <trkpt lat="36.868014670908451080322265625" lon="-118.51705891080200672149658203125">
        <ele>2132.39990234375</ele>
        <time>2021-06-28T02:44:43.000Z</time>
        <extensions>
          <ns3:TrackPointExtension>
            <ns3:atemp>30.0</ns3:atemp>
            <ns3:hr>77</ns3:hr>
          </ns3:TrackPointExtension>
        </extensions>
      </trkpt>
      <trkpt lat="36.868022046983242034912109375" lon="-118.51706662215292453765869140625">
        <ele>2132.39990234375</ele>
        <time>2021-06-28T02:44:44.000Z</time>
        <extensions>
          <ns3:TrackPointExtension>
            <ns3:atemp>30.0</ns3:atemp>
            <ns3:hr>74</ns3:hr>
          </ns3:TrackPointExtension>
        </extensions>
      </trkpt>
      <trkpt lat="36.86802984215319156646728515625" lon="-118.5170734114944934844970703125">
        <ele>2132.39990234375</ele>
        <time>2021-06-28T02:44:45.000Z</time>
        <extensions>
          <ns3:TrackPointExtension>
            <ns3:atemp>30.0</ns3:atemp>
            <ns3:hr>77</ns3:hr>
          </ns3:TrackPointExtension>
        </extensions>
      </trkpt>
      <trkpt lat="36.8680741824209690093994140625" lon="-118.5170754231512546539306640625">
        <ele>2132.39990234375</ele>
        <time>2021-06-28T02:44:49.000Z</time>
        <extensions>
          <ns3:TrackPointExtension>
            <ns3:atemp>30.0</ns3:atemp>
            <ns3:hr>77</ns3:hr>
          </ns3:TrackPointExtension>
        </extensions>
      </trkpt>
      <trkpt lat="36.86808608472347259521484375" lon="-118.51707793772220611572265625">
        <ele>2132.199951171875</ele>
        <time>2021-06-28T02:44:50.000Z</time>
        <extensions>
          <ns3:TrackPointExtension>
            <ns3:atemp>30.0</ns3:atemp>
            <ns3:hr>77</ns3:hr>
          </ns3:TrackPointExtension>
        </extensions>
      </trkpt>
      <trkpt lat="36.86812807805836200714111328125" lon="-118.51707852445542812347412109375">
        <ele>2131.800048828125</ele>
        <time>2021-06-28T02:44:54.000Z</time>
        <extensions>
          <ns3:TrackPointExtension>
            <ns3:atemp>30.0</ns3:atemp>
            <ns3:hr>77</ns3:hr>
          </ns3:TrackPointExtension>
        </extensions>
      </trkpt>
      <trkpt lat="36.86816261149942874908447265625" lon="-118.51709528826177120208740234375">
        <ele>2132</ele>
        <time>2021-06-28T02:44:57.000Z</time>
        <extensions>
          <ns3:TrackPointExtension>
            <ns3:atemp>30.0</ns3:atemp>
            <ns3:hr>77</ns3:hr>
          </ns3:TrackPointExtension>
        </extensions>
      </trkpt>
      <trkpt lat="36.868207119405269622802734375" lon="-118.51705036126077175140380859375">
        <ele>2132</ele>
        <time>2021-06-28T02:45:01.000Z</time>
        <extensions>
          <ns3:TrackPointExtension>
            <ns3:atemp>30.0</ns3:atemp>
            <ns3:hr>79</ns3:hr>
          </ns3:TrackPointExtension>
        </extensions>
      </trkpt>
      <trkpt lat="36.86823100782930850982666015625" lon="-118.51701364852488040924072265625">
        <ele>2132</ele>
        <time>2021-06-28T02:45:04.000Z</time>
        <extensions>
          <ns3:TrackPointExtension>
            <ns3:atemp>30.0</ns3:atemp>
            <ns3:hr>80</ns3:hr>
          </ns3:TrackPointExtension>
        </extensions>
      </trkpt>
      <trkpt lat="36.86831532977521419525146484375" lon="-118.51698783226311206817626953125">
        <ele>2132.39990234375</ele>
        <time>2021-06-28T02:45:11.000Z</time>
        <extensions>
          <ns3:TrackPointExtension>
            <ns3:atemp>30.0</ns3:atemp>
            <ns3:hr>79</ns3:hr>
          </ns3:TrackPointExtension>
        </extensions>
      </trkpt>
      <trkpt lat="36.86832438223063945770263671875" lon="-118.51699571125209331512451171875">
        <ele>2132</ele>
        <time>2021-06-28T02:45:14.000Z</time>
        <extensions>
          <ns3:TrackPointExtension>
            <ns3:atemp>30.0</ns3:atemp>
            <ns3:hr>79</ns3:hr>
          </ns3:TrackPointExtension>
        </extensions>
      </trkpt>
      <trkpt lat="36.86833611689507961273193359375" lon="-118.51698665879666805267333984375">
        <ele>2131.800048828125</ele>
        <time>2021-06-28T02:45:17.000Z</time>
        <extensions>
          <ns3:TrackPointExtension>
            <ns3:atemp>30.0</ns3:atemp>
            <ns3:hr>79</ns3:hr>
          </ns3:TrackPointExtension>
        </extensions>
      </trkpt>
      <trkpt lat="36.86835003085434436798095703125" lon="-118.51698271930217742919921875">
        <ele>2131.800048828125</ele>
        <time>2021-06-28T02:45:18.000Z</time>
        <extensions>
          <ns3:TrackPointExtension>
            <ns3:atemp>30.0</ns3:atemp>
            <ns3:hr>79</ns3:hr>
          </ns3:TrackPointExtension>
        </extensions>
      </trkpt>
      <trkpt lat="36.8683719076216220855712890625" lon="-118.516970314085483551025390625">
        <ele>2132</ele>
        <time>2021-06-28T02:45:21.000Z</time>
        <extensions>
          <ns3:TrackPointExtension>
            <ns3:atemp>30.0</ns3:atemp>
            <ns3:hr>79</ns3:hr>
          </ns3:TrackPointExtension>
        </extensions>
      </trkpt>
      <trkpt lat="36.868384145200252532958984375" lon="-118.5169580765068531036376953125">
        <ele>2132</ele>
        <time>2021-06-28T02:45:23.000Z</time>
        <extensions>
          <ns3:TrackPointExtension>
            <ns3:atemp>30.0</ns3:atemp>
            <ns3:hr>79</ns3:hr>
          </ns3:TrackPointExtension>
        </extensions>
      </trkpt>
      <trkpt lat="36.8684047646820545196533203125" lon="-118.5169446654617786407470703125">
        <ele>2132.39990234375</ele>
        <time>2021-06-28T02:45:26.000Z</time>
        <extensions>
          <ns3:TrackPointExtension>
            <ns3:atemp>30.0</ns3:atemp>
            <ns3:hr>82</ns3:hr>
          </ns3:TrackPointExtension>
        </extensions>
      </trkpt>
      <trkpt lat="36.86842806637287139892578125" lon="-118.5169466771185398101806640625">
        <ele>2132.39990234375</ele>
        <time>2021-06-28T02:45:28.000Z</time>
        <extensions>
          <ns3:TrackPointExtension>
            <ns3:atemp>30.0</ns3:atemp>
            <ns3:hr>78</ns3:hr>
          </ns3:TrackPointExtension>
        </extensions>
      </trkpt>
      <trkpt lat="36.868453882634639739990234375" lon="-118.51694743148982524871826171875">
        <ele>2132.199951171875</ele>
        <time>2021-06-28T02:45:30.000Z</time>
        <extensions>
          <ns3:TrackPointExtension>
            <ns3:atemp>30.0</ns3:atemp>
            <ns3:hr>76</ns3:hr>
          </ns3:TrackPointExtension>
        </extensions>
      </trkpt>
      <trkpt lat="36.8684590794146060943603515625" lon="-118.51694391109049320220947265625">
        <ele>2132</ele>
        <time>2021-06-28T02:45:31.000Z</time>
        <extensions>
          <ns3:TrackPointExtension>
            <ns3:atemp>30.0</ns3:atemp>
            <ns3:hr>79</ns3:hr>
          </ns3:TrackPointExtension>
        </extensions>
      </trkpt>
      <trkpt lat="36.86855723150074481964111328125" lon="-118.5168641991913318634033203125">
        <ele>2132</ele>
        <time>2021-06-28T02:45:38.000Z</time>
        <extensions>
          <ns3:TrackPointExtension>
            <ns3:atemp>30.0</ns3:atemp>
            <ns3:hr>79</ns3:hr>
          </ns3:TrackPointExtension>
        </extensions>
      </trkpt>
      <trkpt lat="36.86859763227403163909912109375" lon="-118.51680560968816280364990234375">
        <ele>2132.39990234375</ele>
        <time>2021-06-28T02:45:45.000Z</time>
        <extensions>
          <ns3:TrackPointExtension>
            <ns3:atemp>30.0</ns3:atemp>
            <ns3:hr>78</ns3:hr>
          </ns3:TrackPointExtension>
        </extensions>
      </trkpt>
      <trkpt lat="36.86860777437686920166015625" lon="-118.5168092139065265655517578125">
        <ele>2132.39990234375</ele>
        <time>2021-06-28T02:45:46.000Z</time>
        <extensions>
          <ns3:TrackPointExtension>
            <ns3:atemp>30.0</ns3:atemp>
            <ns3:hr>77</ns3:hr>
          </ns3:TrackPointExtension>
        </extensions>
      </trkpt>
      <trkpt lat="36.8686394579708576202392578125" lon="-118.5168165899813175201416015625">
        <ele>2132.199951171875</ele>
        <time>2021-06-28T02:45:49.000Z</time>
        <extensions>
          <ns3:TrackPointExtension>
            <ns3:atemp>30.0</ns3:atemp>
            <ns3:hr>77</ns3:hr>
          </ns3:TrackPointExtension>
        </extensions>
      </trkpt>
      <trkpt lat="36.868661083281040191650390625" lon="-118.51682120002806186676025390625">
        <ele>2132.199951171875</ele>
        <time>2021-06-28T02:45:51.000Z</time>
        <extensions>
          <ns3:TrackPointExtension>
            <ns3:atemp>30.0</ns3:atemp>
            <ns3:hr>76</ns3:hr>
          </ns3:TrackPointExtension>
        </extensions>
      </trkpt>
      <trkpt lat="36.86870827339589595794677734375" lon="-118.516826815903186798095703125">
        <ele>2132</ele>
        <time>2021-06-28T02:45:57.000Z</time>
        <extensions>
          <ns3:TrackPointExtension>
            <ns3:atemp>30.0</ns3:atemp>
            <ns3:hr>76</ns3:hr>
          </ns3:TrackPointExtension>
        </extensions>
      </trkpt>
      <trkpt lat="36.86876845546066761016845703125" lon="-118.5168320126831531524658203125">
        <ele>2132.199951171875</ele>
        <time>2021-06-28T02:46:00.000Z</time>
        <extensions>
          <ns3:TrackPointExtension>
            <ns3:atemp>30.0</ns3:atemp>
            <ns3:hr>76</ns3:hr>
          </ns3:TrackPointExtension>
        </extensions>
      </trkpt>
      <trkpt lat="36.86880751512944698333740234375" lon="-118.51687165908515453338623046875">
        <ele>2132</ele>
        <time>2021-06-28T02:46:02.000Z</time>
        <extensions>
          <ns3:TrackPointExtension>
            <ns3:atemp>30.0</ns3:atemp>
            <ns3:hr>76</ns3:hr>
          </ns3:TrackPointExtension>
        </extensions>
      </trkpt>
      <trkpt lat="36.8688114546239376068115234375" lon="-118.51689755916595458984375">
        <ele>2132</ele>
        <time>2021-06-28T02:46:03.000Z</time>
        <extensions>
          <ns3:TrackPointExtension>
            <ns3:atemp>30.0</ns3:atemp>
            <ns3:hr>76</ns3:hr>
          </ns3:TrackPointExtension>
        </extensions>
      </trkpt>
      <trkpt lat="36.86884188093245029449462890625" lon="-118.51693385280668735504150390625">
        <ele>2132</ele>
        <time>2021-06-28T02:46:06.000Z</time>
        <extensions>
          <ns3:TrackPointExtension>
            <ns3:atemp>30.0</ns3:atemp>
            <ns3:hr>79</ns3:hr>
          </ns3:TrackPointExtension>
        </extensions>
      </trkpt>
      <trkpt lat="36.86885797418653964996337890625" lon="-118.5169503651559352874755859375">
        <ele>2132</ele>
        <time>2021-06-28T02:46:08.000Z</time>
        <extensions>
          <ns3:TrackPointExtension>
            <ns3:atemp>30.0</ns3:atemp>
            <ns3:hr>79</ns3:hr>
          </ns3:TrackPointExtension>
        </extensions>
      </trkpt>
      <trkpt lat="36.8688801862299442291259765625" lon="-118.51696930825710296630859375">
        <ele>2132.199951171875</ele>
        <time>2021-06-28T02:46:13.000Z</time>
        <extensions>
          <ns3:TrackPointExtension>
            <ns3:atemp>30.0</ns3:atemp>
            <ns3:hr>80</ns3:hr>
          </ns3:TrackPointExtension>
        </extensions>
      </trkpt>
      <trkpt lat="36.86890290118753910064697265625" lon="-118.51699001155793666839599609375">
        <ele>2132.39990234375</ele>
        <time>2021-06-28T02:46:15.000Z</time>
        <extensions>
          <ns3:TrackPointExtension>
            <ns3:atemp>30.0</ns3:atemp>
            <ns3:hr>79</ns3:hr>
          </ns3:TrackPointExtension>
        </extensions>
      </trkpt>
      <trkpt lat="36.86891622841358184814453125" lon="-118.5170382075011730194091796875">
        <ele>2132.39990234375</ele>
        <time>2021-06-28T02:46:20.000Z</time>
        <extensions>
          <ns3:TrackPointExtension>
            <ns3:atemp>30.0</ns3:atemp>
            <ns3:hr>79</ns3:hr>
          </ns3:TrackPointExtension>
        </extensions>
      </trkpt>
      <trkpt lat="36.86892955563962459564208984375" lon="-118.51705471985042095184326171875">
        <ele>2132.39990234375</ele>
        <time>2021-06-28T02:46:22.000Z</time>
        <extensions>
          <ns3:TrackPointExtension>
            <ns3:atemp>30.0</ns3:atemp>
            <ns3:hr>81</ns3:hr>
          </ns3:TrackPointExtension>
        </extensions>
      </trkpt>
      <trkpt lat="36.8689398653805255889892578125" lon="-118.51706092245876789093017578125">
        <ele>2132.199951171875</ele>
        <time>2021-06-28T02:46:23.000Z</time>
        <extensions>
          <ns3:TrackPointExtension>
            <ns3:atemp>30.0</ns3:atemp>
            <ns3:hr>81</ns3:hr>
          </ns3:TrackPointExtension>
        </extensions>
      </trkpt>
      <trkpt lat="36.869017817080020904541015625" lon="-118.51708925329148769378662109375">
        <ele>2131.800048828125</ele>
        <time>2021-06-28T02:46:31.000Z</time>
        <extensions>
          <ns3:TrackPointExtension>
            <ns3:atemp>30.0</ns3:atemp>
            <ns3:hr>82</ns3:hr>
          </ns3:TrackPointExtension>
        </extensions>
      </trkpt>
      <trkpt lat="36.86905704438686370849609375" lon="-118.5170962102711200714111328125">
        <ele>2131.800048828125</ele>
        <time>2021-06-28T02:46:34.000Z</time>
        <extensions>
          <ns3:TrackPointExtension>
            <ns3:atemp>30.0</ns3:atemp>
            <ns3:hr>83</ns3:hr>
          </ns3:TrackPointExtension>
        </extensions>
      </trkpt>
      <trkpt lat="36.86909736134111881256103515625" lon="-118.517062850296497344970703125">
        <ele>2132</ele>
        <time>2021-06-28T02:46:38.000Z</time>
        <extensions>
          <ns3:TrackPointExtension>
            <ns3:atemp>30.0</ns3:atemp>
            <ns3:hr>86</ns3:hr>
          </ns3:TrackPointExtension>
        </extensions>
      </trkpt>
      <trkpt lat="36.86910264194011688232421875" lon="-118.517044074833393096923828125">
        <ele>2132</ele>
        <time>2021-06-28T02:46:39.000Z</time>
        <extensions>
          <ns3:TrackPointExtension>
            <ns3:atemp>30.0</ns3:atemp>
            <ns3:hr>86</ns3:hr>
          </ns3:TrackPointExtension>
        </extensions>
      </trkpt>
      <trkpt lat="36.86911295168101787567138671875" lon="-118.51704499684274196624755859375">
        <ele>2132</ele>
        <time>2021-06-28T02:46:40.000Z</time>
        <extensions>
          <ns3:TrackPointExtension>
            <ns3:atemp>30.0</ns3:atemp>
            <ns3:hr>83</ns3:hr>
          </ns3:TrackPointExtension>
        </extensions>
      </trkpt>
      <trkpt lat="36.86913172714412212371826171875" lon="-118.51706318557262420654296875">
        <ele>2131.800048828125</ele>
        <time>2021-06-28T02:46:45.000Z</time>
        <extensions>
          <ns3:TrackPointExtension>
            <ns3:atemp>30.0</ns3:atemp>
            <ns3:hr>82</ns3:hr>
          </ns3:TrackPointExtension>
        </extensions>
      </trkpt>
      <trkpt lat="36.86912619508802890777587890625" lon="-118.5170747525990009307861328125">
        <ele>2132</ele>
        <time>2021-06-28T02:46:48.000Z</time>
        <extensions>
          <ns3:TrackPointExtension>
            <ns3:atemp>30.0</ns3:atemp>
            <ns3:hr>80</ns3:hr>
          </ns3:TrackPointExtension>
        </extensions>
      </trkpt>
      <trkpt lat="36.8691222555935382843017578125" lon="-118.51707793772220611572265625">
        <ele>2132</ele>
        <time>2021-06-28T02:46:53.000Z</time>
        <extensions>
          <ns3:TrackPointExtension>
            <ns3:atemp>30.0</ns3:atemp>
            <ns3:hr>80</ns3:hr>
          </ns3:TrackPointExtension>
        </extensions>
      </trkpt>
      <trkpt lat="36.8691383488476276397705078125" lon="-118.517002165317535400390625">
        <ele>2132</ele>
        <time>2021-06-28T02:47:02.000Z</time>
        <extensions>
          <ns3:TrackPointExtension>
            <ns3:atemp>30.0</ns3:atemp>
            <ns3:hr>79</ns3:hr>
          </ns3:TrackPointExtension>
        </extensions>
      </trkpt>
      <trkpt lat="36.86917698942124843597412109375" lon="-118.516896553337574005126953125">
        <ele>2132.199951171875</ele>
        <time>2021-06-28T02:47:08.000Z</time>
        <extensions>
          <ns3:TrackPointExtension>
            <ns3:atemp>30.0</ns3:atemp>
            <ns3:hr>81</ns3:hr>
          </ns3:TrackPointExtension>
        </extensions>
      </trkpt>
      <trkpt lat="36.86920188367366790771484375" lon="-118.51679504849016666412353515625">
        <ele>2132.60009765625</ele>
        <time>2021-06-28T02:47:13.000Z</time>
        <extensions>
          <ns3:TrackPointExtension>
            <ns3:atemp>30.0</ns3:atemp>
            <ns3:hr>83</ns3:hr>
          </ns3:TrackPointExtension>
        </extensions>
      </trkpt>
      <trkpt lat="36.86928570270538330078125" lon="-118.51668767631053924560546875">
        <ele>2132.60009765625</ele>
        <time>2021-06-28T02:47:21.000Z</time>
        <extensions>
          <ns3:TrackPointExtension>
            <ns3:atemp>30.0</ns3:atemp>
            <ns3:hr>86</ns3:hr>
          </ns3:TrackPointExtension>
        </extensions>
      </trkpt>
      <trkpt lat="36.86929576098918914794921875" lon="-118.5166777856647968292236328125">
        <ele>2132.60009765625</ele>
        <time>2021-06-28T02:47:22.000Z</time>
        <extensions>
          <ns3:TrackPointExtension>
            <ns3:atemp>30.0</ns3:atemp>
            <ns3:hr>85</ns3:hr>
          </ns3:TrackPointExtension>
        </extensions>
      </trkpt>
      <trkpt lat="36.86933523975312709808349609375" lon="-118.51663160137832164764404296875">
        <ele>2132.800048828125</ele>
        <time>2021-06-28T02:47:26.000Z</time>
        <extensions>
          <ns3:TrackPointExtension>
            <ns3:atemp>30.0</ns3:atemp>
            <ns3:hr>84</ns3:hr>
          </ns3:TrackPointExtension>
        </extensions>
      </trkpt>
      <trkpt lat="36.86935468576848506927490234375" lon="-118.51659824140369892120361328125">
        <ele>2133</ele>
        <time>2021-06-28T02:47:28.000Z</time>
        <extensions>
          <ns3:TrackPointExtension>
            <ns3:atemp>30.0</ns3:atemp>
            <ns3:hr>85</ns3:hr>
          </ns3:TrackPointExtension>
        </extensions>
      </trkpt>
      <trkpt lat="36.8693539313971996307373046875" lon="-118.5165802203118801116943359375">
        <ele>2133</ele>
        <time>2021-06-28T02:47:29.000Z</time>
        <extensions>
          <ns3:TrackPointExtension>
            <ns3:atemp>30.0</ns3:atemp>
            <ns3:hr>86</ns3:hr>
          </ns3:TrackPointExtension>
        </extensions>
      </trkpt>
      <trkpt lat="36.86935686506330966949462890625" lon="-118.51655784063041210174560546875">
        <ele>2133</ele>
        <time>2021-06-28T02:47:30.000Z</time>
        <extensions>
          <ns3:TrackPointExtension>
            <ns3:atemp>29.0</ns3:atemp>
            <ns3:hr>84</ns3:hr>
          </ns3:TrackPointExtension>
        </extensions>
      </trkpt>
      <trkpt lat="36.86937144957482814788818359375" lon="-118.516530431807041168212890625">
        <ele>2133</ele>
        <time>2021-06-28T02:47:32.000Z</time>
        <extensions>
          <ns3:TrackPointExtension>
            <ns3:atemp>29.0</ns3:atemp>
            <ns3:hr>87</ns3:hr>
          </ns3:TrackPointExtension>
        </extensions>
      </trkpt>
      <trkpt lat="36.869412772357463836669921875" lon="-118.5164883546531200408935546875">
        <ele>2133.60009765625</ele>
        <time>2021-06-28T02:47:37.000Z</time>
        <extensions>
          <ns3:TrackPointExtension>
            <ns3:atemp>29.0</ns3:atemp>
            <ns3:hr>90</ns3:hr>
          </ns3:TrackPointExtension>
        </extensions>
      </trkpt>
      <trkpt lat="36.86942609958350658416748046875" lon="-118.51648692972958087921142578125">
        <ele>2133.60009765625</ele>
        <time>2021-06-28T02:47:38.000Z</time>
        <extensions>
          <ns3:TrackPointExtension>
            <ns3:atemp>29.0</ns3:atemp>
            <ns3:hr>89</ns3:hr>
          </ns3:TrackPointExtension>
        </extensions>
      </trkpt>
      <trkpt lat="36.86947253532707691192626953125" lon="-118.51647066883742809295654296875">
        <ele>2133.60009765625</ele>
        <time>2021-06-28T02:47:42.000Z</time>
        <extensions>
          <ns3:TrackPointExtension>
            <ns3:atemp>29.0</ns3:atemp>
            <ns3:hr>92</ns3:hr>
          </ns3:TrackPointExtension>
        </extensions>
      </trkpt>
      <trkpt lat="36.8695058114826679229736328125" lon="-118.51647041738033294677734375">
        <ele>2133.60009765625</ele>
        <time>2021-06-28T02:47:45.000Z</time>
        <extensions>
          <ns3:TrackPointExtension>
            <ns3:atemp>29.0</ns3:atemp>
            <ns3:hr>92</ns3:hr>
          </ns3:TrackPointExtension>
        </extensions>
      </trkpt>
      <trkpt lat="36.869554929435253143310546875" lon="-118.51644921116530895233154296875">
        <ele>2133</ele>
        <time>2021-06-28T02:47:53.000Z</time>
        <extensions>
          <ns3:TrackPointExtension>
            <ns3:atemp>29.0</ns3:atemp>
            <ns3:hr>91</ns3:hr>
          </ns3:TrackPointExtension>
        </extensions>
      </trkpt>
      <trkpt lat="36.86957060359418392181396484375" lon="-118.51642104797065258026123046875">
        <ele>2133</ele>
        <time>2021-06-28T02:47:56.000Z</time>
        <extensions>
          <ns3:TrackPointExtension>
            <ns3:atemp>29.0</ns3:atemp>
            <ns3:hr>91</ns3:hr>
          </ns3:TrackPointExtension>
        </extensions>
      </trkpt>
      <trkpt lat="36.86957412399351596832275390625" lon="-118.51641451008617877960205078125">
        <ele>2133</ele>
        <time>2021-06-28T02:47:58.000Z</time>
        <extensions>
          <ns3:TrackPointExtension>
            <ns3:atemp>29.0</ns3:atemp>
            <ns3:hr>90</ns3:hr>
          </ns3:TrackPointExtension>
        </extensions>
      </trkpt>
      <trkpt lat="36.86957739293575286865234375" lon="-118.51641677320003509521484375">
        <ele>2133</ele>
        <time>2021-06-28T02:47:59.000Z</time>
        <extensions>
          <ns3:TrackPointExtension>
            <ns3:atemp>29.0</ns3:atemp>
            <ns3:hr>92</ns3:hr>
          </ns3:TrackPointExtension>
        </extensions>
      </trkpt>
      <trkpt lat="36.86960027553141117095947265625" lon="-118.51640872657299041748046875">
        <ele>2133</ele>
        <time>2021-06-28T02:48:03.000Z</time>
        <extensions>
          <ns3:TrackPointExtension>
            <ns3:atemp>29.0</ns3:atemp>
            <ns3:hr>97</ns3:hr>
          </ns3:TrackPointExtension>
        </extensions>
      </trkpt>
      <trkpt lat="36.8696006946265697479248046875" lon="-118.5164080560207366943359375">
        <ele>2133</ele>
        <time>2021-06-28T02:48:05.000Z</time>
        <extensions>
          <ns3:TrackPointExtension>
            <ns3:atemp>29.0</ns3:atemp>
            <ns3:hr>102</ns3:hr>
          </ns3:TrackPointExtension>
        </extensions>
      </trkpt>
      <trkpt lat="36.86960597522556781768798828125" lon="-118.51640562526881694793701171875">
        <ele>2133.199951171875</ele>
        <time>2021-06-28T02:48:06.000Z</time>
        <extensions>
          <ns3:TrackPointExtension>
            <ns3:atemp>29.0</ns3:atemp>
            <ns3:hr>102</ns3:hr>
          </ns3:TrackPointExtension>
        </extensions>
      </trkpt>
      <trkpt lat="36.86960765160620212554931640625" lon="-118.5163834132254123687744140625">
        <ele>2133.199951171875</ele>
        <time>2021-06-28T02:48:08.000Z</time>
        <extensions>
          <ns3:TrackPointExtension>
            <ns3:atemp>29.0</ns3:atemp>
            <ns3:hr>102</ns3:hr>
          </ns3:TrackPointExtension>
        </extensions>
      </trkpt>
      <trkpt lat="36.86961988918483257293701171875" lon="-118.51633823476731777191162109375">
        <ele>2134</ele>
        <time>2021-06-28T02:48:13.000Z</time>
        <extensions>
          <ns3:TrackPointExtension>
            <ns3:atemp>29.0</ns3:atemp>
            <ns3:hr>100</ns3:hr>
          </ns3:TrackPointExtension>
        </extensions>
      </trkpt>
      <trkpt lat="36.86963162384927272796630859375" lon="-118.51633722893893718719482421875">
        <ele>2134</ele>
        <time>2021-06-28T02:48:15.000Z</time>
        <extensions>
          <ns3:TrackPointExtension>
            <ns3:atemp>29.0</ns3:atemp>
            <ns3:hr>98</ns3:hr>
          </ns3:TrackPointExtension>
        </extensions>
      </trkpt>
      <trkpt lat="36.86963246203958988189697265625" lon="-118.51633655838668346405029296875">
        <ele>2134</ele>
        <time>2021-06-28T02:48:16.000Z</time>
        <extensions>
          <ns3:TrackPointExtension>
            <ns3:atemp>29.0</ns3:atemp>
            <ns3:hr>98</ns3:hr>
          </ns3:TrackPointExtension>
        </extensions>
      </trkpt>
      <trkpt lat="36.869640760123729705810546875" lon="-118.516350723803043365478515625">
        <ele>2134</ele>
        <time>2021-06-28T02:48:21.000Z</time>
        <extensions>
          <ns3:TrackPointExtension>
            <ns3:atemp>29.0</ns3:atemp>
            <ns3:hr>100</ns3:hr>
          </ns3:TrackPointExtension>
        </extensions>
      </trkpt>
      <trkpt lat="36.86962860636413097381591796875" lon="-118.5163247399032115936279296875">
        <ele>2133.800048828125</ele>
        <time>2021-06-28T02:48:27.000Z</time>
        <extensions>
          <ns3:TrackPointExtension>
            <ns3:atemp>29.0</ns3:atemp>
            <ns3:hr>102</ns3:hr>
          </ns3:TrackPointExtension>
        </extensions>
      </trkpt>
      <trkpt lat="36.8696198053658008575439453125" lon="-118.51632834412157535552978515625">
        <ele>2133.800048828125</ele>
        <time>2021-06-28T02:48:31.000Z</time>
        <extensions>
          <ns3:TrackPointExtension>
            <ns3:atemp>29.0</ns3:atemp>
            <ns3:hr>96</ns3:hr>
          </ns3:TrackPointExtension>
        </extensions>
      </trkpt>
      <trkpt lat="36.86960714869201183319091796875" lon="-118.51636170409619808197021484375">
        <ele>2133.800048828125</ele>
        <time>2021-06-28T02:48:34.000Z</time>
        <extensions>
          <ns3:TrackPointExtension>
            <ns3:atemp>29.0</ns3:atemp>
            <ns3:hr>92</ns3:hr>
          </ns3:TrackPointExtension>
        </extensions>
      </trkpt>
      <trkpt lat="36.86954512260854244232177734375" lon="-118.516395986080169677734375">
        <ele>2133.199951171875</ele>
        <time>2021-06-28T02:48:41.000Z</time>
        <extensions>
          <ns3:TrackPointExtension>
            <ns3:atemp>29.0</ns3:atemp>
            <ns3:hr>91</ns3:hr>
          </ns3:TrackPointExtension>
        </extensions>
      </trkpt>
      <trkpt lat="36.86952165327966213226318359375" lon="-118.51642976514995098114013671875">
        <ele>2133</ele>
        <time>2021-06-28T02:48:46.000Z</time>
        <extensions>
          <ns3:TrackPointExtension>
            <ns3:atemp>29.0</ns3:atemp>
            <ns3:hr>91</ns3:hr>
          </ns3:TrackPointExtension>
        </extensions>
      </trkpt>
      <trkpt lat="36.86952098272740840911865234375" lon="-118.51642624475061893463134765625">
        <ele>2133</ele>
        <time>2021-06-28T02:48:47.000Z</time>
        <extensions>
          <ns3:TrackPointExtension>
            <ns3:atemp>29.0</ns3:atemp>
            <ns3:hr>91</ns3:hr>
          </ns3:TrackPointExtension>
        </extensions>
      </trkpt>
      <trkpt lat="36.86951704323291778564453125" lon="-118.5164219699800014495849609375">
        <ele>2132.800048828125</ele>
        <time>2021-06-28T02:48:48.000Z</time>
        <extensions>
          <ns3:TrackPointExtension>
            <ns3:atemp>29.0</ns3:atemp>
            <ns3:hr>91</ns3:hr>
          </ns3:TrackPointExtension>
        </extensions>
      </trkpt>
      <trkpt lat="36.86951025389134883880615234375" lon="-118.51643227972090244293212890625">
        <ele>2132</ele>
        <time>2021-06-28T02:48:53.000Z</time>
        <extensions>
          <ns3:TrackPointExtension>
            <ns3:atemp>29.0</ns3:atemp>
            <ns3:hr>90</ns3:hr>
          </ns3:TrackPointExtension>
        </extensions>
      </trkpt>
      <trkpt lat="36.86952852644026279449462890625" lon="-118.51646371185779571533203125">
        <ele>2132.199951171875</ele>
        <time>2021-06-28T02:49:00.000Z</time>
        <extensions>
          <ns3:TrackPointExtension>
            <ns3:atemp>29.0</ns3:atemp>
            <ns3:hr>89</ns3:hr>
          </ns3:TrackPointExtension>
        </extensions>
      </trkpt>
      <trkpt lat="36.86952852644026279449462890625" lon="-118.51646371185779571533203125">
        <ele>2132.199951171875</ele>
        <time>2021-06-28T02:49:04.000Z</time>
        <extensions>
          <ns3:TrackPointExtension>
            <ns3:atemp>29.0</ns3:atemp>
            <ns3:hr>86</ns3:hr>
          </ns3:TrackPointExtension>
        </extensions>
      </trkpt>
      <trkpt lat="36.86952852644026279449462890625" lon="-118.51644082926213741302490234375">
        <ele>2132</ele>
        <time>2021-06-28T02:49:11.000Z</time>
        <extensions>
          <ns3:TrackPointExtension>
            <ns3:atemp>29.0</ns3:atemp>
            <ns3:hr>89</ns3:hr>
          </ns3:TrackPointExtension>
        </extensions>
      </trkpt>
      <trkpt lat="36.86953757889568805694580078125" lon="-118.51643797941505908966064453125">
        <ele>2131.60009765625</ele>
        <time>2021-06-28T02:49:22.000Z</time>
        <extensions>
          <ns3:TrackPointExtension>
            <ns3:atemp>29.0</ns3:atemp>
            <ns3:hr>89</ns3:hr>
          </ns3:TrackPointExtension>
        </extensions>
      </trkpt>
      <trkpt lat="36.86954998411238193511962890625" lon="-118.51643814705312252044677734375">
        <ele>2132</ele>
        <time>2021-06-28T02:49:33.000Z</time>
        <extensions>
          <ns3:TrackPointExtension>
            <ns3:atemp>29.0</ns3:atemp>
            <ns3:hr>92</ns3:hr>
          </ns3:TrackPointExtension>
        </extensions>
      </trkpt>
      <trkpt lat="36.86957596801221370697021484375" lon="-118.51645306684076786041259765625">
        <ele>2131.800048828125</ele>
        <time>2021-06-28T02:49:41.000Z</time>
        <extensions>
          <ns3:TrackPointExtension>
            <ns3:atemp>29.0</ns3:atemp>
            <ns3:hr>95</ns3:hr>
          </ns3:TrackPointExtension>
        </extensions>
      </trkpt>
      <trkpt lat="36.86959574930369853973388671875" lon="-118.51646505296230316162109375">
        <ele>2131.60009765625</ele>
        <time>2021-06-28T02:49:54.000Z</time>
        <extensions>
          <ns3:TrackPointExtension>
            <ns3:atemp>29.0</ns3:atemp>
            <ns3:hr>95</ns3:hr>
          </ns3:TrackPointExtension>
        </extensions>
      </trkpt>
      <trkpt lat="36.86959574930369853973388671875" lon="-118.51646505296230316162109375">
        <ele>2131.60009765625</ele>
        <time>2021-06-28T02:49:59.000Z</time>
        <extensions>
          <ns3:TrackPointExtension>
            <ns3:atemp>29.0</ns3:atemp>
            <ns3:hr>92</ns3:hr>
          </ns3:TrackPointExtension>
        </extensions>
      </trkpt>
      <trkpt lat="36.86959616839885711669921875" lon="-118.51646899245679378509521484375">
        <ele>2131.60009765625</ele>
        <time>2021-06-28T02:50:02.000Z</time>
        <extensions>
          <ns3:TrackPointExtension>
            <ns3:atemp>29.0</ns3:atemp>
            <ns3:hr>89</ns3:hr>
          </ns3:TrackPointExtension>
        </extensions>
      </trkpt>
      <trkpt lat="36.86959616839885711669921875" lon="-118.51647452451288700103759765625">
        <ele>2131.800048828125</ele>
        <time>2021-06-28T02:50:06.000Z</time>
        <extensions>
          <ns3:TrackPointExtension>
            <ns3:atemp>29.0</ns3:atemp>
            <ns3:hr>86</ns3:hr>
          </ns3:TrackPointExtension>
        </extensions>
      </trkpt>
      <trkpt lat="36.86959616839885711669921875" lon="-118.5164776258170604705810546875">
        <ele>2131.800048828125</ele>
        <time>2021-06-28T02:50:09.000Z</time>
        <extensions>
          <ns3:TrackPointExtension>
            <ns3:atemp>29.0</ns3:atemp>
            <ns3:hr>83</ns3:hr>
          </ns3:TrackPointExtension>
        </extensions>
      </trkpt>
      <trkpt lat="36.86959616839885711669921875" lon="-118.5164786316454410552978515625">
        <ele>2131.800048828125</ele>
        <time>2021-06-28T02:50:10.000Z</time>
        <extensions>
          <ns3:TrackPointExtension>
            <ns3:atemp>29.0</ns3:atemp>
            <ns3:hr>80</ns3:hr>
          </ns3:TrackPointExtension>
        </extensions>
      </trkpt>
      <trkpt lat="36.86959625221788883209228515625" lon="-118.51648055948317050933837890625">
        <ele>2131.800048828125</ele>
        <time>2021-06-28T02:50:15.000Z</time>
        <extensions>
          <ns3:TrackPointExtension>
            <ns3:atemp>29.0</ns3:atemp>
            <ns3:hr>77</ns3:hr>
          </ns3:TrackPointExtension>
        </extensions>
      </trkpt>
      <trkpt lat="36.86960413120687007904052734375" lon="-118.51651593111455440521240234375">
        <ele>2131.800048828125</ele>
        <time>2021-06-28T02:50:39.000Z</time>
        <extensions>
          <ns3:TrackPointExtension>
            <ns3:atemp>29.0</ns3:atemp>
            <ns3:hr>80</ns3:hr>
          </ns3:TrackPointExtension>
        </extensions>
      </trkpt>
      <trkpt lat="36.86961486004292964935302734375" lon="-118.51654292084276676177978515625">
        <ele>2131.800048828125</ele>
        <time>2021-06-28T02:50:57.000Z</time>
        <extensions>
          <ns3:TrackPointExtension>
            <ns3:atemp>29.0</ns3:atemp>
            <ns3:hr>83</ns3:hr>
          </ns3:TrackPointExtension>
        </extensions>
      </trkpt>
      <trkpt lat="36.8696196377277374267578125" lon="-118.51654157973825931549072265625">
        <ele>2131.800048828125</ele>
        <time>2021-06-28T02:51:07.000Z</time>
        <extensions>
          <ns3:TrackPointExtension>
            <ns3:atemp>29.0</ns3:atemp>
            <ns3:hr>86</ns3:hr>
          </ns3:TrackPointExtension>
        </extensions>
      </trkpt>
      <trkpt lat="36.86960815452039241790771484375" lon="-118.5165024362504482269287109375">
        <ele>2131.800048828125</ele>
        <time>2021-06-28T02:51:35.000Z</time>
        <extensions>
          <ns3:TrackPointExtension>
            <ns3:atemp>29.0</ns3:atemp>
            <ns3:hr>83</ns3:hr>
          </ns3:TrackPointExtension>
        </extensions>
      </trkpt>
      <trkpt lat="36.8696355633437633514404296875" lon="-118.5165041126310825347900390625">
        <ele>2131.800048828125</ele>
        <time>2021-06-28T02:51:55.000Z</time>
        <extensions>
          <ns3:TrackPointExtension>
            <ns3:atemp>29.0</ns3:atemp>
            <ns3:hr>86</ns3:hr>
          </ns3:TrackPointExtension>
        </extensions>
      </trkpt>
      <trkpt lat="36.86962701380252838134765625" lon="-118.5165245644748210906982421875">
        <ele>2131.800048828125</ele>
        <time>2021-06-28T02:52:16.000Z</time>
        <extensions>
          <ns3:TrackPointExtension>
            <ns3:atemp>29.0</ns3:atemp>
            <ns3:hr>85</ns3:hr>
          </ns3:TrackPointExtension>
        </extensions>
      </trkpt>
      <trkpt lat="36.86962408013641834259033203125" lon="-118.51653269492089748382568359375">
        <ele>2131.800048828125</ele>
        <time>2021-06-28T02:52:33.000Z</time>
        <extensions>
          <ns3:TrackPointExtension>
            <ns3:atemp>29.0</ns3:atemp>
            <ns3:hr>88</ns3:hr>
          </ns3:TrackPointExtension>
        </extensions>
      </trkpt>
      <trkpt lat="36.86963078565895557403564453125" lon="-118.516534455120563507080078125">
        <ele>2131.800048828125</ele>
        <time>2021-06-28T02:52:36.000Z</time>
        <extensions>
          <ns3:TrackPointExtension>
            <ns3:atemp>29.0</ns3:atemp>
            <ns3:hr>88</ns3:hr>
          </ns3:TrackPointExtension>
        </extensions>
      </trkpt>
      <trkpt lat="36.8696322105824947357177734375" lon="-118.5165342874825000762939453125">
        <ele>2131.800048828125</ele>
        <time>2021-06-28T02:52:37.000Z</time>
        <extensions>
          <ns3:TrackPointExtension>
            <ns3:atemp>29.0</ns3:atemp>
            <ns3:hr>91</ns3:hr>
          </ns3:TrackPointExtension>
        </extensions>
      </trkpt>
      <trkpt lat="36.86963279731571674346923828125" lon="-118.5165326111018657684326171875">
        <ele>2131.800048828125</ele>
        <time>2021-06-28T02:52:38.000Z</time>
        <extensions>
          <ns3:TrackPointExtension>
            <ns3:atemp>29.0</ns3:atemp>
            <ns3:hr>92</ns3:hr>
          </ns3:TrackPointExtension>
        </extensions>
      </trkpt>
      <trkpt lat="36.86963279731571674346923828125" lon="-118.5165326111018657684326171875">
        <ele>2131.800048828125</ele>
        <time>2021-06-28T02:52:39.000Z</time>
        <extensions>
          <ns3:TrackPointExtension>
            <ns3:atemp>29.0</ns3:atemp>
            <ns3:hr>96</ns3:hr>
          </ns3:TrackPointExtension>
        </extensions>
      </trkpt>
      <trkpt lat="36.86963279731571674346923828125" lon="-118.5165326111018657684326171875">
        <ele>2131.60009765625</ele>
        <time>2021-06-28T02:52:43.000Z</time>
        <extensions>
          <ns3:TrackPointExtension>
            <ns3:atemp>29.0</ns3:atemp>
            <ns3:hr>99</ns3:hr>
          </ns3:TrackPointExtension>
        </extensions>
      </trkpt>
      <trkpt lat="36.86963279731571674346923828125" lon="-118.5165326111018657684326171875">
        <ele>2131.199951171875</ele>
        <time>2021-06-28T02:52:46.000Z</time>
        <extensions>
          <ns3:TrackPointExtension>
            <ns3:atemp>29.0</ns3:atemp>
            <ns3:hr>98</ns3:hr>
          </ns3:TrackPointExtension>
        </extensions>
      </trkpt>
      <trkpt lat="36.86963279731571674346923828125" lon="-118.5165326111018657684326171875">
        <ele>2131.199951171875</ele>
        <time>2021-06-28T02:52:49.000Z</time>
        <extensions>
          <ns3:TrackPointExtension>
            <ns3:atemp>29.0</ns3:atemp>
            <ns3:hr>95</ns3:hr>
          </ns3:TrackPointExtension>
        </extensions>
      </trkpt>
      <trkpt lat="36.86962240375578403472900390625" lon="-118.51650453172624111175537109375">
        <ele>2131.39990234375</ele>
        <time>2021-06-28T02:52:59.000Z</time>
        <extensions>
          <ns3:TrackPointExtension>
            <ns3:atemp>29.0</ns3:atemp>
            <ns3:hr>92</ns3:hr>
          </ns3:TrackPointExtension>
        </extensions>
      </trkpt>
      <trkpt lat="36.86961092054843902587890625" lon="-118.51649665273725986480712890625">
        <ele>2131.39990234375</ele>
        <time>2021-06-28T02:53:01.000Z</time>
        <extensions>
          <ns3:TrackPointExtension>
            <ns3:atemp>29.0</ns3:atemp>
            <ns3:hr>89</ns3:hr>
          </ns3:TrackPointExtension>
        </extensions>
      </trkpt>
      <trkpt lat="36.86961092054843902587890625" lon="-118.51649229414761066436767578125">
        <ele>2131.60009765625</ele>
        <time>2021-06-28T02:53:16.000Z</time>
        <extensions>
          <ns3:TrackPointExtension>
            <ns3:atemp>29.0</ns3:atemp>
            <ns3:hr>86</ns3:hr>
          </ns3:TrackPointExtension>
        </extensions>
      </trkpt>
      <trkpt lat="36.869611255824565887451171875" lon="-118.516492210328578948974609375">
        <ele>2131.60009765625</ele>
        <time>2021-06-28T02:53:20.000Z</time>
        <extensions>
          <ns3:TrackPointExtension>
            <ns3:atemp>29.0</ns3:atemp>
            <ns3:hr>83</ns3:hr>
          </ns3:TrackPointExtension>
        </extensions>
      </trkpt>
      <trkpt lat="36.869611255824565887451171875" lon="-118.516492210328578948974609375">
        <ele>2131.60009765625</ele>
        <time>2021-06-28T02:53:22.000Z</time>
        <extensions>
          <ns3:TrackPointExtension>
            <ns3:atemp>29.0</ns3:atemp>
            <ns3:hr>79</ns3:hr>
          </ns3:TrackPointExtension>
        </extensions>
      </trkpt>
      <trkpt lat="36.8696151115000247955322265625" lon="-118.51647821255028247833251953125">
        <ele>2131.60009765625</ele>
        <time>2021-06-28T02:53:32.000Z</time>
        <extensions>
          <ns3:TrackPointExtension>
            <ns3:atemp>29.0</ns3:atemp>
            <ns3:hr>84</ns3:hr>
          </ns3:TrackPointExtension>
        </extensions>
      </trkpt>
      <trkpt lat="36.8696151115000247955322265625" lon="-118.51647485978901386260986328125">
        <ele>2131.60009765625</ele>
        <time>2021-06-28T02:53:35.000Z</time>
        <extensions>
          <ns3:TrackPointExtension>
            <ns3:atemp>29.0</ns3:atemp>
            <ns3:hr>87</ns3:hr>
          </ns3:TrackPointExtension>
        </extensions>
      </trkpt>
      <trkpt lat="36.86962835490703582763671875" lon="-118.5164611972868442535400390625">
        <ele>2131.39990234375</ele>
        <time>2021-06-28T02:53:42.000Z</time>
        <extensions>
          <ns3:TrackPointExtension>
            <ns3:atemp>29.0</ns3:atemp>
            <ns3:hr>90</ns3:hr>
          </ns3:TrackPointExtension>
        </extensions>
      </trkpt>
      <trkpt lat="36.86963162384927272796630859375" lon="-118.5164585150778293609619140625">
        <ele>2131.39990234375</ele>
        <time>2021-06-28T02:53:44.000Z</time>
        <extensions>
          <ns3:TrackPointExtension>
            <ns3:atemp>29.0</ns3:atemp>
            <ns3:hr>93</ns3:hr>
          </ns3:TrackPointExtension>
        </extensions>
      </trkpt>
      <trkpt lat="36.86963195912539958953857421875" lon="-118.51644820533692836761474609375">
        <ele>2131.39990234375</ele>
        <time>2021-06-28T02:53:49.000Z</time>
        <extensions>
          <ns3:TrackPointExtension>
            <ns3:atemp>29.0</ns3:atemp>
            <ns3:hr>96</ns3:hr>
          </ns3:TrackPointExtension>
        </extensions>
      </trkpt>
      <trkpt lat="36.86963849700987339019775390625" lon="-118.51642775349318981170654296875">
        <ele>2131.39990234375</ele>
        <time>2021-06-28T02:53:56.000Z</time>
        <extensions>
          <ns3:TrackPointExtension>
            <ns3:atemp>29.0</ns3:atemp>
            <ns3:hr>93</ns3:hr>
          </ns3:TrackPointExtension>
        </extensions>
      </trkpt>
      <trkpt lat="36.8696352280676364898681640625" lon="-118.51642473600804805755615234375">
        <ele>2131.60009765625</ele>
        <time>2021-06-28T02:54:32.000Z</time>
        <extensions>
          <ns3:TrackPointExtension>
            <ns3:atemp>29.0</ns3:atemp>
            <ns3:hr>89</ns3:hr>
          </ns3:TrackPointExtension>
        </extensions>
      </trkpt>
      <trkpt lat="36.869640760123729705810546875" lon="-118.51643848232924938201904296875">
        <ele>2131.800048828125</ele>
        <time>2021-06-28T02:54:49.000Z</time>
        <extensions>
          <ns3:TrackPointExtension>
            <ns3:atemp>29.0</ns3:atemp>
            <ns3:hr>86</ns3:hr>
          </ns3:TrackPointExtension>
        </extensions>
      </trkpt>
      <trkpt lat="36.869635395705699920654296875" lon="-118.5164467804133892059326171875">
        <ele>2131.800048828125</ele>
        <time>2021-06-28T02:54:53.000Z</time>
        <extensions>
          <ns3:TrackPointExtension>
            <ns3:atemp>29.0</ns3:atemp>
            <ns3:hr>83</ns3:hr>
          </ns3:TrackPointExtension>
        </extensions>
      </trkpt>
      <trkpt lat="36.8696271814405918121337890625" lon="-118.5164509713649749755859375">
        <ele>2131.800048828125</ele>
        <time>2021-06-28T02:54:58.000Z</time>
        <extensions>
          <ns3:TrackPointExtension>
            <ns3:atemp>28.0</ns3:atemp>
            <ns3:hr>83</ns3:hr>
          </ns3:TrackPointExtension>
        </extensions>
      </trkpt>
      <trkpt lat="36.869619973003864288330078125" lon="-118.5164524801075458526611328125">
        <ele>2131.800048828125</ele>
        <time>2021-06-28T02:55:04.000Z</time>
        <extensions>
          <ns3:TrackPointExtension>
            <ns3:atemp>28.0</ns3:atemp>
            <ns3:hr>87</ns3:hr>
          </ns3:TrackPointExtension>
        </extensions>
      </trkpt>
      <trkpt lat="36.86961821280419826507568359375" lon="-118.5164538212120532989501953125">
        <ele>2131.800048828125</ele>
        <time>2021-06-28T02:55:07.000Z</time>
        <extensions>
          <ns3:TrackPointExtension>
            <ns3:atemp>28.0</ns3:atemp>
            <ns3:hr>91</ns3:hr>
          </ns3:TrackPointExtension>
        </extensions>
      </trkpt>
      <trkpt lat="36.8696174584329128265380859375" lon="-118.51645700633525848388671875">
        <ele>2131.800048828125</ele>
        <time>2021-06-28T02:55:11.000Z</time>
        <extensions>
          <ns3:TrackPointExtension>
            <ns3:atemp>28.0</ns3:atemp>
            <ns3:hr>94</ns3:hr>
          </ns3:TrackPointExtension>
        </extensions>
      </trkpt>
      <trkpt lat="36.86961754225194454193115234375" lon="-118.51646094582974910736083984375">
        <ele>2131.800048828125</ele>
        <time>2021-06-28T02:55:16.000Z</time>
        <extensions>
          <ns3:TrackPointExtension>
            <ns3:atemp>28.0</ns3:atemp>
            <ns3:hr>97</ns3:hr>
          </ns3:TrackPointExtension>
        </extensions>
      </trkpt>
      <trkpt lat="36.8696187995374202728271484375" lon="-118.51647217757999897003173828125">
        <ele>2131.800048828125</ele>
        <time>2021-06-28T02:55:26.000Z</time>
        <extensions>
          <ns3:TrackPointExtension>
            <ns3:atemp>28.0</ns3:atemp>
            <ns3:hr>100</ns3:hr>
          </ns3:TrackPointExtension>
        </extensions>
      </trkpt>
      <trkpt lat="36.8696187995374202728271484375" lon="-118.51647620089352130889892578125">
        <ele>2131.800048828125</ele>
        <time>2021-06-28T02:55:31.000Z</time>
        <extensions>
          <ns3:TrackPointExtension>
            <ns3:atemp>28.0</ns3:atemp>
            <ns3:hr>97</ns3:hr>
          </ns3:TrackPointExtension>
        </extensions>
      </trkpt>
      <trkpt lat="36.8696187995374202728271484375" lon="-118.5164772905409336090087890625">
        <ele>2131.800048828125</ele>
        <time>2021-06-28T02:55:34.000Z</time>
        <extensions>
          <ns3:TrackPointExtension>
            <ns3:atemp>28.0</ns3:atemp>
            <ns3:hr>94</ns3:hr>
          </ns3:TrackPointExtension>
        </extensions>
      </trkpt>
      <trkpt lat="36.8696161173284053802490234375" lon="-118.5164725966751575469970703125">
        <ele>2131.800048828125</ele>
        <time>2021-06-28T02:55:46.000Z</time>
        <extensions>
          <ns3:TrackPointExtension>
            <ns3:atemp>28.0</ns3:atemp>
            <ns3:hr>94</ns3:hr>
          </ns3:TrackPointExtension>
        </extensions>
      </trkpt>
      <trkpt lat="36.8696120940148830413818359375" lon="-118.5164685733616352081298828125">
        <ele>2131.800048828125</ele>
        <time>2021-06-28T02:55:54.000Z</time>
        <extensions>
          <ns3:TrackPointExtension>
            <ns3:atemp>28.0</ns3:atemp>
            <ns3:hr>91</ns3:hr>
          </ns3:TrackPointExtension>
        </extensions>
      </trkpt>
      <trkpt lat="36.8696114234626293182373046875" lon="-118.51646798662841320037841796875">
        <ele>2131.800048828125</ele>
        <time>2021-06-28T02:56:08.000Z</time>
        <extensions>
          <ns3:TrackPointExtension>
            <ns3:atemp>28.0</ns3:atemp>
            <ns3:hr>94</ns3:hr>
          </ns3:TrackPointExtension>
        </extensions>
      </trkpt>
      <trkpt lat="36.8696114234626293182373046875" lon="-118.516468070447444915771484375">
        <ele>2131.800048828125</ele>
        <time>2021-06-28T02:56:15.000Z</time>
        <extensions>
          <ns3:TrackPointExtension>
            <ns3:atemp>28.0</ns3:atemp>
            <ns3:hr>91</ns3:hr>
          </ns3:TrackPointExtension>
        </extensions>
      </trkpt>
      <trkpt lat="36.8696114234626293182373046875" lon="-118.51646832190454006195068359375">
        <ele>2131.800048828125</ele>
        <time>2021-06-28T02:56:18.000Z</time>
        <extensions>
          <ns3:TrackPointExtension>
            <ns3:atemp>28.0</ns3:atemp>
            <ns3:hr>88</ns3:hr>
          </ns3:TrackPointExtension>
        </extensions>
      </trkpt>
      <trkpt lat="36.86961150728166103363037109375" lon="-118.51646882481873035430908203125">
        <ele>2131.800048828125</ele>
        <time>2021-06-28T02:56:25.000Z</time>
        <extensions>
          <ns3:TrackPointExtension>
            <ns3:atemp>28.0</ns3:atemp>
            <ns3:hr>91</ns3:hr>
          </ns3:TrackPointExtension>
        </extensions>
      </trkpt>
      <trkpt lat="36.86961150728166103363037109375" lon="-118.51646907627582550048828125">
        <ele>2131.800048828125</ele>
        <time>2021-06-28T02:56:27.000Z</time>
        <extensions>
          <ns3:TrackPointExtension>
            <ns3:atemp>28.0</ns3:atemp>
            <ns3:hr>94</ns3:hr>
          </ns3:TrackPointExtension>
        </extensions>
      </trkpt>
      <trkpt lat="36.86961150728166103363037109375" lon="-118.51646916009485721588134765625">
        <ele>2131.800048828125</ele>
        <time>2021-06-28T02:56:28.000Z</time>
        <extensions>
          <ns3:TrackPointExtension>
            <ns3:atemp>28.0</ns3:atemp>
            <ns3:hr>98</ns3:hr>
          </ns3:TrackPointExtension>
        </extensions>
      </trkpt>
      <trkpt lat="36.86961167491972446441650390625" lon="-118.51646983064711093902587890625">
        <ele>2131.800048828125</ele>
        <time>2021-06-28T02:56:34.000Z</time>
        <extensions>
          <ns3:TrackPointExtension>
            <ns3:atemp>28.0</ns3:atemp>
            <ns3:hr>102</ns3:hr>
          </ns3:TrackPointExtension>
        </extensions>
      </trkpt>
      <trkpt lat="36.8696117587387561798095703125" lon="-118.5164702497422695159912109375">
        <ele>2131.800048828125</ele>
        <time>2021-06-28T02:56:37.000Z</time>
        <extensions>
          <ns3:TrackPointExtension>
            <ns3:atemp>28.0</ns3:atemp>
            <ns3:hr>105</ns3:hr>
          </ns3:TrackPointExtension>
        </extensions>
      </trkpt>
      <trkpt lat="36.86961184255778789520263671875" lon="-118.51647050119936466217041015625">
        <ele>2131.800048828125</ele>
        <time>2021-06-28T02:56:39.000Z</time>
        <extensions>
          <ns3:TrackPointExtension>
            <ns3:atemp>28.0</ns3:atemp>
            <ns3:hr>102</ns3:hr>
          </ns3:TrackPointExtension>
        </extensions>
      </trkpt>
      <trkpt lat="36.8695882894098758697509765625" lon="-118.51656974293291568756103515625">
        <ele>2131.800048828125</ele>
        <time>2021-06-28T02:56:44.000Z</time>
        <extensions>
          <ns3:TrackPointExtension>
            <ns3:atemp>27.0</ns3:atemp>
            <ns3:hr>104</ns3:hr>
          </ns3:TrackPointExtension>
        </extensions>
      </trkpt>
      <trkpt lat="36.86957663856446743011474609375" lon="-118.5166073776781558990478515625">
        <ele>2131.800048828125</ele>
        <time>2021-06-28T02:56:46.000Z</time>
        <extensions>
          <ns3:TrackPointExtension>
            <ns3:atemp>27.0</ns3:atemp>
            <ns3:hr>105</ns3:hr>
          </ns3:TrackPointExtension>
        </extensions>
      </trkpt>
      <trkpt lat="36.86957244761288166046142578125" lon="-118.51673000492155551910400390625">
        <ele>2132</ele>
        <time>2021-06-28T02:56:52.000Z</time>
        <extensions>
          <ns3:TrackPointExtension>
            <ns3:atemp>27.0</ns3:atemp>
            <ns3:hr>103</ns3:hr>
          </ns3:TrackPointExtension>
        </extensions>
      </trkpt>
      <trkpt lat="36.869573704898357391357421875" lon="-118.516735620796680450439453125">
        <ele>2132.199951171875</ele>
        <time>2021-06-28T02:56:53.000Z</time>
        <extensions>
          <ns3:TrackPointExtension>
            <ns3:atemp>27.0</ns3:atemp>
            <ns3:hr>103</ns3:hr>
          </ns3:TrackPointExtension>
        </extensions>
      </trkpt>
      <trkpt lat="36.86956322751939296722412109375" lon="-118.51678532548248767852783203125">
        <ele>2132.199951171875</ele>
        <time>2021-06-28T02:56:59.000Z</time>
        <extensions>
          <ns3:TrackPointExtension>
            <ns3:atemp>27.0</ns3:atemp>
            <ns3:hr>100</ns3:hr>
          </ns3:TrackPointExtension>
        </extensions>
      </trkpt>
      <trkpt lat="36.869562976062297821044921875" lon="-118.5167964734137058258056640625">
        <ele>2132.199951171875</ele>
        <time>2021-06-28T02:57:00.000Z</time>
        <extensions>
          <ns3:TrackPointExtension>
            <ns3:atemp>27.0</ns3:atemp>
            <ns3:hr>100</ns3:hr>
          </ns3:TrackPointExtension>
        </extensions>
      </trkpt>
      <trkpt lat="36.86950321309268474578857421875" lon="-118.516862355172634124755859375">
        <ele>2132.199951171875</ele>
        <time>2021-06-28T02:57:09.000Z</time>
        <extensions>
          <ns3:TrackPointExtension>
            <ns3:atemp>27.0</ns3:atemp>
            <ns3:hr>98</ns3:hr>
          </ns3:TrackPointExtension>
        </extensions>
      </trkpt>
      <trkpt lat="36.86952165327966213226318359375" lon="-118.51690216921269893646240234375">
        <ele>2132.199951171875</ele>
        <time>2021-06-28T02:57:12.000Z</time>
        <extensions>
          <ns3:TrackPointExtension>
            <ns3:atemp>27.0</ns3:atemp>
            <ns3:hr>99</ns3:hr>
          </ns3:TrackPointExtension>
        </extensions>
      </trkpt>
      <trkpt lat="36.86953715980052947998046875" lon="-118.51692379452288150787353515625">
        <ele>2132</ele>
        <time>2021-06-28T02:57:14.000Z</time>
        <extensions>
          <ns3:TrackPointExtension>
            <ns3:atemp>27.0</ns3:atemp>
            <ns3:hr>102</ns3:hr>
          </ns3:TrackPointExtension>
        </extensions>
      </trkpt>
      <trkpt lat="36.86954260803759098052978515625" lon="-118.5169351100921630859375">
        <ele>2132</ele>
        <time>2021-06-28T02:57:15.000Z</time>
        <extensions>
          <ns3:TrackPointExtension>
            <ns3:atemp>27.0</ns3:atemp>
            <ns3:hr>98</ns3:hr>
          </ns3:TrackPointExtension>
        </extensions>
      </trkpt>
      <trkpt lat="36.869556605815887451171875" lon="-118.516991101205348968505859375">
        <ele>2131.800048828125</ele>
        <time>2021-06-28T02:57:21.000Z</time>
        <extensions>
          <ns3:TrackPointExtension>
            <ns3:atemp>27.0</ns3:atemp>
            <ns3:hr>99</ns3:hr>
          </ns3:TrackPointExtension>
        </extensions>
      </trkpt>
      <trkpt lat="36.8695634789764881134033203125" lon="-118.5170110501348972320556640625">
        <ele>2132.39990234375</ele>
        <time>2021-06-28T02:57:23.000Z</time>
        <extensions>
          <ns3:TrackPointExtension>
            <ns3:atemp>27.0</ns3:atemp>
            <ns3:hr>99</ns3:hr>
          </ns3:TrackPointExtension>
        </extensions>
      </trkpt>
      <trkpt lat="36.86963547952473163604736328125" lon="-118.51708908565342426300048828125">
        <ele>2132.39990234375</ele>
        <time>2021-06-28T02:57:28.000Z</time>
        <extensions>
          <ns3:TrackPointExtension>
            <ns3:atemp>27.0</ns3:atemp>
            <ns3:hr>100</ns3:hr>
          </ns3:TrackPointExtension>
        </extensions>
      </trkpt>
      <trkpt lat="36.8696476332843303680419921875" lon="-118.51708807982504367828369140625">
        <ele>2132.60009765625</ele>
        <time>2021-06-28T02:57:29.000Z</time>
        <extensions>
          <ns3:TrackPointExtension>
            <ns3:atemp>27.0</ns3:atemp>
            <ns3:hr>101</ns3:hr>
          </ns3:TrackPointExtension>
        </extensions>
      </trkpt>
      <trkpt lat="36.86969272792339324951171875" lon="-118.51705002598464488983154296875">
        <ele>2132.800048828125</ele>
        <time>2021-06-28T02:57:32.000Z</time>
        <extensions>
          <ns3:TrackPointExtension>
            <ns3:atemp>27.0</ns3:atemp>
            <ns3:hr>101</ns3:hr>
          </ns3:TrackPointExtension>
        </extensions>
      </trkpt>
      <trkpt lat="36.86971393413841724395751953125" lon="-118.5170368663966655731201171875">
        <ele>2132.800048828125</ele>
        <time>2021-06-28T02:57:35.000Z</time>
        <extensions>
          <ns3:TrackPointExtension>
            <ns3:atemp>27.0</ns3:atemp>
            <ns3:hr>102</ns3:hr>
          </ns3:TrackPointExtension>
        </extensions>
      </trkpt>
      <trkpt lat="36.8697270937263965606689453125" lon="-118.51703192107379436492919921875">
        <ele>2132.60009765625</ele>
        <time>2021-06-28T02:57:36.000Z</time>
        <extensions>
          <ns3:TrackPointExtension>
            <ns3:atemp>27.0</ns3:atemp>
            <ns3:hr>103</ns3:hr>
          </ns3:TrackPointExtension>
        </extensions>
      </trkpt>
      <trkpt lat="36.86982893384993076324462890625" lon="-118.51697358302772045135498046875">
        <ele>2132.800048828125</ele>
        <time>2021-06-28T02:57:43.000Z</time>
        <extensions>
          <ns3:TrackPointExtension>
            <ns3:atemp>27.0</ns3:atemp>
            <ns3:hr>102</ns3:hr>
          </ns3:TrackPointExtension>
        </extensions>
      </trkpt>
      <trkpt lat="36.8698457814753055572509765625" lon="-118.5169577412307262420654296875">
        <ele>2133</ele>
        <time>2021-06-28T02:57:45.000Z</time>
        <extensions>
          <ns3:TrackPointExtension>
            <ns3:atemp>27.0</ns3:atemp>
            <ns3:hr>101</ns3:hr>
          </ns3:TrackPointExtension>
        </extensions>
      </trkpt>
      <trkpt lat="36.869860701262950897216796875" lon="-118.51693712174892425537109375">
        <ele>2133</ele>
        <time>2021-06-28T02:57:48.000Z</time>
        <extensions>
          <ns3:TrackPointExtension>
            <ns3:atemp>27.0</ns3:atemp>
            <ns3:hr>99</ns3:hr>
          </ns3:TrackPointExtension>
        </extensions>
      </trkpt>
      <trkpt lat="36.86986329965293407440185546875" lon="-118.516920022666454315185546875">
        <ele>2133</ele>
        <time>2021-06-28T02:57:49.000Z</time>
        <extensions>
          <ns3:TrackPointExtension>
            <ns3:atemp>27.0</ns3:atemp>
            <ns3:hr>99</ns3:hr>
          </ns3:TrackPointExtension>
        </extensions>
      </trkpt>
      <trkpt lat="36.86991375871002674102783203125" lon="-118.51685221306979656219482421875">
        <ele>2133.199951171875</ele>
        <time>2021-06-28T02:57:55.000Z</time>
        <extensions>
          <ns3:TrackPointExtension>
            <ns3:atemp>27.0</ns3:atemp>
            <ns3:hr>100</ns3:hr>
          </ns3:TrackPointExtension>
        </extensions>
      </trkpt>
      <trkpt lat="36.869937814772129058837890625" lon="-118.5168345272541046142578125">
        <ele>2133.199951171875</ele>
        <time>2021-06-28T02:57:58.000Z</time>
        <extensions>
          <ns3:TrackPointExtension>
            <ns3:atemp>27.0</ns3:atemp>
            <ns3:hr>101</ns3:hr>
          </ns3:TrackPointExtension>
        </extensions>
      </trkpt>
      <trkpt lat="36.86995558440685272216796875" lon="-118.5168291628360748291015625">
        <ele>2133.39990234375</ele>
        <time>2021-06-28T02:58:01.000Z</time>
        <extensions>
          <ns3:TrackPointExtension>
            <ns3:atemp>27.0</ns3:atemp>
            <ns3:hr>99</ns3:hr>
          </ns3:TrackPointExtension>
        </extensions>
      </trkpt>
      <trkpt lat="36.87003512866795063018798828125" lon="-118.5168534703552722930908203125">
        <ele>2133.60009765625</ele>
        <time>2021-06-28T02:58:10.000Z</time>
        <extensions>
          <ns3:TrackPointExtension>
            <ns3:atemp>27.0</ns3:atemp>
            <ns3:hr>99</ns3:hr>
          </ns3:TrackPointExtension>
        </extensions>
      </trkpt>
      <trkpt lat="36.87006580643355846405029296875" lon="-118.51684500463306903839111328125">
        <ele>2133.800048828125</ele>
        <time>2021-06-28T02:58:12.000Z</time>
        <extensions>
          <ns3:TrackPointExtension>
            <ns3:atemp>27.0</ns3:atemp>
            <ns3:hr>99</ns3:hr>
          </ns3:TrackPointExtension>
        </extensions>
      </trkpt>
      <trkpt lat="36.87004401348531246185302734375" lon="-118.51682807318866252899169921875">
        <ele>2133.60009765625</ele>
        <time>2021-06-28T02:58:15.000Z</time>
        <extensions>
          <ns3:TrackPointExtension>
            <ns3:atemp>27.0</ns3:atemp>
            <ns3:hr>99</ns3:hr>
          </ns3:TrackPointExtension>
        </extensions>
      </trkpt>
      <trkpt lat="36.8700087256729602813720703125" lon="-118.5168316774070262908935546875">
        <ele>2133.39990234375</ele>
        <time>2021-06-28T02:58:18.000Z</time>
        <extensions>
          <ns3:TrackPointExtension>
            <ns3:atemp>27.0</ns3:atemp>
            <ns3:hr>98</ns3:hr>
          </ns3:TrackPointExtension>
        </extensions>
      </trkpt>
      <trkpt lat="36.86999523080885410308837890625" lon="-118.5168259777128696441650390625">
        <ele>2133.199951171875</ele>
        <time>2021-06-28T02:58:20.000Z</time>
        <extensions>
          <ns3:TrackPointExtension>
            <ns3:atemp>27.0</ns3:atemp>
            <ns3:hr>98</ns3:hr>
          </ns3:TrackPointExtension>
        </extensions>
      </trkpt>
      <trkpt lat="36.86998433433473110198974609375" lon="-118.51682136766612529754638671875">
        <ele>2133.199951171875</ele>
        <time>2021-06-28T02:58:22.000Z</time>
        <extensions>
          <ns3:TrackPointExtension>
            <ns3:atemp>27.0</ns3:atemp>
            <ns3:hr>98</ns3:hr>
          </ns3:TrackPointExtension>
        </extensions>
      </trkpt>
      <trkpt lat="36.86998014338314533233642578125" lon="-118.51682153530418872833251953125">
        <ele>2133.199951171875</ele>
        <time>2021-06-28T02:58:23.000Z</time>
        <extensions>
          <ns3:TrackPointExtension>
            <ns3:atemp>27.0</ns3:atemp>
            <ns3:hr>99</ns3:hr>
          </ns3:TrackPointExtension>
        </extensions>
      </trkpt>
      <trkpt lat="36.869965977966785430908203125" lon="-118.5168243013322353363037109375">
        <ele>2133.199951171875</ele>
        <time>2021-06-28T02:58:25.000Z</time>
        <extensions>
          <ns3:TrackPointExtension>
            <ns3:atemp>27.0</ns3:atemp>
            <ns3:hr>98</ns3:hr>
          </ns3:TrackPointExtension>
        </extensions>
      </trkpt>
      <trkpt lat="36.869931109249591827392578125" lon="-118.51682622916996479034423828125">
        <ele>2133.39990234375</ele>
        <time>2021-06-28T02:58:28.000Z</time>
        <extensions>
          <ns3:TrackPointExtension>
            <ns3:atemp>27.0</ns3:atemp>
            <ns3:hr>98</ns3:hr>
          </ns3:TrackPointExtension>
        </extensions>
      </trkpt>
      <trkpt lat="36.8698846735060214996337890625" lon="-118.51685087196528911590576171875">
        <ele>2133.39990234375</ele>
        <time>2021-06-28T02:58:31.000Z</time>
        <extensions>
          <ns3:TrackPointExtension>
            <ns3:atemp>27.0</ns3:atemp>
            <ns3:hr>98</ns3:hr>
          </ns3:TrackPointExtension>
        </extensions>
      </trkpt>
      <trkpt lat="36.869872100651264190673828125" lon="-118.51685271598398685455322265625">
        <ele>2133.39990234375</ele>
        <time>2021-06-28T02:58:32.000Z</time>
        <extensions>
          <ns3:TrackPointExtension>
            <ns3:atemp>27.0</ns3:atemp>
            <ns3:hr>98</ns3:hr>
          </ns3:TrackPointExtension>
        </extensions>
      </trkpt>
      <trkpt lat="36.86983513645827770233154296875" lon="-118.5168655402958393096923828125">
        <ele>2133.199951171875</ele>
        <time>2021-06-28T02:58:37.000Z</time>
        <extensions>
          <ns3:TrackPointExtension>
            <ns3:atemp>27.0</ns3:atemp>
            <ns3:hr>95</ns3:hr>
          </ns3:TrackPointExtension>
        </extensions>
      </trkpt>
      <trkpt lat="36.86983044259250164031982421875" lon="-118.516867719590663909912109375">
        <ele>2133.199951171875</ele>
        <time>2021-06-28T02:58:38.000Z</time>
        <extensions>
          <ns3:TrackPointExtension>
            <ns3:atemp>27.0</ns3:atemp>
            <ns3:hr>96</ns3:hr>
          </ns3:TrackPointExtension>
        </extensions>
      </trkpt>
      <trkpt lat="36.86982407234609127044677734375" lon="-118.5168712399899959564208984375">
        <ele>2133.199951171875</ele>
        <time>2021-06-28T02:58:39.000Z</time>
        <extensions>
          <ns3:TrackPointExtension>
            <ns3:atemp>27.0</ns3:atemp>
            <ns3:hr>96</ns3:hr>
          </ns3:TrackPointExtension>
        </extensions>
      </trkpt>
      <trkpt lat="36.86978300102055072784423828125" lon="-118.51690032519400119781494140625">
        <ele>2133</ele>
        <time>2021-06-28T02:58:44.000Z</time>
        <extensions>
          <ns3:TrackPointExtension>
            <ns3:atemp>27.0</ns3:atemp>
            <ns3:hr>95</ns3:hr>
          </ns3:TrackPointExtension>
        </extensions>
      </trkpt>
      <trkpt lat="36.8697250820696353912353515625" lon="-118.5169042646884918212890625">
        <ele>2132.800048828125</ele>
        <time>2021-06-28T02:58:47.000Z</time>
        <extensions>
          <ns3:TrackPointExtension>
            <ns3:atemp>27.0</ns3:atemp>
            <ns3:hr>94</ns3:hr>
          </ns3:TrackPointExtension>
        </extensions>
      </trkpt>
      <trkpt lat="36.86970454640686511993408203125" lon="-118.51692027412354946136474609375">
        <ele>2132.800048828125</ele>
        <time>2021-06-28T02:58:49.000Z</time>
        <extensions>
          <ns3:TrackPointExtension>
            <ns3:atemp>27.0</ns3:atemp>
            <ns3:hr>93</ns3:hr>
          </ns3:TrackPointExtension>
        </extensions>
      </trkpt>
      <trkpt lat="36.86969633214175701141357421875" lon="-118.51692907512187957763671875">
        <ele>2132.800048828125</ele>
        <time>2021-06-28T02:58:50.000Z</time>
        <extensions>
          <ns3:TrackPointExtension>
            <ns3:atemp>27.0</ns3:atemp>
            <ns3:hr>93</ns3:hr>
          </ns3:TrackPointExtension>
        </extensions>
      </trkpt>
      <trkpt lat="36.86969281174242496490478515625" lon="-118.51694407872855663299560546875">
        <ele>2132.60009765625</ele>
        <time>2021-06-28T02:58:51.000Z</time>
        <extensions>
          <ns3:TrackPointExtension>
            <ns3:atemp>27.0</ns3:atemp>
            <ns3:hr>94</ns3:hr>
          </ns3:TrackPointExtension>
        </extensions>
      </trkpt>
      <trkpt lat="36.8696754612028598785400390625" lon="-118.51698917336761951446533203125">
        <ele>2132.60009765625</ele>
        <time>2021-06-28T02:58:54.000Z</time>
        <extensions>
          <ns3:TrackPointExtension>
            <ns3:atemp>27.0</ns3:atemp>
            <ns3:hr>94</ns3:hr>
          </ns3:TrackPointExtension>
        </extensions>
      </trkpt>
      <trkpt lat="36.869664229452610015869140625" lon="-118.51704583503305912017822265625">
        <ele>2132.60009765625</ele>
        <time>2021-06-28T02:58:57.000Z</time>
        <extensions>
          <ns3:TrackPointExtension>
            <ns3:atemp>27.0</ns3:atemp>
            <ns3:hr>97</ns3:hr>
          </ns3:TrackPointExtension>
        </extensions>
      </trkpt>
      <trkpt lat="36.86966531910002231597900390625" lon="-118.51705706678330898284912109375">
        <ele>2132.60009765625</ele>
        <time>2021-06-28T02:58:58.000Z</time>
        <extensions>
          <ns3:TrackPointExtension>
            <ns3:atemp>27.0</ns3:atemp>
            <ns3:hr>96</ns3:hr>
          </ns3:TrackPointExtension>
        </extensions>
      </trkpt>
      <trkpt lat="36.86966230161488056182861328125" lon="-118.517091013491153717041015625">
        <ele>2132.60009765625</ele>
        <time>2021-06-28T02:59:01.000Z</time>
        <extensions>
          <ns3:TrackPointExtension>
            <ns3:atemp>27.0</ns3:atemp>
            <ns3:hr>96</ns3:hr>
          </ns3:TrackPointExtension>
        </extensions>
      </trkpt>
      <trkpt lat="36.8696808256208896636962890625" lon="-118.51711473427712917327880859375">
        <ele>2132.60009765625</ele>
        <time>2021-06-28T02:59:05.000Z</time>
        <extensions>
          <ns3:TrackPointExtension>
            <ns3:atemp>27.0</ns3:atemp>
            <ns3:hr>97</ns3:hr>
          </ns3:TrackPointExtension>
        </extensions>
      </trkpt>
      <trkpt lat="36.8696821667253971099853515625" lon="-118.517112471163272857666015625">
        <ele>2132.39990234375</ele>
        <time>2021-06-28T02:59:06.000Z</time>
        <extensions>
          <ns3:TrackPointExtension>
            <ns3:atemp>27.0</ns3:atemp>
            <ns3:hr>96</ns3:hr>
          </ns3:TrackPointExtension>
        </extensions>
      </trkpt>
      <trkpt lat="36.86969809234142303466796875" lon="-118.5171107947826385498046875">
        <ele>2132.800048828125</ele>
        <time>2021-06-28T02:59:13.000Z</time>
        <extensions>
          <ns3:TrackPointExtension>
            <ns3:atemp>27.0</ns3:atemp>
            <ns3:hr>95</ns3:hr>
          </ns3:TrackPointExtension>
        </extensions>
      </trkpt>
      <trkpt lat="36.869699768722057342529296875" lon="-118.51710668765008449554443359375">
        <ele>2132.39990234375</ele>
        <time>2021-06-28T02:59:21.000Z</time>
        <extensions>
          <ns3:TrackPointExtension>
            <ns3:atemp>27.0</ns3:atemp>
            <ns3:hr>92</ns3:hr>
          </ns3:TrackPointExtension>
        </extensions>
      </trkpt>
      <trkpt lat="36.869699768722057342529296875" lon="-118.51710668765008449554443359375">
        <ele>2132.39990234375</ele>
        <time>2021-06-28T02:59:26.000Z</time>
        <extensions>
          <ns3:TrackPointExtension>
            <ns3:atemp>27.0</ns3:atemp>
            <ns3:hr>89</ns3:hr>
          </ns3:TrackPointExtension>
        </extensions>
      </trkpt>
      <trkpt lat="36.86969800852239131927490234375" lon="-118.517109453678131103515625">
        <ele>2132.39990234375</ele>
        <time>2021-06-28T02:59:29.000Z</time>
        <extensions>
          <ns3:TrackPointExtension>
            <ns3:atemp>27.0</ns3:atemp>
            <ns3:hr>86</ns3:hr>
          </ns3:TrackPointExtension>
        </extensions>
      </trkpt>
      <trkpt lat="36.86968711204826831817626953125" lon="-118.51713485084474086761474609375">
        <ele>2132.39990234375</ele>
        <time>2021-06-28T02:59:35.000Z</time>
        <extensions>
          <ns3:TrackPointExtension>
            <ns3:atemp>27.0</ns3:atemp>
            <ns3:hr>86</ns3:hr>
          </ns3:TrackPointExtension>
        </extensions>
      </trkpt>
      <trkpt lat="36.86965911649167537689208984375" lon="-118.51718564517796039581298828125">
        <ele>2132.199951171875</ele>
        <time>2021-06-28T02:59:41.000Z</time>
        <extensions>
          <ns3:TrackPointExtension>
            <ns3:atemp>27.0</ns3:atemp>
            <ns3:hr>89</ns3:hr>
          </ns3:TrackPointExtension>
        </extensions>
      </trkpt>
      <trkpt lat="36.86960681341588497161865234375" lon="-118.517211712896823883056640625">
        <ele>2132.199951171875</ele>
        <time>2021-06-28T02:59:47.000Z</time>
        <extensions>
          <ns3:TrackPointExtension>
            <ns3:atemp>27.0</ns3:atemp>
            <ns3:hr>90</ns3:hr>
          </ns3:TrackPointExtension>
        </extensions>
      </trkpt>
      <trkpt lat="36.86960211955010890960693359375" lon="-118.5172008164227008819580078125">
        <ele>2132.199951171875</ele>
        <time>2021-06-28T02:59:49.000Z</time>
        <extensions>
          <ns3:TrackPointExtension>
            <ns3:atemp>27.0</ns3:atemp>
            <ns3:hr>87</ns3:hr>
          </ns3:TrackPointExtension>
        </extensions>
      </trkpt>
      <trkpt lat="36.86964134685695171356201171875" lon="-118.51716083474457263946533203125">
        <ele>2131.800048828125</ele>
        <time>2021-06-28T02:59:54.000Z</time>
        <extensions>
          <ns3:TrackPointExtension>
            <ns3:atemp>27.0</ns3:atemp>
            <ns3:hr>84</ns3:hr>
          </ns3:TrackPointExtension>
        </extensions>
      </trkpt>
      <trkpt lat="36.86964469961822032928466796875" lon="-118.51715060882270336151123046875">
        <ele>2131.800048828125</ele>
        <time>2021-06-28T02:59:55.000Z</time>
        <extensions>
          <ns3:TrackPointExtension>
            <ns3:atemp>27.0</ns3:atemp>
            <ns3:hr>86</ns3:hr>
          </ns3:TrackPointExtension>
        </extensions>
      </trkpt>
      <trkpt lat="36.8696439452469348907470703125" lon="-118.51711071096360683441162109375">
        <ele>2131.800048828125</ele>
        <time>2021-06-28T02:59:59.000Z</time>
        <extensions>
          <ns3:TrackPointExtension>
            <ns3:atemp>27.0</ns3:atemp>
            <ns3:hr>87</ns3:hr>
          </ns3:TrackPointExtension>
        </extensions>
      </trkpt>
    </trkseg>
  </trk>
</gpx>
